<?xml version="1.0" encoding="UTF-8" standalone="no" ?>
<gpx xmlns="http://www.topografix.com/GPX/1/1" xmlns:xsi="http://www.w3.org/2001/XMLSchema-instance" xsi:schemaLocation="http://www.topografix.com/GPX/1/1 http://www.topografix.com/GPX/1/1/gpx.xsd" version="1.1" creator="VisuGPX - https://www.visugpx.com">
  <metadata>
    <name>La Louis Pasteur(100km)</name>
    <desc><![CDATA[Enfin une belle journée pour cette sortie cyclo ]]></desc>
  </metadata>
  <wpt lat="47.08978" lon="5.48492">
    <ele>231</ele>
  </wpt>
  <trk>
    <name><![CDATA[La Louis Pasteur(100km)_1]]></name>
    <trkseg>
      <trkpt lat="47.08978" lon="5.48492">
        <ele>231</ele>
        <time>2011-08-16T11:13:08Z</time>
      </trkpt>
      <trkpt lat="47.0897" lon="5.48497">
        <ele>231</ele>
        <time>2011-08-16T11:13:54Z</time>
      </trkpt>
      <trkpt lat="47.08962" lon="5.48504">
        <ele>231</ele>
        <time>2011-08-16T11:13:59Z</time>
      </trkpt>
      <trkpt lat="47.08952" lon="5.48501">
        <ele>242</ele>
        <time>2011-08-16T11:14:09Z</time>
      </trkpt>
      <trkpt lat="47.08941" lon="5.48494">
        <ele>254</ele>
        <time>2011-08-16T11:14:14Z</time>
      </trkpt>
      <trkpt lat="47.08931" lon="5.4849">
        <ele>274</ele>
        <time>2011-08-16T11:14:21Z</time>
      </trkpt>
      <trkpt lat="47.0894" lon="5.48495">
        <ele>268</ele>
        <time>2011-08-16T11:14:31Z</time>
      </trkpt>
      <trkpt lat="47.08928" lon="5.48492">
        <ele>286</ele>
        <time>2011-08-16T11:14:37Z</time>
      </trkpt>
      <trkpt lat="47.08916" lon="5.48483">
        <ele>299</ele>
        <time>2011-08-16T11:14:39Z</time>
      </trkpt>
      <trkpt lat="47.08908" lon="5.48475">
        <ele>306</ele>
        <time>2011-08-16T11:14:41Z</time>
      </trkpt>
      <trkpt lat="47.08899" lon="5.48467">
        <ele>314</ele>
        <time>2011-08-16T11:14:46Z</time>
      </trkpt>
      <trkpt lat="47.08891" lon="5.48459">
        <ele>319</ele>
        <time>2011-08-16T11:14:49Z</time>
      </trkpt>
      <trkpt lat="47.08881" lon="5.48446">
        <ele>319</ele>
        <time>2011-08-16T11:14:51Z</time>
      </trkpt>
      <trkpt lat="47.08871" lon="5.48432">
        <ele>327</ele>
        <time>2011-08-16T11:14:53Z</time>
      </trkpt>
      <trkpt lat="47.08864" lon="5.4842">
        <ele>327</ele>
        <time>2011-08-16T11:14:55Z</time>
      </trkpt>
      <trkpt lat="47.08857" lon="5.48404">
        <ele>320</ele>
        <time>2011-08-16T11:14:58Z</time>
      </trkpt>
      <trkpt lat="47.08848" lon="5.4839">
        <ele>320</ele>
        <time>2011-08-16T11:15:01Z</time>
      </trkpt>
      <trkpt lat="47.08841" lon="5.48378">
        <ele>320</ele>
        <time>2011-08-16T11:15:03Z</time>
      </trkpt>
      <trkpt lat="47.08857" lon="5.48384">
        <ele>280</ele>
        <time>2011-08-16T11:15:04Z</time>
      </trkpt>
      <trkpt lat="47.08856" lon="5.48368">
        <ele>257</ele>
        <time>2011-08-16T11:15:07Z</time>
      </trkpt>
      <trkpt lat="47.08848" lon="5.48355">
        <ele>251</ele>
        <time>2011-08-16T11:15:09Z</time>
      </trkpt>
      <trkpt lat="47.08841" lon="5.48342">
        <ele>246</ele>
        <time>2011-08-16T11:15:11Z</time>
      </trkpt>
      <trkpt lat="47.08834" lon="5.4833">
        <ele>246</ele>
        <time>2011-08-16T11:15:13Z</time>
      </trkpt>
      <trkpt lat="47.08827" lon="5.48316">
        <ele>240</ele>
        <time>2011-08-16T11:15:16Z</time>
      </trkpt>
      <trkpt lat="47.08822" lon="5.48304">
        <ele>240</ele>
        <time>2011-08-16T11:15:19Z</time>
      </trkpt>
      <trkpt lat="47.08813" lon="5.48289">
        <ele>240</ele>
        <time>2011-08-16T11:15:22Z</time>
      </trkpt>
      <trkpt lat="47.08807" lon="5.48277">
        <ele>240</ele>
        <time>2011-08-16T11:15:24Z</time>
      </trkpt>
      <trkpt lat="47.088" lon="5.48265">
        <ele>240</ele>
        <time>2011-08-16T11:15:26Z</time>
      </trkpt>
      <trkpt lat="47.08792" lon="5.48255">
        <ele>234</ele>
        <time>2011-08-16T11:15:28Z</time>
      </trkpt>
      <trkpt lat="47.08778" lon="5.4826">
        <ele>234</ele>
        <time>2011-08-16T11:15:31Z</time>
      </trkpt>
      <trkpt lat="47.08768" lon="5.48271">
        <ele>234</ele>
        <time>2011-08-16T11:15:33Z</time>
      </trkpt>
      <trkpt lat="47.08758" lon="5.48284">
        <ele>234</ele>
        <time>2011-08-16T11:15:35Z</time>
      </trkpt>
      <trkpt lat="47.08746" lon="5.48298">
        <ele>234</ele>
        <time>2011-08-16T11:15:37Z</time>
      </trkpt>
      <trkpt lat="47.08734" lon="5.48313">
        <ele>234</ele>
        <time>2011-08-16T11:15:39Z</time>
      </trkpt>
      <trkpt lat="47.08721" lon="5.48329">
        <ele>234</ele>
        <time>2011-08-16T11:15:41Z</time>
      </trkpt>
      <trkpt lat="47.08714" lon="5.48338">
        <ele>234</ele>
        <time>2011-08-16T11:15:42Z</time>
      </trkpt>
      <trkpt lat="47.087" lon="5.48354">
        <ele>234</ele>
        <time>2011-08-16T11:15:44Z</time>
      </trkpt>
      <trkpt lat="47.08687" lon="5.48369">
        <ele>234</ele>
        <time>2011-08-16T11:15:46Z</time>
      </trkpt>
      <trkpt lat="47.08676" lon="5.48382">
        <ele>234</ele>
        <time>2011-08-16T11:15:48Z</time>
      </trkpt>
      <trkpt lat="47.08668" lon="5.48392">
        <ele>234</ele>
        <time>2011-08-16T11:15:50Z</time>
      </trkpt>
      <trkpt lat="47.08662" lon="5.48403">
        <ele>234</ele>
        <time>2011-08-16T11:15:54Z</time>
      </trkpt>
      <trkpt lat="47.08665" lon="5.48419">
        <ele>234</ele>
        <time>2011-08-16T11:15:58Z</time>
      </trkpt>
      <trkpt lat="47.08664" lon="5.48435">
        <ele>234</ele>
        <time>2011-08-16T11:16:01Z</time>
      </trkpt>
      <trkpt lat="47.0866" lon="5.48452">
        <ele>228</ele>
        <time>2011-08-16T11:16:03Z</time>
      </trkpt>
      <trkpt lat="47.08656" lon="5.48472">
        <ele>228</ele>
        <time>2011-08-16T11:16:05Z</time>
      </trkpt>
      <trkpt lat="47.08649" lon="5.48493">
        <ele>228</ele>
        <time>2011-08-16T11:16:07Z</time>
      </trkpt>
      <trkpt lat="47.08642" lon="5.48517">
        <ele>228</ele>
        <time>2011-08-16T11:16:09Z</time>
      </trkpt>
      <trkpt lat="47.08638" lon="5.4853">
        <ele>228</ele>
        <time>2011-08-16T11:16:10Z</time>
      </trkpt>
      <trkpt lat="47.08634" lon="5.48543">
        <ele>228</ele>
        <time>2011-08-16T11:16:11Z</time>
      </trkpt>
      <trkpt lat="47.08628" lon="5.48554">
        <ele>228</ele>
        <time>2011-08-16T11:16:12Z</time>
      </trkpt>
      <trkpt lat="47.0862" lon="5.48562">
        <ele>223</ele>
        <time>2011-08-16T11:16:13Z</time>
      </trkpt>
      <trkpt lat="47.08612" lon="5.48569">
        <ele>223</ele>
        <time>2011-08-16T11:16:14Z</time>
      </trkpt>
      <trkpt lat="47.08603" lon="5.48573">
        <ele>223</ele>
        <time>2011-08-16T11:16:15Z</time>
      </trkpt>
      <trkpt lat="47.08594" lon="5.48575">
        <ele>223</ele>
        <time>2011-08-16T11:16:16Z</time>
      </trkpt>
      <trkpt lat="47.08584" lon="5.48577">
        <ele>223</ele>
        <time>2011-08-16T11:16:17Z</time>
      </trkpt>
      <trkpt lat="47.08574" lon="5.48578">
        <ele>223</ele>
        <time>2011-08-16T11:16:18Z</time>
      </trkpt>
      <trkpt lat="47.08565" lon="5.4858">
        <ele>223</ele>
        <time>2011-08-16T11:16:19Z</time>
      </trkpt>
      <trkpt lat="47.08549" lon="5.4859">
        <ele>223</ele>
        <time>2011-08-16T11:16:21Z</time>
      </trkpt>
      <trkpt lat="47.08536" lon="5.486">
        <ele>223</ele>
        <time>2011-08-16T11:16:23Z</time>
      </trkpt>
      <trkpt lat="47.08526" lon="5.4861">
        <ele>223</ele>
        <time>2011-08-16T11:16:25Z</time>
      </trkpt>
      <trkpt lat="47.08518" lon="5.48617">
        <ele>216</ele>
        <time>2011-08-16T11:16:28Z</time>
      </trkpt>
      <trkpt lat="47.08521" lon="5.48631">
        <ele>216</ele>
        <time>2011-08-16T11:16:33Z</time>
      </trkpt>
      <trkpt lat="47.0853" lon="5.48643">
        <ele>216</ele>
        <time>2011-08-16T11:16:36Z</time>
      </trkpt>
      <trkpt lat="47.08538" lon="5.48659">
        <ele>223</ele>
        <time>2011-08-16T11:16:39Z</time>
      </trkpt>
      <trkpt lat="47.08545" lon="5.4867">
        <ele>223</ele>
        <time>2011-08-16T11:16:41Z</time>
      </trkpt>
      <trkpt lat="47.08552" lon="5.48683">
        <ele>228</ele>
        <time>2011-08-16T11:16:43Z</time>
      </trkpt>
      <trkpt lat="47.08557" lon="5.48694">
        <ele>228</ele>
        <time>2011-08-16T11:16:45Z</time>
      </trkpt>
      <trkpt lat="47.08564" lon="5.4871">
        <ele>241</ele>
        <time>2011-08-16T11:16:48Z</time>
      </trkpt>
      <trkpt lat="47.0857" lon="5.48722">
        <ele>241</ele>
        <time>2011-08-16T11:16:50Z</time>
      </trkpt>
      <trkpt lat="47.08578" lon="5.48739">
        <ele>241</ele>
        <time>2011-08-16T11:16:52Z</time>
      </trkpt>
      <trkpt lat="47.08586" lon="5.48754">
        <ele>241</ele>
        <time>2011-08-16T11:16:54Z</time>
      </trkpt>
      <trkpt lat="47.08594" lon="5.48771">
        <ele>241</ele>
        <time>2011-08-16T11:16:56Z</time>
      </trkpt>
      <trkpt lat="47.08601" lon="5.48787">
        <ele>235</ele>
        <time>2011-08-16T11:16:58Z</time>
      </trkpt>
      <trkpt lat="47.0861" lon="5.48803">
        <ele>235</ele>
        <time>2011-08-16T11:17:00Z</time>
      </trkpt>
      <trkpt lat="47.08618" lon="5.48819">
        <ele>227</ele>
        <time>2011-08-16T11:17:02Z</time>
      </trkpt>
      <trkpt lat="47.08622" lon="5.48831">
        <ele>227</ele>
        <time>2011-08-16T11:17:04Z</time>
      </trkpt>
      <trkpt lat="47.08628" lon="5.48844">
        <ele>227</ele>
        <time>2011-08-16T11:17:06Z</time>
      </trkpt>
      <trkpt lat="47.08637" lon="5.4886">
        <ele>227</ele>
        <time>2011-08-16T11:17:08Z</time>
      </trkpt>
      <trkpt lat="47.08645" lon="5.48875">
        <ele>221</ele>
        <time>2011-08-16T11:17:10Z</time>
      </trkpt>
      <trkpt lat="47.08654" lon="5.48891">
        <ele>221</ele>
        <time>2011-08-16T11:17:12Z</time>
      </trkpt>
      <trkpt lat="47.0866" lon="5.48906">
        <ele>215</ele>
        <time>2011-08-16T11:17:14Z</time>
      </trkpt>
      <trkpt lat="47.08668" lon="5.48922">
        <ele>215</ele>
        <time>2011-08-16T11:17:16Z</time>
      </trkpt>
      <trkpt lat="47.08676" lon="5.48938">
        <ele>215</ele>
        <time>2011-08-16T11:17:18Z</time>
      </trkpt>
      <trkpt lat="47.08683" lon="5.48953">
        <ele>215</ele>
        <time>2011-08-16T11:17:20Z</time>
      </trkpt>
      <trkpt lat="47.0869" lon="5.48969">
        <ele>210</ele>
        <time>2011-08-16T11:17:22Z</time>
      </trkpt>
      <trkpt lat="47.08697" lon="5.48983">
        <ele>210</ele>
        <time>2011-08-16T11:17:24Z</time>
      </trkpt>
      <trkpt lat="47.08703" lon="5.48996">
        <ele>210</ele>
        <time>2011-08-16T11:17:26Z</time>
      </trkpt>
      <trkpt lat="47.08708" lon="5.49009">
        <ele>210</ele>
        <time>2011-08-16T11:17:28Z</time>
      </trkpt>
      <trkpt lat="47.08715" lon="5.49023">
        <ele>210</ele>
        <time>2011-08-16T11:17:30Z</time>
      </trkpt>
      <trkpt lat="47.0872" lon="5.49036">
        <ele>210</ele>
        <time>2011-08-16T11:17:32Z</time>
      </trkpt>
      <trkpt lat="47.08726" lon="5.49049">
        <ele>210</ele>
        <time>2011-08-16T11:17:34Z</time>
      </trkpt>
      <trkpt lat="47.0873" lon="5.49062">
        <ele>210</ele>
        <time>2011-08-16T11:17:36Z</time>
      </trkpt>
      <trkpt lat="47.08735" lon="5.49077">
        <ele>210</ele>
        <time>2011-08-16T11:17:38Z</time>
      </trkpt>
      <trkpt lat="47.08741" lon="5.49092">
        <ele>210</ele>
        <time>2011-08-16T11:17:40Z</time>
      </trkpt>
      <trkpt lat="47.08749" lon="5.49104">
        <ele>210</ele>
        <time>2011-08-16T11:17:42Z</time>
      </trkpt>
      <trkpt lat="47.08757" lon="5.49115">
        <ele>210</ele>
        <time>2011-08-16T11:17:44Z</time>
      </trkpt>
      <trkpt lat="47.08765" lon="5.49125">
        <ele>210</ele>
        <time>2011-08-16T11:17:46Z</time>
      </trkpt>
      <trkpt lat="47.08774" lon="5.49135">
        <ele>210</ele>
        <time>2011-08-16T11:17:48Z</time>
      </trkpt>
      <trkpt lat="47.08783" lon="5.49144">
        <ele>210</ele>
        <time>2011-08-16T11:17:50Z</time>
      </trkpt>
      <trkpt lat="47.08792" lon="5.49151">
        <ele>210</ele>
        <time>2011-08-16T11:17:52Z</time>
      </trkpt>
      <trkpt lat="47.08802" lon="5.49156">
        <ele>210</ele>
        <time>2011-08-16T11:17:54Z</time>
      </trkpt>
      <trkpt lat="47.08812" lon="5.49162">
        <ele>210</ele>
        <time>2011-08-16T11:17:56Z</time>
      </trkpt>
      <trkpt lat="47.08822" lon="5.49167">
        <ele>210</ele>
        <time>2011-08-16T11:17:58Z</time>
      </trkpt>
      <trkpt lat="47.0883" lon="5.49173">
        <ele>216</ele>
        <time>2011-08-16T11:18:00Z</time>
      </trkpt>
      <trkpt lat="47.0884" lon="5.49179">
        <ele>216</ele>
        <time>2011-08-16T11:18:02Z</time>
      </trkpt>
      <trkpt lat="47.08845" lon="5.49195">
        <ele>232</ele>
        <time>2011-08-16T11:18:06Z</time>
      </trkpt>
      <trkpt lat="47.08853" lon="5.49209">
        <ele>232</ele>
        <time>2011-08-16T11:18:08Z</time>
      </trkpt>
      <trkpt lat="47.08861" lon="5.49224">
        <ele>232</ele>
        <time>2011-08-16T11:18:10Z</time>
      </trkpt>
      <trkpt lat="47.08869" lon="5.49239">
        <ele>225</ele>
        <time>2011-08-16T11:18:12Z</time>
      </trkpt>
      <trkpt lat="47.08874" lon="5.49255">
        <ele>225</ele>
        <time>2011-08-16T11:18:14Z</time>
      </trkpt>
      <trkpt lat="47.08867" lon="5.49271">
        <ele>217</ele>
        <time>2011-08-16T11:18:18Z</time>
      </trkpt>
      <trkpt lat="47.08865" lon="5.49287">
        <ele>217</ele>
        <time>2011-08-16T11:18:21Z</time>
      </trkpt>
      <trkpt lat="47.08869" lon="5.49302">
        <ele>217</ele>
        <time>2011-08-16T11:18:23Z</time>
      </trkpt>
      <trkpt lat="47.08875" lon="5.49318">
        <ele>217</ele>
        <time>2011-08-16T11:18:25Z</time>
      </trkpt>
      <trkpt lat="47.0888" lon="5.49333">
        <ele>217</ele>
        <time>2011-08-16T11:18:27Z</time>
      </trkpt>
      <trkpt lat="47.08888" lon="5.49348">
        <ele>217</ele>
        <time>2011-08-16T11:18:29Z</time>
      </trkpt>
      <trkpt lat="47.08895" lon="5.49365">
        <ele>217</ele>
        <time>2011-08-16T11:18:31Z</time>
      </trkpt>
      <trkpt lat="47.08902" lon="5.49379">
        <ele>217</ele>
        <time>2011-08-16T11:18:33Z</time>
      </trkpt>
      <trkpt lat="47.08907" lon="5.49392">
        <ele>217</ele>
        <time>2011-08-16T11:18:35Z</time>
      </trkpt>
      <trkpt lat="47.08905" lon="5.49408">
        <ele>217</ele>
        <time>2011-08-16T11:18:39Z</time>
      </trkpt>
      <trkpt lat="47.089" lon="5.4942">
        <ele>217</ele>
        <time>2011-08-16T11:18:42Z</time>
      </trkpt>
      <trkpt lat="47.08891" lon="5.49423">
        <ele>217</ele>
        <time>2011-08-16T11:18:45Z</time>
      </trkpt>
      <trkpt lat="47.08881" lon="5.4943">
        <ele>217</ele>
        <time>2011-08-16T11:18:48Z</time>
      </trkpt>
      <trkpt lat="47.0887" lon="5.49441">
        <ele>217</ele>
        <time>2011-08-16T11:18:51Z</time>
      </trkpt>
      <trkpt lat="47.08861" lon="5.49447">
        <ele>212</ele>
        <time>2011-08-16T11:18:53Z</time>
      </trkpt>
      <trkpt lat="47.08852" lon="5.49453">
        <ele>212</ele>
        <time>2011-08-16T11:18:55Z</time>
      </trkpt>
      <trkpt lat="47.08843" lon="5.49459">
        <ele>212</ele>
        <time>2011-08-16T11:18:57Z</time>
      </trkpt>
      <trkpt lat="47.08834" lon="5.49464">
        <ele>212</ele>
        <time>2011-08-16T11:18:59Z</time>
      </trkpt>
      <trkpt lat="47.08825" lon="5.49471">
        <ele>212</ele>
        <time>2011-08-16T11:19:01Z</time>
      </trkpt>
      <trkpt lat="47.08816" lon="5.49476">
        <ele>212</ele>
        <time>2011-08-16T11:19:03Z</time>
      </trkpt>
      <trkpt lat="47.08807" lon="5.49482">
        <ele>212</ele>
        <time>2011-08-16T11:19:05Z</time>
      </trkpt>
      <trkpt lat="47.08798" lon="5.49488">
        <ele>212</ele>
        <time>2011-08-16T11:19:07Z</time>
      </trkpt>
      <trkpt lat="47.08788" lon="5.49494">
        <ele>212</ele>
        <time>2011-08-16T11:19:09Z</time>
      </trkpt>
      <trkpt lat="47.08778" lon="5.495">
        <ele>212</ele>
        <time>2011-08-16T11:19:11Z</time>
      </trkpt>
      <trkpt lat="47.08768" lon="5.49508">
        <ele>212</ele>
        <time>2011-08-16T11:19:13Z</time>
      </trkpt>
      <trkpt lat="47.08758" lon="5.49514">
        <ele>212</ele>
        <time>2011-08-16T11:19:15Z</time>
      </trkpt>
      <trkpt lat="47.08747" lon="5.49521">
        <ele>212</ele>
        <time>2011-08-16T11:19:17Z</time>
      </trkpt>
      <trkpt lat="47.08736" lon="5.49525">
        <ele>212</ele>
        <time>2011-08-16T11:19:19Z</time>
      </trkpt>
      <trkpt lat="47.08724" lon="5.49523">
        <ele>212</ele>
        <time>2011-08-16T11:19:21Z</time>
      </trkpt>
      <trkpt lat="47.08714" lon="5.49515">
        <ele>212</ele>
        <time>2011-08-16T11:19:23Z</time>
      </trkpt>
      <trkpt lat="47.08707" lon="5.49499">
        <ele>212</ele>
        <time>2011-08-16T11:19:25Z</time>
      </trkpt>
      <trkpt lat="47.08703" lon="5.49478">
        <ele>207</ele>
        <time>2011-08-16T11:19:27Z</time>
      </trkpt>
      <trkpt lat="47.08703" lon="5.49455">
        <ele>207</ele>
        <time>2011-08-16T11:19:29Z</time>
      </trkpt>
      <trkpt lat="47.08701" lon="5.49432">
        <ele>207</ele>
        <time>2011-08-16T11:19:31Z</time>
      </trkpt>
      <trkpt lat="47.08697" lon="5.4941">
        <ele>207</ele>
        <time>2011-08-16T11:19:33Z</time>
      </trkpt>
      <trkpt lat="47.08693" lon="5.49389">
        <ele>207</ele>
        <time>2011-08-16T11:19:35Z</time>
      </trkpt>
      <trkpt lat="47.08687" lon="5.49367">
        <ele>207</ele>
        <time>2011-08-16T11:19:37Z</time>
      </trkpt>
      <trkpt lat="47.08683" lon="5.49349">
        <ele>207</ele>
        <time>2011-08-16T11:19:39Z</time>
      </trkpt>
      <trkpt lat="47.08678" lon="5.49331">
        <ele>207</ele>
        <time>2011-08-16T11:19:41Z</time>
      </trkpt>
      <trkpt lat="47.08673" lon="5.49313">
        <ele>207</ele>
        <time>2011-08-16T11:19:43Z</time>
      </trkpt>
      <trkpt lat="47.08668" lon="5.49295">
        <ele>207</ele>
        <time>2011-08-16T11:19:45Z</time>
      </trkpt>
      <trkpt lat="47.08663" lon="5.49278">
        <ele>207</ele>
        <time>2011-08-16T11:19:47Z</time>
      </trkpt>
      <trkpt lat="47.08659" lon="5.49264">
        <ele>207</ele>
        <time>2011-08-16T11:19:49Z</time>
      </trkpt>
      <trkpt lat="47.08654" lon="5.4925">
        <ele>207</ele>
        <time>2011-08-16T11:19:51Z</time>
      </trkpt>
      <trkpt lat="47.08649" lon="5.49235">
        <ele>207</ele>
        <time>2011-08-16T11:19:53Z</time>
      </trkpt>
      <trkpt lat="47.08645" lon="5.4922">
        <ele>207</ele>
        <time>2011-08-16T11:19:55Z</time>
      </trkpt>
      <trkpt lat="47.08639" lon="5.49204">
        <ele>207</ele>
        <time>2011-08-16T11:19:57Z</time>
      </trkpt>
      <trkpt lat="47.08632" lon="5.4919">
        <ele>207</ele>
        <time>2011-08-16T11:19:59Z</time>
      </trkpt>
      <trkpt lat="47.08624" lon="5.49176">
        <ele>207</ele>
        <time>2011-08-16T11:20:01Z</time>
      </trkpt>
      <trkpt lat="47.08616" lon="5.49164">
        <ele>207</ele>
        <time>2011-08-16T11:20:03Z</time>
      </trkpt>
      <trkpt lat="47.08608" lon="5.49153">
        <ele>207</ele>
        <time>2011-08-16T11:20:05Z</time>
      </trkpt>
      <trkpt lat="47.08599" lon="5.49142">
        <ele>207</ele>
        <time>2011-08-16T11:20:07Z</time>
      </trkpt>
      <trkpt lat="47.08588" lon="5.49133">
        <ele>207</ele>
        <time>2011-08-16T11:20:09Z</time>
      </trkpt>
      <trkpt lat="47.08579" lon="5.49122">
        <ele>207</ele>
        <time>2011-08-16T11:20:11Z</time>
      </trkpt>
      <trkpt lat="47.08569" lon="5.49111">
        <ele>207</ele>
        <time>2011-08-16T11:20:13Z</time>
      </trkpt>
      <trkpt lat="47.08559" lon="5.49102">
        <ele>207</ele>
        <time>2011-08-16T11:20:15Z</time>
      </trkpt>
      <trkpt lat="47.08549" lon="5.49092">
        <ele>207</ele>
        <time>2011-08-16T11:20:17Z</time>
      </trkpt>
      <trkpt lat="47.0854" lon="5.49082">
        <ele>207</ele>
        <time>2011-08-16T11:20:19Z</time>
      </trkpt>
      <trkpt lat="47.08531" lon="5.4907">
        <ele>207</ele>
        <time>2011-08-16T11:20:21Z</time>
      </trkpt>
      <trkpt lat="47.08522" lon="5.49057">
        <ele>207</ele>
        <time>2011-08-16T11:20:23Z</time>
      </trkpt>
      <trkpt lat="47.08514" lon="5.49044">
        <ele>207</ele>
        <time>2011-08-16T11:20:25Z</time>
      </trkpt>
      <trkpt lat="47.08506" lon="5.49031">
        <ele>207</ele>
        <time>2011-08-16T11:20:27Z</time>
      </trkpt>
      <trkpt lat="47.08498" lon="5.49018">
        <ele>207</ele>
        <time>2011-08-16T11:20:29Z</time>
      </trkpt>
      <trkpt lat="47.08491" lon="5.49005">
        <ele>207</ele>
        <time>2011-08-16T11:20:31Z</time>
      </trkpt>
      <trkpt lat="47.08483" lon="5.48991">
        <ele>207</ele>
        <time>2011-08-16T11:20:33Z</time>
      </trkpt>
      <trkpt lat="47.08476" lon="5.48978">
        <ele>207</ele>
        <time>2011-08-16T11:20:35Z</time>
      </trkpt>
      <trkpt lat="47.08468" lon="5.48964">
        <ele>207</ele>
        <time>2011-08-16T11:20:37Z</time>
      </trkpt>
      <trkpt lat="47.0846" lon="5.48951">
        <ele>207</ele>
        <time>2011-08-16T11:20:39Z</time>
      </trkpt>
      <trkpt lat="47.08452" lon="5.48938">
        <ele>207</ele>
        <time>2011-08-16T11:20:41Z</time>
      </trkpt>
      <trkpt lat="47.08445" lon="5.48925">
        <ele>207</ele>
        <time>2011-08-16T11:20:43Z</time>
      </trkpt>
      <trkpt lat="47.08437" lon="5.48913">
        <ele>207</ele>
        <time>2011-08-16T11:20:45Z</time>
      </trkpt>
      <trkpt lat="47.0843" lon="5.48901">
        <ele>207</ele>
        <time>2011-08-16T11:20:47Z</time>
      </trkpt>
      <trkpt lat="47.08422" lon="5.48889">
        <ele>207</ele>
        <time>2011-08-16T11:20:49Z</time>
      </trkpt>
      <trkpt lat="47.08415" lon="5.48877">
        <ele>207</ele>
        <time>2011-08-16T11:20:51Z</time>
      </trkpt>
      <trkpt lat="47.08408" lon="5.48864">
        <ele>207</ele>
        <time>2011-08-16T11:20:53Z</time>
      </trkpt>
      <trkpt lat="47.08405" lon="5.48848">
        <ele>207</ele>
        <time>2011-08-16T11:20:55Z</time>
      </trkpt>
      <trkpt lat="47.084" lon="5.48834">
        <ele>207</ele>
        <time>2011-08-16T11:20:57Z</time>
      </trkpt>
      <trkpt lat="47.08391" lon="5.48826">
        <ele>207</ele>
        <time>2011-08-16T11:20:59Z</time>
      </trkpt>
      <trkpt lat="47.08379" lon="5.48819">
        <ele>207</ele>
        <time>2011-08-16T11:21:01Z</time>
      </trkpt>
      <trkpt lat="47.0837" lon="5.48806">
        <ele>207</ele>
        <time>2011-08-16T11:21:03Z</time>
      </trkpt>
      <trkpt lat="47.08362" lon="5.48793">
        <ele>207</ele>
        <time>2011-08-16T11:21:05Z</time>
      </trkpt>
      <trkpt lat="47.08354" lon="5.4878">
        <ele>207</ele>
        <time>2011-08-16T11:21:07Z</time>
      </trkpt>
      <trkpt lat="47.08346" lon="5.48766">
        <ele>207</ele>
        <time>2011-08-16T11:21:09Z</time>
      </trkpt>
      <trkpt lat="47.08338" lon="5.48754">
        <ele>207</ele>
        <time>2011-08-16T11:21:11Z</time>
      </trkpt>
      <trkpt lat="47.08329" lon="5.48741">
        <ele>207</ele>
        <time>2011-08-16T11:21:13Z</time>
      </trkpt>
      <trkpt lat="47.08322" lon="5.48728">
        <ele>207</ele>
        <time>2011-08-16T11:21:15Z</time>
      </trkpt>
      <trkpt lat="47.08314" lon="5.48713">
        <ele>207</ele>
        <time>2011-08-16T11:21:17Z</time>
      </trkpt>
      <trkpt lat="47.08306" lon="5.48701">
        <ele>207</ele>
        <time>2011-08-16T11:21:19Z</time>
      </trkpt>
      <trkpt lat="47.08298" lon="5.48688">
        <ele>207</ele>
        <time>2011-08-16T11:21:21Z</time>
      </trkpt>
      <trkpt lat="47.0829" lon="5.48677">
        <ele>207</ele>
        <time>2011-08-16T11:21:23Z</time>
      </trkpt>
      <trkpt lat="47.08282" lon="5.48664">
        <ele>207</ele>
        <time>2011-08-16T11:21:25Z</time>
      </trkpt>
      <trkpt lat="47.08274" lon="5.48651">
        <ele>207</ele>
        <time>2011-08-16T11:21:27Z</time>
      </trkpt>
      <trkpt lat="47.08265" lon="5.48638">
        <ele>207</ele>
        <time>2011-08-16T11:21:29Z</time>
      </trkpt>
      <trkpt lat="47.08257" lon="5.48625">
        <ele>207</ele>
        <time>2011-08-16T11:21:31Z</time>
      </trkpt>
      <trkpt lat="47.08248" lon="5.48613">
        <ele>207</ele>
        <time>2011-08-16T11:21:33Z</time>
      </trkpt>
      <trkpt lat="47.08239" lon="5.48602">
        <ele>207</ele>
        <time>2011-08-16T11:21:35Z</time>
      </trkpt>
      <trkpt lat="47.0823" lon="5.48591">
        <ele>207</ele>
        <time>2011-08-16T11:21:37Z</time>
      </trkpt>
      <trkpt lat="47.08221" lon="5.48582">
        <ele>207</ele>
        <time>2011-08-16T11:21:39Z</time>
      </trkpt>
      <trkpt lat="47.08211" lon="5.48572">
        <ele>207</ele>
        <time>2011-08-16T11:21:41Z</time>
      </trkpt>
      <trkpt lat="47.08202" lon="5.48564">
        <ele>207</ele>
        <time>2011-08-16T11:21:43Z</time>
      </trkpt>
      <trkpt lat="47.08192" lon="5.48555">
        <ele>207</ele>
        <time>2011-08-16T11:21:45Z</time>
      </trkpt>
      <trkpt lat="47.08182" lon="5.48547">
        <ele>207</ele>
        <time>2011-08-16T11:21:47Z</time>
      </trkpt>
      <trkpt lat="47.08172" lon="5.4854">
        <ele>207</ele>
        <time>2011-08-16T11:21:49Z</time>
      </trkpt>
      <trkpt lat="47.08162" lon="5.48532">
        <ele>207</ele>
        <time>2011-08-16T11:21:51Z</time>
      </trkpt>
      <trkpt lat="47.08153" lon="5.48525">
        <ele>207</ele>
        <time>2011-08-16T11:21:53Z</time>
      </trkpt>
      <trkpt lat="47.08143" lon="5.48518">
        <ele>207</ele>
        <time>2011-08-16T11:21:55Z</time>
      </trkpt>
      <trkpt lat="47.08133" lon="5.4851">
        <ele>207</ele>
        <time>2011-08-16T11:21:57Z</time>
      </trkpt>
      <trkpt lat="47.08122" lon="5.48502">
        <ele>207</ele>
        <time>2011-08-16T11:21:59Z</time>
      </trkpt>
      <trkpt lat="47.08113" lon="5.48494">
        <ele>207</ele>
        <time>2011-08-16T11:22:01Z</time>
      </trkpt>
      <trkpt lat="47.08102" lon="5.48486">
        <ele>207</ele>
        <time>2011-08-16T11:22:03Z</time>
      </trkpt>
      <trkpt lat="47.08092" lon="5.48479">
        <ele>207</ele>
        <time>2011-08-16T11:22:05Z</time>
      </trkpt>
      <trkpt lat="47.08081" lon="5.48473">
        <ele>207</ele>
        <time>2011-08-16T11:22:07Z</time>
      </trkpt>
      <trkpt lat="47.0807" lon="5.48473">
        <ele>207</ele>
        <time>2011-08-16T11:22:09Z</time>
      </trkpt>
      <trkpt lat="47.0806" lon="5.4848">
        <ele>207</ele>
        <time>2011-08-16T11:22:11Z</time>
      </trkpt>
      <trkpt lat="47.08052" lon="5.48492">
        <ele>207</ele>
        <time>2011-08-16T11:22:13Z</time>
      </trkpt>
      <trkpt lat="47.08047" lon="5.48506">
        <ele>207</ele>
        <time>2011-08-16T11:22:15Z</time>
      </trkpt>
      <trkpt lat="47.08042" lon="5.48521">
        <ele>207</ele>
        <time>2011-08-16T11:22:17Z</time>
      </trkpt>
      <trkpt lat="47.08038" lon="5.48536">
        <ele>207</ele>
        <time>2011-08-16T11:22:19Z</time>
      </trkpt>
      <trkpt lat="47.08032" lon="5.4855">
        <ele>207</ele>
        <time>2011-08-16T11:22:21Z</time>
      </trkpt>
      <trkpt lat="47.08027" lon="5.48564">
        <ele>207</ele>
        <time>2011-08-16T11:22:23Z</time>
      </trkpt>
      <trkpt lat="47.08022" lon="5.48579">
        <ele>207</ele>
        <time>2011-08-16T11:22:25Z</time>
      </trkpt>
      <trkpt lat="47.08017" lon="5.48593">
        <ele>207</ele>
        <time>2011-08-16T11:22:27Z</time>
      </trkpt>
      <trkpt lat="47.08012" lon="5.48607">
        <ele>207</ele>
        <time>2011-08-16T11:22:29Z</time>
      </trkpt>
      <trkpt lat="47.08007" lon="5.48622">
        <ele>207</ele>
        <time>2011-08-16T11:22:31Z</time>
      </trkpt>
      <trkpt lat="47.08001" lon="5.48635">
        <ele>207</ele>
        <time>2011-08-16T11:22:33Z</time>
      </trkpt>
      <trkpt lat="47.07997" lon="5.4865">
        <ele>207</ele>
        <time>2011-08-16T11:22:35Z</time>
      </trkpt>
      <trkpt lat="47.07992" lon="5.48664">
        <ele>207</ele>
        <time>2011-08-16T11:22:37Z</time>
      </trkpt>
      <trkpt lat="47.07988" lon="5.48678">
        <ele>207</ele>
        <time>2011-08-16T11:22:39Z</time>
      </trkpt>
      <trkpt lat="47.07983" lon="5.48693">
        <ele>207</ele>
        <time>2011-08-16T11:22:41Z</time>
      </trkpt>
      <trkpt lat="47.07978" lon="5.48707">
        <ele>207</ele>
        <time>2011-08-16T11:22:43Z</time>
      </trkpt>
      <trkpt lat="47.07973" lon="5.48722">
        <ele>207</ele>
        <time>2011-08-16T11:22:45Z</time>
      </trkpt>
      <trkpt lat="47.07968" lon="5.48735">
        <ele>207</ele>
        <time>2011-08-16T11:22:47Z</time>
      </trkpt>
      <trkpt lat="47.07963" lon="5.4875">
        <ele>207</ele>
        <time>2011-08-16T11:22:49Z</time>
      </trkpt>
      <trkpt lat="47.07958" lon="5.48765">
        <ele>207</ele>
        <time>2011-08-16T11:22:51Z</time>
      </trkpt>
      <trkpt lat="47.07953" lon="5.48779">
        <ele>207</ele>
        <time>2011-08-16T11:22:53Z</time>
      </trkpt>
      <trkpt lat="47.07949" lon="5.48793">
        <ele>207</ele>
        <time>2011-08-16T11:22:55Z</time>
      </trkpt>
      <trkpt lat="47.07944" lon="5.48807">
        <ele>207</ele>
        <time>2011-08-16T11:22:57Z</time>
      </trkpt>
      <trkpt lat="47.07939" lon="5.48821">
        <ele>207</ele>
        <time>2011-08-16T11:22:59Z</time>
      </trkpt>
      <trkpt lat="47.07934" lon="5.48834">
        <ele>207</ele>
        <time>2011-08-16T11:23:01Z</time>
      </trkpt>
      <trkpt lat="47.0793" lon="5.48848">
        <ele>207</ele>
        <time>2011-08-16T11:23:03Z</time>
      </trkpt>
      <trkpt lat="47.07925" lon="5.48862">
        <ele>207</ele>
        <time>2011-08-16T11:23:05Z</time>
      </trkpt>
      <trkpt lat="47.0792" lon="5.48875">
        <ele>207</ele>
        <time>2011-08-16T11:23:07Z</time>
      </trkpt>
      <trkpt lat="47.07916" lon="5.4889">
        <ele>207</ele>
        <time>2011-08-16T11:23:09Z</time>
      </trkpt>
      <trkpt lat="47.07911" lon="5.48903">
        <ele>207</ele>
        <time>2011-08-16T11:23:11Z</time>
      </trkpt>
      <trkpt lat="47.07906" lon="5.48917">
        <ele>207</ele>
        <time>2011-08-16T11:23:13Z</time>
      </trkpt>
      <trkpt lat="47.07899" lon="5.48929">
        <ele>207</ele>
        <time>2011-08-16T11:23:15Z</time>
      </trkpt>
      <trkpt lat="47.0789" lon="5.4894">
        <ele>207</ele>
        <time>2011-08-16T11:23:17Z</time>
      </trkpt>
      <trkpt lat="47.07881" lon="5.48948">
        <ele>207</ele>
        <time>2011-08-16T11:23:19Z</time>
      </trkpt>
      <trkpt lat="47.07871" lon="5.48954">
        <ele>207</ele>
        <time>2011-08-16T11:23:21Z</time>
      </trkpt>
      <trkpt lat="47.0786" lon="5.48959">
        <ele>207</ele>
        <time>2011-08-16T11:23:23Z</time>
      </trkpt>
      <trkpt lat="47.07849" lon="5.4896">
        <ele>207</ele>
        <time>2011-08-16T11:23:25Z</time>
      </trkpt>
      <trkpt lat="47.07837" lon="5.48958">
        <ele>207</ele>
        <time>2011-08-16T11:23:27Z</time>
      </trkpt>
      <trkpt lat="47.07826" lon="5.48952">
        <ele>207</ele>
        <time>2011-08-16T11:23:29Z</time>
      </trkpt>
      <trkpt lat="47.07817" lon="5.48943">
        <ele>207</ele>
        <time>2011-08-16T11:23:31Z</time>
      </trkpt>
      <trkpt lat="47.07812" lon="5.48929">
        <ele>207</ele>
        <time>2011-08-16T11:23:33Z</time>
      </trkpt>
      <trkpt lat="47.07811" lon="5.48914">
        <ele>207</ele>
        <time>2011-08-16T11:23:35Z</time>
      </trkpt>
      <trkpt lat="47.07808" lon="5.48899">
        <ele>207</ele>
        <time>2011-08-16T11:23:37Z</time>
      </trkpt>
      <trkpt lat="47.07801" lon="5.48888">
        <ele>207</ele>
        <time>2011-08-16T11:23:39Z</time>
      </trkpt>
      <trkpt lat="47.07793" lon="5.4888">
        <ele>207</ele>
        <time>2011-08-16T11:23:41Z</time>
      </trkpt>
      <trkpt lat="47.07782" lon="5.48875">
        <ele>207</ele>
        <time>2011-08-16T11:23:43Z</time>
      </trkpt>
      <trkpt lat="47.07772" lon="5.48876">
        <ele>207</ele>
        <time>2011-08-16T11:23:45Z</time>
      </trkpt>
      <trkpt lat="47.07762" lon="5.48882">
        <ele>207</ele>
        <time>2011-08-16T11:23:47Z</time>
      </trkpt>
      <trkpt lat="47.07753" lon="5.48892">
        <ele>207</ele>
        <time>2011-08-16T11:23:49Z</time>
      </trkpt>
      <trkpt lat="47.07743" lon="5.48895">
        <ele>207</ele>
        <time>2011-08-16T11:23:51Z</time>
      </trkpt>
      <trkpt lat="47.07733" lon="5.48891">
        <ele>207</ele>
        <time>2011-08-16T11:23:53Z</time>
      </trkpt>
      <trkpt lat="47.07722" lon="5.4889">
        <ele>207</ele>
        <time>2011-08-16T11:23:55Z</time>
      </trkpt>
      <trkpt lat="47.07711" lon="5.48891">
        <ele>207</ele>
        <time>2011-08-16T11:23:57Z</time>
      </trkpt>
      <trkpt lat="47.07702" lon="5.48899">
        <ele>207</ele>
        <time>2011-08-16T11:23:59Z</time>
      </trkpt>
      <trkpt lat="47.07694" lon="5.4891">
        <ele>207</ele>
        <time>2011-08-16T11:24:01Z</time>
      </trkpt>
      <trkpt lat="47.0769" lon="5.48925">
        <ele>207</ele>
        <time>2011-08-16T11:24:03Z</time>
      </trkpt>
      <trkpt lat="47.07689" lon="5.48942">
        <ele>207</ele>
        <time>2011-08-16T11:24:05Z</time>
      </trkpt>
      <trkpt lat="47.07687" lon="5.48957">
        <ele>207</ele>
        <time>2011-08-16T11:24:07Z</time>
      </trkpt>
      <trkpt lat="47.07683" lon="5.48971">
        <ele>207</ele>
        <time>2011-08-16T11:24:09Z</time>
      </trkpt>
      <trkpt lat="47.07676" lon="5.48983">
        <ele>207</ele>
        <time>2011-08-16T11:24:11Z</time>
      </trkpt>
      <trkpt lat="47.07668" lon="5.48994">
        <ele>207</ele>
        <time>2011-08-16T11:24:13Z</time>
      </trkpt>
      <trkpt lat="47.0766" lon="5.49004">
        <ele>207</ele>
        <time>2011-08-16T11:24:15Z</time>
      </trkpt>
      <trkpt lat="47.07652" lon="5.49013">
        <ele>207</ele>
        <time>2011-08-16T11:24:17Z</time>
      </trkpt>
      <trkpt lat="47.07644" lon="5.49023">
        <ele>207</ele>
        <time>2011-08-16T11:24:19Z</time>
      </trkpt>
      <trkpt lat="47.07636" lon="5.49033">
        <ele>207</ele>
        <time>2011-08-16T11:24:21Z</time>
      </trkpt>
      <trkpt lat="47.07628" lon="5.49043">
        <ele>207</ele>
        <time>2011-08-16T11:24:23Z</time>
      </trkpt>
      <trkpt lat="47.07621" lon="5.49054">
        <ele>207</ele>
        <time>2011-08-16T11:24:25Z</time>
      </trkpt>
      <trkpt lat="47.07614" lon="5.49065">
        <ele>207</ele>
        <time>2011-08-16T11:24:27Z</time>
      </trkpt>
      <trkpt lat="47.07606" lon="5.49077">
        <ele>207</ele>
        <time>2011-08-16T11:24:29Z</time>
      </trkpt>
      <trkpt lat="47.07599" lon="5.49088">
        <ele>207</ele>
        <time>2011-08-16T11:24:31Z</time>
      </trkpt>
      <trkpt lat="47.0759" lon="5.49099">
        <ele>207</ele>
        <time>2011-08-16T11:24:33Z</time>
      </trkpt>
      <trkpt lat="47.0758" lon="5.49107">
        <ele>207</ele>
        <time>2011-08-16T11:24:35Z</time>
      </trkpt>
      <trkpt lat="47.07568" lon="5.49111">
        <ele>207</ele>
        <time>2011-08-16T11:24:37Z</time>
      </trkpt>
      <trkpt lat="47.07556" lon="5.49109">
        <ele>207</ele>
        <time>2011-08-16T11:24:39Z</time>
      </trkpt>
      <trkpt lat="47.07545" lon="5.49101">
        <ele>207</ele>
        <time>2011-08-16T11:24:41Z</time>
      </trkpt>
      <trkpt lat="47.07535" lon="5.49089">
        <ele>207</ele>
        <time>2011-08-16T11:24:43Z</time>
      </trkpt>
      <trkpt lat="47.07527" lon="5.49075">
        <ele>207</ele>
        <time>2011-08-16T11:24:45Z</time>
      </trkpt>
      <trkpt lat="47.07519" lon="5.49059">
        <ele>207</ele>
        <time>2011-08-16T11:24:47Z</time>
      </trkpt>
      <trkpt lat="47.07511" lon="5.49044">
        <ele>207</ele>
        <time>2011-08-16T11:24:49Z</time>
      </trkpt>
      <trkpt lat="47.07504" lon="5.49028">
        <ele>207</ele>
        <time>2011-08-16T11:24:51Z</time>
      </trkpt>
      <trkpt lat="47.07496" lon="5.49012">
        <ele>207</ele>
        <time>2011-08-16T11:24:53Z</time>
      </trkpt>
      <trkpt lat="47.07488" lon="5.48996">
        <ele>207</ele>
        <time>2011-08-16T11:24:55Z</time>
      </trkpt>
      <trkpt lat="47.0748" lon="5.48979">
        <ele>207</ele>
        <time>2011-08-16T11:24:57Z</time>
      </trkpt>
      <trkpt lat="47.07472" lon="5.48963">
        <ele>207</ele>
        <time>2011-08-16T11:24:59Z</time>
      </trkpt>
      <trkpt lat="47.07465" lon="5.48948">
        <ele>207</ele>
        <time>2011-08-16T11:25:01Z</time>
      </trkpt>
      <trkpt lat="47.07457" lon="5.48932">
        <ele>207</ele>
        <time>2011-08-16T11:25:03Z</time>
      </trkpt>
      <trkpt lat="47.07449" lon="5.48917">
        <ele>207</ele>
        <time>2011-08-16T11:25:05Z</time>
      </trkpt>
      <trkpt lat="47.07441" lon="5.48901">
        <ele>207</ele>
        <time>2011-08-16T11:25:07Z</time>
      </trkpt>
      <trkpt lat="47.07433" lon="5.48886">
        <ele>207</ele>
        <time>2011-08-16T11:25:09Z</time>
      </trkpt>
      <trkpt lat="47.07426" lon="5.4887">
        <ele>207</ele>
        <time>2011-08-16T11:25:11Z</time>
      </trkpt>
      <trkpt lat="47.07418" lon="5.48855">
        <ele>202</ele>
        <time>2011-08-16T11:25:13Z</time>
      </trkpt>
      <trkpt lat="47.07411" lon="5.48839">
        <ele>202</ele>
        <time>2011-08-16T11:25:15Z</time>
      </trkpt>
      <trkpt lat="47.07403" lon="5.48825">
        <ele>202</ele>
        <time>2011-08-16T11:25:17Z</time>
      </trkpt>
      <trkpt lat="47.07396" lon="5.4881">
        <ele>202</ele>
        <time>2011-08-16T11:25:19Z</time>
      </trkpt>
      <trkpt lat="47.07388" lon="5.48794">
        <ele>202</ele>
        <time>2011-08-16T11:25:21Z</time>
      </trkpt>
      <trkpt lat="47.07381" lon="5.4878">
        <ele>202</ele>
        <time>2011-08-16T11:25:23Z</time>
      </trkpt>
      <trkpt lat="47.07374" lon="5.48766">
        <ele>202</ele>
        <time>2011-08-16T11:25:25Z</time>
      </trkpt>
      <trkpt lat="47.07367" lon="5.48752">
        <ele>202</ele>
        <time>2011-08-16T11:25:27Z</time>
      </trkpt>
      <trkpt lat="47.0736" lon="5.4874">
        <ele>202</ele>
        <time>2011-08-16T11:25:29Z</time>
      </trkpt>
      <trkpt lat="47.07353" lon="5.48726">
        <ele>202</ele>
        <time>2011-08-16T11:25:31Z</time>
      </trkpt>
      <trkpt lat="47.07347" lon="5.48713">
        <ele>202</ele>
        <time>2011-08-16T11:25:33Z</time>
      </trkpt>
      <trkpt lat="47.07339" lon="5.48702">
        <ele>202</ele>
        <time>2011-08-16T11:25:35Z</time>
      </trkpt>
      <trkpt lat="47.07333" lon="5.48692">
        <ele>202</ele>
        <time>2011-08-16T11:25:37Z</time>
      </trkpt>
      <trkpt lat="47.07328" lon="5.4868">
        <ele>202</ele>
        <time>2011-08-16T11:25:59Z</time>
      </trkpt>
      <trkpt lat="47.07331" lon="5.48695">
        <ele>202</ele>
        <time>2011-08-16T11:26:48Z</time>
      </trkpt>
      <trkpt lat="47.07338" lon="5.48705">
        <ele>209</ele>
        <time>2011-08-16T11:26:53Z</time>
      </trkpt>
      <trkpt lat="47.07343" lon="5.48717">
        <ele>221</ele>
        <time>2011-08-16T11:26:59Z</time>
      </trkpt>
      <trkpt lat="47.07349" lon="5.48728">
        <ele>221</ele>
        <time>2011-08-16T11:27:03Z</time>
      </trkpt>
      <trkpt lat="47.07355" lon="5.48739">
        <ele>221</ele>
        <time>2011-08-16T11:27:06Z</time>
      </trkpt>
      <trkpt lat="47.07362" lon="5.4875">
        <ele>221</ele>
        <time>2011-08-16T11:27:10Z</time>
      </trkpt>
      <trkpt lat="47.0737" lon="5.48761">
        <ele>221</ele>
        <time>2011-08-16T11:27:13Z</time>
      </trkpt>
      <trkpt lat="47.07376" lon="5.48772">
        <ele>221</ele>
        <time>2011-08-16T11:27:16Z</time>
      </trkpt>
      <trkpt lat="47.07382" lon="5.48786">
        <ele>221</ele>
        <time>2011-08-16T11:27:21Z</time>
      </trkpt>
      <trkpt lat="47.07387" lon="5.48799">
        <ele>221</ele>
        <time>2011-08-16T11:27:26Z</time>
      </trkpt>
      <trkpt lat="47.07392" lon="5.48812">
        <ele>221</ele>
        <time>2011-08-16T11:27:30Z</time>
      </trkpt>
      <trkpt lat="47.07398" lon="5.48826">
        <ele>221</ele>
        <time>2011-08-16T11:27:35Z</time>
      </trkpt>
      <trkpt lat="47.07404" lon="5.4884">
        <ele>221</ele>
        <time>2011-08-16T11:27:39Z</time>
      </trkpt>
      <trkpt lat="47.07411" lon="5.48851">
        <ele>221</ele>
        <time>2011-08-16T11:27:42Z</time>
      </trkpt>
      <trkpt lat="47.07418" lon="5.48864">
        <ele>221</ele>
        <time>2011-08-16T11:27:46Z</time>
      </trkpt>
      <trkpt lat="47.07425" lon="5.48875">
        <ele>214</ele>
        <time>2011-08-16T11:27:49Z</time>
      </trkpt>
      <trkpt lat="47.07432" lon="5.48888">
        <ele>214</ele>
        <time>2011-08-16T11:27:53Z</time>
      </trkpt>
      <trkpt lat="47.07438" lon="5.48899">
        <ele>214</ele>
        <time>2011-08-16T11:27:57Z</time>
      </trkpt>
      <trkpt lat="47.07443" lon="5.48911">
        <ele>214</ele>
        <time>2011-08-16T11:28:01Z</time>
      </trkpt>
      <trkpt lat="47.07449" lon="5.48923">
        <ele>214</ele>
        <time>2011-08-16T11:28:05Z</time>
      </trkpt>
      <trkpt lat="47.07454" lon="5.48934">
        <ele>214</ele>
        <time>2011-08-16T11:28:09Z</time>
      </trkpt>
      <trkpt lat="47.0746" lon="5.48947">
        <ele>214</ele>
        <time>2011-08-16T11:28:14Z</time>
      </trkpt>
      <trkpt lat="47.07466" lon="5.48959">
        <ele>214</ele>
        <time>2011-08-16T11:28:19Z</time>
      </trkpt>
      <trkpt lat="47.07472" lon="5.48971">
        <ele>214</ele>
        <time>2011-08-16T11:28:24Z</time>
      </trkpt>
      <trkpt lat="47.07478" lon="5.48984">
        <ele>214</ele>
        <time>2011-08-16T11:28:29Z</time>
      </trkpt>
      <trkpt lat="47.07484" lon="5.48995">
        <ele>214</ele>
        <time>2011-08-16T11:28:34Z</time>
      </trkpt>
      <trkpt lat="47.07489" lon="5.49005">
        <ele>214</ele>
        <time>2011-08-16T11:28:38Z</time>
      </trkpt>
      <trkpt lat="47.07495" lon="5.49017">
        <ele>214</ele>
        <time>2011-08-16T11:28:44Z</time>
      </trkpt>
      <trkpt lat="47.07501" lon="5.49028">
        <ele>214</ele>
        <time>2011-08-16T11:28:49Z</time>
      </trkpt>
      <trkpt lat="47.07506" lon="5.4904">
        <ele>214</ele>
        <time>2011-08-16T11:28:55Z</time>
      </trkpt>
      <trkpt lat="47.07513" lon="5.4905">
        <ele>214</ele>
        <time>2011-08-16T11:29:00Z</time>
      </trkpt>
      <trkpt lat="47.0752" lon="5.49062">
        <ele>214</ele>
        <time>2011-08-16T11:29:06Z</time>
      </trkpt>
      <trkpt lat="47.0752" lon="5.49076">
        <ele>207</ele>
        <time>2011-08-16T11:35:04Z</time>
      </trkpt>
      <trkpt lat="47.07512" lon="5.49071">
        <ele>222</ele>
        <time>2011-08-16T11:39:19Z</time>
      </trkpt>
      <trkpt lat="47.0752" lon="5.49066">
        <ele>222</ele>
        <time>2011-08-16T11:40:16Z</time>
      </trkpt>
      <trkpt lat="47.0753" lon="5.49066">
        <ele>213</ele>
        <time>2011-08-16T11:41:53Z</time>
      </trkpt>
      <trkpt lat="47.07521" lon="5.49069">
        <ele>206</ele>
        <time>2011-08-16T11:42:08Z</time>
      </trkpt>
      <trkpt lat="47.07525" lon="5.49082">
        <ele>206</ele>
        <time>2011-08-16T11:48:23Z</time>
      </trkpt>
      <trkpt lat="47.07533" lon="5.49091">
        <ele>206</ele>
        <time>2011-08-16T11:48:28Z</time>
      </trkpt>
      <trkpt lat="47.07541" lon="5.49099">
        <ele>206</ele>
        <time>2011-08-16T11:48:31Z</time>
      </trkpt>
      <trkpt lat="47.0755" lon="5.49107">
        <ele>206</ele>
        <time>2011-08-16T11:48:34Z</time>
      </trkpt>
      <trkpt lat="47.07563" lon="5.49111">
        <ele>206</ele>
        <time>2011-08-16T11:48:37Z</time>
      </trkpt>
      <trkpt lat="47.07575" lon="5.49109">
        <ele>206</ele>
        <time>2011-08-16T11:48:40Z</time>
      </trkpt>
      <trkpt lat="47.07587" lon="5.49102">
        <ele>206</ele>
        <time>2011-08-16T11:48:43Z</time>
      </trkpt>
      <trkpt lat="47.07596" lon="5.4909">
        <ele>206</ele>
        <time>2011-08-16T11:48:46Z</time>
      </trkpt>
      <trkpt lat="47.07605" lon="5.49076">
        <ele>206</ele>
        <time>2011-08-16T11:48:49Z</time>
      </trkpt>
      <trkpt lat="47.07613" lon="5.49062">
        <ele>206</ele>
        <time>2011-08-16T11:48:52Z</time>
      </trkpt>
      <trkpt lat="47.07622" lon="5.49049">
        <ele>206</ele>
        <time>2011-08-16T11:48:55Z</time>
      </trkpt>
      <trkpt lat="47.07629" lon="5.4904">
        <ele>206</ele>
        <time>2011-08-16T11:48:57Z</time>
      </trkpt>
      <trkpt lat="47.07635" lon="5.4903">
        <ele>206</ele>
        <time>2011-08-16T11:48:59Z</time>
      </trkpt>
      <trkpt lat="47.07642" lon="5.49021">
        <ele>206</ele>
        <time>2011-08-16T11:49:01Z</time>
      </trkpt>
      <trkpt lat="47.0765" lon="5.49011">
        <ele>206</ele>
        <time>2011-08-16T11:49:03Z</time>
      </trkpt>
      <trkpt lat="47.07658" lon="5.49002">
        <ele>206</ele>
        <time>2011-08-16T11:49:05Z</time>
      </trkpt>
      <trkpt lat="47.07666" lon="5.48993">
        <ele>206</ele>
        <time>2011-08-16T11:49:07Z</time>
      </trkpt>
      <trkpt lat="47.07676" lon="5.48984">
        <ele>206</ele>
        <time>2011-08-16T11:49:09Z</time>
      </trkpt>
      <trkpt lat="47.07683" lon="5.48972">
        <ele>206</ele>
        <time>2011-08-16T11:49:11Z</time>
      </trkpt>
      <trkpt lat="47.07689" lon="5.48959">
        <ele>206</ele>
        <time>2011-08-16T11:49:13Z</time>
      </trkpt>
      <trkpt lat="47.07692" lon="5.48943">
        <ele>206</ele>
        <time>2011-08-16T11:49:15Z</time>
      </trkpt>
      <trkpt lat="47.07695" lon="5.48925">
        <ele>206</ele>
        <time>2011-08-16T11:49:17Z</time>
      </trkpt>
      <trkpt lat="47.077" lon="5.48911">
        <ele>206</ele>
        <time>2011-08-16T11:49:19Z</time>
      </trkpt>
      <trkpt lat="47.07709" lon="5.48899">
        <ele>206</ele>
        <time>2011-08-16T11:49:21Z</time>
      </trkpt>
      <trkpt lat="47.07719" lon="5.48895">
        <ele>206</ele>
        <time>2011-08-16T11:49:23Z</time>
      </trkpt>
      <trkpt lat="47.0773" lon="5.48896">
        <ele>206</ele>
        <time>2011-08-16T11:49:25Z</time>
      </trkpt>
      <trkpt lat="47.07739" lon="5.48904">
        <ele>206</ele>
        <time>2011-08-16T11:49:27Z</time>
      </trkpt>
      <trkpt lat="47.07744" lon="5.48917">
        <ele>206</ele>
        <time>2011-08-16T11:49:29Z</time>
      </trkpt>
      <trkpt lat="47.07744" lon="5.48931">
        <ele>206</ele>
        <time>2011-08-16T11:49:31Z</time>
      </trkpt>
      <trkpt lat="47.07738" lon="5.48943">
        <ele>206</ele>
        <time>2011-08-16T11:49:33Z</time>
      </trkpt>
      <trkpt lat="47.07729" lon="5.48952">
        <ele>206</ele>
        <time>2011-08-16T11:49:35Z</time>
      </trkpt>
      <trkpt lat="47.0772" lon="5.48961">
        <ele>206</ele>
        <time>2011-08-16T11:49:37Z</time>
      </trkpt>
      <trkpt lat="47.07711" lon="5.4897">
        <ele>206</ele>
        <time>2011-08-16T11:49:39Z</time>
      </trkpt>
      <trkpt lat="47.07702" lon="5.48979">
        <ele>206</ele>
        <time>2011-08-16T11:49:41Z</time>
      </trkpt>
      <trkpt lat="47.07693" lon="5.48988">
        <ele>206</ele>
        <time>2011-08-16T11:49:43Z</time>
      </trkpt>
      <trkpt lat="47.07684" lon="5.48997">
        <ele>206</ele>
        <time>2011-08-16T11:49:45Z</time>
      </trkpt>
      <trkpt lat="47.07675" lon="5.49005">
        <ele>206</ele>
        <time>2011-08-16T11:49:47Z</time>
      </trkpt>
      <trkpt lat="47.07666" lon="5.49015">
        <ele>206</ele>
        <time>2011-08-16T11:49:49Z</time>
      </trkpt>
      <trkpt lat="47.07658" lon="5.49025">
        <ele>206</ele>
        <time>2011-08-16T11:49:51Z</time>
      </trkpt>
      <trkpt lat="47.0765" lon="5.49035">
        <ele>206</ele>
        <time>2011-08-16T11:49:53Z</time>
      </trkpt>
      <trkpt lat="47.07642" lon="5.49046">
        <ele>206</ele>
        <time>2011-08-16T11:49:55Z</time>
      </trkpt>
      <trkpt lat="47.07635" lon="5.49056">
        <ele>206</ele>
        <time>2011-08-16T11:49:57Z</time>
      </trkpt>
      <trkpt lat="47.07627" lon="5.49067">
        <ele>206</ele>
        <time>2011-08-16T11:49:59Z</time>
      </trkpt>
      <trkpt lat="47.0762" lon="5.49077">
        <ele>206</ele>
        <time>2011-08-16T11:50:01Z</time>
      </trkpt>
      <trkpt lat="47.07614" lon="5.49088">
        <ele>206</ele>
        <time>2011-08-16T11:50:03Z</time>
      </trkpt>
      <trkpt lat="47.07607" lon="5.49099">
        <ele>206</ele>
        <time>2011-08-16T11:50:05Z</time>
      </trkpt>
      <trkpt lat="47.076" lon="5.4911">
        <ele>206</ele>
        <time>2011-08-16T11:50:07Z</time>
      </trkpt>
      <trkpt lat="47.07594" lon="5.49121">
        <ele>206</ele>
        <time>2011-08-16T11:50:09Z</time>
      </trkpt>
      <trkpt lat="47.07588" lon="5.49133">
        <ele>206</ele>
        <time>2011-08-16T11:50:11Z</time>
      </trkpt>
      <trkpt lat="47.07582" lon="5.49145">
        <ele>206</ele>
        <time>2011-08-16T11:50:13Z</time>
      </trkpt>
      <trkpt lat="47.07576" lon="5.49157">
        <ele>206</ele>
        <time>2011-08-16T11:50:15Z</time>
      </trkpt>
      <trkpt lat="47.07569" lon="5.49169">
        <ele>206</ele>
        <time>2011-08-16T11:50:17Z</time>
      </trkpt>
      <trkpt lat="47.07563" lon="5.49181">
        <ele>206</ele>
        <time>2011-08-16T11:50:19Z</time>
      </trkpt>
      <trkpt lat="47.07558" lon="5.49192">
        <ele>206</ele>
        <time>2011-08-16T11:50:21Z</time>
      </trkpt>
      <trkpt lat="47.07552" lon="5.49205">
        <ele>206</ele>
        <time>2011-08-16T11:50:23Z</time>
      </trkpt>
      <trkpt lat="47.07546" lon="5.49217">
        <ele>206</ele>
        <time>2011-08-16T11:50:25Z</time>
      </trkpt>
      <trkpt lat="47.0754" lon="5.49229">
        <ele>206</ele>
        <time>2011-08-16T11:50:27Z</time>
      </trkpt>
      <trkpt lat="47.07533" lon="5.49241">
        <ele>206</ele>
        <time>2011-08-16T11:50:29Z</time>
      </trkpt>
      <trkpt lat="47.07527" lon="5.49252">
        <ele>206</ele>
        <time>2011-08-16T11:50:31Z</time>
      </trkpt>
      <trkpt lat="47.07522" lon="5.49264">
        <ele>206</ele>
        <time>2011-08-16T11:50:33Z</time>
      </trkpt>
      <trkpt lat="47.07515" lon="5.49275">
        <ele>206</ele>
        <time>2011-08-16T11:50:35Z</time>
      </trkpt>
      <trkpt lat="47.0751" lon="5.49287">
        <ele>206</ele>
        <time>2011-08-16T11:50:37Z</time>
      </trkpt>
      <trkpt lat="47.07504" lon="5.49298">
        <ele>206</ele>
        <time>2011-08-16T11:50:39Z</time>
      </trkpt>
      <trkpt lat="47.07496" lon="5.49313">
        <ele>206</ele>
        <time>2011-08-16T11:50:42Z</time>
      </trkpt>
      <trkpt lat="47.07488" lon="5.49329">
        <ele>206</ele>
        <time>2011-08-16T11:50:45Z</time>
      </trkpt>
      <trkpt lat="47.0748" lon="5.49344">
        <ele>206</ele>
        <time>2011-08-16T11:50:48Z</time>
      </trkpt>
      <trkpt lat="47.07473" lon="5.49358">
        <ele>206</ele>
        <time>2011-08-16T11:50:51Z</time>
      </trkpt>
      <trkpt lat="47.07465" lon="5.49373">
        <ele>212</ele>
        <time>2011-08-16T11:50:54Z</time>
      </trkpt>
      <trkpt lat="47.07458" lon="5.49386">
        <ele>212</ele>
        <time>2011-08-16T11:50:57Z</time>
      </trkpt>
      <trkpt lat="47.07452" lon="5.494">
        <ele>212</ele>
        <time>2011-08-16T11:51:00Z</time>
      </trkpt>
      <trkpt lat="47.07444" lon="5.49409">
        <ele>212</ele>
        <time>2011-08-16T11:51:03Z</time>
      </trkpt>
      <trkpt lat="47.07433" lon="5.49412">
        <ele>212</ele>
        <time>2011-08-16T11:51:06Z</time>
      </trkpt>
      <trkpt lat="47.07423" lon="5.4942">
        <ele>212</ele>
        <time>2011-08-16T11:51:09Z</time>
      </trkpt>
      <trkpt lat="47.07417" lon="5.49436">
        <ele>212</ele>
        <time>2011-08-16T11:51:12Z</time>
      </trkpt>
      <trkpt lat="47.07417" lon="5.4945">
        <ele>212</ele>
        <time>2011-08-16T11:51:14Z</time>
      </trkpt>
      <trkpt lat="47.07416" lon="5.49464">
        <ele>212</ele>
        <time>2011-08-16T11:51:16Z</time>
      </trkpt>
      <trkpt lat="47.07412" lon="5.49477">
        <ele>212</ele>
        <time>2011-08-16T11:51:18Z</time>
      </trkpt>
      <trkpt lat="47.07406" lon="5.49493">
        <ele>212</ele>
        <time>2011-08-16T11:51:21Z</time>
      </trkpt>
      <trkpt lat="47.07399" lon="5.49508">
        <ele>212</ele>
        <time>2011-08-16T11:51:24Z</time>
      </trkpt>
      <trkpt lat="47.07393" lon="5.49523">
        <ele>217</ele>
        <time>2011-08-16T11:51:27Z</time>
      </trkpt>
      <trkpt lat="47.07387" lon="5.49538">
        <ele>217</ele>
        <time>2011-08-16T11:51:30Z</time>
      </trkpt>
      <trkpt lat="47.0738" lon="5.49553">
        <ele>217</ele>
        <time>2011-08-16T11:51:33Z</time>
      </trkpt>
      <trkpt lat="47.07374" lon="5.49568">
        <ele>217</ele>
        <time>2011-08-16T11:51:36Z</time>
      </trkpt>
      <trkpt lat="47.07369" lon="5.49583">
        <ele>217</ele>
        <time>2011-08-16T11:51:39Z</time>
      </trkpt>
      <trkpt lat="47.07363" lon="5.49597">
        <ele>217</ele>
        <time>2011-08-16T11:51:42Z</time>
      </trkpt>
      <trkpt lat="47.07358" lon="5.49613">
        <ele>217</ele>
        <time>2011-08-16T11:51:45Z</time>
      </trkpt>
      <trkpt lat="47.07352" lon="5.49627">
        <ele>217</ele>
        <time>2011-08-16T11:51:48Z</time>
      </trkpt>
      <trkpt lat="47.07347" lon="5.49643">
        <ele>217</ele>
        <time>2011-08-16T11:51:51Z</time>
      </trkpt>
      <trkpt lat="47.07342" lon="5.49658">
        <ele>217</ele>
        <time>2011-08-16T11:51:54Z</time>
      </trkpt>
      <trkpt lat="47.07338" lon="5.49673">
        <ele>217</ele>
        <time>2011-08-16T11:51:57Z</time>
      </trkpt>
      <trkpt lat="47.07334" lon="5.49686">
        <ele>217</ele>
        <time>2011-08-16T11:52:00Z</time>
      </trkpt>
      <trkpt lat="47.07331" lon="5.497">
        <ele>222</ele>
        <time>2011-08-16T11:52:03Z</time>
      </trkpt>
      <trkpt lat="47.07326" lon="5.49714">
        <ele>222</ele>
        <time>2011-08-16T11:52:06Z</time>
      </trkpt>
      <trkpt lat="47.07315" lon="5.49723">
        <ele>222</ele>
        <time>2011-08-16T11:52:09Z</time>
      </trkpt>
      <trkpt lat="47.07307" lon="5.49729">
        <ele>222</ele>
        <time>2011-08-16T11:52:11Z</time>
      </trkpt>
      <trkpt lat="47.073" lon="5.49746">
        <ele>222</ele>
        <time>2011-08-16T11:52:14Z</time>
      </trkpt>
      <trkpt lat="47.07299" lon="5.49762">
        <ele>222</ele>
        <time>2011-08-16T11:52:17Z</time>
      </trkpt>
      <trkpt lat="47.07305" lon="5.49776">
        <ele>222</ele>
        <time>2011-08-16T11:52:20Z</time>
      </trkpt>
      <trkpt lat="47.07314" lon="5.49785">
        <ele>222</ele>
        <time>2011-08-16T11:52:23Z</time>
      </trkpt>
      <trkpt lat="47.07325" lon="5.49786">
        <ele>222</ele>
        <time>2011-08-16T11:52:26Z</time>
      </trkpt>
      <trkpt lat="47.07335" lon="5.49787">
        <ele>222</ele>
        <time>2011-08-16T11:52:29Z</time>
      </trkpt>
      <trkpt lat="47.07345" lon="5.49793">
        <ele>222</ele>
        <time>2011-08-16T11:52:32Z</time>
      </trkpt>
      <trkpt lat="47.07357" lon="5.498">
        <ele>222</ele>
        <time>2011-08-16T11:52:35Z</time>
      </trkpt>
      <trkpt lat="47.07368" lon="5.49803">
        <ele>229</ele>
        <time>2011-08-16T11:52:38Z</time>
      </trkpt>
      <trkpt lat="47.0738" lon="5.49808">
        <ele>229</ele>
        <time>2011-08-16T11:52:41Z</time>
      </trkpt>
      <trkpt lat="47.07391" lon="5.49814">
        <ele>229</ele>
        <time>2011-08-16T11:52:44Z</time>
      </trkpt>
      <trkpt lat="47.07402" lon="5.49819">
        <ele>229</ele>
        <time>2011-08-16T11:52:47Z</time>
      </trkpt>
      <trkpt lat="47.07411" lon="5.49821">
        <ele>229</ele>
        <time>2011-08-16T11:52:49Z</time>
      </trkpt>
      <trkpt lat="47.07425" lon="5.49823">
        <ele>229</ele>
        <time>2011-08-16T11:52:52Z</time>
      </trkpt>
      <trkpt lat="47.07434" lon="5.49826">
        <ele>229</ele>
        <time>2011-08-16T11:52:54Z</time>
      </trkpt>
      <trkpt lat="47.07444" lon="5.4983">
        <ele>234</ele>
        <time>2011-08-16T11:52:56Z</time>
      </trkpt>
      <trkpt lat="47.07455" lon="5.49834">
        <ele>234</ele>
        <time>2011-08-16T11:52:58Z</time>
      </trkpt>
      <trkpt lat="47.07466" lon="5.49837">
        <ele>234</ele>
        <time>2011-08-16T11:53:00Z</time>
      </trkpt>
      <trkpt lat="47.07477" lon="5.49841">
        <ele>234</ele>
        <time>2011-08-16T11:53:02Z</time>
      </trkpt>
      <trkpt lat="47.07488" lon="5.49844">
        <ele>234</ele>
        <time>2011-08-16T11:53:04Z</time>
      </trkpt>
      <trkpt lat="47.07499" lon="5.49847">
        <ele>234</ele>
        <time>2011-08-16T11:53:06Z</time>
      </trkpt>
      <trkpt lat="47.07509" lon="5.49851">
        <ele>229</ele>
        <time>2011-08-16T11:53:08Z</time>
      </trkpt>
      <trkpt lat="47.0752" lon="5.49853">
        <ele>229</ele>
        <time>2011-08-16T11:53:10Z</time>
      </trkpt>
      <trkpt lat="47.0753" lon="5.49857">
        <ele>229</ele>
        <time>2011-08-16T11:53:12Z</time>
      </trkpt>
      <trkpt lat="47.07538" lon="5.49866">
        <ele>229</ele>
        <time>2011-08-16T11:53:14Z</time>
      </trkpt>
      <trkpt lat="47.07541" lon="5.4988">
        <ele>229</ele>
        <time>2011-08-16T11:53:16Z</time>
      </trkpt>
      <trkpt lat="47.0754" lon="5.49896">
        <ele>229</ele>
        <time>2011-08-16T11:53:18Z</time>
      </trkpt>
      <trkpt lat="47.07538" lon="5.49912">
        <ele>229</ele>
        <time>2011-08-16T11:53:20Z</time>
      </trkpt>
      <trkpt lat="47.07538" lon="5.49929">
        <ele>229</ele>
        <time>2011-08-16T11:53:22Z</time>
      </trkpt>
      <trkpt lat="47.07536" lon="5.49945">
        <ele>229</ele>
        <time>2011-08-16T11:53:24Z</time>
      </trkpt>
      <trkpt lat="47.07534" lon="5.49962">
        <ele>229</ele>
        <time>2011-08-16T11:53:26Z</time>
      </trkpt>
      <trkpt lat="47.07533" lon="5.49978">
        <ele>229</ele>
        <time>2011-08-16T11:53:28Z</time>
      </trkpt>
      <trkpt lat="47.07532" lon="5.49994">
        <ele>229</ele>
        <time>2011-08-16T11:53:30Z</time>
      </trkpt>
      <trkpt lat="47.07531" lon="5.50009">
        <ele>229</ele>
        <time>2011-08-16T11:53:32Z</time>
      </trkpt>
      <trkpt lat="47.07529" lon="5.50022">
        <ele>229</ele>
        <time>2011-08-16T11:53:34Z</time>
      </trkpt>
      <trkpt lat="47.07528" lon="5.50036">
        <ele>229</ele>
        <time>2011-08-16T11:53:36Z</time>
      </trkpt>
      <trkpt lat="47.07527" lon="5.50055">
        <ele>229</ele>
        <time>2011-08-16T11:53:39Z</time>
      </trkpt>
      <trkpt lat="47.07527" lon="5.50073">
        <ele>229</ele>
        <time>2011-08-16T11:53:42Z</time>
      </trkpt>
      <trkpt lat="47.07528" lon="5.50091">
        <ele>229</ele>
        <time>2011-08-16T11:53:45Z</time>
      </trkpt>
      <trkpt lat="47.0753" lon="5.50107">
        <ele>229</ele>
        <time>2011-08-16T11:53:48Z</time>
      </trkpt>
      <trkpt lat="47.07532" lon="5.50122">
        <ele>229</ele>
        <time>2011-08-16T11:53:51Z</time>
      </trkpt>
      <trkpt lat="47.07533" lon="5.50136">
        <ele>229</ele>
        <time>2011-08-16T11:53:54Z</time>
      </trkpt>
      <trkpt lat="47.07534" lon="5.50151">
        <ele>229</ele>
        <time>2011-08-16T11:53:57Z</time>
      </trkpt>
      <trkpt lat="47.07535" lon="5.50164">
        <ele>229</ele>
        <time>2011-08-16T11:54:00Z</time>
      </trkpt>
      <trkpt lat="47.07534" lon="5.50178">
        <ele>229</ele>
        <time>2011-08-16T11:54:05Z</time>
      </trkpt>
      <trkpt lat="47.07531" lon="5.50195">
        <ele>229</ele>
        <time>2011-08-16T11:54:13Z</time>
      </trkpt>
      <trkpt lat="47.07523" lon="5.502">
        <ele>229</ele>
        <time>2011-08-16T11:54:17Z</time>
      </trkpt>
      <trkpt lat="47.07512" lon="5.50204">
        <ele>229</ele>
        <time>2011-08-16T11:54:20Z</time>
      </trkpt>
      <trkpt lat="47.07501" lon="5.50206">
        <ele>229</ele>
        <time>2011-08-16T11:54:23Z</time>
      </trkpt>
      <trkpt lat="47.07488" lon="5.50211">
        <ele>229</ele>
        <time>2011-08-16T11:54:26Z</time>
      </trkpt>
      <trkpt lat="47.07476" lon="5.50213">
        <ele>229</ele>
        <time>2011-08-16T11:54:29Z</time>
      </trkpt>
      <trkpt lat="47.07464" lon="5.50215">
        <ele>229</ele>
        <time>2011-08-16T11:54:32Z</time>
      </trkpt>
      <trkpt lat="47.07452" lon="5.50216">
        <ele>229</ele>
        <time>2011-08-16T11:54:35Z</time>
      </trkpt>
      <trkpt lat="47.07439" lon="5.50216">
        <ele>229</ele>
        <time>2011-08-16T11:54:38Z</time>
      </trkpt>
      <trkpt lat="47.07426" lon="5.50216">
        <ele>229</ele>
        <time>2011-08-16T11:54:41Z</time>
      </trkpt>
      <trkpt lat="47.07414" lon="5.50216">
        <ele>229</ele>
        <time>2011-08-16T11:54:44Z</time>
      </trkpt>
      <trkpt lat="47.07404" lon="5.50216">
        <ele>229</ele>
        <time>2011-08-16T11:54:46Z</time>
      </trkpt>
      <trkpt lat="47.07395" lon="5.50216">
        <ele>229</ele>
        <time>2011-08-16T11:54:48Z</time>
      </trkpt>
      <trkpt lat="47.07386" lon="5.50216">
        <ele>229</ele>
        <time>2011-08-16T11:54:50Z</time>
      </trkpt>
      <trkpt lat="47.07377" lon="5.50216">
        <ele>229</ele>
        <time>2011-08-16T11:54:52Z</time>
      </trkpt>
      <trkpt lat="47.07364" lon="5.50216">
        <ele>229</ele>
        <time>2011-08-16T11:54:55Z</time>
      </trkpt>
      <trkpt lat="47.07355" lon="5.50218">
        <ele>229</ele>
        <time>2011-08-16T11:54:57Z</time>
      </trkpt>
      <trkpt lat="47.07345" lon="5.50219">
        <ele>229</ele>
        <time>2011-08-16T11:54:59Z</time>
      </trkpt>
      <trkpt lat="47.07336" lon="5.50221">
        <ele>229</ele>
        <time>2011-08-16T11:55:01Z</time>
      </trkpt>
      <trkpt lat="47.07326" lon="5.50224">
        <ele>229</ele>
        <time>2011-08-16T11:55:03Z</time>
      </trkpt>
      <trkpt lat="47.07317" lon="5.50228">
        <ele>229</ele>
        <time>2011-08-16T11:55:05Z</time>
      </trkpt>
      <trkpt lat="47.07307" lon="5.50232">
        <ele>229</ele>
        <time>2011-08-16T11:55:07Z</time>
      </trkpt>
      <trkpt lat="47.07298" lon="5.50235">
        <ele>229</ele>
        <time>2011-08-16T11:55:09Z</time>
      </trkpt>
      <trkpt lat="47.0729" lon="5.5024">
        <ele>229</ele>
        <time>2011-08-16T11:55:11Z</time>
      </trkpt>
      <trkpt lat="47.07281" lon="5.50244">
        <ele>229</ele>
        <time>2011-08-16T11:55:13Z</time>
      </trkpt>
      <trkpt lat="47.07271" lon="5.50249">
        <ele>229</ele>
        <time>2011-08-16T11:55:15Z</time>
      </trkpt>
      <trkpt lat="47.07261" lon="5.50254">
        <ele>229</ele>
        <time>2011-08-16T11:55:17Z</time>
      </trkpt>
      <trkpt lat="47.07252" lon="5.50259">
        <ele>229</ele>
        <time>2011-08-16T11:55:19Z</time>
      </trkpt>
      <trkpt lat="47.07241" lon="5.50265">
        <ele>229</ele>
        <time>2011-08-16T11:55:21Z</time>
      </trkpt>
      <trkpt lat="47.07231" lon="5.5027">
        <ele>229</ele>
        <time>2011-08-16T11:55:23Z</time>
      </trkpt>
      <trkpt lat="47.0722" lon="5.50277">
        <ele>229</ele>
        <time>2011-08-16T11:55:25Z</time>
      </trkpt>
      <trkpt lat="47.0721" lon="5.50282">
        <ele>229</ele>
        <time>2011-08-16T11:55:27Z</time>
      </trkpt>
      <trkpt lat="47.07201" lon="5.50288">
        <ele>229</ele>
        <time>2011-08-16T11:55:29Z</time>
      </trkpt>
      <trkpt lat="47.07191" lon="5.50294">
        <ele>229</ele>
        <time>2011-08-16T11:55:31Z</time>
      </trkpt>
      <trkpt lat="47.07182" lon="5.50299">
        <ele>229</ele>
        <time>2011-08-16T11:55:33Z</time>
      </trkpt>
      <trkpt lat="47.07172" lon="5.50305">
        <ele>229</ele>
        <time>2011-08-16T11:55:35Z</time>
      </trkpt>
      <trkpt lat="47.07163" lon="5.50311">
        <ele>229</ele>
        <time>2011-08-16T11:55:37Z</time>
      </trkpt>
      <trkpt lat="47.07153" lon="5.50316">
        <ele>234</ele>
        <time>2011-08-16T11:55:39Z</time>
      </trkpt>
      <trkpt lat="47.07144" lon="5.50321">
        <ele>234</ele>
        <time>2011-08-16T11:55:41Z</time>
      </trkpt>
      <trkpt lat="47.07135" lon="5.50327">
        <ele>234</ele>
        <time>2011-08-16T11:55:43Z</time>
      </trkpt>
      <trkpt lat="47.07126" lon="5.50333">
        <ele>234</ele>
        <time>2011-08-16T11:55:45Z</time>
      </trkpt>
      <trkpt lat="47.07118" lon="5.50339">
        <ele>234</ele>
        <time>2011-08-16T11:55:47Z</time>
      </trkpt>
      <trkpt lat="47.07109" lon="5.50345">
        <ele>234</ele>
        <time>2011-08-16T11:55:49Z</time>
      </trkpt>
      <trkpt lat="47.07099" lon="5.50351">
        <ele>234</ele>
        <time>2011-08-16T11:55:51Z</time>
      </trkpt>
      <trkpt lat="47.0709" lon="5.50357">
        <ele>234</ele>
        <time>2011-08-16T11:55:53Z</time>
      </trkpt>
      <trkpt lat="47.0708" lon="5.50364">
        <ele>234</ele>
        <time>2011-08-16T11:55:55Z</time>
      </trkpt>
      <trkpt lat="47.07071" lon="5.5037">
        <ele>234</ele>
        <time>2011-08-16T11:55:57Z</time>
      </trkpt>
      <trkpt lat="47.07062" lon="5.50377">
        <ele>234</ele>
        <time>2011-08-16T11:55:59Z</time>
      </trkpt>
      <trkpt lat="47.07053" lon="5.50383">
        <ele>234</ele>
        <time>2011-08-16T11:56:01Z</time>
      </trkpt>
      <trkpt lat="47.07044" lon="5.50391">
        <ele>234</ele>
        <time>2011-08-16T11:56:03Z</time>
      </trkpt>
      <trkpt lat="47.07036" lon="5.50398">
        <ele>234</ele>
        <time>2011-08-16T11:56:05Z</time>
      </trkpt>
      <trkpt lat="47.07026" lon="5.50404">
        <ele>234</ele>
        <time>2011-08-16T11:56:07Z</time>
      </trkpt>
      <trkpt lat="47.07017" lon="5.50411">
        <ele>234</ele>
        <time>2011-08-16T11:56:09Z</time>
      </trkpt>
      <trkpt lat="47.07008" lon="5.50418">
        <ele>239</ele>
        <time>2011-08-16T11:56:11Z</time>
      </trkpt>
      <trkpt lat="47.06999" lon="5.50426">
        <ele>239</ele>
        <time>2011-08-16T11:56:13Z</time>
      </trkpt>
      <trkpt lat="47.06991" lon="5.50432">
        <ele>239</ele>
        <time>2011-08-16T11:56:15Z</time>
      </trkpt>
      <trkpt lat="47.06982" lon="5.50441">
        <ele>239</ele>
        <time>2011-08-16T11:56:18Z</time>
      </trkpt>
      <trkpt lat="47.06974" lon="5.50447">
        <ele>239</ele>
        <time>2011-08-16T11:56:21Z</time>
      </trkpt>
      <trkpt lat="47.06963" lon="5.50453">
        <ele>239</ele>
        <time>2011-08-16T11:56:24Z</time>
      </trkpt>
      <trkpt lat="47.06951" lon="5.50461">
        <ele>239</ele>
        <time>2011-08-16T11:56:27Z</time>
      </trkpt>
      <trkpt lat="47.06943" lon="5.50468">
        <ele>239</ele>
        <time>2011-08-16T11:56:29Z</time>
      </trkpt>
      <trkpt lat="47.06934" lon="5.50476">
        <ele>239</ele>
        <time>2011-08-16T11:56:31Z</time>
      </trkpt>
      <trkpt lat="47.06923" lon="5.50487">
        <ele>239</ele>
        <time>2011-08-16T11:56:34Z</time>
      </trkpt>
      <trkpt lat="47.06913" lon="5.50495">
        <ele>239</ele>
        <time>2011-08-16T11:56:36Z</time>
      </trkpt>
      <trkpt lat="47.06905" lon="5.50502">
        <ele>239</ele>
        <time>2011-08-16T11:56:38Z</time>
      </trkpt>
      <trkpt lat="47.06897" lon="5.5051">
        <ele>239</ele>
        <time>2011-08-16T11:56:40Z</time>
      </trkpt>
      <trkpt lat="47.06885" lon="5.50519">
        <ele>239</ele>
        <time>2011-08-16T11:56:42Z</time>
      </trkpt>
      <trkpt lat="47.06873" lon="5.50528">
        <ele>239</ele>
        <time>2011-08-16T11:56:44Z</time>
      </trkpt>
      <trkpt lat="47.06859" lon="5.50537">
        <ele>239</ele>
        <time>2011-08-16T11:56:46Z</time>
      </trkpt>
      <trkpt lat="47.06844" lon="5.50546">
        <ele>239</ele>
        <time>2011-08-16T11:56:48Z</time>
      </trkpt>
      <trkpt lat="47.06831" lon="5.50555">
        <ele>239</ele>
        <time>2011-08-16T11:56:50Z</time>
      </trkpt>
      <trkpt lat="47.06819" lon="5.50564">
        <ele>239</ele>
        <time>2011-08-16T11:56:52Z</time>
      </trkpt>
      <trkpt lat="47.06808" lon="5.50573">
        <ele>239</ele>
        <time>2011-08-16T11:56:54Z</time>
      </trkpt>
      <trkpt lat="47.06795" lon="5.50583">
        <ele>239</ele>
        <time>2011-08-16T11:56:56Z</time>
      </trkpt>
      <trkpt lat="47.0678" lon="5.50593">
        <ele>239</ele>
        <time>2011-08-16T11:56:58Z</time>
      </trkpt>
      <trkpt lat="47.06766" lon="5.50602">
        <ele>239</ele>
        <time>2011-08-16T11:57:00Z</time>
      </trkpt>
      <trkpt lat="47.06752" lon="5.50611">
        <ele>239</ele>
        <time>2011-08-16T11:57:02Z</time>
      </trkpt>
      <trkpt lat="47.0674" lon="5.5062">
        <ele>239</ele>
        <time>2011-08-16T11:57:04Z</time>
      </trkpt>
      <trkpt lat="47.06727" lon="5.50628">
        <ele>239</ele>
        <time>2011-08-16T11:57:06Z</time>
      </trkpt>
      <trkpt lat="47.06715" lon="5.50636">
        <ele>239</ele>
        <time>2011-08-16T11:57:08Z</time>
      </trkpt>
      <trkpt lat="47.06702" lon="5.50643">
        <ele>239</ele>
        <time>2011-08-16T11:57:10Z</time>
      </trkpt>
      <trkpt lat="47.06691" lon="5.50651">
        <ele>239</ele>
        <time>2011-08-16T11:57:12Z</time>
      </trkpt>
      <trkpt lat="47.06678" lon="5.50658">
        <ele>239</ele>
        <time>2011-08-16T11:57:14Z</time>
      </trkpt>
      <trkpt lat="47.06667" lon="5.50666">
        <ele>239</ele>
        <time>2011-08-16T11:57:16Z</time>
      </trkpt>
      <trkpt lat="47.06656" lon="5.50675">
        <ele>239</ele>
        <time>2011-08-16T11:57:18Z</time>
      </trkpt>
      <trkpt lat="47.06646" lon="5.50683">
        <ele>239</ele>
        <time>2011-08-16T11:57:20Z</time>
      </trkpt>
      <trkpt lat="47.06635" lon="5.5069">
        <ele>239</ele>
        <time>2011-08-16T11:57:22Z</time>
      </trkpt>
      <trkpt lat="47.06625" lon="5.50696">
        <ele>239</ele>
        <time>2011-08-16T11:57:24Z</time>
      </trkpt>
      <trkpt lat="47.06615" lon="5.50702">
        <ele>239</ele>
        <time>2011-08-16T11:57:26Z</time>
      </trkpt>
      <trkpt lat="47.06605" lon="5.50709">
        <ele>239</ele>
        <time>2011-08-16T11:57:28Z</time>
      </trkpt>
      <trkpt lat="47.06597" lon="5.50714">
        <ele>239</ele>
        <time>2011-08-16T11:57:30Z</time>
      </trkpt>
      <trkpt lat="47.06588" lon="5.5072">
        <ele>239</ele>
        <time>2011-08-16T11:57:32Z</time>
      </trkpt>
      <trkpt lat="47.06578" lon="5.50727">
        <ele>244</ele>
        <time>2011-08-16T11:57:34Z</time>
      </trkpt>
      <trkpt lat="47.06568" lon="5.50734">
        <ele>244</ele>
        <time>2011-08-16T11:57:36Z</time>
      </trkpt>
      <trkpt lat="47.06559" lon="5.5074">
        <ele>244</ele>
        <time>2011-08-16T11:57:38Z</time>
      </trkpt>
      <trkpt lat="47.06549" lon="5.50746">
        <ele>244</ele>
        <time>2011-08-16T11:57:40Z</time>
      </trkpt>
      <trkpt lat="47.06539" lon="5.50753">
        <ele>244</ele>
        <time>2011-08-16T11:57:42Z</time>
      </trkpt>
      <trkpt lat="47.0653" lon="5.5076">
        <ele>244</ele>
        <time>2011-08-16T11:57:44Z</time>
      </trkpt>
      <trkpt lat="47.06519" lon="5.50766">
        <ele>244</ele>
        <time>2011-08-16T11:57:46Z</time>
      </trkpt>
      <trkpt lat="47.06509" lon="5.50772">
        <ele>244</ele>
        <time>2011-08-16T11:57:48Z</time>
      </trkpt>
      <trkpt lat="47.06498" lon="5.50778">
        <ele>244</ele>
        <time>2011-08-16T11:57:50Z</time>
      </trkpt>
      <trkpt lat="47.06489" lon="5.50785">
        <ele>244</ele>
        <time>2011-08-16T11:57:52Z</time>
      </trkpt>
      <trkpt lat="47.06479" lon="5.50791">
        <ele>244</ele>
        <time>2011-08-16T11:57:54Z</time>
      </trkpt>
      <trkpt lat="47.0647" lon="5.50798">
        <ele>244</ele>
        <time>2011-08-16T11:57:56Z</time>
      </trkpt>
      <trkpt lat="47.06459" lon="5.50805">
        <ele>244</ele>
        <time>2011-08-16T11:57:58Z</time>
      </trkpt>
      <trkpt lat="47.06446" lon="5.50812">
        <ele>244</ele>
        <time>2011-08-16T11:58:00Z</time>
      </trkpt>
      <trkpt lat="47.06435" lon="5.50819">
        <ele>244</ele>
        <time>2011-08-16T11:58:02Z</time>
      </trkpt>
      <trkpt lat="47.06426" lon="5.50826">
        <ele>244</ele>
        <time>2011-08-16T11:58:04Z</time>
      </trkpt>
      <trkpt lat="47.06416" lon="5.50833">
        <ele>244</ele>
        <time>2011-08-16T11:58:06Z</time>
      </trkpt>
      <trkpt lat="47.06405" lon="5.50839">
        <ele>244</ele>
        <time>2011-08-16T11:58:08Z</time>
      </trkpt>
      <trkpt lat="47.06393" lon="5.50846">
        <ele>244</ele>
        <time>2011-08-16T11:58:10Z</time>
      </trkpt>
      <trkpt lat="47.06382" lon="5.50852">
        <ele>244</ele>
        <time>2011-08-16T11:58:12Z</time>
      </trkpt>
      <trkpt lat="47.06373" lon="5.5086">
        <ele>244</ele>
        <time>2011-08-16T11:58:14Z</time>
      </trkpt>
      <trkpt lat="47.06362" lon="5.50867">
        <ele>244</ele>
        <time>2011-08-16T11:58:16Z</time>
      </trkpt>
      <trkpt lat="47.06349" lon="5.50874">
        <ele>244</ele>
        <time>2011-08-16T11:58:18Z</time>
      </trkpt>
      <trkpt lat="47.06338" lon="5.50882">
        <ele>244</ele>
        <time>2011-08-16T11:58:20Z</time>
      </trkpt>
      <trkpt lat="47.06327" lon="5.5089">
        <ele>244</ele>
        <time>2011-08-16T11:58:22Z</time>
      </trkpt>
      <trkpt lat="47.06315" lon="5.50897">
        <ele>244</ele>
        <time>2011-08-16T11:58:24Z</time>
      </trkpt>
      <trkpt lat="47.06303" lon="5.50905">
        <ele>244</ele>
        <time>2011-08-16T11:58:26Z</time>
      </trkpt>
      <trkpt lat="47.06291" lon="5.50913">
        <ele>244</ele>
        <time>2011-08-16T11:58:28Z</time>
      </trkpt>
      <trkpt lat="47.06279" lon="5.50922">
        <ele>244</ele>
        <time>2011-08-16T11:58:30Z</time>
      </trkpt>
      <trkpt lat="47.06266" lon="5.5093">
        <ele>244</ele>
        <time>2011-08-16T11:58:32Z</time>
      </trkpt>
      <trkpt lat="47.06251" lon="5.5094">
        <ele>244</ele>
        <time>2011-08-16T11:58:34Z</time>
      </trkpt>
      <trkpt lat="47.06237" lon="5.50949">
        <ele>244</ele>
        <time>2011-08-16T11:58:36Z</time>
      </trkpt>
      <trkpt lat="47.06223" lon="5.50958">
        <ele>244</ele>
        <time>2011-08-16T11:58:38Z</time>
      </trkpt>
      <trkpt lat="47.06209" lon="5.50969">
        <ele>244</ele>
        <time>2011-08-16T11:58:40Z</time>
      </trkpt>
      <trkpt lat="47.06193" lon="5.50979">
        <ele>244</ele>
        <time>2011-08-16T11:58:42Z</time>
      </trkpt>
      <trkpt lat="47.06178" lon="5.50989">
        <ele>244</ele>
        <time>2011-08-16T11:58:44Z</time>
      </trkpt>
      <trkpt lat="47.06162" lon="5.51001">
        <ele>244</ele>
        <time>2011-08-16T11:58:46Z</time>
      </trkpt>
      <trkpt lat="47.06146" lon="5.51011">
        <ele>238</ele>
        <time>2011-08-16T11:58:48Z</time>
      </trkpt>
      <trkpt lat="47.0613" lon="5.51022">
        <ele>238</ele>
        <time>2011-08-16T11:58:50Z</time>
      </trkpt>
      <trkpt lat="47.06121" lon="5.51028">
        <ele>238</ele>
        <time>2011-08-16T11:58:51Z</time>
      </trkpt>
      <trkpt lat="47.06112" lon="5.51033">
        <ele>238</ele>
        <time>2011-08-16T11:58:52Z</time>
      </trkpt>
      <trkpt lat="47.06097" lon="5.51045">
        <ele>238</ele>
        <time>2011-08-16T11:58:54Z</time>
      </trkpt>
      <trkpt lat="47.06088" lon="5.5105">
        <ele>238</ele>
        <time>2011-08-16T11:58:55Z</time>
      </trkpt>
      <trkpt lat="47.06072" lon="5.51061">
        <ele>238</ele>
        <time>2011-08-16T11:58:57Z</time>
      </trkpt>
      <trkpt lat="47.06057" lon="5.51072">
        <ele>238</ele>
        <time>2011-08-16T11:58:59Z</time>
      </trkpt>
      <trkpt lat="47.06043" lon="5.51081">
        <ele>238</ele>
        <time>2011-08-16T11:59:01Z</time>
      </trkpt>
      <trkpt lat="47.06029" lon="5.5109">
        <ele>238</ele>
        <time>2011-08-16T11:59:03Z</time>
      </trkpt>
      <trkpt lat="47.06017" lon="5.511">
        <ele>238</ele>
        <time>2011-08-16T11:59:05Z</time>
      </trkpt>
      <trkpt lat="47.06004" lon="5.51109">
        <ele>238</ele>
        <time>2011-08-16T11:59:07Z</time>
      </trkpt>
      <trkpt lat="47.05991" lon="5.51118">
        <ele>238</ele>
        <time>2011-08-16T11:59:09Z</time>
      </trkpt>
      <trkpt lat="47.05978" lon="5.51125">
        <ele>238</ele>
        <time>2011-08-16T11:59:11Z</time>
      </trkpt>
      <trkpt lat="47.05966" lon="5.51133">
        <ele>243</ele>
        <time>2011-08-16T11:59:13Z</time>
      </trkpt>
      <trkpt lat="47.05956" lon="5.51141">
        <ele>243</ele>
        <time>2011-08-16T11:59:15Z</time>
      </trkpt>
      <trkpt lat="47.05945" lon="5.51147">
        <ele>243</ele>
        <time>2011-08-16T11:59:17Z</time>
      </trkpt>
      <trkpt lat="47.05935" lon="5.51155">
        <ele>243</ele>
        <time>2011-08-16T11:59:19Z</time>
      </trkpt>
      <trkpt lat="47.05925" lon="5.51161">
        <ele>243</ele>
        <time>2011-08-16T11:59:21Z</time>
      </trkpt>
      <trkpt lat="47.05915" lon="5.51169">
        <ele>243</ele>
        <time>2011-08-16T11:59:23Z</time>
      </trkpt>
      <trkpt lat="47.05905" lon="5.51175">
        <ele>243</ele>
        <time>2011-08-16T11:59:25Z</time>
      </trkpt>
      <trkpt lat="47.05896" lon="5.51181">
        <ele>243</ele>
        <time>2011-08-16T11:59:27Z</time>
      </trkpt>
      <trkpt lat="47.05886" lon="5.51188">
        <ele>243</ele>
        <time>2011-08-16T11:59:29Z</time>
      </trkpt>
      <trkpt lat="47.05874" lon="5.51196">
        <ele>243</ele>
        <time>2011-08-16T11:59:31Z</time>
      </trkpt>
      <trkpt lat="47.05863" lon="5.51205">
        <ele>243</ele>
        <time>2011-08-16T11:59:33Z</time>
      </trkpt>
      <trkpt lat="47.05851" lon="5.51213">
        <ele>243</ele>
        <time>2011-08-16T11:59:35Z</time>
      </trkpt>
      <trkpt lat="47.05839" lon="5.51221">
        <ele>243</ele>
        <time>2011-08-16T11:59:37Z</time>
      </trkpt>
      <trkpt lat="47.05826" lon="5.51228">
        <ele>243</ele>
        <time>2011-08-16T11:59:39Z</time>
      </trkpt>
      <trkpt lat="47.05815" lon="5.51236">
        <ele>243</ele>
        <time>2011-08-16T11:59:41Z</time>
      </trkpt>
      <trkpt lat="47.05802" lon="5.51245">
        <ele>243</ele>
        <time>2011-08-16T11:59:43Z</time>
      </trkpt>
      <trkpt lat="47.05789" lon="5.51253">
        <ele>243</ele>
        <time>2011-08-16T11:59:45Z</time>
      </trkpt>
      <trkpt lat="47.05776" lon="5.51261">
        <ele>243</ele>
        <time>2011-08-16T11:59:47Z</time>
      </trkpt>
      <trkpt lat="47.05762" lon="5.51269">
        <ele>243</ele>
        <time>2011-08-16T11:59:49Z</time>
      </trkpt>
      <trkpt lat="47.05749" lon="5.51277">
        <ele>243</ele>
        <time>2011-08-16T11:59:51Z</time>
      </trkpt>
      <trkpt lat="47.05735" lon="5.51284">
        <ele>243</ele>
        <time>2011-08-16T11:59:53Z</time>
      </trkpt>
      <trkpt lat="47.0572" lon="5.51291">
        <ele>243</ele>
        <time>2011-08-16T11:59:55Z</time>
      </trkpt>
      <trkpt lat="47.05705" lon="5.51297">
        <ele>243</ele>
        <time>2011-08-16T11:59:57Z</time>
      </trkpt>
      <trkpt lat="47.05691" lon="5.51303">
        <ele>238</ele>
        <time>2011-08-16T11:59:59Z</time>
      </trkpt>
      <trkpt lat="47.05676" lon="5.5131">
        <ele>238</ele>
        <time>2011-08-16T12:00:01Z</time>
      </trkpt>
      <trkpt lat="47.05662" lon="5.51315">
        <ele>238</ele>
        <time>2011-08-16T12:00:03Z</time>
      </trkpt>
      <trkpt lat="47.05648" lon="5.5132">
        <ele>238</ele>
        <time>2011-08-16T12:00:05Z</time>
      </trkpt>
      <trkpt lat="47.05634" lon="5.51326">
        <ele>238</ele>
        <time>2011-08-16T12:00:07Z</time>
      </trkpt>
      <trkpt lat="47.05619" lon="5.51331">
        <ele>238</ele>
        <time>2011-08-16T12:00:09Z</time>
      </trkpt>
      <trkpt lat="47.05606" lon="5.51337">
        <ele>238</ele>
        <time>2011-08-16T12:00:11Z</time>
      </trkpt>
      <trkpt lat="47.05593" lon="5.51341">
        <ele>238</ele>
        <time>2011-08-16T12:00:13Z</time>
      </trkpt>
      <trkpt lat="47.05581" lon="5.51346">
        <ele>238</ele>
        <time>2011-08-16T12:00:15Z</time>
      </trkpt>
      <trkpt lat="47.05568" lon="5.51351">
        <ele>238</ele>
        <time>2011-08-16T12:00:17Z</time>
      </trkpt>
      <trkpt lat="47.05558" lon="5.51355">
        <ele>238</ele>
        <time>2011-08-16T12:00:19Z</time>
      </trkpt>
      <trkpt lat="47.05549" lon="5.51358">
        <ele>238</ele>
        <time>2011-08-16T12:00:21Z</time>
      </trkpt>
      <trkpt lat="47.05539" lon="5.51363">
        <ele>238</ele>
        <time>2011-08-16T12:00:23Z</time>
      </trkpt>
      <trkpt lat="47.0553" lon="5.51367">
        <ele>244</ele>
        <time>2011-08-16T12:00:25Z</time>
      </trkpt>
      <trkpt lat="47.05521" lon="5.51372">
        <ele>244</ele>
        <time>2011-08-16T12:00:27Z</time>
      </trkpt>
      <trkpt lat="47.05513" lon="5.51375">
        <ele>244</ele>
        <time>2011-08-16T12:00:29Z</time>
      </trkpt>
      <trkpt lat="47.055" lon="5.5138">
        <ele>250</ele>
        <time>2011-08-16T12:00:32Z</time>
      </trkpt>
      <trkpt lat="47.05491" lon="5.51383">
        <ele>250</ele>
        <time>2011-08-16T12:00:34Z</time>
      </trkpt>
      <trkpt lat="47.05479" lon="5.51388">
        <ele>250</ele>
        <time>2011-08-16T12:00:36Z</time>
      </trkpt>
      <trkpt lat="47.05468" lon="5.51393">
        <ele>250</ele>
        <time>2011-08-16T12:00:38Z</time>
      </trkpt>
      <trkpt lat="47.05457" lon="5.51397">
        <ele>250</ele>
        <time>2011-08-16T12:00:40Z</time>
      </trkpt>
      <trkpt lat="47.05446" lon="5.51401">
        <ele>250</ele>
        <time>2011-08-16T12:00:42Z</time>
      </trkpt>
      <trkpt lat="47.05436" lon="5.51406">
        <ele>250</ele>
        <time>2011-08-16T12:00:44Z</time>
      </trkpt>
      <trkpt lat="47.05425" lon="5.5141">
        <ele>250</ele>
        <time>2011-08-16T12:00:46Z</time>
      </trkpt>
      <trkpt lat="47.05413" lon="5.51414">
        <ele>250</ele>
        <time>2011-08-16T12:00:48Z</time>
      </trkpt>
      <trkpt lat="47.05403" lon="5.51417">
        <ele>250</ele>
        <time>2011-08-16T12:00:50Z</time>
      </trkpt>
      <trkpt lat="47.05393" lon="5.51422">
        <ele>250</ele>
        <time>2011-08-16T12:00:52Z</time>
      </trkpt>
      <trkpt lat="47.05382" lon="5.51426">
        <ele>250</ele>
        <time>2011-08-16T12:00:54Z</time>
      </trkpt>
      <trkpt lat="47.05371" lon="5.5143">
        <ele>250</ele>
        <time>2011-08-16T12:00:56Z</time>
      </trkpt>
      <trkpt lat="47.0536" lon="5.51434">
        <ele>250</ele>
        <time>2011-08-16T12:00:58Z</time>
      </trkpt>
      <trkpt lat="47.05349" lon="5.51438">
        <ele>250</ele>
        <time>2011-08-16T12:01:00Z</time>
      </trkpt>
      <trkpt lat="47.05338" lon="5.51443">
        <ele>250</ele>
        <time>2011-08-16T12:01:02Z</time>
      </trkpt>
      <trkpt lat="47.05328" lon="5.51447">
        <ele>250</ele>
        <time>2011-08-16T12:01:04Z</time>
      </trkpt>
      <trkpt lat="47.05319" lon="5.51452">
        <ele>250</ele>
        <time>2011-08-16T12:01:06Z</time>
      </trkpt>
      <trkpt lat="47.05309" lon="5.51455">
        <ele>250</ele>
        <time>2011-08-16T12:01:08Z</time>
      </trkpt>
      <trkpt lat="47.053" lon="5.51461">
        <ele>250</ele>
        <time>2011-08-16T12:01:10Z</time>
      </trkpt>
      <trkpt lat="47.0529" lon="5.51465">
        <ele>250</ele>
        <time>2011-08-16T12:01:12Z</time>
      </trkpt>
      <trkpt lat="47.05281" lon="5.5147">
        <ele>250</ele>
        <time>2011-08-16T12:01:14Z</time>
      </trkpt>
      <trkpt lat="47.05271" lon="5.51476">
        <ele>255</ele>
        <time>2011-08-16T12:01:16Z</time>
      </trkpt>
      <trkpt lat="47.05258" lon="5.5148">
        <ele>255</ele>
        <time>2011-08-16T12:01:18Z</time>
      </trkpt>
      <trkpt lat="47.05246" lon="5.51486">
        <ele>255</ele>
        <time>2011-08-16T12:01:20Z</time>
      </trkpt>
      <trkpt lat="47.05234" lon="5.51491">
        <ele>255</ele>
        <time>2011-08-16T12:01:22Z</time>
      </trkpt>
      <trkpt lat="47.05222" lon="5.51496">
        <ele>255</ele>
        <time>2011-08-16T12:01:24Z</time>
      </trkpt>
      <trkpt lat="47.05211" lon="5.51502">
        <ele>255</ele>
        <time>2011-08-16T12:01:26Z</time>
      </trkpt>
      <trkpt lat="47.05199" lon="5.51508">
        <ele>255</ele>
        <time>2011-08-16T12:01:28Z</time>
      </trkpt>
      <trkpt lat="47.05187" lon="5.51514">
        <ele>255</ele>
        <time>2011-08-16T12:01:30Z</time>
      </trkpt>
      <trkpt lat="47.05174" lon="5.51522">
        <ele>255</ele>
        <time>2011-08-16T12:01:32Z</time>
      </trkpt>
      <trkpt lat="47.05161" lon="5.51529">
        <ele>255</ele>
        <time>2011-08-16T12:01:34Z</time>
      </trkpt>
      <trkpt lat="47.05148" lon="5.51534">
        <ele>255</ele>
        <time>2011-08-16T12:01:36Z</time>
      </trkpt>
      <trkpt lat="47.05134" lon="5.51542">
        <ele>255</ele>
        <time>2011-08-16T12:01:38Z</time>
      </trkpt>
      <trkpt lat="47.0512" lon="5.5155">
        <ele>255</ele>
        <time>2011-08-16T12:01:40Z</time>
      </trkpt>
      <trkpt lat="47.05105" lon="5.5156">
        <ele>255</ele>
        <time>2011-08-16T12:01:42Z</time>
      </trkpt>
      <trkpt lat="47.05089" lon="5.51567">
        <ele>255</ele>
        <time>2011-08-16T12:01:44Z</time>
      </trkpt>
      <trkpt lat="47.05072" lon="5.51576">
        <ele>255</ele>
        <time>2011-08-16T12:01:46Z</time>
      </trkpt>
      <trkpt lat="47.05057" lon="5.51584">
        <ele>255</ele>
        <time>2011-08-16T12:01:48Z</time>
      </trkpt>
      <trkpt lat="47.0504" lon="5.51593">
        <ele>255</ele>
        <time>2011-08-16T12:01:50Z</time>
      </trkpt>
      <trkpt lat="47.05024" lon="5.51603">
        <ele>255</ele>
        <time>2011-08-16T12:01:52Z</time>
      </trkpt>
      <trkpt lat="47.05015" lon="5.51608">
        <ele>255</ele>
        <time>2011-08-16T12:01:53Z</time>
      </trkpt>
      <trkpt lat="47.05007" lon="5.51612">
        <ele>250</ele>
        <time>2011-08-16T12:01:54Z</time>
      </trkpt>
      <trkpt lat="47.04997" lon="5.51617">
        <ele>250</ele>
        <time>2011-08-16T12:01:55Z</time>
      </trkpt>
      <trkpt lat="47.04988" lon="5.51621">
        <ele>250</ele>
        <time>2011-08-16T12:01:56Z</time>
      </trkpt>
      <trkpt lat="47.04978" lon="5.51626">
        <ele>250</ele>
        <time>2011-08-16T12:01:57Z</time>
      </trkpt>
      <trkpt lat="47.0497" lon="5.5163">
        <ele>250</ele>
        <time>2011-08-16T12:01:58Z</time>
      </trkpt>
      <trkpt lat="47.0496" lon="5.51636">
        <ele>250</ele>
        <time>2011-08-16T12:01:59Z</time>
      </trkpt>
      <trkpt lat="47.04951" lon="5.5164">
        <ele>250</ele>
        <time>2011-08-16T12:02:00Z</time>
      </trkpt>
      <trkpt lat="47.04942" lon="5.51645">
        <ele>244</ele>
        <time>2011-08-16T12:02:01Z</time>
      </trkpt>
      <trkpt lat="47.04933" lon="5.5165">
        <ele>244</ele>
        <time>2011-08-16T12:02:02Z</time>
      </trkpt>
      <trkpt lat="47.04916" lon="5.5166">
        <ele>244</ele>
        <time>2011-08-16T12:02:04Z</time>
      </trkpt>
      <trkpt lat="47.04907" lon="5.51664">
        <ele>239</ele>
        <time>2011-08-16T12:02:05Z</time>
      </trkpt>
      <trkpt lat="47.04899" lon="5.51669">
        <ele>239</ele>
        <time>2011-08-16T12:02:06Z</time>
      </trkpt>
      <trkpt lat="47.04889" lon="5.51674">
        <ele>239</ele>
        <time>2011-08-16T12:02:07Z</time>
      </trkpt>
      <trkpt lat="47.0488" lon="5.5168">
        <ele>239</ele>
        <time>2011-08-16T12:02:08Z</time>
      </trkpt>
      <trkpt lat="47.0487" lon="5.51685">
        <ele>239</ele>
        <time>2011-08-16T12:02:09Z</time>
      </trkpt>
      <trkpt lat="47.04861" lon="5.51691">
        <ele>239</ele>
        <time>2011-08-16T12:02:10Z</time>
      </trkpt>
      <trkpt lat="47.04851" lon="5.51696">
        <ele>239</ele>
        <time>2011-08-16T12:02:11Z</time>
      </trkpt>
      <trkpt lat="47.04842" lon="5.51701">
        <ele>234</ele>
        <time>2011-08-16T12:02:12Z</time>
      </trkpt>
      <trkpt lat="47.04832" lon="5.51707">
        <ele>234</ele>
        <time>2011-08-16T12:02:13Z</time>
      </trkpt>
      <trkpt lat="47.04822" lon="5.51712">
        <ele>234</ele>
        <time>2011-08-16T12:02:14Z</time>
      </trkpt>
      <trkpt lat="47.04813" lon="5.51717">
        <ele>234</ele>
        <time>2011-08-16T12:02:15Z</time>
      </trkpt>
      <trkpt lat="47.04803" lon="5.51723">
        <ele>234</ele>
        <time>2011-08-16T12:02:16Z</time>
      </trkpt>
      <trkpt lat="47.04794" lon="5.51728">
        <ele>234</ele>
        <time>2011-08-16T12:02:17Z</time>
      </trkpt>
      <trkpt lat="47.04784" lon="5.51733">
        <ele>234</ele>
        <time>2011-08-16T12:02:18Z</time>
      </trkpt>
      <trkpt lat="47.04774" lon="5.51738">
        <ele>234</ele>
        <time>2011-08-16T12:02:19Z</time>
      </trkpt>
      <trkpt lat="47.04765" lon="5.51743">
        <ele>234</ele>
        <time>2011-08-16T12:02:20Z</time>
      </trkpt>
      <trkpt lat="47.04756" lon="5.51748">
        <ele>234</ele>
        <time>2011-08-16T12:02:21Z</time>
      </trkpt>
      <trkpt lat="47.04747" lon="5.51753">
        <ele>234</ele>
        <time>2011-08-16T12:02:22Z</time>
      </trkpt>
      <trkpt lat="47.04738" lon="5.51758">
        <ele>234</ele>
        <time>2011-08-16T12:02:23Z</time>
      </trkpt>
      <trkpt lat="47.04729" lon="5.51763">
        <ele>234</ele>
        <time>2011-08-16T12:02:24Z</time>
      </trkpt>
      <trkpt lat="47.0472" lon="5.51769">
        <ele>234</ele>
        <time>2011-08-16T12:02:25Z</time>
      </trkpt>
      <trkpt lat="47.0471" lon="5.51775">
        <ele>228</ele>
        <time>2011-08-16T12:02:26Z</time>
      </trkpt>
      <trkpt lat="47.04702" lon="5.51782">
        <ele>228</ele>
        <time>2011-08-16T12:02:27Z</time>
      </trkpt>
      <trkpt lat="47.04692" lon="5.51789">
        <ele>228</ele>
        <time>2011-08-16T12:02:28Z</time>
      </trkpt>
      <trkpt lat="47.04682" lon="5.51797">
        <ele>228</ele>
        <time>2011-08-16T12:02:29Z</time>
      </trkpt>
      <trkpt lat="47.04673" lon="5.51804">
        <ele>228</ele>
        <time>2011-08-16T12:02:30Z</time>
      </trkpt>
      <trkpt lat="47.04663" lon="5.51812">
        <ele>228</ele>
        <time>2011-08-16T12:02:31Z</time>
      </trkpt>
      <trkpt lat="47.04654" lon="5.51819">
        <ele>228</ele>
        <time>2011-08-16T12:02:32Z</time>
      </trkpt>
      <trkpt lat="47.04646" lon="5.51826">
        <ele>228</ele>
        <time>2011-08-16T12:02:33Z</time>
      </trkpt>
      <trkpt lat="47.04636" lon="5.51834">
        <ele>228</ele>
        <time>2011-08-16T12:02:34Z</time>
      </trkpt>
      <trkpt lat="47.04627" lon="5.51842">
        <ele>228</ele>
        <time>2011-08-16T12:02:35Z</time>
      </trkpt>
      <trkpt lat="47.04617" lon="5.5185">
        <ele>228</ele>
        <time>2011-08-16T12:02:36Z</time>
      </trkpt>
      <trkpt lat="47.04608" lon="5.51858">
        <ele>228</ele>
        <time>2011-08-16T12:02:37Z</time>
      </trkpt>
      <trkpt lat="47.04598" lon="5.51867">
        <ele>228</ele>
        <time>2011-08-16T12:02:38Z</time>
      </trkpt>
      <trkpt lat="47.04589" lon="5.51876">
        <ele>228</ele>
        <time>2011-08-16T12:02:39Z</time>
      </trkpt>
      <trkpt lat="47.0458" lon="5.51885">
        <ele>228</ele>
        <time>2011-08-16T12:02:40Z</time>
      </trkpt>
      <trkpt lat="47.04571" lon="5.51893">
        <ele>228</ele>
        <time>2011-08-16T12:02:41Z</time>
      </trkpt>
      <trkpt lat="47.04562" lon="5.51903">
        <ele>223</ele>
        <time>2011-08-16T12:02:42Z</time>
      </trkpt>
      <trkpt lat="47.04554" lon="5.51911">
        <ele>223</ele>
        <time>2011-08-16T12:02:43Z</time>
      </trkpt>
      <trkpt lat="47.04546" lon="5.5192">
        <ele>223</ele>
        <time>2011-08-16T12:02:44Z</time>
      </trkpt>
      <trkpt lat="47.04538" lon="5.51929">
        <ele>223</ele>
        <time>2011-08-16T12:02:45Z</time>
      </trkpt>
      <trkpt lat="47.0453" lon="5.51938">
        <ele>223</ele>
        <time>2011-08-16T12:02:46Z</time>
      </trkpt>
      <trkpt lat="47.04522" lon="5.51947">
        <ele>223</ele>
        <time>2011-08-16T12:02:47Z</time>
      </trkpt>
      <trkpt lat="47.04514" lon="5.51956">
        <ele>223</ele>
        <time>2011-08-16T12:02:48Z</time>
      </trkpt>
      <trkpt lat="47.04506" lon="5.51964">
        <ele>223</ele>
        <time>2011-08-16T12:02:49Z</time>
      </trkpt>
      <trkpt lat="47.04498" lon="5.51973">
        <ele>223</ele>
        <time>2011-08-16T12:02:50Z</time>
      </trkpt>
      <trkpt lat="47.04485" lon="5.5199">
        <ele>223</ele>
        <time>2011-08-16T12:02:52Z</time>
      </trkpt>
      <trkpt lat="47.04474" lon="5.52006">
        <ele>223</ele>
        <time>2011-08-16T12:02:54Z</time>
      </trkpt>
      <trkpt lat="47.04466" lon="5.52023">
        <ele>223</ele>
        <time>2011-08-16T12:02:56Z</time>
      </trkpt>
      <trkpt lat="47.04458" lon="5.52039">
        <ele>223</ele>
        <time>2011-08-16T12:02:58Z</time>
      </trkpt>
      <trkpt lat="47.04452" lon="5.52057">
        <ele>223</ele>
        <time>2011-08-16T12:03:00Z</time>
      </trkpt>
      <trkpt lat="47.04444" lon="5.52074">
        <ele>223</ele>
        <time>2011-08-16T12:03:02Z</time>
      </trkpt>
      <trkpt lat="47.04436" lon="5.5209">
        <ele>223</ele>
        <time>2011-08-16T12:03:04Z</time>
      </trkpt>
      <trkpt lat="47.04428" lon="5.52106">
        <ele>223</ele>
        <time>2011-08-16T12:03:06Z</time>
      </trkpt>
      <trkpt lat="47.0442" lon="5.52122">
        <ele>223</ele>
        <time>2011-08-16T12:03:08Z</time>
      </trkpt>
      <trkpt lat="47.04412" lon="5.52138">
        <ele>228</ele>
        <time>2011-08-16T12:03:10Z</time>
      </trkpt>
      <trkpt lat="47.04404" lon="5.52153">
        <ele>228</ele>
        <time>2011-08-16T12:03:12Z</time>
      </trkpt>
      <trkpt lat="47.04397" lon="5.52169">
        <ele>228</ele>
        <time>2011-08-16T12:03:14Z</time>
      </trkpt>
      <trkpt lat="47.04388" lon="5.52185">
        <ele>228</ele>
        <time>2011-08-16T12:03:16Z</time>
      </trkpt>
      <trkpt lat="47.0438" lon="5.52201">
        <ele>228</ele>
        <time>2011-08-16T12:03:18Z</time>
      </trkpt>
      <trkpt lat="47.04372" lon="5.52217">
        <ele>228</ele>
        <time>2011-08-16T12:03:20Z</time>
      </trkpt>
      <trkpt lat="47.04364" lon="5.52233">
        <ele>228</ele>
        <time>2011-08-16T12:03:22Z</time>
      </trkpt>
      <trkpt lat="47.04356" lon="5.52248">
        <ele>228</ele>
        <time>2011-08-16T12:03:24Z</time>
      </trkpt>
      <trkpt lat="47.0435" lon="5.52264">
        <ele>228</ele>
        <time>2011-08-16T12:03:26Z</time>
      </trkpt>
      <trkpt lat="47.04343" lon="5.52279">
        <ele>228</ele>
        <time>2011-08-16T12:03:28Z</time>
      </trkpt>
      <trkpt lat="47.04336" lon="5.52293">
        <ele>228</ele>
        <time>2011-08-16T12:03:30Z</time>
      </trkpt>
      <trkpt lat="47.04329" lon="5.52309">
        <ele>228</ele>
        <time>2011-08-16T12:03:32Z</time>
      </trkpt>
      <trkpt lat="47.04322" lon="5.52324">
        <ele>228</ele>
        <time>2011-08-16T12:03:34Z</time>
      </trkpt>
      <trkpt lat="47.04315" lon="5.52339">
        <ele>228</ele>
        <time>2011-08-16T12:03:36Z</time>
      </trkpt>
      <trkpt lat="47.04308" lon="5.52353">
        <ele>228</ele>
        <time>2011-08-16T12:03:38Z</time>
      </trkpt>
      <trkpt lat="47.04301" lon="5.52368">
        <ele>228</ele>
        <time>2011-08-16T12:03:40Z</time>
      </trkpt>
      <trkpt lat="47.04293" lon="5.52382">
        <ele>228</ele>
        <time>2011-08-16T12:03:42Z</time>
      </trkpt>
      <trkpt lat="47.04286" lon="5.52397">
        <ele>228</ele>
        <time>2011-08-16T12:03:44Z</time>
      </trkpt>
      <trkpt lat="47.04278" lon="5.52411">
        <ele>228</ele>
        <time>2011-08-16T12:03:46Z</time>
      </trkpt>
      <trkpt lat="47.04271" lon="5.52426">
        <ele>228</ele>
        <time>2011-08-16T12:03:48Z</time>
      </trkpt>
      <trkpt lat="47.04264" lon="5.52441">
        <ele>228</ele>
        <time>2011-08-16T12:03:50Z</time>
      </trkpt>
      <trkpt lat="47.04256" lon="5.52454">
        <ele>228</ele>
        <time>2011-08-16T12:03:52Z</time>
      </trkpt>
      <trkpt lat="47.04248" lon="5.52468">
        <ele>228</ele>
        <time>2011-08-16T12:03:54Z</time>
      </trkpt>
      <trkpt lat="47.04241" lon="5.52483">
        <ele>228</ele>
        <time>2011-08-16T12:03:56Z</time>
      </trkpt>
      <trkpt lat="47.04234" lon="5.52497">
        <ele>228</ele>
        <time>2011-08-16T12:03:58Z</time>
      </trkpt>
      <trkpt lat="47.04227" lon="5.52511">
        <ele>228</ele>
        <time>2011-08-16T12:04:00Z</time>
      </trkpt>
      <trkpt lat="47.04219" lon="5.52525">
        <ele>228</ele>
        <time>2011-08-16T12:04:02Z</time>
      </trkpt>
      <trkpt lat="47.04212" lon="5.52539">
        <ele>228</ele>
        <time>2011-08-16T12:04:04Z</time>
      </trkpt>
      <trkpt lat="47.04205" lon="5.52553">
        <ele>228</ele>
        <time>2011-08-16T12:04:06Z</time>
      </trkpt>
      <trkpt lat="47.04197" lon="5.52566">
        <ele>228</ele>
        <time>2011-08-16T12:04:08Z</time>
      </trkpt>
      <trkpt lat="47.0419" lon="5.52581">
        <ele>228</ele>
        <time>2011-08-16T12:04:10Z</time>
      </trkpt>
      <trkpt lat="47.04183" lon="5.52594">
        <ele>228</ele>
        <time>2011-08-16T12:04:12Z</time>
      </trkpt>
      <trkpt lat="47.04175" lon="5.52609">
        <ele>228</ele>
        <time>2011-08-16T12:04:14Z</time>
      </trkpt>
      <trkpt lat="47.04167" lon="5.52623">
        <ele>228</ele>
        <time>2011-08-16T12:04:16Z</time>
      </trkpt>
      <trkpt lat="47.0416" lon="5.52638">
        <ele>228</ele>
        <time>2011-08-16T12:04:18Z</time>
      </trkpt>
      <trkpt lat="47.04152" lon="5.52653">
        <ele>228</ele>
        <time>2011-08-16T12:04:20Z</time>
      </trkpt>
      <trkpt lat="47.04144" lon="5.52668">
        <ele>228</ele>
        <time>2011-08-16T12:04:22Z</time>
      </trkpt>
      <trkpt lat="47.04136" lon="5.52682">
        <ele>228</ele>
        <time>2011-08-16T12:04:24Z</time>
      </trkpt>
      <trkpt lat="47.04128" lon="5.52697">
        <ele>228</ele>
        <time>2011-08-16T12:04:26Z</time>
      </trkpt>
      <trkpt lat="47.0412" lon="5.52712">
        <ele>228</ele>
        <time>2011-08-16T12:04:28Z</time>
      </trkpt>
      <trkpt lat="47.04113" lon="5.52727">
        <ele>228</ele>
        <time>2011-08-16T12:04:30Z</time>
      </trkpt>
      <trkpt lat="47.04105" lon="5.52743">
        <ele>228</ele>
        <time>2011-08-16T12:04:32Z</time>
      </trkpt>
      <trkpt lat="47.04097" lon="5.52759">
        <ele>228</ele>
        <time>2011-08-16T12:04:34Z</time>
      </trkpt>
      <trkpt lat="47.04089" lon="5.52774">
        <ele>228</ele>
        <time>2011-08-16T12:04:36Z</time>
      </trkpt>
      <trkpt lat="47.04081" lon="5.52789">
        <ele>228</ele>
        <time>2011-08-16T12:04:38Z</time>
      </trkpt>
      <trkpt lat="47.04073" lon="5.52804">
        <ele>228</ele>
        <time>2011-08-16T12:04:40Z</time>
      </trkpt>
      <trkpt lat="47.04065" lon="5.52818">
        <ele>228</ele>
        <time>2011-08-16T12:04:42Z</time>
      </trkpt>
      <trkpt lat="47.04057" lon="5.52832">
        <ele>228</ele>
        <time>2011-08-16T12:04:44Z</time>
      </trkpt>
      <trkpt lat="47.04048" lon="5.52846">
        <ele>228</ele>
        <time>2011-08-16T12:04:46Z</time>
      </trkpt>
      <trkpt lat="47.0404" lon="5.5286">
        <ele>228</ele>
        <time>2011-08-16T12:04:48Z</time>
      </trkpt>
      <trkpt lat="47.0403" lon="5.52874">
        <ele>228</ele>
        <time>2011-08-16T12:04:50Z</time>
      </trkpt>
      <trkpt lat="47.04021" lon="5.52887">
        <ele>228</ele>
        <time>2011-08-16T12:04:52Z</time>
      </trkpt>
      <trkpt lat="47.04009" lon="5.52902">
        <ele>228</ele>
        <time>2011-08-16T12:04:54Z</time>
      </trkpt>
      <trkpt lat="47.03998" lon="5.52917">
        <ele>228</ele>
        <time>2011-08-16T12:04:56Z</time>
      </trkpt>
      <trkpt lat="47.03986" lon="5.52932">
        <ele>228</ele>
        <time>2011-08-16T12:04:58Z</time>
      </trkpt>
      <trkpt lat="47.03973" lon="5.52949">
        <ele>228</ele>
        <time>2011-08-16T12:05:00Z</time>
      </trkpt>
      <trkpt lat="47.0396" lon="5.52967">
        <ele>228</ele>
        <time>2011-08-16T12:05:02Z</time>
      </trkpt>
      <trkpt lat="47.03954" lon="5.52977">
        <ele>228</ele>
        <time>2011-08-16T12:05:03Z</time>
      </trkpt>
      <trkpt lat="47.03947" lon="5.52987">
        <ele>228</ele>
        <time>2011-08-16T12:05:04Z</time>
      </trkpt>
      <trkpt lat="47.03937" lon="5.53007">
        <ele>228</ele>
        <time>2011-08-16T12:05:06Z</time>
      </trkpt>
      <trkpt lat="47.03927" lon="5.53024">
        <ele>228</ele>
        <time>2011-08-16T12:05:08Z</time>
      </trkpt>
      <trkpt lat="47.03918" lon="5.5304">
        <ele>228</ele>
        <time>2011-08-16T12:05:10Z</time>
      </trkpt>
      <trkpt lat="47.03911" lon="5.53055">
        <ele>228</ele>
        <time>2011-08-16T12:05:12Z</time>
      </trkpt>
      <trkpt lat="47.03904" lon="5.53069">
        <ele>228</ele>
        <time>2011-08-16T12:05:14Z</time>
      </trkpt>
      <trkpt lat="47.03898" lon="5.53083">
        <ele>228</ele>
        <time>2011-08-16T12:05:16Z</time>
      </trkpt>
      <trkpt lat="47.03892" lon="5.53096">
        <ele>228</ele>
        <time>2011-08-16T12:05:18Z</time>
      </trkpt>
      <trkpt lat="47.03886" lon="5.53109">
        <ele>228</ele>
        <time>2011-08-16T12:05:20Z</time>
      </trkpt>
      <trkpt lat="47.03881" lon="5.53122">
        <ele>228</ele>
        <time>2011-08-16T12:05:22Z</time>
      </trkpt>
      <trkpt lat="47.03875" lon="5.53134">
        <ele>228</ele>
        <time>2011-08-16T12:05:24Z</time>
      </trkpt>
      <trkpt lat="47.03869" lon="5.53148">
        <ele>228</ele>
        <time>2011-08-16T12:05:26Z</time>
      </trkpt>
      <trkpt lat="47.03863" lon="5.53162">
        <ele>233</ele>
        <time>2011-08-16T12:05:28Z</time>
      </trkpt>
      <trkpt lat="47.03857" lon="5.53176">
        <ele>233</ele>
        <time>2011-08-16T12:05:30Z</time>
      </trkpt>
      <trkpt lat="47.0385" lon="5.53192">
        <ele>233</ele>
        <time>2011-08-16T12:05:32Z</time>
      </trkpt>
      <trkpt lat="47.03843" lon="5.53208">
        <ele>233</ele>
        <time>2011-08-16T12:05:34Z</time>
      </trkpt>
      <trkpt lat="47.03836" lon="5.53224">
        <ele>233</ele>
        <time>2011-08-16T12:05:36Z</time>
      </trkpt>
      <trkpt lat="47.0383" lon="5.53239">
        <ele>233</ele>
        <time>2011-08-16T12:05:38Z</time>
      </trkpt>
      <trkpt lat="47.03823" lon="5.53255">
        <ele>233</ele>
        <time>2011-08-16T12:05:40Z</time>
      </trkpt>
      <trkpt lat="47.03817" lon="5.53272">
        <ele>233</ele>
        <time>2011-08-16T12:05:42Z</time>
      </trkpt>
      <trkpt lat="47.03809" lon="5.5329">
        <ele>233</ele>
        <time>2011-08-16T12:05:44Z</time>
      </trkpt>
      <trkpt lat="47.03802" lon="5.53307">
        <ele>233</ele>
        <time>2011-08-16T12:05:46Z</time>
      </trkpt>
      <trkpt lat="47.03795" lon="5.53324">
        <ele>233</ele>
        <time>2011-08-16T12:05:48Z</time>
      </trkpt>
      <trkpt lat="47.03788" lon="5.53341">
        <ele>233</ele>
        <time>2011-08-16T12:05:50Z</time>
      </trkpt>
      <trkpt lat="47.03781" lon="5.53357">
        <ele>233</ele>
        <time>2011-08-16T12:05:52Z</time>
      </trkpt>
      <trkpt lat="47.03774" lon="5.53374">
        <ele>233</ele>
        <time>2011-08-16T12:05:54Z</time>
      </trkpt>
      <trkpt lat="47.03767" lon="5.53389">
        <ele>233</ele>
        <time>2011-08-16T12:05:56Z</time>
      </trkpt>
      <trkpt lat="47.0376" lon="5.53405">
        <ele>233</ele>
        <time>2011-08-16T12:05:58Z</time>
      </trkpt>
      <trkpt lat="47.03753" lon="5.53422">
        <ele>233</ele>
        <time>2011-08-16T12:06:00Z</time>
      </trkpt>
      <trkpt lat="47.03746" lon="5.53439">
        <ele>233</ele>
        <time>2011-08-16T12:06:02Z</time>
      </trkpt>
      <trkpt lat="47.03739" lon="5.53455">
        <ele>233</ele>
        <time>2011-08-16T12:06:04Z</time>
      </trkpt>
      <trkpt lat="47.03732" lon="5.53472">
        <ele>233</ele>
        <time>2011-08-16T12:06:06Z</time>
      </trkpt>
      <trkpt lat="47.03725" lon="5.53488">
        <ele>233</ele>
        <time>2011-08-16T12:06:08Z</time>
      </trkpt>
      <trkpt lat="47.03718" lon="5.53504">
        <ele>233</ele>
        <time>2011-08-16T12:06:10Z</time>
      </trkpt>
      <trkpt lat="47.03711" lon="5.53521">
        <ele>233</ele>
        <time>2011-08-16T12:06:12Z</time>
      </trkpt>
      <trkpt lat="47.03704" lon="5.53538">
        <ele>233</ele>
        <time>2011-08-16T12:06:14Z</time>
      </trkpt>
      <trkpt lat="47.03695" lon="5.53555">
        <ele>233</ele>
        <time>2011-08-16T12:06:16Z</time>
      </trkpt>
      <trkpt lat="47.03686" lon="5.53572">
        <ele>233</ele>
        <time>2011-08-16T12:06:18Z</time>
      </trkpt>
      <trkpt lat="47.03675" lon="5.5359">
        <ele>233</ele>
        <time>2011-08-16T12:06:20Z</time>
      </trkpt>
      <trkpt lat="47.03663" lon="5.53606">
        <ele>228</ele>
        <time>2011-08-16T12:06:22Z</time>
      </trkpt>
      <trkpt lat="47.03651" lon="5.53623">
        <ele>228</ele>
        <time>2011-08-16T12:06:24Z</time>
      </trkpt>
      <trkpt lat="47.03638" lon="5.53641">
        <ele>228</ele>
        <time>2011-08-16T12:06:26Z</time>
      </trkpt>
      <trkpt lat="47.03626" lon="5.5366">
        <ele>228</ele>
        <time>2011-08-16T12:06:28Z</time>
      </trkpt>
      <trkpt lat="47.0362" lon="5.5367">
        <ele>228</ele>
        <time>2011-08-16T12:06:29Z</time>
      </trkpt>
      <trkpt lat="47.03615" lon="5.53682">
        <ele>228</ele>
        <time>2011-08-16T12:06:30Z</time>
      </trkpt>
      <trkpt lat="47.03609" lon="5.53694">
        <ele>228</ele>
        <time>2011-08-16T12:06:31Z</time>
      </trkpt>
      <trkpt lat="47.03604" lon="5.53706">
        <ele>223</ele>
        <time>2011-08-16T12:06:32Z</time>
      </trkpt>
      <trkpt lat="47.03599" lon="5.5372">
        <ele>223</ele>
        <time>2011-08-16T12:06:33Z</time>
      </trkpt>
      <trkpt lat="47.03594" lon="5.53733">
        <ele>223</ele>
        <time>2011-08-16T12:06:34Z</time>
      </trkpt>
      <trkpt lat="47.03591" lon="5.53748">
        <ele>223</ele>
        <time>2011-08-16T12:06:35Z</time>
      </trkpt>
      <trkpt lat="47.03587" lon="5.53762">
        <ele>223</ele>
        <time>2011-08-16T12:06:36Z</time>
      </trkpt>
      <trkpt lat="47.03583" lon="5.53777">
        <ele>223</ele>
        <time>2011-08-16T12:06:37Z</time>
      </trkpt>
      <trkpt lat="47.03581" lon="5.53793">
        <ele>223</ele>
        <time>2011-08-16T12:06:38Z</time>
      </trkpt>
      <trkpt lat="47.03578" lon="5.53808">
        <ele>223</ele>
        <time>2011-08-16T12:06:39Z</time>
      </trkpt>
      <trkpt lat="47.03576" lon="5.53824">
        <ele>223</ele>
        <time>2011-08-16T12:06:40Z</time>
      </trkpt>
      <trkpt lat="47.03574" lon="5.53841">
        <ele>223</ele>
        <time>2011-08-16T12:06:41Z</time>
      </trkpt>
      <trkpt lat="47.03572" lon="5.53858">
        <ele>217</ele>
        <time>2011-08-16T12:06:42Z</time>
      </trkpt>
      <trkpt lat="47.03571" lon="5.53874">
        <ele>217</ele>
        <time>2011-08-16T12:06:43Z</time>
      </trkpt>
      <trkpt lat="47.0357" lon="5.53891">
        <ele>217</ele>
        <time>2011-08-16T12:06:44Z</time>
      </trkpt>
      <trkpt lat="47.03569" lon="5.53908">
        <ele>217</ele>
        <time>2011-08-16T12:06:45Z</time>
      </trkpt>
      <trkpt lat="47.03567" lon="5.53926">
        <ele>217</ele>
        <time>2011-08-16T12:06:46Z</time>
      </trkpt>
      <trkpt lat="47.03565" lon="5.53943">
        <ele>217</ele>
        <time>2011-08-16T12:06:47Z</time>
      </trkpt>
      <trkpt lat="47.03564" lon="5.53961">
        <ele>217</ele>
        <time>2011-08-16T12:06:48Z</time>
      </trkpt>
      <trkpt lat="47.03563" lon="5.53978">
        <ele>217</ele>
        <time>2011-08-16T12:06:49Z</time>
      </trkpt>
      <trkpt lat="47.03562" lon="5.53994">
        <ele>217</ele>
        <time>2011-08-16T12:06:50Z</time>
      </trkpt>
      <trkpt lat="47.03561" lon="5.5401">
        <ele>217</ele>
        <time>2011-08-16T12:06:51Z</time>
      </trkpt>
      <trkpt lat="47.0356" lon="5.54025">
        <ele>217</ele>
        <time>2011-08-16T12:06:52Z</time>
      </trkpt>
      <trkpt lat="47.03559" lon="5.5404">
        <ele>212</ele>
        <time>2011-08-16T12:06:53Z</time>
      </trkpt>
      <trkpt lat="47.03559" lon="5.54055">
        <ele>212</ele>
        <time>2011-08-16T12:06:54Z</time>
      </trkpt>
      <trkpt lat="47.03559" lon="5.54068">
        <ele>212</ele>
        <time>2011-08-16T12:06:55Z</time>
      </trkpt>
      <trkpt lat="47.03559" lon="5.54082">
        <ele>212</ele>
        <time>2011-08-16T12:06:56Z</time>
      </trkpt>
      <trkpt lat="47.0356" lon="5.54095">
        <ele>212</ele>
        <time>2011-08-16T12:06:57Z</time>
      </trkpt>
      <trkpt lat="47.0356" lon="5.54109">
        <ele>212</ele>
        <time>2011-08-16T12:06:58Z</time>
      </trkpt>
      <trkpt lat="47.03561" lon="5.54134">
        <ele>212</ele>
        <time>2011-08-16T12:07:00Z</time>
      </trkpt>
      <trkpt lat="47.03561" lon="5.54157">
        <ele>212</ele>
        <time>2011-08-16T12:07:02Z</time>
      </trkpt>
      <trkpt lat="47.03561" lon="5.54181">
        <ele>212</ele>
        <time>2011-08-16T12:07:04Z</time>
      </trkpt>
      <trkpt lat="47.03561" lon="5.54204">
        <ele>212</ele>
        <time>2011-08-16T12:07:06Z</time>
      </trkpt>
      <trkpt lat="47.03561" lon="5.54226">
        <ele>212</ele>
        <time>2011-08-16T12:07:08Z</time>
      </trkpt>
      <trkpt lat="47.03561" lon="5.54247">
        <ele>212</ele>
        <time>2011-08-16T12:07:10Z</time>
      </trkpt>
      <trkpt lat="47.03561" lon="5.54269">
        <ele>212</ele>
        <time>2011-08-16T12:07:12Z</time>
      </trkpt>
      <trkpt lat="47.03561" lon="5.54289">
        <ele>212</ele>
        <time>2011-08-16T12:07:14Z</time>
      </trkpt>
      <trkpt lat="47.0356" lon="5.5431">
        <ele>212</ele>
        <time>2011-08-16T12:07:16Z</time>
      </trkpt>
      <trkpt lat="47.03559" lon="5.5433">
        <ele>212</ele>
        <time>2011-08-16T12:07:18Z</time>
      </trkpt>
      <trkpt lat="47.03558" lon="5.54349">
        <ele>212</ele>
        <time>2011-08-16T12:07:20Z</time>
      </trkpt>
      <trkpt lat="47.03556" lon="5.54367">
        <ele>212</ele>
        <time>2011-08-16T12:07:22Z</time>
      </trkpt>
      <trkpt lat="47.03554" lon="5.54385">
        <ele>212</ele>
        <time>2011-08-16T12:07:24Z</time>
      </trkpt>
      <trkpt lat="47.03551" lon="5.54403">
        <ele>212</ele>
        <time>2011-08-16T12:07:26Z</time>
      </trkpt>
      <trkpt lat="47.03547" lon="5.5442">
        <ele>212</ele>
        <time>2011-08-16T12:07:28Z</time>
      </trkpt>
      <trkpt lat="47.03543" lon="5.54434">
        <ele>212</ele>
        <time>2011-08-16T12:07:30Z</time>
      </trkpt>
      <trkpt lat="47.03539" lon="5.54448">
        <ele>212</ele>
        <time>2011-08-16T12:07:32Z</time>
      </trkpt>
      <trkpt lat="47.03534" lon="5.54461">
        <ele>212</ele>
        <time>2011-08-16T12:07:34Z</time>
      </trkpt>
      <trkpt lat="47.03529" lon="5.54473">
        <ele>212</ele>
        <time>2011-08-16T12:07:36Z</time>
      </trkpt>
      <trkpt lat="47.03522" lon="5.54484">
        <ele>218</ele>
        <time>2011-08-16T12:07:38Z</time>
      </trkpt>
      <trkpt lat="47.03516" lon="5.54495">
        <ele>218</ele>
        <time>2011-08-16T12:07:40Z</time>
      </trkpt>
      <trkpt lat="47.03509" lon="5.54505">
        <ele>218</ele>
        <time>2011-08-16T12:07:42Z</time>
      </trkpt>
      <trkpt lat="47.03501" lon="5.54515">
        <ele>218</ele>
        <time>2011-08-16T12:07:44Z</time>
      </trkpt>
      <trkpt lat="47.03493" lon="5.54524">
        <ele>218</ele>
        <time>2011-08-16T12:07:46Z</time>
      </trkpt>
      <trkpt lat="47.03484" lon="5.54532">
        <ele>218</ele>
        <time>2011-08-16T12:07:48Z</time>
      </trkpt>
      <trkpt lat="47.03475" lon="5.54539">
        <ele>218</ele>
        <time>2011-08-16T12:07:50Z</time>
      </trkpt>
      <trkpt lat="47.03466" lon="5.54545">
        <ele>218</ele>
        <time>2011-08-16T12:07:52Z</time>
      </trkpt>
      <trkpt lat="47.03457" lon="5.54551">
        <ele>223</ele>
        <time>2011-08-16T12:07:54Z</time>
      </trkpt>
      <trkpt lat="47.03447" lon="5.54556">
        <ele>223</ele>
        <time>2011-08-16T12:07:56Z</time>
      </trkpt>
      <trkpt lat="47.03438" lon="5.5456">
        <ele>223</ele>
        <time>2011-08-16T12:07:58Z</time>
      </trkpt>
      <trkpt lat="47.03429" lon="5.54563">
        <ele>223</ele>
        <time>2011-08-16T12:08:00Z</time>
      </trkpt>
      <trkpt lat="47.03419" lon="5.54565">
        <ele>223</ele>
        <time>2011-08-16T12:08:02Z</time>
      </trkpt>
      <trkpt lat="47.03409" lon="5.54569">
        <ele>223</ele>
        <time>2011-08-16T12:08:04Z</time>
      </trkpt>
      <trkpt lat="47.034" lon="5.54571">
        <ele>223</ele>
        <time>2011-08-16T12:08:06Z</time>
      </trkpt>
      <trkpt lat="47.03391" lon="5.54573">
        <ele>223</ele>
        <time>2011-08-16T12:08:08Z</time>
      </trkpt>
      <trkpt lat="47.03381" lon="5.54575">
        <ele>223</ele>
        <time>2011-08-16T12:08:10Z</time>
      </trkpt>
      <trkpt lat="47.03368" lon="5.54577">
        <ele>223</ele>
        <time>2011-08-16T12:08:13Z</time>
      </trkpt>
      <trkpt lat="47.03355" lon="5.54579">
        <ele>223</ele>
        <time>2011-08-16T12:08:16Z</time>
      </trkpt>
      <trkpt lat="47.03345" lon="5.54579">
        <ele>223</ele>
        <time>2011-08-16T12:08:18Z</time>
      </trkpt>
      <trkpt lat="47.03336" lon="5.54581">
        <ele>223</ele>
        <time>2011-08-16T12:08:20Z</time>
      </trkpt>
      <trkpt lat="47.03326" lon="5.54583">
        <ele>228</ele>
        <time>2011-08-16T12:08:22Z</time>
      </trkpt>
      <trkpt lat="47.03316" lon="5.54585">
        <ele>228</ele>
        <time>2011-08-16T12:08:24Z</time>
      </trkpt>
      <trkpt lat="47.03306" lon="5.54588">
        <ele>228</ele>
        <time>2011-08-16T12:08:26Z</time>
      </trkpt>
      <trkpt lat="47.03296" lon="5.54591">
        <ele>228</ele>
        <time>2011-08-16T12:08:28Z</time>
      </trkpt>
      <trkpt lat="47.03287" lon="5.54594">
        <ele>228</ele>
        <time>2011-08-16T12:08:30Z</time>
      </trkpt>
      <trkpt lat="47.03277" lon="5.54598">
        <ele>228</ele>
        <time>2011-08-16T12:08:32Z</time>
      </trkpt>
      <trkpt lat="47.03268" lon="5.54604">
        <ele>228</ele>
        <time>2011-08-16T12:08:34Z</time>
      </trkpt>
      <trkpt lat="47.03259" lon="5.5461">
        <ele>228</ele>
        <time>2011-08-16T12:08:36Z</time>
      </trkpt>
      <trkpt lat="47.0325" lon="5.54619">
        <ele>228</ele>
        <time>2011-08-16T12:08:38Z</time>
      </trkpt>
      <trkpt lat="47.03242" lon="5.5463">
        <ele>228</ele>
        <time>2011-08-16T12:08:40Z</time>
      </trkpt>
      <trkpt lat="47.03235" lon="5.54641">
        <ele>228</ele>
        <time>2011-08-16T12:08:42Z</time>
      </trkpt>
      <trkpt lat="47.03228" lon="5.54653">
        <ele>228</ele>
        <time>2011-08-16T12:08:44Z</time>
      </trkpt>
      <trkpt lat="47.03221" lon="5.54666">
        <ele>228</ele>
        <time>2011-08-16T12:08:46Z</time>
      </trkpt>
      <trkpt lat="47.03214" lon="5.54678">
        <ele>228</ele>
        <time>2011-08-16T12:08:48Z</time>
      </trkpt>
      <trkpt lat="47.03208" lon="5.54692">
        <ele>228</ele>
        <time>2011-08-16T12:08:50Z</time>
      </trkpt>
      <trkpt lat="47.03201" lon="5.54704">
        <ele>228</ele>
        <time>2011-08-16T12:08:52Z</time>
      </trkpt>
      <trkpt lat="47.03195" lon="5.54717">
        <ele>228</ele>
        <time>2011-08-16T12:08:54Z</time>
      </trkpt>
      <trkpt lat="47.03189" lon="5.5473">
        <ele>228</ele>
        <time>2011-08-16T12:08:56Z</time>
      </trkpt>
      <trkpt lat="47.03183" lon="5.54743">
        <ele>228</ele>
        <time>2011-08-16T12:08:58Z</time>
      </trkpt>
      <trkpt lat="47.03176" lon="5.54756">
        <ele>228</ele>
        <time>2011-08-16T12:09:00Z</time>
      </trkpt>
      <trkpt lat="47.03169" lon="5.54771">
        <ele>228</ele>
        <time>2011-08-16T12:09:02Z</time>
      </trkpt>
      <trkpt lat="47.03161" lon="5.54785">
        <ele>228</ele>
        <time>2011-08-16T12:09:04Z</time>
      </trkpt>
      <trkpt lat="47.03153" lon="5.548">
        <ele>228</ele>
        <time>2011-08-16T12:09:06Z</time>
      </trkpt>
      <trkpt lat="47.03145" lon="5.54815">
        <ele>228</ele>
        <time>2011-08-16T12:09:08Z</time>
      </trkpt>
      <trkpt lat="47.03137" lon="5.5483">
        <ele>228</ele>
        <time>2011-08-16T12:09:10Z</time>
      </trkpt>
      <trkpt lat="47.0313" lon="5.54845">
        <ele>228</ele>
        <time>2011-08-16T12:09:12Z</time>
      </trkpt>
      <trkpt lat="47.03123" lon="5.54861">
        <ele>228</ele>
        <time>2011-08-16T12:09:14Z</time>
      </trkpt>
      <trkpt lat="47.03115" lon="5.54875">
        <ele>228</ele>
        <time>2011-08-16T12:09:16Z</time>
      </trkpt>
      <trkpt lat="47.03108" lon="5.54889">
        <ele>228</ele>
        <time>2011-08-16T12:09:18Z</time>
      </trkpt>
      <trkpt lat="47.031" lon="5.54904">
        <ele>228</ele>
        <time>2011-08-16T12:09:20Z</time>
      </trkpt>
      <trkpt lat="47.03093" lon="5.54918">
        <ele>228</ele>
        <time>2011-08-16T12:09:22Z</time>
      </trkpt>
      <trkpt lat="47.03086" lon="5.54933">
        <ele>228</ele>
        <time>2011-08-16T12:09:24Z</time>
      </trkpt>
      <trkpt lat="47.03079" lon="5.54946">
        <ele>228</ele>
        <time>2011-08-16T12:09:26Z</time>
      </trkpt>
      <trkpt lat="47.03071" lon="5.5496">
        <ele>228</ele>
        <time>2011-08-16T12:09:28Z</time>
      </trkpt>
      <trkpt lat="47.03063" lon="5.54973">
        <ele>228</ele>
        <time>2011-08-16T12:09:30Z</time>
      </trkpt>
      <trkpt lat="47.03055" lon="5.54987">
        <ele>228</ele>
        <time>2011-08-16T12:09:32Z</time>
      </trkpt>
      <trkpt lat="47.03047" lon="5.55001">
        <ele>228</ele>
        <time>2011-08-16T12:09:34Z</time>
      </trkpt>
      <trkpt lat="47.03038" lon="5.55014">
        <ele>228</ele>
        <time>2011-08-16T12:09:36Z</time>
      </trkpt>
      <trkpt lat="47.03031" lon="5.55028">
        <ele>228</ele>
        <time>2011-08-16T12:09:38Z</time>
      </trkpt>
      <trkpt lat="47.03024" lon="5.55042">
        <ele>228</ele>
        <time>2011-08-16T12:09:40Z</time>
      </trkpt>
      <trkpt lat="47.03016" lon="5.55056">
        <ele>228</ele>
        <time>2011-08-16T12:09:42Z</time>
      </trkpt>
      <trkpt lat="47.0301" lon="5.55071">
        <ele>228</ele>
        <time>2011-08-16T12:09:44Z</time>
      </trkpt>
      <trkpt lat="47.03002" lon="5.55085">
        <ele>228</ele>
        <time>2011-08-16T12:09:46Z</time>
      </trkpt>
      <trkpt lat="47.02995" lon="5.551">
        <ele>228</ele>
        <time>2011-08-16T12:09:48Z</time>
      </trkpt>
      <trkpt lat="47.02987" lon="5.55114">
        <ele>228</ele>
        <time>2011-08-16T12:09:50Z</time>
      </trkpt>
      <trkpt lat="47.02979" lon="5.55129">
        <ele>228</ele>
        <time>2011-08-16T12:09:52Z</time>
      </trkpt>
      <trkpt lat="47.02972" lon="5.55145">
        <ele>228</ele>
        <time>2011-08-16T12:09:54Z</time>
      </trkpt>
      <trkpt lat="47.02964" lon="5.55159">
        <ele>228</ele>
        <time>2011-08-16T12:09:56Z</time>
      </trkpt>
      <trkpt lat="47.02956" lon="5.55173">
        <ele>228</ele>
        <time>2011-08-16T12:09:58Z</time>
      </trkpt>
      <trkpt lat="47.02947" lon="5.55187">
        <ele>228</ele>
        <time>2011-08-16T12:10:00Z</time>
      </trkpt>
      <trkpt lat="47.02938" lon="5.552">
        <ele>228</ele>
        <time>2011-08-16T12:10:02Z</time>
      </trkpt>
      <trkpt lat="47.02929" lon="5.55214">
        <ele>228</ele>
        <time>2011-08-16T12:10:04Z</time>
      </trkpt>
      <trkpt lat="47.0292" lon="5.55227">
        <ele>228</ele>
        <time>2011-08-16T12:10:06Z</time>
      </trkpt>
      <trkpt lat="47.02911" lon="5.5524">
        <ele>228</ele>
        <time>2011-08-16T12:10:08Z</time>
      </trkpt>
      <trkpt lat="47.02902" lon="5.55252">
        <ele>228</ele>
        <time>2011-08-16T12:10:10Z</time>
      </trkpt>
      <trkpt lat="47.02894" lon="5.55264">
        <ele>228</ele>
        <time>2011-08-16T12:10:12Z</time>
      </trkpt>
      <trkpt lat="47.02886" lon="5.55277">
        <ele>228</ele>
        <time>2011-08-16T12:10:14Z</time>
      </trkpt>
      <trkpt lat="47.02878" lon="5.55289">
        <ele>228</ele>
        <time>2011-08-16T12:10:16Z</time>
      </trkpt>
      <trkpt lat="47.0287" lon="5.55301">
        <ele>228</ele>
        <time>2011-08-16T12:10:18Z</time>
      </trkpt>
      <trkpt lat="47.02861" lon="5.55313">
        <ele>228</ele>
        <time>2011-08-16T12:10:20Z</time>
      </trkpt>
      <trkpt lat="47.02852" lon="5.55326">
        <ele>228</ele>
        <time>2011-08-16T12:10:22Z</time>
      </trkpt>
      <trkpt lat="47.02844" lon="5.55339">
        <ele>228</ele>
        <time>2011-08-16T12:10:24Z</time>
      </trkpt>
      <trkpt lat="47.02835" lon="5.55351">
        <ele>228</ele>
        <time>2011-08-16T12:10:26Z</time>
      </trkpt>
      <trkpt lat="47.02826" lon="5.55365">
        <ele>228</ele>
        <time>2011-08-16T12:10:28Z</time>
      </trkpt>
      <trkpt lat="47.02817" lon="5.55377">
        <ele>228</ele>
        <time>2011-08-16T12:10:30Z</time>
      </trkpt>
      <trkpt lat="47.02808" lon="5.55392">
        <ele>228</ele>
        <time>2011-08-16T12:10:32Z</time>
      </trkpt>
      <trkpt lat="47.02799" lon="5.55407">
        <ele>228</ele>
        <time>2011-08-16T12:10:34Z</time>
      </trkpt>
      <trkpt lat="47.0279" lon="5.55421">
        <ele>228</ele>
        <time>2011-08-16T12:10:36Z</time>
      </trkpt>
      <trkpt lat="47.02781" lon="5.55437">
        <ele>228</ele>
        <time>2011-08-16T12:10:38Z</time>
      </trkpt>
      <trkpt lat="47.02773" lon="5.55453">
        <ele>228</ele>
        <time>2011-08-16T12:10:40Z</time>
      </trkpt>
      <trkpt lat="47.02765" lon="5.5547">
        <ele>228</ele>
        <time>2011-08-16T12:10:42Z</time>
      </trkpt>
      <trkpt lat="47.02758" lon="5.55488">
        <ele>228</ele>
        <time>2011-08-16T12:10:44Z</time>
      </trkpt>
      <trkpt lat="47.02751" lon="5.55507">
        <ele>228</ele>
        <time>2011-08-16T12:10:46Z</time>
      </trkpt>
      <trkpt lat="47.02746" lon="5.55526">
        <ele>228</ele>
        <time>2011-08-16T12:10:48Z</time>
      </trkpt>
      <trkpt lat="47.0274" lon="5.55546">
        <ele>228</ele>
        <time>2011-08-16T12:10:50Z</time>
      </trkpt>
      <trkpt lat="47.02735" lon="5.55568">
        <ele>228</ele>
        <time>2011-08-16T12:10:52Z</time>
      </trkpt>
      <trkpt lat="47.0273" lon="5.55588">
        <ele>228</ele>
        <time>2011-08-16T12:10:54Z</time>
      </trkpt>
      <trkpt lat="47.02725" lon="5.5561">
        <ele>228</ele>
        <time>2011-08-16T12:10:56Z</time>
      </trkpt>
      <trkpt lat="47.02719" lon="5.55632">
        <ele>228</ele>
        <time>2011-08-16T12:10:58Z</time>
      </trkpt>
      <trkpt lat="47.02714" lon="5.55656">
        <ele>228</ele>
        <time>2011-08-16T12:11:00Z</time>
      </trkpt>
      <trkpt lat="47.02707" lon="5.55678">
        <ele>228</ele>
        <time>2011-08-16T12:11:02Z</time>
      </trkpt>
      <trkpt lat="47.02699" lon="5.55696">
        <ele>228</ele>
        <time>2011-08-16T12:11:04Z</time>
      </trkpt>
      <trkpt lat="47.0269" lon="5.5571">
        <ele>228</ele>
        <time>2011-08-16T12:11:06Z</time>
      </trkpt>
      <trkpt lat="47.02679" lon="5.55721">
        <ele>228</ele>
        <time>2011-08-16T12:11:08Z</time>
      </trkpt>
      <trkpt lat="47.02669" lon="5.55733">
        <ele>228</ele>
        <time>2011-08-16T12:11:10Z</time>
      </trkpt>
      <trkpt lat="47.02659" lon="5.55745">
        <ele>228</ele>
        <time>2011-08-16T12:11:12Z</time>
      </trkpt>
      <trkpt lat="47.0265" lon="5.55759">
        <ele>228</ele>
        <time>2011-08-16T12:11:14Z</time>
      </trkpt>
      <trkpt lat="47.02641" lon="5.55773">
        <ele>228</ele>
        <time>2011-08-16T12:11:16Z</time>
      </trkpt>
      <trkpt lat="47.02632" lon="5.5579">
        <ele>228</ele>
        <time>2011-08-16T12:11:18Z</time>
      </trkpt>
      <trkpt lat="47.02625" lon="5.55807">
        <ele>228</ele>
        <time>2011-08-16T12:11:20Z</time>
      </trkpt>
      <trkpt lat="47.02618" lon="5.55825">
        <ele>228</ele>
        <time>2011-08-16T12:11:22Z</time>
      </trkpt>
      <trkpt lat="47.0261" lon="5.55842">
        <ele>228</ele>
        <time>2011-08-16T12:11:24Z</time>
      </trkpt>
      <trkpt lat="47.02603" lon="5.55858">
        <ele>228</ele>
        <time>2011-08-16T12:11:26Z</time>
      </trkpt>
      <trkpt lat="47.02597" lon="5.55872">
        <ele>228</ele>
        <time>2011-08-16T12:11:28Z</time>
      </trkpt>
      <trkpt lat="47.02591" lon="5.55886">
        <ele>228</ele>
        <time>2011-08-16T12:11:30Z</time>
      </trkpt>
      <trkpt lat="47.02585" lon="5.55899">
        <ele>228</ele>
        <time>2011-08-16T12:11:32Z</time>
      </trkpt>
      <trkpt lat="47.0258" lon="5.55912">
        <ele>228</ele>
        <time>2011-08-16T12:11:34Z</time>
      </trkpt>
      <trkpt lat="47.02575" lon="5.55924">
        <ele>228</ele>
        <time>2011-08-16T12:11:36Z</time>
      </trkpt>
      <trkpt lat="47.0257" lon="5.55937">
        <ele>228</ele>
        <time>2011-08-16T12:11:38Z</time>
      </trkpt>
      <trkpt lat="47.02564" lon="5.5595">
        <ele>228</ele>
        <time>2011-08-16T12:11:40Z</time>
      </trkpt>
      <trkpt lat="47.02559" lon="5.55965">
        <ele>228</ele>
        <time>2011-08-16T12:11:42Z</time>
      </trkpt>
      <trkpt lat="47.02556" lon="5.55979">
        <ele>228</ele>
        <time>2011-08-16T12:11:44Z</time>
      </trkpt>
      <trkpt lat="47.02552" lon="5.55994">
        <ele>228</ele>
        <time>2011-08-16T12:11:46Z</time>
      </trkpt>
      <trkpt lat="47.02548" lon="5.56008">
        <ele>228</ele>
        <time>2011-08-16T12:11:48Z</time>
      </trkpt>
      <trkpt lat="47.02545" lon="5.56021">
        <ele>228</ele>
        <time>2011-08-16T12:11:50Z</time>
      </trkpt>
      <trkpt lat="47.02541" lon="5.56036">
        <ele>228</ele>
        <time>2011-08-16T12:11:52Z</time>
      </trkpt>
      <trkpt lat="47.02538" lon="5.56049">
        <ele>228</ele>
        <time>2011-08-16T12:11:54Z</time>
      </trkpt>
      <trkpt lat="47.02534" lon="5.56063">
        <ele>228</ele>
        <time>2011-08-16T12:11:56Z</time>
      </trkpt>
      <trkpt lat="47.0253" lon="5.56078">
        <ele>228</ele>
        <time>2011-08-16T12:11:58Z</time>
      </trkpt>
      <trkpt lat="47.02527" lon="5.56092">
        <ele>228</ele>
        <time>2011-08-16T12:12:00Z</time>
      </trkpt>
      <trkpt lat="47.02525" lon="5.56107">
        <ele>228</ele>
        <time>2011-08-16T12:12:02Z</time>
      </trkpt>
      <trkpt lat="47.02522" lon="5.56121">
        <ele>228</ele>
        <time>2011-08-16T12:12:04Z</time>
      </trkpt>
      <trkpt lat="47.0252" lon="5.56136">
        <ele>228</ele>
        <time>2011-08-16T12:12:06Z</time>
      </trkpt>
      <trkpt lat="47.02518" lon="5.56152">
        <ele>228</ele>
        <time>2011-08-16T12:12:08Z</time>
      </trkpt>
      <trkpt lat="47.02516" lon="5.56169">
        <ele>228</ele>
        <time>2011-08-16T12:12:10Z</time>
      </trkpt>
      <trkpt lat="47.02515" lon="5.56186">
        <ele>228</ele>
        <time>2011-08-16T12:12:12Z</time>
      </trkpt>
      <trkpt lat="47.02513" lon="5.56203">
        <ele>228</ele>
        <time>2011-08-16T12:12:14Z</time>
      </trkpt>
      <trkpt lat="47.0251" lon="5.56221">
        <ele>228</ele>
        <time>2011-08-16T12:12:16Z</time>
      </trkpt>
      <trkpt lat="47.02508" lon="5.56239">
        <ele>228</ele>
        <time>2011-08-16T12:12:18Z</time>
      </trkpt>
      <trkpt lat="47.02506" lon="5.56257">
        <ele>228</ele>
        <time>2011-08-16T12:12:20Z</time>
      </trkpt>
      <trkpt lat="47.02503" lon="5.56274">
        <ele>228</ele>
        <time>2011-08-16T12:12:22Z</time>
      </trkpt>
      <trkpt lat="47.02499" lon="5.56291">
        <ele>228</ele>
        <time>2011-08-16T12:12:24Z</time>
      </trkpt>
      <trkpt lat="47.02492" lon="5.56306">
        <ele>228</ele>
        <time>2011-08-16T12:12:26Z</time>
      </trkpt>
      <trkpt lat="47.02483" lon="5.56317">
        <ele>228</ele>
        <time>2011-08-16T12:12:28Z</time>
      </trkpt>
      <trkpt lat="47.02473" lon="5.56324">
        <ele>228</ele>
        <time>2011-08-16T12:12:30Z</time>
      </trkpt>
      <trkpt lat="47.02458" lon="5.56322">
        <ele>228</ele>
        <time>2011-08-16T12:12:32Z</time>
      </trkpt>
      <trkpt lat="47.02442" lon="5.5632">
        <ele>228</ele>
        <time>2011-08-16T12:12:34Z</time>
      </trkpt>
      <trkpt lat="47.02425" lon="5.5632">
        <ele>228</ele>
        <time>2011-08-16T12:12:36Z</time>
      </trkpt>
      <trkpt lat="47.0241" lon="5.56329">
        <ele>228</ele>
        <time>2011-08-16T12:12:38Z</time>
      </trkpt>
      <trkpt lat="47.02403" lon="5.56337">
        <ele>228</ele>
        <time>2011-08-16T12:12:39Z</time>
      </trkpt>
      <trkpt lat="47.02396" lon="5.56346">
        <ele>228</ele>
        <time>2011-08-16T12:12:40Z</time>
      </trkpt>
      <trkpt lat="47.0239" lon="5.56356">
        <ele>228</ele>
        <time>2011-08-16T12:12:41Z</time>
      </trkpt>
      <trkpt lat="47.02384" lon="5.56367">
        <ele>228</ele>
        <time>2011-08-16T12:12:42Z</time>
      </trkpt>
      <trkpt lat="47.02378" lon="5.56379">
        <ele>228</ele>
        <time>2011-08-16T12:12:43Z</time>
      </trkpt>
      <trkpt lat="47.02371" lon="5.5639">
        <ele>228</ele>
        <time>2011-08-16T12:12:44Z</time>
      </trkpt>
      <trkpt lat="47.02366" lon="5.56404">
        <ele>223</ele>
        <time>2011-08-16T12:12:45Z</time>
      </trkpt>
      <trkpt lat="47.0236" lon="5.56417">
        <ele>223</ele>
        <time>2011-08-16T12:12:46Z</time>
      </trkpt>
      <trkpt lat="47.02355" lon="5.5643">
        <ele>223</ele>
        <time>2011-08-16T12:12:47Z</time>
      </trkpt>
      <trkpt lat="47.02351" lon="5.56443">
        <ele>223</ele>
        <time>2011-08-16T12:12:48Z</time>
      </trkpt>
      <trkpt lat="47.02347" lon="5.56456">
        <ele>223</ele>
        <time>2011-08-16T12:12:49Z</time>
      </trkpt>
      <trkpt lat="47.02343" lon="5.5647">
        <ele>223</ele>
        <time>2011-08-16T12:12:50Z</time>
      </trkpt>
      <trkpt lat="47.02339" lon="5.56482">
        <ele>223</ele>
        <time>2011-08-16T12:12:51Z</time>
      </trkpt>
      <trkpt lat="47.02336" lon="5.56495">
        <ele>223</ele>
        <time>2011-08-16T12:12:52Z</time>
      </trkpt>
      <trkpt lat="47.02333" lon="5.56519">
        <ele>223</ele>
        <time>2011-08-16T12:12:54Z</time>
      </trkpt>
      <trkpt lat="47.0233" lon="5.56541">
        <ele>223</ele>
        <time>2011-08-16T12:12:56Z</time>
      </trkpt>
      <trkpt lat="47.02329" lon="5.5656">
        <ele>223</ele>
        <time>2011-08-16T12:12:58Z</time>
      </trkpt>
      <trkpt lat="47.02328" lon="5.56579">
        <ele>223</ele>
        <time>2011-08-16T12:13:00Z</time>
      </trkpt>
      <trkpt lat="47.02327" lon="5.56596">
        <ele>223</ele>
        <time>2011-08-16T12:13:02Z</time>
      </trkpt>
      <trkpt lat="47.02326" lon="5.56612">
        <ele>223</ele>
        <time>2011-08-16T12:13:04Z</time>
      </trkpt>
      <trkpt lat="47.02325" lon="5.56628">
        <ele>223</ele>
        <time>2011-08-16T12:13:06Z</time>
      </trkpt>
      <trkpt lat="47.02323" lon="5.56643">
        <ele>223</ele>
        <time>2011-08-16T12:13:08Z</time>
      </trkpt>
      <trkpt lat="47.02322" lon="5.56657">
        <ele>223</ele>
        <time>2011-08-16T12:13:10Z</time>
      </trkpt>
      <trkpt lat="47.02321" lon="5.56671">
        <ele>223</ele>
        <time>2011-08-16T12:13:12Z</time>
      </trkpt>
      <trkpt lat="47.02319" lon="5.56684">
        <ele>223</ele>
        <time>2011-08-16T12:13:14Z</time>
      </trkpt>
      <trkpt lat="47.02317" lon="5.56698">
        <ele>223</ele>
        <time>2011-08-16T12:13:16Z</time>
      </trkpt>
      <trkpt lat="47.02314" lon="5.56717">
        <ele>228</ele>
        <time>2011-08-16T12:13:19Z</time>
      </trkpt>
      <trkpt lat="47.02312" lon="5.56731">
        <ele>228</ele>
        <time>2011-08-16T12:13:21Z</time>
      </trkpt>
      <trkpt lat="47.02309" lon="5.56751">
        <ele>228</ele>
        <time>2011-08-16T12:13:24Z</time>
      </trkpt>
      <trkpt lat="47.02307" lon="5.56764">
        <ele>228</ele>
        <time>2011-08-16T12:13:26Z</time>
      </trkpt>
      <trkpt lat="47.02304" lon="5.56779">
        <ele>228</ele>
        <time>2011-08-16T12:13:28Z</time>
      </trkpt>
      <trkpt lat="47.02301" lon="5.56794">
        <ele>228</ele>
        <time>2011-08-16T12:13:30Z</time>
      </trkpt>
      <trkpt lat="47.02298" lon="5.56807">
        <ele>228</ele>
        <time>2011-08-16T12:13:32Z</time>
      </trkpt>
      <trkpt lat="47.02295" lon="5.56821">
        <ele>228</ele>
        <time>2011-08-16T12:13:34Z</time>
      </trkpt>
      <trkpt lat="47.0229" lon="5.56835">
        <ele>228</ele>
        <time>2011-08-16T12:13:36Z</time>
      </trkpt>
      <trkpt lat="47.02285" lon="5.5685">
        <ele>228</ele>
        <time>2011-08-16T12:13:38Z</time>
      </trkpt>
      <trkpt lat="47.02279" lon="5.56864">
        <ele>228</ele>
        <time>2011-08-16T12:13:40Z</time>
      </trkpt>
      <trkpt lat="47.02272" lon="5.56879">
        <ele>228</ele>
        <time>2011-08-16T12:13:42Z</time>
      </trkpt>
      <trkpt lat="47.02266" lon="5.56894">
        <ele>228</ele>
        <time>2011-08-16T12:13:44Z</time>
      </trkpt>
      <trkpt lat="47.02258" lon="5.5691">
        <ele>228</ele>
        <time>2011-08-16T12:13:46Z</time>
      </trkpt>
      <trkpt lat="47.0225" lon="5.56926">
        <ele>228</ele>
        <time>2011-08-16T12:13:48Z</time>
      </trkpt>
      <trkpt lat="47.02241" lon="5.56943">
        <ele>228</ele>
        <time>2011-08-16T12:13:50Z</time>
      </trkpt>
      <trkpt lat="47.02233" lon="5.56959">
        <ele>228</ele>
        <time>2011-08-16T12:13:52Z</time>
      </trkpt>
      <trkpt lat="47.02225" lon="5.56976">
        <ele>228</ele>
        <time>2011-08-16T12:13:54Z</time>
      </trkpt>
      <trkpt lat="47.02215" lon="5.56993">
        <ele>228</ele>
        <time>2011-08-16T12:13:56Z</time>
      </trkpt>
      <trkpt lat="47.02207" lon="5.57009">
        <ele>228</ele>
        <time>2011-08-16T12:13:58Z</time>
      </trkpt>
      <trkpt lat="47.022" lon="5.57026">
        <ele>228</ele>
        <time>2011-08-16T12:14:00Z</time>
      </trkpt>
      <trkpt lat="47.02193" lon="5.57044">
        <ele>228</ele>
        <time>2011-08-16T12:14:02Z</time>
      </trkpt>
      <trkpt lat="47.02188" lon="5.57062">
        <ele>228</ele>
        <time>2011-08-16T12:14:04Z</time>
      </trkpt>
      <trkpt lat="47.02185" lon="5.5708">
        <ele>228</ele>
        <time>2011-08-16T12:14:06Z</time>
      </trkpt>
      <trkpt lat="47.02183" lon="5.57099">
        <ele>228</ele>
        <time>2011-08-16T12:14:08Z</time>
      </trkpt>
      <trkpt lat="47.02181" lon="5.57118">
        <ele>228</ele>
        <time>2011-08-16T12:14:10Z</time>
      </trkpt>
      <trkpt lat="47.02179" lon="5.57136">
        <ele>228</ele>
        <time>2011-08-16T12:14:12Z</time>
      </trkpt>
      <trkpt lat="47.02178" lon="5.57154">
        <ele>228</ele>
        <time>2011-08-16T12:14:14Z</time>
      </trkpt>
      <trkpt lat="47.02176" lon="5.57172">
        <ele>228</ele>
        <time>2011-08-16T12:14:16Z</time>
      </trkpt>
      <trkpt lat="47.02175" lon="5.5719">
        <ele>228</ele>
        <time>2011-08-16T12:14:18Z</time>
      </trkpt>
      <trkpt lat="47.02174" lon="5.57206">
        <ele>228</ele>
        <time>2011-08-16T12:14:20Z</time>
      </trkpt>
      <trkpt lat="47.02172" lon="5.57222">
        <ele>228</ele>
        <time>2011-08-16T12:14:22Z</time>
      </trkpt>
      <trkpt lat="47.02171" lon="5.57238">
        <ele>228</ele>
        <time>2011-08-16T12:14:24Z</time>
      </trkpt>
      <trkpt lat="47.02171" lon="5.57255">
        <ele>228</ele>
        <time>2011-08-16T12:14:26Z</time>
      </trkpt>
      <trkpt lat="47.02169" lon="5.5727">
        <ele>228</ele>
        <time>2011-08-16T12:14:28Z</time>
      </trkpt>
      <trkpt lat="47.02169" lon="5.57286">
        <ele>228</ele>
        <time>2011-08-16T12:14:30Z</time>
      </trkpt>
      <trkpt lat="47.02168" lon="5.57303">
        <ele>228</ele>
        <time>2011-08-16T12:14:32Z</time>
      </trkpt>
      <trkpt lat="47.02167" lon="5.57319">
        <ele>228</ele>
        <time>2011-08-16T12:14:34Z</time>
      </trkpt>
      <trkpt lat="47.02167" lon="5.57336">
        <ele>228</ele>
        <time>2011-08-16T12:14:36Z</time>
      </trkpt>
      <trkpt lat="47.02166" lon="5.57353">
        <ele>228</ele>
        <time>2011-08-16T12:14:38Z</time>
      </trkpt>
      <trkpt lat="47.02166" lon="5.57369">
        <ele>228</ele>
        <time>2011-08-16T12:14:40Z</time>
      </trkpt>
      <trkpt lat="47.02166" lon="5.57386">
        <ele>228</ele>
        <time>2011-08-16T12:14:42Z</time>
      </trkpt>
      <trkpt lat="47.02166" lon="5.57403">
        <ele>228</ele>
        <time>2011-08-16T12:14:44Z</time>
      </trkpt>
      <trkpt lat="47.02166" lon="5.5742">
        <ele>228</ele>
        <time>2011-08-16T12:14:46Z</time>
      </trkpt>
      <trkpt lat="47.02167" lon="5.57439">
        <ele>228</ele>
        <time>2011-08-16T12:14:48Z</time>
      </trkpt>
      <trkpt lat="47.02167" lon="5.57459">
        <ele>228</ele>
        <time>2011-08-16T12:14:50Z</time>
      </trkpt>
      <trkpt lat="47.02167" lon="5.5748">
        <ele>228</ele>
        <time>2011-08-16T12:14:52Z</time>
      </trkpt>
      <trkpt lat="47.02166" lon="5.57502">
        <ele>228</ele>
        <time>2011-08-16T12:14:54Z</time>
      </trkpt>
      <trkpt lat="47.02163" lon="5.57523">
        <ele>228</ele>
        <time>2011-08-16T12:14:56Z</time>
      </trkpt>
      <trkpt lat="47.02157" lon="5.57543">
        <ele>228</ele>
        <time>2011-08-16T12:14:58Z</time>
      </trkpt>
      <trkpt lat="47.02151" lon="5.57562">
        <ele>228</ele>
        <time>2011-08-16T12:15:00Z</time>
      </trkpt>
      <trkpt lat="47.02145" lon="5.5758">
        <ele>228</ele>
        <time>2011-08-16T12:15:02Z</time>
      </trkpt>
      <trkpt lat="47.02139" lon="5.57598">
        <ele>228</ele>
        <time>2011-08-16T12:15:04Z</time>
      </trkpt>
      <trkpt lat="47.02134" lon="5.57614">
        <ele>228</ele>
        <time>2011-08-16T12:15:06Z</time>
      </trkpt>
      <trkpt lat="47.02128" lon="5.5763">
        <ele>228</ele>
        <time>2011-08-16T12:15:08Z</time>
      </trkpt>
      <trkpt lat="47.02123" lon="5.57646">
        <ele>228</ele>
        <time>2011-08-16T12:15:10Z</time>
      </trkpt>
      <trkpt lat="47.02116" lon="5.57663">
        <ele>228</ele>
        <time>2011-08-16T12:15:12Z</time>
      </trkpt>
      <trkpt lat="47.0211" lon="5.5768">
        <ele>228</ele>
        <time>2011-08-16T12:15:14Z</time>
      </trkpt>
      <trkpt lat="47.02105" lon="5.57697">
        <ele>228</ele>
        <time>2011-08-16T12:15:16Z</time>
      </trkpt>
      <trkpt lat="47.02099" lon="5.57714">
        <ele>228</ele>
        <time>2011-08-16T12:15:18Z</time>
      </trkpt>
      <trkpt lat="47.02092" lon="5.57731">
        <ele>228</ele>
        <time>2011-08-16T12:15:20Z</time>
      </trkpt>
      <trkpt lat="47.02086" lon="5.57747">
        <ele>228</ele>
        <time>2011-08-16T12:15:22Z</time>
      </trkpt>
      <trkpt lat="47.02079" lon="5.57764">
        <ele>228</ele>
        <time>2011-08-16T12:15:24Z</time>
      </trkpt>
      <trkpt lat="47.02072" lon="5.5778">
        <ele>228</ele>
        <time>2011-08-16T12:15:26Z</time>
      </trkpt>
      <trkpt lat="47.02065" lon="5.57795">
        <ele>228</ele>
        <time>2011-08-16T12:15:28Z</time>
      </trkpt>
      <trkpt lat="47.02056" lon="5.57812">
        <ele>228</ele>
        <time>2011-08-16T12:15:30Z</time>
      </trkpt>
      <trkpt lat="47.02048" lon="5.57827">
        <ele>228</ele>
        <time>2011-08-16T12:15:32Z</time>
      </trkpt>
      <trkpt lat="47.02038" lon="5.57841">
        <ele>228</ele>
        <time>2011-08-16T12:15:34Z</time>
      </trkpt>
      <trkpt lat="47.02029" lon="5.57857">
        <ele>228</ele>
        <time>2011-08-16T12:15:36Z</time>
      </trkpt>
      <trkpt lat="47.0202" lon="5.57872">
        <ele>228</ele>
        <time>2011-08-16T12:15:38Z</time>
      </trkpt>
      <trkpt lat="47.02011" lon="5.57888">
        <ele>228</ele>
        <time>2011-08-16T12:15:40Z</time>
      </trkpt>
      <trkpt lat="47.02" lon="5.57904">
        <ele>228</ele>
        <time>2011-08-16T12:15:42Z</time>
      </trkpt>
      <trkpt lat="47.0199" lon="5.57919">
        <ele>228</ele>
        <time>2011-08-16T12:15:44Z</time>
      </trkpt>
      <trkpt lat="47.01979" lon="5.57936">
        <ele>228</ele>
        <time>2011-08-16T12:15:46Z</time>
      </trkpt>
      <trkpt lat="47.01969" lon="5.57953">
        <ele>228</ele>
        <time>2011-08-16T12:15:48Z</time>
      </trkpt>
      <trkpt lat="47.01959" lon="5.57969">
        <ele>228</ele>
        <time>2011-08-16T12:15:50Z</time>
      </trkpt>
      <trkpt lat="47.01949" lon="5.57985">
        <ele>228</ele>
        <time>2011-08-16T12:15:52Z</time>
      </trkpt>
      <trkpt lat="47.0194" lon="5.57998">
        <ele>228</ele>
        <time>2011-08-16T12:15:54Z</time>
      </trkpt>
      <trkpt lat="47.0193" lon="5.58012">
        <ele>228</ele>
        <time>2011-08-16T12:15:56Z</time>
      </trkpt>
      <trkpt lat="47.0192" lon="5.58025">
        <ele>228</ele>
        <time>2011-08-16T12:15:58Z</time>
      </trkpt>
      <trkpt lat="47.01909" lon="5.5804">
        <ele>228</ele>
        <time>2011-08-16T12:16:00Z</time>
      </trkpt>
      <trkpt lat="47.019" lon="5.58055">
        <ele>228</ele>
        <time>2011-08-16T12:16:02Z</time>
      </trkpt>
      <trkpt lat="47.01889" lon="5.58069">
        <ele>223</ele>
        <time>2011-08-16T12:16:04Z</time>
      </trkpt>
      <trkpt lat="47.01878" lon="5.58085">
        <ele>223</ele>
        <time>2011-08-16T12:16:06Z</time>
      </trkpt>
      <trkpt lat="47.01867" lon="5.58101">
        <ele>223</ele>
        <time>2011-08-16T12:16:08Z</time>
      </trkpt>
      <trkpt lat="47.01857" lon="5.58118">
        <ele>223</ele>
        <time>2011-08-16T12:16:10Z</time>
      </trkpt>
      <trkpt lat="47.01847" lon="5.58134">
        <ele>223</ele>
        <time>2011-08-16T12:16:12Z</time>
      </trkpt>
      <trkpt lat="47.01836" lon="5.58146">
        <ele>223</ele>
        <time>2011-08-16T12:16:14Z</time>
      </trkpt>
      <trkpt lat="47.0182" lon="5.58148">
        <ele>223</ele>
        <time>2011-08-16T12:16:16Z</time>
      </trkpt>
      <trkpt lat="47.0181" lon="5.58146">
        <ele>223</ele>
        <time>2011-08-16T12:16:17Z</time>
      </trkpt>
      <trkpt lat="47.01801" lon="5.58143">
        <ele>223</ele>
        <time>2011-08-16T12:16:18Z</time>
      </trkpt>
      <trkpt lat="47.01792" lon="5.5814">
        <ele>223</ele>
        <time>2011-08-16T12:16:19Z</time>
      </trkpt>
      <trkpt lat="47.01783" lon="5.58135">
        <ele>223</ele>
        <time>2011-08-16T12:16:20Z</time>
      </trkpt>
      <trkpt lat="47.01766" lon="5.58131">
        <ele>217</ele>
        <time>2011-08-16T12:16:22Z</time>
      </trkpt>
      <trkpt lat="47.0175" lon="5.58136">
        <ele>217</ele>
        <time>2011-08-16T12:16:24Z</time>
      </trkpt>
      <trkpt lat="47.01737" lon="5.58153">
        <ele>217</ele>
        <time>2011-08-16T12:16:26Z</time>
      </trkpt>
      <trkpt lat="47.01734" lon="5.58178">
        <ele>217</ele>
        <time>2011-08-16T12:16:28Z</time>
      </trkpt>
      <trkpt lat="47.01732" lon="5.58192">
        <ele>217</ele>
        <time>2011-08-16T12:16:29Z</time>
      </trkpt>
      <trkpt lat="47.01731" lon="5.58205">
        <ele>217</ele>
        <time>2011-08-16T12:16:30Z</time>
      </trkpt>
      <trkpt lat="47.01728" lon="5.58231">
        <ele>217</ele>
        <time>2011-08-16T12:16:32Z</time>
      </trkpt>
      <trkpt lat="47.01727" lon="5.58256">
        <ele>217</ele>
        <time>2011-08-16T12:16:34Z</time>
      </trkpt>
      <trkpt lat="47.01726" lon="5.58281">
        <ele>217</ele>
        <time>2011-08-16T12:16:36Z</time>
      </trkpt>
      <trkpt lat="47.01726" lon="5.58304">
        <ele>217</ele>
        <time>2011-08-16T12:16:38Z</time>
      </trkpt>
      <trkpt lat="47.01725" lon="5.58326">
        <ele>217</ele>
        <time>2011-08-16T12:16:40Z</time>
      </trkpt>
      <trkpt lat="47.01725" lon="5.58347">
        <ele>217</ele>
        <time>2011-08-16T12:16:42Z</time>
      </trkpt>
      <trkpt lat="47.01725" lon="5.58368">
        <ele>217</ele>
        <time>2011-08-16T12:16:44Z</time>
      </trkpt>
      <trkpt lat="47.01724" lon="5.58387">
        <ele>217</ele>
        <time>2011-08-16T12:16:46Z</time>
      </trkpt>
      <trkpt lat="47.01724" lon="5.58404">
        <ele>217</ele>
        <time>2011-08-16T12:16:48Z</time>
      </trkpt>
      <trkpt lat="47.01724" lon="5.5842">
        <ele>217</ele>
        <time>2011-08-16T12:16:50Z</time>
      </trkpt>
      <trkpt lat="47.01723" lon="5.58436">
        <ele>217</ele>
        <time>2011-08-16T12:16:52Z</time>
      </trkpt>
      <trkpt lat="47.01723" lon="5.58453">
        <ele>217</ele>
        <time>2011-08-16T12:16:54Z</time>
      </trkpt>
      <trkpt lat="47.0172" lon="5.58471">
        <ele>217</ele>
        <time>2011-08-16T12:16:56Z</time>
      </trkpt>
      <trkpt lat="47.01715" lon="5.58489">
        <ele>217</ele>
        <time>2011-08-16T12:16:58Z</time>
      </trkpt>
      <trkpt lat="47.01709" lon="5.58506">
        <ele>217</ele>
        <time>2011-08-16T12:17:00Z</time>
      </trkpt>
      <trkpt lat="47.01702" lon="5.58523">
        <ele>217</ele>
        <time>2011-08-16T12:17:02Z</time>
      </trkpt>
      <trkpt lat="47.01695" lon="5.58539">
        <ele>217</ele>
        <time>2011-08-16T12:17:04Z</time>
      </trkpt>
      <trkpt lat="47.01689" lon="5.58555">
        <ele>217</ele>
        <time>2011-08-16T12:17:06Z</time>
      </trkpt>
      <trkpt lat="47.01685" lon="5.58572">
        <ele>217</ele>
        <time>2011-08-16T12:17:08Z</time>
      </trkpt>
      <trkpt lat="47.01681" lon="5.5859">
        <ele>217</ele>
        <time>2011-08-16T12:17:10Z</time>
      </trkpt>
      <trkpt lat="47.01679" lon="5.58607">
        <ele>217</ele>
        <time>2011-08-16T12:17:12Z</time>
      </trkpt>
      <trkpt lat="47.01678" lon="5.58626">
        <ele>217</ele>
        <time>2011-08-16T12:17:14Z</time>
      </trkpt>
      <trkpt lat="47.01677" lon="5.58646">
        <ele>217</ele>
        <time>2011-08-16T12:17:16Z</time>
      </trkpt>
      <trkpt lat="47.01677" lon="5.58666">
        <ele>217</ele>
        <time>2011-08-16T12:17:18Z</time>
      </trkpt>
      <trkpt lat="47.01677" lon="5.58685">
        <ele>217</ele>
        <time>2011-08-16T12:17:20Z</time>
      </trkpt>
      <trkpt lat="47.01676" lon="5.58705">
        <ele>217</ele>
        <time>2011-08-16T12:17:22Z</time>
      </trkpt>
      <trkpt lat="47.01675" lon="5.58723">
        <ele>217</ele>
        <time>2011-08-16T12:17:24Z</time>
      </trkpt>
      <trkpt lat="47.01675" lon="5.58741">
        <ele>217</ele>
        <time>2011-08-16T12:17:26Z</time>
      </trkpt>
      <trkpt lat="47.01674" lon="5.5876">
        <ele>217</ele>
        <time>2011-08-16T12:17:28Z</time>
      </trkpt>
      <trkpt lat="47.01673" lon="5.58779">
        <ele>217</ele>
        <time>2011-08-16T12:17:30Z</time>
      </trkpt>
      <trkpt lat="47.01672" lon="5.58797">
        <ele>217</ele>
        <time>2011-08-16T12:17:32Z</time>
      </trkpt>
      <trkpt lat="47.01672" lon="5.58815">
        <ele>217</ele>
        <time>2011-08-16T12:17:34Z</time>
      </trkpt>
      <trkpt lat="47.0167" lon="5.58833">
        <ele>217</ele>
        <time>2011-08-16T12:17:36Z</time>
      </trkpt>
      <trkpt lat="47.01667" lon="5.58851">
        <ele>217</ele>
        <time>2011-08-16T12:17:38Z</time>
      </trkpt>
      <trkpt lat="47.01665" lon="5.58869">
        <ele>217</ele>
        <time>2011-08-16T12:17:40Z</time>
      </trkpt>
      <trkpt lat="47.01662" lon="5.58887">
        <ele>217</ele>
        <time>2011-08-16T12:17:42Z</time>
      </trkpt>
      <trkpt lat="47.01661" lon="5.58904">
        <ele>217</ele>
        <time>2011-08-16T12:17:44Z</time>
      </trkpt>
      <trkpt lat="47.01659" lon="5.58922">
        <ele>217</ele>
        <time>2011-08-16T12:17:46Z</time>
      </trkpt>
      <trkpt lat="47.01659" lon="5.58941">
        <ele>217</ele>
        <time>2011-08-16T12:17:48Z</time>
      </trkpt>
      <trkpt lat="47.0166" lon="5.58959">
        <ele>217</ele>
        <time>2011-08-16T12:17:50Z</time>
      </trkpt>
      <trkpt lat="47.01661" lon="5.58977">
        <ele>217</ele>
        <time>2011-08-16T12:17:52Z</time>
      </trkpt>
      <trkpt lat="47.01662" lon="5.58995">
        <ele>217</ele>
        <time>2011-08-16T12:17:54Z</time>
      </trkpt>
      <trkpt lat="47.01665" lon="5.59012">
        <ele>217</ele>
        <time>2011-08-16T12:17:56Z</time>
      </trkpt>
      <trkpt lat="47.01667" lon="5.5903">
        <ele>217</ele>
        <time>2011-08-16T12:17:58Z</time>
      </trkpt>
      <trkpt lat="47.0167" lon="5.59048">
        <ele>217</ele>
        <time>2011-08-16T12:18:00Z</time>
      </trkpt>
      <trkpt lat="47.01672" lon="5.59065">
        <ele>217</ele>
        <time>2011-08-16T12:18:02Z</time>
      </trkpt>
      <trkpt lat="47.01675" lon="5.59082">
        <ele>217</ele>
        <time>2011-08-16T12:18:04Z</time>
      </trkpt>
      <trkpt lat="47.01678" lon="5.59099">
        <ele>217</ele>
        <time>2011-08-16T12:18:06Z</time>
      </trkpt>
      <trkpt lat="47.01681" lon="5.59118">
        <ele>217</ele>
        <time>2011-08-16T12:18:08Z</time>
      </trkpt>
      <trkpt lat="47.01686" lon="5.59136">
        <ele>217</ele>
        <time>2011-08-16T12:18:10Z</time>
      </trkpt>
      <trkpt lat="47.01689" lon="5.59153">
        <ele>217</ele>
        <time>2011-08-16T12:18:12Z</time>
      </trkpt>
      <trkpt lat="47.01693" lon="5.5917">
        <ele>217</ele>
        <time>2011-08-16T12:18:14Z</time>
      </trkpt>
      <trkpt lat="47.01694" lon="5.59188">
        <ele>217</ele>
        <time>2011-08-16T12:18:16Z</time>
      </trkpt>
      <trkpt lat="47.01693" lon="5.59207">
        <ele>217</ele>
        <time>2011-08-16T12:18:18Z</time>
      </trkpt>
      <trkpt lat="47.01684" lon="5.5922">
        <ele>217</ele>
        <time>2011-08-16T12:18:20Z</time>
      </trkpt>
      <trkpt lat="47.01672" lon="5.59231">
        <ele>217</ele>
        <time>2011-08-16T12:18:22Z</time>
      </trkpt>
      <trkpt lat="47.01661" lon="5.5924">
        <ele>217</ele>
        <time>2011-08-16T12:18:24Z</time>
      </trkpt>
      <trkpt lat="47.01648" lon="5.59248">
        <ele>217</ele>
        <time>2011-08-16T12:18:26Z</time>
      </trkpt>
      <trkpt lat="47.01637" lon="5.59256">
        <ele>217</ele>
        <time>2011-08-16T12:18:28Z</time>
      </trkpt>
      <trkpt lat="47.01624" lon="5.59262">
        <ele>217</ele>
        <time>2011-08-16T12:18:30Z</time>
      </trkpt>
      <trkpt lat="47.01613" lon="5.5927">
        <ele>217</ele>
        <time>2011-08-16T12:18:32Z</time>
      </trkpt>
      <trkpt lat="47.01602" lon="5.59278">
        <ele>217</ele>
        <time>2011-08-16T12:18:34Z</time>
      </trkpt>
      <trkpt lat="47.01591" lon="5.59284">
        <ele>217</ele>
        <time>2011-08-16T12:18:36Z</time>
      </trkpt>
      <trkpt lat="47.01579" lon="5.59291">
        <ele>217</ele>
        <time>2011-08-16T12:18:38Z</time>
      </trkpt>
      <trkpt lat="47.01568" lon="5.59301">
        <ele>217</ele>
        <time>2011-08-16T12:18:40Z</time>
      </trkpt>
      <trkpt lat="47.01559" lon="5.59312">
        <ele>217</ele>
        <time>2011-08-16T12:18:42Z</time>
      </trkpt>
      <trkpt lat="47.01551" lon="5.59324">
        <ele>217</ele>
        <time>2011-08-16T12:18:44Z</time>
      </trkpt>
      <trkpt lat="47.01547" lon="5.59341">
        <ele>217</ele>
        <time>2011-08-16T12:18:46Z</time>
      </trkpt>
      <trkpt lat="47.01549" lon="5.59358">
        <ele>217</ele>
        <time>2011-08-16T12:18:48Z</time>
      </trkpt>
      <trkpt lat="47.01552" lon="5.59376">
        <ele>217</ele>
        <time>2011-08-16T12:18:50Z</time>
      </trkpt>
      <trkpt lat="47.01556" lon="5.59392">
        <ele>217</ele>
        <time>2011-08-16T12:18:52Z</time>
      </trkpt>
      <trkpt lat="47.0156" lon="5.59409">
        <ele>217</ele>
        <time>2011-08-16T12:18:54Z</time>
      </trkpt>
      <trkpt lat="47.01565" lon="5.59427">
        <ele>217</ele>
        <time>2011-08-16T12:18:56Z</time>
      </trkpt>
      <trkpt lat="47.01568" lon="5.59445">
        <ele>217</ele>
        <time>2011-08-16T12:18:58Z</time>
      </trkpt>
      <trkpt lat="47.0157" lon="5.59462">
        <ele>217</ele>
        <time>2011-08-16T12:19:00Z</time>
      </trkpt>
      <trkpt lat="47.0157" lon="5.5948">
        <ele>217</ele>
        <time>2011-08-16T12:19:02Z</time>
      </trkpt>
      <trkpt lat="47.01571" lon="5.59497">
        <ele>217</ele>
        <time>2011-08-16T12:19:04Z</time>
      </trkpt>
      <trkpt lat="47.01573" lon="5.59514">
        <ele>217</ele>
        <time>2011-08-16T12:19:06Z</time>
      </trkpt>
      <trkpt lat="47.01578" lon="5.59529">
        <ele>217</ele>
        <time>2011-08-16T12:19:08Z</time>
      </trkpt>
      <trkpt lat="47.01583" lon="5.59543">
        <ele>217</ele>
        <time>2011-08-16T12:19:10Z</time>
      </trkpt>
      <trkpt lat="47.01589" lon="5.59555">
        <ele>217</ele>
        <time>2011-08-16T12:19:12Z</time>
      </trkpt>
      <trkpt lat="47.01594" lon="5.59568">
        <ele>217</ele>
        <time>2011-08-16T12:19:14Z</time>
      </trkpt>
      <trkpt lat="47.01599" lon="5.5958">
        <ele>217</ele>
        <time>2011-08-16T12:19:16Z</time>
      </trkpt>
      <trkpt lat="47.01605" lon="5.59591">
        <ele>223</ele>
        <time>2011-08-16T12:19:18Z</time>
      </trkpt>
      <trkpt lat="47.0161" lon="5.59603">
        <ele>223</ele>
        <time>2011-08-16T12:19:20Z</time>
      </trkpt>
      <trkpt lat="47.01615" lon="5.59615">
        <ele>223</ele>
        <time>2011-08-16T12:19:22Z</time>
      </trkpt>
      <trkpt lat="47.0162" lon="5.59629">
        <ele>223</ele>
        <time>2011-08-16T12:19:24Z</time>
      </trkpt>
      <trkpt lat="47.01626" lon="5.59642">
        <ele>223</ele>
        <time>2011-08-16T12:19:26Z</time>
      </trkpt>
      <trkpt lat="47.01631" lon="5.59655">
        <ele>223</ele>
        <time>2011-08-16T12:19:28Z</time>
      </trkpt>
      <trkpt lat="47.01637" lon="5.59668">
        <ele>223</ele>
        <time>2011-08-16T12:19:30Z</time>
      </trkpt>
      <trkpt lat="47.01642" lon="5.59681">
        <ele>223</ele>
        <time>2011-08-16T12:19:32Z</time>
      </trkpt>
      <trkpt lat="47.01648" lon="5.59694">
        <ele>228</ele>
        <time>2011-08-16T12:19:34Z</time>
      </trkpt>
      <trkpt lat="47.01653" lon="5.59708">
        <ele>228</ele>
        <time>2011-08-16T12:19:36Z</time>
      </trkpt>
      <trkpt lat="47.01658" lon="5.59721">
        <ele>228</ele>
        <time>2011-08-16T12:19:38Z</time>
      </trkpt>
      <trkpt lat="47.01664" lon="5.59734">
        <ele>228</ele>
        <time>2011-08-16T12:19:40Z</time>
      </trkpt>
      <trkpt lat="47.01669" lon="5.59747">
        <ele>228</ele>
        <time>2011-08-16T12:19:42Z</time>
      </trkpt>
      <trkpt lat="47.01675" lon="5.5976">
        <ele>228</ele>
        <time>2011-08-16T12:19:44Z</time>
      </trkpt>
      <trkpt lat="47.0168" lon="5.59773">
        <ele>228</ele>
        <time>2011-08-16T12:19:46Z</time>
      </trkpt>
      <trkpt lat="47.01686" lon="5.59785">
        <ele>228</ele>
        <time>2011-08-16T12:19:48Z</time>
      </trkpt>
      <trkpt lat="47.01691" lon="5.59798">
        <ele>228</ele>
        <time>2011-08-16T12:19:50Z</time>
      </trkpt>
      <trkpt lat="47.01697" lon="5.59811">
        <ele>233</ele>
        <time>2011-08-16T12:19:52Z</time>
      </trkpt>
      <trkpt lat="47.01702" lon="5.59825">
        <ele>233</ele>
        <time>2011-08-16T12:19:54Z</time>
      </trkpt>
      <trkpt lat="47.01707" lon="5.59838">
        <ele>233</ele>
        <time>2011-08-16T12:19:56Z</time>
      </trkpt>
      <trkpt lat="47.0171" lon="5.59853">
        <ele>233</ele>
        <time>2011-08-16T12:19:58Z</time>
      </trkpt>
      <trkpt lat="47.01713" lon="5.59868">
        <ele>233</ele>
        <time>2011-08-16T12:20:00Z</time>
      </trkpt>
      <trkpt lat="47.01715" lon="5.59883">
        <ele>233</ele>
        <time>2011-08-16T12:20:02Z</time>
      </trkpt>
      <trkpt lat="47.01717" lon="5.59898">
        <ele>233</ele>
        <time>2011-08-16T12:20:04Z</time>
      </trkpt>
      <trkpt lat="47.01717" lon="5.59914">
        <ele>233</ele>
        <time>2011-08-16T12:20:06Z</time>
      </trkpt>
      <trkpt lat="47.01718" lon="5.5993">
        <ele>233</ele>
        <time>2011-08-16T12:20:08Z</time>
      </trkpt>
      <trkpt lat="47.01719" lon="5.59945">
        <ele>233</ele>
        <time>2011-08-16T12:20:10Z</time>
      </trkpt>
      <trkpt lat="47.0172" lon="5.59961">
        <ele>233</ele>
        <time>2011-08-16T12:20:12Z</time>
      </trkpt>
      <trkpt lat="47.01721" lon="5.59977">
        <ele>233</ele>
        <time>2011-08-16T12:20:14Z</time>
      </trkpt>
      <trkpt lat="47.01721" lon="5.59995">
        <ele>233</ele>
        <time>2011-08-16T12:20:16Z</time>
      </trkpt>
      <trkpt lat="47.01723" lon="5.60011">
        <ele>233</ele>
        <time>2011-08-16T12:20:18Z</time>
      </trkpt>
      <trkpt lat="47.01725" lon="5.60027">
        <ele>233</ele>
        <time>2011-08-16T12:20:20Z</time>
      </trkpt>
      <trkpt lat="47.01726" lon="5.60043">
        <ele>233</ele>
        <time>2011-08-16T12:20:22Z</time>
      </trkpt>
      <trkpt lat="47.01727" lon="5.6006">
        <ele>233</ele>
        <time>2011-08-16T12:20:24Z</time>
      </trkpt>
      <trkpt lat="47.01728" lon="5.60076">
        <ele>233</ele>
        <time>2011-08-16T12:20:26Z</time>
      </trkpt>
      <trkpt lat="47.0173" lon="5.60092">
        <ele>233</ele>
        <time>2011-08-16T12:20:28Z</time>
      </trkpt>
      <trkpt lat="47.01732" lon="5.60109">
        <ele>233</ele>
        <time>2011-08-16T12:20:30Z</time>
      </trkpt>
      <trkpt lat="47.01732" lon="5.60124">
        <ele>233</ele>
        <time>2011-08-16T12:20:32Z</time>
      </trkpt>
      <trkpt lat="47.01733" lon="5.60139">
        <ele>233</ele>
        <time>2011-08-16T12:20:34Z</time>
      </trkpt>
      <trkpt lat="47.01734" lon="5.60154">
        <ele>233</ele>
        <time>2011-08-16T12:20:36Z</time>
      </trkpt>
      <trkpt lat="47.01735" lon="5.60169">
        <ele>233</ele>
        <time>2011-08-16T12:20:38Z</time>
      </trkpt>
      <trkpt lat="47.01736" lon="5.60184">
        <ele>233</ele>
        <time>2011-08-16T12:20:40Z</time>
      </trkpt>
      <trkpt lat="47.01737" lon="5.60198">
        <ele>233</ele>
        <time>2011-08-16T12:20:42Z</time>
      </trkpt>
      <trkpt lat="47.01738" lon="5.60213">
        <ele>233</ele>
        <time>2011-08-16T12:20:44Z</time>
      </trkpt>
      <trkpt lat="47.01739" lon="5.60227">
        <ele>233</ele>
        <time>2011-08-16T12:20:46Z</time>
      </trkpt>
      <trkpt lat="47.01739" lon="5.60241">
        <ele>233</ele>
        <time>2011-08-16T12:20:48Z</time>
      </trkpt>
      <trkpt lat="47.01741" lon="5.6026">
        <ele>233</ele>
        <time>2011-08-16T12:20:51Z</time>
      </trkpt>
      <trkpt lat="47.01742" lon="5.60279">
        <ele>233</ele>
        <time>2011-08-16T12:20:54Z</time>
      </trkpt>
      <trkpt lat="47.01743" lon="5.60296">
        <ele>233</ele>
        <time>2011-08-16T12:20:57Z</time>
      </trkpt>
      <trkpt lat="47.01744" lon="5.60314">
        <ele>233</ele>
        <time>2011-08-16T12:21:00Z</time>
      </trkpt>
      <trkpt lat="47.01745" lon="5.60332">
        <ele>233</ele>
        <time>2011-08-16T12:21:03Z</time>
      </trkpt>
      <trkpt lat="47.01747" lon="5.60351">
        <ele>233</ele>
        <time>2011-08-16T12:21:06Z</time>
      </trkpt>
      <trkpt lat="47.01748" lon="5.60365">
        <ele>233</ele>
        <time>2011-08-16T12:21:08Z</time>
      </trkpt>
      <trkpt lat="47.01749" lon="5.60378">
        <ele>233</ele>
        <time>2011-08-16T12:21:10Z</time>
      </trkpt>
      <trkpt lat="47.0175" lon="5.60397">
        <ele>233</ele>
        <time>2011-08-16T12:21:13Z</time>
      </trkpt>
      <trkpt lat="47.01752" lon="5.60414">
        <ele>233</ele>
        <time>2011-08-16T12:21:16Z</time>
      </trkpt>
      <trkpt lat="47.01752" lon="5.6043">
        <ele>233</ele>
        <time>2011-08-16T12:21:19Z</time>
      </trkpt>
      <trkpt lat="47.01753" lon="5.60447">
        <ele>233</ele>
        <time>2011-08-16T12:21:22Z</time>
      </trkpt>
      <trkpt lat="47.01755" lon="5.60465">
        <ele>233</ele>
        <time>2011-08-16T12:21:25Z</time>
      </trkpt>
      <trkpt lat="47.01756" lon="5.60482">
        <ele>233</ele>
        <time>2011-08-16T12:21:28Z</time>
      </trkpt>
      <trkpt lat="47.01756" lon="5.605">
        <ele>233</ele>
        <time>2011-08-16T12:21:31Z</time>
      </trkpt>
      <trkpt lat="47.01758" lon="5.60519">
        <ele>233</ele>
        <time>2011-08-16T12:21:34Z</time>
      </trkpt>
      <trkpt lat="47.0176" lon="5.60538">
        <ele>233</ele>
        <time>2011-08-16T12:21:37Z</time>
      </trkpt>
      <trkpt lat="47.0176" lon="5.60556">
        <ele>233</ele>
        <time>2011-08-16T12:21:40Z</time>
      </trkpt>
      <trkpt lat="47.01761" lon="5.60574">
        <ele>233</ele>
        <time>2011-08-16T12:21:43Z</time>
      </trkpt>
      <trkpt lat="47.01761" lon="5.60591">
        <ele>233</ele>
        <time>2011-08-16T12:21:46Z</time>
      </trkpt>
      <trkpt lat="47.01762" lon="5.60609">
        <ele>233</ele>
        <time>2011-08-16T12:21:49Z</time>
      </trkpt>
      <trkpt lat="47.01763" lon="5.60627">
        <ele>233</ele>
        <time>2011-08-16T12:21:52Z</time>
      </trkpt>
      <trkpt lat="47.01764" lon="5.60644">
        <ele>233</ele>
        <time>2011-08-16T12:21:55Z</time>
      </trkpt>
      <trkpt lat="47.01766" lon="5.60663">
        <ele>233</ele>
        <time>2011-08-16T12:21:58Z</time>
      </trkpt>
      <trkpt lat="47.01767" lon="5.60682">
        <ele>233</ele>
        <time>2011-08-16T12:22:01Z</time>
      </trkpt>
      <trkpt lat="47.01768" lon="5.60695">
        <ele>233</ele>
        <time>2011-08-16T12:22:03Z</time>
      </trkpt>
      <trkpt lat="47.01769" lon="5.60713">
        <ele>233</ele>
        <time>2011-08-16T12:22:06Z</time>
      </trkpt>
      <trkpt lat="47.0177" lon="5.60727">
        <ele>233</ele>
        <time>2011-08-16T12:22:08Z</time>
      </trkpt>
      <trkpt lat="47.01771" lon="5.60745">
        <ele>233</ele>
        <time>2011-08-16T12:22:11Z</time>
      </trkpt>
      <trkpt lat="47.01772" lon="5.60763">
        <ele>233</ele>
        <time>2011-08-16T12:22:14Z</time>
      </trkpt>
      <trkpt lat="47.01774" lon="5.60783">
        <ele>233</ele>
        <time>2011-08-16T12:22:17Z</time>
      </trkpt>
      <trkpt lat="47.01774" lon="5.60797">
        <ele>233</ele>
        <time>2011-08-16T12:22:19Z</time>
      </trkpt>
      <trkpt lat="47.01775" lon="5.60812">
        <ele>233</ele>
        <time>2011-08-16T12:22:21Z</time>
      </trkpt>
      <trkpt lat="47.01776" lon="5.60827">
        <ele>233</ele>
        <time>2011-08-16T12:22:23Z</time>
      </trkpt>
      <trkpt lat="47.01777" lon="5.60844">
        <ele>233</ele>
        <time>2011-08-16T12:22:25Z</time>
      </trkpt>
      <trkpt lat="47.01779" lon="5.60862">
        <ele>233</ele>
        <time>2011-08-16T12:22:27Z</time>
      </trkpt>
      <trkpt lat="47.0178" lon="5.60882">
        <ele>233</ele>
        <time>2011-08-16T12:22:29Z</time>
      </trkpt>
      <trkpt lat="47.01781" lon="5.60903">
        <ele>233</ele>
        <time>2011-08-16T12:22:31Z</time>
      </trkpt>
      <trkpt lat="47.01782" lon="5.60923">
        <ele>233</ele>
        <time>2011-08-16T12:22:33Z</time>
      </trkpt>
      <trkpt lat="47.01783" lon="5.60943">
        <ele>233</ele>
        <time>2011-08-16T12:22:35Z</time>
      </trkpt>
      <trkpt lat="47.01785" lon="5.60964">
        <ele>233</ele>
        <time>2011-08-16T12:22:37Z</time>
      </trkpt>
      <trkpt lat="47.01787" lon="5.60986">
        <ele>233</ele>
        <time>2011-08-16T12:22:39Z</time>
      </trkpt>
      <trkpt lat="47.01788" lon="5.61011">
        <ele>233</ele>
        <time>2011-08-16T12:22:41Z</time>
      </trkpt>
      <trkpt lat="47.0179" lon="5.61036">
        <ele>227</ele>
        <time>2011-08-16T12:22:43Z</time>
      </trkpt>
      <trkpt lat="47.0179" lon="5.61049">
        <ele>227</ele>
        <time>2011-08-16T12:22:44Z</time>
      </trkpt>
      <trkpt lat="47.01791" lon="5.61063">
        <ele>227</ele>
        <time>2011-08-16T12:22:45Z</time>
      </trkpt>
      <trkpt lat="47.01792" lon="5.61076">
        <ele>227</ele>
        <time>2011-08-16T12:22:46Z</time>
      </trkpt>
      <trkpt lat="47.01793" lon="5.6109">
        <ele>227</ele>
        <time>2011-08-16T12:22:47Z</time>
      </trkpt>
      <trkpt lat="47.01794" lon="5.61104">
        <ele>227</ele>
        <time>2011-08-16T12:22:48Z</time>
      </trkpt>
      <trkpt lat="47.01795" lon="5.61117">
        <ele>227</ele>
        <time>2011-08-16T12:22:49Z</time>
      </trkpt>
      <trkpt lat="47.01796" lon="5.61131">
        <ele>227</ele>
        <time>2011-08-16T12:22:50Z</time>
      </trkpt>
      <trkpt lat="47.01797" lon="5.61144">
        <ele>227</ele>
        <time>2011-08-16T12:22:51Z</time>
      </trkpt>
      <trkpt lat="47.01798" lon="5.61169">
        <ele>227</ele>
        <time>2011-08-16T12:22:53Z</time>
      </trkpt>
      <trkpt lat="47.018" lon="5.61191">
        <ele>227</ele>
        <time>2011-08-16T12:22:55Z</time>
      </trkpt>
      <trkpt lat="47.01802" lon="5.61213">
        <ele>227</ele>
        <time>2011-08-16T12:22:57Z</time>
      </trkpt>
      <trkpt lat="47.01803" lon="5.61234">
        <ele>227</ele>
        <time>2011-08-16T12:22:59Z</time>
      </trkpt>
      <trkpt lat="47.01804" lon="5.61255">
        <ele>227</ele>
        <time>2011-08-16T12:23:01Z</time>
      </trkpt>
      <trkpt lat="47.01805" lon="5.61275">
        <ele>227</ele>
        <time>2011-08-16T12:23:03Z</time>
      </trkpt>
      <trkpt lat="47.01806" lon="5.61293">
        <ele>227</ele>
        <time>2011-08-16T12:23:05Z</time>
      </trkpt>
      <trkpt lat="47.01807" lon="5.6131">
        <ele>227</ele>
        <time>2011-08-16T12:23:07Z</time>
      </trkpt>
      <trkpt lat="47.01809" lon="5.61325">
        <ele>227</ele>
        <time>2011-08-16T12:23:09Z</time>
      </trkpt>
      <trkpt lat="47.01809" lon="5.6134">
        <ele>227</ele>
        <time>2011-08-16T12:23:11Z</time>
      </trkpt>
      <trkpt lat="47.0181" lon="5.61354">
        <ele>227</ele>
        <time>2011-08-16T12:23:13Z</time>
      </trkpt>
      <trkpt lat="47.0181" lon="5.61368">
        <ele>227</ele>
        <time>2011-08-16T12:23:15Z</time>
      </trkpt>
      <trkpt lat="47.01812" lon="5.61382">
        <ele>227</ele>
        <time>2011-08-16T12:23:17Z</time>
      </trkpt>
      <trkpt lat="47.01813" lon="5.61397">
        <ele>227</ele>
        <time>2011-08-16T12:23:19Z</time>
      </trkpt>
      <trkpt lat="47.01814" lon="5.61412">
        <ele>227</ele>
        <time>2011-08-16T12:23:21Z</time>
      </trkpt>
      <trkpt lat="47.01815" lon="5.61426">
        <ele>232</ele>
        <time>2011-08-16T12:23:23Z</time>
      </trkpt>
      <trkpt lat="47.01816" lon="5.61442">
        <ele>232</ele>
        <time>2011-08-16T12:23:25Z</time>
      </trkpt>
      <trkpt lat="47.01817" lon="5.61457">
        <ele>232</ele>
        <time>2011-08-16T12:23:27Z</time>
      </trkpt>
      <trkpt lat="47.01818" lon="5.61471">
        <ele>232</ele>
        <time>2011-08-16T12:23:29Z</time>
      </trkpt>
      <trkpt lat="47.01818" lon="5.61486">
        <ele>232</ele>
        <time>2011-08-16T12:23:31Z</time>
      </trkpt>
      <trkpt lat="47.01819" lon="5.615">
        <ele>232</ele>
        <time>2011-08-16T12:23:33Z</time>
      </trkpt>
      <trkpt lat="47.0182" lon="5.61514">
        <ele>232</ele>
        <time>2011-08-16T12:23:35Z</time>
      </trkpt>
      <trkpt lat="47.0182" lon="5.61529">
        <ele>232</ele>
        <time>2011-08-16T12:23:37Z</time>
      </trkpt>
      <trkpt lat="47.01822" lon="5.61543">
        <ele>232</ele>
        <time>2011-08-16T12:23:39Z</time>
      </trkpt>
      <trkpt lat="47.01823" lon="5.61558">
        <ele>237</ele>
        <time>2011-08-16T12:23:41Z</time>
      </trkpt>
      <trkpt lat="47.01822" lon="5.61573">
        <ele>237</ele>
        <time>2011-08-16T12:23:43Z</time>
      </trkpt>
      <trkpt lat="47.01823" lon="5.61588">
        <ele>237</ele>
        <time>2011-08-16T12:23:45Z</time>
      </trkpt>
      <trkpt lat="47.01823" lon="5.61604">
        <ele>237</ele>
        <time>2011-08-16T12:23:47Z</time>
      </trkpt>
      <trkpt lat="47.01823" lon="5.6162">
        <ele>237</ele>
        <time>2011-08-16T12:23:49Z</time>
      </trkpt>
      <trkpt lat="47.01823" lon="5.61635">
        <ele>237</ele>
        <time>2011-08-16T12:23:51Z</time>
      </trkpt>
      <trkpt lat="47.01823" lon="5.6165">
        <ele>237</ele>
        <time>2011-08-16T12:23:53Z</time>
      </trkpt>
      <trkpt lat="47.01824" lon="5.61665">
        <ele>237</ele>
        <time>2011-08-16T12:23:55Z</time>
      </trkpt>
      <trkpt lat="47.01824" lon="5.61682">
        <ele>237</ele>
        <time>2011-08-16T12:23:57Z</time>
      </trkpt>
      <trkpt lat="47.01825" lon="5.61697">
        <ele>237</ele>
        <time>2011-08-16T12:23:59Z</time>
      </trkpt>
      <trkpt lat="47.01825" lon="5.61713">
        <ele>237</ele>
        <time>2011-08-16T12:24:01Z</time>
      </trkpt>
      <trkpt lat="47.01825" lon="5.61728">
        <ele>237</ele>
        <time>2011-08-16T12:24:03Z</time>
      </trkpt>
      <trkpt lat="47.01825" lon="5.61744">
        <ele>237</ele>
        <time>2011-08-16T12:24:05Z</time>
      </trkpt>
      <trkpt lat="47.01826" lon="5.61761">
        <ele>237</ele>
        <time>2011-08-16T12:24:07Z</time>
      </trkpt>
      <trkpt lat="47.01827" lon="5.61777">
        <ele>237</ele>
        <time>2011-08-16T12:24:09Z</time>
      </trkpt>
      <trkpt lat="47.01828" lon="5.61793">
        <ele>237</ele>
        <time>2011-08-16T12:24:11Z</time>
      </trkpt>
      <trkpt lat="47.0183" lon="5.61809">
        <ele>237</ele>
        <time>2011-08-16T12:24:13Z</time>
      </trkpt>
      <trkpt lat="47.01833" lon="5.61824">
        <ele>237</ele>
        <time>2011-08-16T12:24:15Z</time>
      </trkpt>
      <trkpt lat="47.01836" lon="5.6184">
        <ele>237</ele>
        <time>2011-08-16T12:24:17Z</time>
      </trkpt>
      <trkpt lat="47.01838" lon="5.61855">
        <ele>237</ele>
        <time>2011-08-16T12:24:19Z</time>
      </trkpt>
      <trkpt lat="47.01842" lon="5.61869">
        <ele>237</ele>
        <time>2011-08-16T12:24:21Z</time>
      </trkpt>
      <trkpt lat="47.01847" lon="5.61884">
        <ele>242</ele>
        <time>2011-08-16T12:24:23Z</time>
      </trkpt>
      <trkpt lat="47.0185" lon="5.61898">
        <ele>242</ele>
        <time>2011-08-16T12:24:25Z</time>
      </trkpt>
      <trkpt lat="47.01855" lon="5.61912">
        <ele>242</ele>
        <time>2011-08-16T12:24:27Z</time>
      </trkpt>
      <trkpt lat="47.01859" lon="5.61926">
        <ele>242</ele>
        <time>2011-08-16T12:24:29Z</time>
      </trkpt>
      <trkpt lat="47.01863" lon="5.6194">
        <ele>242</ele>
        <time>2011-08-16T12:24:31Z</time>
      </trkpt>
      <trkpt lat="47.01868" lon="5.61955">
        <ele>242</ele>
        <time>2011-08-16T12:24:33Z</time>
      </trkpt>
      <trkpt lat="47.01873" lon="5.61969">
        <ele>242</ele>
        <time>2011-08-16T12:24:35Z</time>
      </trkpt>
      <trkpt lat="47.01877" lon="5.61983">
        <ele>242</ele>
        <time>2011-08-16T12:24:37Z</time>
      </trkpt>
      <trkpt lat="47.01881" lon="5.61998">
        <ele>242</ele>
        <time>2011-08-16T12:24:39Z</time>
      </trkpt>
      <trkpt lat="47.01885" lon="5.62013">
        <ele>242</ele>
        <time>2011-08-16T12:24:41Z</time>
      </trkpt>
      <trkpt lat="47.01889" lon="5.62028">
        <ele>242</ele>
        <time>2011-08-16T12:24:43Z</time>
      </trkpt>
      <trkpt lat="47.01893" lon="5.62043">
        <ele>242</ele>
        <time>2011-08-16T12:24:45Z</time>
      </trkpt>
      <trkpt lat="47.01897" lon="5.62059">
        <ele>242</ele>
        <time>2011-08-16T12:24:47Z</time>
      </trkpt>
      <trkpt lat="47.01901" lon="5.62075">
        <ele>242</ele>
        <time>2011-08-16T12:24:49Z</time>
      </trkpt>
      <trkpt lat="47.01905" lon="5.62092">
        <ele>242</ele>
        <time>2011-08-16T12:24:51Z</time>
      </trkpt>
      <trkpt lat="47.01909" lon="5.62109">
        <ele>242</ele>
        <time>2011-08-16T12:24:53Z</time>
      </trkpt>
      <trkpt lat="47.01913" lon="5.62126">
        <ele>242</ele>
        <time>2011-08-16T12:24:55Z</time>
      </trkpt>
      <trkpt lat="47.01917" lon="5.62144">
        <ele>242</ele>
        <time>2011-08-16T12:24:57Z</time>
      </trkpt>
      <trkpt lat="47.01922" lon="5.62164">
        <ele>242</ele>
        <time>2011-08-16T12:24:59Z</time>
      </trkpt>
      <trkpt lat="47.01928" lon="5.6218">
        <ele>242</ele>
        <time>2011-08-16T12:25:01Z</time>
      </trkpt>
      <trkpt lat="47.01935" lon="5.62196">
        <ele>242</ele>
        <time>2011-08-16T12:25:03Z</time>
      </trkpt>
      <trkpt lat="47.01943" lon="5.62212">
        <ele>242</ele>
        <time>2011-08-16T12:25:05Z</time>
      </trkpt>
      <trkpt lat="47.01949" lon="5.6223">
        <ele>242</ele>
        <time>2011-08-16T12:25:07Z</time>
      </trkpt>
      <trkpt lat="47.01957" lon="5.62246">
        <ele>242</ele>
        <time>2011-08-16T12:25:09Z</time>
      </trkpt>
      <trkpt lat="47.01965" lon="5.62263">
        <ele>242</ele>
        <time>2011-08-16T12:25:11Z</time>
      </trkpt>
      <trkpt lat="47.01972" lon="5.62278">
        <ele>242</ele>
        <time>2011-08-16T12:25:13Z</time>
      </trkpt>
      <trkpt lat="47.0198" lon="5.62293">
        <ele>242</ele>
        <time>2011-08-16T12:25:15Z</time>
      </trkpt>
      <trkpt lat="47.01987" lon="5.62309">
        <ele>242</ele>
        <time>2011-08-16T12:25:17Z</time>
      </trkpt>
      <trkpt lat="47.01995" lon="5.62325">
        <ele>242</ele>
        <time>2011-08-16T12:25:19Z</time>
      </trkpt>
      <trkpt lat="47.02004" lon="5.62341">
        <ele>242</ele>
        <time>2011-08-16T12:25:21Z</time>
      </trkpt>
      <trkpt lat="47.02013" lon="5.62358">
        <ele>242</ele>
        <time>2011-08-16T12:25:23Z</time>
      </trkpt>
      <trkpt lat="47.02021" lon="5.62376">
        <ele>242</ele>
        <time>2011-08-16T12:25:25Z</time>
      </trkpt>
      <trkpt lat="47.02029" lon="5.62393">
        <ele>242</ele>
        <time>2011-08-16T12:25:27Z</time>
      </trkpt>
      <trkpt lat="47.02038" lon="5.62411">
        <ele>242</ele>
        <time>2011-08-16T12:25:29Z</time>
      </trkpt>
      <trkpt lat="47.02048" lon="5.62428">
        <ele>242</ele>
        <time>2011-08-16T12:25:31Z</time>
      </trkpt>
      <trkpt lat="47.02057" lon="5.62445">
        <ele>242</ele>
        <time>2011-08-16T12:25:33Z</time>
      </trkpt>
      <trkpt lat="47.02064" lon="5.62462">
        <ele>242</ele>
        <time>2011-08-16T12:25:35Z</time>
      </trkpt>
      <trkpt lat="47.02072" lon="5.62479">
        <ele>242</ele>
        <time>2011-08-16T12:25:37Z</time>
      </trkpt>
      <trkpt lat="47.02079" lon="5.62496">
        <ele>242</ele>
        <time>2011-08-16T12:25:39Z</time>
      </trkpt>
      <trkpt lat="47.02087" lon="5.62513">
        <ele>242</ele>
        <time>2011-08-16T12:25:41Z</time>
      </trkpt>
      <trkpt lat="47.02094" lon="5.6253">
        <ele>242</ele>
        <time>2011-08-16T12:25:43Z</time>
      </trkpt>
      <trkpt lat="47.021" lon="5.6255">
        <ele>242</ele>
        <time>2011-08-16T12:25:45Z</time>
      </trkpt>
      <trkpt lat="47.02105" lon="5.6257">
        <ele>242</ele>
        <time>2011-08-16T12:25:47Z</time>
      </trkpt>
      <trkpt lat="47.02108" lon="5.6259">
        <ele>242</ele>
        <time>2011-08-16T12:25:49Z</time>
      </trkpt>
      <trkpt lat="47.02112" lon="5.62609">
        <ele>242</ele>
        <time>2011-08-16T12:25:51Z</time>
      </trkpt>
      <trkpt lat="47.02113" lon="5.62628">
        <ele>242</ele>
        <time>2011-08-16T12:25:53Z</time>
      </trkpt>
      <trkpt lat="47.02114" lon="5.62647">
        <ele>242</ele>
        <time>2011-08-16T12:25:55Z</time>
      </trkpt>
      <trkpt lat="47.02113" lon="5.62665">
        <ele>242</ele>
        <time>2011-08-16T12:25:57Z</time>
      </trkpt>
      <trkpt lat="47.02112" lon="5.62683">
        <ele>242</ele>
        <time>2011-08-16T12:25:59Z</time>
      </trkpt>
      <trkpt lat="47.0211" lon="5.62701">
        <ele>242</ele>
        <time>2011-08-16T12:26:01Z</time>
      </trkpt>
      <trkpt lat="47.02108" lon="5.62719">
        <ele>242</ele>
        <time>2011-08-16T12:26:03Z</time>
      </trkpt>
      <trkpt lat="47.02105" lon="5.62736">
        <ele>242</ele>
        <time>2011-08-16T12:26:05Z</time>
      </trkpt>
      <trkpt lat="47.02102" lon="5.62753">
        <ele>242</ele>
        <time>2011-08-16T12:26:07Z</time>
      </trkpt>
      <trkpt lat="47.021" lon="5.6277">
        <ele>242</ele>
        <time>2011-08-16T12:26:09Z</time>
      </trkpt>
      <trkpt lat="47.02097" lon="5.62787">
        <ele>242</ele>
        <time>2011-08-16T12:26:11Z</time>
      </trkpt>
      <trkpt lat="47.02095" lon="5.62804">
        <ele>242</ele>
        <time>2011-08-16T12:26:13Z</time>
      </trkpt>
      <trkpt lat="47.02092" lon="5.6282">
        <ele>242</ele>
        <time>2011-08-16T12:26:15Z</time>
      </trkpt>
      <trkpt lat="47.0209" lon="5.62835">
        <ele>242</ele>
        <time>2011-08-16T12:26:17Z</time>
      </trkpt>
      <trkpt lat="47.02088" lon="5.6285">
        <ele>242</ele>
        <time>2011-08-16T12:26:19Z</time>
      </trkpt>
      <trkpt lat="47.02086" lon="5.62866">
        <ele>242</ele>
        <time>2011-08-16T12:26:21Z</time>
      </trkpt>
      <trkpt lat="47.02083" lon="5.62882">
        <ele>242</ele>
        <time>2011-08-16T12:26:23Z</time>
      </trkpt>
      <trkpt lat="47.02081" lon="5.62897">
        <ele>242</ele>
        <time>2011-08-16T12:26:25Z</time>
      </trkpt>
      <trkpt lat="47.02079" lon="5.62913">
        <ele>242</ele>
        <time>2011-08-16T12:26:27Z</time>
      </trkpt>
      <trkpt lat="47.02077" lon="5.62928">
        <ele>242</ele>
        <time>2011-08-16T12:26:29Z</time>
      </trkpt>
      <trkpt lat="47.02075" lon="5.62945">
        <ele>242</ele>
        <time>2011-08-16T12:26:31Z</time>
      </trkpt>
      <trkpt lat="47.02073" lon="5.62961">
        <ele>242</ele>
        <time>2011-08-16T12:26:33Z</time>
      </trkpt>
      <trkpt lat="47.0207" lon="5.62977">
        <ele>242</ele>
        <time>2011-08-16T12:26:35Z</time>
      </trkpt>
      <trkpt lat="47.02068" lon="5.62993">
        <ele>242</ele>
        <time>2011-08-16T12:26:37Z</time>
      </trkpt>
      <trkpt lat="47.02066" lon="5.63009">
        <ele>242</ele>
        <time>2011-08-16T12:26:39Z</time>
      </trkpt>
      <trkpt lat="47.02064" lon="5.63025">
        <ele>242</ele>
        <time>2011-08-16T12:26:41Z</time>
      </trkpt>
      <trkpt lat="47.02062" lon="5.63042">
        <ele>242</ele>
        <time>2011-08-16T12:26:43Z</time>
      </trkpt>
      <trkpt lat="47.02059" lon="5.63057">
        <ele>242</ele>
        <time>2011-08-16T12:26:45Z</time>
      </trkpt>
      <trkpt lat="47.02058" lon="5.63073">
        <ele>242</ele>
        <time>2011-08-16T12:26:47Z</time>
      </trkpt>
      <trkpt lat="47.02056" lon="5.63088">
        <ele>242</ele>
        <time>2011-08-16T12:26:49Z</time>
      </trkpt>
      <trkpt lat="47.02055" lon="5.63104">
        <ele>242</ele>
        <time>2011-08-16T12:26:51Z</time>
      </trkpt>
      <trkpt lat="47.02055" lon="5.6312">
        <ele>242</ele>
        <time>2011-08-16T12:26:53Z</time>
      </trkpt>
      <trkpt lat="47.02055" lon="5.63137">
        <ele>242</ele>
        <time>2011-08-16T12:26:55Z</time>
      </trkpt>
      <trkpt lat="47.02056" lon="5.63155">
        <ele>242</ele>
        <time>2011-08-16T12:26:57Z</time>
      </trkpt>
      <trkpt lat="47.02056" lon="5.63173">
        <ele>242</ele>
        <time>2011-08-16T12:26:59Z</time>
      </trkpt>
      <trkpt lat="47.02057" lon="5.63192">
        <ele>242</ele>
        <time>2011-08-16T12:27:01Z</time>
      </trkpt>
      <trkpt lat="47.02058" lon="5.6321">
        <ele>242</ele>
        <time>2011-08-16T12:27:03Z</time>
      </trkpt>
      <trkpt lat="47.02059" lon="5.63228">
        <ele>242</ele>
        <time>2011-08-16T12:27:05Z</time>
      </trkpt>
      <trkpt lat="47.0206" lon="5.63247">
        <ele>242</ele>
        <time>2011-08-16T12:27:07Z</time>
      </trkpt>
      <trkpt lat="47.02061" lon="5.63265">
        <ele>242</ele>
        <time>2011-08-16T12:27:09Z</time>
      </trkpt>
      <trkpt lat="47.02062" lon="5.63284">
        <ele>242</ele>
        <time>2011-08-16T12:27:11Z</time>
      </trkpt>
      <trkpt lat="47.02064" lon="5.63304">
        <ele>242</ele>
        <time>2011-08-16T12:27:13Z</time>
      </trkpt>
      <trkpt lat="47.02065" lon="5.63324">
        <ele>242</ele>
        <time>2011-08-16T12:27:15Z</time>
      </trkpt>
      <trkpt lat="47.02066" lon="5.63343">
        <ele>242</ele>
        <time>2011-08-16T12:27:17Z</time>
      </trkpt>
      <trkpt lat="47.02067" lon="5.63362">
        <ele>242</ele>
        <time>2011-08-16T12:27:19Z</time>
      </trkpt>
      <trkpt lat="47.02069" lon="5.63382">
        <ele>242</ele>
        <time>2011-08-16T12:27:21Z</time>
      </trkpt>
      <trkpt lat="47.0207" lon="5.63403">
        <ele>242</ele>
        <time>2011-08-16T12:27:23Z</time>
      </trkpt>
      <trkpt lat="47.02072" lon="5.63424">
        <ele>242</ele>
        <time>2011-08-16T12:27:25Z</time>
      </trkpt>
      <trkpt lat="47.02075" lon="5.63445">
        <ele>242</ele>
        <time>2011-08-16T12:27:27Z</time>
      </trkpt>
      <trkpt lat="47.02077" lon="5.63466">
        <ele>242</ele>
        <time>2011-08-16T12:27:29Z</time>
      </trkpt>
      <trkpt lat="47.02078" lon="5.63486">
        <ele>242</ele>
        <time>2011-08-16T12:27:31Z</time>
      </trkpt>
      <trkpt lat="47.0208" lon="5.63507">
        <ele>242</ele>
        <time>2011-08-16T12:27:33Z</time>
      </trkpt>
      <trkpt lat="47.02081" lon="5.63528">
        <ele>242</ele>
        <time>2011-08-16T12:27:35Z</time>
      </trkpt>
      <trkpt lat="47.02082" lon="5.6355">
        <ele>242</ele>
        <time>2011-08-16T12:27:37Z</time>
      </trkpt>
      <trkpt lat="47.02081" lon="5.63572">
        <ele>242</ele>
        <time>2011-08-16T12:27:39Z</time>
      </trkpt>
      <trkpt lat="47.0208" lon="5.63594">
        <ele>242</ele>
        <time>2011-08-16T12:27:41Z</time>
      </trkpt>
      <trkpt lat="47.02081" lon="5.63617">
        <ele>242</ele>
        <time>2011-08-16T12:27:43Z</time>
      </trkpt>
      <trkpt lat="47.02083" lon="5.63642">
        <ele>242</ele>
        <time>2011-08-16T12:27:45Z</time>
      </trkpt>
      <trkpt lat="47.02087" lon="5.63667">
        <ele>242</ele>
        <time>2011-08-16T12:27:47Z</time>
      </trkpt>
      <trkpt lat="47.02091" lon="5.63692">
        <ele>242</ele>
        <time>2011-08-16T12:27:49Z</time>
      </trkpt>
      <trkpt lat="47.02095" lon="5.63716">
        <ele>242</ele>
        <time>2011-08-16T12:27:51Z</time>
      </trkpt>
      <trkpt lat="47.02099" lon="5.6374">
        <ele>242</ele>
        <time>2011-08-16T12:27:53Z</time>
      </trkpt>
      <trkpt lat="47.02102" lon="5.63763">
        <ele>242</ele>
        <time>2011-08-16T12:27:55Z</time>
      </trkpt>
      <trkpt lat="47.02104" lon="5.63786">
        <ele>242</ele>
        <time>2011-08-16T12:27:57Z</time>
      </trkpt>
      <trkpt lat="47.02105" lon="5.63809">
        <ele>242</ele>
        <time>2011-08-16T12:27:59Z</time>
      </trkpt>
      <trkpt lat="47.02104" lon="5.6383">
        <ele>242</ele>
        <time>2011-08-16T12:28:01Z</time>
      </trkpt>
      <trkpt lat="47.021" lon="5.63852">
        <ele>242</ele>
        <time>2011-08-16T12:28:03Z</time>
      </trkpt>
      <trkpt lat="47.02094" lon="5.63873">
        <ele>242</ele>
        <time>2011-08-16T12:28:05Z</time>
      </trkpt>
      <trkpt lat="47.02088" lon="5.63892">
        <ele>237</ele>
        <time>2011-08-16T12:28:07Z</time>
      </trkpt>
      <trkpt lat="47.02081" lon="5.63913">
        <ele>237</ele>
        <time>2011-08-16T12:28:09Z</time>
      </trkpt>
      <trkpt lat="47.02073" lon="5.63933">
        <ele>237</ele>
        <time>2011-08-16T12:28:11Z</time>
      </trkpt>
      <trkpt lat="47.02064" lon="5.63953">
        <ele>237</ele>
        <time>2011-08-16T12:28:13Z</time>
      </trkpt>
      <trkpt lat="47.02053" lon="5.6397">
        <ele>237</ele>
        <time>2011-08-16T12:28:15Z</time>
      </trkpt>
      <trkpt lat="47.0204" lon="5.63986">
        <ele>237</ele>
        <time>2011-08-16T12:28:17Z</time>
      </trkpt>
      <trkpt lat="47.02026" lon="5.64">
        <ele>232</ele>
        <time>2011-08-16T12:28:19Z</time>
      </trkpt>
      <trkpt lat="47.02013" lon="5.64013">
        <ele>232</ele>
        <time>2011-08-16T12:28:21Z</time>
      </trkpt>
      <trkpt lat="47.01998" lon="5.64025">
        <ele>232</ele>
        <time>2011-08-16T12:28:23Z</time>
      </trkpt>
      <trkpt lat="47.01983" lon="5.64038">
        <ele>232</ele>
        <time>2011-08-16T12:28:25Z</time>
      </trkpt>
      <trkpt lat="47.0197" lon="5.64052">
        <ele>232</ele>
        <time>2011-08-16T12:28:27Z</time>
      </trkpt>
      <trkpt lat="47.01959" lon="5.64069">
        <ele>232</ele>
        <time>2011-08-16T12:28:29Z</time>
      </trkpt>
      <trkpt lat="47.01949" lon="5.64088">
        <ele>226</ele>
        <time>2011-08-16T12:28:31Z</time>
      </trkpt>
      <trkpt lat="47.01938" lon="5.64104">
        <ele>226</ele>
        <time>2011-08-16T12:28:33Z</time>
      </trkpt>
      <trkpt lat="47.01927" lon="5.64119">
        <ele>226</ele>
        <time>2011-08-16T12:28:35Z</time>
      </trkpt>
      <trkpt lat="47.01918" lon="5.64135">
        <ele>226</ele>
        <time>2011-08-16T12:28:37Z</time>
      </trkpt>
      <trkpt lat="47.01915" lon="5.64156">
        <ele>226</ele>
        <time>2011-08-16T12:28:39Z</time>
      </trkpt>
      <trkpt lat="47.01916" lon="5.6418">
        <ele>226</ele>
        <time>2011-08-16T12:28:41Z</time>
      </trkpt>
      <trkpt lat="47.01917" lon="5.64204">
        <ele>226</ele>
        <time>2011-08-16T12:28:43Z</time>
      </trkpt>
      <trkpt lat="47.01918" lon="5.64229">
        <ele>226</ele>
        <time>2011-08-16T12:28:45Z</time>
      </trkpt>
      <trkpt lat="47.01918" lon="5.64253">
        <ele>226</ele>
        <time>2011-08-16T12:28:47Z</time>
      </trkpt>
      <trkpt lat="47.01916" lon="5.64277">
        <ele>226</ele>
        <time>2011-08-16T12:28:49Z</time>
      </trkpt>
      <trkpt lat="47.01912" lon="5.64301">
        <ele>226</ele>
        <time>2011-08-16T12:28:51Z</time>
      </trkpt>
      <trkpt lat="47.0191" lon="5.64323">
        <ele>221</ele>
        <time>2011-08-16T12:28:53Z</time>
      </trkpt>
      <trkpt lat="47.01906" lon="5.64343">
        <ele>221</ele>
        <time>2011-08-16T12:28:55Z</time>
      </trkpt>
      <trkpt lat="47.019" lon="5.64363">
        <ele>221</ele>
        <time>2011-08-16T12:28:57Z</time>
      </trkpt>
      <trkpt lat="47.01893" lon="5.64382">
        <ele>221</ele>
        <time>2011-08-16T12:28:59Z</time>
      </trkpt>
      <trkpt lat="47.01887" lon="5.644">
        <ele>221</ele>
        <time>2011-08-16T12:29:01Z</time>
      </trkpt>
      <trkpt lat="47.01881" lon="5.64419">
        <ele>221</ele>
        <time>2011-08-16T12:29:03Z</time>
      </trkpt>
      <trkpt lat="47.01874" lon="5.64438">
        <ele>221</ele>
        <time>2011-08-16T12:29:05Z</time>
      </trkpt>
      <trkpt lat="47.01868" lon="5.64459">
        <ele>221</ele>
        <time>2011-08-16T12:29:07Z</time>
      </trkpt>
      <trkpt lat="47.01864" lon="5.6448">
        <ele>221</ele>
        <time>2011-08-16T12:29:09Z</time>
      </trkpt>
      <trkpt lat="47.01862" lon="5.64502">
        <ele>221</ele>
        <time>2011-08-16T12:29:11Z</time>
      </trkpt>
      <trkpt lat="47.01863" lon="5.64525">
        <ele>221</ele>
        <time>2011-08-16T12:29:13Z</time>
      </trkpt>
      <trkpt lat="47.01865" lon="5.64547">
        <ele>221</ele>
        <time>2011-08-16T12:29:15Z</time>
      </trkpt>
      <trkpt lat="47.01866" lon="5.6457">
        <ele>221</ele>
        <time>2011-08-16T12:29:17Z</time>
      </trkpt>
      <trkpt lat="47.01867" lon="5.64592">
        <ele>221</ele>
        <time>2011-08-16T12:29:19Z</time>
      </trkpt>
      <trkpt lat="47.01866" lon="5.64615">
        <ele>221</ele>
        <time>2011-08-16T12:29:21Z</time>
      </trkpt>
      <trkpt lat="47.01863" lon="5.64637">
        <ele>221</ele>
        <time>2011-08-16T12:29:23Z</time>
      </trkpt>
      <trkpt lat="47.01859" lon="5.64658">
        <ele>221</ele>
        <time>2011-08-16T12:29:25Z</time>
      </trkpt>
      <trkpt lat="47.01854" lon="5.64679">
        <ele>221</ele>
        <time>2011-08-16T12:29:27Z</time>
      </trkpt>
      <trkpt lat="47.01851" lon="5.647">
        <ele>221</ele>
        <time>2011-08-16T12:29:29Z</time>
      </trkpt>
      <trkpt lat="47.0185" lon="5.64721">
        <ele>221</ele>
        <time>2011-08-16T12:29:31Z</time>
      </trkpt>
      <trkpt lat="47.01852" lon="5.64743">
        <ele>221</ele>
        <time>2011-08-16T12:29:33Z</time>
      </trkpt>
      <trkpt lat="47.01855" lon="5.64763">
        <ele>221</ele>
        <time>2011-08-16T12:29:35Z</time>
      </trkpt>
      <trkpt lat="47.0186" lon="5.64783">
        <ele>221</ele>
        <time>2011-08-16T12:29:37Z</time>
      </trkpt>
      <trkpt lat="47.01865" lon="5.64801">
        <ele>221</ele>
        <time>2011-08-16T12:29:39Z</time>
      </trkpt>
      <trkpt lat="47.01871" lon="5.64819">
        <ele>221</ele>
        <time>2011-08-16T12:29:41Z</time>
      </trkpt>
      <trkpt lat="47.01879" lon="5.64836">
        <ele>221</ele>
        <time>2011-08-16T12:29:43Z</time>
      </trkpt>
      <trkpt lat="47.01888" lon="5.64851">
        <ele>221</ele>
        <time>2011-08-16T12:29:45Z</time>
      </trkpt>
      <trkpt lat="47.01898" lon="5.64864">
        <ele>221</ele>
        <time>2011-08-16T12:29:47Z</time>
      </trkpt>
      <trkpt lat="47.01908" lon="5.64876">
        <ele>221</ele>
        <time>2011-08-16T12:29:49Z</time>
      </trkpt>
      <trkpt lat="47.01919" lon="5.64886">
        <ele>221</ele>
        <time>2011-08-16T12:29:51Z</time>
      </trkpt>
      <trkpt lat="47.01931" lon="5.64896">
        <ele>221</ele>
        <time>2011-08-16T12:29:53Z</time>
      </trkpt>
      <trkpt lat="47.01942" lon="5.64906">
        <ele>221</ele>
        <time>2011-08-16T12:29:55Z</time>
      </trkpt>
      <trkpt lat="47.01952" lon="5.64916">
        <ele>221</ele>
        <time>2011-08-16T12:29:57Z</time>
      </trkpt>
      <trkpt lat="47.01963" lon="5.64929">
        <ele>221</ele>
        <time>2011-08-16T12:29:59Z</time>
      </trkpt>
      <trkpt lat="47.01973" lon="5.64943">
        <ele>221</ele>
        <time>2011-08-16T12:30:01Z</time>
      </trkpt>
      <trkpt lat="47.01983" lon="5.64959">
        <ele>221</ele>
        <time>2011-08-16T12:30:03Z</time>
      </trkpt>
      <trkpt lat="47.01992" lon="5.64977">
        <ele>221</ele>
        <time>2011-08-16T12:30:05Z</time>
      </trkpt>
      <trkpt lat="47.01999" lon="5.64995">
        <ele>221</ele>
        <time>2011-08-16T12:30:07Z</time>
      </trkpt>
      <trkpt lat="47.02006" lon="5.65013">
        <ele>221</ele>
        <time>2011-08-16T12:30:09Z</time>
      </trkpt>
      <trkpt lat="47.02011" lon="5.6503">
        <ele>221</ele>
        <time>2011-08-16T12:30:11Z</time>
      </trkpt>
      <trkpt lat="47.02016" lon="5.65049">
        <ele>221</ele>
        <time>2011-08-16T12:30:13Z</time>
      </trkpt>
      <trkpt lat="47.02021" lon="5.65068">
        <ele>221</ele>
        <time>2011-08-16T12:30:15Z</time>
      </trkpt>
      <trkpt lat="47.02024" lon="5.65087">
        <ele>221</ele>
        <time>2011-08-16T12:30:17Z</time>
      </trkpt>
      <trkpt lat="47.02027" lon="5.65106">
        <ele>221</ele>
        <time>2011-08-16T12:30:19Z</time>
      </trkpt>
      <trkpt lat="47.0203" lon="5.65124">
        <ele>221</ele>
        <time>2011-08-16T12:30:21Z</time>
      </trkpt>
      <trkpt lat="47.02032" lon="5.65142">
        <ele>221</ele>
        <time>2011-08-16T12:30:23Z</time>
      </trkpt>
      <trkpt lat="47.02034" lon="5.65161">
        <ele>221</ele>
        <time>2011-08-16T12:30:25Z</time>
      </trkpt>
      <trkpt lat="47.02034" lon="5.6518">
        <ele>221</ele>
        <time>2011-08-16T12:30:27Z</time>
      </trkpt>
      <trkpt lat="47.02034" lon="5.65199">
        <ele>221</ele>
        <time>2011-08-16T12:30:29Z</time>
      </trkpt>
      <trkpt lat="47.02032" lon="5.65218">
        <ele>221</ele>
        <time>2011-08-16T12:30:31Z</time>
      </trkpt>
      <trkpt lat="47.0203" lon="5.65238">
        <ele>221</ele>
        <time>2011-08-16T12:30:33Z</time>
      </trkpt>
      <trkpt lat="47.02026" lon="5.65258">
        <ele>221</ele>
        <time>2011-08-16T12:30:35Z</time>
      </trkpt>
      <trkpt lat="47.02022" lon="5.65278">
        <ele>221</ele>
        <time>2011-08-16T12:30:37Z</time>
      </trkpt>
      <trkpt lat="47.0202" lon="5.65297">
        <ele>221</ele>
        <time>2011-08-16T12:30:39Z</time>
      </trkpt>
      <trkpt lat="47.02018" lon="5.65317">
        <ele>221</ele>
        <time>2011-08-16T12:30:41Z</time>
      </trkpt>
      <trkpt lat="47.02017" lon="5.65337">
        <ele>221</ele>
        <time>2011-08-16T12:30:43Z</time>
      </trkpt>
      <trkpt lat="47.02018" lon="5.65357">
        <ele>221</ele>
        <time>2011-08-16T12:30:45Z</time>
      </trkpt>
      <trkpt lat="47.02021" lon="5.65375">
        <ele>221</ele>
        <time>2011-08-16T12:30:47Z</time>
      </trkpt>
      <trkpt lat="47.02024" lon="5.65394">
        <ele>221</ele>
        <time>2011-08-16T12:30:49Z</time>
      </trkpt>
      <trkpt lat="47.02028" lon="5.65413">
        <ele>221</ele>
        <time>2011-08-16T12:30:51Z</time>
      </trkpt>
      <trkpt lat="47.02033" lon="5.65431">
        <ele>221</ele>
        <time>2011-08-16T12:30:53Z</time>
      </trkpt>
      <trkpt lat="47.02038" lon="5.65451">
        <ele>221</ele>
        <time>2011-08-16T12:30:55Z</time>
      </trkpt>
      <trkpt lat="47.02043" lon="5.6547">
        <ele>221</ele>
        <time>2011-08-16T12:30:57Z</time>
      </trkpt>
      <trkpt lat="47.02048" lon="5.6549">
        <ele>221</ele>
        <time>2011-08-16T12:30:59Z</time>
      </trkpt>
      <trkpt lat="47.02051" lon="5.65509">
        <ele>221</ele>
        <time>2011-08-16T12:31:01Z</time>
      </trkpt>
      <trkpt lat="47.02055" lon="5.65529">
        <ele>221</ele>
        <time>2011-08-16T12:31:03Z</time>
      </trkpt>
      <trkpt lat="47.02058" lon="5.65549">
        <ele>221</ele>
        <time>2011-08-16T12:31:05Z</time>
      </trkpt>
      <trkpt lat="47.02061" lon="5.65569">
        <ele>221</ele>
        <time>2011-08-16T12:31:07Z</time>
      </trkpt>
      <trkpt lat="47.02064" lon="5.65587">
        <ele>221</ele>
        <time>2011-08-16T12:31:09Z</time>
      </trkpt>
      <trkpt lat="47.02067" lon="5.65607">
        <ele>221</ele>
        <time>2011-08-16T12:31:11Z</time>
      </trkpt>
      <trkpt lat="47.02069" lon="5.65627">
        <ele>221</ele>
        <time>2011-08-16T12:31:13Z</time>
      </trkpt>
      <trkpt lat="47.02072" lon="5.65646">
        <ele>221</ele>
        <time>2011-08-16T12:31:15Z</time>
      </trkpt>
      <trkpt lat="47.02074" lon="5.65666">
        <ele>221</ele>
        <time>2011-08-16T12:31:17Z</time>
      </trkpt>
      <trkpt lat="47.02078" lon="5.65684">
        <ele>221</ele>
        <time>2011-08-16T12:31:19Z</time>
      </trkpt>
      <trkpt lat="47.02083" lon="5.65703">
        <ele>221</ele>
        <time>2011-08-16T12:31:21Z</time>
      </trkpt>
      <trkpt lat="47.02088" lon="5.6572">
        <ele>226</ele>
        <time>2011-08-16T12:31:23Z</time>
      </trkpt>
      <trkpt lat="47.02096" lon="5.65736">
        <ele>226</ele>
        <time>2011-08-16T12:31:25Z</time>
      </trkpt>
      <trkpt lat="47.02103" lon="5.65751">
        <ele>226</ele>
        <time>2011-08-16T12:31:27Z</time>
      </trkpt>
      <trkpt lat="47.0211" lon="5.65769">
        <ele>226</ele>
        <time>2011-08-16T12:31:29Z</time>
      </trkpt>
      <trkpt lat="47.02113" lon="5.65789">
        <ele>226</ele>
        <time>2011-08-16T12:31:31Z</time>
      </trkpt>
      <trkpt lat="47.02116" lon="5.65809">
        <ele>226</ele>
        <time>2011-08-16T12:31:33Z</time>
      </trkpt>
      <trkpt lat="47.02118" lon="5.6583">
        <ele>226</ele>
        <time>2011-08-16T12:31:35Z</time>
      </trkpt>
      <trkpt lat="47.02117" lon="5.65852">
        <ele>226</ele>
        <time>2011-08-16T12:31:37Z</time>
      </trkpt>
      <trkpt lat="47.02115" lon="5.65872">
        <ele>226</ele>
        <time>2011-08-16T12:31:39Z</time>
      </trkpt>
      <trkpt lat="47.02113" lon="5.65894">
        <ele>226</ele>
        <time>2011-08-16T12:31:41Z</time>
      </trkpt>
      <trkpt lat="47.02111" lon="5.65915">
        <ele>226</ele>
        <time>2011-08-16T12:31:43Z</time>
      </trkpt>
      <trkpt lat="47.0211" lon="5.65936">
        <ele>226</ele>
        <time>2011-08-16T12:31:45Z</time>
      </trkpt>
      <trkpt lat="47.0211" lon="5.65957">
        <ele>226</ele>
        <time>2011-08-16T12:31:47Z</time>
      </trkpt>
      <trkpt lat="47.02112" lon="5.65976">
        <ele>226</ele>
        <time>2011-08-16T12:31:49Z</time>
      </trkpt>
      <trkpt lat="47.02116" lon="5.65995">
        <ele>226</ele>
        <time>2011-08-16T12:31:51Z</time>
      </trkpt>
      <trkpt lat="47.02121" lon="5.66014">
        <ele>226</ele>
        <time>2011-08-16T12:31:53Z</time>
      </trkpt>
      <trkpt lat="47.02126" lon="5.66032">
        <ele>226</ele>
        <time>2011-08-16T12:31:55Z</time>
      </trkpt>
      <trkpt lat="47.02131" lon="5.6605">
        <ele>226</ele>
        <time>2011-08-16T12:31:57Z</time>
      </trkpt>
      <trkpt lat="47.02135" lon="5.66067">
        <ele>226</ele>
        <time>2011-08-16T12:31:59Z</time>
      </trkpt>
      <trkpt lat="47.0214" lon="5.66085">
        <ele>226</ele>
        <time>2011-08-16T12:32:01Z</time>
      </trkpt>
      <trkpt lat="47.02147" lon="5.66103">
        <ele>226</ele>
        <time>2011-08-16T12:32:03Z</time>
      </trkpt>
      <trkpt lat="47.02153" lon="5.6612">
        <ele>226</ele>
        <time>2011-08-16T12:32:05Z</time>
      </trkpt>
      <trkpt lat="47.02159" lon="5.66136">
        <ele>226</ele>
        <time>2011-08-16T12:32:07Z</time>
      </trkpt>
      <trkpt lat="47.02166" lon="5.66152">
        <ele>226</ele>
        <time>2011-08-16T12:32:09Z</time>
      </trkpt>
      <trkpt lat="47.02172" lon="5.66169">
        <ele>226</ele>
        <time>2011-08-16T12:32:11Z</time>
      </trkpt>
      <trkpt lat="47.02178" lon="5.66185">
        <ele>226</ele>
        <time>2011-08-16T12:32:13Z</time>
      </trkpt>
      <trkpt lat="47.02187" lon="5.66197">
        <ele>226</ele>
        <time>2011-08-16T12:32:15Z</time>
      </trkpt>
      <trkpt lat="47.02198" lon="5.66204">
        <ele>226</ele>
        <time>2011-08-16T12:32:17Z</time>
      </trkpt>
      <trkpt lat="47.0221" lon="5.662">
        <ele>226</ele>
        <time>2011-08-16T12:32:19Z</time>
      </trkpt>
      <trkpt lat="47.02222" lon="5.66191">
        <ele>226</ele>
        <time>2011-08-16T12:32:21Z</time>
      </trkpt>
      <trkpt lat="47.02233" lon="5.66182">
        <ele>226</ele>
        <time>2011-08-16T12:32:23Z</time>
      </trkpt>
      <trkpt lat="47.02244" lon="5.66173">
        <ele>226</ele>
        <time>2011-08-16T12:32:25Z</time>
      </trkpt>
      <trkpt lat="47.02255" lon="5.66167">
        <ele>226</ele>
        <time>2011-08-16T12:32:27Z</time>
      </trkpt>
      <trkpt lat="47.02267" lon="5.66163">
        <ele>226</ele>
        <time>2011-08-16T12:32:29Z</time>
      </trkpt>
      <trkpt lat="47.02279" lon="5.66162">
        <ele>226</ele>
        <time>2011-08-16T12:32:31Z</time>
      </trkpt>
      <trkpt lat="47.0229" lon="5.66164">
        <ele>226</ele>
        <time>2011-08-16T12:32:33Z</time>
      </trkpt>
      <trkpt lat="47.023" lon="5.66164">
        <ele>226</ele>
        <time>2011-08-16T12:32:35Z</time>
      </trkpt>
      <trkpt lat="47.0231" lon="5.66164">
        <ele>226</ele>
        <time>2011-08-16T12:32:37Z</time>
      </trkpt>
      <trkpt lat="47.0232" lon="5.66164">
        <ele>226</ele>
        <time>2011-08-16T12:32:39Z</time>
      </trkpt>
      <trkpt lat="47.02329" lon="5.66164">
        <ele>226</ele>
        <time>2011-08-16T12:32:41Z</time>
      </trkpt>
      <trkpt lat="47.02338" lon="5.66167">
        <ele>232</ele>
        <time>2011-08-16T12:32:43Z</time>
      </trkpt>
      <trkpt lat="47.02347" lon="5.66171">
        <ele>232</ele>
        <time>2011-08-16T12:32:45Z</time>
      </trkpt>
      <trkpt lat="47.02355" lon="5.66179">
        <ele>232</ele>
        <time>2011-08-16T12:32:47Z</time>
      </trkpt>
      <trkpt lat="47.02361" lon="5.66192">
        <ele>232</ele>
        <time>2011-08-16T12:32:49Z</time>
      </trkpt>
      <trkpt lat="47.02365" lon="5.66205">
        <ele>232</ele>
        <time>2011-08-16T12:32:51Z</time>
      </trkpt>
      <trkpt lat="47.02368" lon="5.66219">
        <ele>232</ele>
        <time>2011-08-16T12:32:53Z</time>
      </trkpt>
      <trkpt lat="47.0237" lon="5.66233">
        <ele>238</ele>
        <time>2011-08-16T12:32:55Z</time>
      </trkpt>
      <trkpt lat="47.02372" lon="5.66249">
        <ele>238</ele>
        <time>2011-08-16T12:32:57Z</time>
      </trkpt>
      <trkpt lat="47.02373" lon="5.66265">
        <ele>238</ele>
        <time>2011-08-16T12:32:59Z</time>
      </trkpt>
      <trkpt lat="47.02371" lon="5.6628">
        <ele>238</ele>
        <time>2011-08-16T12:33:01Z</time>
      </trkpt>
      <trkpt lat="47.0237" lon="5.66298">
        <ele>238</ele>
        <time>2011-08-16T12:33:03Z</time>
      </trkpt>
      <trkpt lat="47.02371" lon="5.66315">
        <ele>238</ele>
        <time>2011-08-16T12:33:05Z</time>
      </trkpt>
      <trkpt lat="47.02374" lon="5.66329">
        <ele>238</ele>
        <time>2011-08-16T12:33:07Z</time>
      </trkpt>
      <trkpt lat="47.0238" lon="5.66343">
        <ele>238</ele>
        <time>2011-08-16T12:33:09Z</time>
      </trkpt>
      <trkpt lat="47.02388" lon="5.66354">
        <ele>238</ele>
        <time>2011-08-16T12:33:11Z</time>
      </trkpt>
      <trkpt lat="47.02397" lon="5.66364">
        <ele>238</ele>
        <time>2011-08-16T12:33:13Z</time>
      </trkpt>
      <trkpt lat="47.02403" lon="5.66376">
        <ele>238</ele>
        <time>2011-08-16T12:33:15Z</time>
      </trkpt>
      <trkpt lat="47.0241" lon="5.66387">
        <ele>238</ele>
        <time>2011-08-16T12:33:17Z</time>
      </trkpt>
      <trkpt lat="47.02417" lon="5.66399">
        <ele>243</ele>
        <time>2011-08-16T12:33:19Z</time>
      </trkpt>
      <trkpt lat="47.02422" lon="5.66411">
        <ele>243</ele>
        <time>2011-08-16T12:33:21Z</time>
      </trkpt>
      <trkpt lat="47.02429" lon="5.66424">
        <ele>243</ele>
        <time>2011-08-16T12:33:23Z</time>
      </trkpt>
      <trkpt lat="47.02435" lon="5.66436">
        <ele>243</ele>
        <time>2011-08-16T12:33:25Z</time>
      </trkpt>
      <trkpt lat="47.02443" lon="5.66449">
        <ele>243</ele>
        <time>2011-08-16T12:33:27Z</time>
      </trkpt>
      <trkpt lat="47.0245" lon="5.66461">
        <ele>243</ele>
        <time>2011-08-16T12:33:29Z</time>
      </trkpt>
      <trkpt lat="47.02459" lon="5.66474">
        <ele>243</ele>
        <time>2011-08-16T12:33:31Z</time>
      </trkpt>
      <trkpt lat="47.02467" lon="5.66487">
        <ele>243</ele>
        <time>2011-08-16T12:33:33Z</time>
      </trkpt>
      <trkpt lat="47.02475" lon="5.66499">
        <ele>243</ele>
        <time>2011-08-16T12:33:35Z</time>
      </trkpt>
      <trkpt lat="47.02483" lon="5.66511">
        <ele>243</ele>
        <time>2011-08-16T12:33:37Z</time>
      </trkpt>
      <trkpt lat="47.02492" lon="5.66523">
        <ele>243</ele>
        <time>2011-08-16T12:33:39Z</time>
      </trkpt>
      <trkpt lat="47.025" lon="5.66533">
        <ele>243</ele>
        <time>2011-08-16T12:33:41Z</time>
      </trkpt>
      <trkpt lat="47.02509" lon="5.66546">
        <ele>243</ele>
        <time>2011-08-16T12:33:43Z</time>
      </trkpt>
      <trkpt lat="47.02517" lon="5.66558">
        <ele>243</ele>
        <time>2011-08-16T12:33:45Z</time>
      </trkpt>
      <trkpt lat="47.02525" lon="5.66568">
        <ele>243</ele>
        <time>2011-08-16T12:33:47Z</time>
      </trkpt>
      <trkpt lat="47.02532" lon="5.6658">
        <ele>243</ele>
        <time>2011-08-16T12:33:49Z</time>
      </trkpt>
      <trkpt lat="47.02539" lon="5.66594">
        <ele>243</ele>
        <time>2011-08-16T12:33:51Z</time>
      </trkpt>
      <trkpt lat="47.02546" lon="5.66609">
        <ele>243</ele>
        <time>2011-08-16T12:33:53Z</time>
      </trkpt>
      <trkpt lat="47.02551" lon="5.66626">
        <ele>243</ele>
        <time>2011-08-16T12:33:55Z</time>
      </trkpt>
      <trkpt lat="47.02556" lon="5.66645">
        <ele>243</ele>
        <time>2011-08-16T12:33:57Z</time>
      </trkpt>
      <trkpt lat="47.02561" lon="5.66665">
        <ele>243</ele>
        <time>2011-08-16T12:33:59Z</time>
      </trkpt>
      <trkpt lat="47.02564" lon="5.66685">
        <ele>243</ele>
        <time>2011-08-16T12:34:01Z</time>
      </trkpt>
      <trkpt lat="47.02567" lon="5.66706">
        <ele>243</ele>
        <time>2011-08-16T12:34:03Z</time>
      </trkpt>
      <trkpt lat="47.0257" lon="5.66726">
        <ele>243</ele>
        <time>2011-08-16T12:34:05Z</time>
      </trkpt>
      <trkpt lat="47.02572" lon="5.66746">
        <ele>243</ele>
        <time>2011-08-16T12:34:07Z</time>
      </trkpt>
      <trkpt lat="47.02575" lon="5.66766">
        <ele>243</ele>
        <time>2011-08-16T12:34:09Z</time>
      </trkpt>
      <trkpt lat="47.02577" lon="5.66785">
        <ele>243</ele>
        <time>2011-08-16T12:34:11Z</time>
      </trkpt>
      <trkpt lat="47.0258" lon="5.66804">
        <ele>243</ele>
        <time>2011-08-16T12:34:13Z</time>
      </trkpt>
      <trkpt lat="47.02581" lon="5.66823">
        <ele>243</ele>
        <time>2011-08-16T12:34:15Z</time>
      </trkpt>
      <trkpt lat="47.02584" lon="5.66841">
        <ele>243</ele>
        <time>2011-08-16T12:34:17Z</time>
      </trkpt>
      <trkpt lat="47.02586" lon="5.66859">
        <ele>243</ele>
        <time>2011-08-16T12:34:19Z</time>
      </trkpt>
      <trkpt lat="47.02589" lon="5.66877">
        <ele>243</ele>
        <time>2011-08-16T12:34:21Z</time>
      </trkpt>
      <trkpt lat="47.02591" lon="5.66895">
        <ele>243</ele>
        <time>2011-08-16T12:34:23Z</time>
      </trkpt>
      <trkpt lat="47.02593" lon="5.66913">
        <ele>243</ele>
        <time>2011-08-16T12:34:25Z</time>
      </trkpt>
      <trkpt lat="47.02596" lon="5.66931">
        <ele>243</ele>
        <time>2011-08-16T12:34:27Z</time>
      </trkpt>
      <trkpt lat="47.02598" lon="5.66949">
        <ele>243</ele>
        <time>2011-08-16T12:34:29Z</time>
      </trkpt>
      <trkpt lat="47.02601" lon="5.66966">
        <ele>243</ele>
        <time>2011-08-16T12:34:31Z</time>
      </trkpt>
      <trkpt lat="47.02602" lon="5.66984">
        <ele>243</ele>
        <time>2011-08-16T12:34:33Z</time>
      </trkpt>
      <trkpt lat="47.02605" lon="5.67002">
        <ele>243</ele>
        <time>2011-08-16T12:34:35Z</time>
      </trkpt>
      <trkpt lat="47.02608" lon="5.67021">
        <ele>237</ele>
        <time>2011-08-16T12:34:37Z</time>
      </trkpt>
      <trkpt lat="47.0261" lon="5.67042">
        <ele>237</ele>
        <time>2011-08-16T12:34:39Z</time>
      </trkpt>
      <trkpt lat="47.02613" lon="5.67062">
        <ele>237</ele>
        <time>2011-08-16T12:34:41Z</time>
      </trkpt>
      <trkpt lat="47.02616" lon="5.67083">
        <ele>237</ele>
        <time>2011-08-16T12:34:43Z</time>
      </trkpt>
      <trkpt lat="47.02619" lon="5.67106">
        <ele>237</ele>
        <time>2011-08-16T12:34:45Z</time>
      </trkpt>
      <trkpt lat="47.02621" lon="5.67128">
        <ele>237</ele>
        <time>2011-08-16T12:34:47Z</time>
      </trkpt>
      <trkpt lat="47.02624" lon="5.67151">
        <ele>237</ele>
        <time>2011-08-16T12:34:49Z</time>
      </trkpt>
      <trkpt lat="47.02627" lon="5.67174">
        <ele>237</ele>
        <time>2011-08-16T12:34:51Z</time>
      </trkpt>
      <trkpt lat="47.0263" lon="5.67196">
        <ele>237</ele>
        <time>2011-08-16T12:34:53Z</time>
      </trkpt>
      <trkpt lat="47.02632" lon="5.67218">
        <ele>237</ele>
        <time>2011-08-16T12:34:55Z</time>
      </trkpt>
      <trkpt lat="47.02635" lon="5.67239">
        <ele>237</ele>
        <time>2011-08-16T12:34:57Z</time>
      </trkpt>
      <trkpt lat="47.02637" lon="5.67257">
        <ele>237</ele>
        <time>2011-08-16T12:34:59Z</time>
      </trkpt>
      <trkpt lat="47.0264" lon="5.67275">
        <ele>237</ele>
        <time>2011-08-16T12:35:01Z</time>
      </trkpt>
      <trkpt lat="47.02642" lon="5.67292">
        <ele>237</ele>
        <time>2011-08-16T12:35:03Z</time>
      </trkpt>
      <trkpt lat="47.02644" lon="5.6731">
        <ele>237</ele>
        <time>2011-08-16T12:35:05Z</time>
      </trkpt>
      <trkpt lat="47.02644" lon="5.67327">
        <ele>237</ele>
        <time>2011-08-16T12:35:07Z</time>
      </trkpt>
      <trkpt lat="47.02647" lon="5.67344">
        <ele>237</ele>
        <time>2011-08-16T12:35:09Z</time>
      </trkpt>
      <trkpt lat="47.02648" lon="5.67361">
        <ele>237</ele>
        <time>2011-08-16T12:35:11Z</time>
      </trkpt>
      <trkpt lat="47.0265" lon="5.67377">
        <ele>237</ele>
        <time>2011-08-16T12:35:13Z</time>
      </trkpt>
      <trkpt lat="47.02651" lon="5.67394">
        <ele>237</ele>
        <time>2011-08-16T12:35:15Z</time>
      </trkpt>
      <trkpt lat="47.02653" lon="5.6741">
        <ele>237</ele>
        <time>2011-08-16T12:35:17Z</time>
      </trkpt>
      <trkpt lat="47.02655" lon="5.67426">
        <ele>237</ele>
        <time>2011-08-16T12:35:19Z</time>
      </trkpt>
      <trkpt lat="47.02657" lon="5.67444">
        <ele>237</ele>
        <time>2011-08-16T12:35:21Z</time>
      </trkpt>
      <trkpt lat="47.02659" lon="5.67461">
        <ele>237</ele>
        <time>2011-08-16T12:35:23Z</time>
      </trkpt>
      <trkpt lat="47.02661" lon="5.67479">
        <ele>237</ele>
        <time>2011-08-16T12:35:25Z</time>
      </trkpt>
      <trkpt lat="47.02663" lon="5.67497">
        <ele>237</ele>
        <time>2011-08-16T12:35:27Z</time>
      </trkpt>
      <trkpt lat="47.02666" lon="5.67515">
        <ele>237</ele>
        <time>2011-08-16T12:35:29Z</time>
      </trkpt>
      <trkpt lat="47.02669" lon="5.67533">
        <ele>237</ele>
        <time>2011-08-16T12:35:31Z</time>
      </trkpt>
      <trkpt lat="47.02671" lon="5.67552">
        <ele>237</ele>
        <time>2011-08-16T12:35:33Z</time>
      </trkpt>
      <trkpt lat="47.02674" lon="5.67572">
        <ele>237</ele>
        <time>2011-08-16T12:35:35Z</time>
      </trkpt>
      <trkpt lat="47.02677" lon="5.67592">
        <ele>237</ele>
        <time>2011-08-16T12:35:37Z</time>
      </trkpt>
      <trkpt lat="47.0268" lon="5.67612">
        <ele>237</ele>
        <time>2011-08-16T12:35:39Z</time>
      </trkpt>
      <trkpt lat="47.02683" lon="5.67633">
        <ele>237</ele>
        <time>2011-08-16T12:35:41Z</time>
      </trkpt>
      <trkpt lat="47.02687" lon="5.67654">
        <ele>237</ele>
        <time>2011-08-16T12:35:43Z</time>
      </trkpt>
      <trkpt lat="47.0269" lon="5.67674">
        <ele>237</ele>
        <time>2011-08-16T12:35:45Z</time>
      </trkpt>
      <trkpt lat="47.02693" lon="5.67695">
        <ele>237</ele>
        <time>2011-08-16T12:35:47Z</time>
      </trkpt>
      <trkpt lat="47.02697" lon="5.67716">
        <ele>237</ele>
        <time>2011-08-16T12:35:49Z</time>
      </trkpt>
      <trkpt lat="47.027" lon="5.67735">
        <ele>237</ele>
        <time>2011-08-16T12:35:51Z</time>
      </trkpt>
      <trkpt lat="47.02703" lon="5.67756">
        <ele>237</ele>
        <time>2011-08-16T12:35:53Z</time>
      </trkpt>
      <trkpt lat="47.02705" lon="5.67777">
        <ele>237</ele>
        <time>2011-08-16T12:35:55Z</time>
      </trkpt>
      <trkpt lat="47.02706" lon="5.67796">
        <ele>237</ele>
        <time>2011-08-16T12:35:57Z</time>
      </trkpt>
      <trkpt lat="47.02706" lon="5.67814">
        <ele>237</ele>
        <time>2011-08-16T12:35:59Z</time>
      </trkpt>
      <trkpt lat="47.02706" lon="5.67832">
        <ele>237</ele>
        <time>2011-08-16T12:36:01Z</time>
      </trkpt>
      <trkpt lat="47.02706" lon="5.67849">
        <ele>237</ele>
        <time>2011-08-16T12:36:03Z</time>
      </trkpt>
      <trkpt lat="47.02706" lon="5.67866">
        <ele>237</ele>
        <time>2011-08-16T12:36:05Z</time>
      </trkpt>
      <trkpt lat="47.02706" lon="5.67882">
        <ele>237</ele>
        <time>2011-08-16T12:36:07Z</time>
      </trkpt>
      <trkpt lat="47.02706" lon="5.67898">
        <ele>237</ele>
        <time>2011-08-16T12:36:09Z</time>
      </trkpt>
      <trkpt lat="47.02706" lon="5.67914">
        <ele>237</ele>
        <time>2011-08-16T12:36:11Z</time>
      </trkpt>
      <trkpt lat="47.02706" lon="5.6793">
        <ele>237</ele>
        <time>2011-08-16T12:36:13Z</time>
      </trkpt>
      <trkpt lat="47.02706" lon="5.67947">
        <ele>237</ele>
        <time>2011-08-16T12:36:15Z</time>
      </trkpt>
      <trkpt lat="47.02706" lon="5.67964">
        <ele>237</ele>
        <time>2011-08-16T12:36:17Z</time>
      </trkpt>
      <trkpt lat="47.02706" lon="5.67981">
        <ele>237</ele>
        <time>2011-08-16T12:36:19Z</time>
      </trkpt>
      <trkpt lat="47.02706" lon="5.67999">
        <ele>237</ele>
        <time>2011-08-16T12:36:21Z</time>
      </trkpt>
      <trkpt lat="47.02706" lon="5.68016">
        <ele>237</ele>
        <time>2011-08-16T12:36:23Z</time>
      </trkpt>
      <trkpt lat="47.02706" lon="5.68034">
        <ele>237</ele>
        <time>2011-08-16T12:36:25Z</time>
      </trkpt>
      <trkpt lat="47.02706" lon="5.68051">
        <ele>237</ele>
        <time>2011-08-16T12:36:27Z</time>
      </trkpt>
      <trkpt lat="47.02706" lon="5.68068">
        <ele>237</ele>
        <time>2011-08-16T12:36:29Z</time>
      </trkpt>
      <trkpt lat="47.02706" lon="5.68086">
        <ele>237</ele>
        <time>2011-08-16T12:36:31Z</time>
      </trkpt>
      <trkpt lat="47.02706" lon="5.68104">
        <ele>237</ele>
        <time>2011-08-16T12:36:33Z</time>
      </trkpt>
      <trkpt lat="47.02706" lon="5.68122">
        <ele>237</ele>
        <time>2011-08-16T12:36:35Z</time>
      </trkpt>
      <trkpt lat="47.02706" lon="5.68139">
        <ele>237</ele>
        <time>2011-08-16T12:36:37Z</time>
      </trkpt>
      <trkpt lat="47.02706" lon="5.68155">
        <ele>237</ele>
        <time>2011-08-16T12:36:39Z</time>
      </trkpt>
      <trkpt lat="47.02706" lon="5.68172">
        <ele>237</ele>
        <time>2011-08-16T12:36:41Z</time>
      </trkpt>
      <trkpt lat="47.02706" lon="5.68189">
        <ele>237</ele>
        <time>2011-08-16T12:36:43Z</time>
      </trkpt>
      <trkpt lat="47.02706" lon="5.68206">
        <ele>237</ele>
        <time>2011-08-16T12:36:45Z</time>
      </trkpt>
      <trkpt lat="47.02707" lon="5.68223">
        <ele>237</ele>
        <time>2011-08-16T12:36:47Z</time>
      </trkpt>
      <trkpt lat="47.02707" lon="5.6824">
        <ele>237</ele>
        <time>2011-08-16T12:36:49Z</time>
      </trkpt>
      <trkpt lat="47.02707" lon="5.68256">
        <ele>237</ele>
        <time>2011-08-16T12:36:51Z</time>
      </trkpt>
      <trkpt lat="47.02709" lon="5.68273">
        <ele>237</ele>
        <time>2011-08-16T12:36:53Z</time>
      </trkpt>
      <trkpt lat="47.02711" lon="5.6829">
        <ele>237</ele>
        <time>2011-08-16T12:36:55Z</time>
      </trkpt>
      <trkpt lat="47.02714" lon="5.68307">
        <ele>237</ele>
        <time>2011-08-16T12:36:57Z</time>
      </trkpt>
      <trkpt lat="47.02717" lon="5.68324">
        <ele>237</ele>
        <time>2011-08-16T12:36:59Z</time>
      </trkpt>
      <trkpt lat="47.0272" lon="5.6834">
        <ele>237</ele>
        <time>2011-08-16T12:37:01Z</time>
      </trkpt>
      <trkpt lat="47.02723" lon="5.68357">
        <ele>237</ele>
        <time>2011-08-16T12:37:03Z</time>
      </trkpt>
      <trkpt lat="47.02727" lon="5.68375">
        <ele>237</ele>
        <time>2011-08-16T12:37:05Z</time>
      </trkpt>
      <trkpt lat="47.0273" lon="5.68392">
        <ele>237</ele>
        <time>2011-08-16T12:37:07Z</time>
      </trkpt>
      <trkpt lat="47.02734" lon="5.68409">
        <ele>237</ele>
        <time>2011-08-16T12:37:09Z</time>
      </trkpt>
      <trkpt lat="47.02737" lon="5.68425">
        <ele>237</ele>
        <time>2011-08-16T12:37:11Z</time>
      </trkpt>
      <trkpt lat="47.0274" lon="5.68441">
        <ele>237</ele>
        <time>2011-08-16T12:37:13Z</time>
      </trkpt>
      <trkpt lat="47.02744" lon="5.68458">
        <ele>237</ele>
        <time>2011-08-16T12:37:15Z</time>
      </trkpt>
      <trkpt lat="47.02749" lon="5.68474">
        <ele>237</ele>
        <time>2011-08-16T12:37:17Z</time>
      </trkpt>
      <trkpt lat="47.02754" lon="5.68489">
        <ele>237</ele>
        <time>2011-08-16T12:37:19Z</time>
      </trkpt>
      <trkpt lat="47.02759" lon="5.68504">
        <ele>237</ele>
        <time>2011-08-16T12:37:21Z</time>
      </trkpt>
      <trkpt lat="47.02765" lon="5.68518">
        <ele>237</ele>
        <time>2011-08-16T12:37:23Z</time>
      </trkpt>
      <trkpt lat="47.02771" lon="5.68531">
        <ele>237</ele>
        <time>2011-08-16T12:37:25Z</time>
      </trkpt>
      <trkpt lat="47.02776" lon="5.68546">
        <ele>237</ele>
        <time>2011-08-16T12:37:27Z</time>
      </trkpt>
      <trkpt lat="47.02781" lon="5.68561">
        <ele>237</ele>
        <time>2011-08-16T12:37:29Z</time>
      </trkpt>
      <trkpt lat="47.02784" lon="5.68579">
        <ele>237</ele>
        <time>2011-08-16T12:37:31Z</time>
      </trkpt>
      <trkpt lat="47.02778" lon="5.68596">
        <ele>237</ele>
        <time>2011-08-16T12:37:33Z</time>
      </trkpt>
      <trkpt lat="47.02768" lon="5.68608">
        <ele>237</ele>
        <time>2011-08-16T12:37:35Z</time>
      </trkpt>
      <trkpt lat="47.02756" lon="5.68617">
        <ele>237</ele>
        <time>2011-08-16T12:37:37Z</time>
      </trkpt>
      <trkpt lat="47.02742" lon="5.68626">
        <ele>237</ele>
        <time>2011-08-16T12:37:39Z</time>
      </trkpt>
      <trkpt lat="47.02728" lon="5.68633">
        <ele>237</ele>
        <time>2011-08-16T12:37:41Z</time>
      </trkpt>
      <trkpt lat="47.02714" lon="5.6864">
        <ele>237</ele>
        <time>2011-08-16T12:37:43Z</time>
      </trkpt>
      <trkpt lat="47.02699" lon="5.68649">
        <ele>237</ele>
        <time>2011-08-16T12:37:45Z</time>
      </trkpt>
      <trkpt lat="47.02688" lon="5.68664">
        <ele>237</ele>
        <time>2011-08-16T12:37:47Z</time>
      </trkpt>
      <trkpt lat="47.02686" lon="5.68687">
        <ele>237</ele>
        <time>2011-08-16T12:37:49Z</time>
      </trkpt>
      <trkpt lat="47.02689" lon="5.68708">
        <ele>237</ele>
        <time>2011-08-16T12:37:51Z</time>
      </trkpt>
      <trkpt lat="47.02694" lon="5.68731">
        <ele>232</ele>
        <time>2011-08-16T12:37:53Z</time>
      </trkpt>
      <trkpt lat="47.02697" lon="5.68743">
        <ele>232</ele>
        <time>2011-08-16T12:37:54Z</time>
      </trkpt>
      <trkpt lat="47.02699" lon="5.6877">
        <ele>232</ele>
        <time>2011-08-16T12:37:56Z</time>
      </trkpt>
      <trkpt lat="47.02695" lon="5.68794">
        <ele>232</ele>
        <time>2011-08-16T12:37:58Z</time>
      </trkpt>
      <trkpt lat="47.02685" lon="5.68809">
        <ele>232</ele>
        <time>2011-08-16T12:38:00Z</time>
      </trkpt>
      <trkpt lat="47.02675" lon="5.6881">
        <ele>232</ele>
        <time>2011-08-16T12:38:01Z</time>
      </trkpt>
      <trkpt lat="47.02655" lon="5.68804">
        <ele>232</ele>
        <time>2011-08-16T12:38:03Z</time>
      </trkpt>
      <trkpt lat="47.02644" lon="5.68803">
        <ele>232</ele>
        <time>2011-08-16T12:38:04Z</time>
      </trkpt>
      <trkpt lat="47.02634" lon="5.68801">
        <ele>232</ele>
        <time>2011-08-16T12:38:05Z</time>
      </trkpt>
      <trkpt lat="47.02624" lon="5.68798">
        <ele>232</ele>
        <time>2011-08-16T12:38:06Z</time>
      </trkpt>
      <trkpt lat="47.02615" lon="5.68797">
        <ele>232</ele>
        <time>2011-08-16T12:38:07Z</time>
      </trkpt>
      <trkpt lat="47.02599" lon="5.68794">
        <ele>232</ele>
        <time>2011-08-16T12:38:09Z</time>
      </trkpt>
      <trkpt lat="47.02584" lon="5.68793">
        <ele>232</ele>
        <time>2011-08-16T12:38:11Z</time>
      </trkpt>
      <trkpt lat="47.02569" lon="5.68793">
        <ele>232</ele>
        <time>2011-08-16T12:38:13Z</time>
      </trkpt>
      <trkpt lat="47.02556" lon="5.68795">
        <ele>232</ele>
        <time>2011-08-16T12:38:15Z</time>
      </trkpt>
      <trkpt lat="47.02543" lon="5.68799">
        <ele>232</ele>
        <time>2011-08-16T12:38:17Z</time>
      </trkpt>
      <trkpt lat="47.02531" lon="5.68803">
        <ele>232</ele>
        <time>2011-08-16T12:38:19Z</time>
      </trkpt>
      <trkpt lat="47.02521" lon="5.68809">
        <ele>232</ele>
        <time>2011-08-16T12:38:21Z</time>
      </trkpt>
      <trkpt lat="47.02511" lon="5.68815">
        <ele>232</ele>
        <time>2011-08-16T12:38:23Z</time>
      </trkpt>
      <trkpt lat="47.025" lon="5.68823">
        <ele>232</ele>
        <time>2011-08-16T12:38:25Z</time>
      </trkpt>
      <trkpt lat="47.0249" lon="5.68834">
        <ele>232</ele>
        <time>2011-08-16T12:38:27Z</time>
      </trkpt>
      <trkpt lat="47.0248" lon="5.68848">
        <ele>232</ele>
        <time>2011-08-16T12:38:29Z</time>
      </trkpt>
      <trkpt lat="47.02474" lon="5.68865">
        <ele>232</ele>
        <time>2011-08-16T12:38:31Z</time>
      </trkpt>
      <trkpt lat="47.02472" lon="5.68883">
        <ele>232</ele>
        <time>2011-08-16T12:38:33Z</time>
      </trkpt>
      <trkpt lat="47.02472" lon="5.68901">
        <ele>232</ele>
        <time>2011-08-16T12:38:35Z</time>
      </trkpt>
      <trkpt lat="47.02472" lon="5.68918">
        <ele>232</ele>
        <time>2011-08-16T12:38:37Z</time>
      </trkpt>
      <trkpt lat="47.02473" lon="5.68935">
        <ele>232</ele>
        <time>2011-08-16T12:38:39Z</time>
      </trkpt>
      <trkpt lat="47.02473" lon="5.68952">
        <ele>232</ele>
        <time>2011-08-16T12:38:41Z</time>
      </trkpt>
      <trkpt lat="47.02475" lon="5.68969">
        <ele>232</ele>
        <time>2011-08-16T12:38:43Z</time>
      </trkpt>
      <trkpt lat="47.02476" lon="5.68985">
        <ele>232</ele>
        <time>2011-08-16T12:38:45Z</time>
      </trkpt>
      <trkpt lat="47.02476" lon="5.69002">
        <ele>232</ele>
        <time>2011-08-16T12:38:47Z</time>
      </trkpt>
      <trkpt lat="47.02477" lon="5.69019">
        <ele>232</ele>
        <time>2011-08-16T12:38:49Z</time>
      </trkpt>
      <trkpt lat="47.02478" lon="5.69036">
        <ele>232</ele>
        <time>2011-08-16T12:38:51Z</time>
      </trkpt>
      <trkpt lat="47.02478" lon="5.69053">
        <ele>232</ele>
        <time>2011-08-16T12:38:53Z</time>
      </trkpt>
      <trkpt lat="47.02479" lon="5.69071">
        <ele>232</ele>
        <time>2011-08-16T12:38:55Z</time>
      </trkpt>
      <trkpt lat="47.02479" lon="5.69088">
        <ele>232</ele>
        <time>2011-08-16T12:38:57Z</time>
      </trkpt>
      <trkpt lat="47.02479" lon="5.69105">
        <ele>232</ele>
        <time>2011-08-16T12:38:59Z</time>
      </trkpt>
      <trkpt lat="47.0248" lon="5.69122">
        <ele>232</ele>
        <time>2011-08-16T12:39:01Z</time>
      </trkpt>
      <trkpt lat="47.0248" lon="5.6914">
        <ele>232</ele>
        <time>2011-08-16T12:39:03Z</time>
      </trkpt>
      <trkpt lat="47.02479" lon="5.69157">
        <ele>232</ele>
        <time>2011-08-16T12:39:05Z</time>
      </trkpt>
      <trkpt lat="47.02478" lon="5.69174">
        <ele>232</ele>
        <time>2011-08-16T12:39:07Z</time>
      </trkpt>
      <trkpt lat="47.02478" lon="5.69192">
        <ele>232</ele>
        <time>2011-08-16T12:39:09Z</time>
      </trkpt>
      <trkpt lat="47.02476" lon="5.69209">
        <ele>232</ele>
        <time>2011-08-16T12:39:11Z</time>
      </trkpt>
      <trkpt lat="47.02475" lon="5.69227">
        <ele>232</ele>
        <time>2011-08-16T12:39:13Z</time>
      </trkpt>
      <trkpt lat="47.02474" lon="5.69244">
        <ele>232</ele>
        <time>2011-08-16T12:39:15Z</time>
      </trkpt>
      <trkpt lat="47.02473" lon="5.69262">
        <ele>232</ele>
        <time>2011-08-16T12:39:17Z</time>
      </trkpt>
      <trkpt lat="47.02471" lon="5.69279">
        <ele>232</ele>
        <time>2011-08-16T12:39:19Z</time>
      </trkpt>
      <trkpt lat="47.02468" lon="5.69296">
        <ele>232</ele>
        <time>2011-08-16T12:39:21Z</time>
      </trkpt>
      <trkpt lat="47.02465" lon="5.69313">
        <ele>232</ele>
        <time>2011-08-16T12:39:23Z</time>
      </trkpt>
      <trkpt lat="47.02462" lon="5.69329">
        <ele>232</ele>
        <time>2011-08-16T12:39:25Z</time>
      </trkpt>
      <trkpt lat="47.02459" lon="5.69345">
        <ele>232</ele>
        <time>2011-08-16T12:39:27Z</time>
      </trkpt>
      <trkpt lat="47.02455" lon="5.69361">
        <ele>232</ele>
        <time>2011-08-16T12:39:29Z</time>
      </trkpt>
      <trkpt lat="47.02451" lon="5.69377">
        <ele>232</ele>
        <time>2011-08-16T12:39:31Z</time>
      </trkpt>
      <trkpt lat="47.02447" lon="5.69394">
        <ele>232</ele>
        <time>2011-08-16T12:39:33Z</time>
      </trkpt>
      <trkpt lat="47.02443" lon="5.6941">
        <ele>232</ele>
        <time>2011-08-16T12:39:35Z</time>
      </trkpt>
      <trkpt lat="47.02439" lon="5.69426">
        <ele>232</ele>
        <time>2011-08-16T12:39:37Z</time>
      </trkpt>
      <trkpt lat="47.02435" lon="5.69442">
        <ele>232</ele>
        <time>2011-08-16T12:39:39Z</time>
      </trkpt>
      <trkpt lat="47.02432" lon="5.69457">
        <ele>232</ele>
        <time>2011-08-16T12:39:41Z</time>
      </trkpt>
      <trkpt lat="47.02428" lon="5.69472">
        <ele>232</ele>
        <time>2011-08-16T12:39:43Z</time>
      </trkpt>
      <trkpt lat="47.02424" lon="5.69486">
        <ele>232</ele>
        <time>2011-08-16T12:39:45Z</time>
      </trkpt>
      <trkpt lat="47.02421" lon="5.69502">
        <ele>232</ele>
        <time>2011-08-16T12:39:47Z</time>
      </trkpt>
      <trkpt lat="47.02416" lon="5.69518">
        <ele>232</ele>
        <time>2011-08-16T12:39:49Z</time>
      </trkpt>
      <trkpt lat="47.02411" lon="5.69535">
        <ele>232</ele>
        <time>2011-08-16T12:39:51Z</time>
      </trkpt>
      <trkpt lat="47.02405" lon="5.6955">
        <ele>232</ele>
        <time>2011-08-16T12:39:53Z</time>
      </trkpt>
      <trkpt lat="47.02399" lon="5.69566">
        <ele>232</ele>
        <time>2011-08-16T12:39:55Z</time>
      </trkpt>
      <trkpt lat="47.02393" lon="5.69581">
        <ele>232</ele>
        <time>2011-08-16T12:39:57Z</time>
      </trkpt>
      <trkpt lat="47.02387" lon="5.69597">
        <ele>232</ele>
        <time>2011-08-16T12:39:59Z</time>
      </trkpt>
      <trkpt lat="47.02381" lon="5.69613">
        <ele>232</ele>
        <time>2011-08-16T12:40:01Z</time>
      </trkpt>
      <trkpt lat="47.02376" lon="5.69629">
        <ele>232</ele>
        <time>2011-08-16T12:40:03Z</time>
      </trkpt>
      <trkpt lat="47.0237" lon="5.69645">
        <ele>232</ele>
        <time>2011-08-16T12:40:05Z</time>
      </trkpt>
      <trkpt lat="47.02365" lon="5.69663">
        <ele>232</ele>
        <time>2011-08-16T12:40:07Z</time>
      </trkpt>
      <trkpt lat="47.02361" lon="5.6968">
        <ele>232</ele>
        <time>2011-08-16T12:40:09Z</time>
      </trkpt>
      <trkpt lat="47.02358" lon="5.69698">
        <ele>232</ele>
        <time>2011-08-16T12:40:11Z</time>
      </trkpt>
      <trkpt lat="47.02355" lon="5.69716">
        <ele>232</ele>
        <time>2011-08-16T12:40:13Z</time>
      </trkpt>
      <trkpt lat="47.02354" lon="5.69734">
        <ele>232</ele>
        <time>2011-08-16T12:40:15Z</time>
      </trkpt>
      <trkpt lat="47.02352" lon="5.69753">
        <ele>232</ele>
        <time>2011-08-16T12:40:17Z</time>
      </trkpt>
      <trkpt lat="47.0235" lon="5.69771">
        <ele>232</ele>
        <time>2011-08-16T12:40:19Z</time>
      </trkpt>
      <trkpt lat="47.02349" lon="5.69789">
        <ele>232</ele>
        <time>2011-08-16T12:40:21Z</time>
      </trkpt>
      <trkpt lat="47.02347" lon="5.69807">
        <ele>232</ele>
        <time>2011-08-16T12:40:23Z</time>
      </trkpt>
      <trkpt lat="47.02346" lon="5.69825">
        <ele>232</ele>
        <time>2011-08-16T12:40:25Z</time>
      </trkpt>
      <trkpt lat="47.02345" lon="5.69843">
        <ele>232</ele>
        <time>2011-08-16T12:40:27Z</time>
      </trkpt>
      <trkpt lat="47.02344" lon="5.69862">
        <ele>232</ele>
        <time>2011-08-16T12:40:29Z</time>
      </trkpt>
      <trkpt lat="47.02342" lon="5.6988">
        <ele>232</ele>
        <time>2011-08-16T12:40:31Z</time>
      </trkpt>
      <trkpt lat="47.02341" lon="5.69898">
        <ele>232</ele>
        <time>2011-08-16T12:40:33Z</time>
      </trkpt>
      <trkpt lat="47.02339" lon="5.69915">
        <ele>232</ele>
        <time>2011-08-16T12:40:35Z</time>
      </trkpt>
      <trkpt lat="47.02336" lon="5.69933">
        <ele>232</ele>
        <time>2011-08-16T12:40:37Z</time>
      </trkpt>
      <trkpt lat="47.02333" lon="5.69951">
        <ele>232</ele>
        <time>2011-08-16T12:40:39Z</time>
      </trkpt>
      <trkpt lat="47.02329" lon="5.69969">
        <ele>232</ele>
        <time>2011-08-16T12:40:41Z</time>
      </trkpt>
      <trkpt lat="47.02326" lon="5.69987">
        <ele>232</ele>
        <time>2011-08-16T12:40:43Z</time>
      </trkpt>
      <trkpt lat="47.02322" lon="5.70006">
        <ele>232</ele>
        <time>2011-08-16T12:40:45Z</time>
      </trkpt>
      <trkpt lat="47.02317" lon="5.70024">
        <ele>232</ele>
        <time>2011-08-16T12:40:47Z</time>
      </trkpt>
      <trkpt lat="47.02314" lon="5.70043">
        <ele>232</ele>
        <time>2011-08-16T12:40:49Z</time>
      </trkpt>
      <trkpt lat="47.02309" lon="5.70062">
        <ele>232</ele>
        <time>2011-08-16T12:40:51Z</time>
      </trkpt>
      <trkpt lat="47.02305" lon="5.70081">
        <ele>232</ele>
        <time>2011-08-16T12:40:53Z</time>
      </trkpt>
      <trkpt lat="47.02301" lon="5.701">
        <ele>232</ele>
        <time>2011-08-16T12:40:55Z</time>
      </trkpt>
      <trkpt lat="47.02296" lon="5.70119">
        <ele>232</ele>
        <time>2011-08-16T12:40:57Z</time>
      </trkpt>
      <trkpt lat="47.02293" lon="5.70137">
        <ele>232</ele>
        <time>2011-08-16T12:40:59Z</time>
      </trkpt>
      <trkpt lat="47.02288" lon="5.70156">
        <ele>232</ele>
        <time>2011-08-16T12:41:01Z</time>
      </trkpt>
      <trkpt lat="47.02285" lon="5.70175">
        <ele>232</ele>
        <time>2011-08-16T12:41:03Z</time>
      </trkpt>
      <trkpt lat="47.0228" lon="5.70194">
        <ele>232</ele>
        <time>2011-08-16T12:41:05Z</time>
      </trkpt>
      <trkpt lat="47.02277" lon="5.70214">
        <ele>232</ele>
        <time>2011-08-16T12:41:07Z</time>
      </trkpt>
      <trkpt lat="47.02272" lon="5.70233">
        <ele>232</ele>
        <time>2011-08-16T12:41:09Z</time>
      </trkpt>
      <trkpt lat="47.02269" lon="5.70251">
        <ele>232</ele>
        <time>2011-08-16T12:41:11Z</time>
      </trkpt>
      <trkpt lat="47.02266" lon="5.7027">
        <ele>232</ele>
        <time>2011-08-16T12:41:13Z</time>
      </trkpt>
      <trkpt lat="47.02263" lon="5.70289">
        <ele>232</ele>
        <time>2011-08-16T12:41:15Z</time>
      </trkpt>
      <trkpt lat="47.0226" lon="5.70308">
        <ele>232</ele>
        <time>2011-08-16T12:41:17Z</time>
      </trkpt>
      <trkpt lat="47.02257" lon="5.70327">
        <ele>232</ele>
        <time>2011-08-16T12:41:19Z</time>
      </trkpt>
      <trkpt lat="47.02255" lon="5.70346">
        <ele>232</ele>
        <time>2011-08-16T12:41:21Z</time>
      </trkpt>
      <trkpt lat="47.02254" lon="5.70366">
        <ele>232</ele>
        <time>2011-08-16T12:41:23Z</time>
      </trkpt>
      <trkpt lat="47.02253" lon="5.70385">
        <ele>232</ele>
        <time>2011-08-16T12:41:25Z</time>
      </trkpt>
      <trkpt lat="47.02253" lon="5.70405">
        <ele>232</ele>
        <time>2011-08-16T12:41:27Z</time>
      </trkpt>
      <trkpt lat="47.02252" lon="5.70425">
        <ele>232</ele>
        <time>2011-08-16T12:41:29Z</time>
      </trkpt>
      <trkpt lat="47.02252" lon="5.70445">
        <ele>232</ele>
        <time>2011-08-16T12:41:31Z</time>
      </trkpt>
      <trkpt lat="47.02252" lon="5.70464">
        <ele>232</ele>
        <time>2011-08-16T12:41:33Z</time>
      </trkpt>
      <trkpt lat="47.02253" lon="5.70484">
        <ele>232</ele>
        <time>2011-08-16T12:41:35Z</time>
      </trkpt>
      <trkpt lat="47.02253" lon="5.70503">
        <ele>232</ele>
        <time>2011-08-16T12:41:37Z</time>
      </trkpt>
      <trkpt lat="47.02253" lon="5.70523">
        <ele>232</ele>
        <time>2011-08-16T12:41:39Z</time>
      </trkpt>
      <trkpt lat="47.02255" lon="5.70543">
        <ele>232</ele>
        <time>2011-08-16T12:41:41Z</time>
      </trkpt>
      <trkpt lat="47.02255" lon="5.70562">
        <ele>232</ele>
        <time>2011-08-16T12:41:43Z</time>
      </trkpt>
      <trkpt lat="47.02255" lon="5.70582">
        <ele>232</ele>
        <time>2011-08-16T12:41:45Z</time>
      </trkpt>
      <trkpt lat="47.02256" lon="5.70602">
        <ele>232</ele>
        <time>2011-08-16T12:41:47Z</time>
      </trkpt>
      <trkpt lat="47.02256" lon="5.70622">
        <ele>232</ele>
        <time>2011-08-16T12:41:49Z</time>
      </trkpt>
      <trkpt lat="47.02255" lon="5.70641">
        <ele>232</ele>
        <time>2011-08-16T12:41:51Z</time>
      </trkpt>
      <trkpt lat="47.02253" lon="5.7066">
        <ele>232</ele>
        <time>2011-08-16T12:41:53Z</time>
      </trkpt>
      <trkpt lat="47.02252" lon="5.7068">
        <ele>232</ele>
        <time>2011-08-16T12:41:55Z</time>
      </trkpt>
      <trkpt lat="47.02249" lon="5.707">
        <ele>232</ele>
        <time>2011-08-16T12:41:57Z</time>
      </trkpt>
      <trkpt lat="47.02246" lon="5.7072">
        <ele>232</ele>
        <time>2011-08-16T12:41:59Z</time>
      </trkpt>
      <trkpt lat="47.02243" lon="5.7074">
        <ele>232</ele>
        <time>2011-08-16T12:42:01Z</time>
      </trkpt>
      <trkpt lat="47.0224" lon="5.70762">
        <ele>232</ele>
        <time>2011-08-16T12:42:03Z</time>
      </trkpt>
      <trkpt lat="47.02237" lon="5.70785">
        <ele>232</ele>
        <time>2011-08-16T12:42:05Z</time>
      </trkpt>
      <trkpt lat="47.02235" lon="5.70809">
        <ele>232</ele>
        <time>2011-08-16T12:42:07Z</time>
      </trkpt>
      <trkpt lat="47.02233" lon="5.70835">
        <ele>232</ele>
        <time>2011-08-16T12:42:09Z</time>
      </trkpt>
      <trkpt lat="47.02232" lon="5.70861">
        <ele>232</ele>
        <time>2011-08-16T12:42:11Z</time>
      </trkpt>
      <trkpt lat="47.02231" lon="5.70876">
        <ele>232</ele>
        <time>2011-08-16T12:42:12Z</time>
      </trkpt>
      <trkpt lat="47.02228" lon="5.70889">
        <ele>232</ele>
        <time>2011-08-16T12:42:13Z</time>
      </trkpt>
      <trkpt lat="47.02226" lon="5.70903">
        <ele>232</ele>
        <time>2011-08-16T12:42:14Z</time>
      </trkpt>
      <trkpt lat="47.02221" lon="5.70916">
        <ele>232</ele>
        <time>2011-08-16T12:42:15Z</time>
      </trkpt>
      <trkpt lat="47.02217" lon="5.70929">
        <ele>232</ele>
        <time>2011-08-16T12:42:16Z</time>
      </trkpt>
      <trkpt lat="47.02211" lon="5.7094">
        <ele>232</ele>
        <time>2011-08-16T12:42:17Z</time>
      </trkpt>
      <trkpt lat="47.02205" lon="5.70951">
        <ele>232</ele>
        <time>2011-08-16T12:42:18Z</time>
      </trkpt>
      <trkpt lat="47.02199" lon="5.70963">
        <ele>232</ele>
        <time>2011-08-16T12:42:19Z</time>
      </trkpt>
      <trkpt lat="47.02193" lon="5.70975">
        <ele>232</ele>
        <time>2011-08-16T12:42:20Z</time>
      </trkpt>
      <trkpt lat="47.02186" lon="5.70986">
        <ele>232</ele>
        <time>2011-08-16T12:42:21Z</time>
      </trkpt>
      <trkpt lat="47.0218" lon="5.70998">
        <ele>232</ele>
        <time>2011-08-16T12:42:22Z</time>
      </trkpt>
      <trkpt lat="47.02173" lon="5.7101">
        <ele>232</ele>
        <time>2011-08-16T12:42:23Z</time>
      </trkpt>
      <trkpt lat="47.02166" lon="5.7102">
        <ele>232</ele>
        <time>2011-08-16T12:42:24Z</time>
      </trkpt>
      <trkpt lat="47.02159" lon="5.71032">
        <ele>232</ele>
        <time>2011-08-16T12:42:25Z</time>
      </trkpt>
      <trkpt lat="47.02153" lon="5.71043">
        <ele>232</ele>
        <time>2011-08-16T12:42:26Z</time>
      </trkpt>
      <trkpt lat="47.02147" lon="5.71055">
        <ele>232</ele>
        <time>2011-08-16T12:42:27Z</time>
      </trkpt>
      <trkpt lat="47.02141" lon="5.71065">
        <ele>232</ele>
        <time>2011-08-16T12:42:28Z</time>
      </trkpt>
      <trkpt lat="47.02136" lon="5.71078">
        <ele>232</ele>
        <time>2011-08-16T12:42:29Z</time>
      </trkpt>
      <trkpt lat="47.02132" lon="5.71091">
        <ele>232</ele>
        <time>2011-08-16T12:42:30Z</time>
      </trkpt>
      <trkpt lat="47.0213" lon="5.71103">
        <ele>232</ele>
        <time>2011-08-16T12:42:31Z</time>
      </trkpt>
      <trkpt lat="47.02129" lon="5.71129">
        <ele>232</ele>
        <time>2011-08-16T12:42:33Z</time>
      </trkpt>
      <trkpt lat="47.02129" lon="5.71154">
        <ele>232</ele>
        <time>2011-08-16T12:42:35Z</time>
      </trkpt>
      <trkpt lat="47.0213" lon="5.71179">
        <ele>232</ele>
        <time>2011-08-16T12:42:37Z</time>
      </trkpt>
      <trkpt lat="47.02131" lon="5.71202">
        <ele>232</ele>
        <time>2011-08-16T12:42:39Z</time>
      </trkpt>
      <trkpt lat="47.02131" lon="5.71223">
        <ele>232</ele>
        <time>2011-08-16T12:42:41Z</time>
      </trkpt>
      <trkpt lat="47.02131" lon="5.71245">
        <ele>232</ele>
        <time>2011-08-16T12:42:43Z</time>
      </trkpt>
      <trkpt lat="47.02131" lon="5.71266">
        <ele>232</ele>
        <time>2011-08-16T12:42:45Z</time>
      </trkpt>
      <trkpt lat="47.02132" lon="5.71285">
        <ele>232</ele>
        <time>2011-08-16T12:42:47Z</time>
      </trkpt>
      <trkpt lat="47.02133" lon="5.71304">
        <ele>232</ele>
        <time>2011-08-16T12:42:49Z</time>
      </trkpt>
      <trkpt lat="47.02135" lon="5.71322">
        <ele>232</ele>
        <time>2011-08-16T12:42:51Z</time>
      </trkpt>
      <trkpt lat="47.0214" lon="5.71338">
        <ele>232</ele>
        <time>2011-08-16T12:42:53Z</time>
      </trkpt>
      <trkpt lat="47.02146" lon="5.71355">
        <ele>232</ele>
        <time>2011-08-16T12:42:55Z</time>
      </trkpt>
      <trkpt lat="47.02152" lon="5.7137">
        <ele>232</ele>
        <time>2011-08-16T12:42:57Z</time>
      </trkpt>
      <trkpt lat="47.02159" lon="5.71385">
        <ele>232</ele>
        <time>2011-08-16T12:42:59Z</time>
      </trkpt>
      <trkpt lat="47.02166" lon="5.714">
        <ele>232</ele>
        <time>2011-08-16T12:43:01Z</time>
      </trkpt>
      <trkpt lat="47.02173" lon="5.71416">
        <ele>232</ele>
        <time>2011-08-16T12:43:03Z</time>
      </trkpt>
      <trkpt lat="47.0218" lon="5.71432">
        <ele>232</ele>
        <time>2011-08-16T12:43:05Z</time>
      </trkpt>
      <trkpt lat="47.02185" lon="5.71448">
        <ele>232</ele>
        <time>2011-08-16T12:43:07Z</time>
      </trkpt>
      <trkpt lat="47.02189" lon="5.71466">
        <ele>232</ele>
        <time>2011-08-16T12:43:09Z</time>
      </trkpt>
      <trkpt lat="47.0219" lon="5.71484">
        <ele>232</ele>
        <time>2011-08-16T12:43:11Z</time>
      </trkpt>
      <trkpt lat="47.0219" lon="5.71501">
        <ele>232</ele>
        <time>2011-08-16T12:43:13Z</time>
      </trkpt>
      <trkpt lat="47.02187" lon="5.71518">
        <ele>232</ele>
        <time>2011-08-16T12:43:15Z</time>
      </trkpt>
      <trkpt lat="47.02184" lon="5.71533">
        <ele>232</ele>
        <time>2011-08-16T12:43:17Z</time>
      </trkpt>
      <trkpt lat="47.02181" lon="5.7155">
        <ele>232</ele>
        <time>2011-08-16T12:43:19Z</time>
      </trkpt>
      <trkpt lat="47.02178" lon="5.71565">
        <ele>232</ele>
        <time>2011-08-16T12:43:21Z</time>
      </trkpt>
      <trkpt lat="47.02175" lon="5.71581">
        <ele>232</ele>
        <time>2011-08-16T12:43:23Z</time>
      </trkpt>
      <trkpt lat="47.02172" lon="5.71595">
        <ele>232</ele>
        <time>2011-08-16T12:43:25Z</time>
      </trkpt>
      <trkpt lat="47.02169" lon="5.7161">
        <ele>232</ele>
        <time>2011-08-16T12:43:27Z</time>
      </trkpt>
      <trkpt lat="47.02166" lon="5.71624">
        <ele>232</ele>
        <time>2011-08-16T12:43:29Z</time>
      </trkpt>
      <trkpt lat="47.02163" lon="5.71638">
        <ele>232</ele>
        <time>2011-08-16T12:43:31Z</time>
      </trkpt>
      <trkpt lat="47.02161" lon="5.71654">
        <ele>232</ele>
        <time>2011-08-16T12:43:33Z</time>
      </trkpt>
      <trkpt lat="47.02158" lon="5.71668">
        <ele>232</ele>
        <time>2011-08-16T12:43:35Z</time>
      </trkpt>
      <trkpt lat="47.02156" lon="5.71682">
        <ele>232</ele>
        <time>2011-08-16T12:43:37Z</time>
      </trkpt>
      <trkpt lat="47.02155" lon="5.71696">
        <ele>232</ele>
        <time>2011-08-16T12:43:39Z</time>
      </trkpt>
      <trkpt lat="47.02153" lon="5.71711">
        <ele>232</ele>
        <time>2011-08-16T12:43:41Z</time>
      </trkpt>
      <trkpt lat="47.0215" lon="5.71727">
        <ele>232</ele>
        <time>2011-08-16T12:43:43Z</time>
      </trkpt>
      <trkpt lat="47.02142" lon="5.71737">
        <ele>232</ele>
        <time>2011-08-16T12:43:45Z</time>
      </trkpt>
      <trkpt lat="47.02132" lon="5.71744">
        <ele>232</ele>
        <time>2011-08-16T12:43:47Z</time>
      </trkpt>
      <trkpt lat="47.02121" lon="5.71745">
        <ele>232</ele>
        <time>2011-08-16T12:43:49Z</time>
      </trkpt>
      <trkpt lat="47.0211" lon="5.71745">
        <ele>232</ele>
        <time>2011-08-16T12:43:51Z</time>
      </trkpt>
      <trkpt lat="47.02098" lon="5.71745">
        <ele>232</ele>
        <time>2011-08-16T12:43:53Z</time>
      </trkpt>
      <trkpt lat="47.02086" lon="5.71749">
        <ele>232</ele>
        <time>2011-08-16T12:43:55Z</time>
      </trkpt>
      <trkpt lat="47.02077" lon="5.71761">
        <ele>232</ele>
        <time>2011-08-16T12:43:57Z</time>
      </trkpt>
      <trkpt lat="47.02075" lon="5.71777">
        <ele>232</ele>
        <time>2011-08-16T12:43:59Z</time>
      </trkpt>
      <trkpt lat="47.02078" lon="5.71794">
        <ele>232</ele>
        <time>2011-08-16T12:44:01Z</time>
      </trkpt>
      <trkpt lat="47.0208" lon="5.71809">
        <ele>232</ele>
        <time>2011-08-16T12:44:03Z</time>
      </trkpt>
      <trkpt lat="47.02083" lon="5.71824">
        <ele>232</ele>
        <time>2011-08-16T12:44:05Z</time>
      </trkpt>
      <trkpt lat="47.02086" lon="5.71841">
        <ele>232</ele>
        <time>2011-08-16T12:44:07Z</time>
      </trkpt>
      <trkpt lat="47.02091" lon="5.71855">
        <ele>232</ele>
        <time>2011-08-16T12:44:09Z</time>
      </trkpt>
      <trkpt lat="47.02095" lon="5.7187">
        <ele>232</ele>
        <time>2011-08-16T12:44:11Z</time>
      </trkpt>
      <trkpt lat="47.02099" lon="5.71886">
        <ele>232</ele>
        <time>2011-08-16T12:44:13Z</time>
      </trkpt>
      <trkpt lat="47.02104" lon="5.719">
        <ele>232</ele>
        <time>2011-08-16T12:44:15Z</time>
      </trkpt>
      <trkpt lat="47.02108" lon="5.71914">
        <ele>232</ele>
        <time>2011-08-16T12:44:17Z</time>
      </trkpt>
      <trkpt lat="47.02113" lon="5.7193">
        <ele>232</ele>
        <time>2011-08-16T12:44:19Z</time>
      </trkpt>
      <trkpt lat="47.02117" lon="5.71944">
        <ele>232</ele>
        <time>2011-08-16T12:44:21Z</time>
      </trkpt>
      <trkpt lat="47.02122" lon="5.71959">
        <ele>232</ele>
        <time>2011-08-16T12:44:23Z</time>
      </trkpt>
      <trkpt lat="47.02126" lon="5.71974">
        <ele>232</ele>
        <time>2011-08-16T12:44:25Z</time>
      </trkpt>
      <trkpt lat="47.02131" lon="5.7199">
        <ele>232</ele>
        <time>2011-08-16T12:44:27Z</time>
      </trkpt>
      <trkpt lat="47.02135" lon="5.72004">
        <ele>232</ele>
        <time>2011-08-16T12:44:29Z</time>
      </trkpt>
      <trkpt lat="47.02139" lon="5.72018">
        <ele>232</ele>
        <time>2011-08-16T12:44:31Z</time>
      </trkpt>
      <trkpt lat="47.02143" lon="5.72033">
        <ele>232</ele>
        <time>2011-08-16T12:44:33Z</time>
      </trkpt>
      <trkpt lat="47.02148" lon="5.72046">
        <ele>232</ele>
        <time>2011-08-16T12:44:35Z</time>
      </trkpt>
      <trkpt lat="47.02151" lon="5.72062">
        <ele>232</ele>
        <time>2011-08-16T12:44:37Z</time>
      </trkpt>
      <trkpt lat="47.02154" lon="5.72076">
        <ele>232</ele>
        <time>2011-08-16T12:44:39Z</time>
      </trkpt>
      <trkpt lat="47.02156" lon="5.72091">
        <ele>232</ele>
        <time>2011-08-16T12:44:41Z</time>
      </trkpt>
      <trkpt lat="47.02158" lon="5.72107">
        <ele>232</ele>
        <time>2011-08-16T12:44:43Z</time>
      </trkpt>
      <trkpt lat="47.02161" lon="5.72124">
        <ele>232</ele>
        <time>2011-08-16T12:44:45Z</time>
      </trkpt>
      <trkpt lat="47.02162" lon="5.72139">
        <ele>232</ele>
        <time>2011-08-16T12:44:47Z</time>
      </trkpt>
      <trkpt lat="47.02164" lon="5.72155">
        <ele>232</ele>
        <time>2011-08-16T12:44:49Z</time>
      </trkpt>
      <trkpt lat="47.02166" lon="5.7217">
        <ele>232</ele>
        <time>2011-08-16T12:44:51Z</time>
      </trkpt>
      <trkpt lat="47.02169" lon="5.72186">
        <ele>232</ele>
        <time>2011-08-16T12:44:53Z</time>
      </trkpt>
      <trkpt lat="47.02174" lon="5.722">
        <ele>232</ele>
        <time>2011-08-16T12:44:55Z</time>
      </trkpt>
      <trkpt lat="47.02179" lon="5.72215">
        <ele>232</ele>
        <time>2011-08-16T12:44:57Z</time>
      </trkpt>
      <trkpt lat="47.02185" lon="5.72228">
        <ele>232</ele>
        <time>2011-08-16T12:44:59Z</time>
      </trkpt>
      <trkpt lat="47.0219" lon="5.7224">
        <ele>232</ele>
        <time>2011-08-16T12:45:01Z</time>
      </trkpt>
      <trkpt lat="47.02194" lon="5.72254">
        <ele>232</ele>
        <time>2011-08-16T12:45:03Z</time>
      </trkpt>
      <trkpt lat="47.022" lon="5.72267">
        <ele>232</ele>
        <time>2011-08-16T12:45:05Z</time>
      </trkpt>
      <trkpt lat="47.02206" lon="5.72281">
        <ele>232</ele>
        <time>2011-08-16T12:45:07Z</time>
      </trkpt>
      <trkpt lat="47.02212" lon="5.72295">
        <ele>232</ele>
        <time>2011-08-16T12:45:09Z</time>
      </trkpt>
      <trkpt lat="47.02218" lon="5.7231">
        <ele>232</ele>
        <time>2011-08-16T12:45:11Z</time>
      </trkpt>
      <trkpt lat="47.02224" lon="5.72323">
        <ele>232</ele>
        <time>2011-08-16T12:45:13Z</time>
      </trkpt>
      <trkpt lat="47.0223" lon="5.72337">
        <ele>232</ele>
        <time>2011-08-16T12:45:15Z</time>
      </trkpt>
      <trkpt lat="47.02236" lon="5.72352">
        <ele>232</ele>
        <time>2011-08-16T12:45:17Z</time>
      </trkpt>
      <trkpt lat="47.02242" lon="5.72366">
        <ele>232</ele>
        <time>2011-08-16T12:45:19Z</time>
      </trkpt>
      <trkpt lat="47.02247" lon="5.7238">
        <ele>232</ele>
        <time>2011-08-16T12:45:21Z</time>
      </trkpt>
      <trkpt lat="47.02253" lon="5.72394">
        <ele>232</ele>
        <time>2011-08-16T12:45:23Z</time>
      </trkpt>
      <trkpt lat="47.02259" lon="5.72407">
        <ele>232</ele>
        <time>2011-08-16T12:45:25Z</time>
      </trkpt>
      <trkpt lat="47.02265" lon="5.7242">
        <ele>232</ele>
        <time>2011-08-16T12:45:27Z</time>
      </trkpt>
      <trkpt lat="47.02271" lon="5.72433">
        <ele>232</ele>
        <time>2011-08-16T12:45:29Z</time>
      </trkpt>
      <trkpt lat="47.02276" lon="5.72447">
        <ele>232</ele>
        <time>2011-08-16T12:45:31Z</time>
      </trkpt>
      <trkpt lat="47.02282" lon="5.7246">
        <ele>232</ele>
        <time>2011-08-16T12:45:33Z</time>
      </trkpt>
      <trkpt lat="47.02288" lon="5.72472">
        <ele>232</ele>
        <time>2011-08-16T12:45:35Z</time>
      </trkpt>
      <trkpt lat="47.02295" lon="5.72486">
        <ele>232</ele>
        <time>2011-08-16T12:45:37Z</time>
      </trkpt>
      <trkpt lat="47.02301" lon="5.72499">
        <ele>232</ele>
        <time>2011-08-16T12:45:39Z</time>
      </trkpt>
      <trkpt lat="47.02307" lon="5.72512">
        <ele>232</ele>
        <time>2011-08-16T12:45:41Z</time>
      </trkpt>
      <trkpt lat="47.02313" lon="5.72524">
        <ele>232</ele>
        <time>2011-08-16T12:45:43Z</time>
      </trkpt>
      <trkpt lat="47.02319" lon="5.72537">
        <ele>232</ele>
        <time>2011-08-16T12:45:45Z</time>
      </trkpt>
      <trkpt lat="47.02325" lon="5.72548">
        <ele>232</ele>
        <time>2011-08-16T12:45:47Z</time>
      </trkpt>
      <trkpt lat="47.02331" lon="5.7256">
        <ele>232</ele>
        <time>2011-08-16T12:45:49Z</time>
      </trkpt>
      <trkpt lat="47.02336" lon="5.72573">
        <ele>232</ele>
        <time>2011-08-16T12:45:51Z</time>
      </trkpt>
      <trkpt lat="47.02343" lon="5.72585">
        <ele>232</ele>
        <time>2011-08-16T12:45:53Z</time>
      </trkpt>
      <trkpt lat="47.02349" lon="5.72599">
        <ele>232</ele>
        <time>2011-08-16T12:45:55Z</time>
      </trkpt>
      <trkpt lat="47.02355" lon="5.72611">
        <ele>232</ele>
        <time>2011-08-16T12:45:57Z</time>
      </trkpt>
      <trkpt lat="47.02361" lon="5.72624">
        <ele>232</ele>
        <time>2011-08-16T12:45:59Z</time>
      </trkpt>
      <trkpt lat="47.02367" lon="5.72637">
        <ele>232</ele>
        <time>2011-08-16T12:46:01Z</time>
      </trkpt>
      <trkpt lat="47.02373" lon="5.7265">
        <ele>232</ele>
        <time>2011-08-16T12:46:03Z</time>
      </trkpt>
      <trkpt lat="47.02379" lon="5.72663">
        <ele>232</ele>
        <time>2011-08-16T12:46:05Z</time>
      </trkpt>
      <trkpt lat="47.02385" lon="5.72676">
        <ele>232</ele>
        <time>2011-08-16T12:46:07Z</time>
      </trkpt>
      <trkpt lat="47.0239" lon="5.7269">
        <ele>232</ele>
        <time>2011-08-16T12:46:09Z</time>
      </trkpt>
      <trkpt lat="47.02395" lon="5.72705">
        <ele>232</ele>
        <time>2011-08-16T12:46:11Z</time>
      </trkpt>
      <trkpt lat="47.02399" lon="5.7272">
        <ele>232</ele>
        <time>2011-08-16T12:46:13Z</time>
      </trkpt>
      <trkpt lat="47.02403" lon="5.72735">
        <ele>232</ele>
        <time>2011-08-16T12:46:15Z</time>
      </trkpt>
      <trkpt lat="47.02407" lon="5.72751">
        <ele>232</ele>
        <time>2011-08-16T12:46:17Z</time>
      </trkpt>
      <trkpt lat="47.02411" lon="5.72767">
        <ele>232</ele>
        <time>2011-08-16T12:46:19Z</time>
      </trkpt>
      <trkpt lat="47.02416" lon="5.72782">
        <ele>232</ele>
        <time>2011-08-16T12:46:21Z</time>
      </trkpt>
      <trkpt lat="47.0242" lon="5.72797">
        <ele>232</ele>
        <time>2011-08-16T12:46:23Z</time>
      </trkpt>
      <trkpt lat="47.02424" lon="5.72813">
        <ele>232</ele>
        <time>2011-08-16T12:46:25Z</time>
      </trkpt>
      <trkpt lat="47.02429" lon="5.72828">
        <ele>232</ele>
        <time>2011-08-16T12:46:27Z</time>
      </trkpt>
      <trkpt lat="47.02434" lon="5.72843">
        <ele>232</ele>
        <time>2011-08-16T12:46:29Z</time>
      </trkpt>
      <trkpt lat="47.0244" lon="5.72858">
        <ele>232</ele>
        <time>2011-08-16T12:46:31Z</time>
      </trkpt>
      <trkpt lat="47.02447" lon="5.72871">
        <ele>232</ele>
        <time>2011-08-16T12:46:33Z</time>
      </trkpt>
      <trkpt lat="47.02454" lon="5.72884">
        <ele>232</ele>
        <time>2011-08-16T12:46:35Z</time>
      </trkpt>
      <trkpt lat="47.02461" lon="5.72898">
        <ele>232</ele>
        <time>2011-08-16T12:46:37Z</time>
      </trkpt>
      <trkpt lat="47.02468" lon="5.72911">
        <ele>232</ele>
        <time>2011-08-16T12:46:39Z</time>
      </trkpt>
      <trkpt lat="47.02476" lon="5.72923">
        <ele>232</ele>
        <time>2011-08-16T12:46:41Z</time>
      </trkpt>
      <trkpt lat="47.02483" lon="5.72937">
        <ele>232</ele>
        <time>2011-08-16T12:46:43Z</time>
      </trkpt>
      <trkpt lat="47.0249" lon="5.72949">
        <ele>232</ele>
        <time>2011-08-16T12:46:45Z</time>
      </trkpt>
      <trkpt lat="47.02497" lon="5.72963">
        <ele>232</ele>
        <time>2011-08-16T12:46:47Z</time>
      </trkpt>
      <trkpt lat="47.02503" lon="5.72977">
        <ele>232</ele>
        <time>2011-08-16T12:46:49Z</time>
      </trkpt>
      <trkpt lat="47.02511" lon="5.72991">
        <ele>232</ele>
        <time>2011-08-16T12:46:51Z</time>
      </trkpt>
      <trkpt lat="47.02517" lon="5.73006">
        <ele>232</ele>
        <time>2011-08-16T12:46:53Z</time>
      </trkpt>
      <trkpt lat="47.02523" lon="5.73021">
        <ele>232</ele>
        <time>2011-08-16T12:46:55Z</time>
      </trkpt>
      <trkpt lat="47.0253" lon="5.73036">
        <ele>232</ele>
        <time>2011-08-16T12:46:57Z</time>
      </trkpt>
      <trkpt lat="47.02536" lon="5.73052">
        <ele>232</ele>
        <time>2011-08-16T12:46:59Z</time>
      </trkpt>
      <trkpt lat="47.02542" lon="5.73067">
        <ele>232</ele>
        <time>2011-08-16T12:47:01Z</time>
      </trkpt>
      <trkpt lat="47.02548" lon="5.73082">
        <ele>232</ele>
        <time>2011-08-16T12:47:03Z</time>
      </trkpt>
      <trkpt lat="47.02553" lon="5.73098">
        <ele>232</ele>
        <time>2011-08-16T12:47:05Z</time>
      </trkpt>
      <trkpt lat="47.02559" lon="5.73114">
        <ele>232</ele>
        <time>2011-08-16T12:47:07Z</time>
      </trkpt>
      <trkpt lat="47.02564" lon="5.73131">
        <ele>232</ele>
        <time>2011-08-16T12:47:09Z</time>
      </trkpt>
      <trkpt lat="47.0257" lon="5.73147">
        <ele>232</ele>
        <time>2011-08-16T12:47:11Z</time>
      </trkpt>
      <trkpt lat="47.02575" lon="5.73163">
        <ele>232</ele>
        <time>2011-08-16T12:47:13Z</time>
      </trkpt>
      <trkpt lat="47.0258" lon="5.73179">
        <ele>232</ele>
        <time>2011-08-16T12:47:15Z</time>
      </trkpt>
      <trkpt lat="47.02584" lon="5.73195">
        <ele>232</ele>
        <time>2011-08-16T12:47:17Z</time>
      </trkpt>
      <trkpt lat="47.02589" lon="5.73212">
        <ele>232</ele>
        <time>2011-08-16T12:47:19Z</time>
      </trkpt>
      <trkpt lat="47.02593" lon="5.73229">
        <ele>232</ele>
        <time>2011-08-16T12:47:21Z</time>
      </trkpt>
      <trkpt lat="47.02597" lon="5.73246">
        <ele>232</ele>
        <time>2011-08-16T12:47:23Z</time>
      </trkpt>
      <trkpt lat="47.02601" lon="5.73263">
        <ele>232</ele>
        <time>2011-08-16T12:47:25Z</time>
      </trkpt>
      <trkpt lat="47.02604" lon="5.73279">
        <ele>232</ele>
        <time>2011-08-16T12:47:27Z</time>
      </trkpt>
      <trkpt lat="47.02608" lon="5.73296">
        <ele>232</ele>
        <time>2011-08-16T12:47:29Z</time>
      </trkpt>
      <trkpt lat="47.02612" lon="5.73313">
        <ele>232</ele>
        <time>2011-08-16T12:47:31Z</time>
      </trkpt>
      <trkpt lat="47.02615" lon="5.7333">
        <ele>232</ele>
        <time>2011-08-16T12:47:33Z</time>
      </trkpt>
      <trkpt lat="47.02619" lon="5.73347">
        <ele>232</ele>
        <time>2011-08-16T12:47:35Z</time>
      </trkpt>
      <trkpt lat="47.02623" lon="5.73365">
        <ele>232</ele>
        <time>2011-08-16T12:47:37Z</time>
      </trkpt>
      <trkpt lat="47.02626" lon="5.73382">
        <ele>232</ele>
        <time>2011-08-16T12:47:39Z</time>
      </trkpt>
      <trkpt lat="47.02631" lon="5.734">
        <ele>232</ele>
        <time>2011-08-16T12:47:41Z</time>
      </trkpt>
      <trkpt lat="47.02634" lon="5.73419">
        <ele>232</ele>
        <time>2011-08-16T12:47:43Z</time>
      </trkpt>
      <trkpt lat="47.02638" lon="5.73437">
        <ele>232</ele>
        <time>2011-08-16T12:47:45Z</time>
      </trkpt>
      <trkpt lat="47.02642" lon="5.73455">
        <ele>232</ele>
        <time>2011-08-16T12:47:47Z</time>
      </trkpt>
      <trkpt lat="47.02646" lon="5.73474">
        <ele>232</ele>
        <time>2011-08-16T12:47:49Z</time>
      </trkpt>
      <trkpt lat="47.0265" lon="5.73492">
        <ele>232</ele>
        <time>2011-08-16T12:47:51Z</time>
      </trkpt>
      <trkpt lat="47.02653" lon="5.73511">
        <ele>232</ele>
        <time>2011-08-16T12:47:53Z</time>
      </trkpt>
      <trkpt lat="47.02656" lon="5.73529">
        <ele>232</ele>
        <time>2011-08-16T12:47:55Z</time>
      </trkpt>
      <trkpt lat="47.0266" lon="5.73547">
        <ele>232</ele>
        <time>2011-08-16T12:47:57Z</time>
      </trkpt>
      <trkpt lat="47.02663" lon="5.73564">
        <ele>232</ele>
        <time>2011-08-16T12:47:59Z</time>
      </trkpt>
      <trkpt lat="47.02666" lon="5.73582">
        <ele>232</ele>
        <time>2011-08-16T12:48:01Z</time>
      </trkpt>
      <trkpt lat="47.02669" lon="5.736">
        <ele>232</ele>
        <time>2011-08-16T12:48:03Z</time>
      </trkpt>
      <trkpt lat="47.02672" lon="5.73617">
        <ele>232</ele>
        <time>2011-08-16T12:48:05Z</time>
      </trkpt>
      <trkpt lat="47.02674" lon="5.73635">
        <ele>232</ele>
        <time>2011-08-16T12:48:07Z</time>
      </trkpt>
      <trkpt lat="47.02677" lon="5.73653">
        <ele>232</ele>
        <time>2011-08-16T12:48:09Z</time>
      </trkpt>
      <trkpt lat="47.02679" lon="5.7367">
        <ele>232</ele>
        <time>2011-08-16T12:48:11Z</time>
      </trkpt>
      <trkpt lat="47.02682" lon="5.73688">
        <ele>232</ele>
        <time>2011-08-16T12:48:13Z</time>
      </trkpt>
      <trkpt lat="47.02683" lon="5.73706">
        <ele>232</ele>
        <time>2011-08-16T12:48:15Z</time>
      </trkpt>
      <trkpt lat="47.02686" lon="5.73723">
        <ele>232</ele>
        <time>2011-08-16T12:48:17Z</time>
      </trkpt>
      <trkpt lat="47.02688" lon="5.73741">
        <ele>232</ele>
        <time>2011-08-16T12:48:19Z</time>
      </trkpt>
      <trkpt lat="47.02691" lon="5.73758">
        <ele>232</ele>
        <time>2011-08-16T12:48:21Z</time>
      </trkpt>
      <trkpt lat="47.02693" lon="5.73775">
        <ele>232</ele>
        <time>2011-08-16T12:48:23Z</time>
      </trkpt>
      <trkpt lat="47.02694" lon="5.73792">
        <ele>232</ele>
        <time>2011-08-16T12:48:25Z</time>
      </trkpt>
      <trkpt lat="47.02697" lon="5.73809">
        <ele>232</ele>
        <time>2011-08-16T12:48:27Z</time>
      </trkpt>
      <trkpt lat="47.02699" lon="5.73825">
        <ele>232</ele>
        <time>2011-08-16T12:48:29Z</time>
      </trkpt>
      <trkpt lat="47.02702" lon="5.73842">
        <ele>232</ele>
        <time>2011-08-16T12:48:31Z</time>
      </trkpt>
      <trkpt lat="47.02705" lon="5.73859">
        <ele>232</ele>
        <time>2011-08-16T12:48:33Z</time>
      </trkpt>
      <trkpt lat="47.0271" lon="5.73875">
        <ele>232</ele>
        <time>2011-08-16T12:48:35Z</time>
      </trkpt>
      <trkpt lat="47.02715" lon="5.73893">
        <ele>232</ele>
        <time>2011-08-16T12:48:37Z</time>
      </trkpt>
      <trkpt lat="47.02722" lon="5.7391">
        <ele>232</ele>
        <time>2011-08-16T12:48:39Z</time>
      </trkpt>
      <trkpt lat="47.02728" lon="5.73927">
        <ele>232</ele>
        <time>2011-08-16T12:48:41Z</time>
      </trkpt>
      <trkpt lat="47.02735" lon="5.73944">
        <ele>232</ele>
        <time>2011-08-16T12:48:43Z</time>
      </trkpt>
      <trkpt lat="47.02741" lon="5.73961">
        <ele>232</ele>
        <time>2011-08-16T12:48:45Z</time>
      </trkpt>
      <trkpt lat="47.02747" lon="5.73978">
        <ele>232</ele>
        <time>2011-08-16T12:48:47Z</time>
      </trkpt>
      <trkpt lat="47.02751" lon="5.73996">
        <ele>232</ele>
        <time>2011-08-16T12:48:49Z</time>
      </trkpt>
      <trkpt lat="47.02755" lon="5.74015">
        <ele>232</ele>
        <time>2011-08-16T12:48:51Z</time>
      </trkpt>
      <trkpt lat="47.02757" lon="5.74032">
        <ele>232</ele>
        <time>2011-08-16T12:48:53Z</time>
      </trkpt>
      <trkpt lat="47.02759" lon="5.74051">
        <ele>232</ele>
        <time>2011-08-16T12:48:55Z</time>
      </trkpt>
      <trkpt lat="47.0276" lon="5.74069">
        <ele>232</ele>
        <time>2011-08-16T12:48:57Z</time>
      </trkpt>
      <trkpt lat="47.02761" lon="5.74089">
        <ele>232</ele>
        <time>2011-08-16T12:48:59Z</time>
      </trkpt>
      <trkpt lat="47.02762" lon="5.74108">
        <ele>232</ele>
        <time>2011-08-16T12:49:01Z</time>
      </trkpt>
      <trkpt lat="47.02763" lon="5.74127">
        <ele>232</ele>
        <time>2011-08-16T12:49:03Z</time>
      </trkpt>
      <trkpt lat="47.02763" lon="5.74146">
        <ele>232</ele>
        <time>2011-08-16T12:49:05Z</time>
      </trkpt>
      <trkpt lat="47.02764" lon="5.74165">
        <ele>232</ele>
        <time>2011-08-16T12:49:07Z</time>
      </trkpt>
      <trkpt lat="47.02765" lon="5.74184">
        <ele>232</ele>
        <time>2011-08-16T12:49:09Z</time>
      </trkpt>
      <trkpt lat="47.02765" lon="5.74204">
        <ele>232</ele>
        <time>2011-08-16T12:49:11Z</time>
      </trkpt>
      <trkpt lat="47.02764" lon="5.74223">
        <ele>232</ele>
        <time>2011-08-16T12:49:13Z</time>
      </trkpt>
      <trkpt lat="47.02763" lon="5.74243">
        <ele>232</ele>
        <time>2011-08-16T12:49:15Z</time>
      </trkpt>
      <trkpt lat="47.02761" lon="5.74262">
        <ele>232</ele>
        <time>2011-08-16T12:49:17Z</time>
      </trkpt>
      <trkpt lat="47.02758" lon="5.74281">
        <ele>232</ele>
        <time>2011-08-16T12:49:19Z</time>
      </trkpt>
      <trkpt lat="47.02756" lon="5.743">
        <ele>232</ele>
        <time>2011-08-16T12:49:21Z</time>
      </trkpt>
      <trkpt lat="47.02754" lon="5.74319">
        <ele>232</ele>
        <time>2011-08-16T12:49:23Z</time>
      </trkpt>
      <trkpt lat="47.02752" lon="5.74338">
        <ele>232</ele>
        <time>2011-08-16T12:49:25Z</time>
      </trkpt>
      <trkpt lat="47.0275" lon="5.74356">
        <ele>232</ele>
        <time>2011-08-16T12:49:27Z</time>
      </trkpt>
      <trkpt lat="47.02749" lon="5.74375">
        <ele>232</ele>
        <time>2011-08-16T12:49:29Z</time>
      </trkpt>
      <trkpt lat="47.02747" lon="5.74395">
        <ele>232</ele>
        <time>2011-08-16T12:49:31Z</time>
      </trkpt>
      <trkpt lat="47.02745" lon="5.74413">
        <ele>232</ele>
        <time>2011-08-16T12:49:33Z</time>
      </trkpt>
      <trkpt lat="47.02744" lon="5.74433">
        <ele>232</ele>
        <time>2011-08-16T12:49:35Z</time>
      </trkpt>
      <trkpt lat="47.02742" lon="5.74452">
        <ele>232</ele>
        <time>2011-08-16T12:49:37Z</time>
      </trkpt>
      <trkpt lat="47.02741" lon="5.74472">
        <ele>232</ele>
        <time>2011-08-16T12:49:39Z</time>
      </trkpt>
      <trkpt lat="47.0274" lon="5.74491">
        <ele>232</ele>
        <time>2011-08-16T12:49:41Z</time>
      </trkpt>
      <trkpt lat="47.02739" lon="5.7451">
        <ele>232</ele>
        <time>2011-08-16T12:49:43Z</time>
      </trkpt>
      <trkpt lat="47.02738" lon="5.74529">
        <ele>232</ele>
        <time>2011-08-16T12:49:45Z</time>
      </trkpt>
      <trkpt lat="47.02738" lon="5.74549">
        <ele>232</ele>
        <time>2011-08-16T12:49:47Z</time>
      </trkpt>
      <trkpt lat="47.02739" lon="5.74569">
        <ele>232</ele>
        <time>2011-08-16T12:49:49Z</time>
      </trkpt>
      <trkpt lat="47.02741" lon="5.74588">
        <ele>232</ele>
        <time>2011-08-16T12:49:51Z</time>
      </trkpt>
      <trkpt lat="47.02744" lon="5.74607">
        <ele>232</ele>
        <time>2011-08-16T12:49:53Z</time>
      </trkpt>
      <trkpt lat="47.02748" lon="5.74626">
        <ele>232</ele>
        <time>2011-08-16T12:49:55Z</time>
      </trkpt>
      <trkpt lat="47.02753" lon="5.74645">
        <ele>232</ele>
        <time>2011-08-16T12:49:57Z</time>
      </trkpt>
      <trkpt lat="47.02757" lon="5.74664">
        <ele>232</ele>
        <time>2011-08-16T12:49:59Z</time>
      </trkpt>
      <trkpt lat="47.02762" lon="5.74683">
        <ele>232</ele>
        <time>2011-08-16T12:50:01Z</time>
      </trkpt>
      <trkpt lat="47.02767" lon="5.74702">
        <ele>232</ele>
        <time>2011-08-16T12:50:03Z</time>
      </trkpt>
      <trkpt lat="47.02771" lon="5.74721">
        <ele>232</ele>
        <time>2011-08-16T12:50:05Z</time>
      </trkpt>
      <trkpt lat="47.02775" lon="5.74739">
        <ele>232</ele>
        <time>2011-08-16T12:50:07Z</time>
      </trkpt>
      <trkpt lat="47.02778" lon="5.74759">
        <ele>232</ele>
        <time>2011-08-16T12:50:09Z</time>
      </trkpt>
      <trkpt lat="47.02781" lon="5.74778">
        <ele>232</ele>
        <time>2011-08-16T12:50:11Z</time>
      </trkpt>
      <trkpt lat="47.02784" lon="5.74797">
        <ele>232</ele>
        <time>2011-08-16T12:50:13Z</time>
      </trkpt>
      <trkpt lat="47.02786" lon="5.74817">
        <ele>232</ele>
        <time>2011-08-16T12:50:15Z</time>
      </trkpt>
      <trkpt lat="47.02788" lon="5.74836">
        <ele>232</ele>
        <time>2011-08-16T12:50:17Z</time>
      </trkpt>
      <trkpt lat="47.0279" lon="5.74854">
        <ele>232</ele>
        <time>2011-08-16T12:50:19Z</time>
      </trkpt>
      <trkpt lat="47.02791" lon="5.74874">
        <ele>232</ele>
        <time>2011-08-16T12:50:21Z</time>
      </trkpt>
      <trkpt lat="47.02793" lon="5.74893">
        <ele>232</ele>
        <time>2011-08-16T12:50:23Z</time>
      </trkpt>
      <trkpt lat="47.02793" lon="5.74912">
        <ele>232</ele>
        <time>2011-08-16T12:50:25Z</time>
      </trkpt>
      <trkpt lat="47.02795" lon="5.74931">
        <ele>232</ele>
        <time>2011-08-16T12:50:27Z</time>
      </trkpt>
      <trkpt lat="47.02796" lon="5.7495">
        <ele>232</ele>
        <time>2011-08-16T12:50:29Z</time>
      </trkpt>
      <trkpt lat="47.02796" lon="5.74969">
        <ele>232</ele>
        <time>2011-08-16T12:50:31Z</time>
      </trkpt>
      <trkpt lat="47.02797" lon="5.74988">
        <ele>232</ele>
        <time>2011-08-16T12:50:33Z</time>
      </trkpt>
      <trkpt lat="47.02798" lon="5.75008">
        <ele>232</ele>
        <time>2011-08-16T12:50:35Z</time>
      </trkpt>
      <trkpt lat="47.02798" lon="5.75027">
        <ele>232</ele>
        <time>2011-08-16T12:50:37Z</time>
      </trkpt>
      <trkpt lat="47.02799" lon="5.75047">
        <ele>232</ele>
        <time>2011-08-16T12:50:39Z</time>
      </trkpt>
      <trkpt lat="47.028" lon="5.75066">
        <ele>232</ele>
        <time>2011-08-16T12:50:41Z</time>
      </trkpt>
      <trkpt lat="47.02801" lon="5.75086">
        <ele>232</ele>
        <time>2011-08-16T12:50:43Z</time>
      </trkpt>
      <trkpt lat="47.02802" lon="5.75106">
        <ele>232</ele>
        <time>2011-08-16T12:50:45Z</time>
      </trkpt>
      <trkpt lat="47.02803" lon="5.75125">
        <ele>232</ele>
        <time>2011-08-16T12:50:47Z</time>
      </trkpt>
      <trkpt lat="47.02804" lon="5.75145">
        <ele>232</ele>
        <time>2011-08-16T12:50:49Z</time>
      </trkpt>
      <trkpt lat="47.02806" lon="5.75164">
        <ele>232</ele>
        <time>2011-08-16T12:50:51Z</time>
      </trkpt>
      <trkpt lat="47.02808" lon="5.75184">
        <ele>232</ele>
        <time>2011-08-16T12:50:53Z</time>
      </trkpt>
      <trkpt lat="47.0281" lon="5.75205">
        <ele>232</ele>
        <time>2011-08-16T12:50:55Z</time>
      </trkpt>
      <trkpt lat="47.02811" lon="5.75225">
        <ele>232</ele>
        <time>2011-08-16T12:50:57Z</time>
      </trkpt>
      <trkpt lat="47.02813" lon="5.75246">
        <ele>232</ele>
        <time>2011-08-16T12:50:59Z</time>
      </trkpt>
      <trkpt lat="47.02815" lon="5.75267">
        <ele>232</ele>
        <time>2011-08-16T12:51:01Z</time>
      </trkpt>
      <trkpt lat="47.02817" lon="5.75287">
        <ele>232</ele>
        <time>2011-08-16T12:51:03Z</time>
      </trkpt>
      <trkpt lat="47.02818" lon="5.75307">
        <ele>232</ele>
        <time>2011-08-16T12:51:05Z</time>
      </trkpt>
      <trkpt lat="47.0282" lon="5.75328">
        <ele>232</ele>
        <time>2011-08-16T12:51:07Z</time>
      </trkpt>
      <trkpt lat="47.02822" lon="5.75349">
        <ele>232</ele>
        <time>2011-08-16T12:51:09Z</time>
      </trkpt>
      <trkpt lat="47.02823" lon="5.75368">
        <ele>232</ele>
        <time>2011-08-16T12:51:11Z</time>
      </trkpt>
      <trkpt lat="47.02825" lon="5.75388">
        <ele>232</ele>
        <time>2011-08-16T12:51:13Z</time>
      </trkpt>
      <trkpt lat="47.02827" lon="5.75408">
        <ele>232</ele>
        <time>2011-08-16T12:51:15Z</time>
      </trkpt>
      <trkpt lat="47.02828" lon="5.75428">
        <ele>232</ele>
        <time>2011-08-16T12:51:17Z</time>
      </trkpt>
      <trkpt lat="47.0283" lon="5.75447">
        <ele>232</ele>
        <time>2011-08-16T12:51:19Z</time>
      </trkpt>
      <trkpt lat="47.02831" lon="5.75466">
        <ele>232</ele>
        <time>2011-08-16T12:51:21Z</time>
      </trkpt>
      <trkpt lat="47.02833" lon="5.75485">
        <ele>232</ele>
        <time>2011-08-16T12:51:23Z</time>
      </trkpt>
      <trkpt lat="47.02835" lon="5.75504">
        <ele>232</ele>
        <time>2011-08-16T12:51:25Z</time>
      </trkpt>
      <trkpt lat="47.02836" lon="5.75523">
        <ele>232</ele>
        <time>2011-08-16T12:51:27Z</time>
      </trkpt>
      <trkpt lat="47.02838" lon="5.75541">
        <ele>232</ele>
        <time>2011-08-16T12:51:29Z</time>
      </trkpt>
      <trkpt lat="47.02839" lon="5.7556">
        <ele>232</ele>
        <time>2011-08-16T12:51:31Z</time>
      </trkpt>
      <trkpt lat="47.02841" lon="5.75579">
        <ele>232</ele>
        <time>2011-08-16T12:51:33Z</time>
      </trkpt>
      <trkpt lat="47.02843" lon="5.75596">
        <ele>232</ele>
        <time>2011-08-16T12:51:35Z</time>
      </trkpt>
      <trkpt lat="47.02844" lon="5.75616">
        <ele>232</ele>
        <time>2011-08-16T12:51:37Z</time>
      </trkpt>
      <trkpt lat="47.02846" lon="5.75635">
        <ele>232</ele>
        <time>2011-08-16T12:51:39Z</time>
      </trkpt>
      <trkpt lat="47.02848" lon="5.75653">
        <ele>232</ele>
        <time>2011-08-16T12:51:41Z</time>
      </trkpt>
      <trkpt lat="47.02849" lon="5.75672">
        <ele>232</ele>
        <time>2011-08-16T12:51:43Z</time>
      </trkpt>
      <trkpt lat="47.02852" lon="5.75691">
        <ele>232</ele>
        <time>2011-08-16T12:51:45Z</time>
      </trkpt>
      <trkpt lat="47.02854" lon="5.7571">
        <ele>232</ele>
        <time>2011-08-16T12:51:47Z</time>
      </trkpt>
      <trkpt lat="47.02855" lon="5.75729">
        <ele>232</ele>
        <time>2011-08-16T12:51:49Z</time>
      </trkpt>
      <trkpt lat="47.02857" lon="5.75746">
        <ele>232</ele>
        <time>2011-08-16T12:51:51Z</time>
      </trkpt>
      <trkpt lat="47.02858" lon="5.75765">
        <ele>232</ele>
        <time>2011-08-16T12:51:53Z</time>
      </trkpt>
      <trkpt lat="47.0286" lon="5.75784">
        <ele>232</ele>
        <time>2011-08-16T12:51:55Z</time>
      </trkpt>
      <trkpt lat="47.02862" lon="5.75803">
        <ele>232</ele>
        <time>2011-08-16T12:51:57Z</time>
      </trkpt>
      <trkpt lat="47.02864" lon="5.75822">
        <ele>232</ele>
        <time>2011-08-16T12:51:59Z</time>
      </trkpt>
      <trkpt lat="47.02866" lon="5.75842">
        <ele>232</ele>
        <time>2011-08-16T12:52:01Z</time>
      </trkpt>
      <trkpt lat="47.02868" lon="5.75861">
        <ele>232</ele>
        <time>2011-08-16T12:52:03Z</time>
      </trkpt>
      <trkpt lat="47.0287" lon="5.75881">
        <ele>232</ele>
        <time>2011-08-16T12:52:05Z</time>
      </trkpt>
      <trkpt lat="47.02871" lon="5.75901">
        <ele>232</ele>
        <time>2011-08-16T12:52:07Z</time>
      </trkpt>
      <trkpt lat="47.02873" lon="5.75922">
        <ele>232</ele>
        <time>2011-08-16T12:52:09Z</time>
      </trkpt>
      <trkpt lat="47.02875" lon="5.75941">
        <ele>232</ele>
        <time>2011-08-16T12:52:11Z</time>
      </trkpt>
      <trkpt lat="47.02876" lon="5.75961">
        <ele>232</ele>
        <time>2011-08-16T12:52:13Z</time>
      </trkpt>
      <trkpt lat="47.02877" lon="5.7598">
        <ele>232</ele>
        <time>2011-08-16T12:52:15Z</time>
      </trkpt>
      <trkpt lat="47.02878" lon="5.75999">
        <ele>232</ele>
        <time>2011-08-16T12:52:17Z</time>
      </trkpt>
      <trkpt lat="47.02879" lon="5.76018">
        <ele>232</ele>
        <time>2011-08-16T12:52:19Z</time>
      </trkpt>
      <trkpt lat="47.0288" lon="5.76037">
        <ele>232</ele>
        <time>2011-08-16T12:52:21Z</time>
      </trkpt>
      <trkpt lat="47.02881" lon="5.76057">
        <ele>232</ele>
        <time>2011-08-16T12:52:23Z</time>
      </trkpt>
      <trkpt lat="47.02882" lon="5.76078">
        <ele>232</ele>
        <time>2011-08-16T12:52:25Z</time>
      </trkpt>
      <trkpt lat="47.02882" lon="5.76099">
        <ele>232</ele>
        <time>2011-08-16T12:52:27Z</time>
      </trkpt>
      <trkpt lat="47.02882" lon="5.76119">
        <ele>232</ele>
        <time>2011-08-16T12:52:29Z</time>
      </trkpt>
      <trkpt lat="47.02882" lon="5.7614">
        <ele>232</ele>
        <time>2011-08-16T12:52:31Z</time>
      </trkpt>
      <trkpt lat="47.02882" lon="5.7616">
        <ele>232</ele>
        <time>2011-08-16T12:52:33Z</time>
      </trkpt>
      <trkpt lat="47.02882" lon="5.76179">
        <ele>232</ele>
        <time>2011-08-16T12:52:35Z</time>
      </trkpt>
      <trkpt lat="47.02882" lon="5.76199">
        <ele>232</ele>
        <time>2011-08-16T12:52:37Z</time>
      </trkpt>
      <trkpt lat="47.02885" lon="5.76218">
        <ele>232</ele>
        <time>2011-08-16T12:52:39Z</time>
      </trkpt>
      <trkpt lat="47.02888" lon="5.76237">
        <ele>232</ele>
        <time>2011-08-16T12:52:41Z</time>
      </trkpt>
      <trkpt lat="47.02891" lon="5.76256">
        <ele>232</ele>
        <time>2011-08-16T12:52:43Z</time>
      </trkpt>
      <trkpt lat="47.02895" lon="5.76274">
        <ele>232</ele>
        <time>2011-08-16T12:52:45Z</time>
      </trkpt>
      <trkpt lat="47.029" lon="5.76292">
        <ele>232</ele>
        <time>2011-08-16T12:52:47Z</time>
      </trkpt>
      <trkpt lat="47.02905" lon="5.76311">
        <ele>232</ele>
        <time>2011-08-16T12:52:49Z</time>
      </trkpt>
      <trkpt lat="47.02909" lon="5.7633">
        <ele>232</ele>
        <time>2011-08-16T12:52:51Z</time>
      </trkpt>
      <trkpt lat="47.02914" lon="5.7635">
        <ele>232</ele>
        <time>2011-08-16T12:52:53Z</time>
      </trkpt>
      <trkpt lat="47.02919" lon="5.76369">
        <ele>232</ele>
        <time>2011-08-16T12:52:55Z</time>
      </trkpt>
      <trkpt lat="47.02922" lon="5.76389">
        <ele>232</ele>
        <time>2011-08-16T12:52:57Z</time>
      </trkpt>
      <trkpt lat="47.02924" lon="5.76408">
        <ele>232</ele>
        <time>2011-08-16T12:52:59Z</time>
      </trkpt>
      <trkpt lat="47.02927" lon="5.76427">
        <ele>237</ele>
        <time>2011-08-16T12:53:01Z</time>
      </trkpt>
      <trkpt lat="47.02929" lon="5.76446">
        <ele>237</ele>
        <time>2011-08-16T12:53:03Z</time>
      </trkpt>
      <trkpt lat="47.0293" lon="5.76467">
        <ele>237</ele>
        <time>2011-08-16T12:53:05Z</time>
      </trkpt>
      <trkpt lat="47.02932" lon="5.76486">
        <ele>237</ele>
        <time>2011-08-16T12:53:07Z</time>
      </trkpt>
      <trkpt lat="47.02933" lon="5.76506">
        <ele>237</ele>
        <time>2011-08-16T12:53:09Z</time>
      </trkpt>
      <trkpt lat="47.02933" lon="5.76524">
        <ele>237</ele>
        <time>2011-08-16T12:53:11Z</time>
      </trkpt>
      <trkpt lat="47.02933" lon="5.76543">
        <ele>237</ele>
        <time>2011-08-16T12:53:13Z</time>
      </trkpt>
      <trkpt lat="47.02933" lon="5.76563">
        <ele>237</ele>
        <time>2011-08-16T12:53:15Z</time>
      </trkpt>
      <trkpt lat="47.02933" lon="5.76582">
        <ele>237</ele>
        <time>2011-08-16T12:53:17Z</time>
      </trkpt>
      <trkpt lat="47.02933" lon="5.76601">
        <ele>237</ele>
        <time>2011-08-16T12:53:19Z</time>
      </trkpt>
      <trkpt lat="47.02934" lon="5.7662">
        <ele>237</ele>
        <time>2011-08-16T12:53:21Z</time>
      </trkpt>
      <trkpt lat="47.02935" lon="5.76639">
        <ele>237</ele>
        <time>2011-08-16T12:53:23Z</time>
      </trkpt>
      <trkpt lat="47.02935" lon="5.76657">
        <ele>237</ele>
        <time>2011-08-16T12:53:25Z</time>
      </trkpt>
      <trkpt lat="47.02937" lon="5.76677">
        <ele>237</ele>
        <time>2011-08-16T12:53:27Z</time>
      </trkpt>
      <trkpt lat="47.02941" lon="5.76696">
        <ele>237</ele>
        <time>2011-08-16T12:53:29Z</time>
      </trkpt>
      <trkpt lat="47.02947" lon="5.76716">
        <ele>237</ele>
        <time>2011-08-16T12:53:31Z</time>
      </trkpt>
      <trkpt lat="47.02953" lon="5.76734">
        <ele>237</ele>
        <time>2011-08-16T12:53:33Z</time>
      </trkpt>
      <trkpt lat="47.0296" lon="5.76753">
        <ele>237</ele>
        <time>2011-08-16T12:53:35Z</time>
      </trkpt>
      <trkpt lat="47.02966" lon="5.76771">
        <ele>237</ele>
        <time>2011-08-16T12:53:37Z</time>
      </trkpt>
      <trkpt lat="47.02972" lon="5.7679">
        <ele>237</ele>
        <time>2011-08-16T12:53:39Z</time>
      </trkpt>
      <trkpt lat="47.02978" lon="5.76808">
        <ele>237</ele>
        <time>2011-08-16T12:53:41Z</time>
      </trkpt>
      <trkpt lat="47.02984" lon="5.76824">
        <ele>237</ele>
        <time>2011-08-16T12:53:43Z</time>
      </trkpt>
      <trkpt lat="47.0299" lon="5.76841">
        <ele>237</ele>
        <time>2011-08-16T12:53:45Z</time>
      </trkpt>
      <trkpt lat="47.02995" lon="5.76858">
        <ele>237</ele>
        <time>2011-08-16T12:53:47Z</time>
      </trkpt>
      <trkpt lat="47.03001" lon="5.76872">
        <ele>237</ele>
        <time>2011-08-16T12:53:49Z</time>
      </trkpt>
      <trkpt lat="47.03008" lon="5.76886">
        <ele>237</ele>
        <time>2011-08-16T12:53:51Z</time>
      </trkpt>
      <trkpt lat="47.03015" lon="5.76897">
        <ele>237</ele>
        <time>2011-08-16T12:53:53Z</time>
      </trkpt>
      <trkpt lat="47.03023" lon="5.76908">
        <ele>237</ele>
        <time>2011-08-16T12:53:55Z</time>
      </trkpt>
      <trkpt lat="47.03031" lon="5.76918">
        <ele>237</ele>
        <time>2011-08-16T12:53:57Z</time>
      </trkpt>
      <trkpt lat="47.03039" lon="5.7693">
        <ele>237</ele>
        <time>2011-08-16T12:53:59Z</time>
      </trkpt>
      <trkpt lat="47.03047" lon="5.76939">
        <ele>237</ele>
        <time>2011-08-16T12:54:01Z</time>
      </trkpt>
      <trkpt lat="47.03054" lon="5.76952">
        <ele>237</ele>
        <time>2011-08-16T12:54:03Z</time>
      </trkpt>
      <trkpt lat="47.03061" lon="5.76966">
        <ele>237</ele>
        <time>2011-08-16T12:54:05Z</time>
      </trkpt>
      <trkpt lat="47.03066" lon="5.76981">
        <ele>237</ele>
        <time>2011-08-16T12:54:07Z</time>
      </trkpt>
      <trkpt lat="47.03072" lon="5.76996">
        <ele>237</ele>
        <time>2011-08-16T12:54:09Z</time>
      </trkpt>
      <trkpt lat="47.03077" lon="5.77011">
        <ele>237</ele>
        <time>2011-08-16T12:54:11Z</time>
      </trkpt>
      <trkpt lat="47.03082" lon="5.77027">
        <ele>237</ele>
        <time>2011-08-16T12:54:13Z</time>
      </trkpt>
      <trkpt lat="47.03086" lon="5.77044">
        <ele>237</ele>
        <time>2011-08-16T12:54:15Z</time>
      </trkpt>
      <trkpt lat="47.03088" lon="5.77062">
        <ele>237</ele>
        <time>2011-08-16T12:54:17Z</time>
      </trkpt>
      <trkpt lat="47.03088" lon="5.7708">
        <ele>237</ele>
        <time>2011-08-16T12:54:19Z</time>
      </trkpt>
      <trkpt lat="47.03086" lon="5.771">
        <ele>237</ele>
        <time>2011-08-16T12:54:21Z</time>
      </trkpt>
      <trkpt lat="47.03081" lon="5.77119">
        <ele>237</ele>
        <time>2011-08-16T12:54:23Z</time>
      </trkpt>
      <trkpt lat="47.03073" lon="5.77135">
        <ele>237</ele>
        <time>2011-08-16T12:54:25Z</time>
      </trkpt>
      <trkpt lat="47.03065" lon="5.77151">
        <ele>237</ele>
        <time>2011-08-16T12:54:27Z</time>
      </trkpt>
      <trkpt lat="47.03054" lon="5.77165">
        <ele>237</ele>
        <time>2011-08-16T12:54:29Z</time>
      </trkpt>
      <trkpt lat="47.03045" lon="5.77177">
        <ele>237</ele>
        <time>2011-08-16T12:54:31Z</time>
      </trkpt>
      <trkpt lat="47.03035" lon="5.77189">
        <ele>237</ele>
        <time>2011-08-16T12:54:33Z</time>
      </trkpt>
      <trkpt lat="47.03025" lon="5.77201">
        <ele>237</ele>
        <time>2011-08-16T12:54:35Z</time>
      </trkpt>
      <trkpt lat="47.03016" lon="5.77213">
        <ele>237</ele>
        <time>2011-08-16T12:54:37Z</time>
      </trkpt>
      <trkpt lat="47.03007" lon="5.77225">
        <ele>237</ele>
        <time>2011-08-16T12:54:39Z</time>
      </trkpt>
      <trkpt lat="47.02999" lon="5.77238">
        <ele>237</ele>
        <time>2011-08-16T12:54:41Z</time>
      </trkpt>
      <trkpt lat="47.02992" lon="5.77252">
        <ele>237</ele>
        <time>2011-08-16T12:54:43Z</time>
      </trkpt>
      <trkpt lat="47.02986" lon="5.77267">
        <ele>237</ele>
        <time>2011-08-16T12:54:45Z</time>
      </trkpt>
      <trkpt lat="47.02981" lon="5.77282">
        <ele>237</ele>
        <time>2011-08-16T12:54:47Z</time>
      </trkpt>
      <trkpt lat="47.02976" lon="5.77298">
        <ele>237</ele>
        <time>2011-08-16T12:54:49Z</time>
      </trkpt>
      <trkpt lat="47.02975" lon="5.77315">
        <ele>237</ele>
        <time>2011-08-16T12:54:51Z</time>
      </trkpt>
      <trkpt lat="47.02977" lon="5.77333">
        <ele>237</ele>
        <time>2011-08-16T12:54:53Z</time>
      </trkpt>
      <trkpt lat="47.02983" lon="5.77348">
        <ele>237</ele>
        <time>2011-08-16T12:54:55Z</time>
      </trkpt>
      <trkpt lat="47.02988" lon="5.77364">
        <ele>237</ele>
        <time>2011-08-16T12:54:57Z</time>
      </trkpt>
      <trkpt lat="47.02994" lon="5.77381">
        <ele>237</ele>
        <time>2011-08-16T12:54:59Z</time>
      </trkpt>
      <trkpt lat="47.03" lon="5.77397">
        <ele>237</ele>
        <time>2011-08-16T12:55:01Z</time>
      </trkpt>
      <trkpt lat="47.03005" lon="5.77413">
        <ele>237</ele>
        <time>2011-08-16T12:55:03Z</time>
      </trkpt>
      <trkpt lat="47.03011" lon="5.77429">
        <ele>237</ele>
        <time>2011-08-16T12:55:05Z</time>
      </trkpt>
      <trkpt lat="47.03017" lon="5.77445">
        <ele>237</ele>
        <time>2011-08-16T12:55:07Z</time>
      </trkpt>
      <trkpt lat="47.03022" lon="5.77462">
        <ele>237</ele>
        <time>2011-08-16T12:55:09Z</time>
      </trkpt>
      <trkpt lat="47.03029" lon="5.77478">
        <ele>237</ele>
        <time>2011-08-16T12:55:11Z</time>
      </trkpt>
      <trkpt lat="47.03034" lon="5.77495">
        <ele>237</ele>
        <time>2011-08-16T12:55:13Z</time>
      </trkpt>
      <trkpt lat="47.03039" lon="5.77512">
        <ele>237</ele>
        <time>2011-08-16T12:55:15Z</time>
      </trkpt>
      <trkpt lat="47.03045" lon="5.77528">
        <ele>237</ele>
        <time>2011-08-16T12:55:17Z</time>
      </trkpt>
      <trkpt lat="47.03051" lon="5.77543">
        <ele>237</ele>
        <time>2011-08-16T12:55:19Z</time>
      </trkpt>
      <trkpt lat="47.03056" lon="5.77559">
        <ele>237</ele>
        <time>2011-08-16T12:55:21Z</time>
      </trkpt>
      <trkpt lat="47.03062" lon="5.77575">
        <ele>237</ele>
        <time>2011-08-16T12:55:23Z</time>
      </trkpt>
      <trkpt lat="47.03067" lon="5.77591">
        <ele>237</ele>
        <time>2011-08-16T12:55:25Z</time>
      </trkpt>
      <trkpt lat="47.03072" lon="5.77607">
        <ele>237</ele>
        <time>2011-08-16T12:55:27Z</time>
      </trkpt>
      <trkpt lat="47.03077" lon="5.77621">
        <ele>237</ele>
        <time>2011-08-16T12:55:29Z</time>
      </trkpt>
      <trkpt lat="47.03082" lon="5.77636">
        <ele>237</ele>
        <time>2011-08-16T12:55:31Z</time>
      </trkpt>
      <trkpt lat="47.03086" lon="5.77649">
        <ele>237</ele>
        <time>2011-08-16T12:55:33Z</time>
      </trkpt>
      <trkpt lat="47.03091" lon="5.77663">
        <ele>237</ele>
        <time>2011-08-16T12:55:35Z</time>
      </trkpt>
      <trkpt lat="47.03096" lon="5.77677">
        <ele>237</ele>
        <time>2011-08-16T12:55:37Z</time>
      </trkpt>
      <trkpt lat="47.03101" lon="5.7769">
        <ele>237</ele>
        <time>2011-08-16T12:55:39Z</time>
      </trkpt>
      <trkpt lat="47.03106" lon="5.77706">
        <ele>237</ele>
        <time>2011-08-16T12:55:41Z</time>
      </trkpt>
      <trkpt lat="47.03112" lon="5.77722">
        <ele>237</ele>
        <time>2011-08-16T12:55:43Z</time>
      </trkpt>
      <trkpt lat="47.03117" lon="5.77737">
        <ele>237</ele>
        <time>2011-08-16T12:55:45Z</time>
      </trkpt>
      <trkpt lat="47.03123" lon="5.77752">
        <ele>237</ele>
        <time>2011-08-16T12:55:47Z</time>
      </trkpt>
      <trkpt lat="47.03128" lon="5.77769">
        <ele>237</ele>
        <time>2011-08-16T12:55:49Z</time>
      </trkpt>
      <trkpt lat="47.03134" lon="5.77783">
        <ele>237</ele>
        <time>2011-08-16T12:55:51Z</time>
      </trkpt>
      <trkpt lat="47.0314" lon="5.77798">
        <ele>237</ele>
        <time>2011-08-16T12:55:53Z</time>
      </trkpt>
      <trkpt lat="47.03147" lon="5.77813">
        <ele>237</ele>
        <time>2011-08-16T12:55:55Z</time>
      </trkpt>
      <trkpt lat="47.03153" lon="5.77828">
        <ele>237</ele>
        <time>2011-08-16T12:55:57Z</time>
      </trkpt>
      <trkpt lat="47.03159" lon="5.77843">
        <ele>237</ele>
        <time>2011-08-16T12:55:59Z</time>
      </trkpt>
      <trkpt lat="47.03166" lon="5.77858">
        <ele>237</ele>
        <time>2011-08-16T12:56:01Z</time>
      </trkpt>
      <trkpt lat="47.03172" lon="5.77873">
        <ele>237</ele>
        <time>2011-08-16T12:56:03Z</time>
      </trkpt>
      <trkpt lat="47.03177" lon="5.77886">
        <ele>237</ele>
        <time>2011-08-16T12:56:05Z</time>
      </trkpt>
      <trkpt lat="47.03182" lon="5.77902">
        <ele>237</ele>
        <time>2011-08-16T12:56:07Z</time>
      </trkpt>
      <trkpt lat="47.03188" lon="5.77917">
        <ele>237</ele>
        <time>2011-08-16T12:56:09Z</time>
      </trkpt>
      <trkpt lat="47.03193" lon="5.77931">
        <ele>237</ele>
        <time>2011-08-16T12:56:11Z</time>
      </trkpt>
      <trkpt lat="47.03198" lon="5.77946">
        <ele>237</ele>
        <time>2011-08-16T12:56:13Z</time>
      </trkpt>
      <trkpt lat="47.03204" lon="5.77962">
        <ele>237</ele>
        <time>2011-08-16T12:56:15Z</time>
      </trkpt>
      <trkpt lat="47.03209" lon="5.77978">
        <ele>237</ele>
        <time>2011-08-16T12:56:17Z</time>
      </trkpt>
      <trkpt lat="47.03215" lon="5.77993">
        <ele>237</ele>
        <time>2011-08-16T12:56:19Z</time>
      </trkpt>
      <trkpt lat="47.03221" lon="5.78008">
        <ele>237</ele>
        <time>2011-08-16T12:56:21Z</time>
      </trkpt>
      <trkpt lat="47.03226" lon="5.78021">
        <ele>237</ele>
        <time>2011-08-16T12:56:23Z</time>
      </trkpt>
      <trkpt lat="47.03232" lon="5.78034">
        <ele>237</ele>
        <time>2011-08-16T12:56:25Z</time>
      </trkpt>
      <trkpt lat="47.03237" lon="5.78049">
        <ele>237</ele>
        <time>2011-08-16T12:56:27Z</time>
      </trkpt>
      <trkpt lat="47.03244" lon="5.78063">
        <ele>237</ele>
        <time>2011-08-16T12:56:29Z</time>
      </trkpt>
      <trkpt lat="47.0325" lon="5.78078">
        <ele>237</ele>
        <time>2011-08-16T12:56:31Z</time>
      </trkpt>
      <trkpt lat="47.03255" lon="5.78093">
        <ele>237</ele>
        <time>2011-08-16T12:56:33Z</time>
      </trkpt>
      <trkpt lat="47.03262" lon="5.78109">
        <ele>237</ele>
        <time>2011-08-16T12:56:35Z</time>
      </trkpt>
      <trkpt lat="47.03268" lon="5.78125">
        <ele>237</ele>
        <time>2011-08-16T12:56:37Z</time>
      </trkpt>
      <trkpt lat="47.03273" lon="5.78141">
        <ele>237</ele>
        <time>2011-08-16T12:56:39Z</time>
      </trkpt>
      <trkpt lat="47.03278" lon="5.78156">
        <ele>237</ele>
        <time>2011-08-16T12:56:41Z</time>
      </trkpt>
      <trkpt lat="47.03284" lon="5.78171">
        <ele>237</ele>
        <time>2011-08-16T12:56:43Z</time>
      </trkpt>
      <trkpt lat="47.0329" lon="5.78187">
        <ele>237</ele>
        <time>2011-08-16T12:56:45Z</time>
      </trkpt>
      <trkpt lat="47.03296" lon="5.78203">
        <ele>237</ele>
        <time>2011-08-16T12:56:47Z</time>
      </trkpt>
      <trkpt lat="47.03302" lon="5.7822">
        <ele>237</ele>
        <time>2011-08-16T12:56:49Z</time>
      </trkpt>
      <trkpt lat="47.03307" lon="5.78238">
        <ele>237</ele>
        <time>2011-08-16T12:56:51Z</time>
      </trkpt>
      <trkpt lat="47.03314" lon="5.78255">
        <ele>237</ele>
        <time>2011-08-16T12:56:53Z</time>
      </trkpt>
      <trkpt lat="47.0332" lon="5.78272">
        <ele>237</ele>
        <time>2011-08-16T12:56:55Z</time>
      </trkpt>
      <trkpt lat="47.03325" lon="5.78288">
        <ele>237</ele>
        <time>2011-08-16T12:56:57Z</time>
      </trkpt>
      <trkpt lat="47.03329" lon="5.78305">
        <ele>237</ele>
        <time>2011-08-16T12:56:59Z</time>
      </trkpt>
      <trkpt lat="47.03335" lon="5.78322">
        <ele>237</ele>
        <time>2011-08-16T12:57:01Z</time>
      </trkpt>
      <trkpt lat="47.03339" lon="5.78339">
        <ele>237</ele>
        <time>2011-08-16T12:57:03Z</time>
      </trkpt>
      <trkpt lat="47.03342" lon="5.78358">
        <ele>237</ele>
        <time>2011-08-16T12:57:05Z</time>
      </trkpt>
      <trkpt lat="47.03346" lon="5.78376">
        <ele>237</ele>
        <time>2011-08-16T12:57:07Z</time>
      </trkpt>
      <trkpt lat="47.0335" lon="5.78394">
        <ele>237</ele>
        <time>2011-08-16T12:57:09Z</time>
      </trkpt>
      <trkpt lat="47.03354" lon="5.78412">
        <ele>237</ele>
        <time>2011-08-16T12:57:11Z</time>
      </trkpt>
      <trkpt lat="47.03358" lon="5.7843">
        <ele>237</ele>
        <time>2011-08-16T12:57:13Z</time>
      </trkpt>
      <trkpt lat="47.03362" lon="5.78447">
        <ele>237</ele>
        <time>2011-08-16T12:57:15Z</time>
      </trkpt>
      <trkpt lat="47.03367" lon="5.78463">
        <ele>237</ele>
        <time>2011-08-16T12:57:17Z</time>
      </trkpt>
      <trkpt lat="47.03374" lon="5.78476">
        <ele>237</ele>
        <time>2011-08-16T12:57:19Z</time>
      </trkpt>
      <trkpt lat="47.03381" lon="5.78487">
        <ele>237</ele>
        <time>2011-08-16T12:57:21Z</time>
      </trkpt>
      <trkpt lat="47.03389" lon="5.78496">
        <ele>245</ele>
        <time>2011-08-16T12:57:23Z</time>
      </trkpt>
      <trkpt lat="47.03398" lon="5.78506">
        <ele>245</ele>
        <time>2011-08-16T12:57:25Z</time>
      </trkpt>
      <trkpt lat="47.03407" lon="5.7852">
        <ele>245</ele>
        <time>2011-08-16T12:57:27Z</time>
      </trkpt>
      <trkpt lat="47.03416" lon="5.78529">
        <ele>245</ele>
        <time>2011-08-16T12:57:29Z</time>
      </trkpt>
      <trkpt lat="47.03425" lon="5.7854">
        <ele>245</ele>
        <time>2011-08-16T12:57:31Z</time>
      </trkpt>
      <trkpt lat="47.03434" lon="5.78551">
        <ele>245</ele>
        <time>2011-08-16T12:57:33Z</time>
      </trkpt>
      <trkpt lat="47.03443" lon="5.78559">
        <ele>245</ele>
        <time>2011-08-16T12:57:35Z</time>
      </trkpt>
      <trkpt lat="47.03452" lon="5.78565">
        <ele>251</ele>
        <time>2011-08-16T12:57:37Z</time>
      </trkpt>
      <trkpt lat="47.03462" lon="5.78577">
        <ele>251</ele>
        <time>2011-08-16T12:57:39Z</time>
      </trkpt>
      <trkpt lat="47.03471" lon="5.78585">
        <ele>251</ele>
        <time>2011-08-16T12:57:41Z</time>
      </trkpt>
      <trkpt lat="47.03481" lon="5.78594">
        <ele>257</ele>
        <time>2011-08-16T12:57:43Z</time>
      </trkpt>
      <trkpt lat="47.0349" lon="5.78605">
        <ele>257</ele>
        <time>2011-08-16T12:57:45Z</time>
      </trkpt>
      <trkpt lat="47.03498" lon="5.78617">
        <ele>257</ele>
        <time>2011-08-16T12:57:47Z</time>
      </trkpt>
      <trkpt lat="47.03506" lon="5.78628">
        <ele>257</ele>
        <time>2011-08-16T12:57:49Z</time>
      </trkpt>
      <trkpt lat="47.03513" lon="5.78638">
        <ele>257</ele>
        <time>2011-08-16T12:57:51Z</time>
      </trkpt>
      <trkpt lat="47.03522" lon="5.78653">
        <ele>262</ele>
        <time>2011-08-16T12:57:54Z</time>
      </trkpt>
      <trkpt lat="47.03529" lon="5.78665">
        <ele>262</ele>
        <time>2011-08-16T12:57:56Z</time>
      </trkpt>
      <trkpt lat="47.03535" lon="5.78677">
        <ele>262</ele>
        <time>2011-08-16T12:57:58Z</time>
      </trkpt>
      <trkpt lat="47.03541" lon="5.78689">
        <ele>262</ele>
        <time>2011-08-16T12:58:00Z</time>
      </trkpt>
      <trkpt lat="47.03548" lon="5.78701">
        <ele>256</ele>
        <time>2011-08-16T12:58:02Z</time>
      </trkpt>
      <trkpt lat="47.03555" lon="5.78712">
        <ele>256</ele>
        <time>2011-08-16T12:58:04Z</time>
      </trkpt>
      <trkpt lat="47.03561" lon="5.78724">
        <ele>256</ele>
        <time>2011-08-16T12:58:06Z</time>
      </trkpt>
      <trkpt lat="47.03567" lon="5.78735">
        <ele>256</ele>
        <time>2011-08-16T12:58:08Z</time>
      </trkpt>
      <trkpt lat="47.03573" lon="5.78747">
        <ele>256</ele>
        <time>2011-08-16T12:58:10Z</time>
      </trkpt>
      <trkpt lat="47.0358" lon="5.78758">
        <ele>256</ele>
        <time>2011-08-16T12:58:12Z</time>
      </trkpt>
      <trkpt lat="47.03585" lon="5.78769">
        <ele>256</ele>
        <time>2011-08-16T12:58:14Z</time>
      </trkpt>
      <trkpt lat="47.03591" lon="5.78779">
        <ele>256</ele>
        <time>2011-08-16T12:58:16Z</time>
      </trkpt>
      <trkpt lat="47.03597" lon="5.78789">
        <ele>256</ele>
        <time>2011-08-16T12:58:18Z</time>
      </trkpt>
      <trkpt lat="47.03604" lon="5.78798">
        <ele>256</ele>
        <time>2011-08-16T12:58:20Z</time>
      </trkpt>
      <trkpt lat="47.03615" lon="5.78809">
        <ele>256</ele>
        <time>2011-08-16T12:58:23Z</time>
      </trkpt>
      <trkpt lat="47.03623" lon="5.78815">
        <ele>256</ele>
        <time>2011-08-16T12:58:25Z</time>
      </trkpt>
      <trkpt lat="47.03635" lon="5.78825">
        <ele>256</ele>
        <time>2011-08-16T12:58:28Z</time>
      </trkpt>
      <trkpt lat="47.03643" lon="5.78831">
        <ele>256</ele>
        <time>2011-08-16T12:58:30Z</time>
      </trkpt>
      <trkpt lat="47.03651" lon="5.78838">
        <ele>256</ele>
        <time>2011-08-16T12:58:32Z</time>
      </trkpt>
      <trkpt lat="47.03663" lon="5.78847">
        <ele>256</ele>
        <time>2011-08-16T12:58:35Z</time>
      </trkpt>
      <trkpt lat="47.03675" lon="5.78856">
        <ele>256</ele>
        <time>2011-08-16T12:58:38Z</time>
      </trkpt>
      <trkpt lat="47.03682" lon="5.78865">
        <ele>256</ele>
        <time>2011-08-16T12:58:40Z</time>
      </trkpt>
      <trkpt lat="47.03688" lon="5.78877">
        <ele>256</ele>
        <time>2011-08-16T12:58:42Z</time>
      </trkpt>
      <trkpt lat="47.03693" lon="5.78891">
        <ele>256</ele>
        <time>2011-08-16T12:58:44Z</time>
      </trkpt>
      <trkpt lat="47.03698" lon="5.78905">
        <ele>256</ele>
        <time>2011-08-16T12:58:46Z</time>
      </trkpt>
      <trkpt lat="47.03705" lon="5.78918">
        <ele>256</ele>
        <time>2011-08-16T12:58:48Z</time>
      </trkpt>
      <trkpt lat="47.03713" lon="5.78929">
        <ele>256</ele>
        <time>2011-08-16T12:58:50Z</time>
      </trkpt>
      <trkpt lat="47.03725" lon="5.78938">
        <ele>256</ele>
        <time>2011-08-16T12:58:52Z</time>
      </trkpt>
      <trkpt lat="47.03738" lon="5.78945">
        <ele>256</ele>
        <time>2011-08-16T12:58:54Z</time>
      </trkpt>
      <trkpt lat="47.03753" lon="5.78948">
        <ele>256</ele>
        <time>2011-08-16T12:58:56Z</time>
      </trkpt>
      <trkpt lat="47.03769" lon="5.78947">
        <ele>256</ele>
        <time>2011-08-16T12:58:58Z</time>
      </trkpt>
      <trkpt lat="47.03785" lon="5.78944">
        <ele>256</ele>
        <time>2011-08-16T12:59:00Z</time>
      </trkpt>
      <trkpt lat="47.03801" lon="5.7894">
        <ele>256</ele>
        <time>2011-08-16T12:59:02Z</time>
      </trkpt>
      <trkpt lat="47.03817" lon="5.78936">
        <ele>256</ele>
        <time>2011-08-16T12:59:04Z</time>
      </trkpt>
      <trkpt lat="47.03833" lon="5.78933">
        <ele>251</ele>
        <time>2011-08-16T12:59:06Z</time>
      </trkpt>
      <trkpt lat="47.03848" lon="5.78932">
        <ele>251</ele>
        <time>2011-08-16T12:59:08Z</time>
      </trkpt>
      <trkpt lat="47.03863" lon="5.78931">
        <ele>251</ele>
        <time>2011-08-16T12:59:10Z</time>
      </trkpt>
      <trkpt lat="47.03876" lon="5.78931">
        <ele>251</ele>
        <time>2011-08-16T12:59:12Z</time>
      </trkpt>
      <trkpt lat="47.03887" lon="5.78932">
        <ele>251</ele>
        <time>2011-08-16T12:59:14Z</time>
      </trkpt>
      <trkpt lat="47.03898" lon="5.78932">
        <ele>251</ele>
        <time>2011-08-16T12:59:16Z</time>
      </trkpt>
      <trkpt lat="47.03908" lon="5.78933">
        <ele>251</ele>
        <time>2011-08-16T12:59:18Z</time>
      </trkpt>
      <trkpt lat="47.03919" lon="5.78936">
        <ele>251</ele>
        <time>2011-08-16T12:59:20Z</time>
      </trkpt>
      <trkpt lat="47.03928" lon="5.7894">
        <ele>251</ele>
        <time>2011-08-16T12:59:22Z</time>
      </trkpt>
      <trkpt lat="47.03938" lon="5.78945">
        <ele>251</ele>
        <time>2011-08-16T12:59:24Z</time>
      </trkpt>
      <trkpt lat="47.03947" lon="5.7895">
        <ele>257</ele>
        <time>2011-08-16T12:59:26Z</time>
      </trkpt>
      <trkpt lat="47.03957" lon="5.78956">
        <ele>257</ele>
        <time>2011-08-16T12:59:28Z</time>
      </trkpt>
      <trkpt lat="47.03967" lon="5.78964">
        <ele>257</ele>
        <time>2011-08-16T12:59:30Z</time>
      </trkpt>
      <trkpt lat="47.03978" lon="5.78973">
        <ele>257</ele>
        <time>2011-08-16T12:59:32Z</time>
      </trkpt>
      <trkpt lat="47.03988" lon="5.78985">
        <ele>257</ele>
        <time>2011-08-16T12:59:34Z</time>
      </trkpt>
      <trkpt lat="47.04" lon="5.78997">
        <ele>257</ele>
        <time>2011-08-16T12:59:36Z</time>
      </trkpt>
      <trkpt lat="47.04013" lon="5.7901">
        <ele>257</ele>
        <time>2011-08-16T12:59:38Z</time>
      </trkpt>
      <trkpt lat="47.04027" lon="5.79021">
        <ele>257</ele>
        <time>2011-08-16T12:59:40Z</time>
      </trkpt>
      <trkpt lat="47.04043" lon="5.7903">
        <ele>257</ele>
        <time>2011-08-16T12:59:42Z</time>
      </trkpt>
      <trkpt lat="47.04059" lon="5.79037">
        <ele>257</ele>
        <time>2011-08-16T12:59:44Z</time>
      </trkpt>
      <trkpt lat="47.04067" lon="5.79041">
        <ele>257</ele>
        <time>2011-08-16T12:59:45Z</time>
      </trkpt>
      <trkpt lat="47.04083" lon="5.79046">
        <ele>257</ele>
        <time>2011-08-16T12:59:47Z</time>
      </trkpt>
      <trkpt lat="47.04099" lon="5.79053">
        <ele>257</ele>
        <time>2011-08-16T12:59:49Z</time>
      </trkpt>
      <trkpt lat="47.04114" lon="5.79062">
        <ele>257</ele>
        <time>2011-08-16T12:59:51Z</time>
      </trkpt>
      <trkpt lat="47.04128" lon="5.79072">
        <ele>257</ele>
        <time>2011-08-16T12:59:53Z</time>
      </trkpt>
      <trkpt lat="47.04141" lon="5.79083">
        <ele>257</ele>
        <time>2011-08-16T12:59:55Z</time>
      </trkpt>
      <trkpt lat="47.04154" lon="5.79095">
        <ele>257</ele>
        <time>2011-08-16T12:59:57Z</time>
      </trkpt>
      <trkpt lat="47.04167" lon="5.79106">
        <ele>257</ele>
        <time>2011-08-16T12:59:59Z</time>
      </trkpt>
      <trkpt lat="47.04178" lon="5.79119">
        <ele>257</ele>
        <time>2011-08-16T13:00:01Z</time>
      </trkpt>
      <trkpt lat="47.04188" lon="5.79131">
        <ele>257</ele>
        <time>2011-08-16T13:00:03Z</time>
      </trkpt>
      <trkpt lat="47.04197" lon="5.79144">
        <ele>257</ele>
        <time>2011-08-16T13:00:05Z</time>
      </trkpt>
      <trkpt lat="47.04207" lon="5.79156">
        <ele>257</ele>
        <time>2011-08-16T13:00:07Z</time>
      </trkpt>
      <trkpt lat="47.04215" lon="5.79168">
        <ele>257</ele>
        <time>2011-08-16T13:00:09Z</time>
      </trkpt>
      <trkpt lat="47.04223" lon="5.7918">
        <ele>257</ele>
        <time>2011-08-16T13:00:11Z</time>
      </trkpt>
      <trkpt lat="47.04232" lon="5.79192">
        <ele>257</ele>
        <time>2011-08-16T13:00:13Z</time>
      </trkpt>
      <trkpt lat="47.0424" lon="5.79205">
        <ele>257</ele>
        <time>2011-08-16T13:00:15Z</time>
      </trkpt>
      <trkpt lat="47.0425" lon="5.79218">
        <ele>257</ele>
        <time>2011-08-16T13:00:17Z</time>
      </trkpt>
      <trkpt lat="47.0426" lon="5.79233">
        <ele>257</ele>
        <time>2011-08-16T13:00:19Z</time>
      </trkpt>
      <trkpt lat="47.04269" lon="5.79246">
        <ele>257</ele>
        <time>2011-08-16T13:00:21Z</time>
      </trkpt>
      <trkpt lat="47.04278" lon="5.79261">
        <ele>257</ele>
        <time>2011-08-16T13:00:23Z</time>
      </trkpt>
      <trkpt lat="47.04287" lon="5.79274">
        <ele>257</ele>
        <time>2011-08-16T13:00:25Z</time>
      </trkpt>
      <trkpt lat="47.04296" lon="5.79287">
        <ele>257</ele>
        <time>2011-08-16T13:00:27Z</time>
      </trkpt>
      <trkpt lat="47.04304" lon="5.79299">
        <ele>257</ele>
        <time>2011-08-16T13:00:29Z</time>
      </trkpt>
      <trkpt lat="47.04312" lon="5.79312">
        <ele>257</ele>
        <time>2011-08-16T13:00:31Z</time>
      </trkpt>
      <trkpt lat="47.0432" lon="5.79324">
        <ele>257</ele>
        <time>2011-08-16T13:00:33Z</time>
      </trkpt>
      <trkpt lat="47.04329" lon="5.79336">
        <ele>257</ele>
        <time>2011-08-16T13:00:35Z</time>
      </trkpt>
      <trkpt lat="47.04337" lon="5.79349">
        <ele>257</ele>
        <time>2011-08-16T13:00:37Z</time>
      </trkpt>
      <trkpt lat="47.04346" lon="5.79361">
        <ele>251</ele>
        <time>2011-08-16T13:00:39Z</time>
      </trkpt>
      <trkpt lat="47.04355" lon="5.79373">
        <ele>251</ele>
        <time>2011-08-16T13:00:41Z</time>
      </trkpt>
      <trkpt lat="47.04364" lon="5.79386">
        <ele>251</ele>
        <time>2011-08-16T13:00:43Z</time>
      </trkpt>
      <trkpt lat="47.04374" lon="5.79397">
        <ele>251</ele>
        <time>2011-08-16T13:00:45Z</time>
      </trkpt>
      <trkpt lat="47.04383" lon="5.79411">
        <ele>251</ele>
        <time>2011-08-16T13:00:47Z</time>
      </trkpt>
      <trkpt lat="47.04393" lon="5.79425">
        <ele>251</ele>
        <time>2011-08-16T13:00:49Z</time>
      </trkpt>
      <trkpt lat="47.04402" lon="5.79439">
        <ele>251</ele>
        <time>2011-08-16T13:00:51Z</time>
      </trkpt>
      <trkpt lat="47.04412" lon="5.79453">
        <ele>251</ele>
        <time>2011-08-16T13:00:53Z</time>
      </trkpt>
      <trkpt lat="47.04422" lon="5.79467">
        <ele>251</ele>
        <time>2011-08-16T13:00:55Z</time>
      </trkpt>
      <trkpt lat="47.04431" lon="5.79482">
        <ele>251</ele>
        <time>2011-08-16T13:00:57Z</time>
      </trkpt>
      <trkpt lat="47.04441" lon="5.79496">
        <ele>251</ele>
        <time>2011-08-16T13:00:59Z</time>
      </trkpt>
      <trkpt lat="47.04452" lon="5.7951">
        <ele>251</ele>
        <time>2011-08-16T13:01:01Z</time>
      </trkpt>
      <trkpt lat="47.04461" lon="5.79526">
        <ele>251</ele>
        <time>2011-08-16T13:01:03Z</time>
      </trkpt>
      <trkpt lat="47.04472" lon="5.79541">
        <ele>251</ele>
        <time>2011-08-16T13:01:05Z</time>
      </trkpt>
      <trkpt lat="47.04482" lon="5.79556">
        <ele>251</ele>
        <time>2011-08-16T13:01:07Z</time>
      </trkpt>
      <trkpt lat="47.04493" lon="5.79572">
        <ele>251</ele>
        <time>2011-08-16T13:01:09Z</time>
      </trkpt>
      <trkpt lat="47.04503" lon="5.79587">
        <ele>251</ele>
        <time>2011-08-16T13:01:11Z</time>
      </trkpt>
      <trkpt lat="47.04514" lon="5.79602">
        <ele>251</ele>
        <time>2011-08-16T13:01:13Z</time>
      </trkpt>
      <trkpt lat="47.04523" lon="5.79616">
        <ele>251</ele>
        <time>2011-08-16T13:01:15Z</time>
      </trkpt>
      <trkpt lat="47.04533" lon="5.79631">
        <ele>251</ele>
        <time>2011-08-16T13:01:17Z</time>
      </trkpt>
      <trkpt lat="47.04544" lon="5.79645">
        <ele>251</ele>
        <time>2011-08-16T13:01:19Z</time>
      </trkpt>
      <trkpt lat="47.04554" lon="5.79659">
        <ele>251</ele>
        <time>2011-08-16T13:01:21Z</time>
      </trkpt>
      <trkpt lat="47.04563" lon="5.79673">
        <ele>251</ele>
        <time>2011-08-16T13:01:23Z</time>
      </trkpt>
      <trkpt lat="47.04573" lon="5.79686">
        <ele>251</ele>
        <time>2011-08-16T13:01:25Z</time>
      </trkpt>
      <trkpt lat="47.04583" lon="5.797">
        <ele>251</ele>
        <time>2011-08-16T13:01:27Z</time>
      </trkpt>
      <trkpt lat="47.04592" lon="5.79713">
        <ele>251</ele>
        <time>2011-08-16T13:01:29Z</time>
      </trkpt>
      <trkpt lat="47.04601" lon="5.79727">
        <ele>251</ele>
        <time>2011-08-16T13:01:31Z</time>
      </trkpt>
      <trkpt lat="47.04611" lon="5.79739">
        <ele>251</ele>
        <time>2011-08-16T13:01:33Z</time>
      </trkpt>
      <trkpt lat="47.0462" lon="5.79753">
        <ele>251</ele>
        <time>2011-08-16T13:01:35Z</time>
      </trkpt>
      <trkpt lat="47.04629" lon="5.79766">
        <ele>251</ele>
        <time>2011-08-16T13:01:37Z</time>
      </trkpt>
      <trkpt lat="47.04638" lon="5.79777">
        <ele>251</ele>
        <time>2011-08-16T13:01:39Z</time>
      </trkpt>
      <trkpt lat="47.04647" lon="5.79789">
        <ele>251</ele>
        <time>2011-08-16T13:01:41Z</time>
      </trkpt>
      <trkpt lat="47.04655" lon="5.79801">
        <ele>251</ele>
        <time>2011-08-16T13:01:43Z</time>
      </trkpt>
      <trkpt lat="47.04663" lon="5.79812">
        <ele>251</ele>
        <time>2011-08-16T13:01:45Z</time>
      </trkpt>
      <trkpt lat="47.04672" lon="5.79825">
        <ele>251</ele>
        <time>2011-08-16T13:01:47Z</time>
      </trkpt>
      <trkpt lat="47.04681" lon="5.79837">
        <ele>251</ele>
        <time>2011-08-16T13:01:49Z</time>
      </trkpt>
      <trkpt lat="47.04689" lon="5.7985">
        <ele>251</ele>
        <time>2011-08-16T13:01:51Z</time>
      </trkpt>
      <trkpt lat="47.04697" lon="5.79863">
        <ele>251</ele>
        <time>2011-08-16T13:01:53Z</time>
      </trkpt>
      <trkpt lat="47.04705" lon="5.79874">
        <ele>251</ele>
        <time>2011-08-16T13:01:55Z</time>
      </trkpt>
      <trkpt lat="47.04712" lon="5.79887">
        <ele>251</ele>
        <time>2011-08-16T13:01:57Z</time>
      </trkpt>
      <trkpt lat="47.0472" lon="5.79898">
        <ele>251</ele>
        <time>2011-08-16T13:01:59Z</time>
      </trkpt>
      <trkpt lat="47.04728" lon="5.7991">
        <ele>251</ele>
        <time>2011-08-16T13:02:01Z</time>
      </trkpt>
      <trkpt lat="47.04736" lon="5.79921">
        <ele>251</ele>
        <time>2011-08-16T13:02:03Z</time>
      </trkpt>
      <trkpt lat="47.04744" lon="5.79931">
        <ele>251</ele>
        <time>2011-08-16T13:02:05Z</time>
      </trkpt>
      <trkpt lat="47.04753" lon="5.7994">
        <ele>251</ele>
        <time>2011-08-16T13:02:07Z</time>
      </trkpt>
      <trkpt lat="47.04762" lon="5.7995">
        <ele>251</ele>
        <time>2011-08-16T13:02:09Z</time>
      </trkpt>
      <trkpt lat="47.04772" lon="5.7996">
        <ele>251</ele>
        <time>2011-08-16T13:02:11Z</time>
      </trkpt>
      <trkpt lat="47.04781" lon="5.79969">
        <ele>251</ele>
        <time>2011-08-16T13:02:13Z</time>
      </trkpt>
      <trkpt lat="47.04791" lon="5.7998">
        <ele>251</ele>
        <time>2011-08-16T13:02:15Z</time>
      </trkpt>
      <trkpt lat="47.04802" lon="5.79992">
        <ele>251</ele>
        <time>2011-08-16T13:02:17Z</time>
      </trkpt>
      <trkpt lat="47.04811" lon="5.80002">
        <ele>251</ele>
        <time>2011-08-16T13:02:19Z</time>
      </trkpt>
      <trkpt lat="47.04822" lon="5.80014">
        <ele>251</ele>
        <time>2011-08-16T13:02:21Z</time>
      </trkpt>
      <trkpt lat="47.04832" lon="5.80025">
        <ele>251</ele>
        <time>2011-08-16T13:02:23Z</time>
      </trkpt>
      <trkpt lat="47.04841" lon="5.80035">
        <ele>251</ele>
        <time>2011-08-16T13:02:25Z</time>
      </trkpt>
      <trkpt lat="47.0485" lon="5.80046">
        <ele>251</ele>
        <time>2011-08-16T13:02:27Z</time>
      </trkpt>
      <trkpt lat="47.0486" lon="5.80057">
        <ele>251</ele>
        <time>2011-08-16T13:02:29Z</time>
      </trkpt>
      <trkpt lat="47.04869" lon="5.80067">
        <ele>251</ele>
        <time>2011-08-16T13:02:31Z</time>
      </trkpt>
      <trkpt lat="47.04878" lon="5.80076">
        <ele>251</ele>
        <time>2011-08-16T13:02:33Z</time>
      </trkpt>
      <trkpt lat="47.04888" lon="5.80086">
        <ele>251</ele>
        <time>2011-08-16T13:02:35Z</time>
      </trkpt>
      <trkpt lat="47.04897" lon="5.80094">
        <ele>251</ele>
        <time>2011-08-16T13:02:37Z</time>
      </trkpt>
      <trkpt lat="47.04905" lon="5.80102">
        <ele>251</ele>
        <time>2011-08-16T13:02:39Z</time>
      </trkpt>
      <trkpt lat="47.04913" lon="5.80111">
        <ele>257</ele>
        <time>2011-08-16T13:02:41Z</time>
      </trkpt>
      <trkpt lat="47.04923" lon="5.80119">
        <ele>257</ele>
        <time>2011-08-16T13:02:43Z</time>
      </trkpt>
      <trkpt lat="47.04932" lon="5.80126">
        <ele>257</ele>
        <time>2011-08-16T13:02:45Z</time>
      </trkpt>
      <trkpt lat="47.04942" lon="5.80134">
        <ele>257</ele>
        <time>2011-08-16T13:02:47Z</time>
      </trkpt>
      <trkpt lat="47.04951" lon="5.8014">
        <ele>257</ele>
        <time>2011-08-16T13:02:49Z</time>
      </trkpt>
      <trkpt lat="47.04961" lon="5.80151">
        <ele>257</ele>
        <time>2011-08-16T13:02:51Z</time>
      </trkpt>
      <trkpt lat="47.04969" lon="5.80161">
        <ele>257</ele>
        <time>2011-08-16T13:02:53Z</time>
      </trkpt>
      <trkpt lat="47.04977" lon="5.80172">
        <ele>257</ele>
        <time>2011-08-16T13:02:55Z</time>
      </trkpt>
      <trkpt lat="47.04984" lon="5.80182">
        <ele>252</ele>
        <time>2011-08-16T13:02:57Z</time>
      </trkpt>
      <trkpt lat="47.04992" lon="5.80193">
        <ele>252</ele>
        <time>2011-08-16T13:02:59Z</time>
      </trkpt>
      <trkpt lat="47.05" lon="5.80205">
        <ele>252</ele>
        <time>2011-08-16T13:03:01Z</time>
      </trkpt>
      <trkpt lat="47.05009" lon="5.80216">
        <ele>252</ele>
        <time>2011-08-16T13:03:03Z</time>
      </trkpt>
      <trkpt lat="47.05016" lon="5.80225">
        <ele>252</ele>
        <time>2011-08-16T13:03:05Z</time>
      </trkpt>
      <trkpt lat="47.05024" lon="5.80236">
        <ele>252</ele>
        <time>2011-08-16T13:03:07Z</time>
      </trkpt>
      <trkpt lat="47.05032" lon="5.80247">
        <ele>252</ele>
        <time>2011-08-16T13:03:09Z</time>
      </trkpt>
      <trkpt lat="47.0504" lon="5.80258">
        <ele>252</ele>
        <time>2011-08-16T13:03:11Z</time>
      </trkpt>
      <trkpt lat="47.05048" lon="5.80267">
        <ele>252</ele>
        <time>2011-08-16T13:03:13Z</time>
      </trkpt>
      <trkpt lat="47.05057" lon="5.80278">
        <ele>252</ele>
        <time>2011-08-16T13:03:15Z</time>
      </trkpt>
      <trkpt lat="47.05066" lon="5.80289">
        <ele>252</ele>
        <time>2011-08-16T13:03:17Z</time>
      </trkpt>
      <trkpt lat="47.05074" lon="5.803">
        <ele>252</ele>
        <time>2011-08-16T13:03:19Z</time>
      </trkpt>
      <trkpt lat="47.05082" lon="5.80311">
        <ele>252</ele>
        <time>2011-08-16T13:03:21Z</time>
      </trkpt>
      <trkpt lat="47.05091" lon="5.80322">
        <ele>252</ele>
        <time>2011-08-16T13:03:23Z</time>
      </trkpt>
      <trkpt lat="47.051" lon="5.80332">
        <ele>252</ele>
        <time>2011-08-16T13:03:25Z</time>
      </trkpt>
      <trkpt lat="47.05109" lon="5.80343">
        <ele>252</ele>
        <time>2011-08-16T13:03:27Z</time>
      </trkpt>
      <trkpt lat="47.05117" lon="5.80354">
        <ele>252</ele>
        <time>2011-08-16T13:03:29Z</time>
      </trkpt>
      <trkpt lat="47.05126" lon="5.80366">
        <ele>252</ele>
        <time>2011-08-16T13:03:31Z</time>
      </trkpt>
      <trkpt lat="47.05134" lon="5.80376">
        <ele>252</ele>
        <time>2011-08-16T13:03:33Z</time>
      </trkpt>
      <trkpt lat="47.05142" lon="5.80385">
        <ele>252</ele>
        <time>2011-08-16T13:03:35Z</time>
      </trkpt>
      <trkpt lat="47.0515" lon="5.80393">
        <ele>252</ele>
        <time>2011-08-16T13:03:37Z</time>
      </trkpt>
      <trkpt lat="47.05158" lon="5.804">
        <ele>252</ele>
        <time>2011-08-16T13:03:39Z</time>
      </trkpt>
      <trkpt lat="47.05167" lon="5.80408">
        <ele>252</ele>
        <time>2011-08-16T13:03:41Z</time>
      </trkpt>
      <trkpt lat="47.05176" lon="5.80416">
        <ele>252</ele>
        <time>2011-08-16T13:03:43Z</time>
      </trkpt>
      <trkpt lat="47.05185" lon="5.80424">
        <ele>252</ele>
        <time>2011-08-16T13:03:45Z</time>
      </trkpt>
      <trkpt lat="47.05194" lon="5.80431">
        <ele>252</ele>
        <time>2011-08-16T13:03:47Z</time>
      </trkpt>
      <trkpt lat="47.05203" lon="5.80437">
        <ele>252</ele>
        <time>2011-08-16T13:03:49Z</time>
      </trkpt>
      <trkpt lat="47.05212" lon="5.80444">
        <ele>252</ele>
        <time>2011-08-16T13:03:51Z</time>
      </trkpt>
      <trkpt lat="47.05225" lon="5.80453">
        <ele>257</ele>
        <time>2011-08-16T13:03:54Z</time>
      </trkpt>
      <trkpt lat="47.05233" lon="5.80461">
        <ele>257</ele>
        <time>2011-08-16T13:03:56Z</time>
      </trkpt>
      <trkpt lat="47.05241" lon="5.80469">
        <ele>257</ele>
        <time>2011-08-16T13:03:58Z</time>
      </trkpt>
      <trkpt lat="47.05249" lon="5.80479">
        <ele>257</ele>
        <time>2011-08-16T13:04:00Z</time>
      </trkpt>
      <trkpt lat="47.05257" lon="5.80488">
        <ele>257</ele>
        <time>2011-08-16T13:04:02Z</time>
      </trkpt>
      <trkpt lat="47.05265" lon="5.80497">
        <ele>257</ele>
        <time>2011-08-16T13:04:04Z</time>
      </trkpt>
      <trkpt lat="47.05273" lon="5.80507">
        <ele>257</ele>
        <time>2011-08-16T13:04:06Z</time>
      </trkpt>
      <trkpt lat="47.0528" lon="5.80516">
        <ele>257</ele>
        <time>2011-08-16T13:04:08Z</time>
      </trkpt>
      <trkpt lat="47.05288" lon="5.80524">
        <ele>257</ele>
        <time>2011-08-16T13:04:10Z</time>
      </trkpt>
      <trkpt lat="47.05296" lon="5.80533">
        <ele>257</ele>
        <time>2011-08-16T13:04:12Z</time>
      </trkpt>
      <trkpt lat="47.05305" lon="5.80541">
        <ele>257</ele>
        <time>2011-08-16T13:04:14Z</time>
      </trkpt>
      <trkpt lat="47.05314" lon="5.80549">
        <ele>257</ele>
        <time>2011-08-16T13:04:16Z</time>
      </trkpt>
      <trkpt lat="47.05326" lon="5.80557">
        <ele>263</ele>
        <time>2011-08-16T13:04:19Z</time>
      </trkpt>
      <trkpt lat="47.05335" lon="5.80563">
        <ele>263</ele>
        <time>2011-08-16T13:04:21Z</time>
      </trkpt>
      <trkpt lat="47.05344" lon="5.8057">
        <ele>263</ele>
        <time>2011-08-16T13:04:23Z</time>
      </trkpt>
      <trkpt lat="47.05353" lon="5.80577">
        <ele>263</ele>
        <time>2011-08-16T13:04:25Z</time>
      </trkpt>
      <trkpt lat="47.05363" lon="5.80585">
        <ele>263</ele>
        <time>2011-08-16T13:04:27Z</time>
      </trkpt>
      <trkpt lat="47.05373" lon="5.80594">
        <ele>263</ele>
        <time>2011-08-16T13:04:29Z</time>
      </trkpt>
      <trkpt lat="47.05384" lon="5.80605">
        <ele>263</ele>
        <time>2011-08-16T13:04:31Z</time>
      </trkpt>
      <trkpt lat="47.05394" lon="5.80615">
        <ele>263</ele>
        <time>2011-08-16T13:04:33Z</time>
      </trkpt>
      <trkpt lat="47.05405" lon="5.80627">
        <ele>257</ele>
        <time>2011-08-16T13:04:35Z</time>
      </trkpt>
      <trkpt lat="47.05415" lon="5.80639">
        <ele>257</ele>
        <time>2011-08-16T13:04:37Z</time>
      </trkpt>
      <trkpt lat="47.05425" lon="5.80651">
        <ele>257</ele>
        <time>2011-08-16T13:04:39Z</time>
      </trkpt>
      <trkpt lat="47.05434" lon="5.80664">
        <ele>257</ele>
        <time>2011-08-16T13:04:41Z</time>
      </trkpt>
      <trkpt lat="47.05443" lon="5.80678">
        <ele>257</ele>
        <time>2011-08-16T13:04:43Z</time>
      </trkpt>
      <trkpt lat="47.05452" lon="5.80693">
        <ele>257</ele>
        <time>2011-08-16T13:04:45Z</time>
      </trkpt>
      <trkpt lat="47.05461" lon="5.80706">
        <ele>257</ele>
        <time>2011-08-16T13:04:47Z</time>
      </trkpt>
      <trkpt lat="47.0547" lon="5.80718">
        <ele>257</ele>
        <time>2011-08-16T13:04:49Z</time>
      </trkpt>
      <trkpt lat="47.05479" lon="5.80729">
        <ele>257</ele>
        <time>2011-08-16T13:04:51Z</time>
      </trkpt>
      <trkpt lat="47.05488" lon="5.8074">
        <ele>257</ele>
        <time>2011-08-16T13:04:53Z</time>
      </trkpt>
      <trkpt lat="47.05497" lon="5.80752">
        <ele>257</ele>
        <time>2011-08-16T13:04:55Z</time>
      </trkpt>
      <trkpt lat="47.05506" lon="5.80764">
        <ele>257</ele>
        <time>2011-08-16T13:04:57Z</time>
      </trkpt>
      <trkpt lat="47.05516" lon="5.80775">
        <ele>257</ele>
        <time>2011-08-16T13:04:59Z</time>
      </trkpt>
      <trkpt lat="47.05525" lon="5.80785">
        <ele>257</ele>
        <time>2011-08-16T13:05:01Z</time>
      </trkpt>
      <trkpt lat="47.05535" lon="5.80797">
        <ele>257</ele>
        <time>2011-08-16T13:05:03Z</time>
      </trkpt>
      <trkpt lat="47.05544" lon="5.80808">
        <ele>257</ele>
        <time>2011-08-16T13:05:05Z</time>
      </trkpt>
      <trkpt lat="47.05553" lon="5.80818">
        <ele>257</ele>
        <time>2011-08-16T13:05:07Z</time>
      </trkpt>
      <trkpt lat="47.05562" lon="5.80828">
        <ele>257</ele>
        <time>2011-08-16T13:05:09Z</time>
      </trkpt>
      <trkpt lat="47.05572" lon="5.80837">
        <ele>257</ele>
        <time>2011-08-16T13:05:11Z</time>
      </trkpt>
      <trkpt lat="47.05581" lon="5.80848">
        <ele>257</ele>
        <time>2011-08-16T13:05:13Z</time>
      </trkpt>
      <trkpt lat="47.0559" lon="5.80859">
        <ele>257</ele>
        <time>2011-08-16T13:05:15Z</time>
      </trkpt>
      <trkpt lat="47.05599" lon="5.8087">
        <ele>257</ele>
        <time>2011-08-16T13:05:17Z</time>
      </trkpt>
      <trkpt lat="47.05608" lon="5.80879">
        <ele>257</ele>
        <time>2011-08-16T13:05:19Z</time>
      </trkpt>
      <trkpt lat="47.05616" lon="5.80891">
        <ele>257</ele>
        <time>2011-08-16T13:05:21Z</time>
      </trkpt>
      <trkpt lat="47.05626" lon="5.80901">
        <ele>257</ele>
        <time>2011-08-16T13:05:23Z</time>
      </trkpt>
      <trkpt lat="47.05635" lon="5.80907">
        <ele>257</ele>
        <time>2011-08-16T13:05:25Z</time>
      </trkpt>
      <trkpt lat="47.05646" lon="5.80914">
        <ele>257</ele>
        <time>2011-08-16T13:05:27Z</time>
      </trkpt>
      <trkpt lat="47.05657" lon="5.80922">
        <ele>257</ele>
        <time>2011-08-16T13:05:29Z</time>
      </trkpt>
      <trkpt lat="47.05669" lon="5.80929">
        <ele>257</ele>
        <time>2011-08-16T13:05:31Z</time>
      </trkpt>
      <trkpt lat="47.05681" lon="5.80937">
        <ele>257</ele>
        <time>2011-08-16T13:05:33Z</time>
      </trkpt>
      <trkpt lat="47.05694" lon="5.80945">
        <ele>257</ele>
        <time>2011-08-16T13:05:35Z</time>
      </trkpt>
      <trkpt lat="47.05707" lon="5.80952">
        <ele>257</ele>
        <time>2011-08-16T13:05:37Z</time>
      </trkpt>
      <trkpt lat="47.05719" lon="5.80959">
        <ele>257</ele>
        <time>2011-08-16T13:05:39Z</time>
      </trkpt>
      <trkpt lat="47.05732" lon="5.80967">
        <ele>257</ele>
        <time>2011-08-16T13:05:41Z</time>
      </trkpt>
      <trkpt lat="47.05745" lon="5.80974">
        <ele>257</ele>
        <time>2011-08-16T13:05:43Z</time>
      </trkpt>
      <trkpt lat="47.05756" lon="5.80981">
        <ele>257</ele>
        <time>2011-08-16T13:05:45Z</time>
      </trkpt>
      <trkpt lat="47.05767" lon="5.80987">
        <ele>257</ele>
        <time>2011-08-16T13:05:47Z</time>
      </trkpt>
      <trkpt lat="47.05777" lon="5.80993">
        <ele>257</ele>
        <time>2011-08-16T13:05:49Z</time>
      </trkpt>
      <trkpt lat="47.05787" lon="5.81">
        <ele>257</ele>
        <time>2011-08-16T13:05:51Z</time>
      </trkpt>
      <trkpt lat="47.05796" lon="5.81004">
        <ele>262</ele>
        <time>2011-08-16T13:05:53Z</time>
      </trkpt>
      <trkpt lat="47.05805" lon="5.81012">
        <ele>262</ele>
        <time>2011-08-16T13:05:55Z</time>
      </trkpt>
      <trkpt lat="47.05814" lon="5.81018">
        <ele>262</ele>
        <time>2011-08-16T13:05:57Z</time>
      </trkpt>
      <trkpt lat="47.05823" lon="5.81027">
        <ele>262</ele>
        <time>2011-08-16T13:05:59Z</time>
      </trkpt>
      <trkpt lat="47.05831" lon="5.81037">
        <ele>262</ele>
        <time>2011-08-16T13:06:01Z</time>
      </trkpt>
      <trkpt lat="47.0584" lon="5.81048">
        <ele>262</ele>
        <time>2011-08-16T13:06:03Z</time>
      </trkpt>
      <trkpt lat="47.05849" lon="5.81062">
        <ele>262</ele>
        <time>2011-08-16T13:06:05Z</time>
      </trkpt>
      <trkpt lat="47.05858" lon="5.81075">
        <ele>262</ele>
        <time>2011-08-16T13:06:07Z</time>
      </trkpt>
      <trkpt lat="47.05867" lon="5.8109">
        <ele>262</ele>
        <time>2011-08-16T13:06:09Z</time>
      </trkpt>
      <trkpt lat="47.05877" lon="5.81104">
        <ele>262</ele>
        <time>2011-08-16T13:06:11Z</time>
      </trkpt>
      <trkpt lat="47.05887" lon="5.81118">
        <ele>257</ele>
        <time>2011-08-16T13:06:13Z</time>
      </trkpt>
      <trkpt lat="47.05897" lon="5.81133">
        <ele>257</ele>
        <time>2011-08-16T13:06:15Z</time>
      </trkpt>
      <trkpt lat="47.05908" lon="5.8115">
        <ele>257</ele>
        <time>2011-08-16T13:06:17Z</time>
      </trkpt>
      <trkpt lat="47.05918" lon="5.81167">
        <ele>257</ele>
        <time>2011-08-16T13:06:19Z</time>
      </trkpt>
      <trkpt lat="47.05927" lon="5.81184">
        <ele>257</ele>
        <time>2011-08-16T13:06:21Z</time>
      </trkpt>
      <trkpt lat="47.05934" lon="5.81201">
        <ele>257</ele>
        <time>2011-08-16T13:06:23Z</time>
      </trkpt>
      <trkpt lat="47.05942" lon="5.81218">
        <ele>257</ele>
        <time>2011-08-16T13:06:25Z</time>
      </trkpt>
      <trkpt lat="47.05948" lon="5.81236">
        <ele>257</ele>
        <time>2011-08-16T13:06:27Z</time>
      </trkpt>
      <trkpt lat="47.05954" lon="5.81252">
        <ele>257</ele>
        <time>2011-08-16T13:06:29Z</time>
      </trkpt>
      <trkpt lat="47.05959" lon="5.81267">
        <ele>257</ele>
        <time>2011-08-16T13:06:31Z</time>
      </trkpt>
      <trkpt lat="47.05965" lon="5.8128">
        <ele>257</ele>
        <time>2011-08-16T13:06:33Z</time>
      </trkpt>
      <trkpt lat="47.05971" lon="5.81293">
        <ele>257</ele>
        <time>2011-08-16T13:06:35Z</time>
      </trkpt>
      <trkpt lat="47.05976" lon="5.81305">
        <ele>257</ele>
        <time>2011-08-16T13:06:37Z</time>
      </trkpt>
      <trkpt lat="47.05982" lon="5.81317">
        <ele>257</ele>
        <time>2011-08-16T13:06:39Z</time>
      </trkpt>
      <trkpt lat="47.05987" lon="5.8133">
        <ele>257</ele>
        <time>2011-08-16T13:06:41Z</time>
      </trkpt>
      <trkpt lat="47.05993" lon="5.81343">
        <ele>257</ele>
        <time>2011-08-16T13:06:43Z</time>
      </trkpt>
      <trkpt lat="47.05998" lon="5.81355">
        <ele>257</ele>
        <time>2011-08-16T13:06:45Z</time>
      </trkpt>
      <trkpt lat="47.06004" lon="5.81367">
        <ele>257</ele>
        <time>2011-08-16T13:06:47Z</time>
      </trkpt>
      <trkpt lat="47.0601" lon="5.81383">
        <ele>257</ele>
        <time>2011-08-16T13:06:49Z</time>
      </trkpt>
      <trkpt lat="47.06016" lon="5.81398">
        <ele>257</ele>
        <time>2011-08-16T13:06:51Z</time>
      </trkpt>
      <trkpt lat="47.06021" lon="5.81414">
        <ele>257</ele>
        <time>2011-08-16T13:06:53Z</time>
      </trkpt>
      <trkpt lat="47.06028" lon="5.81429">
        <ele>257</ele>
        <time>2011-08-16T13:06:55Z</time>
      </trkpt>
      <trkpt lat="47.06034" lon="5.81444">
        <ele>257</ele>
        <time>2011-08-16T13:06:57Z</time>
      </trkpt>
      <trkpt lat="47.06043" lon="5.81459">
        <ele>257</ele>
        <time>2011-08-16T13:06:59Z</time>
      </trkpt>
      <trkpt lat="47.06052" lon="5.81471">
        <ele>257</ele>
        <time>2011-08-16T13:07:01Z</time>
      </trkpt>
      <trkpt lat="47.0606" lon="5.81484">
        <ele>257</ele>
        <time>2011-08-16T13:07:03Z</time>
      </trkpt>
      <trkpt lat="47.06069" lon="5.81497">
        <ele>257</ele>
        <time>2011-08-16T13:07:05Z</time>
      </trkpt>
      <trkpt lat="47.06077" lon="5.81508">
        <ele>257</ele>
        <time>2011-08-16T13:07:07Z</time>
      </trkpt>
      <trkpt lat="47.06086" lon="5.81519">
        <ele>257</ele>
        <time>2011-08-16T13:07:09Z</time>
      </trkpt>
      <trkpt lat="47.06094" lon="5.8153">
        <ele>257</ele>
        <time>2011-08-16T13:07:11Z</time>
      </trkpt>
      <trkpt lat="47.06103" lon="5.81539">
        <ele>257</ele>
        <time>2011-08-16T13:07:13Z</time>
      </trkpt>
      <trkpt lat="47.06111" lon="5.81551">
        <ele>257</ele>
        <time>2011-08-16T13:07:15Z</time>
      </trkpt>
      <trkpt lat="47.06117" lon="5.81565">
        <ele>257</ele>
        <time>2011-08-16T13:07:17Z</time>
      </trkpt>
      <trkpt lat="47.0612" lon="5.81581">
        <ele>257</ele>
        <time>2011-08-16T13:07:19Z</time>
      </trkpt>
      <trkpt lat="47.06121" lon="5.81599">
        <ele>257</ele>
        <time>2011-08-16T13:07:21Z</time>
      </trkpt>
      <trkpt lat="47.06122" lon="5.81616">
        <ele>257</ele>
        <time>2011-08-16T13:07:23Z</time>
      </trkpt>
      <trkpt lat="47.06123" lon="5.81633">
        <ele>257</ele>
        <time>2011-08-16T13:07:25Z</time>
      </trkpt>
      <trkpt lat="47.06125" lon="5.81651">
        <ele>257</ele>
        <time>2011-08-16T13:07:27Z</time>
      </trkpt>
      <trkpt lat="47.06125" lon="5.81671">
        <ele>257</ele>
        <time>2011-08-16T13:07:29Z</time>
      </trkpt>
      <trkpt lat="47.06125" lon="5.81692">
        <ele>257</ele>
        <time>2011-08-16T13:07:31Z</time>
      </trkpt>
      <trkpt lat="47.06124" lon="5.81712">
        <ele>257</ele>
        <time>2011-08-16T13:07:33Z</time>
      </trkpt>
      <trkpt lat="47.06126" lon="5.81734">
        <ele>257</ele>
        <time>2011-08-16T13:07:35Z</time>
      </trkpt>
      <trkpt lat="47.06133" lon="5.81755">
        <ele>251</ele>
        <time>2011-08-16T13:07:37Z</time>
      </trkpt>
      <trkpt lat="47.06141" lon="5.81776">
        <ele>251</ele>
        <time>2011-08-16T13:07:39Z</time>
      </trkpt>
      <trkpt lat="47.06149" lon="5.81797">
        <ele>251</ele>
        <time>2011-08-16T13:07:41Z</time>
      </trkpt>
      <trkpt lat="47.06155" lon="5.81818">
        <ele>251</ele>
        <time>2011-08-16T13:07:43Z</time>
      </trkpt>
      <trkpt lat="47.06157" lon="5.81839">
        <ele>251</ele>
        <time>2011-08-16T13:07:45Z</time>
      </trkpt>
      <trkpt lat="47.06158" lon="5.8186">
        <ele>251</ele>
        <time>2011-08-16T13:07:47Z</time>
      </trkpt>
      <trkpt lat="47.06157" lon="5.81879">
        <ele>251</ele>
        <time>2011-08-16T13:07:49Z</time>
      </trkpt>
      <trkpt lat="47.06152" lon="5.81897">
        <ele>251</ele>
        <time>2011-08-16T13:07:51Z</time>
      </trkpt>
      <trkpt lat="47.06147" lon="5.81913">
        <ele>251</ele>
        <time>2011-08-16T13:07:53Z</time>
      </trkpt>
      <trkpt lat="47.06142" lon="5.81929">
        <ele>251</ele>
        <time>2011-08-16T13:07:55Z</time>
      </trkpt>
      <trkpt lat="47.06138" lon="5.81944">
        <ele>251</ele>
        <time>2011-08-16T13:07:57Z</time>
      </trkpt>
      <trkpt lat="47.06134" lon="5.81959">
        <ele>251</ele>
        <time>2011-08-16T13:07:59Z</time>
      </trkpt>
      <trkpt lat="47.06131" lon="5.81974">
        <ele>251</ele>
        <time>2011-08-16T13:08:01Z</time>
      </trkpt>
      <trkpt lat="47.06129" lon="5.81986">
        <ele>251</ele>
        <time>2011-08-16T13:08:03Z</time>
      </trkpt>
      <trkpt lat="47.06127" lon="5.82">
        <ele>257</ele>
        <time>2011-08-16T13:08:05Z</time>
      </trkpt>
      <trkpt lat="47.06125" lon="5.82013">
        <ele>257</ele>
        <time>2011-08-16T13:08:07Z</time>
      </trkpt>
      <trkpt lat="47.06123" lon="5.82033">
        <ele>257</ele>
        <time>2011-08-16T13:08:10Z</time>
      </trkpt>
      <trkpt lat="47.06122" lon="5.82047">
        <ele>257</ele>
        <time>2011-08-16T13:08:12Z</time>
      </trkpt>
      <trkpt lat="47.0612" lon="5.82061">
        <ele>257</ele>
        <time>2011-08-16T13:08:14Z</time>
      </trkpt>
      <trkpt lat="47.06118" lon="5.82074">
        <ele>257</ele>
        <time>2011-08-16T13:08:16Z</time>
      </trkpt>
      <trkpt lat="47.06117" lon="5.82089">
        <ele>257</ele>
        <time>2011-08-16T13:08:18Z</time>
      </trkpt>
      <trkpt lat="47.06115" lon="5.82103">
        <ele>257</ele>
        <time>2011-08-16T13:08:20Z</time>
      </trkpt>
      <trkpt lat="47.06113" lon="5.82116">
        <ele>257</ele>
        <time>2011-08-16T13:08:22Z</time>
      </trkpt>
      <trkpt lat="47.06111" lon="5.82131">
        <ele>257</ele>
        <time>2011-08-16T13:08:24Z</time>
      </trkpt>
      <trkpt lat="47.06108" lon="5.82145">
        <ele>257</ele>
        <time>2011-08-16T13:08:26Z</time>
      </trkpt>
      <trkpt lat="47.06106" lon="5.8216">
        <ele>257</ele>
        <time>2011-08-16T13:08:28Z</time>
      </trkpt>
      <trkpt lat="47.06104" lon="5.82173">
        <ele>257</ele>
        <time>2011-08-16T13:08:30Z</time>
      </trkpt>
      <trkpt lat="47.06102" lon="5.82187">
        <ele>257</ele>
        <time>2011-08-16T13:08:32Z</time>
      </trkpt>
      <trkpt lat="47.06099" lon="5.82203">
        <ele>257</ele>
        <time>2011-08-16T13:08:35Z</time>
      </trkpt>
      <trkpt lat="47.06096" lon="5.82215">
        <ele>257</ele>
        <time>2011-08-16T13:08:37Z</time>
      </trkpt>
      <trkpt lat="47.06091" lon="5.82229">
        <ele>257</ele>
        <time>2011-08-16T13:08:39Z</time>
      </trkpt>
      <trkpt lat="47.06087" lon="5.82243">
        <ele>257</ele>
        <time>2011-08-16T13:08:41Z</time>
      </trkpt>
      <trkpt lat="47.06083" lon="5.82259">
        <ele>257</ele>
        <time>2011-08-16T13:08:43Z</time>
      </trkpt>
      <trkpt lat="47.06078" lon="5.82275">
        <ele>257</ele>
        <time>2011-08-16T13:08:45Z</time>
      </trkpt>
      <trkpt lat="47.06074" lon="5.82291">
        <ele>257</ele>
        <time>2011-08-16T13:08:47Z</time>
      </trkpt>
      <trkpt lat="47.06069" lon="5.82307">
        <ele>257</ele>
        <time>2011-08-16T13:08:49Z</time>
      </trkpt>
      <trkpt lat="47.06065" lon="5.82324">
        <ele>257</ele>
        <time>2011-08-16T13:08:51Z</time>
      </trkpt>
      <trkpt lat="47.0606" lon="5.82342">
        <ele>257</ele>
        <time>2011-08-16T13:08:53Z</time>
      </trkpt>
      <trkpt lat="47.06054" lon="5.82361">
        <ele>257</ele>
        <time>2011-08-16T13:08:55Z</time>
      </trkpt>
      <trkpt lat="47.06049" lon="5.8238">
        <ele>257</ele>
        <time>2011-08-16T13:08:57Z</time>
      </trkpt>
      <trkpt lat="47.06044" lon="5.82398">
        <ele>257</ele>
        <time>2011-08-16T13:08:59Z</time>
      </trkpt>
      <trkpt lat="47.06039" lon="5.82415">
        <ele>257</ele>
        <time>2011-08-16T13:09:01Z</time>
      </trkpt>
      <trkpt lat="47.06034" lon="5.82432">
        <ele>257</ele>
        <time>2011-08-16T13:09:03Z</time>
      </trkpt>
      <trkpt lat="47.06029" lon="5.82448">
        <ele>257</ele>
        <time>2011-08-16T13:09:05Z</time>
      </trkpt>
      <trkpt lat="47.06024" lon="5.82464">
        <ele>257</ele>
        <time>2011-08-16T13:09:07Z</time>
      </trkpt>
      <trkpt lat="47.06018" lon="5.82479">
        <ele>257</ele>
        <time>2011-08-16T13:09:09Z</time>
      </trkpt>
      <trkpt lat="47.06014" lon="5.82493">
        <ele>257</ele>
        <time>2011-08-16T13:09:11Z</time>
      </trkpt>
      <trkpt lat="47.06008" lon="5.82506">
        <ele>257</ele>
        <time>2011-08-16T13:09:13Z</time>
      </trkpt>
      <trkpt lat="47.06004" lon="5.82521">
        <ele>257</ele>
        <time>2011-08-16T13:09:15Z</time>
      </trkpt>
      <trkpt lat="47.06" lon="5.82535">
        <ele>257</ele>
        <time>2011-08-16T13:09:17Z</time>
      </trkpt>
      <trkpt lat="47.05998" lon="5.8255">
        <ele>257</ele>
        <time>2011-08-16T13:09:19Z</time>
      </trkpt>
      <trkpt lat="47.05996" lon="5.82565">
        <ele>257</ele>
        <time>2011-08-16T13:09:21Z</time>
      </trkpt>
      <trkpt lat="47.05994" lon="5.8258">
        <ele>257</ele>
        <time>2011-08-16T13:09:23Z</time>
      </trkpt>
      <trkpt lat="47.05994" lon="5.82594">
        <ele>257</ele>
        <time>2011-08-16T13:09:25Z</time>
      </trkpt>
      <trkpt lat="47.05994" lon="5.8261">
        <ele>257</ele>
        <time>2011-08-16T13:09:27Z</time>
      </trkpt>
      <trkpt lat="47.05996" lon="5.82624">
        <ele>257</ele>
        <time>2011-08-16T13:09:29Z</time>
      </trkpt>
      <trkpt lat="47.05998" lon="5.82638">
        <ele>257</ele>
        <time>2011-08-16T13:09:31Z</time>
      </trkpt>
      <trkpt lat="47.06001" lon="5.82653">
        <ele>257</ele>
        <time>2011-08-16T13:09:33Z</time>
      </trkpt>
      <trkpt lat="47.06004" lon="5.82665">
        <ele>257</ele>
        <time>2011-08-16T13:09:35Z</time>
      </trkpt>
      <trkpt lat="47.06008" lon="5.82679">
        <ele>257</ele>
        <time>2011-08-16T13:09:37Z</time>
      </trkpt>
      <trkpt lat="47.06013" lon="5.8269">
        <ele>257</ele>
        <time>2011-08-16T13:09:39Z</time>
      </trkpt>
      <trkpt lat="47.06018" lon="5.82702">
        <ele>257</ele>
        <time>2011-08-16T13:09:41Z</time>
      </trkpt>
      <trkpt lat="47.06024" lon="5.82712">
        <ele>262</ele>
        <time>2011-08-16T13:09:43Z</time>
      </trkpt>
      <trkpt lat="47.06031" lon="5.82722">
        <ele>262</ele>
        <time>2011-08-16T13:09:45Z</time>
      </trkpt>
      <trkpt lat="47.06041" lon="5.82733">
        <ele>262</ele>
        <time>2011-08-16T13:09:48Z</time>
      </trkpt>
      <trkpt lat="47.06051" lon="5.82742">
        <ele>262</ele>
        <time>2011-08-16T13:09:51Z</time>
      </trkpt>
      <trkpt lat="47.06062" lon="5.82752">
        <ele>262</ele>
        <time>2011-08-16T13:09:54Z</time>
      </trkpt>
      <trkpt lat="47.0607" lon="5.82761">
        <ele>262</ele>
        <time>2011-08-16T13:09:56Z</time>
      </trkpt>
      <trkpt lat="47.06078" lon="5.8277">
        <ele>262</ele>
        <time>2011-08-16T13:09:58Z</time>
      </trkpt>
      <trkpt lat="47.06086" lon="5.82778">
        <ele>262</ele>
        <time>2011-08-16T13:10:00Z</time>
      </trkpt>
      <trkpt lat="47.06094" lon="5.82787">
        <ele>262</ele>
        <time>2011-08-16T13:10:02Z</time>
      </trkpt>
      <trkpt lat="47.06102" lon="5.82795">
        <ele>262</ele>
        <time>2011-08-16T13:10:04Z</time>
      </trkpt>
      <trkpt lat="47.0611" lon="5.82804">
        <ele>268</ele>
        <time>2011-08-16T13:10:06Z</time>
      </trkpt>
      <trkpt lat="47.06118" lon="5.82813">
        <ele>268</ele>
        <time>2011-08-16T13:10:08Z</time>
      </trkpt>
      <trkpt lat="47.06126" lon="5.82821">
        <ele>268</ele>
        <time>2011-08-16T13:10:10Z</time>
      </trkpt>
      <trkpt lat="47.06134" lon="5.8283">
        <ele>268</ele>
        <time>2011-08-16T13:10:12Z</time>
      </trkpt>
      <trkpt lat="47.06141" lon="5.82839">
        <ele>268</ele>
        <time>2011-08-16T13:10:14Z</time>
      </trkpt>
      <trkpt lat="47.06147" lon="5.82849">
        <ele>268</ele>
        <time>2011-08-16T13:10:16Z</time>
      </trkpt>
      <trkpt lat="47.06152" lon="5.82861">
        <ele>268</ele>
        <time>2011-08-16T13:10:18Z</time>
      </trkpt>
      <trkpt lat="47.06158" lon="5.82873">
        <ele>268</ele>
        <time>2011-08-16T13:10:20Z</time>
      </trkpt>
      <trkpt lat="47.06163" lon="5.82884">
        <ele>268</ele>
        <time>2011-08-16T13:10:22Z</time>
      </trkpt>
      <trkpt lat="47.06168" lon="5.82896">
        <ele>268</ele>
        <time>2011-08-16T13:10:24Z</time>
      </trkpt>
      <trkpt lat="47.06173" lon="5.82908">
        <ele>268</ele>
        <time>2011-08-16T13:10:26Z</time>
      </trkpt>
      <trkpt lat="47.06178" lon="5.82926">
        <ele>268</ele>
        <time>2011-08-16T13:10:29Z</time>
      </trkpt>
      <trkpt lat="47.06181" lon="5.82938">
        <ele>268</ele>
        <time>2011-08-16T13:10:31Z</time>
      </trkpt>
      <trkpt lat="47.06184" lon="5.82951">
        <ele>268</ele>
        <time>2011-08-16T13:10:33Z</time>
      </trkpt>
      <trkpt lat="47.06186" lon="5.82964">
        <ele>268</ele>
        <time>2011-08-16T13:10:35Z</time>
      </trkpt>
      <trkpt lat="47.06188" lon="5.82979">
        <ele>268</ele>
        <time>2011-08-16T13:10:37Z</time>
      </trkpt>
      <trkpt lat="47.0619" lon="5.82992">
        <ele>268</ele>
        <time>2011-08-16T13:10:39Z</time>
      </trkpt>
      <trkpt lat="47.06192" lon="5.83006">
        <ele>268</ele>
        <time>2011-08-16T13:10:41Z</time>
      </trkpt>
      <trkpt lat="47.06194" lon="5.83026">
        <ele>273</ele>
        <time>2011-08-16T13:10:44Z</time>
      </trkpt>
      <trkpt lat="47.06196" lon="5.83038">
        <ele>273</ele>
        <time>2011-08-16T13:10:46Z</time>
      </trkpt>
      <trkpt lat="47.06199" lon="5.83051">
        <ele>273</ele>
        <time>2011-08-16T13:10:48Z</time>
      </trkpt>
      <trkpt lat="47.06201" lon="5.83063">
        <ele>273</ele>
        <time>2011-08-16T13:10:50Z</time>
      </trkpt>
      <trkpt lat="47.06204" lon="5.83076">
        <ele>273</ele>
        <time>2011-08-16T13:10:52Z</time>
      </trkpt>
      <trkpt lat="47.06208" lon="5.83088">
        <ele>273</ele>
        <time>2011-08-16T13:10:54Z</time>
      </trkpt>
      <trkpt lat="47.06212" lon="5.831">
        <ele>273</ele>
        <time>2011-08-16T13:10:56Z</time>
      </trkpt>
      <trkpt lat="47.06219" lon="5.83117">
        <ele>273</ele>
        <time>2011-08-16T13:10:59Z</time>
      </trkpt>
      <trkpt lat="47.06227" lon="5.83132">
        <ele>273</ele>
        <time>2011-08-16T13:11:02Z</time>
      </trkpt>
      <trkpt lat="47.06233" lon="5.83141">
        <ele>273</ele>
        <time>2011-08-16T13:11:04Z</time>
      </trkpt>
      <trkpt lat="47.0624" lon="5.83151">
        <ele>279</ele>
        <time>2011-08-16T13:11:06Z</time>
      </trkpt>
      <trkpt lat="47.0625" lon="5.83161">
        <ele>279</ele>
        <time>2011-08-16T13:11:09Z</time>
      </trkpt>
      <trkpt lat="47.06262" lon="5.83171">
        <ele>279</ele>
        <time>2011-08-16T13:11:12Z</time>
      </trkpt>
      <trkpt lat="47.0627" lon="5.83176">
        <ele>279</ele>
        <time>2011-08-16T13:11:14Z</time>
      </trkpt>
      <trkpt lat="47.06282" lon="5.83179">
        <ele>287</ele>
        <time>2011-08-16T13:11:17Z</time>
      </trkpt>
      <trkpt lat="47.06295" lon="5.83184">
        <ele>287</ele>
        <time>2011-08-16T13:11:20Z</time>
      </trkpt>
      <trkpt lat="47.06308" lon="5.83186">
        <ele>287</ele>
        <time>2011-08-16T13:11:23Z</time>
      </trkpt>
      <trkpt lat="47.06317" lon="5.83189">
        <ele>287</ele>
        <time>2011-08-16T13:11:25Z</time>
      </trkpt>
      <trkpt lat="47.06326" lon="5.83193">
        <ele>287</ele>
        <time>2011-08-16T13:11:27Z</time>
      </trkpt>
      <trkpt lat="47.06339" lon="5.83195">
        <ele>293</ele>
        <time>2011-08-16T13:11:30Z</time>
      </trkpt>
      <trkpt lat="47.06352" lon="5.83199">
        <ele>293</ele>
        <time>2011-08-16T13:11:33Z</time>
      </trkpt>
      <trkpt lat="47.06365" lon="5.83204">
        <ele>293</ele>
        <time>2011-08-16T13:11:36Z</time>
      </trkpt>
      <trkpt lat="47.06374" lon="5.83207">
        <ele>293</ele>
        <time>2011-08-16T13:11:38Z</time>
      </trkpt>
      <trkpt lat="47.06387" lon="5.83208">
        <ele>301</ele>
        <time>2011-08-16T13:11:41Z</time>
      </trkpt>
      <trkpt lat="47.06396" lon="5.83211">
        <ele>301</ele>
        <time>2011-08-16T13:11:43Z</time>
      </trkpt>
      <trkpt lat="47.06409" lon="5.83217">
        <ele>301</ele>
        <time>2011-08-16T13:11:46Z</time>
      </trkpt>
      <trkpt lat="47.06421" lon="5.83222">
        <ele>308</ele>
        <time>2011-08-16T13:11:49Z</time>
      </trkpt>
      <trkpt lat="47.06434" lon="5.83226">
        <ele>308</ele>
        <time>2011-08-16T13:11:52Z</time>
      </trkpt>
      <trkpt lat="47.06443" lon="5.83233">
        <ele>308</ele>
        <time>2011-08-16T13:11:54Z</time>
      </trkpt>
      <trkpt lat="47.06451" lon="5.83238">
        <ele>308</ele>
        <time>2011-08-16T13:11:56Z</time>
      </trkpt>
      <trkpt lat="47.06463" lon="5.83244">
        <ele>315</ele>
        <time>2011-08-16T13:11:59Z</time>
      </trkpt>
      <trkpt lat="47.06476" lon="5.8325">
        <ele>321</ele>
        <time>2011-08-16T13:12:02Z</time>
      </trkpt>
      <trkpt lat="47.06485" lon="5.83255">
        <ele>321</ele>
        <time>2011-08-16T13:12:04Z</time>
      </trkpt>
      <trkpt lat="47.06498" lon="5.8326">
        <ele>329</ele>
        <time>2011-08-16T13:12:07Z</time>
      </trkpt>
      <trkpt lat="47.06506" lon="5.83267">
        <ele>329</ele>
        <time>2011-08-16T13:12:09Z</time>
      </trkpt>
      <trkpt lat="47.06514" lon="5.83275">
        <ele>329</ele>
        <time>2011-08-16T13:12:11Z</time>
      </trkpt>
      <trkpt lat="47.06526" lon="5.83282">
        <ele>329</ele>
        <time>2011-08-16T13:12:14Z</time>
      </trkpt>
      <trkpt lat="47.06538" lon="5.83289">
        <ele>335</ele>
        <time>2011-08-16T13:12:17Z</time>
      </trkpt>
      <trkpt lat="47.06549" lon="5.83296">
        <ele>335</ele>
        <time>2011-08-16T13:12:20Z</time>
      </trkpt>
      <trkpt lat="47.06557" lon="5.83306">
        <ele>335</ele>
        <time>2011-08-16T13:12:22Z</time>
      </trkpt>
      <trkpt lat="47.06568" lon="5.83317">
        <ele>335</ele>
        <time>2011-08-16T13:12:25Z</time>
      </trkpt>
      <trkpt lat="47.06576" lon="5.83325">
        <ele>335</ele>
        <time>2011-08-16T13:12:27Z</time>
      </trkpt>
      <trkpt lat="47.06583" lon="5.83335">
        <ele>335</ele>
        <time>2011-08-16T13:12:29Z</time>
      </trkpt>
      <trkpt lat="47.06591" lon="5.83344">
        <ele>335</ele>
        <time>2011-08-16T13:12:31Z</time>
      </trkpt>
      <trkpt lat="47.06601" lon="5.83354">
        <ele>335</ele>
        <time>2011-08-16T13:12:34Z</time>
      </trkpt>
      <trkpt lat="47.06608" lon="5.83367">
        <ele>341</ele>
        <time>2011-08-16T13:12:37Z</time>
      </trkpt>
      <trkpt lat="47.06617" lon="5.83381">
        <ele>341</ele>
        <time>2011-08-16T13:12:40Z</time>
      </trkpt>
      <trkpt lat="47.06625" lon="5.83393">
        <ele>341</ele>
        <time>2011-08-16T13:12:42Z</time>
      </trkpt>
      <trkpt lat="47.0663" lon="5.83404">
        <ele>341</ele>
        <time>2011-08-16T13:12:44Z</time>
      </trkpt>
      <trkpt lat="47.0664" lon="5.83415">
        <ele>341</ele>
        <time>2011-08-16T13:12:47Z</time>
      </trkpt>
      <trkpt lat="47.0665" lon="5.83425">
        <ele>341</ele>
        <time>2011-08-16T13:12:50Z</time>
      </trkpt>
      <trkpt lat="47.06657" lon="5.83434">
        <ele>341</ele>
        <time>2011-08-16T13:12:52Z</time>
      </trkpt>
      <trkpt lat="47.06665" lon="5.83441">
        <ele>341</ele>
        <time>2011-08-16T13:12:54Z</time>
      </trkpt>
      <trkpt lat="47.06673" lon="5.8345">
        <ele>341</ele>
        <time>2011-08-16T13:12:56Z</time>
      </trkpt>
      <trkpt lat="47.06681" lon="5.83456">
        <ele>336</ele>
        <time>2011-08-16T13:12:58Z</time>
      </trkpt>
      <trkpt lat="47.06689" lon="5.83462">
        <ele>336</ele>
        <time>2011-08-16T13:13:00Z</time>
      </trkpt>
      <trkpt lat="47.06701" lon="5.8347">
        <ele>336</ele>
        <time>2011-08-16T13:13:03Z</time>
      </trkpt>
      <trkpt lat="47.06713" lon="5.83476">
        <ele>336</ele>
        <time>2011-08-16T13:13:06Z</time>
      </trkpt>
      <trkpt lat="47.06721" lon="5.83481">
        <ele>336</ele>
        <time>2011-08-16T13:13:08Z</time>
      </trkpt>
      <trkpt lat="47.0673" lon="5.83487">
        <ele>336</ele>
        <time>2011-08-16T13:13:10Z</time>
      </trkpt>
      <trkpt lat="47.06738" lon="5.83494">
        <ele>336</ele>
        <time>2011-08-16T13:13:12Z</time>
      </trkpt>
      <trkpt lat="47.06746" lon="5.835">
        <ele>336</ele>
        <time>2011-08-16T13:13:14Z</time>
      </trkpt>
      <trkpt lat="47.06754" lon="5.83506">
        <ele>330</ele>
        <time>2011-08-16T13:13:16Z</time>
      </trkpt>
      <trkpt lat="47.06763" lon="5.83517">
        <ele>330</ele>
        <time>2011-08-16T13:13:19Z</time>
      </trkpt>
      <trkpt lat="47.06772" lon="5.83525">
        <ele>330</ele>
        <time>2011-08-16T13:13:21Z</time>
      </trkpt>
      <trkpt lat="47.06783" lon="5.83534">
        <ele>330</ele>
        <time>2011-08-16T13:13:24Z</time>
      </trkpt>
      <trkpt lat="47.06791" lon="5.8354">
        <ele>330</ele>
        <time>2011-08-16T13:13:26Z</time>
      </trkpt>
      <trkpt lat="47.06802" lon="5.83547">
        <ele>338</ele>
        <time>2011-08-16T13:13:29Z</time>
      </trkpt>
      <trkpt lat="47.06813" lon="5.83555">
        <ele>338</ele>
        <time>2011-08-16T13:13:32Z</time>
      </trkpt>
      <trkpt lat="47.06823" lon="5.83562">
        <ele>348</ele>
        <time>2011-08-16T13:13:35Z</time>
      </trkpt>
      <trkpt lat="47.06834" lon="5.83572">
        <ele>348</ele>
        <time>2011-08-16T13:13:38Z</time>
      </trkpt>
      <trkpt lat="47.06845" lon="5.83583">
        <ele>348</ele>
        <time>2011-08-16T13:13:41Z</time>
      </trkpt>
      <trkpt lat="47.06851" lon="5.83593">
        <ele>348</ele>
        <time>2011-08-16T13:13:43Z</time>
      </trkpt>
      <trkpt lat="47.06859" lon="5.83601">
        <ele>348</ele>
        <time>2011-08-16T13:13:45Z</time>
      </trkpt>
      <trkpt lat="47.06866" lon="5.8361">
        <ele>348</ele>
        <time>2011-08-16T13:13:47Z</time>
      </trkpt>
      <trkpt lat="47.06876" lon="5.83621">
        <ele>348</ele>
        <time>2011-08-16T13:13:50Z</time>
      </trkpt>
      <trkpt lat="47.06885" lon="5.83635">
        <ele>354</ele>
        <time>2011-08-16T13:13:53Z</time>
      </trkpt>
      <trkpt lat="47.06892" lon="5.83644">
        <ele>354</ele>
        <time>2011-08-16T13:13:55Z</time>
      </trkpt>
      <trkpt lat="47.06898" lon="5.83656">
        <ele>354</ele>
        <time>2011-08-16T13:13:57Z</time>
      </trkpt>
      <trkpt lat="47.06903" lon="5.83668">
        <ele>354</ele>
        <time>2011-08-16T13:13:59Z</time>
      </trkpt>
      <trkpt lat="47.06908" lon="5.83679">
        <ele>354</ele>
        <time>2011-08-16T13:14:01Z</time>
      </trkpt>
      <trkpt lat="47.06913" lon="5.83693">
        <ele>354</ele>
        <time>2011-08-16T13:14:03Z</time>
      </trkpt>
      <trkpt lat="47.06918" lon="5.83706">
        <ele>348</ele>
        <time>2011-08-16T13:14:05Z</time>
      </trkpt>
      <trkpt lat="47.06922" lon="5.83719">
        <ele>348</ele>
        <time>2011-08-16T13:14:07Z</time>
      </trkpt>
      <trkpt lat="47.06926" lon="5.83733">
        <ele>348</ele>
        <time>2011-08-16T13:14:09Z</time>
      </trkpt>
      <trkpt lat="47.0693" lon="5.83748">
        <ele>340</ele>
        <time>2011-08-16T13:14:11Z</time>
      </trkpt>
      <trkpt lat="47.06934" lon="5.83762">
        <ele>340</ele>
        <time>2011-08-16T13:14:13Z</time>
      </trkpt>
      <trkpt lat="47.06939" lon="5.83776">
        <ele>340</ele>
        <time>2011-08-16T13:14:15Z</time>
      </trkpt>
      <trkpt lat="47.06945" lon="5.83789">
        <ele>332</ele>
        <time>2011-08-16T13:14:17Z</time>
      </trkpt>
      <trkpt lat="47.06951" lon="5.83803">
        <ele>332</ele>
        <time>2011-08-16T13:14:19Z</time>
      </trkpt>
      <trkpt lat="47.06956" lon="5.83817">
        <ele>327</ele>
        <time>2011-08-16T13:14:21Z</time>
      </trkpt>
      <trkpt lat="47.06962" lon="5.8383">
        <ele>327</ele>
        <time>2011-08-16T13:14:23Z</time>
      </trkpt>
      <trkpt lat="47.06968" lon="5.83842">
        <ele>327</ele>
        <time>2011-08-16T13:14:25Z</time>
      </trkpt>
      <trkpt lat="47.06974" lon="5.83854">
        <ele>327</ele>
        <time>2011-08-16T13:14:27Z</time>
      </trkpt>
      <trkpt lat="47.0698" lon="5.83865">
        <ele>327</ele>
        <time>2011-08-16T13:14:29Z</time>
      </trkpt>
      <trkpt lat="47.06988" lon="5.83878">
        <ele>321</ele>
        <time>2011-08-16T13:14:31Z</time>
      </trkpt>
      <trkpt lat="47.06995" lon="5.8389">
        <ele>321</ele>
        <time>2011-08-16T13:14:33Z</time>
      </trkpt>
      <trkpt lat="47.07004" lon="5.83901">
        <ele>321</ele>
        <time>2011-08-16T13:14:35Z</time>
      </trkpt>
      <trkpt lat="47.07013" lon="5.83911">
        <ele>321</ele>
        <time>2011-08-16T13:14:37Z</time>
      </trkpt>
      <trkpt lat="47.07024" lon="5.83921">
        <ele>321</ele>
        <time>2011-08-16T13:14:39Z</time>
      </trkpt>
      <trkpt lat="47.07036" lon="5.8393">
        <ele>321</ele>
        <time>2011-08-16T13:14:41Z</time>
      </trkpt>
      <trkpt lat="47.07048" lon="5.83938">
        <ele>321</ele>
        <time>2011-08-16T13:14:43Z</time>
      </trkpt>
      <trkpt lat="47.07061" lon="5.83945">
        <ele>321</ele>
        <time>2011-08-16T13:14:45Z</time>
      </trkpt>
      <trkpt lat="47.07074" lon="5.83948">
        <ele>321</ele>
        <time>2011-08-16T13:14:47Z</time>
      </trkpt>
      <trkpt lat="47.07088" lon="5.83953">
        <ele>321</ele>
        <time>2011-08-16T13:14:49Z</time>
      </trkpt>
      <trkpt lat="47.07104" lon="5.83958">
        <ele>328</ele>
        <time>2011-08-16T13:14:51Z</time>
      </trkpt>
      <trkpt lat="47.07119" lon="5.83965">
        <ele>328</ele>
        <time>2011-08-16T13:14:53Z</time>
      </trkpt>
      <trkpt lat="47.07134" lon="5.83971">
        <ele>328</ele>
        <time>2011-08-16T13:14:55Z</time>
      </trkpt>
      <trkpt lat="47.0715" lon="5.83974">
        <ele>335</ele>
        <time>2011-08-16T13:14:57Z</time>
      </trkpt>
      <trkpt lat="47.07165" lon="5.83978">
        <ele>340</ele>
        <time>2011-08-16T13:14:59Z</time>
      </trkpt>
      <trkpt lat="47.0718" lon="5.83983">
        <ele>340</ele>
        <time>2011-08-16T13:15:01Z</time>
      </trkpt>
      <trkpt lat="47.07194" lon="5.83986">
        <ele>348</ele>
        <time>2011-08-16T13:15:03Z</time>
      </trkpt>
      <trkpt lat="47.07208" lon="5.83988">
        <ele>354</ele>
        <time>2011-08-16T13:15:05Z</time>
      </trkpt>
      <trkpt lat="47.07221" lon="5.83993">
        <ele>354</ele>
        <time>2011-08-16T13:15:07Z</time>
      </trkpt>
      <trkpt lat="47.07235" lon="5.84001">
        <ele>354</ele>
        <time>2011-08-16T13:15:09Z</time>
      </trkpt>
      <trkpt lat="47.07248" lon="5.84006">
        <ele>354</ele>
        <time>2011-08-16T13:15:11Z</time>
      </trkpt>
      <trkpt lat="47.07263" lon="5.84013">
        <ele>347</ele>
        <time>2011-08-16T13:15:13Z</time>
      </trkpt>
      <trkpt lat="47.07277" lon="5.84023">
        <ele>347</ele>
        <time>2011-08-16T13:15:15Z</time>
      </trkpt>
      <trkpt lat="47.07292" lon="5.84033">
        <ele>340</ele>
        <time>2011-08-16T13:15:17Z</time>
      </trkpt>
      <trkpt lat="47.07307" lon="5.84043">
        <ele>340</ele>
        <time>2011-08-16T13:15:19Z</time>
      </trkpt>
      <trkpt lat="47.07321" lon="5.84056">
        <ele>333</ele>
        <time>2011-08-16T13:15:21Z</time>
      </trkpt>
      <trkpt lat="47.07335" lon="5.84068">
        <ele>333</ele>
        <time>2011-08-16T13:15:23Z</time>
      </trkpt>
      <trkpt lat="47.0735" lon="5.84084">
        <ele>325</ele>
        <time>2011-08-16T13:15:25Z</time>
      </trkpt>
      <trkpt lat="47.07363" lon="5.841">
        <ele>325</ele>
        <time>2011-08-16T13:15:27Z</time>
      </trkpt>
      <trkpt lat="47.07375" lon="5.84116">
        <ele>320</ele>
        <time>2011-08-16T13:15:29Z</time>
      </trkpt>
      <trkpt lat="47.07386" lon="5.84133">
        <ele>320</ele>
        <time>2011-08-16T13:15:31Z</time>
      </trkpt>
      <trkpt lat="47.07397" lon="5.8415">
        <ele>320</ele>
        <time>2011-08-16T13:15:33Z</time>
      </trkpt>
      <trkpt lat="47.07407" lon="5.84167">
        <ele>320</ele>
        <time>2011-08-16T13:15:35Z</time>
      </trkpt>
      <trkpt lat="47.07418" lon="5.84184">
        <ele>320</ele>
        <time>2011-08-16T13:15:37Z</time>
      </trkpt>
      <trkpt lat="47.0743" lon="5.84201">
        <ele>320</ele>
        <time>2011-08-16T13:15:39Z</time>
      </trkpt>
      <trkpt lat="47.0744" lon="5.84217">
        <ele>320</ele>
        <time>2011-08-16T13:15:41Z</time>
      </trkpt>
      <trkpt lat="47.0745" lon="5.84234">
        <ele>320</ele>
        <time>2011-08-16T13:15:43Z</time>
      </trkpt>
      <trkpt lat="47.07461" lon="5.8425">
        <ele>320</ele>
        <time>2011-08-16T13:15:45Z</time>
      </trkpt>
      <trkpt lat="47.07471" lon="5.84266">
        <ele>320</ele>
        <time>2011-08-16T13:15:47Z</time>
      </trkpt>
      <trkpt lat="47.07481" lon="5.84284">
        <ele>320</ele>
        <time>2011-08-16T13:15:49Z</time>
      </trkpt>
      <trkpt lat="47.07491" lon="5.84305">
        <ele>320</ele>
        <time>2011-08-16T13:15:51Z</time>
      </trkpt>
      <trkpt lat="47.07501" lon="5.84326">
        <ele>315</ele>
        <time>2011-08-16T13:15:53Z</time>
      </trkpt>
      <trkpt lat="47.07507" lon="5.84337">
        <ele>315</ele>
        <time>2011-08-16T13:15:54Z</time>
      </trkpt>
      <trkpt lat="47.07514" lon="5.84347">
        <ele>315</ele>
        <time>2011-08-16T13:15:55Z</time>
      </trkpt>
      <trkpt lat="47.0752" lon="5.84356">
        <ele>315</ele>
        <time>2011-08-16T13:15:56Z</time>
      </trkpt>
      <trkpt lat="47.07528" lon="5.84365">
        <ele>315</ele>
        <time>2011-08-16T13:15:57Z</time>
      </trkpt>
      <trkpt lat="47.07535" lon="5.84373">
        <ele>315</ele>
        <time>2011-08-16T13:15:58Z</time>
      </trkpt>
      <trkpt lat="47.07543" lon="5.8438">
        <ele>315</ele>
        <time>2011-08-16T13:15:59Z</time>
      </trkpt>
      <trkpt lat="47.07551" lon="5.84387">
        <ele>315</ele>
        <time>2011-08-16T13:16:00Z</time>
      </trkpt>
      <trkpt lat="47.07566" lon="5.844">
        <ele>315</ele>
        <time>2011-08-16T13:16:02Z</time>
      </trkpt>
      <trkpt lat="47.07579" lon="5.84412">
        <ele>315</ele>
        <time>2011-08-16T13:16:04Z</time>
      </trkpt>
      <trkpt lat="47.0759" lon="5.84422">
        <ele>315</ele>
        <time>2011-08-16T13:16:06Z</time>
      </trkpt>
      <trkpt lat="47.07599" lon="5.84417">
        <ele>315</ele>
        <time>2011-08-16T13:16:09Z</time>
      </trkpt>
      <trkpt lat="47.07593" lon="5.84404">
        <ele>315</ele>
        <time>2011-08-16T13:16:11Z</time>
      </trkpt>
      <trkpt lat="47.07588" lon="5.8439">
        <ele>315</ele>
        <time>2011-08-16T13:16:13Z</time>
      </trkpt>
      <trkpt lat="47.07584" lon="5.84376">
        <ele>315</ele>
        <time>2011-08-16T13:16:15Z</time>
      </trkpt>
      <trkpt lat="47.07581" lon="5.8436">
        <ele>315</ele>
        <time>2011-08-16T13:16:17Z</time>
      </trkpt>
      <trkpt lat="47.0758" lon="5.84342">
        <ele>315</ele>
        <time>2011-08-16T13:16:19Z</time>
      </trkpt>
      <trkpt lat="47.07581" lon="5.84323">
        <ele>315</ele>
        <time>2011-08-16T13:16:21Z</time>
      </trkpt>
      <trkpt lat="47.07583" lon="5.84302">
        <ele>315</ele>
        <time>2011-08-16T13:16:23Z</time>
      </trkpt>
      <trkpt lat="47.07587" lon="5.84282">
        <ele>315</ele>
        <time>2011-08-16T13:16:25Z</time>
      </trkpt>
      <trkpt lat="47.07593" lon="5.84263">
        <ele>315</ele>
        <time>2011-08-16T13:16:27Z</time>
      </trkpt>
      <trkpt lat="47.07598" lon="5.84245">
        <ele>315</ele>
        <time>2011-08-16T13:16:29Z</time>
      </trkpt>
      <trkpt lat="47.07604" lon="5.84226">
        <ele>315</ele>
        <time>2011-08-16T13:16:31Z</time>
      </trkpt>
      <trkpt lat="47.07609" lon="5.84208">
        <ele>315</ele>
        <time>2011-08-16T13:16:33Z</time>
      </trkpt>
      <trkpt lat="47.07614" lon="5.84191">
        <ele>315</ele>
        <time>2011-08-16T13:16:35Z</time>
      </trkpt>
      <trkpt lat="47.07617" lon="5.84173">
        <ele>315</ele>
        <time>2011-08-16T13:16:37Z</time>
      </trkpt>
      <trkpt lat="47.07622" lon="5.84155">
        <ele>315</ele>
        <time>2011-08-16T13:16:39Z</time>
      </trkpt>
      <trkpt lat="47.07627" lon="5.84137">
        <ele>315</ele>
        <time>2011-08-16T13:16:41Z</time>
      </trkpt>
      <trkpt lat="47.07632" lon="5.84119">
        <ele>315</ele>
        <time>2011-08-16T13:16:43Z</time>
      </trkpt>
      <trkpt lat="47.07638" lon="5.84101">
        <ele>315</ele>
        <time>2011-08-16T13:16:45Z</time>
      </trkpt>
      <trkpt lat="47.07645" lon="5.84084">
        <ele>315</ele>
        <time>2011-08-16T13:16:47Z</time>
      </trkpt>
      <trkpt lat="47.07653" lon="5.84068">
        <ele>315</ele>
        <time>2011-08-16T13:16:49Z</time>
      </trkpt>
      <trkpt lat="47.07661" lon="5.84051">
        <ele>315</ele>
        <time>2011-08-16T13:16:51Z</time>
      </trkpt>
      <trkpt lat="47.07669" lon="5.84036">
        <ele>315</ele>
        <time>2011-08-16T13:16:53Z</time>
      </trkpt>
      <trkpt lat="47.07679" lon="5.84023">
        <ele>315</ele>
        <time>2011-08-16T13:16:55Z</time>
      </trkpt>
      <trkpt lat="47.07689" lon="5.84008">
        <ele>315</ele>
        <time>2011-08-16T13:16:57Z</time>
      </trkpt>
      <trkpt lat="47.07699" lon="5.83996">
        <ele>315</ele>
        <time>2011-08-16T13:16:59Z</time>
      </trkpt>
      <trkpt lat="47.0771" lon="5.83985">
        <ele>315</ele>
        <time>2011-08-16T13:17:01Z</time>
      </trkpt>
      <trkpt lat="47.07722" lon="5.83975">
        <ele>315</ele>
        <time>2011-08-16T13:17:03Z</time>
      </trkpt>
      <trkpt lat="47.07733" lon="5.83964">
        <ele>315</ele>
        <time>2011-08-16T13:17:05Z</time>
      </trkpt>
      <trkpt lat="47.07745" lon="5.83954">
        <ele>315</ele>
        <time>2011-08-16T13:17:07Z</time>
      </trkpt>
      <trkpt lat="47.07757" lon="5.83945">
        <ele>315</ele>
        <time>2011-08-16T13:17:09Z</time>
      </trkpt>
      <trkpt lat="47.07768" lon="5.83936">
        <ele>315</ele>
        <time>2011-08-16T13:17:11Z</time>
      </trkpt>
      <trkpt lat="47.07778" lon="5.83927">
        <ele>315</ele>
        <time>2011-08-16T13:17:13Z</time>
      </trkpt>
      <trkpt lat="47.07789" lon="5.83919">
        <ele>315</ele>
        <time>2011-08-16T13:17:15Z</time>
      </trkpt>
      <trkpt lat="47.07799" lon="5.83912">
        <ele>315</ele>
        <time>2011-08-16T13:17:17Z</time>
      </trkpt>
      <trkpt lat="47.0781" lon="5.83905">
        <ele>315</ele>
        <time>2011-08-16T13:17:19Z</time>
      </trkpt>
      <trkpt lat="47.07822" lon="5.83898">
        <ele>315</ele>
        <time>2011-08-16T13:17:21Z</time>
      </trkpt>
      <trkpt lat="47.07833" lon="5.8389">
        <ele>315</ele>
        <time>2011-08-16T13:17:23Z</time>
      </trkpt>
      <trkpt lat="47.07844" lon="5.83883">
        <ele>315</ele>
        <time>2011-08-16T13:17:25Z</time>
      </trkpt>
      <trkpt lat="47.07855" lon="5.83875">
        <ele>320</ele>
        <time>2011-08-16T13:17:27Z</time>
      </trkpt>
      <trkpt lat="47.07866" lon="5.8387">
        <ele>320</ele>
        <time>2011-08-16T13:17:29Z</time>
      </trkpt>
      <trkpt lat="47.07876" lon="5.83865">
        <ele>320</ele>
        <time>2011-08-16T13:17:31Z</time>
      </trkpt>
      <trkpt lat="47.07887" lon="5.83862">
        <ele>320</ele>
        <time>2011-08-16T13:17:33Z</time>
      </trkpt>
      <trkpt lat="47.07898" lon="5.83858">
        <ele>320</ele>
        <time>2011-08-16T13:17:35Z</time>
      </trkpt>
      <trkpt lat="47.07909" lon="5.83855">
        <ele>320</ele>
        <time>2011-08-16T13:17:37Z</time>
      </trkpt>
      <trkpt lat="47.0792" lon="5.8385">
        <ele>320</ele>
        <time>2011-08-16T13:17:39Z</time>
      </trkpt>
      <trkpt lat="47.07932" lon="5.83847">
        <ele>326</ele>
        <time>2011-08-16T13:17:41Z</time>
      </trkpt>
      <trkpt lat="47.07943" lon="5.83846">
        <ele>326</ele>
        <time>2011-08-16T13:17:43Z</time>
      </trkpt>
      <trkpt lat="47.07954" lon="5.83845">
        <ele>326</ele>
        <time>2011-08-16T13:17:45Z</time>
      </trkpt>
      <trkpt lat="47.07965" lon="5.83843">
        <ele>326</ele>
        <time>2011-08-16T13:17:47Z</time>
      </trkpt>
      <trkpt lat="47.07974" lon="5.8384">
        <ele>332</ele>
        <time>2011-08-16T13:17:49Z</time>
      </trkpt>
      <trkpt lat="47.07986" lon="5.8384">
        <ele>332</ele>
        <time>2011-08-16T13:17:51Z</time>
      </trkpt>
      <trkpt lat="47.07998" lon="5.83839">
        <ele>332</ele>
        <time>2011-08-16T13:17:53Z</time>
      </trkpt>
      <trkpt lat="47.08009" lon="5.83839">
        <ele>332</ele>
        <time>2011-08-16T13:17:55Z</time>
      </trkpt>
      <trkpt lat="47.08021" lon="5.83841">
        <ele>332</ele>
        <time>2011-08-16T13:17:57Z</time>
      </trkpt>
      <trkpt lat="47.08032" lon="5.8384">
        <ele>332</ele>
        <time>2011-08-16T13:17:59Z</time>
      </trkpt>
      <trkpt lat="47.08043" lon="5.8384">
        <ele>332</ele>
        <time>2011-08-16T13:18:01Z</time>
      </trkpt>
      <trkpt lat="47.08055" lon="5.83842">
        <ele>332</ele>
        <time>2011-08-16T13:18:03Z</time>
      </trkpt>
      <trkpt lat="47.08066" lon="5.83844">
        <ele>332</ele>
        <time>2011-08-16T13:18:05Z</time>
      </trkpt>
      <trkpt lat="47.08079" lon="5.83844">
        <ele>332</ele>
        <time>2011-08-16T13:18:07Z</time>
      </trkpt>
      <trkpt lat="47.08093" lon="5.83844">
        <ele>332</ele>
        <time>2011-08-16T13:18:09Z</time>
      </trkpt>
      <trkpt lat="47.08108" lon="5.83843">
        <ele>332</ele>
        <time>2011-08-16T13:18:11Z</time>
      </trkpt>
      <trkpt lat="47.08125" lon="5.83843">
        <ele>332</ele>
        <time>2011-08-16T13:18:13Z</time>
      </trkpt>
      <trkpt lat="47.08134" lon="5.83842">
        <ele>332</ele>
        <time>2011-08-16T13:18:14Z</time>
      </trkpt>
      <trkpt lat="47.08144" lon="5.83841">
        <ele>332</ele>
        <time>2011-08-16T13:18:15Z</time>
      </trkpt>
      <trkpt lat="47.08153" lon="5.83839">
        <ele>332</ele>
        <time>2011-08-16T13:18:16Z</time>
      </trkpt>
      <trkpt lat="47.08163" lon="5.83836">
        <ele>332</ele>
        <time>2011-08-16T13:18:17Z</time>
      </trkpt>
      <trkpt lat="47.08173" lon="5.83833">
        <ele>332</ele>
        <time>2011-08-16T13:18:18Z</time>
      </trkpt>
      <trkpt lat="47.08183" lon="5.83828">
        <ele>332</ele>
        <time>2011-08-16T13:18:19Z</time>
      </trkpt>
      <trkpt lat="47.08192" lon="5.83821">
        <ele>332</ele>
        <time>2011-08-16T13:18:20Z</time>
      </trkpt>
      <trkpt lat="47.08202" lon="5.83812">
        <ele>326</ele>
        <time>2011-08-16T13:18:21Z</time>
      </trkpt>
      <trkpt lat="47.0821" lon="5.83803">
        <ele>326</ele>
        <time>2011-08-16T13:18:22Z</time>
      </trkpt>
      <trkpt lat="47.08218" lon="5.83793">
        <ele>326</ele>
        <time>2011-08-16T13:18:23Z</time>
      </trkpt>
      <trkpt lat="47.08223" lon="5.83781">
        <ele>321</ele>
        <time>2011-08-16T13:18:24Z</time>
      </trkpt>
      <trkpt lat="47.08216" lon="5.83757">
        <ele>321</ele>
        <time>2011-08-16T13:18:26Z</time>
      </trkpt>
      <trkpt lat="47.08205" lon="5.83746">
        <ele>321</ele>
        <time>2011-08-16T13:18:27Z</time>
      </trkpt>
      <trkpt lat="47.08198" lon="5.83735">
        <ele>315</ele>
        <time>2011-08-16T13:18:28Z</time>
      </trkpt>
      <trkpt lat="47.08191" lon="5.83724">
        <ele>315</ele>
        <time>2011-08-16T13:18:29Z</time>
      </trkpt>
      <trkpt lat="47.08181" lon="5.83706">
        <ele>315</ele>
        <time>2011-08-16T13:18:31Z</time>
      </trkpt>
      <trkpt lat="47.08183" lon="5.83693">
        <ele>315</ele>
        <time>2011-08-16T13:18:32Z</time>
      </trkpt>
      <trkpt lat="47.08186" lon="5.83679">
        <ele>315</ele>
        <time>2011-08-16T13:18:33Z</time>
      </trkpt>
      <trkpt lat="47.0819" lon="5.83665">
        <ele>315</ele>
        <time>2011-08-16T13:18:34Z</time>
      </trkpt>
      <trkpt lat="47.08195" lon="5.83653">
        <ele>315</ele>
        <time>2011-08-16T13:18:35Z</time>
      </trkpt>
      <trkpt lat="47.08202" lon="5.8364">
        <ele>315</ele>
        <time>2011-08-16T13:18:36Z</time>
      </trkpt>
      <trkpt lat="47.08206" lon="5.83627">
        <ele>315</ele>
        <time>2011-08-16T13:18:37Z</time>
      </trkpt>
      <trkpt lat="47.08211" lon="5.83614">
        <ele>315</ele>
        <time>2011-08-16T13:18:38Z</time>
      </trkpt>
      <trkpt lat="47.08216" lon="5.836">
        <ele>315</ele>
        <time>2011-08-16T13:18:39Z</time>
      </trkpt>
      <trkpt lat="47.08219" lon="5.83586">
        <ele>315</ele>
        <time>2011-08-16T13:18:40Z</time>
      </trkpt>
      <trkpt lat="47.08223" lon="5.83573">
        <ele>315</ele>
        <time>2011-08-16T13:18:41Z</time>
      </trkpt>
      <trkpt lat="47.08228" lon="5.83559">
        <ele>315</ele>
        <time>2011-08-16T13:18:42Z</time>
      </trkpt>
      <trkpt lat="47.08235" lon="5.83547">
        <ele>315</ele>
        <time>2011-08-16T13:18:43Z</time>
      </trkpt>
      <trkpt lat="47.08242" lon="5.83534">
        <ele>315</ele>
        <time>2011-08-16T13:18:44Z</time>
      </trkpt>
      <trkpt lat="47.08249" lon="5.83522">
        <ele>310</ele>
        <time>2011-08-16T13:18:45Z</time>
      </trkpt>
      <trkpt lat="47.08257" lon="5.8351">
        <ele>310</ele>
        <time>2011-08-16T13:18:46Z</time>
      </trkpt>
      <trkpt lat="47.08265" lon="5.83496">
        <ele>310</ele>
        <time>2011-08-16T13:18:47Z</time>
      </trkpt>
      <trkpt lat="47.08271" lon="5.83483">
        <ele>310</ele>
        <time>2011-08-16T13:18:48Z</time>
      </trkpt>
      <trkpt lat="47.08278" lon="5.83468">
        <ele>310</ele>
        <time>2011-08-16T13:18:49Z</time>
      </trkpt>
      <trkpt lat="47.08285" lon="5.83454">
        <ele>304</ele>
        <time>2011-08-16T13:18:50Z</time>
      </trkpt>
      <trkpt lat="47.08292" lon="5.83441">
        <ele>304</ele>
        <time>2011-08-16T13:18:51Z</time>
      </trkpt>
      <trkpt lat="47.083" lon="5.83427">
        <ele>304</ele>
        <time>2011-08-16T13:18:52Z</time>
      </trkpt>
      <trkpt lat="47.0831" lon="5.83415">
        <ele>304</ele>
        <time>2011-08-16T13:18:53Z</time>
      </trkpt>
      <trkpt lat="47.08319" lon="5.83403">
        <ele>304</ele>
        <time>2011-08-16T13:18:54Z</time>
      </trkpt>
      <trkpt lat="47.08329" lon="5.83393">
        <ele>304</ele>
        <time>2011-08-16T13:18:55Z</time>
      </trkpt>
      <trkpt lat="47.0834" lon="5.83386">
        <ele>304</ele>
        <time>2011-08-16T13:18:56Z</time>
      </trkpt>
      <trkpt lat="47.08351" lon="5.83379">
        <ele>304</ele>
        <time>2011-08-16T13:18:57Z</time>
      </trkpt>
      <trkpt lat="47.08363" lon="5.83376">
        <ele>304</ele>
        <time>2011-08-16T13:18:58Z</time>
      </trkpt>
      <trkpt lat="47.08376" lon="5.83372">
        <ele>298</ele>
        <time>2011-08-16T13:18:59Z</time>
      </trkpt>
      <trkpt lat="47.08388" lon="5.83369">
        <ele>298</ele>
        <time>2011-08-16T13:19:00Z</time>
      </trkpt>
      <trkpt lat="47.08398" lon="5.83363">
        <ele>298</ele>
        <time>2011-08-16T13:19:01Z</time>
      </trkpt>
      <trkpt lat="47.0841" lon="5.83359">
        <ele>298</ele>
        <time>2011-08-16T13:19:02Z</time>
      </trkpt>
      <trkpt lat="47.08421" lon="5.83354">
        <ele>298</ele>
        <time>2011-08-16T13:19:03Z</time>
      </trkpt>
      <trkpt lat="47.08432" lon="5.83348">
        <ele>298</ele>
        <time>2011-08-16T13:19:04Z</time>
      </trkpt>
      <trkpt lat="47.08443" lon="5.83341">
        <ele>298</ele>
        <time>2011-08-16T13:19:05Z</time>
      </trkpt>
      <trkpt lat="47.08454" lon="5.83334">
        <ele>298</ele>
        <time>2011-08-16T13:19:06Z</time>
      </trkpt>
      <trkpt lat="47.08465" lon="5.83326">
        <ele>298</ele>
        <time>2011-08-16T13:19:07Z</time>
      </trkpt>
      <trkpt lat="47.08475" lon="5.83319">
        <ele>298</ele>
        <time>2011-08-16T13:19:08Z</time>
      </trkpt>
      <trkpt lat="47.08486" lon="5.83313">
        <ele>298</ele>
        <time>2011-08-16T13:19:09Z</time>
      </trkpt>
      <trkpt lat="47.08497" lon="5.83306">
        <ele>298</ele>
        <time>2011-08-16T13:19:10Z</time>
      </trkpt>
      <trkpt lat="47.08508" lon="5.83298">
        <ele>298</ele>
        <time>2011-08-16T13:19:11Z</time>
      </trkpt>
      <trkpt lat="47.08519" lon="5.8329">
        <ele>292</ele>
        <time>2011-08-16T13:19:12Z</time>
      </trkpt>
      <trkpt lat="47.08529" lon="5.8328">
        <ele>292</ele>
        <time>2011-08-16T13:19:13Z</time>
      </trkpt>
      <trkpt lat="47.08538" lon="5.83269">
        <ele>292</ele>
        <time>2011-08-16T13:19:14Z</time>
      </trkpt>
      <trkpt lat="47.08546" lon="5.83256">
        <ele>292</ele>
        <time>2011-08-16T13:19:15Z</time>
      </trkpt>
      <trkpt lat="47.08552" lon="5.83241">
        <ele>292</ele>
        <time>2011-08-16T13:19:16Z</time>
      </trkpt>
      <trkpt lat="47.08556" lon="5.83227">
        <ele>292</ele>
        <time>2011-08-16T13:19:17Z</time>
      </trkpt>
      <trkpt lat="47.0856" lon="5.83212">
        <ele>292</ele>
        <time>2011-08-16T13:19:18Z</time>
      </trkpt>
      <trkpt lat="47.08562" lon="5.832">
        <ele>292</ele>
        <time>2011-08-16T13:19:19Z</time>
      </trkpt>
      <trkpt lat="47.08567" lon="5.83176">
        <ele>292</ele>
        <time>2011-08-16T13:19:21Z</time>
      </trkpt>
      <trkpt lat="47.0857" lon="5.83156">
        <ele>292</ele>
        <time>2011-08-16T13:19:23Z</time>
      </trkpt>
      <trkpt lat="47.08572" lon="5.83136">
        <ele>292</ele>
        <time>2011-08-16T13:19:25Z</time>
      </trkpt>
      <trkpt lat="47.08575" lon="5.83118">
        <ele>292</ele>
        <time>2011-08-16T13:19:27Z</time>
      </trkpt>
      <trkpt lat="47.08579" lon="5.83101">
        <ele>292</ele>
        <time>2011-08-16T13:19:29Z</time>
      </trkpt>
      <trkpt lat="47.08581" lon="5.83086">
        <ele>292</ele>
        <time>2011-08-16T13:19:31Z</time>
      </trkpt>
      <trkpt lat="47.08584" lon="5.8307">
        <ele>292</ele>
        <time>2011-08-16T13:19:33Z</time>
      </trkpt>
      <trkpt lat="47.08587" lon="5.83055">
        <ele>292</ele>
        <time>2011-08-16T13:19:35Z</time>
      </trkpt>
      <trkpt lat="47.08592" lon="5.83042">
        <ele>292</ele>
        <time>2011-08-16T13:19:37Z</time>
      </trkpt>
      <trkpt lat="47.08595" lon="5.83028">
        <ele>301</ele>
        <time>2011-08-16T13:19:39Z</time>
      </trkpt>
      <trkpt lat="47.08599" lon="5.83014">
        <ele>301</ele>
        <time>2011-08-16T13:19:41Z</time>
      </trkpt>
      <trkpt lat="47.08599" lon="5.82997">
        <ele>312</ele>
        <time>2011-08-16T13:19:44Z</time>
      </trkpt>
      <trkpt lat="47.086" lon="5.82977">
        <ele>312</ele>
        <time>2011-08-16T13:19:47Z</time>
      </trkpt>
      <trkpt lat="47.08602" lon="5.82964">
        <ele>312</ele>
        <time>2011-08-16T13:19:49Z</time>
      </trkpt>
      <trkpt lat="47.08602" lon="5.82949">
        <ele>318</ele>
        <time>2011-08-16T13:19:51Z</time>
      </trkpt>
      <trkpt lat="47.08603" lon="5.82933">
        <ele>318</ele>
        <time>2011-08-16T13:19:53Z</time>
      </trkpt>
      <trkpt lat="47.08606" lon="5.82919">
        <ele>318</ele>
        <time>2011-08-16T13:19:55Z</time>
      </trkpt>
      <trkpt lat="47.08608" lon="5.82902">
        <ele>318</ele>
        <time>2011-08-16T13:19:57Z</time>
      </trkpt>
      <trkpt lat="47.08611" lon="5.82883">
        <ele>318</ele>
        <time>2011-08-16T13:20:00Z</time>
      </trkpt>
      <trkpt lat="47.08615" lon="5.8287">
        <ele>312</ele>
        <time>2011-08-16T13:20:02Z</time>
      </trkpt>
      <trkpt lat="47.08622" lon="5.82859">
        <ele>312</ele>
        <time>2011-08-16T13:20:04Z</time>
      </trkpt>
      <trkpt lat="47.0863" lon="5.82845">
        <ele>312</ele>
        <time>2011-08-16T13:20:07Z</time>
      </trkpt>
      <trkpt lat="47.0864" lon="5.82832">
        <ele>312</ele>
        <time>2011-08-16T13:20:10Z</time>
      </trkpt>
      <trkpt lat="47.08649" lon="5.82819">
        <ele>312</ele>
        <time>2011-08-16T13:20:13Z</time>
      </trkpt>
      <trkpt lat="47.08657" lon="5.8281">
        <ele>312</ele>
        <time>2011-08-16T13:20:15Z</time>
      </trkpt>
      <trkpt lat="47.08665" lon="5.82802">
        <ele>312</ele>
        <time>2011-08-16T13:20:17Z</time>
      </trkpt>
      <trkpt lat="47.08672" lon="5.82794">
        <ele>312</ele>
        <time>2011-08-16T13:20:19Z</time>
      </trkpt>
      <trkpt lat="47.0868" lon="5.82785">
        <ele>312</ele>
        <time>2011-08-16T13:20:21Z</time>
      </trkpt>
      <trkpt lat="47.08689" lon="5.82777">
        <ele>312</ele>
        <time>2011-08-16T13:20:23Z</time>
      </trkpt>
      <trkpt lat="47.08695" lon="5.82768">
        <ele>312</ele>
        <time>2011-08-16T13:20:25Z</time>
      </trkpt>
      <trkpt lat="47.08702" lon="5.82759">
        <ele>318</ele>
        <time>2011-08-16T13:20:27Z</time>
      </trkpt>
      <trkpt lat="47.08709" lon="5.82749">
        <ele>318</ele>
        <time>2011-08-16T13:20:29Z</time>
      </trkpt>
      <trkpt lat="47.08717" lon="5.82736">
        <ele>318</ele>
        <time>2011-08-16T13:20:32Z</time>
      </trkpt>
      <trkpt lat="47.08724" lon="5.82726">
        <ele>318</ele>
        <time>2011-08-16T13:20:34Z</time>
      </trkpt>
      <trkpt lat="47.0873" lon="5.82717">
        <ele>318</ele>
        <time>2011-08-16T13:20:36Z</time>
      </trkpt>
      <trkpt lat="47.08737" lon="5.82707">
        <ele>318</ele>
        <time>2011-08-16T13:20:38Z</time>
      </trkpt>
      <trkpt lat="47.08743" lon="5.82698">
        <ele>318</ele>
        <time>2011-08-16T13:20:40Z</time>
      </trkpt>
      <trkpt lat="47.08752" lon="5.82685">
        <ele>318</ele>
        <time>2011-08-16T13:20:43Z</time>
      </trkpt>
      <trkpt lat="47.08761" lon="5.82672">
        <ele>318</ele>
        <time>2011-08-16T13:20:46Z</time>
      </trkpt>
      <trkpt lat="47.08771" lon="5.82658">
        <ele>318</ele>
        <time>2011-08-16T13:20:49Z</time>
      </trkpt>
      <trkpt lat="47.08778" lon="5.82649">
        <ele>318</ele>
        <time>2011-08-16T13:20:51Z</time>
      </trkpt>
      <trkpt lat="47.08784" lon="5.8264">
        <ele>318</ele>
        <time>2011-08-16T13:20:53Z</time>
      </trkpt>
      <trkpt lat="47.08792" lon="5.8263">
        <ele>318</ele>
        <time>2011-08-16T13:20:55Z</time>
      </trkpt>
      <trkpt lat="47.088" lon="5.82619">
        <ele>312</ele>
        <time>2011-08-16T13:20:57Z</time>
      </trkpt>
      <trkpt lat="47.08806" lon="5.82605">
        <ele>312</ele>
        <time>2011-08-16T13:20:59Z</time>
      </trkpt>
      <trkpt lat="47.08811" lon="5.8259">
        <ele>312</ele>
        <time>2011-08-16T13:21:01Z</time>
      </trkpt>
      <trkpt lat="47.08816" lon="5.82575">
        <ele>312</ele>
        <time>2011-08-16T13:21:03Z</time>
      </trkpt>
      <trkpt lat="47.08819" lon="5.82559">
        <ele>312</ele>
        <time>2011-08-16T13:21:05Z</time>
      </trkpt>
      <trkpt lat="47.08822" lon="5.82545">
        <ele>312</ele>
        <time>2011-08-16T13:21:07Z</time>
      </trkpt>
      <trkpt lat="47.08824" lon="5.82531">
        <ele>312</ele>
        <time>2011-08-16T13:21:09Z</time>
      </trkpt>
      <trkpt lat="47.08825" lon="5.82516">
        <ele>312</ele>
        <time>2011-08-16T13:21:11Z</time>
      </trkpt>
      <trkpt lat="47.08824" lon="5.82503">
        <ele>312</ele>
        <time>2011-08-16T13:21:13Z</time>
      </trkpt>
      <trkpt lat="47.08826" lon="5.82485">
        <ele>312</ele>
        <time>2011-08-16T13:21:16Z</time>
      </trkpt>
      <trkpt lat="47.08835" lon="5.82477">
        <ele>312</ele>
        <time>2011-08-16T13:21:20Z</time>
      </trkpt>
      <trkpt lat="47.08845" lon="5.82487">
        <ele>312</ele>
        <time>2011-08-16T13:21:24Z</time>
      </trkpt>
      <trkpt lat="47.08853" lon="5.82497">
        <ele>320</ele>
        <time>2011-08-16T13:21:28Z</time>
      </trkpt>
      <trkpt lat="47.08861" lon="5.82506">
        <ele>320</ele>
        <time>2011-08-16T13:21:31Z</time>
      </trkpt>
      <trkpt lat="47.08868" lon="5.82513">
        <ele>328</ele>
        <time>2011-08-16T13:21:34Z</time>
      </trkpt>
      <trkpt lat="47.08878" lon="5.8252">
        <ele>328</ele>
        <time>2011-08-16T13:21:37Z</time>
      </trkpt>
      <trkpt lat="47.08889" lon="5.82531">
        <ele>328</ele>
        <time>2011-08-16T13:21:40Z</time>
      </trkpt>
      <trkpt lat="47.08899" lon="5.82541">
        <ele>328</ele>
        <time>2011-08-16T13:21:43Z</time>
      </trkpt>
      <trkpt lat="47.08907" lon="5.82548">
        <ele>328</ele>
        <time>2011-08-16T13:21:45Z</time>
      </trkpt>
      <trkpt lat="47.08915" lon="5.82556">
        <ele>328</ele>
        <time>2011-08-16T13:21:47Z</time>
      </trkpt>
      <trkpt lat="47.08924" lon="5.8257">
        <ele>328</ele>
        <time>2011-08-16T13:21:50Z</time>
      </trkpt>
      <trkpt lat="47.0893" lon="5.82583">
        <ele>328</ele>
        <time>2011-08-16T13:21:52Z</time>
      </trkpt>
      <trkpt lat="47.08937" lon="5.82595">
        <ele>321</ele>
        <time>2011-08-16T13:21:54Z</time>
      </trkpt>
      <trkpt lat="47.08942" lon="5.82607">
        <ele>321</ele>
        <time>2011-08-16T13:21:56Z</time>
      </trkpt>
      <trkpt lat="47.08948" lon="5.82618">
        <ele>321</ele>
        <time>2011-08-16T13:21:58Z</time>
      </trkpt>
      <trkpt lat="47.08956" lon="5.82632">
        <ele>321</ele>
        <time>2011-08-16T13:22:01Z</time>
      </trkpt>
      <trkpt lat="47.08965" lon="5.82646">
        <ele>321</ele>
        <time>2011-08-16T13:22:04Z</time>
      </trkpt>
      <trkpt lat="47.08973" lon="5.82657">
        <ele>321</ele>
        <time>2011-08-16T13:22:07Z</time>
      </trkpt>
      <trkpt lat="47.08981" lon="5.8267">
        <ele>321</ele>
        <time>2011-08-16T13:22:10Z</time>
      </trkpt>
      <trkpt lat="47.08989" lon="5.82678">
        <ele>321</ele>
        <time>2011-08-16T13:22:13Z</time>
      </trkpt>
      <trkpt lat="47.08997" lon="5.82685">
        <ele>329</ele>
        <time>2011-08-16T13:22:18Z</time>
      </trkpt>
      <trkpt lat="47.09007" lon="5.82683">
        <ele>329</ele>
        <time>2011-08-16T13:22:21Z</time>
      </trkpt>
      <trkpt lat="47.09016" lon="5.82681">
        <ele>329</ele>
        <time>2011-08-16T13:22:24Z</time>
      </trkpt>
      <trkpt lat="47.09026" lon="5.82684">
        <ele>329</ele>
        <time>2011-08-16T13:22:27Z</time>
      </trkpt>
      <trkpt lat="47.09037" lon="5.82683">
        <ele>329</ele>
        <time>2011-08-16T13:22:31Z</time>
      </trkpt>
      <trkpt lat="47.09047" lon="5.82681">
        <ele>329</ele>
        <time>2011-08-16T13:22:34Z</time>
      </trkpt>
      <trkpt lat="47.09057" lon="5.82675">
        <ele>329</ele>
        <time>2011-08-16T13:22:37Z</time>
      </trkpt>
      <trkpt lat="47.09065" lon="5.82672">
        <ele>329</ele>
        <time>2011-08-16T13:22:39Z</time>
      </trkpt>
      <trkpt lat="47.09075" lon="5.82662">
        <ele>335</ele>
        <time>2011-08-16T13:22:42Z</time>
      </trkpt>
      <trkpt lat="47.09084" lon="5.82654">
        <ele>335</ele>
        <time>2011-08-16T13:22:45Z</time>
      </trkpt>
      <trkpt lat="47.09094" lon="5.82645">
        <ele>335</ele>
        <time>2011-08-16T13:22:48Z</time>
      </trkpt>
      <trkpt lat="47.09103" lon="5.82634">
        <ele>335</ele>
        <time>2011-08-16T13:22:51Z</time>
      </trkpt>
      <trkpt lat="47.09111" lon="5.82624">
        <ele>335</ele>
        <time>2011-08-16T13:22:54Z</time>
      </trkpt>
      <trkpt lat="47.09116" lon="5.82612">
        <ele>335</ele>
        <time>2011-08-16T13:22:59Z</time>
      </trkpt>
      <trkpt lat="47.09119" lon="5.826">
        <ele>346</ele>
        <time>2011-08-16T13:23:18Z</time>
      </trkpt>
      <trkpt lat="47.09121" lon="5.82613">
        <ele>330</ele>
        <time>2011-08-16T13:23:43Z</time>
      </trkpt>
      <trkpt lat="47.09129" lon="5.82619">
        <ele>330</ele>
        <time>2011-08-16T13:23:57Z</time>
      </trkpt>
      <trkpt lat="47.09124" lon="5.82608">
        <ele>330</ele>
        <time>2011-08-16T13:24:55Z</time>
      </trkpt>
      <trkpt lat="47.09118" lon="5.82598">
        <ele>354</ele>
        <time>2011-08-16T13:25:37Z</time>
      </trkpt>
      <trkpt lat="47.09119" lon="5.82611">
        <ele>340</ele>
        <time>2011-08-16T13:25:50Z</time>
      </trkpt>
      <trkpt lat="47.09127" lon="5.82618">
        <ele>333</ele>
        <time>2011-08-16T13:26:10Z</time>
      </trkpt>
      <trkpt lat="47.09126" lon="5.82604">
        <ele>346</ele>
        <time>2011-08-16T13:28:47Z</time>
      </trkpt>
      <trkpt lat="47.09119" lon="5.82595">
        <ele>346</ele>
        <time>2011-08-16T13:29:00Z</time>
      </trkpt>
      <trkpt lat="47.09122" lon="5.82609">
        <ele>336</ele>
        <time>2011-08-16T13:30:02Z</time>
      </trkpt>
      <trkpt lat="47.09127" lon="5.82596">
        <ele>336</ele>
        <time>2011-08-16T13:30:14Z</time>
      </trkpt>
      <trkpt lat="47.09129" lon="5.82583">
        <ele>336</ele>
        <time>2011-08-16T13:30:17Z</time>
      </trkpt>
      <trkpt lat="47.09132" lon="5.82566">
        <ele>336</ele>
        <time>2011-08-16T13:30:20Z</time>
      </trkpt>
      <trkpt lat="47.09132" lon="5.82549">
        <ele>336</ele>
        <time>2011-08-16T13:30:23Z</time>
      </trkpt>
      <trkpt lat="47.09128" lon="5.82537">
        <ele>336</ele>
        <time>2011-08-16T13:30:26Z</time>
      </trkpt>
      <trkpt lat="47.09122" lon="5.82526">
        <ele>346</ele>
        <time>2011-08-16T13:30:29Z</time>
      </trkpt>
      <trkpt lat="47.09119" lon="5.82508">
        <ele>346</ele>
        <time>2011-08-16T13:30:32Z</time>
      </trkpt>
      <trkpt lat="47.09121" lon="5.82492">
        <ele>346</ele>
        <time>2011-08-16T13:30:34Z</time>
      </trkpt>
      <trkpt lat="47.09124" lon="5.82474">
        <ele>346</ele>
        <time>2011-08-16T13:30:36Z</time>
      </trkpt>
      <trkpt lat="47.09127" lon="5.82457">
        <ele>346</ele>
        <time>2011-08-16T13:30:38Z</time>
      </trkpt>
      <trkpt lat="47.09131" lon="5.82437">
        <ele>346</ele>
        <time>2011-08-16T13:30:40Z</time>
      </trkpt>
      <trkpt lat="47.09134" lon="5.82417">
        <ele>346</ele>
        <time>2011-08-16T13:30:42Z</time>
      </trkpt>
      <trkpt lat="47.09139" lon="5.82394">
        <ele>346</ele>
        <time>2011-08-16T13:30:44Z</time>
      </trkpt>
      <trkpt lat="47.09144" lon="5.82371">
        <ele>346</ele>
        <time>2011-08-16T13:30:46Z</time>
      </trkpt>
      <trkpt lat="47.09148" lon="5.82347">
        <ele>340</ele>
        <time>2011-08-16T13:30:48Z</time>
      </trkpt>
      <trkpt lat="47.09154" lon="5.82325">
        <ele>340</ele>
        <time>2011-08-16T13:30:50Z</time>
      </trkpt>
      <trkpt lat="47.09162" lon="5.82302">
        <ele>340</ele>
        <time>2011-08-16T13:30:52Z</time>
      </trkpt>
      <trkpt lat="47.0917" lon="5.82279">
        <ele>335</ele>
        <time>2011-08-16T13:30:54Z</time>
      </trkpt>
      <trkpt lat="47.09175" lon="5.82267">
        <ele>335</ele>
        <time>2011-08-16T13:30:55Z</time>
      </trkpt>
      <trkpt lat="47.0918" lon="5.82255">
        <ele>335</ele>
        <time>2011-08-16T13:30:56Z</time>
      </trkpt>
      <trkpt lat="47.09184" lon="5.82242">
        <ele>335</ele>
        <time>2011-08-16T13:30:57Z</time>
      </trkpt>
      <trkpt lat="47.0919" lon="5.8223">
        <ele>335</ele>
        <time>2011-08-16T13:30:58Z</time>
      </trkpt>
      <trkpt lat="47.09194" lon="5.82217">
        <ele>329</ele>
        <time>2011-08-16T13:30:59Z</time>
      </trkpt>
      <trkpt lat="47.09198" lon="5.82204">
        <ele>329</ele>
        <time>2011-08-16T13:31:00Z</time>
      </trkpt>
      <trkpt lat="47.09203" lon="5.82192">
        <ele>329</ele>
        <time>2011-08-16T13:31:01Z</time>
      </trkpt>
      <trkpt lat="47.09208" lon="5.82178">
        <ele>329</ele>
        <time>2011-08-16T13:31:02Z</time>
      </trkpt>
      <trkpt lat="47.09213" lon="5.82166">
        <ele>323</ele>
        <time>2011-08-16T13:31:03Z</time>
      </trkpt>
      <trkpt lat="47.09218" lon="5.82152">
        <ele>323</ele>
        <time>2011-08-16T13:31:04Z</time>
      </trkpt>
      <trkpt lat="47.09222" lon="5.8214">
        <ele>323</ele>
        <time>2011-08-16T13:31:05Z</time>
      </trkpt>
      <trkpt lat="47.09227" lon="5.82125">
        <ele>323</ele>
        <time>2011-08-16T13:31:06Z</time>
      </trkpt>
      <trkpt lat="47.0923" lon="5.82111">
        <ele>323</ele>
        <time>2011-08-16T13:31:07Z</time>
      </trkpt>
      <trkpt lat="47.09232" lon="5.82096">
        <ele>317</ele>
        <time>2011-08-16T13:31:08Z</time>
      </trkpt>
      <trkpt lat="47.09231" lon="5.82081">
        <ele>317</ele>
        <time>2011-08-16T13:31:09Z</time>
      </trkpt>
      <trkpt lat="47.09233" lon="5.82065">
        <ele>317</ele>
        <time>2011-08-16T13:31:10Z</time>
      </trkpt>
      <trkpt lat="47.09235" lon="5.8205">
        <ele>317</ele>
        <time>2011-08-16T13:31:11Z</time>
      </trkpt>
      <trkpt lat="47.09237" lon="5.82034">
        <ele>317</ele>
        <time>2011-08-16T13:31:12Z</time>
      </trkpt>
      <trkpt lat="47.09238" lon="5.82019">
        <ele>311</ele>
        <time>2011-08-16T13:31:13Z</time>
      </trkpt>
      <trkpt lat="47.09242" lon="5.82002">
        <ele>311</ele>
        <time>2011-08-16T13:31:14Z</time>
      </trkpt>
      <trkpt lat="47.09246" lon="5.81988">
        <ele>311</ele>
        <time>2011-08-16T13:31:15Z</time>
      </trkpt>
      <trkpt lat="47.0925" lon="5.81973">
        <ele>311</ele>
        <time>2011-08-16T13:31:16Z</time>
      </trkpt>
      <trkpt lat="47.09256" lon="5.81958">
        <ele>311</ele>
        <time>2011-08-16T13:31:17Z</time>
      </trkpt>
      <trkpt lat="47.09262" lon="5.81945">
        <ele>306</ele>
        <time>2011-08-16T13:31:18Z</time>
      </trkpt>
      <trkpt lat="47.09269" lon="5.8193">
        <ele>306</ele>
        <time>2011-08-16T13:31:19Z</time>
      </trkpt>
      <trkpt lat="47.09275" lon="5.81917">
        <ele>306</ele>
        <time>2011-08-16T13:31:20Z</time>
      </trkpt>
      <trkpt lat="47.09281" lon="5.81904">
        <ele>306</ele>
        <time>2011-08-16T13:31:21Z</time>
      </trkpt>
      <trkpt lat="47.09288" lon="5.81889">
        <ele>306</ele>
        <time>2011-08-16T13:31:22Z</time>
      </trkpt>
      <trkpt lat="47.09292" lon="5.81874">
        <ele>306</ele>
        <time>2011-08-16T13:31:23Z</time>
      </trkpt>
      <trkpt lat="47.09297" lon="5.81859">
        <ele>306</ele>
        <time>2011-08-16T13:31:24Z</time>
      </trkpt>
      <trkpt lat="47.09299" lon="5.81841">
        <ele>300</ele>
        <time>2011-08-16T13:31:25Z</time>
      </trkpt>
      <trkpt lat="47.093" lon="5.81824">
        <ele>300</ele>
        <time>2011-08-16T13:31:26Z</time>
      </trkpt>
      <trkpt lat="47.093" lon="5.81807">
        <ele>300</ele>
        <time>2011-08-16T13:31:27Z</time>
      </trkpt>
      <trkpt lat="47.09299" lon="5.81791">
        <ele>300</ele>
        <time>2011-08-16T13:31:28Z</time>
      </trkpt>
      <trkpt lat="47.09297" lon="5.81775">
        <ele>300</ele>
        <time>2011-08-16T13:31:29Z</time>
      </trkpt>
      <trkpt lat="47.09295" lon="5.81758">
        <ele>300</ele>
        <time>2011-08-16T13:31:30Z</time>
      </trkpt>
      <trkpt lat="47.09293" lon="5.81742">
        <ele>300</ele>
        <time>2011-08-16T13:31:31Z</time>
      </trkpt>
      <trkpt lat="47.09292" lon="5.81726">
        <ele>300</ele>
        <time>2011-08-16T13:31:32Z</time>
      </trkpt>
      <trkpt lat="47.09291" lon="5.8171">
        <ele>300</ele>
        <time>2011-08-16T13:31:33Z</time>
      </trkpt>
      <trkpt lat="47.09289" lon="5.81693">
        <ele>300</ele>
        <time>2011-08-16T13:31:34Z</time>
      </trkpt>
      <trkpt lat="47.09288" lon="5.81677">
        <ele>300</ele>
        <time>2011-08-16T13:31:35Z</time>
      </trkpt>
      <trkpt lat="47.09288" lon="5.81661">
        <ele>300</ele>
        <time>2011-08-16T13:31:36Z</time>
      </trkpt>
      <trkpt lat="47.09288" lon="5.81645">
        <ele>300</ele>
        <time>2011-08-16T13:31:37Z</time>
      </trkpt>
      <trkpt lat="47.09289" lon="5.8163">
        <ele>300</ele>
        <time>2011-08-16T13:31:38Z</time>
      </trkpt>
      <trkpt lat="47.09289" lon="5.81614">
        <ele>300</ele>
        <time>2011-08-16T13:31:39Z</time>
      </trkpt>
      <trkpt lat="47.0929" lon="5.81601">
        <ele>300</ele>
        <time>2011-08-16T13:31:40Z</time>
      </trkpt>
      <trkpt lat="47.09296" lon="5.81577">
        <ele>300</ele>
        <time>2011-08-16T13:31:42Z</time>
      </trkpt>
      <trkpt lat="47.09303" lon="5.81559">
        <ele>300</ele>
        <time>2011-08-16T13:31:44Z</time>
      </trkpt>
      <trkpt lat="47.09312" lon="5.81541">
        <ele>300</ele>
        <time>2011-08-16T13:31:46Z</time>
      </trkpt>
      <trkpt lat="47.09322" lon="5.81524">
        <ele>300</ele>
        <time>2011-08-16T13:31:48Z</time>
      </trkpt>
      <trkpt lat="47.09334" lon="5.81508">
        <ele>300</ele>
        <time>2011-08-16T13:31:50Z</time>
      </trkpt>
      <trkpt lat="47.09346" lon="5.81494">
        <ele>300</ele>
        <time>2011-08-16T13:31:52Z</time>
      </trkpt>
      <trkpt lat="47.09357" lon="5.81481">
        <ele>300</ele>
        <time>2011-08-16T13:31:54Z</time>
      </trkpt>
      <trkpt lat="47.09368" lon="5.8147">
        <ele>300</ele>
        <time>2011-08-16T13:31:56Z</time>
      </trkpt>
      <trkpt lat="47.0938" lon="5.81459">
        <ele>300</ele>
        <time>2011-08-16T13:31:58Z</time>
      </trkpt>
      <trkpt lat="47.09392" lon="5.81448">
        <ele>300</ele>
        <time>2011-08-16T13:32:00Z</time>
      </trkpt>
      <trkpt lat="47.09407" lon="5.81437">
        <ele>300</ele>
        <time>2011-08-16T13:32:02Z</time>
      </trkpt>
      <trkpt lat="47.09422" lon="5.81427">
        <ele>300</ele>
        <time>2011-08-16T13:32:04Z</time>
      </trkpt>
      <trkpt lat="47.0944" lon="5.81418">
        <ele>300</ele>
        <time>2011-08-16T13:32:06Z</time>
      </trkpt>
      <trkpt lat="47.09449" lon="5.81415">
        <ele>300</ele>
        <time>2011-08-16T13:32:07Z</time>
      </trkpt>
      <trkpt lat="47.09459" lon="5.81412">
        <ele>300</ele>
        <time>2011-08-16T13:32:08Z</time>
      </trkpt>
      <trkpt lat="47.09468" lon="5.81411">
        <ele>300</ele>
        <time>2011-08-16T13:32:09Z</time>
      </trkpt>
      <trkpt lat="47.09478" lon="5.81412">
        <ele>300</ele>
        <time>2011-08-16T13:32:10Z</time>
      </trkpt>
      <trkpt lat="47.09489" lon="5.81412">
        <ele>300</ele>
        <time>2011-08-16T13:32:11Z</time>
      </trkpt>
      <trkpt lat="47.09499" lon="5.81414">
        <ele>300</ele>
        <time>2011-08-16T13:32:12Z</time>
      </trkpt>
      <trkpt lat="47.09509" lon="5.81416">
        <ele>300</ele>
        <time>2011-08-16T13:32:13Z</time>
      </trkpt>
      <trkpt lat="47.09519" lon="5.81418">
        <ele>300</ele>
        <time>2011-08-16T13:32:14Z</time>
      </trkpt>
      <trkpt lat="47.09529" lon="5.81422">
        <ele>295</ele>
        <time>2011-08-16T13:32:15Z</time>
      </trkpt>
      <trkpt lat="47.09539" lon="5.81427">
        <ele>295</ele>
        <time>2011-08-16T13:32:16Z</time>
      </trkpt>
      <trkpt lat="47.09548" lon="5.81432">
        <ele>295</ele>
        <time>2011-08-16T13:32:17Z</time>
      </trkpt>
      <trkpt lat="47.09557" lon="5.81436">
        <ele>295</ele>
        <time>2011-08-16T13:32:18Z</time>
      </trkpt>
      <trkpt lat="47.09566" lon="5.81439">
        <ele>295</ele>
        <time>2011-08-16T13:32:19Z</time>
      </trkpt>
      <trkpt lat="47.09575" lon="5.81441">
        <ele>295</ele>
        <time>2011-08-16T13:32:20Z</time>
      </trkpt>
      <trkpt lat="47.09592" lon="5.81442">
        <ele>295</ele>
        <time>2011-08-16T13:32:22Z</time>
      </trkpt>
      <trkpt lat="47.09608" lon="5.81439">
        <ele>295</ele>
        <time>2011-08-16T13:32:24Z</time>
      </trkpt>
      <trkpt lat="47.09622" lon="5.81435">
        <ele>295</ele>
        <time>2011-08-16T13:32:26Z</time>
      </trkpt>
      <trkpt lat="47.09635" lon="5.81431">
        <ele>295</ele>
        <time>2011-08-16T13:32:28Z</time>
      </trkpt>
      <trkpt lat="47.09646" lon="5.81427">
        <ele>295</ele>
        <time>2011-08-16T13:32:30Z</time>
      </trkpt>
      <trkpt lat="47.09656" lon="5.81425">
        <ele>295</ele>
        <time>2011-08-16T13:32:32Z</time>
      </trkpt>
      <trkpt lat="47.09665" lon="5.81421">
        <ele>295</ele>
        <time>2011-08-16T13:32:34Z</time>
      </trkpt>
      <trkpt lat="47.09675" lon="5.81415">
        <ele>295</ele>
        <time>2011-08-16T13:32:36Z</time>
      </trkpt>
      <trkpt lat="47.09684" lon="5.81406">
        <ele>295</ele>
        <time>2011-08-16T13:32:38Z</time>
      </trkpt>
      <trkpt lat="47.09695" lon="5.81396">
        <ele>295</ele>
        <time>2011-08-16T13:32:40Z</time>
      </trkpt>
      <trkpt lat="47.09707" lon="5.81386">
        <ele>295</ele>
        <time>2011-08-16T13:32:42Z</time>
      </trkpt>
      <trkpt lat="47.09721" lon="5.81375">
        <ele>295</ele>
        <time>2011-08-16T13:32:44Z</time>
      </trkpt>
      <trkpt lat="47.09737" lon="5.81364">
        <ele>295</ele>
        <time>2011-08-16T13:32:46Z</time>
      </trkpt>
      <trkpt lat="47.09751" lon="5.81346">
        <ele>295</ele>
        <time>2011-08-16T13:32:48Z</time>
      </trkpt>
      <trkpt lat="47.09758" lon="5.81338">
        <ele>295</ele>
        <time>2011-08-16T13:32:49Z</time>
      </trkpt>
      <trkpt lat="47.09767" lon="5.8133">
        <ele>295</ele>
        <time>2011-08-16T13:32:50Z</time>
      </trkpt>
      <trkpt lat="47.09776" lon="5.81324">
        <ele>295</ele>
        <time>2011-08-16T13:32:51Z</time>
      </trkpt>
      <trkpt lat="47.09786" lon="5.8132">
        <ele>290</ele>
        <time>2011-08-16T13:32:52Z</time>
      </trkpt>
      <trkpt lat="47.09795" lon="5.81315">
        <ele>290</ele>
        <time>2011-08-16T13:32:53Z</time>
      </trkpt>
      <trkpt lat="47.09807" lon="5.81311">
        <ele>290</ele>
        <time>2011-08-16T13:32:54Z</time>
      </trkpt>
      <trkpt lat="47.09818" lon="5.81307">
        <ele>290</ele>
        <time>2011-08-16T13:32:55Z</time>
      </trkpt>
      <trkpt lat="47.09827" lon="5.81303">
        <ele>290</ele>
        <time>2011-08-16T13:32:56Z</time>
      </trkpt>
      <trkpt lat="47.09836" lon="5.81296">
        <ele>290</ele>
        <time>2011-08-16T13:32:57Z</time>
      </trkpt>
      <trkpt lat="47.09848" lon="5.81277">
        <ele>290</ele>
        <time>2011-08-16T13:32:59Z</time>
      </trkpt>
      <trkpt lat="47.09853" lon="5.81264">
        <ele>290</ele>
        <time>2011-08-16T13:33:00Z</time>
      </trkpt>
      <trkpt lat="47.09857" lon="5.8125">
        <ele>290</ele>
        <time>2011-08-16T13:33:01Z</time>
      </trkpt>
      <trkpt lat="47.09862" lon="5.81237">
        <ele>290</ele>
        <time>2011-08-16T13:33:02Z</time>
      </trkpt>
      <trkpt lat="47.09867" lon="5.81223">
        <ele>290</ele>
        <time>2011-08-16T13:33:03Z</time>
      </trkpt>
      <trkpt lat="47.09871" lon="5.81207">
        <ele>284</ele>
        <time>2011-08-16T13:33:04Z</time>
      </trkpt>
      <trkpt lat="47.09875" lon="5.81192">
        <ele>284</ele>
        <time>2011-08-16T13:33:05Z</time>
      </trkpt>
      <trkpt lat="47.09878" lon="5.81176">
        <ele>284</ele>
        <time>2011-08-16T13:33:06Z</time>
      </trkpt>
      <trkpt lat="47.09882" lon="5.81161">
        <ele>284</ele>
        <time>2011-08-16T13:33:07Z</time>
      </trkpt>
      <trkpt lat="47.09886" lon="5.81145">
        <ele>284</ele>
        <time>2011-08-16T13:33:08Z</time>
      </trkpt>
      <trkpt lat="47.09889" lon="5.81132">
        <ele>284</ele>
        <time>2011-08-16T13:33:09Z</time>
      </trkpt>
      <trkpt lat="47.09892" lon="5.81119">
        <ele>284</ele>
        <time>2011-08-16T13:33:10Z</time>
      </trkpt>
      <trkpt lat="47.09897" lon="5.811">
        <ele>284</ele>
        <time>2011-08-16T13:33:12Z</time>
      </trkpt>
      <trkpt lat="47.09902" lon="5.81086">
        <ele>284</ele>
        <time>2011-08-16T13:33:14Z</time>
      </trkpt>
      <trkpt lat="47.09913" lon="5.81089">
        <ele>284</ele>
        <time>2011-08-16T13:33:17Z</time>
      </trkpt>
      <trkpt lat="47.09923" lon="5.81093">
        <ele>284</ele>
        <time>2011-08-16T13:33:19Z</time>
      </trkpt>
      <trkpt lat="47.09934" lon="5.81097">
        <ele>284</ele>
        <time>2011-08-16T13:33:21Z</time>
      </trkpt>
      <trkpt lat="47.09945" lon="5.811">
        <ele>284</ele>
        <time>2011-08-16T13:33:23Z</time>
      </trkpt>
      <trkpt lat="47.09955" lon="5.81103">
        <ele>284</ele>
        <time>2011-08-16T13:33:25Z</time>
      </trkpt>
      <trkpt lat="47.09965" lon="5.81108">
        <ele>284</ele>
        <time>2011-08-16T13:33:27Z</time>
      </trkpt>
      <trkpt lat="47.09975" lon="5.81113">
        <ele>284</ele>
        <time>2011-08-16T13:33:29Z</time>
      </trkpt>
      <trkpt lat="47.09984" lon="5.81118">
        <ele>284</ele>
        <time>2011-08-16T13:33:31Z</time>
      </trkpt>
      <trkpt lat="47.09994" lon="5.81122">
        <ele>284</ele>
        <time>2011-08-16T13:33:33Z</time>
      </trkpt>
      <trkpt lat="47.10003" lon="5.81125">
        <ele>284</ele>
        <time>2011-08-16T13:33:35Z</time>
      </trkpt>
      <trkpt lat="47.10014" lon="5.81129">
        <ele>284</ele>
        <time>2011-08-16T13:33:37Z</time>
      </trkpt>
      <trkpt lat="47.10024" lon="5.81135">
        <ele>284</ele>
        <time>2011-08-16T13:33:39Z</time>
      </trkpt>
      <trkpt lat="47.10033" lon="5.81137">
        <ele>284</ele>
        <time>2011-08-16T13:33:41Z</time>
      </trkpt>
      <trkpt lat="47.10047" lon="5.81143">
        <ele>284</ele>
        <time>2011-08-16T13:33:43Z</time>
      </trkpt>
      <trkpt lat="47.1006" lon="5.81148">
        <ele>284</ele>
        <time>2011-08-16T13:33:45Z</time>
      </trkpt>
      <trkpt lat="47.10072" lon="5.81153">
        <ele>284</ele>
        <time>2011-08-16T13:33:47Z</time>
      </trkpt>
      <trkpt lat="47.10084" lon="5.81155">
        <ele>284</ele>
        <time>2011-08-16T13:33:49Z</time>
      </trkpt>
      <trkpt lat="47.10098" lon="5.81153">
        <ele>284</ele>
        <time>2011-08-16T13:33:51Z</time>
      </trkpt>
      <trkpt lat="47.1011" lon="5.81148">
        <ele>284</ele>
        <time>2011-08-16T13:33:53Z</time>
      </trkpt>
      <trkpt lat="47.10121" lon="5.81143">
        <ele>284</ele>
        <time>2011-08-16T13:33:55Z</time>
      </trkpt>
      <trkpt lat="47.10132" lon="5.81137">
        <ele>284</ele>
        <time>2011-08-16T13:33:57Z</time>
      </trkpt>
      <trkpt lat="47.10143" lon="5.8113">
        <ele>284</ele>
        <time>2011-08-16T13:33:59Z</time>
      </trkpt>
      <trkpt lat="47.10156" lon="5.81124">
        <ele>284</ele>
        <time>2011-08-16T13:34:01Z</time>
      </trkpt>
      <trkpt lat="47.10171" lon="5.81118">
        <ele>284</ele>
        <time>2011-08-16T13:34:03Z</time>
      </trkpt>
      <trkpt lat="47.10187" lon="5.81117">
        <ele>278</ele>
        <time>2011-08-16T13:34:05Z</time>
      </trkpt>
      <trkpt lat="47.10205" lon="5.81115">
        <ele>278</ele>
        <time>2011-08-16T13:34:07Z</time>
      </trkpt>
      <trkpt lat="47.10222" lon="5.81113">
        <ele>278</ele>
        <time>2011-08-16T13:34:09Z</time>
      </trkpt>
      <trkpt lat="47.10239" lon="5.8111">
        <ele>278</ele>
        <time>2011-08-16T13:34:11Z</time>
      </trkpt>
      <trkpt lat="47.10256" lon="5.81107">
        <ele>278</ele>
        <time>2011-08-16T13:34:13Z</time>
      </trkpt>
      <trkpt lat="47.10271" lon="5.81102">
        <ele>278</ele>
        <time>2011-08-16T13:34:15Z</time>
      </trkpt>
      <trkpt lat="47.10287" lon="5.81097">
        <ele>278</ele>
        <time>2011-08-16T13:34:17Z</time>
      </trkpt>
      <trkpt lat="47.10302" lon="5.81089">
        <ele>278</ele>
        <time>2011-08-16T13:34:19Z</time>
      </trkpt>
      <trkpt lat="47.10316" lon="5.81081">
        <ele>278</ele>
        <time>2011-08-16T13:34:21Z</time>
      </trkpt>
      <trkpt lat="47.1033" lon="5.81073">
        <ele>278</ele>
        <time>2011-08-16T13:34:23Z</time>
      </trkpt>
      <trkpt lat="47.10344" lon="5.81066">
        <ele>278</ele>
        <time>2011-08-16T13:34:25Z</time>
      </trkpt>
      <trkpt lat="47.10357" lon="5.81061">
        <ele>278</ele>
        <time>2011-08-16T13:34:27Z</time>
      </trkpt>
      <trkpt lat="47.10371" lon="5.81056">
        <ele>278</ele>
        <time>2011-08-16T13:34:29Z</time>
      </trkpt>
      <trkpt lat="47.10384" lon="5.8105">
        <ele>278</ele>
        <time>2011-08-16T13:34:31Z</time>
      </trkpt>
      <trkpt lat="47.10397" lon="5.81046">
        <ele>278</ele>
        <time>2011-08-16T13:34:33Z</time>
      </trkpt>
      <trkpt lat="47.10409" lon="5.81041">
        <ele>278</ele>
        <time>2011-08-16T13:34:35Z</time>
      </trkpt>
      <trkpt lat="47.10421" lon="5.81038">
        <ele>278</ele>
        <time>2011-08-16T13:34:37Z</time>
      </trkpt>
      <trkpt lat="47.10433" lon="5.81036">
        <ele>278</ele>
        <time>2011-08-16T13:34:39Z</time>
      </trkpt>
      <trkpt lat="47.10445" lon="5.81034">
        <ele>278</ele>
        <time>2011-08-16T13:34:41Z</time>
      </trkpt>
      <trkpt lat="47.10457" lon="5.81033">
        <ele>278</ele>
        <time>2011-08-16T13:34:43Z</time>
      </trkpt>
      <trkpt lat="47.10468" lon="5.8103">
        <ele>278</ele>
        <time>2011-08-16T13:34:45Z</time>
      </trkpt>
      <trkpt lat="47.10479" lon="5.81027">
        <ele>278</ele>
        <time>2011-08-16T13:34:47Z</time>
      </trkpt>
      <trkpt lat="47.10491" lon="5.81023">
        <ele>278</ele>
        <time>2011-08-16T13:34:49Z</time>
      </trkpt>
      <trkpt lat="47.10502" lon="5.81018">
        <ele>278</ele>
        <time>2011-08-16T13:34:51Z</time>
      </trkpt>
      <trkpt lat="47.10513" lon="5.81012">
        <ele>278</ele>
        <time>2011-08-16T13:34:53Z</time>
      </trkpt>
      <trkpt lat="47.10524" lon="5.81005">
        <ele>278</ele>
        <time>2011-08-16T13:34:55Z</time>
      </trkpt>
      <trkpt lat="47.10534" lon="5.80999">
        <ele>278</ele>
        <time>2011-08-16T13:34:57Z</time>
      </trkpt>
      <trkpt lat="47.10544" lon="5.80994">
        <ele>278</ele>
        <time>2011-08-16T13:34:59Z</time>
      </trkpt>
      <trkpt lat="47.10554" lon="5.80987">
        <ele>278</ele>
        <time>2011-08-16T13:35:01Z</time>
      </trkpt>
      <trkpt lat="47.10563" lon="5.80982">
        <ele>278</ele>
        <time>2011-08-16T13:35:03Z</time>
      </trkpt>
      <trkpt lat="47.10572" lon="5.80976">
        <ele>278</ele>
        <time>2011-08-16T13:35:05Z</time>
      </trkpt>
      <trkpt lat="47.10581" lon="5.80972">
        <ele>278</ele>
        <time>2011-08-16T13:35:07Z</time>
      </trkpt>
      <trkpt lat="47.1059" lon="5.80967">
        <ele>278</ele>
        <time>2011-08-16T13:35:09Z</time>
      </trkpt>
      <trkpt lat="47.10601" lon="5.80962">
        <ele>278</ele>
        <time>2011-08-16T13:35:12Z</time>
      </trkpt>
      <trkpt lat="47.1061" lon="5.80959">
        <ele>278</ele>
        <time>2011-08-16T13:35:14Z</time>
      </trkpt>
      <trkpt lat="47.10619" lon="5.80955">
        <ele>278</ele>
        <time>2011-08-16T13:35:16Z</time>
      </trkpt>
      <trkpt lat="47.10628" lon="5.8095">
        <ele>278</ele>
        <time>2011-08-16T13:35:18Z</time>
      </trkpt>
      <trkpt lat="47.10636" lon="5.80946">
        <ele>278</ele>
        <time>2011-08-16T13:35:20Z</time>
      </trkpt>
      <trkpt lat="47.10646" lon="5.80941">
        <ele>278</ele>
        <time>2011-08-16T13:35:22Z</time>
      </trkpt>
      <trkpt lat="47.10655" lon="5.80938">
        <ele>278</ele>
        <time>2011-08-16T13:35:24Z</time>
      </trkpt>
      <trkpt lat="47.10663" lon="5.80933">
        <ele>278</ele>
        <time>2011-08-16T13:35:26Z</time>
      </trkpt>
      <trkpt lat="47.10673" lon="5.8093">
        <ele>278</ele>
        <time>2011-08-16T13:35:28Z</time>
      </trkpt>
      <trkpt lat="47.10683" lon="5.80927">
        <ele>278</ele>
        <time>2011-08-16T13:35:30Z</time>
      </trkpt>
      <trkpt lat="47.10694" lon="5.80924">
        <ele>278</ele>
        <time>2011-08-16T13:35:32Z</time>
      </trkpt>
      <trkpt lat="47.10705" lon="5.80922">
        <ele>278</ele>
        <time>2011-08-16T13:35:34Z</time>
      </trkpt>
      <trkpt lat="47.10717" lon="5.80921">
        <ele>278</ele>
        <time>2011-08-16T13:35:36Z</time>
      </trkpt>
      <trkpt lat="47.10728" lon="5.80919">
        <ele>278</ele>
        <time>2011-08-16T13:35:38Z</time>
      </trkpt>
      <trkpt lat="47.10739" lon="5.80917">
        <ele>278</ele>
        <time>2011-08-16T13:35:40Z</time>
      </trkpt>
      <trkpt lat="47.10751" lon="5.80916">
        <ele>278</ele>
        <time>2011-08-16T13:35:42Z</time>
      </trkpt>
      <trkpt lat="47.1076" lon="5.80915">
        <ele>278</ele>
        <time>2011-08-16T13:35:44Z</time>
      </trkpt>
      <trkpt lat="47.1077" lon="5.80914">
        <ele>278</ele>
        <time>2011-08-16T13:35:46Z</time>
      </trkpt>
      <trkpt lat="47.10783" lon="5.80913">
        <ele>283</ele>
        <time>2011-08-16T13:35:49Z</time>
      </trkpt>
      <trkpt lat="47.10795" lon="5.80911">
        <ele>283</ele>
        <time>2011-08-16T13:35:52Z</time>
      </trkpt>
      <trkpt lat="47.10807" lon="5.80909">
        <ele>283</ele>
        <time>2011-08-16T13:35:55Z</time>
      </trkpt>
      <trkpt lat="47.10819" lon="5.80907">
        <ele>283</ele>
        <time>2011-08-16T13:35:58Z</time>
      </trkpt>
      <trkpt lat="47.10831" lon="5.80906">
        <ele>283</ele>
        <time>2011-08-16T13:36:01Z</time>
      </trkpt>
      <trkpt lat="47.10842" lon="5.80905">
        <ele>283</ele>
        <time>2011-08-16T13:36:04Z</time>
      </trkpt>
      <trkpt lat="47.10855" lon="5.80905">
        <ele>283</ele>
        <time>2011-08-16T13:36:07Z</time>
      </trkpt>
      <trkpt lat="47.10868" lon="5.80905">
        <ele>283</ele>
        <time>2011-08-16T13:36:10Z</time>
      </trkpt>
      <trkpt lat="47.10877" lon="5.80905">
        <ele>283</ele>
        <time>2011-08-16T13:36:12Z</time>
      </trkpt>
      <trkpt lat="47.10886" lon="5.80905">
        <ele>283</ele>
        <time>2011-08-16T13:36:14Z</time>
      </trkpt>
      <trkpt lat="47.10896" lon="5.80906">
        <ele>288</ele>
        <time>2011-08-16T13:36:16Z</time>
      </trkpt>
      <trkpt lat="47.10906" lon="5.80906">
        <ele>288</ele>
        <time>2011-08-16T13:36:18Z</time>
      </trkpt>
      <trkpt lat="47.10916" lon="5.80906">
        <ele>288</ele>
        <time>2011-08-16T13:36:20Z</time>
      </trkpt>
      <trkpt lat="47.10926" lon="5.80906">
        <ele>288</ele>
        <time>2011-08-16T13:36:22Z</time>
      </trkpt>
      <trkpt lat="47.10935" lon="5.80906">
        <ele>288</ele>
        <time>2011-08-16T13:36:24Z</time>
      </trkpt>
      <trkpt lat="47.10944" lon="5.80906">
        <ele>288</ele>
        <time>2011-08-16T13:36:26Z</time>
      </trkpt>
      <trkpt lat="47.10957" lon="5.80906">
        <ele>294</ele>
        <time>2011-08-16T13:36:29Z</time>
      </trkpt>
      <trkpt lat="47.10966" lon="5.80902">
        <ele>294</ele>
        <time>2011-08-16T13:36:31Z</time>
      </trkpt>
      <trkpt lat="47.10974" lon="5.80896">
        <ele>294</ele>
        <time>2011-08-16T13:36:33Z</time>
      </trkpt>
      <trkpt lat="47.10982" lon="5.80887">
        <ele>294</ele>
        <time>2011-08-16T13:36:35Z</time>
      </trkpt>
      <trkpt lat="47.10988" lon="5.80875">
        <ele>294</ele>
        <time>2011-08-16T13:36:37Z</time>
      </trkpt>
      <trkpt lat="47.10995" lon="5.80861">
        <ele>294</ele>
        <time>2011-08-16T13:36:39Z</time>
      </trkpt>
      <trkpt lat="47.11001" lon="5.80848">
        <ele>294</ele>
        <time>2011-08-16T13:36:41Z</time>
      </trkpt>
      <trkpt lat="47.11006" lon="5.80835">
        <ele>294</ele>
        <time>2011-08-16T13:36:43Z</time>
      </trkpt>
      <trkpt lat="47.11011" lon="5.80822">
        <ele>294</ele>
        <time>2011-08-16T13:36:45Z</time>
      </trkpt>
      <trkpt lat="47.11017" lon="5.80809">
        <ele>294</ele>
        <time>2011-08-16T13:36:47Z</time>
      </trkpt>
      <trkpt lat="47.11022" lon="5.80797">
        <ele>294</ele>
        <time>2011-08-16T13:36:49Z</time>
      </trkpt>
      <trkpt lat="47.11029" lon="5.80784">
        <ele>294</ele>
        <time>2011-08-16T13:36:51Z</time>
      </trkpt>
      <trkpt lat="47.11034" lon="5.80772">
        <ele>294</ele>
        <time>2011-08-16T13:36:53Z</time>
      </trkpt>
      <trkpt lat="47.11041" lon="5.8076">
        <ele>294</ele>
        <time>2011-08-16T13:36:55Z</time>
      </trkpt>
      <trkpt lat="47.11046" lon="5.80748">
        <ele>300</ele>
        <time>2011-08-16T13:36:57Z</time>
      </trkpt>
      <trkpt lat="47.11052" lon="5.80737">
        <ele>300</ele>
        <time>2011-08-16T13:36:59Z</time>
      </trkpt>
      <trkpt lat="47.11061" lon="5.80729">
        <ele>300</ele>
        <time>2011-08-16T13:37:01Z</time>
      </trkpt>
      <trkpt lat="47.11071" lon="5.80729">
        <ele>300</ele>
        <time>2011-08-16T13:37:03Z</time>
      </trkpt>
      <trkpt lat="47.11079" lon="5.80736">
        <ele>300</ele>
        <time>2011-08-16T13:37:05Z</time>
      </trkpt>
      <trkpt lat="47.11087" lon="5.80743">
        <ele>300</ele>
        <time>2011-08-16T13:37:07Z</time>
      </trkpt>
      <trkpt lat="47.11099" lon="5.80754">
        <ele>300</ele>
        <time>2011-08-16T13:37:10Z</time>
      </trkpt>
      <trkpt lat="47.11107" lon="5.80761">
        <ele>300</ele>
        <time>2011-08-16T13:37:12Z</time>
      </trkpt>
      <trkpt lat="47.1112" lon="5.80772">
        <ele>305</ele>
        <time>2011-08-16T13:37:15Z</time>
      </trkpt>
      <trkpt lat="47.1113" lon="5.80776">
        <ele>305</ele>
        <time>2011-08-16T13:37:17Z</time>
      </trkpt>
      <trkpt lat="47.11139" lon="5.80778">
        <ele>305</ele>
        <time>2011-08-16T13:37:19Z</time>
      </trkpt>
      <trkpt lat="47.1115" lon="5.80776">
        <ele>305</ele>
        <time>2011-08-16T13:37:21Z</time>
      </trkpt>
      <trkpt lat="47.11161" lon="5.80773">
        <ele>305</ele>
        <time>2011-08-16T13:37:23Z</time>
      </trkpt>
      <trkpt lat="47.11172" lon="5.80769">
        <ele>305</ele>
        <time>2011-08-16T13:37:25Z</time>
      </trkpt>
      <trkpt lat="47.11184" lon="5.80762">
        <ele>305</ele>
        <time>2011-08-16T13:37:27Z</time>
      </trkpt>
      <trkpt lat="47.11197" lon="5.80755">
        <ele>300</ele>
        <time>2011-08-16T13:37:29Z</time>
      </trkpt>
      <trkpt lat="47.1121" lon="5.80748">
        <ele>300</ele>
        <time>2011-08-16T13:37:31Z</time>
      </trkpt>
      <trkpt lat="47.11225" lon="5.80744">
        <ele>300</ele>
        <time>2011-08-16T13:37:33Z</time>
      </trkpt>
      <trkpt lat="47.11242" lon="5.8074">
        <ele>300</ele>
        <time>2011-08-16T13:37:35Z</time>
      </trkpt>
      <trkpt lat="47.11251" lon="5.80738">
        <ele>300</ele>
        <time>2011-08-16T13:37:36Z</time>
      </trkpt>
      <trkpt lat="47.11268" lon="5.80735">
        <ele>300</ele>
        <time>2011-08-16T13:37:38Z</time>
      </trkpt>
      <trkpt lat="47.11284" lon="5.80727">
        <ele>295</ele>
        <time>2011-08-16T13:37:40Z</time>
      </trkpt>
      <trkpt lat="47.11299" lon="5.80717">
        <ele>295</ele>
        <time>2011-08-16T13:37:42Z</time>
      </trkpt>
      <trkpt lat="47.11313" lon="5.80708">
        <ele>295</ele>
        <time>2011-08-16T13:37:44Z</time>
      </trkpt>
      <trkpt lat="47.11327" lon="5.80699">
        <ele>295</ele>
        <time>2011-08-16T13:37:46Z</time>
      </trkpt>
      <trkpt lat="47.1134" lon="5.80691">
        <ele>295</ele>
        <time>2011-08-16T13:37:48Z</time>
      </trkpt>
      <trkpt lat="47.11354" lon="5.80682">
        <ele>295</ele>
        <time>2011-08-16T13:37:50Z</time>
      </trkpt>
      <trkpt lat="47.11367" lon="5.80674">
        <ele>295</ele>
        <time>2011-08-16T13:37:52Z</time>
      </trkpt>
      <trkpt lat="47.11381" lon="5.80665">
        <ele>295</ele>
        <time>2011-08-16T13:37:54Z</time>
      </trkpt>
      <trkpt lat="47.11396" lon="5.80655">
        <ele>295</ele>
        <time>2011-08-16T13:37:56Z</time>
      </trkpt>
      <trkpt lat="47.11412" lon="5.80646">
        <ele>295</ele>
        <time>2011-08-16T13:37:58Z</time>
      </trkpt>
      <trkpt lat="47.11428" lon="5.80638">
        <ele>290</ele>
        <time>2011-08-16T13:38:00Z</time>
      </trkpt>
      <trkpt lat="47.11437" lon="5.80634">
        <ele>290</ele>
        <time>2011-08-16T13:38:01Z</time>
      </trkpt>
      <trkpt lat="47.11447" lon="5.80631">
        <ele>290</ele>
        <time>2011-08-16T13:38:02Z</time>
      </trkpt>
      <trkpt lat="47.11456" lon="5.80626">
        <ele>290</ele>
        <time>2011-08-16T13:38:03Z</time>
      </trkpt>
      <trkpt lat="47.11465" lon="5.8062">
        <ele>290</ele>
        <time>2011-08-16T13:38:04Z</time>
      </trkpt>
      <trkpt lat="47.11474" lon="5.80612">
        <ele>290</ele>
        <time>2011-08-16T13:38:05Z</time>
      </trkpt>
      <trkpt lat="47.11482" lon="5.80602">
        <ele>290</ele>
        <time>2011-08-16T13:38:06Z</time>
      </trkpt>
      <trkpt lat="47.1149" lon="5.8059">
        <ele>290</ele>
        <time>2011-08-16T13:38:07Z</time>
      </trkpt>
      <trkpt lat="47.11497" lon="5.80578">
        <ele>284</ele>
        <time>2011-08-16T13:38:08Z</time>
      </trkpt>
      <trkpt lat="47.11504" lon="5.80564">
        <ele>284</ele>
        <time>2011-08-16T13:38:09Z</time>
      </trkpt>
      <trkpt lat="47.11509" lon="5.80549">
        <ele>284</ele>
        <time>2011-08-16T13:38:10Z</time>
      </trkpt>
      <trkpt lat="47.11514" lon="5.80534">
        <ele>284</ele>
        <time>2011-08-16T13:38:11Z</time>
      </trkpt>
      <trkpt lat="47.11518" lon="5.80518">
        <ele>284</ele>
        <time>2011-08-16T13:38:12Z</time>
      </trkpt>
      <trkpt lat="47.11523" lon="5.80503">
        <ele>284</ele>
        <time>2011-08-16T13:38:13Z</time>
      </trkpt>
      <trkpt lat="47.11526" lon="5.80489">
        <ele>284</ele>
        <time>2011-08-16T13:38:14Z</time>
      </trkpt>
      <trkpt lat="47.11529" lon="5.80475">
        <ele>284</ele>
        <time>2011-08-16T13:38:15Z</time>
      </trkpt>
      <trkpt lat="47.11534" lon="5.80452">
        <ele>284</ele>
        <time>2011-08-16T13:38:17Z</time>
      </trkpt>
      <trkpt lat="47.11536" lon="5.80432">
        <ele>290</ele>
        <time>2011-08-16T13:38:19Z</time>
      </trkpt>
      <trkpt lat="47.1154" lon="5.80415">
        <ele>290</ele>
        <time>2011-08-16T13:38:21Z</time>
      </trkpt>
      <trkpt lat="47.11544" lon="5.80399">
        <ele>295</ele>
        <time>2011-08-16T13:38:23Z</time>
      </trkpt>
      <trkpt lat="47.11551" lon="5.80384">
        <ele>295</ele>
        <time>2011-08-16T13:38:25Z</time>
      </trkpt>
      <trkpt lat="47.11556" lon="5.8037">
        <ele>295</ele>
        <time>2011-08-16T13:38:27Z</time>
      </trkpt>
      <trkpt lat="47.11562" lon="5.80357">
        <ele>302</ele>
        <time>2011-08-16T13:38:29Z</time>
      </trkpt>
      <trkpt lat="47.11573" lon="5.80344">
        <ele>302</ele>
        <time>2011-08-16T13:38:31Z</time>
      </trkpt>
      <trkpt lat="47.11585" lon="5.80334">
        <ele>302</ele>
        <time>2011-08-16T13:38:33Z</time>
      </trkpt>
      <trkpt lat="47.11599" lon="5.80325">
        <ele>302</ele>
        <time>2011-08-16T13:38:35Z</time>
      </trkpt>
      <trkpt lat="47.11613" lon="5.80317">
        <ele>302</ele>
        <time>2011-08-16T13:38:37Z</time>
      </trkpt>
      <trkpt lat="47.11629" lon="5.8031">
        <ele>302</ele>
        <time>2011-08-16T13:38:39Z</time>
      </trkpt>
      <trkpt lat="47.11644" lon="5.80305">
        <ele>302</ele>
        <time>2011-08-16T13:38:41Z</time>
      </trkpt>
      <trkpt lat="47.11661" lon="5.80302">
        <ele>302</ele>
        <time>2011-08-16T13:38:43Z</time>
      </trkpt>
      <trkpt lat="47.1167" lon="5.80301">
        <ele>302</ele>
        <time>2011-08-16T13:38:44Z</time>
      </trkpt>
      <trkpt lat="47.11688" lon="5.80298">
        <ele>302</ele>
        <time>2011-08-16T13:38:46Z</time>
      </trkpt>
      <trkpt lat="47.11704" lon="5.80296">
        <ele>302</ele>
        <time>2011-08-16T13:38:48Z</time>
      </trkpt>
      <trkpt lat="47.11719" lon="5.80293">
        <ele>302</ele>
        <time>2011-08-16T13:38:50Z</time>
      </trkpt>
      <trkpt lat="47.11736" lon="5.80289">
        <ele>302</ele>
        <time>2011-08-16T13:38:52Z</time>
      </trkpt>
      <trkpt lat="47.11751" lon="5.80285">
        <ele>302</ele>
        <time>2011-08-16T13:38:54Z</time>
      </trkpt>
      <trkpt lat="47.11767" lon="5.80282">
        <ele>308</ele>
        <time>2011-08-16T13:38:56Z</time>
      </trkpt>
      <trkpt lat="47.11783" lon="5.80279">
        <ele>308</ele>
        <time>2011-08-16T13:38:58Z</time>
      </trkpt>
      <trkpt lat="47.118" lon="5.80277">
        <ele>308</ele>
        <time>2011-08-16T13:39:00Z</time>
      </trkpt>
      <trkpt lat="47.11817" lon="5.80273">
        <ele>308</ele>
        <time>2011-08-16T13:39:02Z</time>
      </trkpt>
      <trkpt lat="47.11833" lon="5.8027">
        <ele>308</ele>
        <time>2011-08-16T13:39:04Z</time>
      </trkpt>
      <trkpt lat="47.11849" lon="5.80268">
        <ele>308</ele>
        <time>2011-08-16T13:39:06Z</time>
      </trkpt>
      <trkpt lat="47.11865" lon="5.80264">
        <ele>308</ele>
        <time>2011-08-16T13:39:08Z</time>
      </trkpt>
      <trkpt lat="47.11878" lon="5.80261">
        <ele>308</ele>
        <time>2011-08-16T13:39:10Z</time>
      </trkpt>
      <trkpt lat="47.11894" lon="5.80259">
        <ele>308</ele>
        <time>2011-08-16T13:39:12Z</time>
      </trkpt>
      <trkpt lat="47.11909" lon="5.80257">
        <ele>308</ele>
        <time>2011-08-16T13:39:14Z</time>
      </trkpt>
      <trkpt lat="47.11924" lon="5.80255">
        <ele>308</ele>
        <time>2011-08-16T13:39:16Z</time>
      </trkpt>
      <trkpt lat="47.11938" lon="5.80255">
        <ele>308</ele>
        <time>2011-08-16T13:39:18Z</time>
      </trkpt>
      <trkpt lat="47.11954" lon="5.80256">
        <ele>308</ele>
        <time>2011-08-16T13:39:20Z</time>
      </trkpt>
      <trkpt lat="47.1197" lon="5.80255">
        <ele>302</ele>
        <time>2011-08-16T13:39:22Z</time>
      </trkpt>
      <trkpt lat="47.11984" lon="5.80252">
        <ele>302</ele>
        <time>2011-08-16T13:39:24Z</time>
      </trkpt>
      <trkpt lat="47.11999" lon="5.80252">
        <ele>302</ele>
        <time>2011-08-16T13:39:26Z</time>
      </trkpt>
      <trkpt lat="47.12016" lon="5.80252">
        <ele>302</ele>
        <time>2011-08-16T13:39:28Z</time>
      </trkpt>
      <trkpt lat="47.12033" lon="5.80252">
        <ele>302</ele>
        <time>2011-08-16T13:39:30Z</time>
      </trkpt>
      <trkpt lat="47.12042" lon="5.80251">
        <ele>296</ele>
        <time>2011-08-16T13:39:31Z</time>
      </trkpt>
      <trkpt lat="47.12058" lon="5.80251">
        <ele>296</ele>
        <time>2011-08-16T13:39:33Z</time>
      </trkpt>
      <trkpt lat="47.12075" lon="5.8025">
        <ele>296</ele>
        <time>2011-08-16T13:39:35Z</time>
      </trkpt>
      <trkpt lat="47.12092" lon="5.80252">
        <ele>296</ele>
        <time>2011-08-16T13:39:37Z</time>
      </trkpt>
      <trkpt lat="47.12101" lon="5.80253">
        <ele>291</ele>
        <time>2011-08-16T13:39:38Z</time>
      </trkpt>
      <trkpt lat="47.12111" lon="5.80254">
        <ele>291</ele>
        <time>2011-08-16T13:39:39Z</time>
      </trkpt>
      <trkpt lat="47.1212" lon="5.80255">
        <ele>291</ele>
        <time>2011-08-16T13:39:40Z</time>
      </trkpt>
      <trkpt lat="47.1213" lon="5.80258">
        <ele>291</ele>
        <time>2011-08-16T13:39:41Z</time>
      </trkpt>
      <trkpt lat="47.1214" lon="5.8026">
        <ele>291</ele>
        <time>2011-08-16T13:39:42Z</time>
      </trkpt>
      <trkpt lat="47.12151" lon="5.80261">
        <ele>286</ele>
        <time>2011-08-16T13:39:43Z</time>
      </trkpt>
      <trkpt lat="47.1216" lon="5.80261">
        <ele>286</ele>
        <time>2011-08-16T13:39:44Z</time>
      </trkpt>
      <trkpt lat="47.12172" lon="5.80262">
        <ele>286</ele>
        <time>2011-08-16T13:39:45Z</time>
      </trkpt>
      <trkpt lat="47.12182" lon="5.80262">
        <ele>286</ele>
        <time>2011-08-16T13:39:46Z</time>
      </trkpt>
      <trkpt lat="47.12193" lon="5.80261">
        <ele>286</ele>
        <time>2011-08-16T13:39:47Z</time>
      </trkpt>
      <trkpt lat="47.12203" lon="5.80261">
        <ele>286</ele>
        <time>2011-08-16T13:39:48Z</time>
      </trkpt>
      <trkpt lat="47.12212" lon="5.80261">
        <ele>286</ele>
        <time>2011-08-16T13:39:49Z</time>
      </trkpt>
      <trkpt lat="47.12222" lon="5.80261">
        <ele>286</ele>
        <time>2011-08-16T13:39:50Z</time>
      </trkpt>
      <trkpt lat="47.12232" lon="5.80261">
        <ele>286</ele>
        <time>2011-08-16T13:39:51Z</time>
      </trkpt>
      <trkpt lat="47.12242" lon="5.8026">
        <ele>280</ele>
        <time>2011-08-16T13:39:52Z</time>
      </trkpt>
      <trkpt lat="47.12251" lon="5.80259">
        <ele>280</ele>
        <time>2011-08-16T13:39:53Z</time>
      </trkpt>
      <trkpt lat="47.1226" lon="5.80257">
        <ele>280</ele>
        <time>2011-08-16T13:39:54Z</time>
      </trkpt>
      <trkpt lat="47.1227" lon="5.80254">
        <ele>280</ele>
        <time>2011-08-16T13:39:55Z</time>
      </trkpt>
      <trkpt lat="47.12279" lon="5.80251">
        <ele>280</ele>
        <time>2011-08-16T13:39:56Z</time>
      </trkpt>
      <trkpt lat="47.12288" lon="5.80247">
        <ele>280</ele>
        <time>2011-08-16T13:39:57Z</time>
      </trkpt>
      <trkpt lat="47.12298" lon="5.80243">
        <ele>280</ele>
        <time>2011-08-16T13:39:58Z</time>
      </trkpt>
      <trkpt lat="47.12308" lon="5.80238">
        <ele>280</ele>
        <time>2011-08-16T13:39:59Z</time>
      </trkpt>
      <trkpt lat="47.12317" lon="5.80234">
        <ele>275</ele>
        <time>2011-08-16T13:40:00Z</time>
      </trkpt>
      <trkpt lat="47.12327" lon="5.80228">
        <ele>275</ele>
        <time>2011-08-16T13:40:01Z</time>
      </trkpt>
      <trkpt lat="47.12336" lon="5.80224">
        <ele>275</ele>
        <time>2011-08-16T13:40:02Z</time>
      </trkpt>
      <trkpt lat="47.12347" lon="5.80221">
        <ele>275</ele>
        <time>2011-08-16T13:40:03Z</time>
      </trkpt>
      <trkpt lat="47.12358" lon="5.80219">
        <ele>275</ele>
        <time>2011-08-16T13:40:04Z</time>
      </trkpt>
      <trkpt lat="47.12369" lon="5.80219">
        <ele>275</ele>
        <time>2011-08-16T13:40:05Z</time>
      </trkpt>
      <trkpt lat="47.12381" lon="5.80219">
        <ele>275</ele>
        <time>2011-08-16T13:40:06Z</time>
      </trkpt>
      <trkpt lat="47.12393" lon="5.80219">
        <ele>270</ele>
        <time>2011-08-16T13:40:07Z</time>
      </trkpt>
      <trkpt lat="47.12404" lon="5.80217">
        <ele>270</ele>
        <time>2011-08-16T13:40:08Z</time>
      </trkpt>
      <trkpt lat="47.12417" lon="5.80216">
        <ele>270</ele>
        <time>2011-08-16T13:40:09Z</time>
      </trkpt>
      <trkpt lat="47.12428" lon="5.80211">
        <ele>270</ele>
        <time>2011-08-16T13:40:10Z</time>
      </trkpt>
      <trkpt lat="47.1244" lon="5.80206">
        <ele>270</ele>
        <time>2011-08-16T13:40:11Z</time>
      </trkpt>
      <trkpt lat="47.12451" lon="5.80199">
        <ele>270</ele>
        <time>2011-08-16T13:40:12Z</time>
      </trkpt>
      <trkpt lat="47.12462" lon="5.80191">
        <ele>270</ele>
        <time>2011-08-16T13:40:13Z</time>
      </trkpt>
      <trkpt lat="47.12472" lon="5.80183">
        <ele>270</ele>
        <time>2011-08-16T13:40:14Z</time>
      </trkpt>
      <trkpt lat="47.12483" lon="5.80176">
        <ele>270</ele>
        <time>2011-08-16T13:40:15Z</time>
      </trkpt>
      <trkpt lat="47.12494" lon="5.8017">
        <ele>270</ele>
        <time>2011-08-16T13:40:16Z</time>
      </trkpt>
      <trkpt lat="47.12505" lon="5.80165">
        <ele>270</ele>
        <time>2011-08-16T13:40:17Z</time>
      </trkpt>
      <trkpt lat="47.12517" lon="5.80163">
        <ele>270</ele>
        <time>2011-08-16T13:40:18Z</time>
      </trkpt>
      <trkpt lat="47.12528" lon="5.80163">
        <ele>270</ele>
        <time>2011-08-16T13:40:19Z</time>
      </trkpt>
      <trkpt lat="47.1254" lon="5.80164">
        <ele>270</ele>
        <time>2011-08-16T13:40:20Z</time>
      </trkpt>
      <trkpt lat="47.12551" lon="5.80168">
        <ele>270</ele>
        <time>2011-08-16T13:40:21Z</time>
      </trkpt>
      <trkpt lat="47.12562" lon="5.80172">
        <ele>270</ele>
        <time>2011-08-16T13:40:22Z</time>
      </trkpt>
      <trkpt lat="47.12572" lon="5.80177">
        <ele>265</ele>
        <time>2011-08-16T13:40:23Z</time>
      </trkpt>
      <trkpt lat="47.12582" lon="5.80183">
        <ele>265</ele>
        <time>2011-08-16T13:40:24Z</time>
      </trkpt>
      <trkpt lat="47.12591" lon="5.8019">
        <ele>265</ele>
        <time>2011-08-16T13:40:25Z</time>
      </trkpt>
      <trkpt lat="47.126" lon="5.80196">
        <ele>265</ele>
        <time>2011-08-16T13:40:26Z</time>
      </trkpt>
      <trkpt lat="47.12609" lon="5.80204">
        <ele>265</ele>
        <time>2011-08-16T13:40:27Z</time>
      </trkpt>
      <trkpt lat="47.12623" lon="5.80218">
        <ele>265</ele>
        <time>2011-08-16T13:40:29Z</time>
      </trkpt>
      <trkpt lat="47.1263" lon="5.80227">
        <ele>265</ele>
        <time>2011-08-16T13:40:30Z</time>
      </trkpt>
      <trkpt lat="47.12643" lon="5.80244">
        <ele>265</ele>
        <time>2011-08-16T13:40:32Z</time>
      </trkpt>
      <trkpt lat="47.12656" lon="5.80261">
        <ele>265</ele>
        <time>2011-08-16T13:40:34Z</time>
      </trkpt>
      <trkpt lat="47.12669" lon="5.80278">
        <ele>265</ele>
        <time>2011-08-16T13:40:36Z</time>
      </trkpt>
      <trkpt lat="47.12683" lon="5.80295">
        <ele>265</ele>
        <time>2011-08-16T13:40:38Z</time>
      </trkpt>
      <trkpt lat="47.12691" lon="5.80303">
        <ele>265</ele>
        <time>2011-08-16T13:40:39Z</time>
      </trkpt>
      <trkpt lat="47.12705" lon="5.80317">
        <ele>265</ele>
        <time>2011-08-16T13:40:41Z</time>
      </trkpt>
      <trkpt lat="47.1272" lon="5.80331">
        <ele>265</ele>
        <time>2011-08-16T13:40:43Z</time>
      </trkpt>
      <trkpt lat="47.12734" lon="5.8034">
        <ele>265</ele>
        <time>2011-08-16T13:40:45Z</time>
      </trkpt>
      <trkpt lat="47.1275" lon="5.80341">
        <ele>265</ele>
        <time>2011-08-16T13:40:47Z</time>
      </trkpt>
      <trkpt lat="47.12765" lon="5.80338">
        <ele>265</ele>
        <time>2011-08-16T13:40:49Z</time>
      </trkpt>
      <trkpt lat="47.12782" lon="5.8034">
        <ele>265</ele>
        <time>2011-08-16T13:40:51Z</time>
      </trkpt>
      <trkpt lat="47.12791" lon="5.80345">
        <ele>265</ele>
        <time>2011-08-16T13:40:52Z</time>
      </trkpt>
      <trkpt lat="47.12799" lon="5.80351">
        <ele>265</ele>
        <time>2011-08-16T13:40:53Z</time>
      </trkpt>
      <trkpt lat="47.12814" lon="5.80359">
        <ele>265</ele>
        <time>2011-08-16T13:40:55Z</time>
      </trkpt>
      <trkpt lat="47.12829" lon="5.80362">
        <ele>265</ele>
        <time>2011-08-16T13:40:57Z</time>
      </trkpt>
      <trkpt lat="47.12843" lon="5.80361">
        <ele>265</ele>
        <time>2011-08-16T13:40:59Z</time>
      </trkpt>
      <trkpt lat="47.12857" lon="5.80363">
        <ele>265</ele>
        <time>2011-08-16T13:41:01Z</time>
      </trkpt>
      <trkpt lat="47.1287" lon="5.80367">
        <ele>265</ele>
        <time>2011-08-16T13:41:03Z</time>
      </trkpt>
      <trkpt lat="47.12883" lon="5.80373">
        <ele>265</ele>
        <time>2011-08-16T13:41:05Z</time>
      </trkpt>
      <trkpt lat="47.12895" lon="5.80376">
        <ele>265</ele>
        <time>2011-08-16T13:41:07Z</time>
      </trkpt>
      <trkpt lat="47.12908" lon="5.80378">
        <ele>265</ele>
        <time>2011-08-16T13:41:09Z</time>
      </trkpt>
      <trkpt lat="47.12919" lon="5.80381">
        <ele>265</ele>
        <time>2011-08-16T13:41:11Z</time>
      </trkpt>
      <trkpt lat="47.12927" lon="5.80384">
        <ele>265</ele>
        <time>2011-08-16T13:41:13Z</time>
      </trkpt>
      <trkpt lat="47.12938" lon="5.80385">
        <ele>271</ele>
        <time>2011-08-16T13:41:17Z</time>
      </trkpt>
      <trkpt lat="47.12948" lon="5.8038">
        <ele>266</ele>
        <time>2011-08-16T13:42:00Z</time>
      </trkpt>
      <trkpt lat="47.12954" lon="5.80368">
        <ele>266</ele>
        <time>2011-08-16T13:42:03Z</time>
      </trkpt>
      <trkpt lat="47.12962" lon="5.80354">
        <ele>266</ele>
        <time>2011-08-16T13:42:06Z</time>
      </trkpt>
      <trkpt lat="47.12967" lon="5.80343">
        <ele>266</ele>
        <time>2011-08-16T13:42:08Z</time>
      </trkpt>
      <trkpt lat="47.12973" lon="5.80331">
        <ele>266</ele>
        <time>2011-08-16T13:42:10Z</time>
      </trkpt>
      <trkpt lat="47.12979" lon="5.80321">
        <ele>266</ele>
        <time>2011-08-16T13:42:12Z</time>
      </trkpt>
      <trkpt lat="47.12987" lon="5.80313">
        <ele>266</ele>
        <time>2011-08-16T13:42:14Z</time>
      </trkpt>
      <trkpt lat="47.12995" lon="5.80305">
        <ele>266</ele>
        <time>2011-08-16T13:42:16Z</time>
      </trkpt>
      <trkpt lat="47.13005" lon="5.80295">
        <ele>266</ele>
        <time>2011-08-16T13:42:19Z</time>
      </trkpt>
      <trkpt lat="47.13016" lon="5.80288">
        <ele>266</ele>
        <time>2011-08-16T13:42:22Z</time>
      </trkpt>
      <trkpt lat="47.13026" lon="5.80283">
        <ele>266</ele>
        <time>2011-08-16T13:42:25Z</time>
      </trkpt>
      <trkpt lat="47.13036" lon="5.8028">
        <ele>266</ele>
        <time>2011-08-16T13:42:28Z</time>
      </trkpt>
      <trkpt lat="47.13048" lon="5.80278">
        <ele>266</ele>
        <time>2011-08-16T13:42:31Z</time>
      </trkpt>
      <trkpt lat="47.13057" lon="5.80274">
        <ele>266</ele>
        <time>2011-08-16T13:42:34Z</time>
      </trkpt>
      <trkpt lat="47.13067" lon="5.80271">
        <ele>266</ele>
        <time>2011-08-16T13:42:38Z</time>
      </trkpt>
      <trkpt lat="47.13078" lon="5.8027">
        <ele>266</ele>
        <time>2011-08-16T13:42:42Z</time>
      </trkpt>
      <trkpt lat="47.13088" lon="5.80266">
        <ele>271</ele>
        <time>2011-08-16T13:42:46Z</time>
      </trkpt>
      <trkpt lat="47.13097" lon="5.80265">
        <ele>271</ele>
        <time>2011-08-16T13:42:53Z</time>
      </trkpt>
      <trkpt lat="47.13105" lon="5.80254">
        <ele>271</ele>
        <time>2011-08-16T13:42:58Z</time>
      </trkpt>
      <trkpt lat="47.13113" lon="5.80243">
        <ele>271</ele>
        <time>2011-08-16T13:43:02Z</time>
      </trkpt>
      <trkpt lat="47.13122" lon="5.80236">
        <ele>271</ele>
        <time>2011-08-16T13:43:05Z</time>
      </trkpt>
      <trkpt lat="47.1313" lon="5.80227">
        <ele>271</ele>
        <time>2011-08-16T13:43:08Z</time>
      </trkpt>
      <trkpt lat="47.13138" lon="5.80218">
        <ele>271</ele>
        <time>2011-08-16T13:43:11Z</time>
      </trkpt>
      <trkpt lat="47.13146" lon="5.80208">
        <ele>276</ele>
        <time>2011-08-16T13:43:14Z</time>
      </trkpt>
      <trkpt lat="47.13154" lon="5.80199">
        <ele>276</ele>
        <time>2011-08-16T13:43:17Z</time>
      </trkpt>
      <trkpt lat="47.13162" lon="5.8019">
        <ele>276</ele>
        <time>2011-08-16T13:43:20Z</time>
      </trkpt>
      <trkpt lat="47.1317" lon="5.80181">
        <ele>276</ele>
        <time>2011-08-16T13:43:23Z</time>
      </trkpt>
      <trkpt lat="47.13178" lon="5.80172">
        <ele>276</ele>
        <time>2011-08-16T13:43:26Z</time>
      </trkpt>
      <trkpt lat="47.13185" lon="5.80163">
        <ele>276</ele>
        <time>2011-08-16T13:43:29Z</time>
      </trkpt>
      <trkpt lat="47.13193" lon="5.80153">
        <ele>276</ele>
        <time>2011-08-16T13:43:32Z</time>
      </trkpt>
      <trkpt lat="47.13201" lon="5.80143">
        <ele>276</ele>
        <time>2011-08-16T13:43:35Z</time>
      </trkpt>
      <trkpt lat="47.13208" lon="5.80133">
        <ele>276</ele>
        <time>2011-08-16T13:43:38Z</time>
      </trkpt>
      <trkpt lat="47.13215" lon="5.80122">
        <ele>276</ele>
        <time>2011-08-16T13:43:41Z</time>
      </trkpt>
      <trkpt lat="47.1322" lon="5.80111">
        <ele>276</ele>
        <time>2011-08-16T13:43:44Z</time>
      </trkpt>
      <trkpt lat="47.13227" lon="5.80099">
        <ele>276</ele>
        <time>2011-08-16T13:43:47Z</time>
      </trkpt>
      <trkpt lat="47.13231" lon="5.80087">
        <ele>281</ele>
        <time>2011-08-16T13:43:50Z</time>
      </trkpt>
      <trkpt lat="47.13236" lon="5.80075">
        <ele>281</ele>
        <time>2011-08-16T13:43:53Z</time>
      </trkpt>
      <trkpt lat="47.13242" lon="5.80062">
        <ele>281</ele>
        <time>2011-08-16T13:43:56Z</time>
      </trkpt>
      <trkpt lat="47.13249" lon="5.80049">
        <ele>281</ele>
        <time>2011-08-16T13:43:59Z</time>
      </trkpt>
      <trkpt lat="47.13255" lon="5.80037">
        <ele>281</ele>
        <time>2011-08-16T13:44:02Z</time>
      </trkpt>
      <trkpt lat="47.13263" lon="5.80023">
        <ele>281</ele>
        <time>2011-08-16T13:44:05Z</time>
      </trkpt>
      <trkpt lat="47.13269" lon="5.80013">
        <ele>281</ele>
        <time>2011-08-16T13:44:07Z</time>
      </trkpt>
      <trkpt lat="47.13275" lon="5.8">
        <ele>281</ele>
        <time>2011-08-16T13:44:09Z</time>
      </trkpt>
      <trkpt lat="47.13282" lon="5.79987">
        <ele>281</ele>
        <time>2011-08-16T13:44:11Z</time>
      </trkpt>
      <trkpt lat="47.13289" lon="5.79972">
        <ele>281</ele>
        <time>2011-08-16T13:44:13Z</time>
      </trkpt>
      <trkpt lat="47.13296" lon="5.79958">
        <ele>281</ele>
        <time>2011-08-16T13:44:15Z</time>
      </trkpt>
      <trkpt lat="47.13304" lon="5.79942">
        <ele>281</ele>
        <time>2011-08-16T13:44:17Z</time>
      </trkpt>
      <trkpt lat="47.13311" lon="5.79925">
        <ele>281</ele>
        <time>2011-08-16T13:44:19Z</time>
      </trkpt>
      <trkpt lat="47.13319" lon="5.79908">
        <ele>281</ele>
        <time>2011-08-16T13:44:21Z</time>
      </trkpt>
      <trkpt lat="47.13328" lon="5.79891">
        <ele>281</ele>
        <time>2011-08-16T13:44:23Z</time>
      </trkpt>
      <trkpt lat="47.13336" lon="5.79873">
        <ele>281</ele>
        <time>2011-08-16T13:44:25Z</time>
      </trkpt>
      <trkpt lat="47.13344" lon="5.79856">
        <ele>281</ele>
        <time>2011-08-16T13:44:27Z</time>
      </trkpt>
      <trkpt lat="47.13351" lon="5.79838">
        <ele>281</ele>
        <time>2011-08-16T13:44:29Z</time>
      </trkpt>
      <trkpt lat="47.13359" lon="5.79819">
        <ele>281</ele>
        <time>2011-08-16T13:44:31Z</time>
      </trkpt>
      <trkpt lat="47.13366" lon="5.79801">
        <ele>281</ele>
        <time>2011-08-16T13:44:33Z</time>
      </trkpt>
      <trkpt lat="47.13372" lon="5.79784">
        <ele>281</ele>
        <time>2011-08-16T13:44:35Z</time>
      </trkpt>
      <trkpt lat="47.13379" lon="5.79766">
        <ele>281</ele>
        <time>2011-08-16T13:44:37Z</time>
      </trkpt>
      <trkpt lat="47.13386" lon="5.79748">
        <ele>287</ele>
        <time>2011-08-16T13:44:39Z</time>
      </trkpt>
      <trkpt lat="47.13394" lon="5.79731">
        <ele>287</ele>
        <time>2011-08-16T13:44:41Z</time>
      </trkpt>
      <trkpt lat="47.13404" lon="5.79713">
        <ele>287</ele>
        <time>2011-08-16T13:44:43Z</time>
      </trkpt>
      <trkpt lat="47.13415" lon="5.79694">
        <ele>287</ele>
        <time>2011-08-16T13:44:45Z</time>
      </trkpt>
      <trkpt lat="47.13422" lon="5.79685">
        <ele>287</ele>
        <time>2011-08-16T13:44:46Z</time>
      </trkpt>
      <trkpt lat="47.13429" lon="5.79676">
        <ele>287</ele>
        <time>2011-08-16T13:44:47Z</time>
      </trkpt>
      <trkpt lat="47.13436" lon="5.79666">
        <ele>287</ele>
        <time>2011-08-16T13:44:48Z</time>
      </trkpt>
      <trkpt lat="47.13444" lon="5.79657">
        <ele>280</ele>
        <time>2011-08-16T13:44:49Z</time>
      </trkpt>
      <trkpt lat="47.1345" lon="5.79647">
        <ele>280</ele>
        <time>2011-08-16T13:44:50Z</time>
      </trkpt>
      <trkpt lat="47.13458" lon="5.79637">
        <ele>280</ele>
        <time>2011-08-16T13:44:51Z</time>
      </trkpt>
      <trkpt lat="47.13465" lon="5.79627">
        <ele>280</ele>
        <time>2011-08-16T13:44:52Z</time>
      </trkpt>
      <trkpt lat="47.13472" lon="5.79617">
        <ele>280</ele>
        <time>2011-08-16T13:44:53Z</time>
      </trkpt>
      <trkpt lat="47.1348" lon="5.79607">
        <ele>280</ele>
        <time>2011-08-16T13:44:54Z</time>
      </trkpt>
      <trkpt lat="47.13486" lon="5.79598">
        <ele>280</ele>
        <time>2011-08-16T13:44:55Z</time>
      </trkpt>
      <trkpt lat="47.13494" lon="5.79588">
        <ele>275</ele>
        <time>2011-08-16T13:44:56Z</time>
      </trkpt>
      <trkpt lat="47.13501" lon="5.79577">
        <ele>275</ele>
        <time>2011-08-16T13:44:57Z</time>
      </trkpt>
      <trkpt lat="47.13508" lon="5.79566">
        <ele>275</ele>
        <time>2011-08-16T13:44:58Z</time>
      </trkpt>
      <trkpt lat="47.13515" lon="5.79556">
        <ele>275</ele>
        <time>2011-08-16T13:44:59Z</time>
      </trkpt>
      <trkpt lat="47.13524" lon="5.79545">
        <ele>275</ele>
        <time>2011-08-16T13:45:00Z</time>
      </trkpt>
      <trkpt lat="47.13531" lon="5.79535">
        <ele>275</ele>
        <time>2011-08-16T13:45:01Z</time>
      </trkpt>
      <trkpt lat="47.1354" lon="5.79524">
        <ele>275</ele>
        <time>2011-08-16T13:45:02Z</time>
      </trkpt>
      <trkpt lat="47.13548" lon="5.79513">
        <ele>270</ele>
        <time>2011-08-16T13:45:03Z</time>
      </trkpt>
      <trkpt lat="47.13556" lon="5.79503">
        <ele>270</ele>
        <time>2011-08-16T13:45:04Z</time>
      </trkpt>
      <trkpt lat="47.13565" lon="5.79492">
        <ele>270</ele>
        <time>2011-08-16T13:45:05Z</time>
      </trkpt>
      <trkpt lat="47.13573" lon="5.79483">
        <ele>270</ele>
        <time>2011-08-16T13:45:06Z</time>
      </trkpt>
      <trkpt lat="47.1358" lon="5.79472">
        <ele>270</ele>
        <time>2011-08-16T13:45:07Z</time>
      </trkpt>
      <trkpt lat="47.13586" lon="5.7946">
        <ele>265</ele>
        <time>2011-08-16T13:45:08Z</time>
      </trkpt>
      <trkpt lat="47.13592" lon="5.79448">
        <ele>265</ele>
        <time>2011-08-16T13:45:09Z</time>
      </trkpt>
      <trkpt lat="47.13597" lon="5.79434">
        <ele>265</ele>
        <time>2011-08-16T13:45:10Z</time>
      </trkpt>
      <trkpt lat="47.13601" lon="5.7942">
        <ele>265</ele>
        <time>2011-08-16T13:45:11Z</time>
      </trkpt>
      <trkpt lat="47.13604" lon="5.79405">
        <ele>265</ele>
        <time>2011-08-16T13:45:12Z</time>
      </trkpt>
      <trkpt lat="47.13607" lon="5.79392">
        <ele>265</ele>
        <time>2011-08-16T13:45:13Z</time>
      </trkpt>
      <trkpt lat="47.1361" lon="5.79377">
        <ele>265</ele>
        <time>2011-08-16T13:45:14Z</time>
      </trkpt>
      <trkpt lat="47.13613" lon="5.79363">
        <ele>265</ele>
        <time>2011-08-16T13:45:15Z</time>
      </trkpt>
      <trkpt lat="47.13616" lon="5.7935">
        <ele>265</ele>
        <time>2011-08-16T13:45:16Z</time>
      </trkpt>
      <trkpt lat="47.13619" lon="5.79336">
        <ele>265</ele>
        <time>2011-08-16T13:45:17Z</time>
      </trkpt>
      <trkpt lat="47.13623" lon="5.79324">
        <ele>265</ele>
        <time>2011-08-16T13:45:18Z</time>
      </trkpt>
      <trkpt lat="47.13627" lon="5.7931">
        <ele>265</ele>
        <time>2011-08-16T13:45:19Z</time>
      </trkpt>
      <trkpt lat="47.13632" lon="5.79298">
        <ele>265</ele>
        <time>2011-08-16T13:45:20Z</time>
      </trkpt>
      <trkpt lat="47.13636" lon="5.79285">
        <ele>265</ele>
        <time>2011-08-16T13:45:21Z</time>
      </trkpt>
      <trkpt lat="47.13639" lon="5.79272">
        <ele>265</ele>
        <time>2011-08-16T13:45:22Z</time>
      </trkpt>
      <trkpt lat="47.13643" lon="5.7926">
        <ele>265</ele>
        <time>2011-08-16T13:45:23Z</time>
      </trkpt>
      <trkpt lat="47.13646" lon="5.79247">
        <ele>265</ele>
        <time>2011-08-16T13:45:24Z</time>
      </trkpt>
      <trkpt lat="47.1365" lon="5.79235">
        <ele>265</ele>
        <time>2011-08-16T13:45:25Z</time>
      </trkpt>
      <trkpt lat="47.13653" lon="5.79222">
        <ele>265</ele>
        <time>2011-08-16T13:45:26Z</time>
      </trkpt>
      <trkpt lat="47.13657" lon="5.79209">
        <ele>265</ele>
        <time>2011-08-16T13:45:27Z</time>
      </trkpt>
      <trkpt lat="47.13662" lon="5.79197">
        <ele>265</ele>
        <time>2011-08-16T13:45:28Z</time>
      </trkpt>
      <trkpt lat="47.13667" lon="5.79185">
        <ele>265</ele>
        <time>2011-08-16T13:45:29Z</time>
      </trkpt>
      <trkpt lat="47.13671" lon="5.79173">
        <ele>265</ele>
        <time>2011-08-16T13:45:30Z</time>
      </trkpt>
      <trkpt lat="47.13679" lon="5.79149">
        <ele>265</ele>
        <time>2011-08-16T13:45:32Z</time>
      </trkpt>
      <trkpt lat="47.13684" lon="5.79138">
        <ele>265</ele>
        <time>2011-08-16T13:45:33Z</time>
      </trkpt>
      <trkpt lat="47.13688" lon="5.79125">
        <ele>265</ele>
        <time>2011-08-16T13:45:34Z</time>
      </trkpt>
      <trkpt lat="47.13694" lon="5.79114">
        <ele>265</ele>
        <time>2011-08-16T13:45:35Z</time>
      </trkpt>
      <trkpt lat="47.13703" lon="5.79092">
        <ele>265</ele>
        <time>2011-08-16T13:45:37Z</time>
      </trkpt>
      <trkpt lat="47.13708" lon="5.7908">
        <ele>265</ele>
        <time>2011-08-16T13:45:38Z</time>
      </trkpt>
      <trkpt lat="47.13716" lon="5.79058">
        <ele>265</ele>
        <time>2011-08-16T13:45:40Z</time>
      </trkpt>
      <trkpt lat="47.13724" lon="5.79035">
        <ele>271</ele>
        <time>2011-08-16T13:45:42Z</time>
      </trkpt>
      <trkpt lat="47.13732" lon="5.79014">
        <ele>271</ele>
        <time>2011-08-16T13:45:44Z</time>
      </trkpt>
      <trkpt lat="47.13739" lon="5.78992">
        <ele>271</ele>
        <time>2011-08-16T13:45:46Z</time>
      </trkpt>
      <trkpt lat="47.13745" lon="5.78971">
        <ele>271</ele>
        <time>2011-08-16T13:45:48Z</time>
      </trkpt>
      <trkpt lat="47.13749" lon="5.7895">
        <ele>271</ele>
        <time>2011-08-16T13:45:50Z</time>
      </trkpt>
      <trkpt lat="47.13755" lon="5.78928">
        <ele>276</ele>
        <time>2011-08-16T13:45:52Z</time>
      </trkpt>
      <trkpt lat="47.13765" lon="5.78908">
        <ele>276</ele>
        <time>2011-08-16T13:45:54Z</time>
      </trkpt>
      <trkpt lat="47.13774" lon="5.78887">
        <ele>276</ele>
        <time>2011-08-16T13:45:56Z</time>
      </trkpt>
      <trkpt lat="47.13781" lon="5.78867">
        <ele>276</ele>
        <time>2011-08-16T13:45:58Z</time>
      </trkpt>
      <trkpt lat="47.13791" lon="5.78847">
        <ele>276</ele>
        <time>2011-08-16T13:46:00Z</time>
      </trkpt>
      <trkpt lat="47.13801" lon="5.78828">
        <ele>276</ele>
        <time>2011-08-16T13:46:02Z</time>
      </trkpt>
      <trkpt lat="47.13812" lon="5.78808">
        <ele>276</ele>
        <time>2011-08-16T13:46:04Z</time>
      </trkpt>
      <trkpt lat="47.13822" lon="5.78787">
        <ele>276</ele>
        <time>2011-08-16T13:46:06Z</time>
      </trkpt>
      <trkpt lat="47.13832" lon="5.78768">
        <ele>276</ele>
        <time>2011-08-16T13:46:08Z</time>
      </trkpt>
      <trkpt lat="47.13841" lon="5.78751">
        <ele>276</ele>
        <time>2011-08-16T13:46:10Z</time>
      </trkpt>
      <trkpt lat="47.13855" lon="5.78739">
        <ele>276</ele>
        <time>2011-08-16T13:46:12Z</time>
      </trkpt>
      <trkpt lat="47.13868" lon="5.78728">
        <ele>276</ele>
        <time>2011-08-16T13:46:14Z</time>
      </trkpt>
      <trkpt lat="47.13882" lon="5.78718">
        <ele>276</ele>
        <time>2011-08-16T13:46:16Z</time>
      </trkpt>
      <trkpt lat="47.13897" lon="5.78709">
        <ele>276</ele>
        <time>2011-08-16T13:46:18Z</time>
      </trkpt>
      <trkpt lat="47.13907" lon="5.78706">
        <ele>276</ele>
        <time>2011-08-16T13:46:19Z</time>
      </trkpt>
      <trkpt lat="47.13922" lon="5.78697">
        <ele>276</ele>
        <time>2011-08-16T13:46:21Z</time>
      </trkpt>
      <trkpt lat="47.13939" lon="5.7869">
        <ele>276</ele>
        <time>2011-08-16T13:46:23Z</time>
      </trkpt>
      <trkpt lat="47.13955" lon="5.78683">
        <ele>268</ele>
        <time>2011-08-16T13:46:25Z</time>
      </trkpt>
      <trkpt lat="47.13971" lon="5.78676">
        <ele>268</ele>
        <time>2011-08-16T13:46:27Z</time>
      </trkpt>
      <trkpt lat="47.1398" lon="5.78672">
        <ele>268</ele>
        <time>2011-08-16T13:46:28Z</time>
      </trkpt>
      <trkpt lat="47.13996" lon="5.78663">
        <ele>261</ele>
        <time>2011-08-16T13:46:30Z</time>
      </trkpt>
      <trkpt lat="47.14012" lon="5.78655">
        <ele>261</ele>
        <time>2011-08-16T13:46:32Z</time>
      </trkpt>
      <trkpt lat="47.14026" lon="5.78643">
        <ele>261</ele>
        <time>2011-08-16T13:46:34Z</time>
      </trkpt>
      <trkpt lat="47.14038" lon="5.78626">
        <ele>256</ele>
        <time>2011-08-16T13:46:36Z</time>
      </trkpt>
      <trkpt lat="47.14046" lon="5.78604">
        <ele>256</ele>
        <time>2011-08-16T13:46:38Z</time>
      </trkpt>
      <trkpt lat="47.14049" lon="5.78591">
        <ele>256</ele>
        <time>2011-08-16T13:46:39Z</time>
      </trkpt>
      <trkpt lat="47.14052" lon="5.78579">
        <ele>256</ele>
        <time>2011-08-16T13:46:40Z</time>
      </trkpt>
      <trkpt lat="47.14057" lon="5.78566">
        <ele>256</ele>
        <time>2011-08-16T13:46:41Z</time>
      </trkpt>
      <trkpt lat="47.14059" lon="5.78554">
        <ele>256</ele>
        <time>2011-08-16T13:46:42Z</time>
      </trkpt>
      <trkpt lat="47.14063" lon="5.78541">
        <ele>256</ele>
        <time>2011-08-16T13:46:43Z</time>
      </trkpt>
      <trkpt lat="47.14065" lon="5.78528">
        <ele>256</ele>
        <time>2011-08-16T13:46:44Z</time>
      </trkpt>
      <trkpt lat="47.14068" lon="5.78514">
        <ele>256</ele>
        <time>2011-08-16T13:46:45Z</time>
      </trkpt>
      <trkpt lat="47.14071" lon="5.78502">
        <ele>256</ele>
        <time>2011-08-16T13:46:46Z</time>
      </trkpt>
      <trkpt lat="47.14074" lon="5.78489">
        <ele>250</ele>
        <time>2011-08-16T13:46:47Z</time>
      </trkpt>
      <trkpt lat="47.14077" lon="5.78476">
        <ele>250</ele>
        <time>2011-08-16T13:46:48Z</time>
      </trkpt>
      <trkpt lat="47.14081" lon="5.78464">
        <ele>250</ele>
        <time>2011-08-16T13:46:49Z</time>
      </trkpt>
      <trkpt lat="47.14085" lon="5.78451">
        <ele>250</ele>
        <time>2011-08-16T13:46:50Z</time>
      </trkpt>
      <trkpt lat="47.14088" lon="5.78439">
        <ele>250</ele>
        <time>2011-08-16T13:46:51Z</time>
      </trkpt>
      <trkpt lat="47.14092" lon="5.78426">
        <ele>250</ele>
        <time>2011-08-16T13:46:52Z</time>
      </trkpt>
      <trkpt lat="47.14095" lon="5.78414">
        <ele>250</ele>
        <time>2011-08-16T13:46:53Z</time>
      </trkpt>
      <trkpt lat="47.14099" lon="5.78401">
        <ele>250</ele>
        <time>2011-08-16T13:46:54Z</time>
      </trkpt>
      <trkpt lat="47.14103" lon="5.78389">
        <ele>250</ele>
        <time>2011-08-16T13:46:55Z</time>
      </trkpt>
      <trkpt lat="47.14107" lon="5.78378">
        <ele>250</ele>
        <time>2011-08-16T13:46:56Z</time>
      </trkpt>
      <trkpt lat="47.14112" lon="5.78365">
        <ele>250</ele>
        <time>2011-08-16T13:46:57Z</time>
      </trkpt>
      <trkpt lat="47.14115" lon="5.78352">
        <ele>250</ele>
        <time>2011-08-16T13:46:58Z</time>
      </trkpt>
      <trkpt lat="47.14121" lon="5.78327">
        <ele>250</ele>
        <time>2011-08-16T13:47:00Z</time>
      </trkpt>
      <trkpt lat="47.14125" lon="5.78301">
        <ele>250</ele>
        <time>2011-08-16T13:47:02Z</time>
      </trkpt>
      <trkpt lat="47.14129" lon="5.78289">
        <ele>250</ele>
        <time>2011-08-16T13:47:03Z</time>
      </trkpt>
      <trkpt lat="47.14132" lon="5.78276">
        <ele>250</ele>
        <time>2011-08-16T13:47:04Z</time>
      </trkpt>
      <trkpt lat="47.14136" lon="5.78263">
        <ele>250</ele>
        <time>2011-08-16T13:47:05Z</time>
      </trkpt>
      <trkpt lat="47.14139" lon="5.7825">
        <ele>250</ele>
        <time>2011-08-16T13:47:06Z</time>
      </trkpt>
      <trkpt lat="47.14143" lon="5.78238">
        <ele>250</ele>
        <time>2011-08-16T13:47:07Z</time>
      </trkpt>
      <trkpt lat="47.14147" lon="5.78225">
        <ele>250</ele>
        <time>2011-08-16T13:47:08Z</time>
      </trkpt>
      <trkpt lat="47.1415" lon="5.78212">
        <ele>250</ele>
        <time>2011-08-16T13:47:09Z</time>
      </trkpt>
      <trkpt lat="47.14153" lon="5.782">
        <ele>250</ele>
        <time>2011-08-16T13:47:10Z</time>
      </trkpt>
      <trkpt lat="47.14156" lon="5.78186">
        <ele>250</ele>
        <time>2011-08-16T13:47:11Z</time>
      </trkpt>
      <trkpt lat="47.14163" lon="5.78161">
        <ele>250</ele>
        <time>2011-08-16T13:47:13Z</time>
      </trkpt>
      <trkpt lat="47.14165" lon="5.78149">
        <ele>250</ele>
        <time>2011-08-16T13:47:14Z</time>
      </trkpt>
      <trkpt lat="47.14167" lon="5.78135">
        <ele>250</ele>
        <time>2011-08-16T13:47:15Z</time>
      </trkpt>
      <trkpt lat="47.14169" lon="5.78123">
        <ele>250</ele>
        <time>2011-08-16T13:47:16Z</time>
      </trkpt>
      <trkpt lat="47.14172" lon="5.7811">
        <ele>250</ele>
        <time>2011-08-16T13:47:17Z</time>
      </trkpt>
      <trkpt lat="47.14176" lon="5.78086">
        <ele>250</ele>
        <time>2011-08-16T13:47:19Z</time>
      </trkpt>
      <trkpt lat="47.14182" lon="5.78061">
        <ele>250</ele>
        <time>2011-08-16T13:47:21Z</time>
      </trkpt>
      <trkpt lat="47.1419" lon="5.78037">
        <ele>250</ele>
        <time>2011-08-16T13:47:23Z</time>
      </trkpt>
      <trkpt lat="47.14192" lon="5.78025">
        <ele>250</ele>
        <time>2011-08-16T13:47:24Z</time>
      </trkpt>
      <trkpt lat="47.14195" lon="5.78012">
        <ele>250</ele>
        <time>2011-08-16T13:47:25Z</time>
      </trkpt>
      <trkpt lat="47.14199" lon="5.77988">
        <ele>250</ele>
        <time>2011-08-16T13:47:27Z</time>
      </trkpt>
      <trkpt lat="47.14202" lon="5.77975">
        <ele>250</ele>
        <time>2011-08-16T13:47:28Z</time>
      </trkpt>
      <trkpt lat="47.14207" lon="5.77954">
        <ele>250</ele>
        <time>2011-08-16T13:47:30Z</time>
      </trkpt>
      <trkpt lat="47.14212" lon="5.77932">
        <ele>250</ele>
        <time>2011-08-16T13:47:32Z</time>
      </trkpt>
      <trkpt lat="47.14216" lon="5.77912">
        <ele>250</ele>
        <time>2011-08-16T13:47:34Z</time>
      </trkpt>
      <trkpt lat="47.1422" lon="5.77891">
        <ele>250</ele>
        <time>2011-08-16T13:47:36Z</time>
      </trkpt>
      <trkpt lat="47.14224" lon="5.77868">
        <ele>250</ele>
        <time>2011-08-16T13:47:38Z</time>
      </trkpt>
      <trkpt lat="47.14228" lon="5.77845">
        <ele>250</ele>
        <time>2011-08-16T13:47:40Z</time>
      </trkpt>
      <trkpt lat="47.14228" lon="5.77822">
        <ele>250</ele>
        <time>2011-08-16T13:47:42Z</time>
      </trkpt>
      <trkpt lat="47.14229" lon="5.77801">
        <ele>250</ele>
        <time>2011-08-16T13:47:44Z</time>
      </trkpt>
      <trkpt lat="47.14228" lon="5.77779">
        <ele>250</ele>
        <time>2011-08-16T13:47:46Z</time>
      </trkpt>
      <trkpt lat="47.14225" lon="5.77758">
        <ele>256</ele>
        <time>2011-08-16T13:47:48Z</time>
      </trkpt>
      <trkpt lat="47.1422" lon="5.77738">
        <ele>256</ele>
        <time>2011-08-16T13:47:50Z</time>
      </trkpt>
      <trkpt lat="47.14213" lon="5.77717">
        <ele>265</ele>
        <time>2011-08-16T13:47:52Z</time>
      </trkpt>
      <trkpt lat="47.1421" lon="5.77696">
        <ele>265</ele>
        <time>2011-08-16T13:47:54Z</time>
      </trkpt>
      <trkpt lat="47.1421" lon="5.77682">
        <ele>265</ele>
        <time>2011-08-16T13:47:55Z</time>
      </trkpt>
      <trkpt lat="47.14207" lon="5.77658">
        <ele>265</ele>
        <time>2011-08-16T13:47:57Z</time>
      </trkpt>
      <trkpt lat="47.14206" lon="5.77631">
        <ele>265</ele>
        <time>2011-08-16T13:47:59Z</time>
      </trkpt>
      <trkpt lat="47.14205" lon="5.77603">
        <ele>265</ele>
        <time>2011-08-16T13:48:01Z</time>
      </trkpt>
      <trkpt lat="47.14205" lon="5.77589">
        <ele>265</ele>
        <time>2011-08-16T13:48:02Z</time>
      </trkpt>
      <trkpt lat="47.14204" lon="5.77573">
        <ele>265</ele>
        <time>2011-08-16T13:48:03Z</time>
      </trkpt>
      <trkpt lat="47.142" lon="5.77557">
        <ele>265</ele>
        <time>2011-08-16T13:48:04Z</time>
      </trkpt>
      <trkpt lat="47.14199" lon="5.77542">
        <ele>265</ele>
        <time>2011-08-16T13:48:05Z</time>
      </trkpt>
      <trkpt lat="47.14201" lon="5.77528">
        <ele>260</ele>
        <time>2011-08-16T13:48:06Z</time>
      </trkpt>
      <trkpt lat="47.14203" lon="5.77514">
        <ele>260</ele>
        <time>2011-08-16T13:48:07Z</time>
      </trkpt>
      <trkpt lat="47.14207" lon="5.77501">
        <ele>260</ele>
        <time>2011-08-16T13:48:08Z</time>
      </trkpt>
      <trkpt lat="47.14211" lon="5.77487">
        <ele>260</ele>
        <time>2011-08-16T13:48:09Z</time>
      </trkpt>
      <trkpt lat="47.14215" lon="5.77475">
        <ele>260</ele>
        <time>2011-08-16T13:48:10Z</time>
      </trkpt>
      <trkpt lat="47.1422" lon="5.77451">
        <ele>260</ele>
        <time>2011-08-16T13:48:12Z</time>
      </trkpt>
      <trkpt lat="47.14223" lon="5.77426">
        <ele>260</ele>
        <time>2011-08-16T13:48:14Z</time>
      </trkpt>
      <trkpt lat="47.14224" lon="5.77402">
        <ele>260</ele>
        <time>2011-08-16T13:48:16Z</time>
      </trkpt>
      <trkpt lat="47.14226" lon="5.77377">
        <ele>255</ele>
        <time>2011-08-16T13:48:18Z</time>
      </trkpt>
      <trkpt lat="47.1423" lon="5.77354">
        <ele>255</ele>
        <time>2011-08-16T13:48:20Z</time>
      </trkpt>
      <trkpt lat="47.14234" lon="5.77329">
        <ele>255</ele>
        <time>2011-08-16T13:48:22Z</time>
      </trkpt>
      <trkpt lat="47.14239" lon="5.77306">
        <ele>255</ele>
        <time>2011-08-16T13:48:24Z</time>
      </trkpt>
      <trkpt lat="47.14242" lon="5.77293">
        <ele>255</ele>
        <time>2011-08-16T13:48:25Z</time>
      </trkpt>
      <trkpt lat="47.14245" lon="5.77281">
        <ele>255</ele>
        <time>2011-08-16T13:48:26Z</time>
      </trkpt>
      <trkpt lat="47.14245" lon="5.77256">
        <ele>255</ele>
        <time>2011-08-16T13:48:28Z</time>
      </trkpt>
      <trkpt lat="47.14245" lon="5.77231">
        <ele>255</ele>
        <time>2011-08-16T13:48:30Z</time>
      </trkpt>
      <trkpt lat="47.14243" lon="5.77206">
        <ele>250</ele>
        <time>2011-08-16T13:48:32Z</time>
      </trkpt>
      <trkpt lat="47.1424" lon="5.77186">
        <ele>250</ele>
        <time>2011-08-16T13:48:34Z</time>
      </trkpt>
      <trkpt lat="47.14235" lon="5.7716">
        <ele>250</ele>
        <time>2011-08-16T13:48:36Z</time>
      </trkpt>
      <trkpt lat="47.14234" lon="5.77145">
        <ele>250</ele>
        <time>2011-08-16T13:48:37Z</time>
      </trkpt>
      <trkpt lat="47.14232" lon="5.77131">
        <ele>250</ele>
        <time>2011-08-16T13:48:38Z</time>
      </trkpt>
      <trkpt lat="47.14229" lon="5.77116">
        <ele>250</ele>
        <time>2011-08-16T13:48:39Z</time>
      </trkpt>
      <trkpt lat="47.14226" lon="5.77102">
        <ele>250</ele>
        <time>2011-08-16T13:48:40Z</time>
      </trkpt>
      <trkpt lat="47.14224" lon="5.77086">
        <ele>250</ele>
        <time>2011-08-16T13:48:41Z</time>
      </trkpt>
      <trkpt lat="47.14221" lon="5.77072">
        <ele>250</ele>
        <time>2011-08-16T13:48:42Z</time>
      </trkpt>
      <trkpt lat="47.14219" lon="5.77059">
        <ele>250</ele>
        <time>2011-08-16T13:48:43Z</time>
      </trkpt>
      <trkpt lat="47.14216" lon="5.77045">
        <ele>250</ele>
        <time>2011-08-16T13:48:44Z</time>
      </trkpt>
      <trkpt lat="47.14215" lon="5.77029">
        <ele>250</ele>
        <time>2011-08-16T13:48:45Z</time>
      </trkpt>
      <trkpt lat="47.14212" lon="5.77015">
        <ele>250</ele>
        <time>2011-08-16T13:48:46Z</time>
      </trkpt>
      <trkpt lat="47.1421" lon="5.77">
        <ele>250</ele>
        <time>2011-08-16T13:48:47Z</time>
      </trkpt>
      <trkpt lat="47.14208" lon="5.76984">
        <ele>250</ele>
        <time>2011-08-16T13:48:48Z</time>
      </trkpt>
      <trkpt lat="47.14206" lon="5.76971">
        <ele>250</ele>
        <time>2011-08-16T13:48:49Z</time>
      </trkpt>
      <trkpt lat="47.14204" lon="5.76945">
        <ele>250</ele>
        <time>2011-08-16T13:48:51Z</time>
      </trkpt>
      <trkpt lat="47.14202" lon="5.76921">
        <ele>250</ele>
        <time>2011-08-16T13:48:53Z</time>
      </trkpt>
      <trkpt lat="47.142" lon="5.76908">
        <ele>250</ele>
        <time>2011-08-16T13:48:54Z</time>
      </trkpt>
      <trkpt lat="47.14196" lon="5.76885">
        <ele>250</ele>
        <time>2011-08-16T13:48:56Z</time>
      </trkpt>
      <trkpt lat="47.14194" lon="5.76853">
        <ele>250</ele>
        <time>2011-08-16T13:48:58Z</time>
      </trkpt>
      <trkpt lat="47.14194" lon="5.76832">
        <ele>250</ele>
        <time>2011-08-16T13:48:59Z</time>
      </trkpt>
      <trkpt lat="47.14194" lon="5.76811">
        <ele>250</ele>
        <time>2011-08-16T13:49:00Z</time>
      </trkpt>
      <trkpt lat="47.14195" lon="5.76792">
        <ele>250</ele>
        <time>2011-08-16T13:49:01Z</time>
      </trkpt>
      <trkpt lat="47.14196" lon="5.76774">
        <ele>250</ele>
        <time>2011-08-16T13:49:02Z</time>
      </trkpt>
      <trkpt lat="47.14196" lon="5.76756">
        <ele>244</ele>
        <time>2011-08-16T13:49:03Z</time>
      </trkpt>
      <trkpt lat="47.14197" lon="5.76738">
        <ele>244</ele>
        <time>2011-08-16T13:49:04Z</time>
      </trkpt>
      <trkpt lat="47.14197" lon="5.76721">
        <ele>244</ele>
        <time>2011-08-16T13:49:05Z</time>
      </trkpt>
      <trkpt lat="47.142" lon="5.76705">
        <ele>244</ele>
        <time>2011-08-16T13:49:06Z</time>
      </trkpt>
      <trkpt lat="47.14202" lon="5.76689">
        <ele>244</ele>
        <time>2011-08-16T13:49:07Z</time>
      </trkpt>
      <trkpt lat="47.14202" lon="5.76672">
        <ele>244</ele>
        <time>2011-08-16T13:49:08Z</time>
      </trkpt>
      <trkpt lat="47.14203" lon="5.76656">
        <ele>244</ele>
        <time>2011-08-16T13:49:09Z</time>
      </trkpt>
      <trkpt lat="47.14205" lon="5.7664">
        <ele>244</ele>
        <time>2011-08-16T13:49:10Z</time>
      </trkpt>
      <trkpt lat="47.14207" lon="5.76625">
        <ele>244</ele>
        <time>2011-08-16T13:49:11Z</time>
      </trkpt>
      <trkpt lat="47.14209" lon="5.7661">
        <ele>244</ele>
        <time>2011-08-16T13:49:12Z</time>
      </trkpt>
      <trkpt lat="47.1421" lon="5.76594">
        <ele>244</ele>
        <time>2011-08-16T13:49:13Z</time>
      </trkpt>
      <trkpt lat="47.14214" lon="5.7658">
        <ele>244</ele>
        <time>2011-08-16T13:49:14Z</time>
      </trkpt>
      <trkpt lat="47.14218" lon="5.76566">
        <ele>244</ele>
        <time>2011-08-16T13:49:15Z</time>
      </trkpt>
      <trkpt lat="47.14223" lon="5.76552">
        <ele>244</ele>
        <time>2011-08-16T13:49:16Z</time>
      </trkpt>
      <trkpt lat="47.14227" lon="5.76539">
        <ele>244</ele>
        <time>2011-08-16T13:49:17Z</time>
      </trkpt>
      <trkpt lat="47.14232" lon="5.76525">
        <ele>244</ele>
        <time>2011-08-16T13:49:18Z</time>
      </trkpt>
      <trkpt lat="47.14237" lon="5.76512">
        <ele>244</ele>
        <time>2011-08-16T13:49:19Z</time>
      </trkpt>
      <trkpt lat="47.14243" lon="5.76498">
        <ele>244</ele>
        <time>2011-08-16T13:49:20Z</time>
      </trkpt>
      <trkpt lat="47.14249" lon="5.76486">
        <ele>244</ele>
        <time>2011-08-16T13:49:21Z</time>
      </trkpt>
      <trkpt lat="47.14255" lon="5.76472">
        <ele>244</ele>
        <time>2011-08-16T13:49:22Z</time>
      </trkpt>
      <trkpt lat="47.1426" lon="5.7646">
        <ele>244</ele>
        <time>2011-08-16T13:49:23Z</time>
      </trkpt>
      <trkpt lat="47.14264" lon="5.76445">
        <ele>244</ele>
        <time>2011-08-16T13:49:24Z</time>
      </trkpt>
      <trkpt lat="47.1427" lon="5.76432">
        <ele>244</ele>
        <time>2011-08-16T13:49:25Z</time>
      </trkpt>
      <trkpt lat="47.14274" lon="5.76419">
        <ele>244</ele>
        <time>2011-08-16T13:49:26Z</time>
      </trkpt>
      <trkpt lat="47.14278" lon="5.76406">
        <ele>244</ele>
        <time>2011-08-16T13:49:27Z</time>
      </trkpt>
      <trkpt lat="47.14282" lon="5.76392">
        <ele>244</ele>
        <time>2011-08-16T13:49:28Z</time>
      </trkpt>
      <trkpt lat="47.14286" lon="5.76378">
        <ele>244</ele>
        <time>2011-08-16T13:49:29Z</time>
      </trkpt>
      <trkpt lat="47.14291" lon="5.76365">
        <ele>244</ele>
        <time>2011-08-16T13:49:30Z</time>
      </trkpt>
      <trkpt lat="47.14295" lon="5.76351">
        <ele>244</ele>
        <time>2011-08-16T13:49:31Z</time>
      </trkpt>
      <trkpt lat="47.143" lon="5.76338">
        <ele>244</ele>
        <time>2011-08-16T13:49:32Z</time>
      </trkpt>
      <trkpt lat="47.14307" lon="5.76326">
        <ele>244</ele>
        <time>2011-08-16T13:49:33Z</time>
      </trkpt>
      <trkpt lat="47.14313" lon="5.76314">
        <ele>244</ele>
        <time>2011-08-16T13:49:34Z</time>
      </trkpt>
      <trkpt lat="47.14318" lon="5.76302">
        <ele>244</ele>
        <time>2011-08-16T13:49:35Z</time>
      </trkpt>
      <trkpt lat="47.14323" lon="5.76289">
        <ele>244</ele>
        <time>2011-08-16T13:49:36Z</time>
      </trkpt>
      <trkpt lat="47.14329" lon="5.76276">
        <ele>244</ele>
        <time>2011-08-16T13:49:37Z</time>
      </trkpt>
      <trkpt lat="47.14335" lon="5.76265">
        <ele>244</ele>
        <time>2011-08-16T13:49:38Z</time>
      </trkpt>
      <trkpt lat="47.14341" lon="5.76254">
        <ele>244</ele>
        <time>2011-08-16T13:49:39Z</time>
      </trkpt>
      <trkpt lat="47.14347" lon="5.76243">
        <ele>244</ele>
        <time>2011-08-16T13:49:40Z</time>
      </trkpt>
      <trkpt lat="47.14354" lon="5.76233">
        <ele>244</ele>
        <time>2011-08-16T13:49:41Z</time>
      </trkpt>
      <trkpt lat="47.14362" lon="5.76224">
        <ele>244</ele>
        <time>2011-08-16T13:49:42Z</time>
      </trkpt>
      <trkpt lat="47.14368" lon="5.76215">
        <ele>244</ele>
        <time>2011-08-16T13:49:43Z</time>
      </trkpt>
      <trkpt lat="47.14382" lon="5.76199">
        <ele>244</ele>
        <time>2011-08-16T13:49:45Z</time>
      </trkpt>
      <trkpt lat="47.14389" lon="5.76191">
        <ele>244</ele>
        <time>2011-08-16T13:49:46Z</time>
      </trkpt>
      <trkpt lat="47.14403" lon="5.76177">
        <ele>244</ele>
        <time>2011-08-16T13:49:48Z</time>
      </trkpt>
      <trkpt lat="47.14417" lon="5.76162">
        <ele>244</ele>
        <time>2011-08-16T13:49:50Z</time>
      </trkpt>
      <trkpt lat="47.14431" lon="5.76148">
        <ele>244</ele>
        <time>2011-08-16T13:49:52Z</time>
      </trkpt>
      <trkpt lat="47.14446" lon="5.76134">
        <ele>244</ele>
        <time>2011-08-16T13:49:54Z</time>
      </trkpt>
      <trkpt lat="47.1446" lon="5.76118">
        <ele>244</ele>
        <time>2011-08-16T13:49:56Z</time>
      </trkpt>
      <trkpt lat="47.14474" lon="5.76104">
        <ele>244</ele>
        <time>2011-08-16T13:49:58Z</time>
      </trkpt>
      <trkpt lat="47.14488" lon="5.76089">
        <ele>244</ele>
        <time>2011-08-16T13:50:00Z</time>
      </trkpt>
      <trkpt lat="47.14503" lon="5.76076">
        <ele>244</ele>
        <time>2011-08-16T13:50:02Z</time>
      </trkpt>
      <trkpt lat="47.14519" lon="5.76069">
        <ele>238</ele>
        <time>2011-08-16T13:50:04Z</time>
      </trkpt>
      <trkpt lat="47.14534" lon="5.76068">
        <ele>238</ele>
        <time>2011-08-16T13:50:06Z</time>
      </trkpt>
      <trkpt lat="47.14547" lon="5.76072">
        <ele>238</ele>
        <time>2011-08-16T13:50:08Z</time>
      </trkpt>
      <trkpt lat="47.14557" lon="5.76075">
        <ele>244</ele>
        <time>2011-08-16T13:50:10Z</time>
      </trkpt>
      <trkpt lat="47.14568" lon="5.76083">
        <ele>244</ele>
        <time>2011-08-16T13:50:12Z</time>
      </trkpt>
      <trkpt lat="47.14577" lon="5.76088">
        <ele>253</ele>
        <time>2011-08-16T13:50:14Z</time>
      </trkpt>
      <trkpt lat="47.14629" lon="5.76124">
        <ele>272</ele>
        <time>2011-08-16T13:50:23Z</time>
      </trkpt>
      <trkpt lat="47.14638" lon="5.76126">
        <ele>272</ele>
        <time>2011-08-16T13:50:24Z</time>
      </trkpt>
      <trkpt lat="47.14649" lon="5.7613">
        <ele>278</ele>
        <time>2011-08-16T13:50:25Z</time>
      </trkpt>
      <trkpt lat="47.14665" lon="5.76136">
        <ele>278</ele>
        <time>2011-08-16T13:50:27Z</time>
      </trkpt>
      <trkpt lat="47.14682" lon="5.76142">
        <ele>278</ele>
        <time>2011-08-16T13:50:29Z</time>
      </trkpt>
      <trkpt lat="47.14698" lon="5.76147">
        <ele>278</ele>
        <time>2011-08-16T13:50:31Z</time>
      </trkpt>
      <trkpt lat="47.1471" lon="5.76152">
        <ele>283</ele>
        <time>2011-08-16T13:50:33Z</time>
      </trkpt>
      <trkpt lat="47.14726" lon="5.76156">
        <ele>283</ele>
        <time>2011-08-16T13:50:35Z</time>
      </trkpt>
      <trkpt lat="47.14741" lon="5.76161">
        <ele>283</ele>
        <time>2011-08-16T13:50:37Z</time>
      </trkpt>
      <trkpt lat="47.14752" lon="5.76164">
        <ele>283</ele>
        <time>2011-08-16T13:50:39Z</time>
      </trkpt>
      <trkpt lat="47.14764" lon="5.76168">
        <ele>283</ele>
        <time>2011-08-16T13:50:41Z</time>
      </trkpt>
      <trkpt lat="47.14779" lon="5.76171">
        <ele>289</ele>
        <time>2011-08-16T13:50:43Z</time>
      </trkpt>
      <trkpt lat="47.14793" lon="5.76175">
        <ele>289</ele>
        <time>2011-08-16T13:50:45Z</time>
      </trkpt>
      <trkpt lat="47.14806" lon="5.76179">
        <ele>289</ele>
        <time>2011-08-16T13:50:47Z</time>
      </trkpt>
      <trkpt lat="47.14821" lon="5.76182">
        <ele>280</ele>
        <time>2011-08-16T13:50:49Z</time>
      </trkpt>
      <trkpt lat="47.14834" lon="5.76183">
        <ele>280</ele>
        <time>2011-08-16T13:50:51Z</time>
      </trkpt>
      <trkpt lat="47.1485" lon="5.76184">
        <ele>270</ele>
        <time>2011-08-16T13:50:53Z</time>
      </trkpt>
      <trkpt lat="47.14863" lon="5.76183">
        <ele>264</ele>
        <time>2011-08-16T13:50:55Z</time>
      </trkpt>
      <trkpt lat="47.14875" lon="5.76182">
        <ele>258</ele>
        <time>2011-08-16T13:50:57Z</time>
      </trkpt>
      <trkpt lat="47.14889" lon="5.76184">
        <ele>247</ele>
        <time>2011-08-16T13:50:59Z</time>
      </trkpt>
      <trkpt lat="47.14898" lon="5.76186">
        <ele>239</ele>
        <time>2011-08-16T13:51:01Z</time>
      </trkpt>
      <trkpt lat="47.14908" lon="5.76186">
        <ele>233</ele>
        <time>2011-08-16T13:51:04Z</time>
      </trkpt>
      <trkpt lat="47.14919" lon="5.76184">
        <ele>233</ele>
        <time>2011-08-16T13:51:08Z</time>
      </trkpt>
      <trkpt lat="47.14927" lon="5.76179">
        <ele>233</ele>
        <time>2011-08-16T13:51:15Z</time>
      </trkpt>
      <trkpt lat="47.14937" lon="5.76181">
        <ele>221</ele>
        <time>2011-08-16T13:51:38Z</time>
      </trkpt>
      <trkpt lat="47.14932" lon="5.76169">
        <ele>221</ele>
        <time>2011-08-16T13:51:53Z</time>
      </trkpt>
      <trkpt lat="47.14927" lon="5.76155">
        <ele>221</ele>
        <time>2011-08-16T13:51:57Z</time>
      </trkpt>
      <trkpt lat="47.14926" lon="5.76141">
        <ele>221</ele>
        <time>2011-08-16T13:52:02Z</time>
      </trkpt>
      <trkpt lat="47.14924" lon="5.76124">
        <ele>227</ele>
        <time>2011-08-16T13:52:06Z</time>
      </trkpt>
      <trkpt lat="47.14924" lon="5.76108">
        <ele>227</ele>
        <time>2011-08-16T13:52:10Z</time>
      </trkpt>
      <trkpt lat="47.14919" lon="5.76096">
        <ele>234</ele>
        <time>2011-08-16T13:52:13Z</time>
      </trkpt>
      <trkpt lat="47.14913" lon="5.76087">
        <ele>234</ele>
        <time>2011-08-16T13:52:16Z</time>
      </trkpt>
      <trkpt lat="47.14906" lon="5.76075">
        <ele>234</ele>
        <time>2011-08-16T13:52:18Z</time>
      </trkpt>
      <trkpt lat="47.14899" lon="5.76065">
        <ele>234</ele>
        <time>2011-08-16T13:52:20Z</time>
      </trkpt>
      <trkpt lat="47.14892" lon="5.76055">
        <ele>234</ele>
        <time>2011-08-16T13:52:22Z</time>
      </trkpt>
      <trkpt lat="47.14887" lon="5.76042">
        <ele>234</ele>
        <time>2011-08-16T13:52:24Z</time>
      </trkpt>
      <trkpt lat="47.14882" lon="5.7603">
        <ele>234</ele>
        <time>2011-08-16T13:52:26Z</time>
      </trkpt>
      <trkpt lat="47.14874" lon="5.76015">
        <ele>234</ele>
        <time>2011-08-16T13:52:29Z</time>
      </trkpt>
      <trkpt lat="47.14866" lon="5.76002">
        <ele>240</ele>
        <time>2011-08-16T13:52:32Z</time>
      </trkpt>
      <trkpt lat="47.14859" lon="5.75993">
        <ele>240</ele>
        <time>2011-08-16T13:52:34Z</time>
      </trkpt>
      <trkpt lat="47.14848" lon="5.75981">
        <ele>240</ele>
        <time>2011-08-16T13:52:37Z</time>
      </trkpt>
      <trkpt lat="47.1484" lon="5.7597">
        <ele>240</ele>
        <time>2011-08-16T13:52:39Z</time>
      </trkpt>
      <trkpt lat="47.14833" lon="5.75958">
        <ele>234</ele>
        <time>2011-08-16T13:52:41Z</time>
      </trkpt>
      <trkpt lat="47.14825" lon="5.75943">
        <ele>234</ele>
        <time>2011-08-16T13:52:43Z</time>
      </trkpt>
      <trkpt lat="47.14819" lon="5.7593">
        <ele>234</ele>
        <time>2011-08-16T13:52:45Z</time>
      </trkpt>
      <trkpt lat="47.14813" lon="5.75918">
        <ele>234</ele>
        <time>2011-08-16T13:52:47Z</time>
      </trkpt>
      <trkpt lat="47.14807" lon="5.75906">
        <ele>234</ele>
        <time>2011-08-16T13:52:49Z</time>
      </trkpt>
      <trkpt lat="47.148" lon="5.75892">
        <ele>234</ele>
        <time>2011-08-16T13:52:51Z</time>
      </trkpt>
      <trkpt lat="47.14791" lon="5.75881">
        <ele>227</ele>
        <time>2011-08-16T13:52:53Z</time>
      </trkpt>
      <trkpt lat="47.14782" lon="5.75873">
        <ele>227</ele>
        <time>2011-08-16T13:52:55Z</time>
      </trkpt>
      <trkpt lat="47.14772" lon="5.75861">
        <ele>227</ele>
        <time>2011-08-16T13:52:58Z</time>
      </trkpt>
      <trkpt lat="47.14761" lon="5.75854">
        <ele>227</ele>
        <time>2011-08-16T13:53:01Z</time>
      </trkpt>
      <trkpt lat="47.1475" lon="5.75848">
        <ele>227</ele>
        <time>2011-08-16T13:53:04Z</time>
      </trkpt>
      <trkpt lat="47.14739" lon="5.75839">
        <ele>227</ele>
        <time>2011-08-16T13:53:07Z</time>
      </trkpt>
      <trkpt lat="47.14729" lon="5.75826">
        <ele>227</ele>
        <time>2011-08-16T13:53:10Z</time>
      </trkpt>
      <trkpt lat="47.14723" lon="5.75817">
        <ele>227</ele>
        <time>2011-08-16T13:53:12Z</time>
      </trkpt>
      <trkpt lat="47.14718" lon="5.75806">
        <ele>227</ele>
        <time>2011-08-16T13:53:14Z</time>
      </trkpt>
      <trkpt lat="47.14711" lon="5.75796">
        <ele>227</ele>
        <time>2011-08-16T13:53:16Z</time>
      </trkpt>
      <trkpt lat="47.14706" lon="5.75782">
        <ele>227</ele>
        <time>2011-08-16T13:53:18Z</time>
      </trkpt>
      <trkpt lat="47.14703" lon="5.75766">
        <ele>227</ele>
        <time>2011-08-16T13:53:20Z</time>
      </trkpt>
      <trkpt lat="47.14699" lon="5.7575">
        <ele>227</ele>
        <time>2011-08-16T13:53:22Z</time>
      </trkpt>
      <trkpt lat="47.14695" lon="5.75735">
        <ele>227</ele>
        <time>2011-08-16T13:53:24Z</time>
      </trkpt>
      <trkpt lat="47.14691" lon="5.75718">
        <ele>227</ele>
        <time>2011-08-16T13:53:26Z</time>
      </trkpt>
      <trkpt lat="47.14687" lon="5.75699">
        <ele>227</ele>
        <time>2011-08-16T13:53:28Z</time>
      </trkpt>
      <trkpt lat="47.14683" lon="5.75681">
        <ele>227</ele>
        <time>2011-08-16T13:53:30Z</time>
      </trkpt>
      <trkpt lat="47.14679" lon="5.75662">
        <ele>227</ele>
        <time>2011-08-16T13:53:32Z</time>
      </trkpt>
      <trkpt lat="47.14675" lon="5.75644">
        <ele>227</ele>
        <time>2011-08-16T13:53:34Z</time>
      </trkpt>
      <trkpt lat="47.14672" lon="5.75625">
        <ele>227</ele>
        <time>2011-08-16T13:53:36Z</time>
      </trkpt>
      <trkpt lat="47.14667" lon="5.75605">
        <ele>227</ele>
        <time>2011-08-16T13:53:38Z</time>
      </trkpt>
      <trkpt lat="47.14663" lon="5.75587">
        <ele>227</ele>
        <time>2011-08-16T13:53:40Z</time>
      </trkpt>
      <trkpt lat="47.14658" lon="5.75567">
        <ele>221</ele>
        <time>2011-08-16T13:53:42Z</time>
      </trkpt>
      <trkpt lat="47.14653" lon="5.75546">
        <ele>221</ele>
        <time>2011-08-16T13:53:44Z</time>
      </trkpt>
      <trkpt lat="47.14649" lon="5.75526">
        <ele>221</ele>
        <time>2011-08-16T13:53:46Z</time>
      </trkpt>
      <trkpt lat="47.14644" lon="5.75508">
        <ele>221</ele>
        <time>2011-08-16T13:53:48Z</time>
      </trkpt>
      <trkpt lat="47.14638" lon="5.75488">
        <ele>221</ele>
        <time>2011-08-16T13:53:50Z</time>
      </trkpt>
      <trkpt lat="47.14633" lon="5.75466">
        <ele>221</ele>
        <time>2011-08-16T13:53:52Z</time>
      </trkpt>
      <trkpt lat="47.14629" lon="5.75442">
        <ele>221</ele>
        <time>2011-08-16T13:53:54Z</time>
      </trkpt>
      <trkpt lat="47.14624" lon="5.75419">
        <ele>221</ele>
        <time>2011-08-16T13:53:56Z</time>
      </trkpt>
      <trkpt lat="47.14619" lon="5.75397">
        <ele>221</ele>
        <time>2011-08-16T13:53:58Z</time>
      </trkpt>
      <trkpt lat="47.14614" lon="5.75374">
        <ele>221</ele>
        <time>2011-08-16T13:54:00Z</time>
      </trkpt>
      <trkpt lat="47.14612" lon="5.75349">
        <ele>221</ele>
        <time>2011-08-16T13:54:02Z</time>
      </trkpt>
      <trkpt lat="47.14614" lon="5.75325">
        <ele>221</ele>
        <time>2011-08-16T13:54:04Z</time>
      </trkpt>
      <trkpt lat="47.14619" lon="5.75303">
        <ele>221</ele>
        <time>2011-08-16T13:54:06Z</time>
      </trkpt>
      <trkpt lat="47.14623" lon="5.75281">
        <ele>221</ele>
        <time>2011-08-16T13:54:08Z</time>
      </trkpt>
      <trkpt lat="47.14631" lon="5.7526">
        <ele>221</ele>
        <time>2011-08-16T13:54:10Z</time>
      </trkpt>
      <trkpt lat="47.14637" lon="5.7524">
        <ele>221</ele>
        <time>2011-08-16T13:54:12Z</time>
      </trkpt>
      <trkpt lat="47.14644" lon="5.75222">
        <ele>221</ele>
        <time>2011-08-16T13:54:14Z</time>
      </trkpt>
      <trkpt lat="47.1465" lon="5.75205">
        <ele>221</ele>
        <time>2011-08-16T13:54:16Z</time>
      </trkpt>
      <trkpt lat="47.14656" lon="5.75189">
        <ele>221</ele>
        <time>2011-08-16T13:54:18Z</time>
      </trkpt>
      <trkpt lat="47.14663" lon="5.75171">
        <ele>221</ele>
        <time>2011-08-16T13:54:20Z</time>
      </trkpt>
      <trkpt lat="47.14669" lon="5.75154">
        <ele>221</ele>
        <time>2011-08-16T13:54:22Z</time>
      </trkpt>
      <trkpt lat="47.14674" lon="5.75136">
        <ele>221</ele>
        <time>2011-08-16T13:54:24Z</time>
      </trkpt>
      <trkpt lat="47.14681" lon="5.75118">
        <ele>221</ele>
        <time>2011-08-16T13:54:26Z</time>
      </trkpt>
      <trkpt lat="47.14688" lon="5.751">
        <ele>221</ele>
        <time>2011-08-16T13:54:28Z</time>
      </trkpt>
      <trkpt lat="47.14694" lon="5.75083">
        <ele>221</ele>
        <time>2011-08-16T13:54:30Z</time>
      </trkpt>
      <trkpt lat="47.147" lon="5.75065">
        <ele>221</ele>
        <time>2011-08-16T13:54:32Z</time>
      </trkpt>
      <trkpt lat="47.14707" lon="5.75048">
        <ele>221</ele>
        <time>2011-08-16T13:54:34Z</time>
      </trkpt>
      <trkpt lat="47.14714" lon="5.75031">
        <ele>221</ele>
        <time>2011-08-16T13:54:36Z</time>
      </trkpt>
      <trkpt lat="47.1472" lon="5.75013">
        <ele>221</ele>
        <time>2011-08-16T13:54:38Z</time>
      </trkpt>
      <trkpt lat="47.14727" lon="5.74996">
        <ele>221</ele>
        <time>2011-08-16T13:54:40Z</time>
      </trkpt>
      <trkpt lat="47.14735" lon="5.74979">
        <ele>221</ele>
        <time>2011-08-16T13:54:42Z</time>
      </trkpt>
      <trkpt lat="47.14742" lon="5.74962">
        <ele>221</ele>
        <time>2011-08-16T13:54:44Z</time>
      </trkpt>
      <trkpt lat="47.1475" lon="5.74945">
        <ele>221</ele>
        <time>2011-08-16T13:54:46Z</time>
      </trkpt>
      <trkpt lat="47.14757" lon="5.74927">
        <ele>221</ele>
        <time>2011-08-16T13:54:48Z</time>
      </trkpt>
      <trkpt lat="47.14764" lon="5.74909">
        <ele>221</ele>
        <time>2011-08-16T13:54:50Z</time>
      </trkpt>
      <trkpt lat="47.14772" lon="5.7489">
        <ele>216</ele>
        <time>2011-08-16T13:54:52Z</time>
      </trkpt>
      <trkpt lat="47.14775" lon="5.7487">
        <ele>216</ele>
        <time>2011-08-16T13:54:54Z</time>
      </trkpt>
      <trkpt lat="47.14779" lon="5.74848">
        <ele>216</ele>
        <time>2011-08-16T13:54:56Z</time>
      </trkpt>
      <trkpt lat="47.1478" lon="5.74827">
        <ele>216</ele>
        <time>2011-08-16T13:54:58Z</time>
      </trkpt>
      <trkpt lat="47.14783" lon="5.74807">
        <ele>216</ele>
        <time>2011-08-16T13:55:00Z</time>
      </trkpt>
      <trkpt lat="47.14785" lon="5.74786">
        <ele>216</ele>
        <time>2011-08-16T13:55:02Z</time>
      </trkpt>
      <trkpt lat="47.14788" lon="5.74766">
        <ele>216</ele>
        <time>2011-08-16T13:55:04Z</time>
      </trkpt>
      <trkpt lat="47.14791" lon="5.74747">
        <ele>216</ele>
        <time>2011-08-16T13:55:06Z</time>
      </trkpt>
      <trkpt lat="47.14794" lon="5.74727">
        <ele>216</ele>
        <time>2011-08-16T13:55:08Z</time>
      </trkpt>
      <trkpt lat="47.14798" lon="5.74707">
        <ele>216</ele>
        <time>2011-08-16T13:55:10Z</time>
      </trkpt>
      <trkpt lat="47.14802" lon="5.74686">
        <ele>216</ele>
        <time>2011-08-16T13:55:12Z</time>
      </trkpt>
      <trkpt lat="47.14806" lon="5.74666">
        <ele>216</ele>
        <time>2011-08-16T13:55:14Z</time>
      </trkpt>
      <trkpt lat="47.14811" lon="5.74646">
        <ele>216</ele>
        <time>2011-08-16T13:55:16Z</time>
      </trkpt>
      <trkpt lat="47.14816" lon="5.74626">
        <ele>216</ele>
        <time>2011-08-16T13:55:18Z</time>
      </trkpt>
      <trkpt lat="47.14822" lon="5.74607">
        <ele>216</ele>
        <time>2011-08-16T13:55:20Z</time>
      </trkpt>
      <trkpt lat="47.14829" lon="5.74588">
        <ele>216</ele>
        <time>2011-08-16T13:55:22Z</time>
      </trkpt>
      <trkpt lat="47.14836" lon="5.74569">
        <ele>216</ele>
        <time>2011-08-16T13:55:24Z</time>
      </trkpt>
      <trkpt lat="47.14843" lon="5.7455">
        <ele>216</ele>
        <time>2011-08-16T13:55:26Z</time>
      </trkpt>
      <trkpt lat="47.1485" lon="5.74532">
        <ele>216</ele>
        <time>2011-08-16T13:55:28Z</time>
      </trkpt>
      <trkpt lat="47.14858" lon="5.74513">
        <ele>216</ele>
        <time>2011-08-16T13:55:30Z</time>
      </trkpt>
      <trkpt lat="47.14865" lon="5.74495">
        <ele>216</ele>
        <time>2011-08-16T13:55:32Z</time>
      </trkpt>
      <trkpt lat="47.14872" lon="5.74478">
        <ele>216</ele>
        <time>2011-08-16T13:55:34Z</time>
      </trkpt>
      <trkpt lat="47.14879" lon="5.7446">
        <ele>216</ele>
        <time>2011-08-16T13:55:36Z</time>
      </trkpt>
      <trkpt lat="47.14886" lon="5.74442">
        <ele>216</ele>
        <time>2011-08-16T13:55:38Z</time>
      </trkpt>
      <trkpt lat="47.14891" lon="5.74422">
        <ele>216</ele>
        <time>2011-08-16T13:55:40Z</time>
      </trkpt>
      <trkpt lat="47.14896" lon="5.74403">
        <ele>216</ele>
        <time>2011-08-16T13:55:42Z</time>
      </trkpt>
      <trkpt lat="47.14898" lon="5.74382">
        <ele>216</ele>
        <time>2011-08-16T13:55:44Z</time>
      </trkpt>
      <trkpt lat="47.14899" lon="5.74361">
        <ele>216</ele>
        <time>2011-08-16T13:55:46Z</time>
      </trkpt>
      <trkpt lat="47.14899" lon="5.74342">
        <ele>216</ele>
        <time>2011-08-16T13:55:48Z</time>
      </trkpt>
      <trkpt lat="47.14898" lon="5.74322">
        <ele>216</ele>
        <time>2011-08-16T13:55:50Z</time>
      </trkpt>
      <trkpt lat="47.14897" lon="5.74302">
        <ele>216</ele>
        <time>2011-08-16T13:55:52Z</time>
      </trkpt>
      <trkpt lat="47.14896" lon="5.74282">
        <ele>216</ele>
        <time>2011-08-16T13:55:54Z</time>
      </trkpt>
      <trkpt lat="47.14894" lon="5.74262">
        <ele>216</ele>
        <time>2011-08-16T13:55:56Z</time>
      </trkpt>
      <trkpt lat="47.14892" lon="5.74243">
        <ele>216</ele>
        <time>2011-08-16T13:55:58Z</time>
      </trkpt>
      <trkpt lat="47.14891" lon="5.74223">
        <ele>216</ele>
        <time>2011-08-16T13:56:00Z</time>
      </trkpt>
      <trkpt lat="47.14889" lon="5.74202">
        <ele>216</ele>
        <time>2011-08-16T13:56:02Z</time>
      </trkpt>
      <trkpt lat="47.14888" lon="5.74183">
        <ele>216</ele>
        <time>2011-08-16T13:56:04Z</time>
      </trkpt>
      <trkpt lat="47.14886" lon="5.74164">
        <ele>216</ele>
        <time>2011-08-16T13:56:06Z</time>
      </trkpt>
      <trkpt lat="47.14884" lon="5.74145">
        <ele>216</ele>
        <time>2011-08-16T13:56:08Z</time>
      </trkpt>
      <trkpt lat="47.14883" lon="5.74126">
        <ele>216</ele>
        <time>2011-08-16T13:56:10Z</time>
      </trkpt>
      <trkpt lat="47.14881" lon="5.74107">
        <ele>216</ele>
        <time>2011-08-16T13:56:12Z</time>
      </trkpt>
      <trkpt lat="47.14879" lon="5.74087">
        <ele>216</ele>
        <time>2011-08-16T13:56:14Z</time>
      </trkpt>
      <trkpt lat="47.14877" lon="5.74068">
        <ele>216</ele>
        <time>2011-08-16T13:56:16Z</time>
      </trkpt>
      <trkpt lat="47.14875" lon="5.7405">
        <ele>216</ele>
        <time>2011-08-16T13:56:18Z</time>
      </trkpt>
      <trkpt lat="47.14872" lon="5.74031">
        <ele>216</ele>
        <time>2011-08-16T13:56:20Z</time>
      </trkpt>
      <trkpt lat="47.14868" lon="5.74012">
        <ele>216</ele>
        <time>2011-08-16T13:56:22Z</time>
      </trkpt>
      <trkpt lat="47.14863" lon="5.73994">
        <ele>216</ele>
        <time>2011-08-16T13:56:24Z</time>
      </trkpt>
      <trkpt lat="47.14858" lon="5.73975">
        <ele>216</ele>
        <time>2011-08-16T13:56:26Z</time>
      </trkpt>
      <trkpt lat="47.14853" lon="5.73955">
        <ele>216</ele>
        <time>2011-08-16T13:56:28Z</time>
      </trkpt>
      <trkpt lat="47.1485" lon="5.73935">
        <ele>216</ele>
        <time>2011-08-16T13:56:30Z</time>
      </trkpt>
      <trkpt lat="47.14849" lon="5.73913">
        <ele>216</ele>
        <time>2011-08-16T13:56:32Z</time>
      </trkpt>
      <trkpt lat="47.14849" lon="5.73891">
        <ele>216</ele>
        <time>2011-08-16T13:56:34Z</time>
      </trkpt>
      <trkpt lat="47.14849" lon="5.73871">
        <ele>216</ele>
        <time>2011-08-16T13:56:36Z</time>
      </trkpt>
      <trkpt lat="47.14848" lon="5.73851">
        <ele>216</ele>
        <time>2011-08-16T13:56:38Z</time>
      </trkpt>
      <trkpt lat="47.14846" lon="5.73832">
        <ele>216</ele>
        <time>2011-08-16T13:56:40Z</time>
      </trkpt>
      <trkpt lat="47.14843" lon="5.73814">
        <ele>216</ele>
        <time>2011-08-16T13:56:42Z</time>
      </trkpt>
      <trkpt lat="47.1484" lon="5.73796">
        <ele>216</ele>
        <time>2011-08-16T13:56:44Z</time>
      </trkpt>
      <trkpt lat="47.14837" lon="5.73778">
        <ele>216</ele>
        <time>2011-08-16T13:56:46Z</time>
      </trkpt>
      <trkpt lat="47.14834" lon="5.73761">
        <ele>216</ele>
        <time>2011-08-16T13:56:48Z</time>
      </trkpt>
      <trkpt lat="47.1483" lon="5.73744">
        <ele>216</ele>
        <time>2011-08-16T13:56:50Z</time>
      </trkpt>
      <trkpt lat="47.14826" lon="5.73726">
        <ele>216</ele>
        <time>2011-08-16T13:56:52Z</time>
      </trkpt>
      <trkpt lat="47.14821" lon="5.73708">
        <ele>216</ele>
        <time>2011-08-16T13:56:54Z</time>
      </trkpt>
      <trkpt lat="47.14817" lon="5.7369">
        <ele>216</ele>
        <time>2011-08-16T13:56:56Z</time>
      </trkpt>
      <trkpt lat="47.14813" lon="5.73672">
        <ele>216</ele>
        <time>2011-08-16T13:56:58Z</time>
      </trkpt>
      <trkpt lat="47.14809" lon="5.73654">
        <ele>216</ele>
        <time>2011-08-16T13:57:00Z</time>
      </trkpt>
      <trkpt lat="47.14804" lon="5.73635">
        <ele>216</ele>
        <time>2011-08-16T13:57:02Z</time>
      </trkpt>
      <trkpt lat="47.148" lon="5.73617">
        <ele>216</ele>
        <time>2011-08-16T13:57:04Z</time>
      </trkpt>
      <trkpt lat="47.14795" lon="5.73598">
        <ele>216</ele>
        <time>2011-08-16T13:57:06Z</time>
      </trkpt>
      <trkpt lat="47.1479" lon="5.73579">
        <ele>216</ele>
        <time>2011-08-16T13:57:08Z</time>
      </trkpt>
      <trkpt lat="47.14786" lon="5.7356">
        <ele>216</ele>
        <time>2011-08-16T13:57:10Z</time>
      </trkpt>
      <trkpt lat="47.14782" lon="5.73541">
        <ele>216</ele>
        <time>2011-08-16T13:57:12Z</time>
      </trkpt>
      <trkpt lat="47.14777" lon="5.73522">
        <ele>216</ele>
        <time>2011-08-16T13:57:14Z</time>
      </trkpt>
      <trkpt lat="47.14773" lon="5.73504">
        <ele>216</ele>
        <time>2011-08-16T13:57:16Z</time>
      </trkpt>
      <trkpt lat="47.14768" lon="5.73485">
        <ele>216</ele>
        <time>2011-08-16T13:57:18Z</time>
      </trkpt>
      <trkpt lat="47.14764" lon="5.73467">
        <ele>216</ele>
        <time>2011-08-16T13:57:20Z</time>
      </trkpt>
      <trkpt lat="47.1476" lon="5.73449">
        <ele>216</ele>
        <time>2011-08-16T13:57:22Z</time>
      </trkpt>
      <trkpt lat="47.14755" lon="5.73432">
        <ele>216</ele>
        <time>2011-08-16T13:57:24Z</time>
      </trkpt>
      <trkpt lat="47.14751" lon="5.73413">
        <ele>216</ele>
        <time>2011-08-16T13:57:26Z</time>
      </trkpt>
      <trkpt lat="47.14746" lon="5.73395">
        <ele>216</ele>
        <time>2011-08-16T13:57:28Z</time>
      </trkpt>
      <trkpt lat="47.14742" lon="5.73377">
        <ele>216</ele>
        <time>2011-08-16T13:57:30Z</time>
      </trkpt>
      <trkpt lat="47.14737" lon="5.73359">
        <ele>216</ele>
        <time>2011-08-16T13:57:32Z</time>
      </trkpt>
      <trkpt lat="47.14733" lon="5.7334">
        <ele>216</ele>
        <time>2011-08-16T13:57:34Z</time>
      </trkpt>
      <trkpt lat="47.14729" lon="5.73321">
        <ele>216</ele>
        <time>2011-08-16T13:57:36Z</time>
      </trkpt>
      <trkpt lat="47.14724" lon="5.73303">
        <ele>216</ele>
        <time>2011-08-16T13:57:38Z</time>
      </trkpt>
      <trkpt lat="47.1472" lon="5.73284">
        <ele>216</ele>
        <time>2011-08-16T13:57:40Z</time>
      </trkpt>
      <trkpt lat="47.14714" lon="5.73266">
        <ele>216</ele>
        <time>2011-08-16T13:57:42Z</time>
      </trkpt>
      <trkpt lat="47.14709" lon="5.73247">
        <ele>216</ele>
        <time>2011-08-16T13:57:44Z</time>
      </trkpt>
      <trkpt lat="47.14704" lon="5.73229">
        <ele>216</ele>
        <time>2011-08-16T13:57:46Z</time>
      </trkpt>
      <trkpt lat="47.14699" lon="5.7321">
        <ele>216</ele>
        <time>2011-08-16T13:57:48Z</time>
      </trkpt>
      <trkpt lat="47.14693" lon="5.73191">
        <ele>216</ele>
        <time>2011-08-16T13:57:50Z</time>
      </trkpt>
      <trkpt lat="47.14688" lon="5.73172">
        <ele>216</ele>
        <time>2011-08-16T13:57:52Z</time>
      </trkpt>
      <trkpt lat="47.14682" lon="5.73151">
        <ele>216</ele>
        <time>2011-08-16T13:57:54Z</time>
      </trkpt>
      <trkpt lat="47.14677" lon="5.73131">
        <ele>216</ele>
        <time>2011-08-16T13:57:56Z</time>
      </trkpt>
      <trkpt lat="47.14672" lon="5.73111">
        <ele>216</ele>
        <time>2011-08-16T13:57:58Z</time>
      </trkpt>
      <trkpt lat="47.14668" lon="5.73089">
        <ele>216</ele>
        <time>2011-08-16T13:58:00Z</time>
      </trkpt>
      <trkpt lat="47.14663" lon="5.73068">
        <ele>216</ele>
        <time>2011-08-16T13:58:02Z</time>
      </trkpt>
      <trkpt lat="47.14659" lon="5.73046">
        <ele>216</ele>
        <time>2011-08-16T13:58:04Z</time>
      </trkpt>
      <trkpt lat="47.14655" lon="5.73025">
        <ele>216</ele>
        <time>2011-08-16T13:58:06Z</time>
      </trkpt>
      <trkpt lat="47.1465" lon="5.73005">
        <ele>216</ele>
        <time>2011-08-16T13:58:08Z</time>
      </trkpt>
      <trkpt lat="47.14647" lon="5.72983">
        <ele>216</ele>
        <time>2011-08-16T13:58:10Z</time>
      </trkpt>
      <trkpt lat="47.14642" lon="5.72963">
        <ele>216</ele>
        <time>2011-08-16T13:58:12Z</time>
      </trkpt>
      <trkpt lat="47.14638" lon="5.72942">
        <ele>216</ele>
        <time>2011-08-16T13:58:14Z</time>
      </trkpt>
      <trkpt lat="47.14634" lon="5.72922">
        <ele>216</ele>
        <time>2011-08-16T13:58:16Z</time>
      </trkpt>
      <trkpt lat="47.1463" lon="5.72902">
        <ele>216</ele>
        <time>2011-08-16T13:58:18Z</time>
      </trkpt>
      <trkpt lat="47.14626" lon="5.72882">
        <ele>216</ele>
        <time>2011-08-16T13:58:20Z</time>
      </trkpt>
      <trkpt lat="47.14621" lon="5.72862">
        <ele>216</ele>
        <time>2011-08-16T13:58:22Z</time>
      </trkpt>
      <trkpt lat="47.14617" lon="5.72842">
        <ele>216</ele>
        <time>2011-08-16T13:58:24Z</time>
      </trkpt>
      <trkpt lat="47.14612" lon="5.72826">
        <ele>216</ele>
        <time>2011-08-16T13:58:26Z</time>
      </trkpt>
      <trkpt lat="47.14606" lon="5.72809">
        <ele>216</ele>
        <time>2011-08-16T13:58:28Z</time>
      </trkpt>
      <trkpt lat="47.146" lon="5.72793">
        <ele>216</ele>
        <time>2011-08-16T13:58:30Z</time>
      </trkpt>
      <trkpt lat="47.14591" lon="5.72779">
        <ele>216</ele>
        <time>2011-08-16T13:58:32Z</time>
      </trkpt>
      <trkpt lat="47.14582" lon="5.72766">
        <ele>216</ele>
        <time>2011-08-16T13:58:34Z</time>
      </trkpt>
      <trkpt lat="47.14572" lon="5.72752">
        <ele>216</ele>
        <time>2011-08-16T13:58:36Z</time>
      </trkpt>
      <trkpt lat="47.14562" lon="5.72742">
        <ele>216</ele>
        <time>2011-08-16T13:58:38Z</time>
      </trkpt>
      <trkpt lat="47.14554" lon="5.72731">
        <ele>216</ele>
        <time>2011-08-16T13:58:40Z</time>
      </trkpt>
      <trkpt lat="47.14546" lon="5.72722">
        <ele>222</ele>
        <time>2011-08-16T13:58:42Z</time>
      </trkpt>
      <trkpt lat="47.14538" lon="5.72714">
        <ele>222</ele>
        <time>2011-08-16T13:58:44Z</time>
      </trkpt>
      <trkpt lat="47.1453" lon="5.72707">
        <ele>222</ele>
        <time>2011-08-16T13:58:46Z</time>
      </trkpt>
      <trkpt lat="47.14522" lon="5.72696">
        <ele>222</ele>
        <time>2011-08-16T13:58:49Z</time>
      </trkpt>
      <trkpt lat="47.1452" lon="5.72681">
        <ele>222</ele>
        <time>2011-08-16T13:58:52Z</time>
      </trkpt>
      <trkpt lat="47.1452" lon="5.72667">
        <ele>222</ele>
        <time>2011-08-16T13:58:55Z</time>
      </trkpt>
      <trkpt lat="47.14528" lon="5.72654">
        <ele>222</ele>
        <time>2011-08-16T13:58:59Z</time>
      </trkpt>
      <trkpt lat="47.14536" lon="5.72643">
        <ele>222</ele>
        <time>2011-08-16T13:59:03Z</time>
      </trkpt>
      <trkpt lat="47.14544" lon="5.72633">
        <ele>222</ele>
        <time>2011-08-16T13:59:06Z</time>
      </trkpt>
      <trkpt lat="47.14552" lon="5.72624">
        <ele>222</ele>
        <time>2011-08-16T13:59:09Z</time>
      </trkpt>
      <trkpt lat="47.1456" lon="5.72614">
        <ele>222</ele>
        <time>2011-08-16T13:59:12Z</time>
      </trkpt>
      <trkpt lat="47.14568" lon="5.72603">
        <ele>222</ele>
        <time>2011-08-16T13:59:15Z</time>
      </trkpt>
      <trkpt lat="47.14577" lon="5.72593">
        <ele>222</ele>
        <time>2011-08-16T13:59:18Z</time>
      </trkpt>
      <trkpt lat="47.14585" lon="5.72583">
        <ele>222</ele>
        <time>2011-08-16T13:59:21Z</time>
      </trkpt>
      <trkpt lat="47.14593" lon="5.72573">
        <ele>222</ele>
        <time>2011-08-16T13:59:24Z</time>
      </trkpt>
      <trkpt lat="47.14602" lon="5.72562">
        <ele>222</ele>
        <time>2011-08-16T13:59:27Z</time>
      </trkpt>
      <trkpt lat="47.14611" lon="5.7255">
        <ele>222</ele>
        <time>2011-08-16T13:59:30Z</time>
      </trkpt>
      <trkpt lat="47.1462" lon="5.72539">
        <ele>222</ele>
        <time>2011-08-16T13:59:33Z</time>
      </trkpt>
      <trkpt lat="47.1463" lon="5.72528">
        <ele>222</ele>
        <time>2011-08-16T13:59:36Z</time>
      </trkpt>
      <trkpt lat="47.14637" lon="5.72519">
        <ele>222</ele>
        <time>2011-08-16T13:59:38Z</time>
      </trkpt>
      <trkpt lat="47.14644" lon="5.7251">
        <ele>222</ele>
        <time>2011-08-16T13:59:40Z</time>
      </trkpt>
      <trkpt lat="47.14652" lon="5.725">
        <ele>222</ele>
        <time>2011-08-16T13:59:42Z</time>
      </trkpt>
      <trkpt lat="47.14661" lon="5.72491">
        <ele>222</ele>
        <time>2011-08-16T13:59:44Z</time>
      </trkpt>
      <trkpt lat="47.14669" lon="5.7248">
        <ele>222</ele>
        <time>2011-08-16T13:59:46Z</time>
      </trkpt>
      <trkpt lat="47.14678" lon="5.72469">
        <ele>222</ele>
        <time>2011-08-16T13:59:48Z</time>
      </trkpt>
      <trkpt lat="47.14688" lon="5.72458">
        <ele>222</ele>
        <time>2011-08-16T13:59:50Z</time>
      </trkpt>
      <trkpt lat="47.14698" lon="5.72446">
        <ele>222</ele>
        <time>2011-08-16T13:59:52Z</time>
      </trkpt>
      <trkpt lat="47.14706" lon="5.72436">
        <ele>222</ele>
        <time>2011-08-16T13:59:54Z</time>
      </trkpt>
      <trkpt lat="47.14714" lon="5.72426">
        <ele>222</ele>
        <time>2011-08-16T13:59:56Z</time>
      </trkpt>
      <trkpt lat="47.14723" lon="5.72416">
        <ele>222</ele>
        <time>2011-08-16T13:59:58Z</time>
      </trkpt>
      <trkpt lat="47.14731" lon="5.72405">
        <ele>222</ele>
        <time>2011-08-16T14:00:00Z</time>
      </trkpt>
      <trkpt lat="47.14741" lon="5.72393">
        <ele>222</ele>
        <time>2011-08-16T14:00:02Z</time>
      </trkpt>
      <trkpt lat="47.14749" lon="5.72382">
        <ele>222</ele>
        <time>2011-08-16T14:00:04Z</time>
      </trkpt>
      <trkpt lat="47.14757" lon="5.72372">
        <ele>222</ele>
        <time>2011-08-16T14:00:06Z</time>
      </trkpt>
      <trkpt lat="47.14764" lon="5.72363">
        <ele>222</ele>
        <time>2011-08-16T14:00:08Z</time>
      </trkpt>
      <trkpt lat="47.14772" lon="5.72354">
        <ele>222</ele>
        <time>2011-08-16T14:00:10Z</time>
      </trkpt>
      <trkpt lat="47.14779" lon="5.72345">
        <ele>222</ele>
        <time>2011-08-16T14:00:12Z</time>
      </trkpt>
      <trkpt lat="47.14786" lon="5.72336">
        <ele>222</ele>
        <time>2011-08-16T14:00:14Z</time>
      </trkpt>
      <trkpt lat="47.14794" lon="5.72328">
        <ele>222</ele>
        <time>2011-08-16T14:00:16Z</time>
      </trkpt>
      <trkpt lat="47.14802" lon="5.72319">
        <ele>222</ele>
        <time>2011-08-16T14:00:18Z</time>
      </trkpt>
      <trkpt lat="47.14812" lon="5.7231">
        <ele>222</ele>
        <time>2011-08-16T14:00:20Z</time>
      </trkpt>
      <trkpt lat="47.14821" lon="5.72302">
        <ele>222</ele>
        <time>2011-08-16T14:00:22Z</time>
      </trkpt>
      <trkpt lat="47.14831" lon="5.72294">
        <ele>222</ele>
        <time>2011-08-16T14:00:24Z</time>
      </trkpt>
      <trkpt lat="47.1484" lon="5.72287">
        <ele>222</ele>
        <time>2011-08-16T14:00:26Z</time>
      </trkpt>
      <trkpt lat="47.14849" lon="5.72279">
        <ele>222</ele>
        <time>2011-08-16T14:00:28Z</time>
      </trkpt>
      <trkpt lat="47.14858" lon="5.72272">
        <ele>222</ele>
        <time>2011-08-16T14:00:30Z</time>
      </trkpt>
      <trkpt lat="47.14867" lon="5.72264">
        <ele>222</ele>
        <time>2011-08-16T14:00:32Z</time>
      </trkpt>
      <trkpt lat="47.14877" lon="5.72254">
        <ele>222</ele>
        <time>2011-08-16T14:00:34Z</time>
      </trkpt>
      <trkpt lat="47.14886" lon="5.72245">
        <ele>228</ele>
        <time>2011-08-16T14:00:36Z</time>
      </trkpt>
      <trkpt lat="47.14896" lon="5.72234">
        <ele>228</ele>
        <time>2011-08-16T14:00:38Z</time>
      </trkpt>
      <trkpt lat="47.14905" lon="5.72222">
        <ele>228</ele>
        <time>2011-08-16T14:00:40Z</time>
      </trkpt>
      <trkpt lat="47.14915" lon="5.72211">
        <ele>228</ele>
        <time>2011-08-16T14:00:42Z</time>
      </trkpt>
      <trkpt lat="47.14924" lon="5.72198">
        <ele>228</ele>
        <time>2011-08-16T14:00:44Z</time>
      </trkpt>
      <trkpt lat="47.14934" lon="5.72185">
        <ele>228</ele>
        <time>2011-08-16T14:00:46Z</time>
      </trkpt>
      <trkpt lat="47.14942" lon="5.72171">
        <ele>228</ele>
        <time>2011-08-16T14:00:48Z</time>
      </trkpt>
      <trkpt lat="47.1495" lon="5.72158">
        <ele>228</ele>
        <time>2011-08-16T14:00:50Z</time>
      </trkpt>
      <trkpt lat="47.14957" lon="5.72142">
        <ele>228</ele>
        <time>2011-08-16T14:00:52Z</time>
      </trkpt>
      <trkpt lat="47.14964" lon="5.72127">
        <ele>228</ele>
        <time>2011-08-16T14:00:54Z</time>
      </trkpt>
      <trkpt lat="47.14972" lon="5.72112">
        <ele>222</ele>
        <time>2011-08-16T14:00:56Z</time>
      </trkpt>
      <trkpt lat="47.14978" lon="5.72097">
        <ele>222</ele>
        <time>2011-08-16T14:00:58Z</time>
      </trkpt>
      <trkpt lat="47.14984" lon="5.72081">
        <ele>222</ele>
        <time>2011-08-16T14:01:00Z</time>
      </trkpt>
      <trkpt lat="47.1499" lon="5.72066">
        <ele>222</ele>
        <time>2011-08-16T14:01:02Z</time>
      </trkpt>
      <trkpt lat="47.14995" lon="5.72051">
        <ele>222</ele>
        <time>2011-08-16T14:01:04Z</time>
      </trkpt>
      <trkpt lat="47.15" lon="5.72036">
        <ele>222</ele>
        <time>2011-08-16T14:01:06Z</time>
      </trkpt>
      <trkpt lat="47.15005" lon="5.72019">
        <ele>222</ele>
        <time>2011-08-16T14:01:08Z</time>
      </trkpt>
      <trkpt lat="47.15009" lon="5.72004">
        <ele>222</ele>
        <time>2011-08-16T14:01:10Z</time>
      </trkpt>
      <trkpt lat="47.15013" lon="5.71989">
        <ele>222</ele>
        <time>2011-08-16T14:01:12Z</time>
      </trkpt>
      <trkpt lat="47.15016" lon="5.71974">
        <ele>222</ele>
        <time>2011-08-16T14:01:14Z</time>
      </trkpt>
      <trkpt lat="47.1502" lon="5.71958">
        <ele>222</ele>
        <time>2011-08-16T14:01:16Z</time>
      </trkpt>
      <trkpt lat="47.15024" lon="5.71943">
        <ele>222</ele>
        <time>2011-08-16T14:01:18Z</time>
      </trkpt>
      <trkpt lat="47.15027" lon="5.71929">
        <ele>222</ele>
        <time>2011-08-16T14:01:20Z</time>
      </trkpt>
      <trkpt lat="47.1503" lon="5.71914">
        <ele>222</ele>
        <time>2011-08-16T14:01:22Z</time>
      </trkpt>
      <trkpt lat="47.15033" lon="5.71902">
        <ele>222</ele>
        <time>2011-08-16T14:01:24Z</time>
      </trkpt>
      <trkpt lat="47.15037" lon="5.71889">
        <ele>222</ele>
        <time>2011-08-16T14:01:26Z</time>
      </trkpt>
      <trkpt lat="47.15041" lon="5.71873">
        <ele>222</ele>
        <time>2011-08-16T14:01:29Z</time>
      </trkpt>
      <trkpt lat="47.15049" lon="5.71859">
        <ele>228</ele>
        <time>2011-08-16T14:01:32Z</time>
      </trkpt>
      <trkpt lat="47.15057" lon="5.7185">
        <ele>228</ele>
        <time>2011-08-16T14:01:35Z</time>
      </trkpt>
      <trkpt lat="47.15068" lon="5.71844">
        <ele>228</ele>
        <time>2011-08-16T14:01:39Z</time>
      </trkpt>
      <trkpt lat="47.15077" lon="5.71843">
        <ele>235</ele>
        <time>2011-08-16T14:01:42Z</time>
      </trkpt>
      <trkpt lat="47.15086" lon="5.71847">
        <ele>235</ele>
        <time>2011-08-16T14:01:45Z</time>
      </trkpt>
      <trkpt lat="47.15095" lon="5.71858">
        <ele>235</ele>
        <time>2011-08-16T14:01:48Z</time>
      </trkpt>
      <trkpt lat="47.15105" lon="5.7187">
        <ele>235</ele>
        <time>2011-08-16T14:01:51Z</time>
      </trkpt>
      <trkpt lat="47.15114" lon="5.71875">
        <ele>235</ele>
        <time>2011-08-16T14:01:53Z</time>
      </trkpt>
      <trkpt lat="47.15124" lon="5.71873">
        <ele>235</ele>
        <time>2011-08-16T14:01:55Z</time>
      </trkpt>
      <trkpt lat="47.15134" lon="5.71868">
        <ele>235</ele>
        <time>2011-08-16T14:01:57Z</time>
      </trkpt>
      <trkpt lat="47.15144" lon="5.71868">
        <ele>235</ele>
        <time>2011-08-16T14:01:59Z</time>
      </trkpt>
      <trkpt lat="47.15155" lon="5.7187">
        <ele>235</ele>
        <time>2011-08-16T14:02:01Z</time>
      </trkpt>
      <trkpt lat="47.15165" lon="5.71877">
        <ele>235</ele>
        <time>2011-08-16T14:02:03Z</time>
      </trkpt>
      <trkpt lat="47.15173" lon="5.71885">
        <ele>235</ele>
        <time>2011-08-16T14:02:05Z</time>
      </trkpt>
      <trkpt lat="47.15181" lon="5.71894">
        <ele>235</ele>
        <time>2011-08-16T14:02:07Z</time>
      </trkpt>
      <trkpt lat="47.15189" lon="5.71902">
        <ele>235</ele>
        <time>2011-08-16T14:02:09Z</time>
      </trkpt>
      <trkpt lat="47.152" lon="5.71911">
        <ele>235</ele>
        <time>2011-08-16T14:02:12Z</time>
      </trkpt>
      <trkpt lat="47.15208" lon="5.71919">
        <ele>235</ele>
        <time>2011-08-16T14:02:14Z</time>
      </trkpt>
      <trkpt lat="47.15216" lon="5.71926">
        <ele>235</ele>
        <time>2011-08-16T14:02:16Z</time>
      </trkpt>
      <trkpt lat="47.15226" lon="5.71938">
        <ele>235</ele>
        <time>2011-08-16T14:02:19Z</time>
      </trkpt>
      <trkpt lat="47.15234" lon="5.71945">
        <ele>235</ele>
        <time>2011-08-16T14:02:21Z</time>
      </trkpt>
      <trkpt lat="47.15244" lon="5.71954">
        <ele>235</ele>
        <time>2011-08-16T14:02:24Z</time>
      </trkpt>
      <trkpt lat="47.15253" lon="5.71957">
        <ele>235</ele>
        <time>2011-08-16T14:02:26Z</time>
      </trkpt>
      <trkpt lat="47.15264" lon="5.71962">
        <ele>244</ele>
        <time>2011-08-16T14:02:29Z</time>
      </trkpt>
      <trkpt lat="47.15277" lon="5.71965">
        <ele>244</ele>
        <time>2011-08-16T14:02:32Z</time>
      </trkpt>
      <trkpt lat="47.1529" lon="5.71965">
        <ele>251</ele>
        <time>2011-08-16T14:02:36Z</time>
      </trkpt>
      <trkpt lat="47.153" lon="5.71968">
        <ele>251</ele>
        <time>2011-08-16T14:02:38Z</time>
      </trkpt>
      <trkpt lat="47.1531" lon="5.71971">
        <ele>251</ele>
        <time>2011-08-16T14:02:40Z</time>
      </trkpt>
      <trkpt lat="47.15321" lon="5.71974">
        <ele>251</ele>
        <time>2011-08-16T14:02:42Z</time>
      </trkpt>
      <trkpt lat="47.15333" lon="5.71976">
        <ele>244</ele>
        <time>2011-08-16T14:02:44Z</time>
      </trkpt>
      <trkpt lat="47.15343" lon="5.71978">
        <ele>244</ele>
        <time>2011-08-16T14:02:46Z</time>
      </trkpt>
      <trkpt lat="47.15353" lon="5.7198">
        <ele>244</ele>
        <time>2011-08-16T14:02:48Z</time>
      </trkpt>
      <trkpt lat="47.15364" lon="5.71981">
        <ele>244</ele>
        <time>2011-08-16T14:02:50Z</time>
      </trkpt>
      <trkpt lat="47.15377" lon="5.71983">
        <ele>244</ele>
        <time>2011-08-16T14:02:53Z</time>
      </trkpt>
      <trkpt lat="47.15386" lon="5.71985">
        <ele>244</ele>
        <time>2011-08-16T14:02:55Z</time>
      </trkpt>
      <trkpt lat="47.15395" lon="5.71985">
        <ele>244</ele>
        <time>2011-08-16T14:02:57Z</time>
      </trkpt>
      <trkpt lat="47.15404" lon="5.71985">
        <ele>244</ele>
        <time>2011-08-16T14:02:59Z</time>
      </trkpt>
      <trkpt lat="47.15413" lon="5.71984">
        <ele>244</ele>
        <time>2011-08-16T14:03:01Z</time>
      </trkpt>
      <trkpt lat="47.15427" lon="5.71982">
        <ele>244</ele>
        <time>2011-08-16T14:03:04Z</time>
      </trkpt>
      <trkpt lat="47.15439" lon="5.71978">
        <ele>244</ele>
        <time>2011-08-16T14:03:07Z</time>
      </trkpt>
      <trkpt lat="47.15451" lon="5.71973">
        <ele>244</ele>
        <time>2011-08-16T14:03:10Z</time>
      </trkpt>
      <trkpt lat="47.15462" lon="5.71965">
        <ele>244</ele>
        <time>2011-08-16T14:03:13Z</time>
      </trkpt>
      <trkpt lat="47.15472" lon="5.71959">
        <ele>244</ele>
        <time>2011-08-16T14:03:16Z</time>
      </trkpt>
      <trkpt lat="47.15481" lon="5.71951">
        <ele>244</ele>
        <time>2011-08-16T14:03:19Z</time>
      </trkpt>
      <trkpt lat="47.15491" lon="5.71943">
        <ele>244</ele>
        <time>2011-08-16T14:03:22Z</time>
      </trkpt>
      <trkpt lat="47.155" lon="5.71936">
        <ele>244</ele>
        <time>2011-08-16T14:03:25Z</time>
      </trkpt>
      <trkpt lat="47.15509" lon="5.71929">
        <ele>244</ele>
        <time>2011-08-16T14:03:28Z</time>
      </trkpt>
      <trkpt lat="47.15518" lon="5.71921">
        <ele>244</ele>
        <time>2011-08-16T14:03:31Z</time>
      </trkpt>
      <trkpt lat="47.15527" lon="5.71915">
        <ele>244</ele>
        <time>2011-08-16T14:03:34Z</time>
      </trkpt>
      <trkpt lat="47.15537" lon="5.7191">
        <ele>249</ele>
        <time>2011-08-16T14:03:37Z</time>
      </trkpt>
      <trkpt lat="47.15547" lon="5.71904">
        <ele>249</ele>
        <time>2011-08-16T14:03:40Z</time>
      </trkpt>
      <trkpt lat="47.15557" lon="5.71899">
        <ele>249</ele>
        <time>2011-08-16T14:03:43Z</time>
      </trkpt>
      <trkpt lat="47.1557" lon="5.71894">
        <ele>249</ele>
        <time>2011-08-16T14:03:46Z</time>
      </trkpt>
      <trkpt lat="47.15581" lon="5.71889">
        <ele>249</ele>
        <time>2011-08-16T14:03:48Z</time>
      </trkpt>
      <trkpt lat="47.15592" lon="5.71884">
        <ele>249</ele>
        <time>2011-08-16T14:03:50Z</time>
      </trkpt>
      <trkpt lat="47.15604" lon="5.71877">
        <ele>249</ele>
        <time>2011-08-16T14:03:52Z</time>
      </trkpt>
      <trkpt lat="47.15617" lon="5.71872">
        <ele>249</ele>
        <time>2011-08-16T14:03:54Z</time>
      </trkpt>
      <trkpt lat="47.15631" lon="5.71868">
        <ele>249</ele>
        <time>2011-08-16T14:03:56Z</time>
      </trkpt>
      <trkpt lat="47.15646" lon="5.71866">
        <ele>249</ele>
        <time>2011-08-16T14:03:58Z</time>
      </trkpt>
      <trkpt lat="47.15661" lon="5.71863">
        <ele>249</ele>
        <time>2011-08-16T14:04:00Z</time>
      </trkpt>
      <trkpt lat="47.15676" lon="5.71859">
        <ele>249</ele>
        <time>2011-08-16T14:04:02Z</time>
      </trkpt>
      <trkpt lat="47.15691" lon="5.71853">
        <ele>249</ele>
        <time>2011-08-16T14:04:04Z</time>
      </trkpt>
      <trkpt lat="47.15706" lon="5.71845">
        <ele>244</ele>
        <time>2011-08-16T14:04:06Z</time>
      </trkpt>
      <trkpt lat="47.1572" lon="5.71834">
        <ele>244</ele>
        <time>2011-08-16T14:04:08Z</time>
      </trkpt>
      <trkpt lat="47.15735" lon="5.71821">
        <ele>244</ele>
        <time>2011-08-16T14:04:10Z</time>
      </trkpt>
      <trkpt lat="47.1575" lon="5.71806">
        <ele>244</ele>
        <time>2011-08-16T14:04:12Z</time>
      </trkpt>
      <trkpt lat="47.15763" lon="5.7179">
        <ele>244</ele>
        <time>2011-08-16T14:04:14Z</time>
      </trkpt>
      <trkpt lat="47.15774" lon="5.71775">
        <ele>244</ele>
        <time>2011-08-16T14:04:16Z</time>
      </trkpt>
      <trkpt lat="47.15784" lon="5.71762">
        <ele>244</ele>
        <time>2011-08-16T14:04:18Z</time>
      </trkpt>
      <trkpt lat="47.15793" lon="5.71749">
        <ele>244</ele>
        <time>2011-08-16T14:04:20Z</time>
      </trkpt>
      <trkpt lat="47.158" lon="5.71739">
        <ele>244</ele>
        <time>2011-08-16T14:04:22Z</time>
      </trkpt>
      <trkpt lat="47.1581" lon="5.71726">
        <ele>244</ele>
        <time>2011-08-16T14:04:25Z</time>
      </trkpt>
      <trkpt lat="47.15818" lon="5.71713">
        <ele>244</ele>
        <time>2011-08-16T14:04:28Z</time>
      </trkpt>
      <trkpt lat="47.15828" lon="5.71701">
        <ele>244</ele>
        <time>2011-08-16T14:04:31Z</time>
      </trkpt>
      <trkpt lat="47.15836" lon="5.71689">
        <ele>244</ele>
        <time>2011-08-16T14:04:34Z</time>
      </trkpt>
      <trkpt lat="47.15844" lon="5.71677">
        <ele>249</ele>
        <time>2011-08-16T14:04:37Z</time>
      </trkpt>
      <trkpt lat="47.15852" lon="5.71665">
        <ele>249</ele>
        <time>2011-08-16T14:04:40Z</time>
      </trkpt>
      <trkpt lat="47.15861" lon="5.71651">
        <ele>249</ele>
        <time>2011-08-16T14:04:43Z</time>
      </trkpt>
      <trkpt lat="47.15868" lon="5.71642">
        <ele>249</ele>
        <time>2011-08-16T14:04:45Z</time>
      </trkpt>
      <trkpt lat="47.15875" lon="5.71632">
        <ele>249</ele>
        <time>2011-08-16T14:04:47Z</time>
      </trkpt>
      <trkpt lat="47.15883" lon="5.71621">
        <ele>249</ele>
        <time>2011-08-16T14:04:49Z</time>
      </trkpt>
      <trkpt lat="47.15892" lon="5.71609">
        <ele>249</ele>
        <time>2011-08-16T14:04:51Z</time>
      </trkpt>
      <trkpt lat="47.15901" lon="5.71597">
        <ele>249</ele>
        <time>2011-08-16T14:04:53Z</time>
      </trkpt>
      <trkpt lat="47.15911" lon="5.71585">
        <ele>249</ele>
        <time>2011-08-16T14:04:55Z</time>
      </trkpt>
      <trkpt lat="47.15921" lon="5.71576">
        <ele>249</ele>
        <time>2011-08-16T14:04:57Z</time>
      </trkpt>
      <trkpt lat="47.15931" lon="5.71565">
        <ele>249</ele>
        <time>2011-08-16T14:04:59Z</time>
      </trkpt>
      <trkpt lat="47.15942" lon="5.71555">
        <ele>249</ele>
        <time>2011-08-16T14:05:01Z</time>
      </trkpt>
      <trkpt lat="47.15951" lon="5.71545">
        <ele>249</ele>
        <time>2011-08-16T14:05:03Z</time>
      </trkpt>
      <trkpt lat="47.15962" lon="5.71534">
        <ele>249</ele>
        <time>2011-08-16T14:05:05Z</time>
      </trkpt>
      <trkpt lat="47.15973" lon="5.71524">
        <ele>249</ele>
        <time>2011-08-16T14:05:07Z</time>
      </trkpt>
      <trkpt lat="47.15984" lon="5.71514">
        <ele>249</ele>
        <time>2011-08-16T14:05:09Z</time>
      </trkpt>
      <trkpt lat="47.15996" lon="5.71503">
        <ele>249</ele>
        <time>2011-08-16T14:05:11Z</time>
      </trkpt>
      <trkpt lat="47.16009" lon="5.71495">
        <ele>249</ele>
        <time>2011-08-16T14:05:13Z</time>
      </trkpt>
      <trkpt lat="47.16024" lon="5.71488">
        <ele>255</ele>
        <time>2011-08-16T14:05:15Z</time>
      </trkpt>
      <trkpt lat="47.16038" lon="5.71481">
        <ele>255</ele>
        <time>2011-08-16T14:05:17Z</time>
      </trkpt>
      <trkpt lat="47.16054" lon="5.71476">
        <ele>255</ele>
        <time>2011-08-16T14:05:19Z</time>
      </trkpt>
      <trkpt lat="47.16071" lon="5.71472">
        <ele>255</ele>
        <time>2011-08-16T14:05:21Z</time>
      </trkpt>
      <trkpt lat="47.16089" lon="5.71471">
        <ele>255</ele>
        <time>2011-08-16T14:05:23Z</time>
      </trkpt>
      <trkpt lat="47.16106" lon="5.71471">
        <ele>262</ele>
        <time>2011-08-16T14:05:25Z</time>
      </trkpt>
      <trkpt lat="47.16115" lon="5.71471">
        <ele>262</ele>
        <time>2011-08-16T14:05:26Z</time>
      </trkpt>
      <trkpt lat="47.16132" lon="5.71478">
        <ele>262</ele>
        <time>2011-08-16T14:05:28Z</time>
      </trkpt>
      <trkpt lat="47.16142" lon="5.71481">
        <ele>262</ele>
        <time>2011-08-16T14:05:29Z</time>
      </trkpt>
      <trkpt lat="47.16152" lon="5.71485">
        <ele>262</ele>
        <time>2011-08-16T14:05:30Z</time>
      </trkpt>
      <trkpt lat="47.16163" lon="5.7149">
        <ele>262</ele>
        <time>2011-08-16T14:05:31Z</time>
      </trkpt>
      <trkpt lat="47.16173" lon="5.71495">
        <ele>262</ele>
        <time>2011-08-16T14:05:32Z</time>
      </trkpt>
      <trkpt lat="47.16184" lon="5.715">
        <ele>257</ele>
        <time>2011-08-16T14:05:33Z</time>
      </trkpt>
      <trkpt lat="47.16195" lon="5.71505">
        <ele>257</ele>
        <time>2011-08-16T14:05:34Z</time>
      </trkpt>
      <trkpt lat="47.16205" lon="5.7151">
        <ele>257</ele>
        <time>2011-08-16T14:05:35Z</time>
      </trkpt>
      <trkpt lat="47.16215" lon="5.71515">
        <ele>251</ele>
        <time>2011-08-16T14:05:36Z</time>
      </trkpt>
      <trkpt lat="47.16226" lon="5.71521">
        <ele>251</ele>
        <time>2011-08-16T14:05:37Z</time>
      </trkpt>
      <trkpt lat="47.16237" lon="5.71526">
        <ele>251</ele>
        <time>2011-08-16T14:05:38Z</time>
      </trkpt>
      <trkpt lat="47.16248" lon="5.71531">
        <ele>251</ele>
        <time>2011-08-16T14:05:39Z</time>
      </trkpt>
      <trkpt lat="47.16258" lon="5.71536">
        <ele>245</ele>
        <time>2011-08-16T14:05:40Z</time>
      </trkpt>
      <trkpt lat="47.16269" lon="5.71541">
        <ele>245</ele>
        <time>2011-08-16T14:05:41Z</time>
      </trkpt>
      <trkpt lat="47.1628" lon="5.71546">
        <ele>245</ele>
        <time>2011-08-16T14:05:42Z</time>
      </trkpt>
      <trkpt lat="47.16291" lon="5.7155">
        <ele>245</ele>
        <time>2011-08-16T14:05:43Z</time>
      </trkpt>
      <trkpt lat="47.16302" lon="5.71555">
        <ele>245</ele>
        <time>2011-08-16T14:05:44Z</time>
      </trkpt>
      <trkpt lat="47.16312" lon="5.71558">
        <ele>239</ele>
        <time>2011-08-16T14:05:45Z</time>
      </trkpt>
      <trkpt lat="47.16324" lon="5.7156">
        <ele>239</ele>
        <time>2011-08-16T14:05:46Z</time>
      </trkpt>
      <trkpt lat="47.16336" lon="5.71561">
        <ele>239</ele>
        <time>2011-08-16T14:05:47Z</time>
      </trkpt>
      <trkpt lat="47.16347" lon="5.71561">
        <ele>239</ele>
        <time>2011-08-16T14:05:48Z</time>
      </trkpt>
      <trkpt lat="47.16359" lon="5.7156">
        <ele>239</ele>
        <time>2011-08-16T14:05:49Z</time>
      </trkpt>
      <trkpt lat="47.1637" lon="5.71559">
        <ele>239</ele>
        <time>2011-08-16T14:05:50Z</time>
      </trkpt>
      <trkpt lat="47.16382" lon="5.71557">
        <ele>233</ele>
        <time>2011-08-16T14:05:51Z</time>
      </trkpt>
      <trkpt lat="47.16394" lon="5.71553">
        <ele>233</ele>
        <time>2011-08-16T14:05:52Z</time>
      </trkpt>
      <trkpt lat="47.16405" lon="5.71549">
        <ele>233</ele>
        <time>2011-08-16T14:05:53Z</time>
      </trkpt>
      <trkpt lat="47.16416" lon="5.71542">
        <ele>233</ele>
        <time>2011-08-16T14:05:54Z</time>
      </trkpt>
      <trkpt lat="47.16427" lon="5.71537">
        <ele>233</ele>
        <time>2011-08-16T14:05:55Z</time>
      </trkpt>
      <trkpt lat="47.16438" lon="5.71532">
        <ele>233</ele>
        <time>2011-08-16T14:05:56Z</time>
      </trkpt>
      <trkpt lat="47.16449" lon="5.71526">
        <ele>233</ele>
        <time>2011-08-16T14:05:57Z</time>
      </trkpt>
      <trkpt lat="47.16459" lon="5.71521">
        <ele>233</ele>
        <time>2011-08-16T14:05:58Z</time>
      </trkpt>
      <trkpt lat="47.1647" lon="5.71516">
        <ele>233</ele>
        <time>2011-08-16T14:05:59Z</time>
      </trkpt>
      <trkpt lat="47.1648" lon="5.71512">
        <ele>233</ele>
        <time>2011-08-16T14:06:00Z</time>
      </trkpt>
      <trkpt lat="47.16488" lon="5.71508">
        <ele>233</ele>
        <time>2011-08-16T14:06:01Z</time>
      </trkpt>
      <trkpt lat="47.16505" lon="5.71503">
        <ele>233</ele>
        <time>2011-08-16T14:06:03Z</time>
      </trkpt>
      <trkpt lat="47.16519" lon="5.71498">
        <ele>243</ele>
        <time>2011-08-16T14:06:05Z</time>
      </trkpt>
      <trkpt lat="47.16532" lon="5.71496">
        <ele>249</ele>
        <time>2011-08-16T14:06:07Z</time>
      </trkpt>
      <trkpt lat="47.16544" lon="5.71494">
        <ele>256</ele>
        <time>2011-08-16T14:06:09Z</time>
      </trkpt>
      <trkpt lat="47.16554" lon="5.71493">
        <ele>264</ele>
        <time>2011-08-16T14:06:11Z</time>
      </trkpt>
      <trkpt lat="47.16563" lon="5.71492">
        <ele>274</ele>
        <time>2011-08-16T14:06:13Z</time>
      </trkpt>
      <trkpt lat="47.16573" lon="5.71492">
        <ele>283</ele>
        <time>2011-08-16T14:06:15Z</time>
      </trkpt>
      <trkpt lat="47.16582" lon="5.71491">
        <ele>290</ele>
        <time>2011-08-16T14:06:17Z</time>
      </trkpt>
      <trkpt lat="47.16592" lon="5.71489">
        <ele>297</ele>
        <time>2011-08-16T14:06:19Z</time>
      </trkpt>
      <trkpt lat="47.16605" lon="5.7149">
        <ele>311</ele>
        <time>2011-08-16T14:06:22Z</time>
      </trkpt>
      <trkpt lat="47.16617" lon="5.7149">
        <ele>325</ele>
        <time>2011-08-16T14:06:25Z</time>
      </trkpt>
      <trkpt lat="47.16628" lon="5.71492">
        <ele>339</ele>
        <time>2011-08-16T14:06:28Z</time>
      </trkpt>
      <trkpt lat="47.16638" lon="5.71493">
        <ele>339</ele>
        <time>2011-08-16T14:06:30Z</time>
      </trkpt>
      <trkpt lat="47.16649" lon="5.71496">
        <ele>358</ele>
        <time>2011-08-16T14:06:33Z</time>
      </trkpt>
      <trkpt lat="47.1666" lon="5.71499">
        <ele>369</ele>
        <time>2011-08-16T14:06:36Z</time>
      </trkpt>
      <trkpt lat="47.16673" lon="5.71504">
        <ele>377</ele>
        <time>2011-08-16T14:06:39Z</time>
      </trkpt>
      <trkpt lat="47.16685" lon="5.71507">
        <ele>386</ele>
        <time>2011-08-16T14:06:42Z</time>
      </trkpt>
      <trkpt lat="47.16697" lon="5.71512">
        <ele>394</ele>
        <time>2011-08-16T14:06:45Z</time>
      </trkpt>
      <trkpt lat="47.16708" lon="5.71516">
        <ele>402</ele>
        <time>2011-08-16T14:06:48Z</time>
      </trkpt>
      <trkpt lat="47.16721" lon="5.7152">
        <ele>402</ele>
        <time>2011-08-16T14:06:51Z</time>
      </trkpt>
      <trkpt lat="47.16731" lon="5.71526">
        <ele>415</ele>
        <time>2011-08-16T14:06:54Z</time>
      </trkpt>
      <trkpt lat="47.16743" lon="5.71532">
        <ele>421</ele>
        <time>2011-08-16T14:06:57Z</time>
      </trkpt>
      <trkpt lat="47.16756" lon="5.71541">
        <ele>421</ele>
        <time>2011-08-16T14:07:00Z</time>
      </trkpt>
      <trkpt lat="47.16765" lon="5.71547">
        <ele>421</ele>
        <time>2011-08-16T14:07:02Z</time>
      </trkpt>
      <trkpt lat="47.16774" lon="5.71552">
        <ele>426</ele>
        <time>2011-08-16T14:07:04Z</time>
      </trkpt>
      <trkpt lat="47.16784" lon="5.71558">
        <ele>426</ele>
        <time>2011-08-16T14:07:06Z</time>
      </trkpt>
      <trkpt lat="47.16793" lon="5.71562">
        <ele>426</ele>
        <time>2011-08-16T14:07:08Z</time>
      </trkpt>
      <trkpt lat="47.16803" lon="5.71567">
        <ele>426</ele>
        <time>2011-08-16T14:07:10Z</time>
      </trkpt>
      <trkpt lat="47.16812" lon="5.71571">
        <ele>426</ele>
        <time>2011-08-16T14:07:12Z</time>
      </trkpt>
      <trkpt lat="47.16821" lon="5.71576">
        <ele>426</ele>
        <time>2011-08-16T14:07:14Z</time>
      </trkpt>
      <trkpt lat="47.16832" lon="5.71579">
        <ele>426</ele>
        <time>2011-08-16T14:07:16Z</time>
      </trkpt>
      <trkpt lat="47.16842" lon="5.71582">
        <ele>426</ele>
        <time>2011-08-16T14:07:18Z</time>
      </trkpt>
      <trkpt lat="47.16852" lon="5.71583">
        <ele>420</ele>
        <time>2011-08-16T14:07:20Z</time>
      </trkpt>
      <trkpt lat="47.16862" lon="5.71584">
        <ele>420</ele>
        <time>2011-08-16T14:07:22Z</time>
      </trkpt>
      <trkpt lat="47.16873" lon="5.71583">
        <ele>414</ele>
        <time>2011-08-16T14:07:24Z</time>
      </trkpt>
      <trkpt lat="47.16884" lon="5.71581">
        <ele>414</ele>
        <time>2011-08-16T14:07:26Z</time>
      </trkpt>
      <trkpt lat="47.16894" lon="5.71577">
        <ele>414</ele>
        <time>2011-08-16T14:07:28Z</time>
      </trkpt>
      <trkpt lat="47.16903" lon="5.71574">
        <ele>409</ele>
        <time>2011-08-16T14:07:30Z</time>
      </trkpt>
      <trkpt lat="47.16913" lon="5.71569">
        <ele>409</ele>
        <time>2011-08-16T14:07:32Z</time>
      </trkpt>
      <trkpt lat="47.16923" lon="5.71565">
        <ele>409</ele>
        <time>2011-08-16T14:07:34Z</time>
      </trkpt>
      <trkpt lat="47.16933" lon="5.71559">
        <ele>409</ele>
        <time>2011-08-16T14:07:36Z</time>
      </trkpt>
      <trkpt lat="47.16943" lon="5.71555">
        <ele>403</ele>
        <time>2011-08-16T14:07:38Z</time>
      </trkpt>
      <trkpt lat="47.16954" lon="5.71551">
        <ele>403</ele>
        <time>2011-08-16T14:07:40Z</time>
      </trkpt>
      <trkpt lat="47.16965" lon="5.71547">
        <ele>398</ele>
        <time>2011-08-16T14:07:42Z</time>
      </trkpt>
      <trkpt lat="47.16977" lon="5.71543">
        <ele>393</ele>
        <time>2011-08-16T14:07:44Z</time>
      </trkpt>
      <trkpt lat="47.16988" lon="5.71541">
        <ele>393</ele>
        <time>2011-08-16T14:07:46Z</time>
      </trkpt>
      <trkpt lat="47.16999" lon="5.71539">
        <ele>386</ele>
        <time>2011-08-16T14:07:48Z</time>
      </trkpt>
      <trkpt lat="47.1701" lon="5.71537">
        <ele>386</ele>
        <time>2011-08-16T14:07:50Z</time>
      </trkpt>
      <trkpt lat="47.1702" lon="5.71534">
        <ele>378</ele>
        <time>2011-08-16T14:07:52Z</time>
      </trkpt>
      <trkpt lat="47.17032" lon="5.71532">
        <ele>378</ele>
        <time>2011-08-16T14:07:54Z</time>
      </trkpt>
      <trkpt lat="47.17045" lon="5.7153">
        <ele>363</ele>
        <time>2011-08-16T14:07:56Z</time>
      </trkpt>
      <trkpt lat="47.17058" lon="5.71527">
        <ele>354</ele>
        <time>2011-08-16T14:07:58Z</time>
      </trkpt>
      <trkpt lat="47.17068" lon="5.71525">
        <ele>354</ele>
        <time>2011-08-16T14:08:00Z</time>
      </trkpt>
      <trkpt lat="47.17083" lon="5.71524">
        <ele>335</ele>
        <time>2011-08-16T14:08:02Z</time>
      </trkpt>
      <trkpt lat="47.17092" lon="5.71523">
        <ele>326</ele>
        <time>2011-08-16T14:08:03Z</time>
      </trkpt>
      <trkpt lat="47.17104" lon="5.7152">
        <ele>318</ele>
        <time>2011-08-16T14:08:05Z</time>
      </trkpt>
      <trkpt lat="47.17114" lon="5.71519">
        <ele>318</ele>
        <time>2011-08-16T14:08:07Z</time>
      </trkpt>
      <trkpt lat="47.17123" lon="5.71518">
        <ele>318</ele>
        <time>2011-08-16T14:08:09Z</time>
      </trkpt>
      <trkpt lat="47.17132" lon="5.71516">
        <ele>311</ele>
        <time>2011-08-16T14:08:11Z</time>
      </trkpt>
      <trkpt lat="47.17145" lon="5.71514">
        <ele>311</ele>
        <time>2011-08-16T14:08:14Z</time>
      </trkpt>
      <trkpt lat="47.17155" lon="5.71512">
        <ele>311</ele>
        <time>2011-08-16T14:08:16Z</time>
      </trkpt>
      <trkpt lat="47.17164" lon="5.71508">
        <ele>306</ele>
        <time>2011-08-16T14:08:18Z</time>
      </trkpt>
      <trkpt lat="47.17174" lon="5.71506">
        <ele>306</ele>
        <time>2011-08-16T14:08:20Z</time>
      </trkpt>
      <trkpt lat="47.17183" lon="5.71505">
        <ele>306</ele>
        <time>2011-08-16T14:08:22Z</time>
      </trkpt>
      <trkpt lat="47.17196" lon="5.71502">
        <ele>306</ele>
        <time>2011-08-16T14:08:25Z</time>
      </trkpt>
      <trkpt lat="47.17208" lon="5.715">
        <ele>306</ele>
        <time>2011-08-16T14:08:28Z</time>
      </trkpt>
      <trkpt lat="47.17218" lon="5.71498">
        <ele>306</ele>
        <time>2011-08-16T14:08:30Z</time>
      </trkpt>
      <trkpt lat="47.17228" lon="5.71497">
        <ele>297</ele>
        <time>2011-08-16T14:08:32Z</time>
      </trkpt>
      <trkpt lat="47.17238" lon="5.71494">
        <ele>297</ele>
        <time>2011-08-16T14:08:34Z</time>
      </trkpt>
      <trkpt lat="47.17251" lon="5.71491">
        <ele>297</ele>
        <time>2011-08-16T14:08:37Z</time>
      </trkpt>
      <trkpt lat="47.17262" lon="5.71489">
        <ele>297</ele>
        <time>2011-08-16T14:08:40Z</time>
      </trkpt>
      <trkpt lat="47.17275" lon="5.71487">
        <ele>297</ele>
        <time>2011-08-16T14:08:43Z</time>
      </trkpt>
      <trkpt lat="47.17287" lon="5.71483">
        <ele>303</ele>
        <time>2011-08-16T14:08:46Z</time>
      </trkpt>
      <trkpt lat="47.173" lon="5.71479">
        <ele>303</ele>
        <time>2011-08-16T14:08:49Z</time>
      </trkpt>
      <trkpt lat="47.17313" lon="5.71477">
        <ele>303</ele>
        <time>2011-08-16T14:08:52Z</time>
      </trkpt>
      <trkpt lat="47.17324" lon="5.71474">
        <ele>311</ele>
        <time>2011-08-16T14:08:55Z</time>
      </trkpt>
      <trkpt lat="47.17333" lon="5.71471">
        <ele>311</ele>
        <time>2011-08-16T14:08:57Z</time>
      </trkpt>
      <trkpt lat="47.17342" lon="5.71469">
        <ele>311</ele>
        <time>2011-08-16T14:08:59Z</time>
      </trkpt>
      <trkpt lat="47.17354" lon="5.71466">
        <ele>311</ele>
        <time>2011-08-16T14:09:02Z</time>
      </trkpt>
      <trkpt lat="47.17364" lon="5.71464">
        <ele>311</ele>
        <time>2011-08-16T14:09:04Z</time>
      </trkpt>
      <trkpt lat="47.17373" lon="5.71462">
        <ele>311</ele>
        <time>2011-08-16T14:09:06Z</time>
      </trkpt>
      <trkpt lat="47.17382" lon="5.71462">
        <ele>311</ele>
        <time>2011-08-16T14:09:08Z</time>
      </trkpt>
      <trkpt lat="47.17395" lon="5.71458">
        <ele>317</ele>
        <time>2011-08-16T14:09:11Z</time>
      </trkpt>
      <trkpt lat="47.17406" lon="5.71453">
        <ele>325</ele>
        <time>2011-08-16T14:09:14Z</time>
      </trkpt>
      <trkpt lat="47.17418" lon="5.71446">
        <ele>325</ele>
        <time>2011-08-16T14:09:17Z</time>
      </trkpt>
      <trkpt lat="47.17428" lon="5.71441">
        <ele>325</ele>
        <time>2011-08-16T14:09:19Z</time>
      </trkpt>
      <trkpt lat="47.17438" lon="5.71435">
        <ele>331</ele>
        <time>2011-08-16T14:09:21Z</time>
      </trkpt>
      <trkpt lat="47.17447" lon="5.71429">
        <ele>331</ele>
        <time>2011-08-16T14:09:23Z</time>
      </trkpt>
      <trkpt lat="47.17457" lon="5.71424">
        <ele>331</ele>
        <time>2011-08-16T14:09:25Z</time>
      </trkpt>
      <trkpt lat="47.17466" lon="5.71417">
        <ele>331</ele>
        <time>2011-08-16T14:09:27Z</time>
      </trkpt>
      <trkpt lat="47.17477" lon="5.71409">
        <ele>331</ele>
        <time>2011-08-16T14:09:29Z</time>
      </trkpt>
      <trkpt lat="47.17488" lon="5.714">
        <ele>323</ele>
        <time>2011-08-16T14:09:31Z</time>
      </trkpt>
      <trkpt lat="47.17498" lon="5.71392">
        <ele>323</ele>
        <time>2011-08-16T14:09:33Z</time>
      </trkpt>
      <trkpt lat="47.17508" lon="5.71385">
        <ele>323</ele>
        <time>2011-08-16T14:09:35Z</time>
      </trkpt>
      <trkpt lat="47.17518" lon="5.71376">
        <ele>317</ele>
        <time>2011-08-16T14:09:37Z</time>
      </trkpt>
      <trkpt lat="47.17528" lon="5.71367">
        <ele>317</ele>
        <time>2011-08-16T14:09:39Z</time>
      </trkpt>
      <trkpt lat="47.17537" lon="5.71358">
        <ele>317</ele>
        <time>2011-08-16T14:09:41Z</time>
      </trkpt>
      <trkpt lat="47.17547" lon="5.71348">
        <ele>317</ele>
        <time>2011-08-16T14:09:43Z</time>
      </trkpt>
      <trkpt lat="47.17557" lon="5.71339">
        <ele>324</ele>
        <time>2011-08-16T14:09:45Z</time>
      </trkpt>
      <trkpt lat="47.17567" lon="5.71329">
        <ele>324</ele>
        <time>2011-08-16T14:09:47Z</time>
      </trkpt>
      <trkpt lat="47.1758" lon="5.7132">
        <ele>324</ele>
        <time>2011-08-16T14:09:49Z</time>
      </trkpt>
      <trkpt lat="47.17593" lon="5.71309">
        <ele>324</ele>
        <time>2011-08-16T14:09:51Z</time>
      </trkpt>
      <trkpt lat="47.17605" lon="5.71299">
        <ele>324</ele>
        <time>2011-08-16T14:09:53Z</time>
      </trkpt>
      <trkpt lat="47.17617" lon="5.71288">
        <ele>324</ele>
        <time>2011-08-16T14:09:55Z</time>
      </trkpt>
      <trkpt lat="47.1763" lon="5.71276">
        <ele>324</ele>
        <time>2011-08-16T14:09:57Z</time>
      </trkpt>
      <trkpt lat="47.17645" lon="5.71266">
        <ele>317</ele>
        <time>2011-08-16T14:09:59Z</time>
      </trkpt>
      <trkpt lat="47.17659" lon="5.71256">
        <ele>317</ele>
        <time>2011-08-16T14:10:01Z</time>
      </trkpt>
      <trkpt lat="47.17672" lon="5.71245">
        <ele>312</ele>
        <time>2011-08-16T14:10:03Z</time>
      </trkpt>
      <trkpt lat="47.17684" lon="5.71234">
        <ele>312</ele>
        <time>2011-08-16T14:10:05Z</time>
      </trkpt>
      <trkpt lat="47.17699" lon="5.71223">
        <ele>306</ele>
        <time>2011-08-16T14:10:07Z</time>
      </trkpt>
      <trkpt lat="47.17713" lon="5.71213">
        <ele>306</ele>
        <time>2011-08-16T14:10:09Z</time>
      </trkpt>
      <trkpt lat="47.17727" lon="5.71201">
        <ele>298</ele>
        <time>2011-08-16T14:10:11Z</time>
      </trkpt>
      <trkpt lat="47.1774" lon="5.71189">
        <ele>298</ele>
        <time>2011-08-16T14:10:13Z</time>
      </trkpt>
      <trkpt lat="47.17754" lon="5.71179">
        <ele>292</ele>
        <time>2011-08-16T14:10:15Z</time>
      </trkpt>
      <trkpt lat="47.17767" lon="5.71168">
        <ele>292</ele>
        <time>2011-08-16T14:10:17Z</time>
      </trkpt>
      <trkpt lat="47.17779" lon="5.71157">
        <ele>292</ele>
        <time>2011-08-16T14:10:19Z</time>
      </trkpt>
      <trkpt lat="47.17789" lon="5.71146">
        <ele>292</ele>
        <time>2011-08-16T14:10:21Z</time>
      </trkpt>
      <trkpt lat="47.17799" lon="5.71135">
        <ele>302</ele>
        <time>2011-08-16T14:10:23Z</time>
      </trkpt>
      <trkpt lat="47.17809" lon="5.71125">
        <ele>308</ele>
        <time>2011-08-16T14:10:25Z</time>
      </trkpt>
      <trkpt lat="47.17822" lon="5.71115">
        <ele>308</ele>
        <time>2011-08-16T14:10:27Z</time>
      </trkpt>
      <trkpt lat="47.17836" lon="5.71103">
        <ele>308</ele>
        <time>2011-08-16T14:10:29Z</time>
      </trkpt>
      <trkpt lat="47.17848" lon="5.71092">
        <ele>308</ele>
        <time>2011-08-16T14:10:31Z</time>
      </trkpt>
      <trkpt lat="47.1786" lon="5.71081">
        <ele>308</ele>
        <time>2011-08-16T14:10:33Z</time>
      </trkpt>
      <trkpt lat="47.17871" lon="5.71071">
        <ele>308</ele>
        <time>2011-08-16T14:10:35Z</time>
      </trkpt>
      <trkpt lat="47.17886" lon="5.71059">
        <ele>308</ele>
        <time>2011-08-16T14:10:37Z</time>
      </trkpt>
      <trkpt lat="47.17898" lon="5.71048">
        <ele>308</ele>
        <time>2011-08-16T14:10:39Z</time>
      </trkpt>
      <trkpt lat="47.1791" lon="5.71038">
        <ele>308</ele>
        <time>2011-08-16T14:10:41Z</time>
      </trkpt>
      <trkpt lat="47.17922" lon="5.71028">
        <ele>308</ele>
        <time>2011-08-16T14:10:43Z</time>
      </trkpt>
      <trkpt lat="47.17935" lon="5.71016">
        <ele>308</ele>
        <time>2011-08-16T14:10:45Z</time>
      </trkpt>
      <trkpt lat="47.17948" lon="5.71005">
        <ele>301</ele>
        <time>2011-08-16T14:10:47Z</time>
      </trkpt>
      <trkpt lat="47.17962" lon="5.70993">
        <ele>301</ele>
        <time>2011-08-16T14:10:49Z</time>
      </trkpt>
      <trkpt lat="47.17975" lon="5.70982">
        <ele>294</ele>
        <time>2011-08-16T14:10:51Z</time>
      </trkpt>
      <trkpt lat="47.17989" lon="5.7097">
        <ele>294</ele>
        <time>2011-08-16T14:10:53Z</time>
      </trkpt>
      <trkpt lat="47.18002" lon="5.70959">
        <ele>286</ele>
        <time>2011-08-16T14:10:55Z</time>
      </trkpt>
      <trkpt lat="47.18016" lon="5.70949">
        <ele>286</ele>
        <time>2011-08-16T14:10:57Z</time>
      </trkpt>
      <trkpt lat="47.18029" lon="5.70938">
        <ele>286</ele>
        <time>2011-08-16T14:10:59Z</time>
      </trkpt>
      <trkpt lat="47.18042" lon="5.70927">
        <ele>279</ele>
        <time>2011-08-16T14:11:01Z</time>
      </trkpt>
      <trkpt lat="47.18054" lon="5.70916">
        <ele>279</ele>
        <time>2011-08-16T14:11:03Z</time>
      </trkpt>
      <trkpt lat="47.18067" lon="5.70905">
        <ele>274</ele>
        <time>2011-08-16T14:11:05Z</time>
      </trkpt>
      <trkpt lat="47.1808" lon="5.70894">
        <ele>274</ele>
        <time>2011-08-16T14:11:07Z</time>
      </trkpt>
      <trkpt lat="47.18092" lon="5.70881">
        <ele>274</ele>
        <time>2011-08-16T14:11:09Z</time>
      </trkpt>
      <trkpt lat="47.18104" lon="5.70867">
        <ele>267</ele>
        <time>2011-08-16T14:11:11Z</time>
      </trkpt>
      <trkpt lat="47.18116" lon="5.70852">
        <ele>267</ele>
        <time>2011-08-16T14:11:13Z</time>
      </trkpt>
      <trkpt lat="47.18128" lon="5.70837">
        <ele>267</ele>
        <time>2011-08-16T14:11:15Z</time>
      </trkpt>
      <trkpt lat="47.18141" lon="5.70821">
        <ele>267</ele>
        <time>2011-08-16T14:11:17Z</time>
      </trkpt>
      <trkpt lat="47.18152" lon="5.70805">
        <ele>267</ele>
        <time>2011-08-16T14:11:19Z</time>
      </trkpt>
      <trkpt lat="47.18164" lon="5.70788">
        <ele>262</ele>
        <time>2011-08-16T14:11:21Z</time>
      </trkpt>
      <trkpt lat="47.18174" lon="5.70769">
        <ele>262</ele>
        <time>2011-08-16T14:11:23Z</time>
      </trkpt>
      <trkpt lat="47.18184" lon="5.7075">
        <ele>262</ele>
        <time>2011-08-16T14:11:25Z</time>
      </trkpt>
      <trkpt lat="47.18193" lon="5.70731">
        <ele>262</ele>
        <time>2011-08-16T14:11:27Z</time>
      </trkpt>
      <trkpt lat="47.18201" lon="5.7071">
        <ele>262</ele>
        <time>2011-08-16T14:11:29Z</time>
      </trkpt>
      <trkpt lat="47.18208" lon="5.70689">
        <ele>262</ele>
        <time>2011-08-16T14:11:31Z</time>
      </trkpt>
      <trkpt lat="47.18216" lon="5.70667">
        <ele>262</ele>
        <time>2011-08-16T14:11:33Z</time>
      </trkpt>
      <trkpt lat="47.1822" lon="5.70655">
        <ele>262</ele>
        <time>2011-08-16T14:11:34Z</time>
      </trkpt>
      <trkpt lat="47.1823" lon="5.70632">
        <ele>262</ele>
        <time>2011-08-16T14:11:36Z</time>
      </trkpt>
      <trkpt lat="47.18235" lon="5.70621">
        <ele>262</ele>
        <time>2011-08-16T14:11:37Z</time>
      </trkpt>
      <trkpt lat="47.1824" lon="5.70609">
        <ele>262</ele>
        <time>2011-08-16T14:11:38Z</time>
      </trkpt>
      <trkpt lat="47.18246" lon="5.70596">
        <ele>262</ele>
        <time>2011-08-16T14:11:39Z</time>
      </trkpt>
      <trkpt lat="47.18252" lon="5.70585">
        <ele>262</ele>
        <time>2011-08-16T14:11:40Z</time>
      </trkpt>
      <trkpt lat="47.18258" lon="5.70572">
        <ele>262</ele>
        <time>2011-08-16T14:11:41Z</time>
      </trkpt>
      <trkpt lat="47.18264" lon="5.70561">
        <ele>262</ele>
        <time>2011-08-16T14:11:42Z</time>
      </trkpt>
      <trkpt lat="47.18271" lon="5.70548">
        <ele>255</ele>
        <time>2011-08-16T14:11:43Z</time>
      </trkpt>
      <trkpt lat="47.18277" lon="5.70537">
        <ele>255</ele>
        <time>2011-08-16T14:11:44Z</time>
      </trkpt>
      <trkpt lat="47.18284" lon="5.70526">
        <ele>255</ele>
        <time>2011-08-16T14:11:45Z</time>
      </trkpt>
      <trkpt lat="47.18291" lon="5.70517">
        <ele>255</ele>
        <time>2011-08-16T14:11:46Z</time>
      </trkpt>
      <trkpt lat="47.18299" lon="5.70509">
        <ele>255</ele>
        <time>2011-08-16T14:11:47Z</time>
      </trkpt>
      <trkpt lat="47.18312" lon="5.70497">
        <ele>255</ele>
        <time>2011-08-16T14:11:49Z</time>
      </trkpt>
      <trkpt lat="47.18325" lon="5.70488">
        <ele>263</ele>
        <time>2011-08-16T14:11:51Z</time>
      </trkpt>
      <trkpt lat="47.18339" lon="5.70479">
        <ele>263</ele>
        <time>2011-08-16T14:11:53Z</time>
      </trkpt>
      <trkpt lat="47.1835" lon="5.70471">
        <ele>271</ele>
        <time>2011-08-16T14:11:55Z</time>
      </trkpt>
      <trkpt lat="47.1836" lon="5.70463">
        <ele>278</ele>
        <time>2011-08-16T14:11:57Z</time>
      </trkpt>
      <trkpt lat="47.18371" lon="5.70455">
        <ele>278</ele>
        <time>2011-08-16T14:11:59Z</time>
      </trkpt>
      <trkpt lat="47.18381" lon="5.70447">
        <ele>286</ele>
        <time>2011-08-16T14:12:01Z</time>
      </trkpt>
      <trkpt lat="47.18392" lon="5.7044">
        <ele>286</ele>
        <time>2011-08-16T14:12:03Z</time>
      </trkpt>
      <trkpt lat="47.18402" lon="5.70433">
        <ele>297</ele>
        <time>2011-08-16T14:12:05Z</time>
      </trkpt>
      <trkpt lat="47.18412" lon="5.70425">
        <ele>302</ele>
        <time>2011-08-16T14:12:07Z</time>
      </trkpt>
      <trkpt lat="47.18424" lon="5.70417">
        <ele>302</ele>
        <time>2011-08-16T14:12:09Z</time>
      </trkpt>
      <trkpt lat="47.18437" lon="5.70409">
        <ele>302</ele>
        <time>2011-08-16T14:12:11Z</time>
      </trkpt>
      <trkpt lat="47.18448" lon="5.70402">
        <ele>302</ele>
        <time>2011-08-16T14:12:13Z</time>
      </trkpt>
      <trkpt lat="47.18459" lon="5.70392">
        <ele>302</ele>
        <time>2011-08-16T14:12:15Z</time>
      </trkpt>
      <trkpt lat="47.1847" lon="5.70384">
        <ele>310</ele>
        <time>2011-08-16T14:12:17Z</time>
      </trkpt>
      <trkpt lat="47.18481" lon="5.70375">
        <ele>310</ele>
        <time>2011-08-16T14:12:19Z</time>
      </trkpt>
      <trkpt lat="47.18492" lon="5.70365">
        <ele>310</ele>
        <time>2011-08-16T14:12:21Z</time>
      </trkpt>
      <trkpt lat="47.18503" lon="5.70355">
        <ele>310</ele>
        <time>2011-08-16T14:12:23Z</time>
      </trkpt>
      <trkpt lat="47.18516" lon="5.70345">
        <ele>310</ele>
        <time>2011-08-16T14:12:25Z</time>
      </trkpt>
      <trkpt lat="47.18528" lon="5.70335">
        <ele>310</ele>
        <time>2011-08-16T14:12:27Z</time>
      </trkpt>
      <trkpt lat="47.18543" lon="5.70325">
        <ele>310</ele>
        <time>2011-08-16T14:12:29Z</time>
      </trkpt>
      <trkpt lat="47.18556" lon="5.70314">
        <ele>310</ele>
        <time>2011-08-16T14:12:31Z</time>
      </trkpt>
      <trkpt lat="47.18571" lon="5.70304">
        <ele>303</ele>
        <time>2011-08-16T14:12:33Z</time>
      </trkpt>
      <trkpt lat="47.18587" lon="5.70293">
        <ele>296</ele>
        <time>2011-08-16T14:12:35Z</time>
      </trkpt>
      <trkpt lat="47.18601" lon="5.70281">
        <ele>296</ele>
        <time>2011-08-16T14:12:37Z</time>
      </trkpt>
      <trkpt lat="47.18618" lon="5.70269">
        <ele>283</ele>
        <time>2011-08-16T14:12:39Z</time>
      </trkpt>
      <trkpt lat="47.18626" lon="5.70263">
        <ele>283</ele>
        <time>2011-08-16T14:12:40Z</time>
      </trkpt>
      <trkpt lat="47.18643" lon="5.70251">
        <ele>275</ele>
        <time>2011-08-16T14:12:42Z</time>
      </trkpt>
      <trkpt lat="47.18651" lon="5.70245">
        <ele>275</ele>
        <time>2011-08-16T14:12:43Z</time>
      </trkpt>
      <trkpt lat="47.18659" lon="5.70239">
        <ele>275</ele>
        <time>2011-08-16T14:12:44Z</time>
      </trkpt>
      <trkpt lat="47.18667" lon="5.70233">
        <ele>275</ele>
        <time>2011-08-16T14:12:45Z</time>
      </trkpt>
      <trkpt lat="47.18675" lon="5.70225">
        <ele>269</ele>
        <time>2011-08-16T14:12:46Z</time>
      </trkpt>
      <trkpt lat="47.18685" lon="5.70219">
        <ele>269</ele>
        <time>2011-08-16T14:12:47Z</time>
      </trkpt>
      <trkpt lat="47.18693" lon="5.70212">
        <ele>269</ele>
        <time>2011-08-16T14:12:48Z</time>
      </trkpt>
      <trkpt lat="47.18702" lon="5.70205">
        <ele>269</ele>
        <time>2011-08-16T14:12:49Z</time>
      </trkpt>
      <trkpt lat="47.18711" lon="5.70197">
        <ele>262</ele>
        <time>2011-08-16T14:12:50Z</time>
      </trkpt>
      <trkpt lat="47.1872" lon="5.7019">
        <ele>262</ele>
        <time>2011-08-16T14:12:51Z</time>
      </trkpt>
      <trkpt lat="47.18729" lon="5.70182">
        <ele>262</ele>
        <time>2011-08-16T14:12:52Z</time>
      </trkpt>
      <trkpt lat="47.18737" lon="5.70173">
        <ele>262</ele>
        <time>2011-08-16T14:12:53Z</time>
      </trkpt>
      <trkpt lat="47.18746" lon="5.70165">
        <ele>257</ele>
        <time>2011-08-16T14:12:54Z</time>
      </trkpt>
      <trkpt lat="47.18756" lon="5.70156">
        <ele>257</ele>
        <time>2011-08-16T14:12:55Z</time>
      </trkpt>
      <trkpt lat="47.18765" lon="5.70146">
        <ele>257</ele>
        <time>2011-08-16T14:12:56Z</time>
      </trkpt>
      <trkpt lat="47.18773" lon="5.70137">
        <ele>257</ele>
        <time>2011-08-16T14:12:57Z</time>
      </trkpt>
      <trkpt lat="47.18783" lon="5.70126">
        <ele>257</ele>
        <time>2011-08-16T14:12:58Z</time>
      </trkpt>
      <trkpt lat="47.18792" lon="5.70114">
        <ele>251</ele>
        <time>2011-08-16T14:12:59Z</time>
      </trkpt>
      <trkpt lat="47.188" lon="5.70102">
        <ele>251</ele>
        <time>2011-08-16T14:13:00Z</time>
      </trkpt>
      <trkpt lat="47.18809" lon="5.7009">
        <ele>251</ele>
        <time>2011-08-16T14:13:01Z</time>
      </trkpt>
      <trkpt lat="47.18817" lon="5.70078">
        <ele>251</ele>
        <time>2011-08-16T14:13:02Z</time>
      </trkpt>
      <trkpt lat="47.18825" lon="5.70066">
        <ele>251</ele>
        <time>2011-08-16T14:13:03Z</time>
      </trkpt>
      <trkpt lat="47.18832" lon="5.70053">
        <ele>245</ele>
        <time>2011-08-16T14:13:04Z</time>
      </trkpt>
      <trkpt lat="47.1884" lon="5.7004">
        <ele>245</ele>
        <time>2011-08-16T14:13:05Z</time>
      </trkpt>
      <trkpt lat="47.18846" lon="5.70029">
        <ele>245</ele>
        <time>2011-08-16T14:13:06Z</time>
      </trkpt>
      <trkpt lat="47.18853" lon="5.70017">
        <ele>245</ele>
        <time>2011-08-16T14:13:07Z</time>
      </trkpt>
      <trkpt lat="47.1886" lon="5.70006">
        <ele>245</ele>
        <time>2011-08-16T14:13:08Z</time>
      </trkpt>
      <trkpt lat="47.18866" lon="5.69995">
        <ele>245</ele>
        <time>2011-08-16T14:13:09Z</time>
      </trkpt>
      <trkpt lat="47.18872" lon="5.69986">
        <ele>245</ele>
        <time>2011-08-16T14:13:10Z</time>
      </trkpt>
      <trkpt lat="47.18878" lon="5.69975">
        <ele>245</ele>
        <time>2011-08-16T14:13:11Z</time>
      </trkpt>
      <trkpt lat="47.1889" lon="5.69957">
        <ele>245</ele>
        <time>2011-08-16T14:13:13Z</time>
      </trkpt>
      <trkpt lat="47.18901" lon="5.6994">
        <ele>245</ele>
        <time>2011-08-16T14:13:15Z</time>
      </trkpt>
      <trkpt lat="47.18913" lon="5.69925">
        <ele>245</ele>
        <time>2011-08-16T14:13:17Z</time>
      </trkpt>
      <trkpt lat="47.18924" lon="5.69911">
        <ele>245</ele>
        <time>2011-08-16T14:13:19Z</time>
      </trkpt>
      <trkpt lat="47.18935" lon="5.69898">
        <ele>245</ele>
        <time>2011-08-16T14:13:21Z</time>
      </trkpt>
      <trkpt lat="47.18946" lon="5.69887">
        <ele>245</ele>
        <time>2011-08-16T14:13:23Z</time>
      </trkpt>
      <trkpt lat="47.18956" lon="5.69877">
        <ele>245</ele>
        <time>2011-08-16T14:13:25Z</time>
      </trkpt>
      <trkpt lat="47.18966" lon="5.69868">
        <ele>245</ele>
        <time>2011-08-16T14:13:27Z</time>
      </trkpt>
      <trkpt lat="47.18976" lon="5.69859">
        <ele>245</ele>
        <time>2011-08-16T14:13:29Z</time>
      </trkpt>
      <trkpt lat="47.18987" lon="5.69852">
        <ele>245</ele>
        <time>2011-08-16T14:13:31Z</time>
      </trkpt>
      <trkpt lat="47.18996" lon="5.69845">
        <ele>245</ele>
        <time>2011-08-16T14:13:33Z</time>
      </trkpt>
      <trkpt lat="47.19006" lon="5.69838">
        <ele>245</ele>
        <time>2011-08-16T14:13:35Z</time>
      </trkpt>
      <trkpt lat="47.19015" lon="5.69831">
        <ele>245</ele>
        <time>2011-08-16T14:13:37Z</time>
      </trkpt>
      <trkpt lat="47.19025" lon="5.69825">
        <ele>245</ele>
        <time>2011-08-16T14:13:39Z</time>
      </trkpt>
      <trkpt lat="47.19034" lon="5.69819">
        <ele>245</ele>
        <time>2011-08-16T14:13:41Z</time>
      </trkpt>
      <trkpt lat="47.19043" lon="5.69813">
        <ele>245</ele>
        <time>2011-08-16T14:13:43Z</time>
      </trkpt>
      <trkpt lat="47.19052" lon="5.69807">
        <ele>245</ele>
        <time>2011-08-16T14:13:45Z</time>
      </trkpt>
      <trkpt lat="47.19061" lon="5.69801">
        <ele>250</ele>
        <time>2011-08-16T14:13:47Z</time>
      </trkpt>
      <trkpt lat="47.1907" lon="5.69795">
        <ele>250</ele>
        <time>2011-08-16T14:13:49Z</time>
      </trkpt>
      <trkpt lat="47.19079" lon="5.6979">
        <ele>250</ele>
        <time>2011-08-16T14:13:51Z</time>
      </trkpt>
      <trkpt lat="47.19088" lon="5.69783">
        <ele>250</ele>
        <time>2011-08-16T14:13:53Z</time>
      </trkpt>
      <trkpt lat="47.19096" lon="5.69777">
        <ele>250</ele>
        <time>2011-08-16T14:13:55Z</time>
      </trkpt>
      <trkpt lat="47.19105" lon="5.69772">
        <ele>250</ele>
        <time>2011-08-16T14:13:57Z</time>
      </trkpt>
      <trkpt lat="47.19113" lon="5.69765">
        <ele>250</ele>
        <time>2011-08-16T14:13:59Z</time>
      </trkpt>
      <trkpt lat="47.19122" lon="5.69759">
        <ele>250</ele>
        <time>2011-08-16T14:14:01Z</time>
      </trkpt>
      <trkpt lat="47.1913" lon="5.69754">
        <ele>250</ele>
        <time>2011-08-16T14:14:03Z</time>
      </trkpt>
      <trkpt lat="47.19139" lon="5.69748">
        <ele>250</ele>
        <time>2011-08-16T14:14:05Z</time>
      </trkpt>
      <trkpt lat="47.19151" lon="5.69739">
        <ele>250</ele>
        <time>2011-08-16T14:14:08Z</time>
      </trkpt>
      <trkpt lat="47.1916" lon="5.69733">
        <ele>250</ele>
        <time>2011-08-16T14:14:10Z</time>
      </trkpt>
      <trkpt lat="47.19168" lon="5.69728">
        <ele>250</ele>
        <time>2011-08-16T14:14:12Z</time>
      </trkpt>
      <trkpt lat="47.19177" lon="5.69721">
        <ele>250</ele>
        <time>2011-08-16T14:14:14Z</time>
      </trkpt>
      <trkpt lat="47.19189" lon="5.69713">
        <ele>250</ele>
        <time>2011-08-16T14:14:17Z</time>
      </trkpt>
      <trkpt lat="47.19198" lon="5.69707">
        <ele>250</ele>
        <time>2011-08-16T14:14:19Z</time>
      </trkpt>
      <trkpt lat="47.19206" lon="5.69702">
        <ele>250</ele>
        <time>2011-08-16T14:14:21Z</time>
      </trkpt>
      <trkpt lat="47.19215" lon="5.69695">
        <ele>256</ele>
        <time>2011-08-16T14:14:23Z</time>
      </trkpt>
      <trkpt lat="47.19224" lon="5.69689">
        <ele>256</ele>
        <time>2011-08-16T14:14:25Z</time>
      </trkpt>
      <trkpt lat="47.19232" lon="5.69684">
        <ele>256</ele>
        <time>2011-08-16T14:14:27Z</time>
      </trkpt>
      <trkpt lat="47.19241" lon="5.69677">
        <ele>256</ele>
        <time>2011-08-16T14:14:29Z</time>
      </trkpt>
      <trkpt lat="47.19249" lon="5.69672">
        <ele>256</ele>
        <time>2011-08-16T14:14:31Z</time>
      </trkpt>
      <trkpt lat="47.19258" lon="5.69666">
        <ele>256</ele>
        <time>2011-08-16T14:14:33Z</time>
      </trkpt>
      <trkpt lat="47.19266" lon="5.6966">
        <ele>256</ele>
        <time>2011-08-16T14:14:35Z</time>
      </trkpt>
      <trkpt lat="47.19274" lon="5.69654">
        <ele>256</ele>
        <time>2011-08-16T14:14:37Z</time>
      </trkpt>
      <trkpt lat="47.19283" lon="5.69649">
        <ele>256</ele>
        <time>2011-08-16T14:14:39Z</time>
      </trkpt>
      <trkpt lat="47.19292" lon="5.69642">
        <ele>256</ele>
        <time>2011-08-16T14:14:41Z</time>
      </trkpt>
      <trkpt lat="47.19303" lon="5.69634">
        <ele>256</ele>
        <time>2011-08-16T14:14:44Z</time>
      </trkpt>
      <trkpt lat="47.19315" lon="5.69625">
        <ele>261</ele>
        <time>2011-08-16T14:14:47Z</time>
      </trkpt>
      <trkpt lat="47.19326" lon="5.69617">
        <ele>261</ele>
        <time>2011-08-16T14:14:50Z</time>
      </trkpt>
      <trkpt lat="47.19337" lon="5.6961">
        <ele>261</ele>
        <time>2011-08-16T14:14:53Z</time>
      </trkpt>
      <trkpt lat="47.19348" lon="5.69602">
        <ele>261</ele>
        <time>2011-08-16T14:14:56Z</time>
      </trkpt>
      <trkpt lat="47.19359" lon="5.69595">
        <ele>261</ele>
        <time>2011-08-16T14:14:59Z</time>
      </trkpt>
      <trkpt lat="47.19371" lon="5.69587">
        <ele>261</ele>
        <time>2011-08-16T14:15:02Z</time>
      </trkpt>
      <trkpt lat="47.19382" lon="5.69579">
        <ele>261</ele>
        <time>2011-08-16T14:15:05Z</time>
      </trkpt>
      <trkpt lat="47.19393" lon="5.69571">
        <ele>261</ele>
        <time>2011-08-16T14:15:08Z</time>
      </trkpt>
      <trkpt lat="47.19404" lon="5.69563">
        <ele>261</ele>
        <time>2011-08-16T14:15:11Z</time>
      </trkpt>
      <trkpt lat="47.19415" lon="5.69555">
        <ele>266</ele>
        <time>2011-08-16T14:15:14Z</time>
      </trkpt>
      <trkpt lat="47.19426" lon="5.69548">
        <ele>266</ele>
        <time>2011-08-16T14:15:17Z</time>
      </trkpt>
      <trkpt lat="47.19437" lon="5.6954">
        <ele>266</ele>
        <time>2011-08-16T14:15:20Z</time>
      </trkpt>
      <trkpt lat="47.19447" lon="5.69533">
        <ele>266</ele>
        <time>2011-08-16T14:15:23Z</time>
      </trkpt>
      <trkpt lat="47.19457" lon="5.69526">
        <ele>266</ele>
        <time>2011-08-16T14:15:26Z</time>
      </trkpt>
      <trkpt lat="47.19468" lon="5.69518">
        <ele>266</ele>
        <time>2011-08-16T14:15:29Z</time>
      </trkpt>
      <trkpt lat="47.19479" lon="5.6951">
        <ele>266</ele>
        <time>2011-08-16T14:15:32Z</time>
      </trkpt>
      <trkpt lat="47.19489" lon="5.69503">
        <ele>266</ele>
        <time>2011-08-16T14:15:35Z</time>
      </trkpt>
      <trkpt lat="47.195" lon="5.69495">
        <ele>272</ele>
        <time>2011-08-16T14:15:38Z</time>
      </trkpt>
      <trkpt lat="47.1951" lon="5.69488">
        <ele>272</ele>
        <time>2011-08-16T14:15:41Z</time>
      </trkpt>
      <trkpt lat="47.19521" lon="5.69481">
        <ele>272</ele>
        <time>2011-08-16T14:15:44Z</time>
      </trkpt>
      <trkpt lat="47.19532" lon="5.69474">
        <ele>272</ele>
        <time>2011-08-16T14:15:47Z</time>
      </trkpt>
      <trkpt lat="47.19542" lon="5.69466">
        <ele>272</ele>
        <time>2011-08-16T14:15:50Z</time>
      </trkpt>
      <trkpt lat="47.19552" lon="5.69459">
        <ele>272</ele>
        <time>2011-08-16T14:15:53Z</time>
      </trkpt>
      <trkpt lat="47.19563" lon="5.69452">
        <ele>272</ele>
        <time>2011-08-16T14:15:56Z</time>
      </trkpt>
      <trkpt lat="47.19573" lon="5.69445">
        <ele>272</ele>
        <time>2011-08-16T14:15:59Z</time>
      </trkpt>
      <trkpt lat="47.19583" lon="5.69438">
        <ele>272</ele>
        <time>2011-08-16T14:16:02Z</time>
      </trkpt>
      <trkpt lat="47.19593" lon="5.6943">
        <ele>277</ele>
        <time>2011-08-16T14:16:05Z</time>
      </trkpt>
      <trkpt lat="47.19604" lon="5.69422">
        <ele>277</ele>
        <time>2011-08-16T14:16:08Z</time>
      </trkpt>
      <trkpt lat="47.19614" lon="5.69415">
        <ele>277</ele>
        <time>2011-08-16T14:16:11Z</time>
      </trkpt>
      <trkpt lat="47.19625" lon="5.69408">
        <ele>277</ele>
        <time>2011-08-16T14:16:14Z</time>
      </trkpt>
      <trkpt lat="47.19635" lon="5.69401">
        <ele>277</ele>
        <time>2011-08-16T14:16:17Z</time>
      </trkpt>
      <trkpt lat="47.19645" lon="5.69394">
        <ele>277</ele>
        <time>2011-08-16T14:16:20Z</time>
      </trkpt>
      <trkpt lat="47.19655" lon="5.69386">
        <ele>277</ele>
        <time>2011-08-16T14:16:23Z</time>
      </trkpt>
      <trkpt lat="47.19664" lon="5.6938">
        <ele>277</ele>
        <time>2011-08-16T14:16:26Z</time>
      </trkpt>
      <trkpt lat="47.19674" lon="5.69374">
        <ele>277</ele>
        <time>2011-08-16T14:16:29Z</time>
      </trkpt>
      <trkpt lat="47.19683" lon="5.69368">
        <ele>283</ele>
        <time>2011-08-16T14:16:32Z</time>
      </trkpt>
      <trkpt lat="47.19694" lon="5.69362">
        <ele>283</ele>
        <time>2011-08-16T14:16:35Z</time>
      </trkpt>
      <trkpt lat="47.19704" lon="5.69358">
        <ele>283</ele>
        <time>2011-08-16T14:16:38Z</time>
      </trkpt>
      <trkpt lat="47.19714" lon="5.69355">
        <ele>283</ele>
        <time>2011-08-16T14:16:41Z</time>
      </trkpt>
      <trkpt lat="47.19724" lon="5.69353">
        <ele>283</ele>
        <time>2011-08-16T14:16:44Z</time>
      </trkpt>
      <trkpt lat="47.19735" lon="5.69353">
        <ele>283</ele>
        <time>2011-08-16T14:16:47Z</time>
      </trkpt>
      <trkpt lat="47.19746" lon="5.69355">
        <ele>283</ele>
        <time>2011-08-16T14:16:50Z</time>
      </trkpt>
      <trkpt lat="47.19756" lon="5.69357">
        <ele>289</ele>
        <time>2011-08-16T14:16:53Z</time>
      </trkpt>
      <trkpt lat="47.19766" lon="5.6936">
        <ele>289</ele>
        <time>2011-08-16T14:16:56Z</time>
      </trkpt>
      <trkpt lat="47.19776" lon="5.69364">
        <ele>289</ele>
        <time>2011-08-16T14:16:59Z</time>
      </trkpt>
      <trkpt lat="47.19786" lon="5.69368">
        <ele>289</ele>
        <time>2011-08-16T14:17:02Z</time>
      </trkpt>
      <trkpt lat="47.19795" lon="5.69373">
        <ele>295</ele>
        <time>2011-08-16T14:17:05Z</time>
      </trkpt>
      <trkpt lat="47.19804" lon="5.69377">
        <ele>301</ele>
        <time>2011-08-16T14:17:08Z</time>
      </trkpt>
      <trkpt lat="47.19814" lon="5.69383">
        <ele>312</ele>
        <time>2011-08-16T14:17:12Z</time>
      </trkpt>
      <trkpt lat="47.19824" lon="5.69387">
        <ele>312</ele>
        <time>2011-08-16T14:17:15Z</time>
      </trkpt>
      <trkpt lat="47.19836" lon="5.69391">
        <ele>312</ele>
        <time>2011-08-16T14:17:18Z</time>
      </trkpt>
      <trkpt lat="47.19847" lon="5.69394">
        <ele>312</ele>
        <time>2011-08-16T14:17:21Z</time>
      </trkpt>
      <trkpt lat="47.19858" lon="5.69395">
        <ele>312</ele>
        <time>2011-08-16T14:17:24Z</time>
      </trkpt>
      <trkpt lat="47.1987" lon="5.69396">
        <ele>307</ele>
        <time>2011-08-16T14:17:27Z</time>
      </trkpt>
      <trkpt lat="47.19881" lon="5.69397">
        <ele>307</ele>
        <time>2011-08-16T14:17:30Z</time>
      </trkpt>
      <trkpt lat="47.19892" lon="5.69396">
        <ele>307</ele>
        <time>2011-08-16T14:17:33Z</time>
      </trkpt>
      <trkpt lat="47.19903" lon="5.69395">
        <ele>307</ele>
        <time>2011-08-16T14:17:36Z</time>
      </trkpt>
      <trkpt lat="47.19914" lon="5.69394">
        <ele>307</ele>
        <time>2011-08-16T14:17:39Z</time>
      </trkpt>
      <trkpt lat="47.19925" lon="5.69391">
        <ele>307</ele>
        <time>2011-08-16T14:17:42Z</time>
      </trkpt>
      <trkpt lat="47.19936" lon="5.69388">
        <ele>307</ele>
        <time>2011-08-16T14:17:45Z</time>
      </trkpt>
      <trkpt lat="47.19946" lon="5.69385">
        <ele>307</ele>
        <time>2011-08-16T14:17:48Z</time>
      </trkpt>
      <trkpt lat="47.19956" lon="5.6938">
        <ele>307</ele>
        <time>2011-08-16T14:17:51Z</time>
      </trkpt>
      <trkpt lat="47.19966" lon="5.69375">
        <ele>307</ele>
        <time>2011-08-16T14:17:54Z</time>
      </trkpt>
      <trkpt lat="47.19977" lon="5.69367">
        <ele>307</ele>
        <time>2011-08-16T14:17:57Z</time>
      </trkpt>
      <trkpt lat="47.19986" lon="5.69358">
        <ele>307</ele>
        <time>2011-08-16T14:18:00Z</time>
      </trkpt>
      <trkpt lat="47.19995" lon="5.69348">
        <ele>307</ele>
        <time>2011-08-16T14:18:03Z</time>
      </trkpt>
      <trkpt lat="47.20004" lon="5.69337">
        <ele>307</ele>
        <time>2011-08-16T14:18:06Z</time>
      </trkpt>
      <trkpt lat="47.20011" lon="5.69326">
        <ele>307</ele>
        <time>2011-08-16T14:18:09Z</time>
      </trkpt>
      <trkpt lat="47.20018" lon="5.69314">
        <ele>307</ele>
        <time>2011-08-16T14:18:12Z</time>
      </trkpt>
      <trkpt lat="47.20024" lon="5.69302">
        <ele>307</ele>
        <time>2011-08-16T14:18:15Z</time>
      </trkpt>
      <trkpt lat="47.20031" lon="5.69289">
        <ele>307</ele>
        <time>2011-08-16T14:18:18Z</time>
      </trkpt>
      <trkpt lat="47.20037" lon="5.69277">
        <ele>307</ele>
        <time>2011-08-16T14:18:21Z</time>
      </trkpt>
      <trkpt lat="47.20043" lon="5.69264">
        <ele>307</ele>
        <time>2011-08-16T14:18:24Z</time>
      </trkpt>
      <trkpt lat="47.20049" lon="5.69252">
        <ele>307</ele>
        <time>2011-08-16T14:18:27Z</time>
      </trkpt>
      <trkpt lat="47.20056" lon="5.69238">
        <ele>307</ele>
        <time>2011-08-16T14:18:30Z</time>
      </trkpt>
      <trkpt lat="47.20062" lon="5.69225">
        <ele>307</ele>
        <time>2011-08-16T14:18:33Z</time>
      </trkpt>
      <trkpt lat="47.20068" lon="5.69211">
        <ele>307</ele>
        <time>2011-08-16T14:18:36Z</time>
      </trkpt>
      <trkpt lat="47.20076" lon="5.69196">
        <ele>307</ele>
        <time>2011-08-16T14:18:39Z</time>
      </trkpt>
      <trkpt lat="47.20082" lon="5.69185">
        <ele>307</ele>
        <time>2011-08-16T14:18:41Z</time>
      </trkpt>
      <trkpt lat="47.20087" lon="5.69174">
        <ele>307</ele>
        <time>2011-08-16T14:18:43Z</time>
      </trkpt>
      <trkpt lat="47.20094" lon="5.69161">
        <ele>307</ele>
        <time>2011-08-16T14:18:45Z</time>
      </trkpt>
      <trkpt lat="47.201" lon="5.69147">
        <ele>307</ele>
        <time>2011-08-16T14:18:47Z</time>
      </trkpt>
      <trkpt lat="47.20107" lon="5.69134">
        <ele>307</ele>
        <time>2011-08-16T14:18:49Z</time>
      </trkpt>
      <trkpt lat="47.20113" lon="5.69121">
        <ele>307</ele>
        <time>2011-08-16T14:18:51Z</time>
      </trkpt>
      <trkpt lat="47.20119" lon="5.69109">
        <ele>307</ele>
        <time>2011-08-16T14:18:53Z</time>
      </trkpt>
      <trkpt lat="47.20124" lon="5.69098">
        <ele>307</ele>
        <time>2011-08-16T14:18:55Z</time>
      </trkpt>
      <trkpt lat="47.20132" lon="5.69082">
        <ele>307</ele>
        <time>2011-08-16T14:18:58Z</time>
      </trkpt>
      <trkpt lat="47.20138" lon="5.6907">
        <ele>307</ele>
        <time>2011-08-16T14:19:00Z</time>
      </trkpt>
      <trkpt lat="47.20144" lon="5.69058">
        <ele>307</ele>
        <time>2011-08-16T14:19:02Z</time>
      </trkpt>
      <trkpt lat="47.20151" lon="5.69043">
        <ele>307</ele>
        <time>2011-08-16T14:19:04Z</time>
      </trkpt>
      <trkpt lat="47.20158" lon="5.69029">
        <ele>307</ele>
        <time>2011-08-16T14:19:06Z</time>
      </trkpt>
      <trkpt lat="47.20166" lon="5.69013">
        <ele>301</ele>
        <time>2011-08-16T14:19:08Z</time>
      </trkpt>
      <trkpt lat="47.20174" lon="5.68996">
        <ele>301</ele>
        <time>2011-08-16T14:19:10Z</time>
      </trkpt>
      <trkpt lat="47.20182" lon="5.68979">
        <ele>301</ele>
        <time>2011-08-16T14:19:12Z</time>
      </trkpt>
      <trkpt lat="47.2019" lon="5.68961">
        <ele>301</ele>
        <time>2011-08-16T14:19:14Z</time>
      </trkpt>
      <trkpt lat="47.202" lon="5.68942">
        <ele>301</ele>
        <time>2011-08-16T14:19:16Z</time>
      </trkpt>
      <trkpt lat="47.20209" lon="5.68922">
        <ele>301</ele>
        <time>2011-08-16T14:19:18Z</time>
      </trkpt>
      <trkpt lat="47.20218" lon="5.68904">
        <ele>301</ele>
        <time>2011-08-16T14:19:20Z</time>
      </trkpt>
      <trkpt lat="47.20227" lon="5.68886">
        <ele>301</ele>
        <time>2011-08-16T14:19:22Z</time>
      </trkpt>
      <trkpt lat="47.20236" lon="5.68871">
        <ele>301</ele>
        <time>2011-08-16T14:19:24Z</time>
      </trkpt>
      <trkpt lat="47.20245" lon="5.68856">
        <ele>301</ele>
        <time>2011-08-16T14:19:26Z</time>
      </trkpt>
      <trkpt lat="47.20253" lon="5.68841">
        <ele>301</ele>
        <time>2011-08-16T14:19:28Z</time>
      </trkpt>
      <trkpt lat="47.20261" lon="5.68828">
        <ele>301</ele>
        <time>2011-08-16T14:19:30Z</time>
      </trkpt>
      <trkpt lat="47.20269" lon="5.68814">
        <ele>301</ele>
        <time>2011-08-16T14:19:32Z</time>
      </trkpt>
      <trkpt lat="47.20277" lon="5.68803">
        <ele>301</ele>
        <time>2011-08-16T14:19:34Z</time>
      </trkpt>
      <trkpt lat="47.20283" lon="5.68789">
        <ele>301</ele>
        <time>2011-08-16T14:19:36Z</time>
      </trkpt>
      <trkpt lat="47.20283" lon="5.68771">
        <ele>301</ele>
        <time>2011-08-16T14:19:39Z</time>
      </trkpt>
      <trkpt lat="47.20272" lon="5.68772">
        <ele>301</ele>
        <time>2011-08-16T14:19:43Z</time>
      </trkpt>
      <trkpt lat="47.20281" lon="5.68776">
        <ele>301</ele>
        <time>2011-08-16T14:23:46Z</time>
      </trkpt>
      <trkpt lat="47.20272" lon="5.68773">
        <ele>301</ele>
        <time>2011-08-16T14:30:38Z</time>
      </trkpt>
      <trkpt lat="47.2028" lon="5.68763">
        <ele>301</ele>
        <time>2011-08-16T14:31:20Z</time>
      </trkpt>
      <trkpt lat="47.20289" lon="5.68767">
        <ele>301</ele>
        <time>2011-08-16T14:31:26Z</time>
      </trkpt>
      <trkpt lat="47.20299" lon="5.68766">
        <ele>301</ele>
        <time>2011-08-16T14:31:33Z</time>
      </trkpt>
      <trkpt lat="47.20307" lon="5.68757">
        <ele>301</ele>
        <time>2011-08-16T14:31:37Z</time>
      </trkpt>
      <trkpt lat="47.20315" lon="5.68745">
        <ele>301</ele>
        <time>2011-08-16T14:31:41Z</time>
      </trkpt>
      <trkpt lat="47.20321" lon="5.68733">
        <ele>301</ele>
        <time>2011-08-16T14:31:44Z</time>
      </trkpt>
      <trkpt lat="47.20329" lon="5.6872">
        <ele>301</ele>
        <time>2011-08-16T14:31:47Z</time>
      </trkpt>
      <trkpt lat="47.20336" lon="5.68711">
        <ele>301</ele>
        <time>2011-08-16T14:31:49Z</time>
      </trkpt>
      <trkpt lat="47.20344" lon="5.68699">
        <ele>301</ele>
        <time>2011-08-16T14:31:51Z</time>
      </trkpt>
      <trkpt lat="47.20352" lon="5.68687">
        <ele>301</ele>
        <time>2011-08-16T14:31:53Z</time>
      </trkpt>
      <trkpt lat="47.20358" lon="5.68675">
        <ele>307</ele>
        <time>2011-08-16T14:31:55Z</time>
      </trkpt>
      <trkpt lat="47.20367" lon="5.6866">
        <ele>307</ele>
        <time>2011-08-16T14:31:58Z</time>
      </trkpt>
      <trkpt lat="47.20374" lon="5.68649">
        <ele>307</ele>
        <time>2011-08-16T14:32:00Z</time>
      </trkpt>
      <trkpt lat="47.20381" lon="5.68635">
        <ele>307</ele>
        <time>2011-08-16T14:32:02Z</time>
      </trkpt>
      <trkpt lat="47.20389" lon="5.68623">
        <ele>307</ele>
        <time>2011-08-16T14:32:04Z</time>
      </trkpt>
      <trkpt lat="47.20395" lon="5.6861">
        <ele>307</ele>
        <time>2011-08-16T14:32:06Z</time>
      </trkpt>
      <trkpt lat="47.20402" lon="5.68599">
        <ele>313</ele>
        <time>2011-08-16T14:32:08Z</time>
      </trkpt>
      <trkpt lat="47.2041" lon="5.68583">
        <ele>313</ele>
        <time>2011-08-16T14:32:11Z</time>
      </trkpt>
      <trkpt lat="47.20416" lon="5.68573">
        <ele>313</ele>
        <time>2011-08-16T14:32:13Z</time>
      </trkpt>
      <trkpt lat="47.20425" lon="5.68557">
        <ele>319</ele>
        <time>2011-08-16T14:32:16Z</time>
      </trkpt>
      <trkpt lat="47.20433" lon="5.68546">
        <ele>319</ele>
        <time>2011-08-16T14:32:18Z</time>
      </trkpt>
      <trkpt lat="47.2044" lon="5.68538">
        <ele>319</ele>
        <time>2011-08-16T14:32:20Z</time>
      </trkpt>
      <trkpt lat="47.20447" lon="5.68525">
        <ele>325</ele>
        <time>2011-08-16T14:32:22Z</time>
      </trkpt>
      <trkpt lat="47.20457" lon="5.68511">
        <ele>325</ele>
        <time>2011-08-16T14:32:24Z</time>
      </trkpt>
      <trkpt lat="47.20466" lon="5.68494">
        <ele>325</ele>
        <time>2011-08-16T14:32:26Z</time>
      </trkpt>
      <trkpt lat="47.20477" lon="5.68474">
        <ele>316</ele>
        <time>2011-08-16T14:32:28Z</time>
      </trkpt>
      <trkpt lat="47.20485" lon="5.68452">
        <ele>316</ele>
        <time>2011-08-16T14:32:30Z</time>
      </trkpt>
      <trkpt lat="47.2049" lon="5.6844">
        <ele>308</ele>
        <time>2011-08-16T14:32:31Z</time>
      </trkpt>
      <trkpt lat="47.20494" lon="5.68427">
        <ele>308</ele>
        <time>2011-08-16T14:32:32Z</time>
      </trkpt>
      <trkpt lat="47.20498" lon="5.68414">
        <ele>308</ele>
        <time>2011-08-16T14:32:33Z</time>
      </trkpt>
      <trkpt lat="47.20503" lon="5.68403">
        <ele>301</ele>
        <time>2011-08-16T14:32:34Z</time>
      </trkpt>
      <trkpt lat="47.20509" lon="5.6838">
        <ele>301</ele>
        <time>2011-08-16T14:32:36Z</time>
      </trkpt>
      <trkpt lat="47.20515" lon="5.68356">
        <ele>294</ele>
        <time>2011-08-16T14:32:38Z</time>
      </trkpt>
      <trkpt lat="47.2052" lon="5.68333">
        <ele>294</ele>
        <time>2011-08-16T14:32:40Z</time>
      </trkpt>
      <trkpt lat="47.20525" lon="5.68311">
        <ele>294</ele>
        <time>2011-08-16T14:32:42Z</time>
      </trkpt>
      <trkpt lat="47.20529" lon="5.68292">
        <ele>288</ele>
        <time>2011-08-16T14:32:44Z</time>
      </trkpt>
      <trkpt lat="47.20534" lon="5.68274">
        <ele>288</ele>
        <time>2011-08-16T14:32:46Z</time>
      </trkpt>
      <trkpt lat="47.20538" lon="5.68256">
        <ele>288</ele>
        <time>2011-08-16T14:32:48Z</time>
      </trkpt>
      <trkpt lat="47.20542" lon="5.68242">
        <ele>283</ele>
        <time>2011-08-16T14:32:50Z</time>
      </trkpt>
      <trkpt lat="47.2055" lon="5.68227">
        <ele>283</ele>
        <time>2011-08-16T14:32:53Z</time>
      </trkpt>
      <trkpt lat="47.20555" lon="5.68214">
        <ele>283</ele>
        <time>2011-08-16T14:32:55Z</time>
      </trkpt>
      <trkpt lat="47.20555" lon="5.68199">
        <ele>283</ele>
        <time>2011-08-16T14:32:57Z</time>
      </trkpt>
      <trkpt lat="47.20556" lon="5.68182">
        <ele>283</ele>
        <time>2011-08-16T14:32:59Z</time>
      </trkpt>
      <trkpt lat="47.2056" lon="5.68161">
        <ele>283</ele>
        <time>2011-08-16T14:33:01Z</time>
      </trkpt>
      <trkpt lat="47.20564" lon="5.68136">
        <ele>283</ele>
        <time>2011-08-16T14:33:03Z</time>
      </trkpt>
      <trkpt lat="47.20567" lon="5.68122">
        <ele>283</ele>
        <time>2011-08-16T14:33:04Z</time>
      </trkpt>
      <trkpt lat="47.20569" lon="5.68109">
        <ele>283</ele>
        <time>2011-08-16T14:33:05Z</time>
      </trkpt>
      <trkpt lat="47.20571" lon="5.68094">
        <ele>283</ele>
        <time>2011-08-16T14:33:06Z</time>
      </trkpt>
      <trkpt lat="47.20573" lon="5.68078">
        <ele>283</ele>
        <time>2011-08-16T14:33:07Z</time>
      </trkpt>
      <trkpt lat="47.20576" lon="5.68062">
        <ele>283</ele>
        <time>2011-08-16T14:33:08Z</time>
      </trkpt>
      <trkpt lat="47.20579" lon="5.68047">
        <ele>277</ele>
        <time>2011-08-16T14:33:09Z</time>
      </trkpt>
      <trkpt lat="47.20582" lon="5.68031">
        <ele>277</ele>
        <time>2011-08-16T14:33:10Z</time>
      </trkpt>
      <trkpt lat="47.20586" lon="5.68016">
        <ele>277</ele>
        <time>2011-08-16T14:33:11Z</time>
      </trkpt>
      <trkpt lat="47.20591" lon="5.68001">
        <ele>277</ele>
        <time>2011-08-16T14:33:12Z</time>
      </trkpt>
      <trkpt lat="47.20597" lon="5.6799">
        <ele>271</ele>
        <time>2011-08-16T14:33:13Z</time>
      </trkpt>
      <trkpt lat="47.20604" lon="5.67981">
        <ele>271</ele>
        <time>2011-08-16T14:33:14Z</time>
      </trkpt>
      <trkpt lat="47.20612" lon="5.67974">
        <ele>271</ele>
        <time>2011-08-16T14:33:15Z</time>
      </trkpt>
      <trkpt lat="47.20621" lon="5.67972">
        <ele>271</ele>
        <time>2011-08-16T14:33:16Z</time>
      </trkpt>
      <trkpt lat="47.20631" lon="5.67972">
        <ele>271</ele>
        <time>2011-08-16T14:33:17Z</time>
      </trkpt>
      <trkpt lat="47.2064" lon="5.67972">
        <ele>265</ele>
        <time>2011-08-16T14:33:18Z</time>
      </trkpt>
      <trkpt lat="47.20649" lon="5.67967">
        <ele>265</ele>
        <time>2011-08-16T14:33:19Z</time>
      </trkpt>
      <trkpt lat="47.20659" lon="5.67961">
        <ele>265</ele>
        <time>2011-08-16T14:33:20Z</time>
      </trkpt>
      <trkpt lat="47.20667" lon="5.67953">
        <ele>265</ele>
        <time>2011-08-16T14:33:21Z</time>
      </trkpt>
      <trkpt lat="47.20676" lon="5.67944">
        <ele>265</ele>
        <time>2011-08-16T14:33:22Z</time>
      </trkpt>
      <trkpt lat="47.20684" lon="5.67936">
        <ele>259</ele>
        <time>2011-08-16T14:33:23Z</time>
      </trkpt>
      <trkpt lat="47.20692" lon="5.67926">
        <ele>259</ele>
        <time>2011-08-16T14:33:24Z</time>
      </trkpt>
      <trkpt lat="47.20698" lon="5.67915">
        <ele>259</ele>
        <time>2011-08-16T14:33:25Z</time>
      </trkpt>
      <trkpt lat="47.20703" lon="5.67902">
        <ele>259</ele>
        <time>2011-08-16T14:33:26Z</time>
      </trkpt>
      <trkpt lat="47.20705" lon="5.67889">
        <ele>259</ele>
        <time>2011-08-16T14:33:27Z</time>
      </trkpt>
      <trkpt lat="47.20705" lon="5.67874">
        <ele>259</ele>
        <time>2011-08-16T14:33:28Z</time>
      </trkpt>
      <trkpt lat="47.20702" lon="5.67858">
        <ele>253</ele>
        <time>2011-08-16T14:33:29Z</time>
      </trkpt>
      <trkpt lat="47.20699" lon="5.67843">
        <ele>253</ele>
        <time>2011-08-16T14:33:30Z</time>
      </trkpt>
      <trkpt lat="47.20696" lon="5.67827">
        <ele>253</ele>
        <time>2011-08-16T14:33:31Z</time>
      </trkpt>
      <trkpt lat="47.20692" lon="5.67811">
        <ele>253</ele>
        <time>2011-08-16T14:33:32Z</time>
      </trkpt>
      <trkpt lat="47.20689" lon="5.67794">
        <ele>253</ele>
        <time>2011-08-16T14:33:33Z</time>
      </trkpt>
      <trkpt lat="47.20686" lon="5.67778">
        <ele>253</ele>
        <time>2011-08-16T14:33:34Z</time>
      </trkpt>
      <trkpt lat="47.20684" lon="5.6776">
        <ele>248</ele>
        <time>2011-08-16T14:33:35Z</time>
      </trkpt>
      <trkpt lat="47.20682" lon="5.67742">
        <ele>248</ele>
        <time>2011-08-16T14:33:36Z</time>
      </trkpt>
      <trkpt lat="47.20681" lon="5.67726">
        <ele>248</ele>
        <time>2011-08-16T14:33:37Z</time>
      </trkpt>
      <trkpt lat="47.20681" lon="5.6771">
        <ele>248</ele>
        <time>2011-08-16T14:33:38Z</time>
      </trkpt>
      <trkpt lat="47.20684" lon="5.67695">
        <ele>248</ele>
        <time>2011-08-16T14:33:39Z</time>
      </trkpt>
      <trkpt lat="47.2069" lon="5.67681">
        <ele>248</ele>
        <time>2011-08-16T14:33:40Z</time>
      </trkpt>
      <trkpt lat="47.20697" lon="5.67668">
        <ele>248</ele>
        <time>2011-08-16T14:33:41Z</time>
      </trkpt>
      <trkpt lat="47.20705" lon="5.67658">
        <ele>248</ele>
        <time>2011-08-16T14:33:42Z</time>
      </trkpt>
      <trkpt lat="47.20714" lon="5.6765">
        <ele>243</ele>
        <time>2011-08-16T14:33:43Z</time>
      </trkpt>
      <trkpt lat="47.20725" lon="5.67644">
        <ele>243</ele>
        <time>2011-08-16T14:33:44Z</time>
      </trkpt>
      <trkpt lat="47.20735" lon="5.67639">
        <ele>243</ele>
        <time>2011-08-16T14:33:45Z</time>
      </trkpt>
      <trkpt lat="47.20745" lon="5.67636">
        <ele>243</ele>
        <time>2011-08-16T14:33:46Z</time>
      </trkpt>
      <trkpt lat="47.20755" lon="5.67631">
        <ele>243</ele>
        <time>2011-08-16T14:33:47Z</time>
      </trkpt>
      <trkpt lat="47.20765" lon="5.67628">
        <ele>243</ele>
        <time>2011-08-16T14:33:48Z</time>
      </trkpt>
      <trkpt lat="47.20774" lon="5.67624">
        <ele>243</ele>
        <time>2011-08-16T14:33:49Z</time>
      </trkpt>
      <trkpt lat="47.20792" lon="5.67618">
        <ele>243</ele>
        <time>2011-08-16T14:33:51Z</time>
      </trkpt>
      <trkpt lat="47.20801" lon="5.67615">
        <ele>243</ele>
        <time>2011-08-16T14:33:52Z</time>
      </trkpt>
      <trkpt lat="47.20809" lon="5.67611">
        <ele>243</ele>
        <time>2011-08-16T14:33:53Z</time>
      </trkpt>
      <trkpt lat="47.20826" lon="5.67606">
        <ele>243</ele>
        <time>2011-08-16T14:33:55Z</time>
      </trkpt>
      <trkpt lat="47.20841" lon="5.67598">
        <ele>243</ele>
        <time>2011-08-16T14:33:57Z</time>
      </trkpt>
      <trkpt lat="47.20854" lon="5.67584">
        <ele>243</ele>
        <time>2011-08-16T14:33:59Z</time>
      </trkpt>
      <trkpt lat="47.20863" lon="5.67565">
        <ele>243</ele>
        <time>2011-08-16T14:34:01Z</time>
      </trkpt>
      <trkpt lat="47.20866" lon="5.67541">
        <ele>237</ele>
        <time>2011-08-16T14:34:03Z</time>
      </trkpt>
      <trkpt lat="47.20867" lon="5.67518">
        <ele>237</ele>
        <time>2011-08-16T14:34:05Z</time>
      </trkpt>
      <trkpt lat="47.20869" lon="5.67495">
        <ele>237</ele>
        <time>2011-08-16T14:34:07Z</time>
      </trkpt>
      <trkpt lat="47.20869" lon="5.67475">
        <ele>237</ele>
        <time>2011-08-16T14:34:09Z</time>
      </trkpt>
      <trkpt lat="47.20871" lon="5.67454">
        <ele>237</ele>
        <time>2011-08-16T14:34:11Z</time>
      </trkpt>
      <trkpt lat="47.20874" lon="5.67434">
        <ele>237</ele>
        <time>2011-08-16T14:34:13Z</time>
      </trkpt>
      <trkpt lat="47.20879" lon="5.67417">
        <ele>237</ele>
        <time>2011-08-16T14:34:15Z</time>
      </trkpt>
      <trkpt lat="47.20886" lon="5.67405">
        <ele>237</ele>
        <time>2011-08-16T14:34:17Z</time>
      </trkpt>
      <trkpt lat="47.20894" lon="5.67397">
        <ele>237</ele>
        <time>2011-08-16T14:34:19Z</time>
      </trkpt>
      <trkpt lat="47.20905" lon="5.67387">
        <ele>237</ele>
        <time>2011-08-16T14:34:22Z</time>
      </trkpt>
      <trkpt lat="47.20913" lon="5.67378">
        <ele>237</ele>
        <time>2011-08-16T14:34:25Z</time>
      </trkpt>
      <trkpt lat="47.2092" lon="5.67368">
        <ele>243</ele>
        <time>2011-08-16T14:34:28Z</time>
      </trkpt>
      <trkpt lat="47.20925" lon="5.67355">
        <ele>243</ele>
        <time>2011-08-16T14:34:31Z</time>
      </trkpt>
      <trkpt lat="47.20926" lon="5.6734">
        <ele>243</ele>
        <time>2011-08-16T14:34:34Z</time>
      </trkpt>
      <trkpt lat="47.20927" lon="5.67326">
        <ele>243</ele>
        <time>2011-08-16T14:34:37Z</time>
      </trkpt>
      <trkpt lat="47.20927" lon="5.67311">
        <ele>243</ele>
        <time>2011-08-16T14:34:40Z</time>
      </trkpt>
      <trkpt lat="47.20926" lon="5.67296">
        <ele>243</ele>
        <time>2011-08-16T14:34:43Z</time>
      </trkpt>
      <trkpt lat="47.20925" lon="5.67281">
        <ele>248</ele>
        <time>2011-08-16T14:34:46Z</time>
      </trkpt>
      <trkpt lat="47.20925" lon="5.67267">
        <ele>248</ele>
        <time>2011-08-16T14:34:49Z</time>
      </trkpt>
      <trkpt lat="47.20924" lon="5.67253">
        <ele>248</ele>
        <time>2011-08-16T14:34:52Z</time>
      </trkpt>
      <trkpt lat="47.20924" lon="5.67239">
        <ele>248</ele>
        <time>2011-08-16T14:34:55Z</time>
      </trkpt>
      <trkpt lat="47.20924" lon="5.67224">
        <ele>248</ele>
        <time>2011-08-16T14:34:58Z</time>
      </trkpt>
      <trkpt lat="47.20924" lon="5.6721">
        <ele>248</ele>
        <time>2011-08-16T14:35:01Z</time>
      </trkpt>
      <trkpt lat="47.20926" lon="5.67195">
        <ele>248</ele>
        <time>2011-08-16T14:35:04Z</time>
      </trkpt>
      <trkpt lat="47.20928" lon="5.6718">
        <ele>248</ele>
        <time>2011-08-16T14:35:07Z</time>
      </trkpt>
      <trkpt lat="47.20931" lon="5.67166">
        <ele>248</ele>
        <time>2011-08-16T14:35:10Z</time>
      </trkpt>
      <trkpt lat="47.20935" lon="5.67152">
        <ele>254</ele>
        <time>2011-08-16T14:35:13Z</time>
      </trkpt>
      <trkpt lat="47.20939" lon="5.67139">
        <ele>254</ele>
        <time>2011-08-16T14:35:16Z</time>
      </trkpt>
      <trkpt lat="47.20943" lon="5.67126">
        <ele>254</ele>
        <time>2011-08-16T14:35:19Z</time>
      </trkpt>
      <trkpt lat="47.20947" lon="5.67113">
        <ele>254</ele>
        <time>2011-08-16T14:35:22Z</time>
      </trkpt>
      <trkpt lat="47.20951" lon="5.67099">
        <ele>254</ele>
        <time>2011-08-16T14:35:25Z</time>
      </trkpt>
      <trkpt lat="47.20955" lon="5.67087">
        <ele>254</ele>
        <time>2011-08-16T14:35:28Z</time>
      </trkpt>
      <trkpt lat="47.20958" lon="5.67073">
        <ele>254</ele>
        <time>2011-08-16T14:35:31Z</time>
      </trkpt>
      <trkpt lat="47.2096" lon="5.6706">
        <ele>259</ele>
        <time>2011-08-16T14:35:34Z</time>
      </trkpt>
      <trkpt lat="47.20962" lon="5.67046">
        <ele>259</ele>
        <time>2011-08-16T14:35:37Z</time>
      </trkpt>
      <trkpt lat="47.20962" lon="5.67032">
        <ele>259</ele>
        <time>2011-08-16T14:35:40Z</time>
      </trkpt>
      <trkpt lat="47.20961" lon="5.67018">
        <ele>259</ele>
        <time>2011-08-16T14:35:43Z</time>
      </trkpt>
      <trkpt lat="47.2096" lon="5.67004">
        <ele>259</ele>
        <time>2011-08-16T14:35:46Z</time>
      </trkpt>
      <trkpt lat="47.20957" lon="5.66991">
        <ele>259</ele>
        <time>2011-08-16T14:35:49Z</time>
      </trkpt>
      <trkpt lat="47.20956" lon="5.66977">
        <ele>264</ele>
        <time>2011-08-16T14:35:52Z</time>
      </trkpt>
      <trkpt lat="47.20954" lon="5.66963">
        <ele>264</ele>
        <time>2011-08-16T14:35:55Z</time>
      </trkpt>
      <trkpt lat="47.20953" lon="5.66949">
        <ele>264</ele>
        <time>2011-08-16T14:35:58Z</time>
      </trkpt>
      <trkpt lat="47.20951" lon="5.66936">
        <ele>264</ele>
        <time>2011-08-16T14:36:01Z</time>
      </trkpt>
      <trkpt lat="47.20949" lon="5.66921">
        <ele>264</ele>
        <time>2011-08-16T14:36:04Z</time>
      </trkpt>
      <trkpt lat="47.20947" lon="5.66908">
        <ele>264</ele>
        <time>2011-08-16T14:36:07Z</time>
      </trkpt>
      <trkpt lat="47.20945" lon="5.66894">
        <ele>264</ele>
        <time>2011-08-16T14:36:10Z</time>
      </trkpt>
      <trkpt lat="47.20943" lon="5.66878">
        <ele>264</ele>
        <time>2011-08-16T14:36:13Z</time>
      </trkpt>
      <trkpt lat="47.20941" lon="5.66861">
        <ele>264</ele>
        <time>2011-08-16T14:36:16Z</time>
      </trkpt>
      <trkpt lat="47.2094" lon="5.66843">
        <ele>264</ele>
        <time>2011-08-16T14:36:19Z</time>
      </trkpt>
      <trkpt lat="47.2094" lon="5.6683">
        <ele>264</ele>
        <time>2011-08-16T14:36:21Z</time>
      </trkpt>
      <trkpt lat="47.20941" lon="5.6681">
        <ele>264</ele>
        <time>2011-08-16T14:36:24Z</time>
      </trkpt>
      <trkpt lat="47.20943" lon="5.66797">
        <ele>264</ele>
        <time>2011-08-16T14:36:26Z</time>
      </trkpt>
      <trkpt lat="47.20945" lon="5.66783">
        <ele>269</ele>
        <time>2011-08-16T14:36:28Z</time>
      </trkpt>
      <trkpt lat="47.20948" lon="5.6677">
        <ele>269</ele>
        <time>2011-08-16T14:36:30Z</time>
      </trkpt>
      <trkpt lat="47.20951" lon="5.66757">
        <ele>269</ele>
        <time>2011-08-16T14:36:32Z</time>
      </trkpt>
      <trkpt lat="47.20955" lon="5.66744">
        <ele>269</ele>
        <time>2011-08-16T14:36:34Z</time>
      </trkpt>
      <trkpt lat="47.20959" lon="5.66733">
        <ele>269</ele>
        <time>2011-08-16T14:36:36Z</time>
      </trkpt>
      <trkpt lat="47.20964" lon="5.6672">
        <ele>269</ele>
        <time>2011-08-16T14:36:38Z</time>
      </trkpt>
      <trkpt lat="47.20971" lon="5.66703">
        <ele>269</ele>
        <time>2011-08-16T14:36:41Z</time>
      </trkpt>
      <trkpt lat="47.20979" lon="5.66687">
        <ele>274</ele>
        <time>2011-08-16T14:36:44Z</time>
      </trkpt>
      <trkpt lat="47.20984" lon="5.66676">
        <ele>274</ele>
        <time>2011-08-16T14:36:46Z</time>
      </trkpt>
      <trkpt lat="47.2099" lon="5.66665">
        <ele>274</ele>
        <time>2011-08-16T14:36:48Z</time>
      </trkpt>
      <trkpt lat="47.20995" lon="5.66654">
        <ele>274</ele>
        <time>2011-08-16T14:36:50Z</time>
      </trkpt>
      <trkpt lat="47.21" lon="5.66642">
        <ele>274</ele>
        <time>2011-08-16T14:36:52Z</time>
      </trkpt>
      <trkpt lat="47.21005" lon="5.6663">
        <ele>274</ele>
        <time>2011-08-16T14:36:54Z</time>
      </trkpt>
      <trkpt lat="47.21011" lon="5.66619">
        <ele>279</ele>
        <time>2011-08-16T14:36:56Z</time>
      </trkpt>
      <trkpt lat="47.21016" lon="5.66607">
        <ele>279</ele>
        <time>2011-08-16T14:36:58Z</time>
      </trkpt>
      <trkpt lat="47.21022" lon="5.66595">
        <ele>279</ele>
        <time>2011-08-16T14:37:00Z</time>
      </trkpt>
      <trkpt lat="47.21028" lon="5.66583">
        <ele>279</ele>
        <time>2011-08-16T14:37:02Z</time>
      </trkpt>
      <trkpt lat="47.21033" lon="5.6657">
        <ele>279</ele>
        <time>2011-08-16T14:37:04Z</time>
      </trkpt>
      <trkpt lat="47.21039" lon="5.66558">
        <ele>279</ele>
        <time>2011-08-16T14:37:06Z</time>
      </trkpt>
      <trkpt lat="47.21044" lon="5.66545">
        <ele>279</ele>
        <time>2011-08-16T14:37:08Z</time>
      </trkpt>
      <trkpt lat="47.2105" lon="5.66533">
        <ele>279</ele>
        <time>2011-08-16T14:37:10Z</time>
      </trkpt>
      <trkpt lat="47.21055" lon="5.66521">
        <ele>279</ele>
        <time>2011-08-16T14:37:12Z</time>
      </trkpt>
      <trkpt lat="47.2106" lon="5.66509">
        <ele>279</ele>
        <time>2011-08-16T14:37:14Z</time>
      </trkpt>
      <trkpt lat="47.21066" lon="5.66497">
        <ele>279</ele>
        <time>2011-08-16T14:37:16Z</time>
      </trkpt>
      <trkpt lat="47.21072" lon="5.66485">
        <ele>279</ele>
        <time>2011-08-16T14:37:18Z</time>
      </trkpt>
      <trkpt lat="47.21079" lon="5.66472">
        <ele>285</ele>
        <time>2011-08-16T14:37:20Z</time>
      </trkpt>
      <trkpt lat="47.21085" lon="5.66459">
        <ele>285</ele>
        <time>2011-08-16T14:37:22Z</time>
      </trkpt>
      <trkpt lat="47.21091" lon="5.66444">
        <ele>285</ele>
        <time>2011-08-16T14:37:24Z</time>
      </trkpt>
      <trkpt lat="47.21098" lon="5.66429">
        <ele>285</ele>
        <time>2011-08-16T14:37:26Z</time>
      </trkpt>
      <trkpt lat="47.21106" lon="5.66413">
        <ele>285</ele>
        <time>2011-08-16T14:37:28Z</time>
      </trkpt>
      <trkpt lat="47.21113" lon="5.66396">
        <ele>285</ele>
        <time>2011-08-16T14:37:30Z</time>
      </trkpt>
      <trkpt lat="47.21121" lon="5.66378">
        <ele>285</ele>
        <time>2011-08-16T14:37:32Z</time>
      </trkpt>
      <trkpt lat="47.2113" lon="5.66359">
        <ele>285</ele>
        <time>2011-08-16T14:37:34Z</time>
      </trkpt>
      <trkpt lat="47.21139" lon="5.66339">
        <ele>279</ele>
        <time>2011-08-16T14:37:36Z</time>
      </trkpt>
      <trkpt lat="47.21149" lon="5.66319">
        <ele>279</ele>
        <time>2011-08-16T14:37:38Z</time>
      </trkpt>
      <trkpt lat="47.21159" lon="5.66298">
        <ele>279</ele>
        <time>2011-08-16T14:37:40Z</time>
      </trkpt>
      <trkpt lat="47.21164" lon="5.66286">
        <ele>279</ele>
        <time>2011-08-16T14:37:41Z</time>
      </trkpt>
      <trkpt lat="47.21174" lon="5.66265">
        <ele>273</ele>
        <time>2011-08-16T14:37:43Z</time>
      </trkpt>
      <trkpt lat="47.21184" lon="5.66243">
        <ele>273</ele>
        <time>2011-08-16T14:37:45Z</time>
      </trkpt>
      <trkpt lat="47.21194" lon="5.66223">
        <ele>273</ele>
        <time>2011-08-16T14:37:47Z</time>
      </trkpt>
      <trkpt lat="47.21203" lon="5.66203">
        <ele>273</ele>
        <time>2011-08-16T14:37:49Z</time>
      </trkpt>
      <trkpt lat="47.21212" lon="5.66185">
        <ele>273</ele>
        <time>2011-08-16T14:37:51Z</time>
      </trkpt>
      <trkpt lat="47.21221" lon="5.66168">
        <ele>273</ele>
        <time>2011-08-16T14:37:53Z</time>
      </trkpt>
      <trkpt lat="47.21228" lon="5.66151">
        <ele>273</ele>
        <time>2011-08-16T14:37:55Z</time>
      </trkpt>
      <trkpt lat="47.21235" lon="5.66135">
        <ele>273</ele>
        <time>2011-08-16T14:37:57Z</time>
      </trkpt>
      <trkpt lat="47.21241" lon="5.6612">
        <ele>273</ele>
        <time>2011-08-16T14:37:59Z</time>
      </trkpt>
      <trkpt lat="47.21249" lon="5.66106">
        <ele>278</ele>
        <time>2011-08-16T14:38:01Z</time>
      </trkpt>
      <trkpt lat="47.21256" lon="5.6609">
        <ele>278</ele>
        <time>2011-08-16T14:38:03Z</time>
      </trkpt>
      <trkpt lat="47.21263" lon="5.66074">
        <ele>278</ele>
        <time>2011-08-16T14:38:05Z</time>
      </trkpt>
      <trkpt lat="47.2127" lon="5.6606">
        <ele>278</ele>
        <time>2011-08-16T14:38:07Z</time>
      </trkpt>
      <trkpt lat="47.21277" lon="5.66045">
        <ele>278</ele>
        <time>2011-08-16T14:38:09Z</time>
      </trkpt>
      <trkpt lat="47.21284" lon="5.66029">
        <ele>278</ele>
        <time>2011-08-16T14:38:11Z</time>
      </trkpt>
      <trkpt lat="47.2129" lon="5.66014">
        <ele>278</ele>
        <time>2011-08-16T14:38:13Z</time>
      </trkpt>
      <trkpt lat="47.21297" lon="5.66">
        <ele>278</ele>
        <time>2011-08-16T14:38:15Z</time>
      </trkpt>
      <trkpt lat="47.21303" lon="5.65984">
        <ele>278</ele>
        <time>2011-08-16T14:38:17Z</time>
      </trkpt>
      <trkpt lat="47.2131" lon="5.65968">
        <ele>284</ele>
        <time>2011-08-16T14:38:19Z</time>
      </trkpt>
      <trkpt lat="47.21318" lon="5.65951">
        <ele>284</ele>
        <time>2011-08-16T14:38:21Z</time>
      </trkpt>
      <trkpt lat="47.21327" lon="5.65934">
        <ele>284</ele>
        <time>2011-08-16T14:38:23Z</time>
      </trkpt>
      <trkpt lat="47.21336" lon="5.65915">
        <ele>277</ele>
        <time>2011-08-16T14:38:25Z</time>
      </trkpt>
      <trkpt lat="47.21345" lon="5.65896">
        <ele>277</ele>
        <time>2011-08-16T14:38:27Z</time>
      </trkpt>
      <trkpt lat="47.21354" lon="5.65877">
        <ele>277</ele>
        <time>2011-08-16T14:38:29Z</time>
      </trkpt>
      <trkpt lat="47.21364" lon="5.65855">
        <ele>271</ele>
        <time>2011-08-16T14:38:31Z</time>
      </trkpt>
      <trkpt lat="47.21374" lon="5.65834">
        <ele>271</ele>
        <time>2011-08-16T14:38:33Z</time>
      </trkpt>
      <trkpt lat="47.21379" lon="5.65824">
        <ele>271</ele>
        <time>2011-08-16T14:38:34Z</time>
      </trkpt>
      <trkpt lat="47.21388" lon="5.65802">
        <ele>271</ele>
        <time>2011-08-16T14:38:36Z</time>
      </trkpt>
      <trkpt lat="47.21398" lon="5.65781">
        <ele>271</ele>
        <time>2011-08-16T14:38:38Z</time>
      </trkpt>
      <trkpt lat="47.21408" lon="5.6576">
        <ele>271</ele>
        <time>2011-08-16T14:38:40Z</time>
      </trkpt>
      <trkpt lat="47.21417" lon="5.65738">
        <ele>271</ele>
        <time>2011-08-16T14:38:42Z</time>
      </trkpt>
      <trkpt lat="47.21423" lon="5.65728">
        <ele>271</ele>
        <time>2011-08-16T14:38:43Z</time>
      </trkpt>
      <trkpt lat="47.21428" lon="5.65716">
        <ele>271</ele>
        <time>2011-08-16T14:38:44Z</time>
      </trkpt>
      <trkpt lat="47.21437" lon="5.65695">
        <ele>271</ele>
        <time>2011-08-16T14:38:46Z</time>
      </trkpt>
      <trkpt lat="47.21446" lon="5.65675">
        <ele>271</ele>
        <time>2011-08-16T14:38:48Z</time>
      </trkpt>
      <trkpt lat="47.21455" lon="5.65655">
        <ele>271</ele>
        <time>2011-08-16T14:38:50Z</time>
      </trkpt>
      <trkpt lat="47.21464" lon="5.65635">
        <ele>271</ele>
        <time>2011-08-16T14:38:52Z</time>
      </trkpt>
      <trkpt lat="47.21472" lon="5.65615">
        <ele>271</ele>
        <time>2011-08-16T14:38:54Z</time>
      </trkpt>
      <trkpt lat="47.21481" lon="5.65595">
        <ele>271</ele>
        <time>2011-08-16T14:38:56Z</time>
      </trkpt>
      <trkpt lat="47.21491" lon="5.65573">
        <ele>271</ele>
        <time>2011-08-16T14:38:58Z</time>
      </trkpt>
      <trkpt lat="47.21501" lon="5.65552">
        <ele>271</ele>
        <time>2011-08-16T14:39:00Z</time>
      </trkpt>
      <trkpt lat="47.21511" lon="5.65532">
        <ele>271</ele>
        <time>2011-08-16T14:39:02Z</time>
      </trkpt>
      <trkpt lat="47.21519" lon="5.65511">
        <ele>266</ele>
        <time>2011-08-16T14:39:04Z</time>
      </trkpt>
      <trkpt lat="47.21528" lon="5.6549">
        <ele>266</ele>
        <time>2011-08-16T14:39:06Z</time>
      </trkpt>
      <trkpt lat="47.21538" lon="5.65469">
        <ele>266</ele>
        <time>2011-08-16T14:39:08Z</time>
      </trkpt>
      <trkpt lat="47.21547" lon="5.65449">
        <ele>266</ele>
        <time>2011-08-16T14:39:10Z</time>
      </trkpt>
      <trkpt lat="47.21555" lon="5.65428">
        <ele>266</ele>
        <time>2011-08-16T14:39:12Z</time>
      </trkpt>
      <trkpt lat="47.21565" lon="5.65408">
        <ele>266</ele>
        <time>2011-08-16T14:39:14Z</time>
      </trkpt>
      <trkpt lat="47.21574" lon="5.65387">
        <ele>266</ele>
        <time>2011-08-16T14:39:16Z</time>
      </trkpt>
      <trkpt lat="47.21579" lon="5.65375">
        <ele>266</ele>
        <time>2011-08-16T14:39:17Z</time>
      </trkpt>
      <trkpt lat="47.21589" lon="5.65353">
        <ele>260</ele>
        <time>2011-08-16T14:39:19Z</time>
      </trkpt>
      <trkpt lat="47.21594" lon="5.65341">
        <ele>260</ele>
        <time>2011-08-16T14:39:20Z</time>
      </trkpt>
      <trkpt lat="47.21599" lon="5.6533">
        <ele>260</ele>
        <time>2011-08-16T14:39:21Z</time>
      </trkpt>
      <trkpt lat="47.21604" lon="5.65317">
        <ele>260</ele>
        <time>2011-08-16T14:39:22Z</time>
      </trkpt>
      <trkpt lat="47.21609" lon="5.65304">
        <ele>260</ele>
        <time>2011-08-16T14:39:23Z</time>
      </trkpt>
      <trkpt lat="47.21614" lon="5.65292">
        <ele>260</ele>
        <time>2011-08-16T14:39:24Z</time>
      </trkpt>
      <trkpt lat="47.21619" lon="5.65279">
        <ele>260</ele>
        <time>2011-08-16T14:39:25Z</time>
      </trkpt>
      <trkpt lat="47.21623" lon="5.65266">
        <ele>260</ele>
        <time>2011-08-16T14:39:26Z</time>
      </trkpt>
      <trkpt lat="47.21626" lon="5.65251">
        <ele>260</ele>
        <time>2011-08-16T14:39:27Z</time>
      </trkpt>
      <trkpt lat="47.21629" lon="5.65237">
        <ele>260</ele>
        <time>2011-08-16T14:39:28Z</time>
      </trkpt>
      <trkpt lat="47.21631" lon="5.65223">
        <ele>260</ele>
        <time>2011-08-16T14:39:29Z</time>
      </trkpt>
      <trkpt lat="47.21632" lon="5.65207">
        <ele>260</ele>
        <time>2011-08-16T14:39:30Z</time>
      </trkpt>
      <trkpt lat="47.21633" lon="5.65192">
        <ele>260</ele>
        <time>2011-08-16T14:39:31Z</time>
      </trkpt>
      <trkpt lat="47.21631" lon="5.65177">
        <ele>260</ele>
        <time>2011-08-16T14:39:32Z</time>
      </trkpt>
      <trkpt lat="47.21629" lon="5.65162">
        <ele>255</ele>
        <time>2011-08-16T14:39:33Z</time>
      </trkpt>
      <trkpt lat="47.21626" lon="5.65147">
        <ele>255</ele>
        <time>2011-08-16T14:39:34Z</time>
      </trkpt>
      <trkpt lat="47.21622" lon="5.65133">
        <ele>255</ele>
        <time>2011-08-16T14:39:35Z</time>
      </trkpt>
      <trkpt lat="47.21618" lon="5.65119">
        <ele>255</ele>
        <time>2011-08-16T14:39:36Z</time>
      </trkpt>
      <trkpt lat="47.21613" lon="5.65104">
        <ele>255</ele>
        <time>2011-08-16T14:39:37Z</time>
      </trkpt>
      <trkpt lat="47.21609" lon="5.6509">
        <ele>255</ele>
        <time>2011-08-16T14:39:38Z</time>
      </trkpt>
      <trkpt lat="47.21605" lon="5.65074">
        <ele>255</ele>
        <time>2011-08-16T14:39:39Z</time>
      </trkpt>
      <trkpt lat="47.21601" lon="5.65059">
        <ele>255</ele>
        <time>2011-08-16T14:39:40Z</time>
      </trkpt>
      <trkpt lat="47.21599" lon="5.65044">
        <ele>255</ele>
        <time>2011-08-16T14:39:41Z</time>
      </trkpt>
      <trkpt lat="47.21597" lon="5.65028">
        <ele>255</ele>
        <time>2011-08-16T14:39:42Z</time>
      </trkpt>
      <trkpt lat="47.21596" lon="5.65013">
        <ele>255</ele>
        <time>2011-08-16T14:39:43Z</time>
      </trkpt>
      <trkpt lat="47.21598" lon="5.64997">
        <ele>255</ele>
        <time>2011-08-16T14:39:44Z</time>
      </trkpt>
      <trkpt lat="47.21599" lon="5.64981">
        <ele>250</ele>
        <time>2011-08-16T14:39:45Z</time>
      </trkpt>
      <trkpt lat="47.21602" lon="5.64966">
        <ele>250</ele>
        <time>2011-08-16T14:39:46Z</time>
      </trkpt>
      <trkpt lat="47.21605" lon="5.64951">
        <ele>250</ele>
        <time>2011-08-16T14:39:47Z</time>
      </trkpt>
      <trkpt lat="47.21609" lon="5.64937">
        <ele>250</ele>
        <time>2011-08-16T14:39:48Z</time>
      </trkpt>
      <trkpt lat="47.21612" lon="5.64923">
        <ele>250</ele>
        <time>2011-08-16T14:39:49Z</time>
      </trkpt>
      <trkpt lat="47.21615" lon="5.64908">
        <ele>250</ele>
        <time>2011-08-16T14:39:50Z</time>
      </trkpt>
      <trkpt lat="47.21618" lon="5.64893">
        <ele>250</ele>
        <time>2011-08-16T14:39:51Z</time>
      </trkpt>
      <trkpt lat="47.2162" lon="5.64879">
        <ele>250</ele>
        <time>2011-08-16T14:39:52Z</time>
      </trkpt>
      <trkpt lat="47.21621" lon="5.64863">
        <ele>250</ele>
        <time>2011-08-16T14:39:53Z</time>
      </trkpt>
      <trkpt lat="47.21622" lon="5.64849">
        <ele>250</ele>
        <time>2011-08-16T14:39:54Z</time>
      </trkpt>
      <trkpt lat="47.21621" lon="5.64834">
        <ele>250</ele>
        <time>2011-08-16T14:39:55Z</time>
      </trkpt>
      <trkpt lat="47.21619" lon="5.64819">
        <ele>250</ele>
        <time>2011-08-16T14:39:56Z</time>
      </trkpt>
      <trkpt lat="47.21617" lon="5.64805">
        <ele>250</ele>
        <time>2011-08-16T14:39:57Z</time>
      </trkpt>
      <trkpt lat="47.21614" lon="5.64791">
        <ele>250</ele>
        <time>2011-08-16T14:39:58Z</time>
      </trkpt>
      <trkpt lat="47.21611" lon="5.64777">
        <ele>250</ele>
        <time>2011-08-16T14:39:59Z</time>
      </trkpt>
      <trkpt lat="47.21607" lon="5.64764">
        <ele>250</ele>
        <time>2011-08-16T14:40:00Z</time>
      </trkpt>
      <trkpt lat="47.21604" lon="5.6475">
        <ele>250</ele>
        <time>2011-08-16T14:40:01Z</time>
      </trkpt>
      <trkpt lat="47.21601" lon="5.64737">
        <ele>250</ele>
        <time>2011-08-16T14:40:02Z</time>
      </trkpt>
      <trkpt lat="47.21598" lon="5.64724">
        <ele>250</ele>
        <time>2011-08-16T14:40:03Z</time>
      </trkpt>
      <trkpt lat="47.21594" lon="5.64712">
        <ele>250</ele>
        <time>2011-08-16T14:40:04Z</time>
      </trkpt>
      <trkpt lat="47.21591" lon="5.64699">
        <ele>245</ele>
        <time>2011-08-16T14:40:05Z</time>
      </trkpt>
      <trkpt lat="47.21587" lon="5.64686">
        <ele>245</ele>
        <time>2011-08-16T14:40:06Z</time>
      </trkpt>
      <trkpt lat="47.21584" lon="5.64674">
        <ele>245</ele>
        <time>2011-08-16T14:40:07Z</time>
      </trkpt>
      <trkpt lat="47.21581" lon="5.64661">
        <ele>245</ele>
        <time>2011-08-16T14:40:08Z</time>
      </trkpt>
      <trkpt lat="47.21579" lon="5.64648">
        <ele>245</ele>
        <time>2011-08-16T14:40:09Z</time>
      </trkpt>
      <trkpt lat="47.21576" lon="5.64634">
        <ele>245</ele>
        <time>2011-08-16T14:40:10Z</time>
      </trkpt>
      <trkpt lat="47.21574" lon="5.64621">
        <ele>245</ele>
        <time>2011-08-16T14:40:11Z</time>
      </trkpt>
      <trkpt lat="47.21571" lon="5.64607">
        <ele>245</ele>
        <time>2011-08-16T14:40:12Z</time>
      </trkpt>
      <trkpt lat="47.21569" lon="5.64594">
        <ele>245</ele>
        <time>2011-08-16T14:40:13Z</time>
      </trkpt>
      <trkpt lat="47.21567" lon="5.6458">
        <ele>245</ele>
        <time>2011-08-16T14:40:14Z</time>
      </trkpt>
      <trkpt lat="47.21565" lon="5.64566">
        <ele>245</ele>
        <time>2011-08-16T14:40:15Z</time>
      </trkpt>
      <trkpt lat="47.21564" lon="5.64552">
        <ele>245</ele>
        <time>2011-08-16T14:40:16Z</time>
      </trkpt>
      <trkpt lat="47.21562" lon="5.64538">
        <ele>245</ele>
        <time>2011-08-16T14:40:17Z</time>
      </trkpt>
      <trkpt lat="47.2156" lon="5.64524">
        <ele>245</ele>
        <time>2011-08-16T14:40:18Z</time>
      </trkpt>
      <trkpt lat="47.21559" lon="5.64509">
        <ele>245</ele>
        <time>2011-08-16T14:40:19Z</time>
      </trkpt>
      <trkpt lat="47.21557" lon="5.64495">
        <ele>239</ele>
        <time>2011-08-16T14:40:20Z</time>
      </trkpt>
      <trkpt lat="47.21556" lon="5.64481">
        <ele>239</ele>
        <time>2011-08-16T14:40:21Z</time>
      </trkpt>
      <trkpt lat="47.21555" lon="5.64466">
        <ele>239</ele>
        <time>2011-08-16T14:40:22Z</time>
      </trkpt>
      <trkpt lat="47.21554" lon="5.64452">
        <ele>239</ele>
        <time>2011-08-16T14:40:23Z</time>
      </trkpt>
      <trkpt lat="47.21552" lon="5.64437">
        <ele>239</ele>
        <time>2011-08-16T14:40:24Z</time>
      </trkpt>
      <trkpt lat="47.21551" lon="5.64422">
        <ele>239</ele>
        <time>2011-08-16T14:40:25Z</time>
      </trkpt>
      <trkpt lat="47.21549" lon="5.64407">
        <ele>239</ele>
        <time>2011-08-16T14:40:26Z</time>
      </trkpt>
      <trkpt lat="47.21547" lon="5.64392">
        <ele>239</ele>
        <time>2011-08-16T14:40:27Z</time>
      </trkpt>
      <trkpt lat="47.21546" lon="5.64377">
        <ele>239</ele>
        <time>2011-08-16T14:40:28Z</time>
      </trkpt>
      <trkpt lat="47.21545" lon="5.64362">
        <ele>239</ele>
        <time>2011-08-16T14:40:29Z</time>
      </trkpt>
      <trkpt lat="47.21544" lon="5.64347">
        <ele>239</ele>
        <time>2011-08-16T14:40:30Z</time>
      </trkpt>
      <trkpt lat="47.21543" lon="5.64332">
        <ele>239</ele>
        <time>2011-08-16T14:40:31Z</time>
      </trkpt>
      <trkpt lat="47.21544" lon="5.64316">
        <ele>234</ele>
        <time>2011-08-16T14:40:32Z</time>
      </trkpt>
      <trkpt lat="47.21546" lon="5.64301">
        <ele>234</ele>
        <time>2011-08-16T14:40:33Z</time>
      </trkpt>
      <trkpt lat="47.21549" lon="5.64286">
        <ele>234</ele>
        <time>2011-08-16T14:40:34Z</time>
      </trkpt>
      <trkpt lat="47.21553" lon="5.64271">
        <ele>234</ele>
        <time>2011-08-16T14:40:35Z</time>
      </trkpt>
      <trkpt lat="47.21558" lon="5.64256">
        <ele>234</ele>
        <time>2011-08-16T14:40:36Z</time>
      </trkpt>
      <trkpt lat="47.21564" lon="5.64243">
        <ele>234</ele>
        <time>2011-08-16T14:40:37Z</time>
      </trkpt>
      <trkpt lat="47.21571" lon="5.6423">
        <ele>234</ele>
        <time>2011-08-16T14:40:38Z</time>
      </trkpt>
      <trkpt lat="47.21579" lon="5.64218">
        <ele>229</ele>
        <time>2011-08-16T14:40:39Z</time>
      </trkpt>
      <trkpt lat="47.21588" lon="5.64207">
        <ele>229</ele>
        <time>2011-08-16T14:40:40Z</time>
      </trkpt>
      <trkpt lat="47.21597" lon="5.64197">
        <ele>229</ele>
        <time>2011-08-16T14:40:41Z</time>
      </trkpt>
      <trkpt lat="47.21607" lon="5.64187">
        <ele>229</ele>
        <time>2011-08-16T14:40:42Z</time>
      </trkpt>
      <trkpt lat="47.21616" lon="5.64176">
        <ele>229</ele>
        <time>2011-08-16T14:40:43Z</time>
      </trkpt>
      <trkpt lat="47.21625" lon="5.64166">
        <ele>229</ele>
        <time>2011-08-16T14:40:44Z</time>
      </trkpt>
      <trkpt lat="47.21635" lon="5.64156">
        <ele>229</ele>
        <time>2011-08-16T14:40:45Z</time>
      </trkpt>
      <trkpt lat="47.21644" lon="5.64145">
        <ele>229</ele>
        <time>2011-08-16T14:40:46Z</time>
      </trkpt>
      <trkpt lat="47.21653" lon="5.64134">
        <ele>224</ele>
        <time>2011-08-16T14:40:47Z</time>
      </trkpt>
      <trkpt lat="47.21661" lon="5.64122">
        <ele>224</ele>
        <time>2011-08-16T14:40:48Z</time>
      </trkpt>
      <trkpt lat="47.21667" lon="5.6411">
        <ele>224</ele>
        <time>2011-08-16T14:40:49Z</time>
      </trkpt>
      <trkpt lat="47.21673" lon="5.64097">
        <ele>224</ele>
        <time>2011-08-16T14:40:50Z</time>
      </trkpt>
      <trkpt lat="47.21678" lon="5.64085">
        <ele>224</ele>
        <time>2011-08-16T14:40:51Z</time>
      </trkpt>
      <trkpt lat="47.21681" lon="5.64072">
        <ele>224</ele>
        <time>2011-08-16T14:40:52Z</time>
      </trkpt>
      <trkpt lat="47.21684" lon="5.64059">
        <ele>224</ele>
        <time>2011-08-16T14:40:53Z</time>
      </trkpt>
      <trkpt lat="47.21691" lon="5.64037">
        <ele>224</ele>
        <time>2011-08-16T14:40:55Z</time>
      </trkpt>
      <trkpt lat="47.21702" lon="5.64024">
        <ele>224</ele>
        <time>2011-08-16T14:40:57Z</time>
      </trkpt>
      <trkpt lat="47.21714" lon="5.64024">
        <ele>224</ele>
        <time>2011-08-16T14:40:59Z</time>
      </trkpt>
      <trkpt lat="47.21726" lon="5.64026">
        <ele>224</ele>
        <time>2011-08-16T14:41:01Z</time>
      </trkpt>
      <trkpt lat="47.21736" lon="5.64027">
        <ele>224</ele>
        <time>2011-08-16T14:41:03Z</time>
      </trkpt>
      <trkpt lat="47.21745" lon="5.64027">
        <ele>224</ele>
        <time>2011-08-16T14:41:05Z</time>
      </trkpt>
      <trkpt lat="47.21757" lon="5.64028">
        <ele>224</ele>
        <time>2011-08-16T14:41:08Z</time>
      </trkpt>
      <trkpt lat="47.2177" lon="5.64028">
        <ele>224</ele>
        <time>2011-08-16T14:41:11Z</time>
      </trkpt>
      <trkpt lat="47.21783" lon="5.64026">
        <ele>224</ele>
        <time>2011-08-16T14:41:14Z</time>
      </trkpt>
      <trkpt lat="47.21794" lon="5.64023">
        <ele>233</ele>
        <time>2011-08-16T14:41:17Z</time>
      </trkpt>
      <trkpt lat="47.21807" lon="5.6402">
        <ele>233</ele>
        <time>2011-08-16T14:41:20Z</time>
      </trkpt>
      <trkpt lat="47.21816" lon="5.64016">
        <ele>241</ele>
        <time>2011-08-16T14:41:22Z</time>
      </trkpt>
      <trkpt lat="47.21825" lon="5.64014">
        <ele>241</ele>
        <time>2011-08-16T14:41:24Z</time>
      </trkpt>
      <trkpt lat="47.21835" lon="5.64011">
        <ele>249</ele>
        <time>2011-08-16T14:41:26Z</time>
      </trkpt>
      <trkpt lat="47.21844" lon="5.64009">
        <ele>256</ele>
        <time>2011-08-16T14:41:28Z</time>
      </trkpt>
      <trkpt lat="47.21855" lon="5.64008">
        <ele>256</ele>
        <time>2011-08-16T14:41:30Z</time>
      </trkpt>
      <trkpt lat="47.21868" lon="5.64006">
        <ele>256</ele>
        <time>2011-08-16T14:41:32Z</time>
      </trkpt>
      <trkpt lat="47.21879" lon="5.64005">
        <ele>256</ele>
        <time>2011-08-16T14:41:34Z</time>
      </trkpt>
      <trkpt lat="47.2189" lon="5.64004">
        <ele>256</ele>
        <time>2011-08-16T14:41:36Z</time>
      </trkpt>
      <trkpt lat="47.21901" lon="5.64003">
        <ele>263</ele>
        <time>2011-08-16T14:41:38Z</time>
      </trkpt>
      <trkpt lat="47.21913" lon="5.64">
        <ele>263</ele>
        <time>2011-08-16T14:41:40Z</time>
      </trkpt>
      <trkpt lat="47.21926" lon="5.63997">
        <ele>263</ele>
        <time>2011-08-16T14:41:42Z</time>
      </trkpt>
      <trkpt lat="47.21937" lon="5.63997">
        <ele>257</ele>
        <time>2011-08-16T14:41:44Z</time>
      </trkpt>
      <trkpt lat="47.21948" lon="5.63997">
        <ele>257</ele>
        <time>2011-08-16T14:41:46Z</time>
      </trkpt>
      <trkpt lat="47.21959" lon="5.63997">
        <ele>257</ele>
        <time>2011-08-16T14:41:48Z</time>
      </trkpt>
      <trkpt lat="47.2197" lon="5.63995">
        <ele>257</ele>
        <time>2011-08-16T14:41:50Z</time>
      </trkpt>
      <trkpt lat="47.21981" lon="5.63992">
        <ele>257</ele>
        <time>2011-08-16T14:41:52Z</time>
      </trkpt>
      <trkpt lat="47.21992" lon="5.63996">
        <ele>257</ele>
        <time>2011-08-16T14:41:54Z</time>
      </trkpt>
      <trkpt lat="47.22003" lon="5.64003">
        <ele>257</ele>
        <time>2011-08-16T14:41:56Z</time>
      </trkpt>
      <trkpt lat="47.22015" lon="5.6401">
        <ele>257</ele>
        <time>2011-08-16T14:41:58Z</time>
      </trkpt>
      <trkpt lat="47.22029" lon="5.64014">
        <ele>257</ele>
        <time>2011-08-16T14:42:00Z</time>
      </trkpt>
      <trkpt lat="47.22043" lon="5.64019">
        <ele>257</ele>
        <time>2011-08-16T14:42:02Z</time>
      </trkpt>
      <trkpt lat="47.22057" lon="5.64021">
        <ele>257</ele>
        <time>2011-08-16T14:42:04Z</time>
      </trkpt>
      <trkpt lat="47.22072" lon="5.64024">
        <ele>251</ele>
        <time>2011-08-16T14:42:06Z</time>
      </trkpt>
      <trkpt lat="47.22085" lon="5.64028">
        <ele>251</ele>
        <time>2011-08-16T14:42:08Z</time>
      </trkpt>
      <trkpt lat="47.22099" lon="5.6403">
        <ele>251</ele>
        <time>2011-08-16T14:42:10Z</time>
      </trkpt>
      <trkpt lat="47.22112" lon="5.64032">
        <ele>246</ele>
        <time>2011-08-16T14:42:12Z</time>
      </trkpt>
      <trkpt lat="47.22125" lon="5.64036">
        <ele>246</ele>
        <time>2011-08-16T14:42:14Z</time>
      </trkpt>
      <trkpt lat="47.22137" lon="5.6404">
        <ele>246</ele>
        <time>2011-08-16T14:42:16Z</time>
      </trkpt>
      <trkpt lat="47.22149" lon="5.64043">
        <ele>246</ele>
        <time>2011-08-16T14:42:18Z</time>
      </trkpt>
      <trkpt lat="47.2216" lon="5.64051">
        <ele>246</ele>
        <time>2011-08-16T14:42:20Z</time>
      </trkpt>
      <trkpt lat="47.22172" lon="5.64059">
        <ele>246</ele>
        <time>2011-08-16T14:42:22Z</time>
      </trkpt>
      <trkpt lat="47.22183" lon="5.64067">
        <ele>246</ele>
        <time>2011-08-16T14:42:24Z</time>
      </trkpt>
      <trkpt lat="47.22195" lon="5.64076">
        <ele>246</ele>
        <time>2011-08-16T14:42:26Z</time>
      </trkpt>
      <trkpt lat="47.22207" lon="5.64083">
        <ele>239</ele>
        <time>2011-08-16T14:42:28Z</time>
      </trkpt>
      <trkpt lat="47.22218" lon="5.64089">
        <ele>239</ele>
        <time>2011-08-16T14:42:30Z</time>
      </trkpt>
      <trkpt lat="47.22231" lon="5.64094">
        <ele>239</ele>
        <time>2011-08-16T14:42:32Z</time>
      </trkpt>
      <trkpt lat="47.22244" lon="5.64097">
        <ele>239</ele>
        <time>2011-08-16T14:42:34Z</time>
      </trkpt>
      <trkpt lat="47.22256" lon="5.64102">
        <ele>239</ele>
        <time>2011-08-16T14:42:36Z</time>
      </trkpt>
      <trkpt lat="47.22269" lon="5.64105">
        <ele>239</ele>
        <time>2011-08-16T14:42:38Z</time>
      </trkpt>
      <trkpt lat="47.22282" lon="5.64108">
        <ele>239</ele>
        <time>2011-08-16T14:42:40Z</time>
      </trkpt>
      <trkpt lat="47.22295" lon="5.64112">
        <ele>239</ele>
        <time>2011-08-16T14:42:42Z</time>
      </trkpt>
      <trkpt lat="47.22308" lon="5.64116">
        <ele>239</ele>
        <time>2011-08-16T14:42:44Z</time>
      </trkpt>
      <trkpt lat="47.2232" lon="5.6412">
        <ele>234</ele>
        <time>2011-08-16T14:42:46Z</time>
      </trkpt>
      <trkpt lat="47.22333" lon="5.64124">
        <ele>234</ele>
        <time>2011-08-16T14:42:48Z</time>
      </trkpt>
      <trkpt lat="47.22345" lon="5.64129">
        <ele>234</ele>
        <time>2011-08-16T14:42:50Z</time>
      </trkpt>
      <trkpt lat="47.22358" lon="5.64133">
        <ele>234</ele>
        <time>2011-08-16T14:42:52Z</time>
      </trkpt>
      <trkpt lat="47.2237" lon="5.64137">
        <ele>234</ele>
        <time>2011-08-16T14:42:54Z</time>
      </trkpt>
      <trkpt lat="47.22382" lon="5.64138">
        <ele>234</ele>
        <time>2011-08-16T14:42:56Z</time>
      </trkpt>
      <trkpt lat="47.22394" lon="5.64141">
        <ele>234</ele>
        <time>2011-08-16T14:42:58Z</time>
      </trkpt>
      <trkpt lat="47.22406" lon="5.64146">
        <ele>234</ele>
        <time>2011-08-16T14:43:00Z</time>
      </trkpt>
      <trkpt lat="47.22418" lon="5.6415">
        <ele>234</ele>
        <time>2011-08-16T14:43:02Z</time>
      </trkpt>
      <trkpt lat="47.22429" lon="5.64152">
        <ele>234</ele>
        <time>2011-08-16T14:43:04Z</time>
      </trkpt>
      <trkpt lat="47.22447" lon="5.64158">
        <ele>234</ele>
        <time>2011-08-16T14:43:07Z</time>
      </trkpt>
      <trkpt lat="47.22458" lon="5.64161">
        <ele>234</ele>
        <time>2011-08-16T14:43:09Z</time>
      </trkpt>
      <trkpt lat="47.22469" lon="5.6416">
        <ele>227</ele>
        <time>2011-08-16T14:43:11Z</time>
      </trkpt>
      <trkpt lat="47.22483" lon="5.64156">
        <ele>227</ele>
        <time>2011-08-16T14:43:13Z</time>
      </trkpt>
      <trkpt lat="47.22497" lon="5.64148">
        <ele>227</ele>
        <time>2011-08-16T14:43:15Z</time>
      </trkpt>
      <trkpt lat="47.22511" lon="5.64138">
        <ele>227</ele>
        <time>2011-08-16T14:43:17Z</time>
      </trkpt>
      <trkpt lat="47.22523" lon="5.64126">
        <ele>227</ele>
        <time>2011-08-16T14:43:19Z</time>
      </trkpt>
      <trkpt lat="47.22533" lon="5.64109">
        <ele>227</ele>
        <time>2011-08-16T14:43:21Z</time>
      </trkpt>
      <trkpt lat="47.22542" lon="5.64093">
        <ele>227</ele>
        <time>2011-08-16T14:43:23Z</time>
      </trkpt>
      <trkpt lat="47.22552" lon="5.64076">
        <ele>227</ele>
        <time>2011-08-16T14:43:25Z</time>
      </trkpt>
      <trkpt lat="47.22563" lon="5.64063">
        <ele>227</ele>
        <time>2011-08-16T14:43:27Z</time>
      </trkpt>
      <trkpt lat="47.22576" lon="5.64053">
        <ele>227</ele>
        <time>2011-08-16T14:43:29Z</time>
      </trkpt>
      <trkpt lat="47.2259" lon="5.64046">
        <ele>227</ele>
        <time>2011-08-16T14:43:31Z</time>
      </trkpt>
      <trkpt lat="47.22605" lon="5.64039">
        <ele>227</ele>
        <time>2011-08-16T14:43:33Z</time>
      </trkpt>
      <trkpt lat="47.2262" lon="5.6403">
        <ele>227</ele>
        <time>2011-08-16T14:43:35Z</time>
      </trkpt>
      <trkpt lat="47.22634" lon="5.6402">
        <ele>227</ele>
        <time>2011-08-16T14:43:37Z</time>
      </trkpt>
      <trkpt lat="47.22646" lon="5.64008">
        <ele>227</ele>
        <time>2011-08-16T14:43:39Z</time>
      </trkpt>
      <trkpt lat="47.22657" lon="5.63995">
        <ele>227</ele>
        <time>2011-08-16T14:43:41Z</time>
      </trkpt>
      <trkpt lat="47.22668" lon="5.63981">
        <ele>227</ele>
        <time>2011-08-16T14:43:43Z</time>
      </trkpt>
      <trkpt lat="47.22679" lon="5.63967">
        <ele>227</ele>
        <time>2011-08-16T14:43:45Z</time>
      </trkpt>
      <trkpt lat="47.2269" lon="5.63953">
        <ele>227</ele>
        <time>2011-08-16T14:43:47Z</time>
      </trkpt>
      <trkpt lat="47.227" lon="5.63939">
        <ele>227</ele>
        <time>2011-08-16T14:43:49Z</time>
      </trkpt>
      <trkpt lat="47.22711" lon="5.63926">
        <ele>227</ele>
        <time>2011-08-16T14:43:51Z</time>
      </trkpt>
      <trkpt lat="47.22722" lon="5.63912">
        <ele>227</ele>
        <time>2011-08-16T14:43:53Z</time>
      </trkpt>
      <trkpt lat="47.22732" lon="5.639">
        <ele>227</ele>
        <time>2011-08-16T14:43:55Z</time>
      </trkpt>
      <trkpt lat="47.22742" lon="5.63889">
        <ele>227</ele>
        <time>2011-08-16T14:43:57Z</time>
      </trkpt>
      <trkpt lat="47.22752" lon="5.63879">
        <ele>227</ele>
        <time>2011-08-16T14:43:59Z</time>
      </trkpt>
      <trkpt lat="47.22764" lon="5.6387">
        <ele>227</ele>
        <time>2011-08-16T14:44:01Z</time>
      </trkpt>
      <trkpt lat="47.22776" lon="5.63863">
        <ele>227</ele>
        <time>2011-08-16T14:44:03Z</time>
      </trkpt>
      <trkpt lat="47.22787" lon="5.63858">
        <ele>227</ele>
        <time>2011-08-16T14:44:05Z</time>
      </trkpt>
      <trkpt lat="47.22799" lon="5.63855">
        <ele>227</ele>
        <time>2011-08-16T14:44:07Z</time>
      </trkpt>
      <trkpt lat="47.22811" lon="5.63851">
        <ele>227</ele>
        <time>2011-08-16T14:44:09Z</time>
      </trkpt>
      <trkpt lat="47.22823" lon="5.63848">
        <ele>227</ele>
        <time>2011-08-16T14:44:11Z</time>
      </trkpt>
      <trkpt lat="47.22836" lon="5.63847">
        <ele>227</ele>
        <time>2011-08-16T14:44:13Z</time>
      </trkpt>
      <trkpt lat="47.22849" lon="5.63846">
        <ele>227</ele>
        <time>2011-08-16T14:44:15Z</time>
      </trkpt>
      <trkpt lat="47.22863" lon="5.63844">
        <ele>227</ele>
        <time>2011-08-16T14:44:17Z</time>
      </trkpt>
      <trkpt lat="47.22877" lon="5.63843">
        <ele>227</ele>
        <time>2011-08-16T14:44:19Z</time>
      </trkpt>
      <trkpt lat="47.22892" lon="5.63841">
        <ele>227</ele>
        <time>2011-08-16T14:44:21Z</time>
      </trkpt>
      <trkpt lat="47.22907" lon="5.6384">
        <ele>227</ele>
        <time>2011-08-16T14:44:23Z</time>
      </trkpt>
      <trkpt lat="47.22922" lon="5.63839">
        <ele>227</ele>
        <time>2011-08-16T14:44:25Z</time>
      </trkpt>
      <trkpt lat="47.22936" lon="5.63837">
        <ele>227</ele>
        <time>2011-08-16T14:44:27Z</time>
      </trkpt>
      <trkpt lat="47.22951" lon="5.63835">
        <ele>227</ele>
        <time>2011-08-16T14:44:29Z</time>
      </trkpt>
      <trkpt lat="47.22964" lon="5.6383">
        <ele>227</ele>
        <time>2011-08-16T14:44:31Z</time>
      </trkpt>
      <trkpt lat="47.22977" lon="5.63826">
        <ele>227</ele>
        <time>2011-08-16T14:44:33Z</time>
      </trkpt>
      <trkpt lat="47.2299" lon="5.63822">
        <ele>227</ele>
        <time>2011-08-16T14:44:35Z</time>
      </trkpt>
      <trkpt lat="47.23002" lon="5.6382">
        <ele>227</ele>
        <time>2011-08-16T14:44:37Z</time>
      </trkpt>
      <trkpt lat="47.23013" lon="5.63819">
        <ele>227</ele>
        <time>2011-08-16T14:44:39Z</time>
      </trkpt>
      <trkpt lat="47.23025" lon="5.63817">
        <ele>227</ele>
        <time>2011-08-16T14:44:41Z</time>
      </trkpt>
      <trkpt lat="47.23038" lon="5.63818">
        <ele>227</ele>
        <time>2011-08-16T14:44:43Z</time>
      </trkpt>
      <trkpt lat="47.23051" lon="5.63818">
        <ele>227</ele>
        <time>2011-08-16T14:44:45Z</time>
      </trkpt>
      <trkpt lat="47.23065" lon="5.6382">
        <ele>227</ele>
        <time>2011-08-16T14:44:47Z</time>
      </trkpt>
      <trkpt lat="47.23079" lon="5.6382">
        <ele>227</ele>
        <time>2011-08-16T14:44:49Z</time>
      </trkpt>
      <trkpt lat="47.23092" lon="5.6382">
        <ele>227</ele>
        <time>2011-08-16T14:44:51Z</time>
      </trkpt>
      <trkpt lat="47.23106" lon="5.6382">
        <ele>227</ele>
        <time>2011-08-16T14:44:53Z</time>
      </trkpt>
      <trkpt lat="47.23119" lon="5.63819">
        <ele>227</ele>
        <time>2011-08-16T14:44:55Z</time>
      </trkpt>
      <trkpt lat="47.23133" lon="5.63814">
        <ele>227</ele>
        <time>2011-08-16T14:44:57Z</time>
      </trkpt>
      <trkpt lat="47.23147" lon="5.63807">
        <ele>227</ele>
        <time>2011-08-16T14:44:59Z</time>
      </trkpt>
      <trkpt lat="47.23161" lon="5.63798">
        <ele>227</ele>
        <time>2011-08-16T14:45:01Z</time>
      </trkpt>
      <trkpt lat="47.23175" lon="5.63785">
        <ele>227</ele>
        <time>2011-08-16T14:45:03Z</time>
      </trkpt>
      <trkpt lat="47.23181" lon="5.63775">
        <ele>227</ele>
        <time>2011-08-16T14:45:04Z</time>
      </trkpt>
      <trkpt lat="47.2319" lon="5.63751">
        <ele>227</ele>
        <time>2011-08-16T14:45:06Z</time>
      </trkpt>
      <trkpt lat="47.23193" lon="5.63738">
        <ele>227</ele>
        <time>2011-08-16T14:45:07Z</time>
      </trkpt>
      <trkpt lat="47.23196" lon="5.63723">
        <ele>227</ele>
        <time>2011-08-16T14:45:08Z</time>
      </trkpt>
      <trkpt lat="47.23199" lon="5.63709">
        <ele>227</ele>
        <time>2011-08-16T14:45:09Z</time>
      </trkpt>
      <trkpt lat="47.23202" lon="5.63695">
        <ele>227</ele>
        <time>2011-08-16T14:45:10Z</time>
      </trkpt>
      <trkpt lat="47.23208" lon="5.63682">
        <ele>227</ele>
        <time>2011-08-16T14:45:11Z</time>
      </trkpt>
      <trkpt lat="47.23214" lon="5.6367">
        <ele>227</ele>
        <time>2011-08-16T14:45:12Z</time>
      </trkpt>
      <trkpt lat="47.23223" lon="5.63661">
        <ele>227</ele>
        <time>2011-08-16T14:45:13Z</time>
      </trkpt>
      <trkpt lat="47.23233" lon="5.63653">
        <ele>227</ele>
        <time>2011-08-16T14:45:14Z</time>
      </trkpt>
      <trkpt lat="47.23243" lon="5.63647">
        <ele>222</ele>
        <time>2011-08-16T14:45:15Z</time>
      </trkpt>
      <trkpt lat="47.23252" lon="5.63642">
        <ele>222</ele>
        <time>2011-08-16T14:45:16Z</time>
      </trkpt>
      <trkpt lat="47.23263" lon="5.63636">
        <ele>222</ele>
        <time>2011-08-16T14:45:17Z</time>
      </trkpt>
      <trkpt lat="47.23273" lon="5.6363">
        <ele>222</ele>
        <time>2011-08-16T14:45:18Z</time>
      </trkpt>
      <trkpt lat="47.23282" lon="5.63625">
        <ele>222</ele>
        <time>2011-08-16T14:45:19Z</time>
      </trkpt>
      <trkpt lat="47.23292" lon="5.63619">
        <ele>222</ele>
        <time>2011-08-16T14:45:20Z</time>
      </trkpt>
      <trkpt lat="47.23302" lon="5.63614">
        <ele>222</ele>
        <time>2011-08-16T14:45:21Z</time>
      </trkpt>
      <trkpt lat="47.23311" lon="5.63608">
        <ele>222</ele>
        <time>2011-08-16T14:45:22Z</time>
      </trkpt>
      <trkpt lat="47.2332" lon="5.63604">
        <ele>222</ele>
        <time>2011-08-16T14:45:23Z</time>
      </trkpt>
      <trkpt lat="47.2333" lon="5.63599">
        <ele>222</ele>
        <time>2011-08-16T14:45:24Z</time>
      </trkpt>
      <trkpt lat="47.23338" lon="5.63593">
        <ele>222</ele>
        <time>2011-08-16T14:45:25Z</time>
      </trkpt>
      <trkpt lat="47.23347" lon="5.63588">
        <ele>222</ele>
        <time>2011-08-16T14:45:26Z</time>
      </trkpt>
      <trkpt lat="47.23356" lon="5.63582">
        <ele>222</ele>
        <time>2011-08-16T14:45:27Z</time>
      </trkpt>
      <trkpt lat="47.23364" lon="5.63575">
        <ele>222</ele>
        <time>2011-08-16T14:45:28Z</time>
      </trkpt>
      <trkpt lat="47.23372" lon="5.63567">
        <ele>222</ele>
        <time>2011-08-16T14:45:29Z</time>
      </trkpt>
      <trkpt lat="47.2338" lon="5.63559">
        <ele>222</ele>
        <time>2011-08-16T14:45:30Z</time>
      </trkpt>
      <trkpt lat="47.23388" lon="5.63549">
        <ele>222</ele>
        <time>2011-08-16T14:45:31Z</time>
      </trkpt>
      <trkpt lat="47.23395" lon="5.63539">
        <ele>222</ele>
        <time>2011-08-16T14:45:32Z</time>
      </trkpt>
      <trkpt lat="47.23402" lon="5.63528">
        <ele>222</ele>
        <time>2011-08-16T14:45:33Z</time>
      </trkpt>
      <trkpt lat="47.2341" lon="5.63517">
        <ele>222</ele>
        <time>2011-08-16T14:45:34Z</time>
      </trkpt>
      <trkpt lat="47.23417" lon="5.63505">
        <ele>222</ele>
        <time>2011-08-16T14:45:35Z</time>
      </trkpt>
      <trkpt lat="47.23424" lon="5.63493">
        <ele>222</ele>
        <time>2011-08-16T14:45:36Z</time>
      </trkpt>
      <trkpt lat="47.23431" lon="5.63481">
        <ele>222</ele>
        <time>2011-08-16T14:45:37Z</time>
      </trkpt>
      <trkpt lat="47.23438" lon="5.63469">
        <ele>222</ele>
        <time>2011-08-16T14:45:38Z</time>
      </trkpt>
      <trkpt lat="47.23446" lon="5.63457">
        <ele>217</ele>
        <time>2011-08-16T14:45:39Z</time>
      </trkpt>
      <trkpt lat="47.23453" lon="5.63443">
        <ele>217</ele>
        <time>2011-08-16T14:45:40Z</time>
      </trkpt>
      <trkpt lat="47.2346" lon="5.63431">
        <ele>217</ele>
        <time>2011-08-16T14:45:41Z</time>
      </trkpt>
      <trkpt lat="47.23467" lon="5.63418">
        <ele>217</ele>
        <time>2011-08-16T14:45:42Z</time>
      </trkpt>
      <trkpt lat="47.23474" lon="5.63405">
        <ele>217</ele>
        <time>2011-08-16T14:45:43Z</time>
      </trkpt>
      <trkpt lat="47.23481" lon="5.63392">
        <ele>217</ele>
        <time>2011-08-16T14:45:44Z</time>
      </trkpt>
      <trkpt lat="47.23488" lon="5.63379">
        <ele>217</ele>
        <time>2011-08-16T14:45:45Z</time>
      </trkpt>
      <trkpt lat="47.23495" lon="5.63367">
        <ele>217</ele>
        <time>2011-08-16T14:45:46Z</time>
      </trkpt>
      <trkpt lat="47.23501" lon="5.63355">
        <ele>217</ele>
        <time>2011-08-16T14:45:47Z</time>
      </trkpt>
      <trkpt lat="47.23508" lon="5.63343">
        <ele>217</ele>
        <time>2011-08-16T14:45:48Z</time>
      </trkpt>
      <trkpt lat="47.23515" lon="5.6333">
        <ele>217</ele>
        <time>2011-08-16T14:45:49Z</time>
      </trkpt>
      <trkpt lat="47.23522" lon="5.63318">
        <ele>217</ele>
        <time>2011-08-16T14:45:50Z</time>
      </trkpt>
      <trkpt lat="47.23529" lon="5.63307">
        <ele>217</ele>
        <time>2011-08-16T14:45:51Z</time>
      </trkpt>
      <trkpt lat="47.23535" lon="5.63295">
        <ele>217</ele>
        <time>2011-08-16T14:45:52Z</time>
      </trkpt>
      <trkpt lat="47.23542" lon="5.63283">
        <ele>217</ele>
        <time>2011-08-16T14:45:53Z</time>
      </trkpt>
      <trkpt lat="47.23548" lon="5.63272">
        <ele>217</ele>
        <time>2011-08-16T14:45:54Z</time>
      </trkpt>
      <trkpt lat="47.23555" lon="5.63261">
        <ele>217</ele>
        <time>2011-08-16T14:45:55Z</time>
      </trkpt>
      <trkpt lat="47.23561" lon="5.63249">
        <ele>217</ele>
        <time>2011-08-16T14:45:56Z</time>
      </trkpt>
      <trkpt lat="47.23568" lon="5.63238">
        <ele>217</ele>
        <time>2011-08-16T14:45:57Z</time>
      </trkpt>
      <trkpt lat="47.23574" lon="5.63227">
        <ele>217</ele>
        <time>2011-08-16T14:45:58Z</time>
      </trkpt>
      <trkpt lat="47.23581" lon="5.63216">
        <ele>217</ele>
        <time>2011-08-16T14:45:59Z</time>
      </trkpt>
      <trkpt lat="47.23588" lon="5.63205">
        <ele>217</ele>
        <time>2011-08-16T14:46:00Z</time>
      </trkpt>
      <trkpt lat="47.23594" lon="5.63193">
        <ele>211</ele>
        <time>2011-08-16T14:46:01Z</time>
      </trkpt>
      <trkpt lat="47.23602" lon="5.63183">
        <ele>211</ele>
        <time>2011-08-16T14:46:02Z</time>
      </trkpt>
      <trkpt lat="47.23609" lon="5.63171">
        <ele>211</ele>
        <time>2011-08-16T14:46:03Z</time>
      </trkpt>
      <trkpt lat="47.23616" lon="5.63159">
        <ele>211</ele>
        <time>2011-08-16T14:46:04Z</time>
      </trkpt>
      <trkpt lat="47.23623" lon="5.63149">
        <ele>211</ele>
        <time>2011-08-16T14:46:05Z</time>
      </trkpt>
      <trkpt lat="47.23631" lon="5.63137">
        <ele>211</ele>
        <time>2011-08-16T14:46:06Z</time>
      </trkpt>
      <trkpt lat="47.23637" lon="5.63126">
        <ele>211</ele>
        <time>2011-08-16T14:46:07Z</time>
      </trkpt>
      <trkpt lat="47.23645" lon="5.63114">
        <ele>211</ele>
        <time>2011-08-16T14:46:08Z</time>
      </trkpt>
      <trkpt lat="47.23652" lon="5.63104">
        <ele>211</ele>
        <time>2011-08-16T14:46:09Z</time>
      </trkpt>
      <trkpt lat="47.23659" lon="5.63094">
        <ele>211</ele>
        <time>2011-08-16T14:46:10Z</time>
      </trkpt>
      <trkpt lat="47.23665" lon="5.63083">
        <ele>211</ele>
        <time>2011-08-16T14:46:11Z</time>
      </trkpt>
      <trkpt lat="47.23672" lon="5.63074">
        <ele>211</ele>
        <time>2011-08-16T14:46:12Z</time>
      </trkpt>
      <trkpt lat="47.23678" lon="5.63064">
        <ele>211</ele>
        <time>2011-08-16T14:46:13Z</time>
      </trkpt>
      <trkpt lat="47.23685" lon="5.63055">
        <ele>211</ele>
        <time>2011-08-16T14:46:14Z</time>
      </trkpt>
      <trkpt lat="47.23697" lon="5.63038">
        <ele>211</ele>
        <time>2011-08-16T14:46:16Z</time>
      </trkpt>
      <trkpt lat="47.23709" lon="5.63022">
        <ele>211</ele>
        <time>2011-08-16T14:46:18Z</time>
      </trkpt>
      <trkpt lat="47.2372" lon="5.63007">
        <ele>211</ele>
        <time>2011-08-16T14:46:20Z</time>
      </trkpt>
      <trkpt lat="47.23731" lon="5.62993">
        <ele>211</ele>
        <time>2011-08-16T14:46:22Z</time>
      </trkpt>
      <trkpt lat="47.23741" lon="5.62981">
        <ele>211</ele>
        <time>2011-08-16T14:46:24Z</time>
      </trkpt>
      <trkpt lat="47.2375" lon="5.62968">
        <ele>211</ele>
        <time>2011-08-16T14:46:26Z</time>
      </trkpt>
      <trkpt lat="47.2376" lon="5.62957">
        <ele>211</ele>
        <time>2011-08-16T14:46:28Z</time>
      </trkpt>
      <trkpt lat="47.23768" lon="5.62946">
        <ele>211</ele>
        <time>2011-08-16T14:46:30Z</time>
      </trkpt>
      <trkpt lat="47.23776" lon="5.62936">
        <ele>211</ele>
        <time>2011-08-16T14:46:32Z</time>
      </trkpt>
      <trkpt lat="47.23784" lon="5.62926">
        <ele>211</ele>
        <time>2011-08-16T14:46:34Z</time>
      </trkpt>
      <trkpt lat="47.23791" lon="5.62914">
        <ele>211</ele>
        <time>2011-08-16T14:46:36Z</time>
      </trkpt>
      <trkpt lat="47.23797" lon="5.62902">
        <ele>211</ele>
        <time>2011-08-16T14:46:38Z</time>
      </trkpt>
      <trkpt lat="47.23802" lon="5.62889">
        <ele>211</ele>
        <time>2011-08-16T14:46:40Z</time>
      </trkpt>
      <trkpt lat="47.23808" lon="5.62875">
        <ele>211</ele>
        <time>2011-08-16T14:46:42Z</time>
      </trkpt>
      <trkpt lat="47.23812" lon="5.62861">
        <ele>211</ele>
        <time>2011-08-16T14:46:44Z</time>
      </trkpt>
      <trkpt lat="47.23816" lon="5.62848">
        <ele>211</ele>
        <time>2011-08-16T14:46:46Z</time>
      </trkpt>
      <trkpt lat="47.2382" lon="5.62834">
        <ele>211</ele>
        <time>2011-08-16T14:46:48Z</time>
      </trkpt>
      <trkpt lat="47.23823" lon="5.62822">
        <ele>211</ele>
        <time>2011-08-16T14:46:50Z</time>
      </trkpt>
      <trkpt lat="47.23828" lon="5.62809">
        <ele>211</ele>
        <time>2011-08-16T14:46:52Z</time>
      </trkpt>
      <trkpt lat="47.23832" lon="5.62797">
        <ele>217</ele>
        <time>2011-08-16T14:46:54Z</time>
      </trkpt>
      <trkpt lat="47.23838" lon="5.62786">
        <ele>217</ele>
        <time>2011-08-16T14:46:56Z</time>
      </trkpt>
      <trkpt lat="47.23845" lon="5.62777">
        <ele>217</ele>
        <time>2011-08-16T14:46:58Z</time>
      </trkpt>
      <trkpt lat="47.23851" lon="5.62768">
        <ele>217</ele>
        <time>2011-08-16T14:47:00Z</time>
      </trkpt>
      <trkpt lat="47.23859" lon="5.62759">
        <ele>217</ele>
        <time>2011-08-16T14:47:02Z</time>
      </trkpt>
      <trkpt lat="47.23867" lon="5.62751">
        <ele>217</ele>
        <time>2011-08-16T14:47:04Z</time>
      </trkpt>
      <trkpt lat="47.23875" lon="5.62745">
        <ele>217</ele>
        <time>2011-08-16T14:47:06Z</time>
      </trkpt>
      <trkpt lat="47.23884" lon="5.6274">
        <ele>217</ele>
        <time>2011-08-16T14:47:08Z</time>
      </trkpt>
      <trkpt lat="47.23892" lon="5.62735">
        <ele>217</ele>
        <time>2011-08-16T14:47:10Z</time>
      </trkpt>
      <trkpt lat="47.23902" lon="5.62731">
        <ele>217</ele>
        <time>2011-08-16T14:47:12Z</time>
      </trkpt>
      <trkpt lat="47.2391" lon="5.62726">
        <ele>217</ele>
        <time>2011-08-16T14:47:14Z</time>
      </trkpt>
      <trkpt lat="47.23922" lon="5.62721">
        <ele>217</ele>
        <time>2011-08-16T14:47:17Z</time>
      </trkpt>
      <trkpt lat="47.23933" lon="5.62716">
        <ele>217</ele>
        <time>2011-08-16T14:47:20Z</time>
      </trkpt>
      <trkpt lat="47.23944" lon="5.6271">
        <ele>217</ele>
        <time>2011-08-16T14:47:23Z</time>
      </trkpt>
      <trkpt lat="47.23954" lon="5.62706">
        <ele>217</ele>
        <time>2011-08-16T14:47:26Z</time>
      </trkpt>
      <trkpt lat="47.23964" lon="5.62702">
        <ele>217</ele>
        <time>2011-08-16T14:47:29Z</time>
      </trkpt>
      <trkpt lat="47.23974" lon="5.62696">
        <ele>217</ele>
        <time>2011-08-16T14:47:32Z</time>
      </trkpt>
      <trkpt lat="47.23985" lon="5.62691">
        <ele>217</ele>
        <time>2011-08-16T14:47:35Z</time>
      </trkpt>
      <trkpt lat="47.23993" lon="5.62688">
        <ele>217</ele>
        <time>2011-08-16T14:47:37Z</time>
      </trkpt>
      <trkpt lat="47.24005" lon="5.62682">
        <ele>217</ele>
        <time>2011-08-16T14:47:40Z</time>
      </trkpt>
      <trkpt lat="47.24015" lon="5.62678">
        <ele>217</ele>
        <time>2011-08-16T14:47:42Z</time>
      </trkpt>
      <trkpt lat="47.24026" lon="5.62672">
        <ele>217</ele>
        <time>2011-08-16T14:47:44Z</time>
      </trkpt>
      <trkpt lat="47.24038" lon="5.62666">
        <ele>217</ele>
        <time>2011-08-16T14:47:46Z</time>
      </trkpt>
      <trkpt lat="47.24051" lon="5.62659">
        <ele>217</ele>
        <time>2011-08-16T14:47:48Z</time>
      </trkpt>
      <trkpt lat="47.24067" lon="5.62651">
        <ele>217</ele>
        <time>2011-08-16T14:47:50Z</time>
      </trkpt>
      <trkpt lat="47.24083" lon="5.62643">
        <ele>217</ele>
        <time>2011-08-16T14:47:52Z</time>
      </trkpt>
      <trkpt lat="47.24098" lon="5.62634">
        <ele>211</ele>
        <time>2011-08-16T14:47:54Z</time>
      </trkpt>
      <trkpt lat="47.24113" lon="5.62624">
        <ele>211</ele>
        <time>2011-08-16T14:47:56Z</time>
      </trkpt>
      <trkpt lat="47.24126" lon="5.62615">
        <ele>211</ele>
        <time>2011-08-16T14:47:58Z</time>
      </trkpt>
      <trkpt lat="47.24139" lon="5.62605">
        <ele>211</ele>
        <time>2011-08-16T14:48:00Z</time>
      </trkpt>
      <trkpt lat="47.24152" lon="5.62596">
        <ele>211</ele>
        <time>2011-08-16T14:48:02Z</time>
      </trkpt>
      <trkpt lat="47.24163" lon="5.62588">
        <ele>211</ele>
        <time>2011-08-16T14:48:04Z</time>
      </trkpt>
      <trkpt lat="47.24174" lon="5.6258">
        <ele>211</ele>
        <time>2011-08-16T14:48:06Z</time>
      </trkpt>
      <trkpt lat="47.24185" lon="5.62572">
        <ele>211</ele>
        <time>2011-08-16T14:48:08Z</time>
      </trkpt>
      <trkpt lat="47.24195" lon="5.62564">
        <ele>211</ele>
        <time>2011-08-16T14:48:10Z</time>
      </trkpt>
      <trkpt lat="47.24204" lon="5.62556">
        <ele>211</ele>
        <time>2011-08-16T14:48:12Z</time>
      </trkpt>
      <trkpt lat="47.24213" lon="5.62548">
        <ele>211</ele>
        <time>2011-08-16T14:48:14Z</time>
      </trkpt>
      <trkpt lat="47.24221" lon="5.62539">
        <ele>211</ele>
        <time>2011-08-16T14:48:16Z</time>
      </trkpt>
      <trkpt lat="47.24229" lon="5.62531">
        <ele>211</ele>
        <time>2011-08-16T14:48:18Z</time>
      </trkpt>
      <trkpt lat="47.24237" lon="5.62521">
        <ele>211</ele>
        <time>2011-08-16T14:48:20Z</time>
      </trkpt>
      <trkpt lat="47.24244" lon="5.62512">
        <ele>211</ele>
        <time>2011-08-16T14:48:22Z</time>
      </trkpt>
      <trkpt lat="47.24252" lon="5.62502">
        <ele>211</ele>
        <time>2011-08-16T14:48:24Z</time>
      </trkpt>
      <trkpt lat="47.24259" lon="5.62492">
        <ele>211</ele>
        <time>2011-08-16T14:48:26Z</time>
      </trkpt>
      <trkpt lat="47.24266" lon="5.62482">
        <ele>211</ele>
        <time>2011-08-16T14:48:28Z</time>
      </trkpt>
      <trkpt lat="47.24274" lon="5.62471">
        <ele>211</ele>
        <time>2011-08-16T14:48:30Z</time>
      </trkpt>
      <trkpt lat="47.2428" lon="5.6246">
        <ele>211</ele>
        <time>2011-08-16T14:48:32Z</time>
      </trkpt>
      <trkpt lat="47.24287" lon="5.6245">
        <ele>211</ele>
        <time>2011-08-16T14:48:34Z</time>
      </trkpt>
      <trkpt lat="47.24294" lon="5.62438">
        <ele>211</ele>
        <time>2011-08-16T14:48:36Z</time>
      </trkpt>
      <trkpt lat="47.24301" lon="5.62426">
        <ele>211</ele>
        <time>2011-08-16T14:48:38Z</time>
      </trkpt>
      <trkpt lat="47.24308" lon="5.62414">
        <ele>211</ele>
        <time>2011-08-16T14:48:40Z</time>
      </trkpt>
      <trkpt lat="47.24315" lon="5.62401">
        <ele>211</ele>
        <time>2011-08-16T14:48:42Z</time>
      </trkpt>
      <trkpt lat="47.24321" lon="5.62389">
        <ele>211</ele>
        <time>2011-08-16T14:48:44Z</time>
      </trkpt>
      <trkpt lat="47.24327" lon="5.62377">
        <ele>211</ele>
        <time>2011-08-16T14:48:46Z</time>
      </trkpt>
      <trkpt lat="47.24334" lon="5.62364">
        <ele>211</ele>
        <time>2011-08-16T14:48:48Z</time>
      </trkpt>
      <trkpt lat="47.24341" lon="5.62351">
        <ele>211</ele>
        <time>2011-08-16T14:48:50Z</time>
      </trkpt>
      <trkpt lat="47.24347" lon="5.62338">
        <ele>211</ele>
        <time>2011-08-16T14:48:52Z</time>
      </trkpt>
      <trkpt lat="47.24354" lon="5.62326">
        <ele>211</ele>
        <time>2011-08-16T14:48:54Z</time>
      </trkpt>
      <trkpt lat="47.2436" lon="5.62312">
        <ele>217</ele>
        <time>2011-08-16T14:48:56Z</time>
      </trkpt>
      <trkpt lat="47.24367" lon="5.62299">
        <ele>217</ele>
        <time>2011-08-16T14:48:58Z</time>
      </trkpt>
      <trkpt lat="47.24375" lon="5.62285">
        <ele>217</ele>
        <time>2011-08-16T14:49:00Z</time>
      </trkpt>
      <trkpt lat="47.24382" lon="5.62272">
        <ele>217</ele>
        <time>2011-08-16T14:49:02Z</time>
      </trkpt>
      <trkpt lat="47.2439" lon="5.62257">
        <ele>217</ele>
        <time>2011-08-16T14:49:04Z</time>
      </trkpt>
      <trkpt lat="47.24398" lon="5.62244">
        <ele>217</ele>
        <time>2011-08-16T14:49:06Z</time>
      </trkpt>
      <trkpt lat="47.24405" lon="5.6223">
        <ele>217</ele>
        <time>2011-08-16T14:49:08Z</time>
      </trkpt>
      <trkpt lat="47.24413" lon="5.62217">
        <ele>217</ele>
        <time>2011-08-16T14:49:10Z</time>
      </trkpt>
      <trkpt lat="47.2442" lon="5.62203">
        <ele>217</ele>
        <time>2011-08-16T14:49:12Z</time>
      </trkpt>
      <trkpt lat="47.24428" lon="5.6219">
        <ele>217</ele>
        <time>2011-08-16T14:49:14Z</time>
      </trkpt>
      <trkpt lat="47.24435" lon="5.62177">
        <ele>217</ele>
        <time>2011-08-16T14:49:16Z</time>
      </trkpt>
      <trkpt lat="47.24442" lon="5.62164">
        <ele>217</ele>
        <time>2011-08-16T14:49:18Z</time>
      </trkpt>
      <trkpt lat="47.2445" lon="5.62151">
        <ele>217</ele>
        <time>2011-08-16T14:49:20Z</time>
      </trkpt>
      <trkpt lat="47.24456" lon="5.6214">
        <ele>217</ele>
        <time>2011-08-16T14:49:22Z</time>
      </trkpt>
      <trkpt lat="47.24464" lon="5.62127">
        <ele>217</ele>
        <time>2011-08-16T14:49:24Z</time>
      </trkpt>
      <trkpt lat="47.24471" lon="5.62115">
        <ele>217</ele>
        <time>2011-08-16T14:49:26Z</time>
      </trkpt>
      <trkpt lat="47.24478" lon="5.62104">
        <ele>217</ele>
        <time>2011-08-16T14:49:28Z</time>
      </trkpt>
      <trkpt lat="47.24488" lon="5.62095">
        <ele>217</ele>
        <time>2011-08-16T14:49:31Z</time>
      </trkpt>
      <trkpt lat="47.24494" lon="5.62084">
        <ele>207</ele>
        <time>2011-08-16T14:51:08Z</time>
      </trkpt>
      <trkpt lat="47.245" lon="5.62067">
        <ele>207</ele>
        <time>2011-08-16T14:51:11Z</time>
      </trkpt>
      <trkpt lat="47.24506" lon="5.62053">
        <ele>207</ele>
        <time>2011-08-16T14:51:13Z</time>
      </trkpt>
      <trkpt lat="47.24513" lon="5.62036">
        <ele>207</ele>
        <time>2011-08-16T14:51:15Z</time>
      </trkpt>
      <trkpt lat="47.24519" lon="5.62018">
        <ele>207</ele>
        <time>2011-08-16T14:51:17Z</time>
      </trkpt>
      <trkpt lat="47.24528" lon="5.61997">
        <ele>207</ele>
        <time>2011-08-16T14:51:19Z</time>
      </trkpt>
      <trkpt lat="47.24537" lon="5.61974">
        <ele>207</ele>
        <time>2011-08-16T14:51:21Z</time>
      </trkpt>
      <trkpt lat="47.24545" lon="5.61952">
        <ele>207</ele>
        <time>2011-08-16T14:51:23Z</time>
      </trkpt>
      <trkpt lat="47.24549" lon="5.6194">
        <ele>207</ele>
        <time>2011-08-16T14:51:24Z</time>
      </trkpt>
      <trkpt lat="47.24554" lon="5.61929">
        <ele>207</ele>
        <time>2011-08-16T14:51:25Z</time>
      </trkpt>
      <trkpt lat="47.2456" lon="5.61915">
        <ele>207</ele>
        <time>2011-08-16T14:51:26Z</time>
      </trkpt>
      <trkpt lat="47.24566" lon="5.61902">
        <ele>207</ele>
        <time>2011-08-16T14:51:27Z</time>
      </trkpt>
      <trkpt lat="47.24571" lon="5.61888">
        <ele>207</ele>
        <time>2011-08-16T14:51:28Z</time>
      </trkpt>
      <trkpt lat="47.24577" lon="5.61874">
        <ele>207</ele>
        <time>2011-08-16T14:51:29Z</time>
      </trkpt>
      <trkpt lat="47.24582" lon="5.6186">
        <ele>207</ele>
        <time>2011-08-16T14:51:30Z</time>
      </trkpt>
      <trkpt lat="47.24588" lon="5.61847">
        <ele>207</ele>
        <time>2011-08-16T14:51:31Z</time>
      </trkpt>
      <trkpt lat="47.24593" lon="5.61834">
        <ele>207</ele>
        <time>2011-08-16T14:51:32Z</time>
      </trkpt>
      <trkpt lat="47.24598" lon="5.61822">
        <ele>207</ele>
        <time>2011-08-16T14:51:33Z</time>
      </trkpt>
      <trkpt lat="47.24603" lon="5.61809">
        <ele>207</ele>
        <time>2011-08-16T14:51:34Z</time>
      </trkpt>
      <trkpt lat="47.24609" lon="5.61797">
        <ele>207</ele>
        <time>2011-08-16T14:51:35Z</time>
      </trkpt>
      <trkpt lat="47.24619" lon="5.61776">
        <ele>207</ele>
        <time>2011-08-16T14:51:37Z</time>
      </trkpt>
      <trkpt lat="47.24628" lon="5.61754">
        <ele>207</ele>
        <time>2011-08-16T14:51:39Z</time>
      </trkpt>
      <trkpt lat="47.24636" lon="5.61735">
        <ele>207</ele>
        <time>2011-08-16T14:51:41Z</time>
      </trkpt>
      <trkpt lat="47.24644" lon="5.61716">
        <ele>207</ele>
        <time>2011-08-16T14:51:43Z</time>
      </trkpt>
      <trkpt lat="47.24652" lon="5.61698">
        <ele>207</ele>
        <time>2011-08-16T14:51:45Z</time>
      </trkpt>
      <trkpt lat="47.24659" lon="5.61681">
        <ele>207</ele>
        <time>2011-08-16T14:51:47Z</time>
      </trkpt>
      <trkpt lat="47.24666" lon="5.61664">
        <ele>207</ele>
        <time>2011-08-16T14:51:49Z</time>
      </trkpt>
      <trkpt lat="47.24673" lon="5.61645">
        <ele>207</ele>
        <time>2011-08-16T14:51:51Z</time>
      </trkpt>
      <trkpt lat="47.24679" lon="5.61625">
        <ele>202</ele>
        <time>2011-08-16T14:51:53Z</time>
      </trkpt>
      <trkpt lat="47.24683" lon="5.61603">
        <ele>202</ele>
        <time>2011-08-16T14:51:55Z</time>
      </trkpt>
      <trkpt lat="47.24685" lon="5.61582">
        <ele>202</ele>
        <time>2011-08-16T14:51:57Z</time>
      </trkpt>
      <trkpt lat="47.24685" lon="5.61559">
        <ele>202</ele>
        <time>2011-08-16T14:51:59Z</time>
      </trkpt>
      <trkpt lat="47.24683" lon="5.61538">
        <ele>202</ele>
        <time>2011-08-16T14:52:01Z</time>
      </trkpt>
      <trkpt lat="47.24681" lon="5.61517">
        <ele>202</ele>
        <time>2011-08-16T14:52:03Z</time>
      </trkpt>
      <trkpt lat="47.24679" lon="5.61497">
        <ele>202</ele>
        <time>2011-08-16T14:52:05Z</time>
      </trkpt>
      <trkpt lat="47.24677" lon="5.61478">
        <ele>202</ele>
        <time>2011-08-16T14:52:07Z</time>
      </trkpt>
      <trkpt lat="47.24675" lon="5.61459">
        <ele>202</ele>
        <time>2011-08-16T14:52:09Z</time>
      </trkpt>
      <trkpt lat="47.24672" lon="5.61441">
        <ele>202</ele>
        <time>2011-08-16T14:52:11Z</time>
      </trkpt>
      <trkpt lat="47.24671" lon="5.61424">
        <ele>202</ele>
        <time>2011-08-16T14:52:13Z</time>
      </trkpt>
      <trkpt lat="47.24668" lon="5.61406">
        <ele>202</ele>
        <time>2011-08-16T14:52:15Z</time>
      </trkpt>
      <trkpt lat="47.24666" lon="5.61388">
        <ele>202</ele>
        <time>2011-08-16T14:52:17Z</time>
      </trkpt>
      <trkpt lat="47.24664" lon="5.61372">
        <ele>202</ele>
        <time>2011-08-16T14:52:19Z</time>
      </trkpt>
      <trkpt lat="47.24661" lon="5.61354">
        <ele>202</ele>
        <time>2011-08-16T14:52:21Z</time>
      </trkpt>
      <trkpt lat="47.24659" lon="5.61338">
        <ele>202</ele>
        <time>2011-08-16T14:52:23Z</time>
      </trkpt>
      <trkpt lat="47.24656" lon="5.6132">
        <ele>202</ele>
        <time>2011-08-16T14:52:25Z</time>
      </trkpt>
      <trkpt lat="47.24655" lon="5.61304">
        <ele>202</ele>
        <time>2011-08-16T14:52:27Z</time>
      </trkpt>
      <trkpt lat="47.24652" lon="5.61288">
        <ele>202</ele>
        <time>2011-08-16T14:52:29Z</time>
      </trkpt>
      <trkpt lat="47.2465" lon="5.61272">
        <ele>202</ele>
        <time>2011-08-16T14:52:31Z</time>
      </trkpt>
      <trkpt lat="47.24647" lon="5.61258">
        <ele>202</ele>
        <time>2011-08-16T14:52:33Z</time>
      </trkpt>
      <trkpt lat="47.24644" lon="5.61242">
        <ele>202</ele>
        <time>2011-08-16T14:52:35Z</time>
      </trkpt>
      <trkpt lat="47.24642" lon="5.61228">
        <ele>202</ele>
        <time>2011-08-16T14:52:37Z</time>
      </trkpt>
      <trkpt lat="47.2464" lon="5.61213">
        <ele>202</ele>
        <time>2011-08-16T14:52:39Z</time>
      </trkpt>
      <trkpt lat="47.24638" lon="5.61199">
        <ele>202</ele>
        <time>2011-08-16T14:52:41Z</time>
      </trkpt>
      <trkpt lat="47.24636" lon="5.61186">
        <ele>202</ele>
        <time>2011-08-16T14:52:43Z</time>
      </trkpt>
      <trkpt lat="47.24633" lon="5.61172">
        <ele>202</ele>
        <time>2011-08-16T14:52:45Z</time>
      </trkpt>
      <trkpt lat="47.2463" lon="5.61152">
        <ele>202</ele>
        <time>2011-08-16T14:52:48Z</time>
      </trkpt>
      <trkpt lat="47.24627" lon="5.61139">
        <ele>202</ele>
        <time>2011-08-16T14:52:50Z</time>
      </trkpt>
      <trkpt lat="47.24625" lon="5.61125">
        <ele>202</ele>
        <time>2011-08-16T14:52:52Z</time>
      </trkpt>
      <trkpt lat="47.24622" lon="5.6111">
        <ele>202</ele>
        <time>2011-08-16T14:52:54Z</time>
      </trkpt>
      <trkpt lat="47.24619" lon="5.61095">
        <ele>202</ele>
        <time>2011-08-16T14:52:56Z</time>
      </trkpt>
      <trkpt lat="47.24617" lon="5.61081">
        <ele>202</ele>
        <time>2011-08-16T14:52:58Z</time>
      </trkpt>
      <trkpt lat="47.24614" lon="5.61064">
        <ele>207</ele>
        <time>2011-08-16T14:53:01Z</time>
      </trkpt>
      <trkpt lat="47.24611" lon="5.61047">
        <ele>207</ele>
        <time>2011-08-16T14:53:04Z</time>
      </trkpt>
      <trkpt lat="47.24608" lon="5.61031">
        <ele>207</ele>
        <time>2011-08-16T14:53:07Z</time>
      </trkpt>
      <trkpt lat="47.24604" lon="5.61015">
        <ele>207</ele>
        <time>2011-08-16T14:53:10Z</time>
      </trkpt>
      <trkpt lat="47.24601" lon="5.60998">
        <ele>207</ele>
        <time>2011-08-16T14:53:13Z</time>
      </trkpt>
      <trkpt lat="47.24598" lon="5.60981">
        <ele>207</ele>
        <time>2011-08-16T14:53:16Z</time>
      </trkpt>
      <trkpt lat="47.24596" lon="5.60964">
        <ele>207</ele>
        <time>2011-08-16T14:53:19Z</time>
      </trkpt>
      <trkpt lat="47.24593" lon="5.60947">
        <ele>207</ele>
        <time>2011-08-16T14:53:22Z</time>
      </trkpt>
      <trkpt lat="47.24591" lon="5.6093">
        <ele>213</ele>
        <time>2011-08-16T14:53:25Z</time>
      </trkpt>
      <trkpt lat="47.2459" lon="5.60913">
        <ele>213</ele>
        <time>2011-08-16T14:53:28Z</time>
      </trkpt>
      <trkpt lat="47.24589" lon="5.60896">
        <ele>213</ele>
        <time>2011-08-16T14:53:31Z</time>
      </trkpt>
      <trkpt lat="47.24588" lon="5.60878">
        <ele>213</ele>
        <time>2011-08-16T14:53:34Z</time>
      </trkpt>
      <trkpt lat="47.24588" lon="5.60861">
        <ele>213</ele>
        <time>2011-08-16T14:53:37Z</time>
      </trkpt>
      <trkpt lat="47.24588" lon="5.60844">
        <ele>213</ele>
        <time>2011-08-16T14:53:40Z</time>
      </trkpt>
      <trkpt lat="47.24589" lon="5.60827">
        <ele>213</ele>
        <time>2011-08-16T14:53:43Z</time>
      </trkpt>
      <trkpt lat="47.24589" lon="5.6081">
        <ele>213</ele>
        <time>2011-08-16T14:53:46Z</time>
      </trkpt>
      <trkpt lat="47.2459" lon="5.60792">
        <ele>213</ele>
        <time>2011-08-16T14:53:49Z</time>
      </trkpt>
      <trkpt lat="47.24591" lon="5.60773">
        <ele>213</ele>
        <time>2011-08-16T14:53:52Z</time>
      </trkpt>
      <trkpt lat="47.24592" lon="5.60754">
        <ele>213</ele>
        <time>2011-08-16T14:53:55Z</time>
      </trkpt>
      <trkpt lat="47.24592" lon="5.6074">
        <ele>213</ele>
        <time>2011-08-16T14:53:57Z</time>
      </trkpt>
      <trkpt lat="47.24592" lon="5.60727">
        <ele>213</ele>
        <time>2011-08-16T14:53:59Z</time>
      </trkpt>
      <trkpt lat="47.24593" lon="5.60713">
        <ele>213</ele>
        <time>2011-08-16T14:54:01Z</time>
      </trkpt>
      <trkpt lat="47.24593" lon="5.60699">
        <ele>213</ele>
        <time>2011-08-16T14:54:03Z</time>
      </trkpt>
      <trkpt lat="47.24593" lon="5.60684">
        <ele>213</ele>
        <time>2011-08-16T14:54:05Z</time>
      </trkpt>
      <trkpt lat="47.24594" lon="5.60667">
        <ele>213</ele>
        <time>2011-08-16T14:54:07Z</time>
      </trkpt>
      <trkpt lat="47.24595" lon="5.60651">
        <ele>213</ele>
        <time>2011-08-16T14:54:09Z</time>
      </trkpt>
      <trkpt lat="47.24595" lon="5.60635">
        <ele>213</ele>
        <time>2011-08-16T14:54:11Z</time>
      </trkpt>
      <trkpt lat="47.24595" lon="5.60619">
        <ele>213</ele>
        <time>2011-08-16T14:54:13Z</time>
      </trkpt>
      <trkpt lat="47.24596" lon="5.60603">
        <ele>213</ele>
        <time>2011-08-16T14:54:15Z</time>
      </trkpt>
      <trkpt lat="47.24597" lon="5.60587">
        <ele>213</ele>
        <time>2011-08-16T14:54:17Z</time>
      </trkpt>
      <trkpt lat="47.24597" lon="5.60573">
        <ele>213</ele>
        <time>2011-08-16T14:54:19Z</time>
      </trkpt>
      <trkpt lat="47.24598" lon="5.60559">
        <ele>213</ele>
        <time>2011-08-16T14:54:21Z</time>
      </trkpt>
      <trkpt lat="47.24598" lon="5.60544">
        <ele>213</ele>
        <time>2011-08-16T14:54:23Z</time>
      </trkpt>
      <trkpt lat="47.24597" lon="5.6053">
        <ele>213</ele>
        <time>2011-08-16T14:54:25Z</time>
      </trkpt>
      <trkpt lat="47.24593" lon="5.60516">
        <ele>213</ele>
        <time>2011-08-16T14:54:27Z</time>
      </trkpt>
      <trkpt lat="47.24586" lon="5.60505">
        <ele>213</ele>
        <time>2011-08-16T14:54:29Z</time>
      </trkpt>
      <trkpt lat="47.24577" lon="5.60495">
        <ele>213</ele>
        <time>2011-08-16T14:54:31Z</time>
      </trkpt>
      <trkpt lat="47.24567" lon="5.60485">
        <ele>213</ele>
        <time>2011-08-16T14:54:33Z</time>
      </trkpt>
      <trkpt lat="47.24556" lon="5.60475">
        <ele>213</ele>
        <time>2011-08-16T14:54:35Z</time>
      </trkpt>
      <trkpt lat="47.24546" lon="5.60465">
        <ele>213</ele>
        <time>2011-08-16T14:54:37Z</time>
      </trkpt>
      <trkpt lat="47.24536" lon="5.60454">
        <ele>213</ele>
        <time>2011-08-16T14:54:39Z</time>
      </trkpt>
      <trkpt lat="47.24526" lon="5.60445">
        <ele>213</ele>
        <time>2011-08-16T14:54:41Z</time>
      </trkpt>
      <trkpt lat="47.24516" lon="5.60434">
        <ele>213</ele>
        <time>2011-08-16T14:54:43Z</time>
      </trkpt>
      <trkpt lat="47.24505" lon="5.60424">
        <ele>213</ele>
        <time>2011-08-16T14:54:45Z</time>
      </trkpt>
      <trkpt lat="47.24494" lon="5.60413">
        <ele>213</ele>
        <time>2011-08-16T14:54:47Z</time>
      </trkpt>
      <trkpt lat="47.24484" lon="5.60402">
        <ele>213</ele>
        <time>2011-08-16T14:54:49Z</time>
      </trkpt>
      <trkpt lat="47.24473" lon="5.60392">
        <ele>213</ele>
        <time>2011-08-16T14:54:51Z</time>
      </trkpt>
      <trkpt lat="47.24463" lon="5.60381">
        <ele>213</ele>
        <time>2011-08-16T14:54:53Z</time>
      </trkpt>
      <trkpt lat="47.24452" lon="5.60372">
        <ele>213</ele>
        <time>2011-08-16T14:54:55Z</time>
      </trkpt>
      <trkpt lat="47.24441" lon="5.60361">
        <ele>213</ele>
        <time>2011-08-16T14:54:57Z</time>
      </trkpt>
      <trkpt lat="47.2443" lon="5.6035">
        <ele>213</ele>
        <time>2011-08-16T14:54:59Z</time>
      </trkpt>
      <trkpt lat="47.24419" lon="5.60339">
        <ele>213</ele>
        <time>2011-08-16T14:55:01Z</time>
      </trkpt>
      <trkpt lat="47.24406" lon="5.60327">
        <ele>213</ele>
        <time>2011-08-16T14:55:03Z</time>
      </trkpt>
      <trkpt lat="47.24394" lon="5.60315">
        <ele>213</ele>
        <time>2011-08-16T14:55:05Z</time>
      </trkpt>
      <trkpt lat="47.24382" lon="5.60304">
        <ele>207</ele>
        <time>2011-08-16T14:55:07Z</time>
      </trkpt>
      <trkpt lat="47.2437" lon="5.60291">
        <ele>207</ele>
        <time>2011-08-16T14:55:09Z</time>
      </trkpt>
      <trkpt lat="47.24359" lon="5.60277">
        <ele>207</ele>
        <time>2011-08-16T14:55:11Z</time>
      </trkpt>
      <trkpt lat="47.24349" lon="5.60265">
        <ele>207</ele>
        <time>2011-08-16T14:55:13Z</time>
      </trkpt>
      <trkpt lat="47.24339" lon="5.60252">
        <ele>207</ele>
        <time>2011-08-16T14:55:15Z</time>
      </trkpt>
      <trkpt lat="47.2433" lon="5.6024">
        <ele>207</ele>
        <time>2011-08-16T14:55:17Z</time>
      </trkpt>
      <trkpt lat="47.24321" lon="5.60228">
        <ele>207</ele>
        <time>2011-08-16T14:55:19Z</time>
      </trkpt>
      <trkpt lat="47.24313" lon="5.60216">
        <ele>207</ele>
        <time>2011-08-16T14:55:21Z</time>
      </trkpt>
      <trkpt lat="47.24306" lon="5.60206">
        <ele>207</ele>
        <time>2011-08-16T14:55:23Z</time>
      </trkpt>
      <trkpt lat="47.24299" lon="5.60195">
        <ele>207</ele>
        <time>2011-08-16T14:55:25Z</time>
      </trkpt>
      <trkpt lat="47.24291" lon="5.60185">
        <ele>207</ele>
        <time>2011-08-16T14:55:27Z</time>
      </trkpt>
      <trkpt lat="47.24283" lon="5.60174">
        <ele>207</ele>
        <time>2011-08-16T14:55:29Z</time>
      </trkpt>
      <trkpt lat="47.24277" lon="5.60164">
        <ele>207</ele>
        <time>2011-08-16T14:55:31Z</time>
      </trkpt>
      <trkpt lat="47.24269" lon="5.60155">
        <ele>207</ele>
        <time>2011-08-16T14:55:33Z</time>
      </trkpt>
      <trkpt lat="47.24263" lon="5.60145">
        <ele>207</ele>
        <time>2011-08-16T14:55:35Z</time>
      </trkpt>
      <trkpt lat="47.24256" lon="5.60136">
        <ele>207</ele>
        <time>2011-08-16T14:55:37Z</time>
      </trkpt>
      <trkpt lat="47.24249" lon="5.60127">
        <ele>207</ele>
        <time>2011-08-16T14:55:39Z</time>
      </trkpt>
      <trkpt lat="47.24242" lon="5.60118">
        <ele>207</ele>
        <time>2011-08-16T14:55:41Z</time>
      </trkpt>
      <trkpt lat="47.24236" lon="5.60108">
        <ele>207</ele>
        <time>2011-08-16T14:55:43Z</time>
      </trkpt>
      <trkpt lat="47.24229" lon="5.60098">
        <ele>207</ele>
        <time>2011-08-16T14:55:45Z</time>
      </trkpt>
      <trkpt lat="47.24222" lon="5.60088">
        <ele>207</ele>
        <time>2011-08-16T14:55:47Z</time>
      </trkpt>
      <trkpt lat="47.24215" lon="5.60079">
        <ele>207</ele>
        <time>2011-08-16T14:55:49Z</time>
      </trkpt>
      <trkpt lat="47.24209" lon="5.60069">
        <ele>207</ele>
        <time>2011-08-16T14:55:51Z</time>
      </trkpt>
      <trkpt lat="47.24202" lon="5.60059">
        <ele>207</ele>
        <time>2011-08-16T14:55:53Z</time>
      </trkpt>
      <trkpt lat="47.24195" lon="5.6005">
        <ele>207</ele>
        <time>2011-08-16T14:55:55Z</time>
      </trkpt>
      <trkpt lat="47.24189" lon="5.6004">
        <ele>213</ele>
        <time>2011-08-16T14:55:57Z</time>
      </trkpt>
      <trkpt lat="47.24182" lon="5.60031">
        <ele>213</ele>
        <time>2011-08-16T14:55:59Z</time>
      </trkpt>
      <trkpt lat="47.24175" lon="5.60022">
        <ele>213</ele>
        <time>2011-08-16T14:56:01Z</time>
      </trkpt>
      <trkpt lat="47.24168" lon="5.60013">
        <ele>213</ele>
        <time>2011-08-16T14:56:03Z</time>
      </trkpt>
      <trkpt lat="47.24161" lon="5.60004">
        <ele>213</ele>
        <time>2011-08-16T14:56:05Z</time>
      </trkpt>
      <trkpt lat="47.24154" lon="5.59995">
        <ele>213</ele>
        <time>2011-08-16T14:56:07Z</time>
      </trkpt>
      <trkpt lat="47.24148" lon="5.59986">
        <ele>213</ele>
        <time>2011-08-16T14:56:09Z</time>
      </trkpt>
      <trkpt lat="47.2414" lon="5.59977">
        <ele>213</ele>
        <time>2011-08-16T14:56:11Z</time>
      </trkpt>
      <trkpt lat="47.24133" lon="5.59966">
        <ele>213</ele>
        <time>2011-08-16T14:56:13Z</time>
      </trkpt>
      <trkpt lat="47.24125" lon="5.59956">
        <ele>213</ele>
        <time>2011-08-16T14:56:15Z</time>
      </trkpt>
      <trkpt lat="47.24118" lon="5.59945">
        <ele>213</ele>
        <time>2011-08-16T14:56:17Z</time>
      </trkpt>
      <trkpt lat="47.2411" lon="5.59933">
        <ele>213</ele>
        <time>2011-08-16T14:56:19Z</time>
      </trkpt>
      <trkpt lat="47.24101" lon="5.59923">
        <ele>213</ele>
        <time>2011-08-16T14:56:21Z</time>
      </trkpt>
      <trkpt lat="47.24093" lon="5.59911">
        <ele>213</ele>
        <time>2011-08-16T14:56:23Z</time>
      </trkpt>
      <trkpt lat="47.24085" lon="5.59899">
        <ele>213</ele>
        <time>2011-08-16T14:56:25Z</time>
      </trkpt>
      <trkpt lat="47.24076" lon="5.59887">
        <ele>213</ele>
        <time>2011-08-16T14:56:27Z</time>
      </trkpt>
      <trkpt lat="47.24067" lon="5.59875">
        <ele>213</ele>
        <time>2011-08-16T14:56:29Z</time>
      </trkpt>
      <trkpt lat="47.24058" lon="5.59862">
        <ele>213</ele>
        <time>2011-08-16T14:56:31Z</time>
      </trkpt>
      <trkpt lat="47.24049" lon="5.5985">
        <ele>213</ele>
        <time>2011-08-16T14:56:33Z</time>
      </trkpt>
      <trkpt lat="47.2404" lon="5.59837">
        <ele>213</ele>
        <time>2011-08-16T14:56:35Z</time>
      </trkpt>
      <trkpt lat="47.24031" lon="5.59825">
        <ele>213</ele>
        <time>2011-08-16T14:56:37Z</time>
      </trkpt>
      <trkpt lat="47.24021" lon="5.59812">
        <ele>213</ele>
        <time>2011-08-16T14:56:39Z</time>
      </trkpt>
      <trkpt lat="47.24012" lon="5.598">
        <ele>213</ele>
        <time>2011-08-16T14:56:41Z</time>
      </trkpt>
      <trkpt lat="47.24003" lon="5.59787">
        <ele>213</ele>
        <time>2011-08-16T14:56:43Z</time>
      </trkpt>
      <trkpt lat="47.23994" lon="5.59774">
        <ele>213</ele>
        <time>2011-08-16T14:56:45Z</time>
      </trkpt>
      <trkpt lat="47.23984" lon="5.59759">
        <ele>213</ele>
        <time>2011-08-16T14:56:47Z</time>
      </trkpt>
      <trkpt lat="47.23974" lon="5.59746">
        <ele>213</ele>
        <time>2011-08-16T14:56:49Z</time>
      </trkpt>
      <trkpt lat="47.23964" lon="5.59732">
        <ele>213</ele>
        <time>2011-08-16T14:56:51Z</time>
      </trkpt>
      <trkpt lat="47.23954" lon="5.59718">
        <ele>213</ele>
        <time>2011-08-16T14:56:53Z</time>
      </trkpt>
      <trkpt lat="47.23944" lon="5.59704">
        <ele>213</ele>
        <time>2011-08-16T14:56:55Z</time>
      </trkpt>
      <trkpt lat="47.23934" lon="5.59691">
        <ele>213</ele>
        <time>2011-08-16T14:56:57Z</time>
      </trkpt>
      <trkpt lat="47.23924" lon="5.59677">
        <ele>213</ele>
        <time>2011-08-16T14:56:59Z</time>
      </trkpt>
      <trkpt lat="47.23914" lon="5.59662">
        <ele>213</ele>
        <time>2011-08-16T14:57:01Z</time>
      </trkpt>
      <trkpt lat="47.23903" lon="5.59649">
        <ele>213</ele>
        <time>2011-08-16T14:57:03Z</time>
      </trkpt>
      <trkpt lat="47.23894" lon="5.59634">
        <ele>213</ele>
        <time>2011-08-16T14:57:05Z</time>
      </trkpt>
      <trkpt lat="47.23884" lon="5.59621">
        <ele>213</ele>
        <time>2011-08-16T14:57:07Z</time>
      </trkpt>
      <trkpt lat="47.23874" lon="5.59607">
        <ele>213</ele>
        <time>2011-08-16T14:57:09Z</time>
      </trkpt>
      <trkpt lat="47.23864" lon="5.59594">
        <ele>213</ele>
        <time>2011-08-16T14:57:11Z</time>
      </trkpt>
      <trkpt lat="47.23854" lon="5.5958">
        <ele>213</ele>
        <time>2011-08-16T14:57:13Z</time>
      </trkpt>
      <trkpt lat="47.23844" lon="5.59566">
        <ele>213</ele>
        <time>2011-08-16T14:57:15Z</time>
      </trkpt>
      <trkpt lat="47.23834" lon="5.59552">
        <ele>213</ele>
        <time>2011-08-16T14:57:17Z</time>
      </trkpt>
      <trkpt lat="47.23824" lon="5.59536">
        <ele>213</ele>
        <time>2011-08-16T14:57:19Z</time>
      </trkpt>
      <trkpt lat="47.23815" lon="5.5952">
        <ele>213</ele>
        <time>2011-08-16T14:57:21Z</time>
      </trkpt>
      <trkpt lat="47.23806" lon="5.59503">
        <ele>213</ele>
        <time>2011-08-16T14:57:23Z</time>
      </trkpt>
      <trkpt lat="47.23798" lon="5.59484">
        <ele>213</ele>
        <time>2011-08-16T14:57:25Z</time>
      </trkpt>
      <trkpt lat="47.23791" lon="5.59465">
        <ele>213</ele>
        <time>2011-08-16T14:57:27Z</time>
      </trkpt>
      <trkpt lat="47.23784" lon="5.59445">
        <ele>213</ele>
        <time>2011-08-16T14:57:29Z</time>
      </trkpt>
      <trkpt lat="47.23777" lon="5.59424">
        <ele>213</ele>
        <time>2011-08-16T14:57:31Z</time>
      </trkpt>
      <trkpt lat="47.23771" lon="5.59404">
        <ele>213</ele>
        <time>2011-08-16T14:57:33Z</time>
      </trkpt>
      <trkpt lat="47.23764" lon="5.59385">
        <ele>213</ele>
        <time>2011-08-16T14:57:35Z</time>
      </trkpt>
      <trkpt lat="47.23758" lon="5.59367">
        <ele>213</ele>
        <time>2011-08-16T14:57:37Z</time>
      </trkpt>
      <trkpt lat="47.23752" lon="5.5935">
        <ele>213</ele>
        <time>2011-08-16T14:57:39Z</time>
      </trkpt>
      <trkpt lat="47.23746" lon="5.59336">
        <ele>213</ele>
        <time>2011-08-16T14:57:41Z</time>
      </trkpt>
      <trkpt lat="47.23739" lon="5.59323">
        <ele>213</ele>
        <time>2011-08-16T14:57:43Z</time>
      </trkpt>
      <trkpt lat="47.23732" lon="5.5931">
        <ele>213</ele>
        <time>2011-08-16T14:57:45Z</time>
      </trkpt>
      <trkpt lat="47.23724" lon="5.59299">
        <ele>213</ele>
        <time>2011-08-16T14:57:47Z</time>
      </trkpt>
      <trkpt lat="47.23716" lon="5.59289">
        <ele>213</ele>
        <time>2011-08-16T14:57:49Z</time>
      </trkpt>
      <trkpt lat="47.23706" lon="5.59279">
        <ele>213</ele>
        <time>2011-08-16T14:57:51Z</time>
      </trkpt>
      <trkpt lat="47.23697" lon="5.5927">
        <ele>213</ele>
        <time>2011-08-16T14:57:53Z</time>
      </trkpt>
      <trkpt lat="47.23687" lon="5.59262">
        <ele>213</ele>
        <time>2011-08-16T14:57:55Z</time>
      </trkpt>
      <trkpt lat="47.23678" lon="5.59252">
        <ele>213</ele>
        <time>2011-08-16T14:57:57Z</time>
      </trkpt>
      <trkpt lat="47.23667" lon="5.59242">
        <ele>213</ele>
        <time>2011-08-16T14:57:59Z</time>
      </trkpt>
      <trkpt lat="47.23657" lon="5.59231">
        <ele>213</ele>
        <time>2011-08-16T14:58:01Z</time>
      </trkpt>
      <trkpt lat="47.23646" lon="5.5922">
        <ele>213</ele>
        <time>2011-08-16T14:58:03Z</time>
      </trkpt>
      <trkpt lat="47.23635" lon="5.59208">
        <ele>213</ele>
        <time>2011-08-16T14:58:05Z</time>
      </trkpt>
      <trkpt lat="47.23626" lon="5.59194">
        <ele>213</ele>
        <time>2011-08-16T14:58:07Z</time>
      </trkpt>
      <trkpt lat="47.23616" lon="5.59178">
        <ele>213</ele>
        <time>2011-08-16T14:58:09Z</time>
      </trkpt>
      <trkpt lat="47.23607" lon="5.5916">
        <ele>213</ele>
        <time>2011-08-16T14:58:11Z</time>
      </trkpt>
      <trkpt lat="47.236" lon="5.5914">
        <ele>213</ele>
        <time>2011-08-16T14:58:13Z</time>
      </trkpt>
      <trkpt lat="47.23594" lon="5.59119">
        <ele>213</ele>
        <time>2011-08-16T14:58:15Z</time>
      </trkpt>
      <trkpt lat="47.2359" lon="5.59095">
        <ele>213</ele>
        <time>2011-08-16T14:58:17Z</time>
      </trkpt>
      <trkpt lat="47.23585" lon="5.59073">
        <ele>213</ele>
        <time>2011-08-16T14:58:19Z</time>
      </trkpt>
      <trkpt lat="47.23581" lon="5.59049">
        <ele>213</ele>
        <time>2011-08-16T14:58:21Z</time>
      </trkpt>
      <trkpt lat="47.23577" lon="5.59027">
        <ele>213</ele>
        <time>2011-08-16T14:58:23Z</time>
      </trkpt>
      <trkpt lat="47.23574" lon="5.59005">
        <ele>213</ele>
        <time>2011-08-16T14:58:25Z</time>
      </trkpt>
      <trkpt lat="47.2357" lon="5.58984">
        <ele>213</ele>
        <time>2011-08-16T14:58:27Z</time>
      </trkpt>
      <trkpt lat="47.23566" lon="5.58962">
        <ele>213</ele>
        <time>2011-08-16T14:58:29Z</time>
      </trkpt>
      <trkpt lat="47.23563" lon="5.58942">
        <ele>213</ele>
        <time>2011-08-16T14:58:31Z</time>
      </trkpt>
      <trkpt lat="47.23559" lon="5.58921">
        <ele>213</ele>
        <time>2011-08-16T14:58:33Z</time>
      </trkpt>
      <trkpt lat="47.23555" lon="5.589">
        <ele>213</ele>
        <time>2011-08-16T14:58:35Z</time>
      </trkpt>
      <trkpt lat="47.23552" lon="5.58881">
        <ele>213</ele>
        <time>2011-08-16T14:58:37Z</time>
      </trkpt>
      <trkpt lat="47.23548" lon="5.58861">
        <ele>213</ele>
        <time>2011-08-16T14:58:39Z</time>
      </trkpt>
      <trkpt lat="47.23544" lon="5.58841">
        <ele>213</ele>
        <time>2011-08-16T14:58:41Z</time>
      </trkpt>
      <trkpt lat="47.23539" lon="5.58821">
        <ele>213</ele>
        <time>2011-08-16T14:58:43Z</time>
      </trkpt>
      <trkpt lat="47.23534" lon="5.58802">
        <ele>213</ele>
        <time>2011-08-16T14:58:45Z</time>
      </trkpt>
      <trkpt lat="47.2353" lon="5.58784">
        <ele>213</ele>
        <time>2011-08-16T14:58:47Z</time>
      </trkpt>
      <trkpt lat="47.23525" lon="5.58766">
        <ele>213</ele>
        <time>2011-08-16T14:58:49Z</time>
      </trkpt>
      <trkpt lat="47.2352" lon="5.58749">
        <ele>213</ele>
        <time>2011-08-16T14:58:51Z</time>
      </trkpt>
      <trkpt lat="47.23516" lon="5.58731">
        <ele>213</ele>
        <time>2011-08-16T14:58:53Z</time>
      </trkpt>
      <trkpt lat="47.23511" lon="5.58713">
        <ele>213</ele>
        <time>2011-08-16T14:58:55Z</time>
      </trkpt>
      <trkpt lat="47.23506" lon="5.58695">
        <ele>213</ele>
        <time>2011-08-16T14:58:57Z</time>
      </trkpt>
      <trkpt lat="47.23502" lon="5.58677">
        <ele>213</ele>
        <time>2011-08-16T14:58:59Z</time>
      </trkpt>
      <trkpt lat="47.23497" lon="5.58659">
        <ele>213</ele>
        <time>2011-08-16T14:59:01Z</time>
      </trkpt>
      <trkpt lat="47.23493" lon="5.58642">
        <ele>213</ele>
        <time>2011-08-16T14:59:03Z</time>
      </trkpt>
      <trkpt lat="47.23489" lon="5.58624">
        <ele>213</ele>
        <time>2011-08-16T14:59:05Z</time>
      </trkpt>
      <trkpt lat="47.23484" lon="5.58606">
        <ele>213</ele>
        <time>2011-08-16T14:59:07Z</time>
      </trkpt>
      <trkpt lat="47.23479" lon="5.58588">
        <ele>213</ele>
        <time>2011-08-16T14:59:09Z</time>
      </trkpt>
      <trkpt lat="47.23475" lon="5.58569">
        <ele>213</ele>
        <time>2011-08-16T14:59:11Z</time>
      </trkpt>
      <trkpt lat="47.23469" lon="5.58549">
        <ele>213</ele>
        <time>2011-08-16T14:59:13Z</time>
      </trkpt>
      <trkpt lat="47.23464" lon="5.5853">
        <ele>213</ele>
        <time>2011-08-16T14:59:15Z</time>
      </trkpt>
      <trkpt lat="47.23459" lon="5.58511">
        <ele>213</ele>
        <time>2011-08-16T14:59:17Z</time>
      </trkpt>
      <trkpt lat="47.23453" lon="5.58491">
        <ele>213</ele>
        <time>2011-08-16T14:59:19Z</time>
      </trkpt>
      <trkpt lat="47.23445" lon="5.5847">
        <ele>213</ele>
        <time>2011-08-16T14:59:21Z</time>
      </trkpt>
      <trkpt lat="47.23438" lon="5.58449">
        <ele>213</ele>
        <time>2011-08-16T14:59:23Z</time>
      </trkpt>
      <trkpt lat="47.23431" lon="5.58427">
        <ele>213</ele>
        <time>2011-08-16T14:59:25Z</time>
      </trkpt>
      <trkpt lat="47.23424" lon="5.58405">
        <ele>213</ele>
        <time>2011-08-16T14:59:27Z</time>
      </trkpt>
      <trkpt lat="47.23416" lon="5.58385">
        <ele>213</ele>
        <time>2011-08-16T14:59:29Z</time>
      </trkpt>
      <trkpt lat="47.23409" lon="5.58364">
        <ele>213</ele>
        <time>2011-08-16T14:59:31Z</time>
      </trkpt>
      <trkpt lat="47.23402" lon="5.58343">
        <ele>213</ele>
        <time>2011-08-16T14:59:33Z</time>
      </trkpt>
      <trkpt lat="47.23396" lon="5.58324">
        <ele>213</ele>
        <time>2011-08-16T14:59:35Z</time>
      </trkpt>
      <trkpt lat="47.23389" lon="5.58305">
        <ele>213</ele>
        <time>2011-08-16T14:59:37Z</time>
      </trkpt>
      <trkpt lat="47.23382" lon="5.58287">
        <ele>213</ele>
        <time>2011-08-16T14:59:39Z</time>
      </trkpt>
      <trkpt lat="47.23376" lon="5.58268">
        <ele>213</ele>
        <time>2011-08-16T14:59:41Z</time>
      </trkpt>
      <trkpt lat="47.2337" lon="5.5825">
        <ele>213</ele>
        <time>2011-08-16T14:59:43Z</time>
      </trkpt>
      <trkpt lat="47.23364" lon="5.58231">
        <ele>213</ele>
        <time>2011-08-16T14:59:45Z</time>
      </trkpt>
      <trkpt lat="47.23359" lon="5.58211">
        <ele>213</ele>
        <time>2011-08-16T14:59:47Z</time>
      </trkpt>
      <trkpt lat="47.23354" lon="5.58192">
        <ele>213</ele>
        <time>2011-08-16T14:59:49Z</time>
      </trkpt>
      <trkpt lat="47.2335" lon="5.58171">
        <ele>213</ele>
        <time>2011-08-16T14:59:51Z</time>
      </trkpt>
      <trkpt lat="47.23347" lon="5.58149">
        <ele>213</ele>
        <time>2011-08-16T14:59:53Z</time>
      </trkpt>
      <trkpt lat="47.23347" lon="5.58129">
        <ele>213</ele>
        <time>2011-08-16T14:59:55Z</time>
      </trkpt>
      <trkpt lat="47.23347" lon="5.58107">
        <ele>213</ele>
        <time>2011-08-16T14:59:57Z</time>
      </trkpt>
      <trkpt lat="47.23348" lon="5.58087">
        <ele>213</ele>
        <time>2011-08-16T14:59:59Z</time>
      </trkpt>
      <trkpt lat="47.2335" lon="5.58065">
        <ele>213</ele>
        <time>2011-08-16T15:00:01Z</time>
      </trkpt>
      <trkpt lat="47.23352" lon="5.58043">
        <ele>213</ele>
        <time>2011-08-16T15:00:03Z</time>
      </trkpt>
      <trkpt lat="47.23354" lon="5.58022">
        <ele>213</ele>
        <time>2011-08-16T15:00:05Z</time>
      </trkpt>
      <trkpt lat="47.23357" lon="5.58001">
        <ele>213</ele>
        <time>2011-08-16T15:00:07Z</time>
      </trkpt>
      <trkpt lat="47.23361" lon="5.5798">
        <ele>213</ele>
        <time>2011-08-16T15:00:09Z</time>
      </trkpt>
      <trkpt lat="47.23364" lon="5.5796">
        <ele>208</ele>
        <time>2011-08-16T15:00:11Z</time>
      </trkpt>
      <trkpt lat="47.23368" lon="5.57939">
        <ele>208</ele>
        <time>2011-08-16T15:00:13Z</time>
      </trkpt>
      <trkpt lat="47.23372" lon="5.57919">
        <ele>208</ele>
        <time>2011-08-16T15:00:15Z</time>
      </trkpt>
      <trkpt lat="47.23375" lon="5.57898">
        <ele>208</ele>
        <time>2011-08-16T15:00:17Z</time>
      </trkpt>
      <trkpt lat="47.23378" lon="5.57876">
        <ele>208</ele>
        <time>2011-08-16T15:00:19Z</time>
      </trkpt>
      <trkpt lat="47.23382" lon="5.57854">
        <ele>208</ele>
        <time>2011-08-16T15:00:21Z</time>
      </trkpt>
      <trkpt lat="47.23385" lon="5.57831">
        <ele>208</ele>
        <time>2011-08-16T15:00:23Z</time>
      </trkpt>
      <trkpt lat="47.23386" lon="5.57807">
        <ele>208</ele>
        <time>2011-08-16T15:00:25Z</time>
      </trkpt>
      <trkpt lat="47.23386" lon="5.57782">
        <ele>208</ele>
        <time>2011-08-16T15:00:27Z</time>
      </trkpt>
      <trkpt lat="47.23385" lon="5.57759">
        <ele>208</ele>
        <time>2011-08-16T15:00:29Z</time>
      </trkpt>
      <trkpt lat="47.23383" lon="5.57735">
        <ele>208</ele>
        <time>2011-08-16T15:00:31Z</time>
      </trkpt>
      <trkpt lat="47.2338" lon="5.57715">
        <ele>208</ele>
        <time>2011-08-16T15:00:33Z</time>
      </trkpt>
      <trkpt lat="47.23377" lon="5.57694">
        <ele>208</ele>
        <time>2011-08-16T15:00:35Z</time>
      </trkpt>
      <trkpt lat="47.23375" lon="5.57674">
        <ele>208</ele>
        <time>2011-08-16T15:00:37Z</time>
      </trkpt>
      <trkpt lat="47.23372" lon="5.57654">
        <ele>208</ele>
        <time>2011-08-16T15:00:39Z</time>
      </trkpt>
      <trkpt lat="47.23369" lon="5.57635">
        <ele>208</ele>
        <time>2011-08-16T15:00:41Z</time>
      </trkpt>
      <trkpt lat="47.23367" lon="5.57614">
        <ele>208</ele>
        <time>2011-08-16T15:00:43Z</time>
      </trkpt>
      <trkpt lat="47.23365" lon="5.57595">
        <ele>208</ele>
        <time>2011-08-16T15:00:45Z</time>
      </trkpt>
      <trkpt lat="47.23363" lon="5.57577">
        <ele>208</ele>
        <time>2011-08-16T15:00:47Z</time>
      </trkpt>
      <trkpt lat="47.2336" lon="5.57559">
        <ele>208</ele>
        <time>2011-08-16T15:00:49Z</time>
      </trkpt>
      <trkpt lat="47.23358" lon="5.57542">
        <ele>208</ele>
        <time>2011-08-16T15:00:51Z</time>
      </trkpt>
      <trkpt lat="47.23356" lon="5.57526">
        <ele>208</ele>
        <time>2011-08-16T15:00:53Z</time>
      </trkpt>
      <trkpt lat="47.23353" lon="5.5751">
        <ele>208</ele>
        <time>2011-08-16T15:00:55Z</time>
      </trkpt>
      <trkpt lat="47.23351" lon="5.57495">
        <ele>208</ele>
        <time>2011-08-16T15:00:57Z</time>
      </trkpt>
      <trkpt lat="47.23349" lon="5.57479">
        <ele>208</ele>
        <time>2011-08-16T15:00:59Z</time>
      </trkpt>
      <trkpt lat="47.23347" lon="5.57465">
        <ele>208</ele>
        <time>2011-08-16T15:01:01Z</time>
      </trkpt>
      <trkpt lat="47.23345" lon="5.5745">
        <ele>208</ele>
        <time>2011-08-16T15:01:03Z</time>
      </trkpt>
      <trkpt lat="47.23344" lon="5.57435">
        <ele>208</ele>
        <time>2011-08-16T15:01:05Z</time>
      </trkpt>
      <trkpt lat="47.23342" lon="5.5742">
        <ele>208</ele>
        <time>2011-08-16T15:01:07Z</time>
      </trkpt>
      <trkpt lat="47.23339" lon="5.57405">
        <ele>208</ele>
        <time>2011-08-16T15:01:09Z</time>
      </trkpt>
      <trkpt lat="47.23337" lon="5.57389">
        <ele>208</ele>
        <time>2011-08-16T15:01:11Z</time>
      </trkpt>
      <trkpt lat="47.23335" lon="5.57371">
        <ele>208</ele>
        <time>2011-08-16T15:01:13Z</time>
      </trkpt>
      <trkpt lat="47.23333" lon="5.57354">
        <ele>208</ele>
        <time>2011-08-16T15:01:15Z</time>
      </trkpt>
      <trkpt lat="47.23331" lon="5.57337">
        <ele>208</ele>
        <time>2011-08-16T15:01:17Z</time>
      </trkpt>
      <trkpt lat="47.23328" lon="5.5732">
        <ele>208</ele>
        <time>2011-08-16T15:01:19Z</time>
      </trkpt>
      <trkpt lat="47.23326" lon="5.57305">
        <ele>213</ele>
        <time>2011-08-16T15:01:21Z</time>
      </trkpt>
      <trkpt lat="47.23325" lon="5.57289">
        <ele>213</ele>
        <time>2011-08-16T15:01:23Z</time>
      </trkpt>
      <trkpt lat="47.23322" lon="5.57274">
        <ele>213</ele>
        <time>2011-08-16T15:01:25Z</time>
      </trkpt>
      <trkpt lat="47.2332" lon="5.57257">
        <ele>213</ele>
        <time>2011-08-16T15:01:27Z</time>
      </trkpt>
      <trkpt lat="47.23318" lon="5.57241">
        <ele>213</ele>
        <time>2011-08-16T15:01:29Z</time>
      </trkpt>
      <trkpt lat="47.23315" lon="5.57224">
        <ele>213</ele>
        <time>2011-08-16T15:01:31Z</time>
      </trkpt>
      <trkpt lat="47.23313" lon="5.57208">
        <ele>213</ele>
        <time>2011-08-16T15:01:33Z</time>
      </trkpt>
      <trkpt lat="47.2331" lon="5.57192">
        <ele>213</ele>
        <time>2011-08-16T15:01:35Z</time>
      </trkpt>
      <trkpt lat="47.23307" lon="5.57174">
        <ele>213</ele>
        <time>2011-08-16T15:01:37Z</time>
      </trkpt>
      <trkpt lat="47.23304" lon="5.57157">
        <ele>213</ele>
        <time>2011-08-16T15:01:39Z</time>
      </trkpt>
      <trkpt lat="47.23302" lon="5.57139">
        <ele>213</ele>
        <time>2011-08-16T15:01:41Z</time>
      </trkpt>
      <trkpt lat="47.23299" lon="5.57121">
        <ele>213</ele>
        <time>2011-08-16T15:01:43Z</time>
      </trkpt>
      <trkpt lat="47.23296" lon="5.57104">
        <ele>213</ele>
        <time>2011-08-16T15:01:45Z</time>
      </trkpt>
      <trkpt lat="47.23293" lon="5.57086">
        <ele>213</ele>
        <time>2011-08-16T15:01:47Z</time>
      </trkpt>
      <trkpt lat="47.23289" lon="5.57068">
        <ele>213</ele>
        <time>2011-08-16T15:01:49Z</time>
      </trkpt>
      <trkpt lat="47.23284" lon="5.57051">
        <ele>213</ele>
        <time>2011-08-16T15:01:51Z</time>
      </trkpt>
      <trkpt lat="47.23279" lon="5.57035">
        <ele>213</ele>
        <time>2011-08-16T15:01:53Z</time>
      </trkpt>
      <trkpt lat="47.23274" lon="5.57018">
        <ele>213</ele>
        <time>2011-08-16T15:01:55Z</time>
      </trkpt>
      <trkpt lat="47.2327" lon="5.57002">
        <ele>213</ele>
        <time>2011-08-16T15:01:57Z</time>
      </trkpt>
      <trkpt lat="47.23265" lon="5.56987">
        <ele>213</ele>
        <time>2011-08-16T15:01:59Z</time>
      </trkpt>
      <trkpt lat="47.23262" lon="5.56971">
        <ele>213</ele>
        <time>2011-08-16T15:02:01Z</time>
      </trkpt>
      <trkpt lat="47.23258" lon="5.56956">
        <ele>213</ele>
        <time>2011-08-16T15:02:03Z</time>
      </trkpt>
      <trkpt lat="47.23255" lon="5.56938">
        <ele>213</ele>
        <time>2011-08-16T15:02:05Z</time>
      </trkpt>
      <trkpt lat="47.23252" lon="5.56922">
        <ele>213</ele>
        <time>2011-08-16T15:02:07Z</time>
      </trkpt>
      <trkpt lat="47.23249" lon="5.56907">
        <ele>213</ele>
        <time>2011-08-16T15:02:09Z</time>
      </trkpt>
      <trkpt lat="47.23246" lon="5.56892">
        <ele>213</ele>
        <time>2011-08-16T15:02:11Z</time>
      </trkpt>
      <trkpt lat="47.23243" lon="5.56876">
        <ele>213</ele>
        <time>2011-08-16T15:02:13Z</time>
      </trkpt>
      <trkpt lat="47.2324" lon="5.56863">
        <ele>213</ele>
        <time>2011-08-16T15:02:15Z</time>
      </trkpt>
      <trkpt lat="47.23237" lon="5.5685">
        <ele>213</ele>
        <time>2011-08-16T15:02:17Z</time>
      </trkpt>
      <trkpt lat="47.23233" lon="5.56836">
        <ele>213</ele>
        <time>2011-08-16T15:02:19Z</time>
      </trkpt>
      <trkpt lat="47.2323" lon="5.56823">
        <ele>213</ele>
        <time>2011-08-16T15:02:21Z</time>
      </trkpt>
      <trkpt lat="47.23227" lon="5.56809">
        <ele>213</ele>
        <time>2011-08-16T15:02:23Z</time>
      </trkpt>
      <trkpt lat="47.23224" lon="5.56796">
        <ele>213</ele>
        <time>2011-08-16T15:02:25Z</time>
      </trkpt>
      <trkpt lat="47.23218" lon="5.56779">
        <ele>213</ele>
        <time>2011-08-16T15:02:28Z</time>
      </trkpt>
      <trkpt lat="47.2321" lon="5.56769">
        <ele>213</ele>
        <time>2011-08-16T15:02:31Z</time>
      </trkpt>
      <trkpt lat="47.23199" lon="5.56772">
        <ele>213</ele>
        <time>2011-08-16T15:02:34Z</time>
      </trkpt>
      <trkpt lat="47.23187" lon="5.56782">
        <ele>213</ele>
        <time>2011-08-16T15:02:37Z</time>
      </trkpt>
      <trkpt lat="47.23179" lon="5.56791">
        <ele>213</ele>
        <time>2011-08-16T15:02:39Z</time>
      </trkpt>
      <trkpt lat="47.2317" lon="5.568">
        <ele>213</ele>
        <time>2011-08-16T15:02:41Z</time>
      </trkpt>
      <trkpt lat="47.23162" lon="5.56809">
        <ele>213</ele>
        <time>2011-08-16T15:02:43Z</time>
      </trkpt>
      <trkpt lat="47.23153" lon="5.56818">
        <ele>213</ele>
        <time>2011-08-16T15:02:45Z</time>
      </trkpt>
      <trkpt lat="47.23146" lon="5.56828">
        <ele>213</ele>
        <time>2011-08-16T15:02:47Z</time>
      </trkpt>
      <trkpt lat="47.23139" lon="5.56836">
        <ele>213</ele>
        <time>2011-08-16T15:02:49Z</time>
      </trkpt>
      <trkpt lat="47.23128" lon="5.56848">
        <ele>213</ele>
        <time>2011-08-16T15:02:52Z</time>
      </trkpt>
      <trkpt lat="47.2312" lon="5.56856">
        <ele>213</ele>
        <time>2011-08-16T15:02:54Z</time>
      </trkpt>
      <trkpt lat="47.23109" lon="5.56867">
        <ele>213</ele>
        <time>2011-08-16T15:02:57Z</time>
      </trkpt>
      <trkpt lat="47.23103" lon="5.56876">
        <ele>213</ele>
        <time>2011-08-16T15:02:59Z</time>
      </trkpt>
      <trkpt lat="47.23092" lon="5.56883">
        <ele>213</ele>
        <time>2011-08-16T15:03:02Z</time>
      </trkpt>
      <trkpt lat="47.23084" lon="5.56869">
        <ele>213</ele>
        <time>2011-08-16T15:03:05Z</time>
      </trkpt>
      <trkpt lat="47.2308" lon="5.56856">
        <ele>213</ele>
        <time>2011-08-16T15:03:07Z</time>
      </trkpt>
      <trkpt lat="47.23077" lon="5.56842">
        <ele>213</ele>
        <time>2011-08-16T15:03:09Z</time>
      </trkpt>
      <trkpt lat="47.23073" lon="5.56829">
        <ele>213</ele>
        <time>2011-08-16T15:03:11Z</time>
      </trkpt>
      <trkpt lat="47.23068" lon="5.56814">
        <ele>213</ele>
        <time>2011-08-16T15:03:13Z</time>
      </trkpt>
      <trkpt lat="47.23064" lon="5.56801">
        <ele>213</ele>
        <time>2011-08-16T15:03:15Z</time>
      </trkpt>
      <trkpt lat="47.2306" lon="5.56788">
        <ele>213</ele>
        <time>2011-08-16T15:03:17Z</time>
      </trkpt>
      <trkpt lat="47.23055" lon="5.56773">
        <ele>213</ele>
        <time>2011-08-16T15:03:19Z</time>
      </trkpt>
      <trkpt lat="47.23052" lon="5.5676">
        <ele>213</ele>
        <time>2011-08-16T15:03:21Z</time>
      </trkpt>
      <trkpt lat="47.2305" lon="5.56744">
        <ele>213</ele>
        <time>2011-08-16T15:03:23Z</time>
      </trkpt>
      <trkpt lat="47.23049" lon="5.5673">
        <ele>213</ele>
        <time>2011-08-16T15:03:25Z</time>
      </trkpt>
      <trkpt lat="47.23046" lon="5.56717">
        <ele>213</ele>
        <time>2011-08-16T15:03:27Z</time>
      </trkpt>
      <trkpt lat="47.23043" lon="5.56702">
        <ele>213</ele>
        <time>2011-08-16T15:03:29Z</time>
      </trkpt>
      <trkpt lat="47.23041" lon="5.56683">
        <ele>213</ele>
        <time>2011-08-16T15:03:32Z</time>
      </trkpt>
      <trkpt lat="47.23035" lon="5.5667">
        <ele>218</ele>
        <time>2011-08-16T15:03:35Z</time>
      </trkpt>
      <trkpt lat="47.23027" lon="5.56659">
        <ele>218</ele>
        <time>2011-08-16T15:03:38Z</time>
      </trkpt>
      <trkpt lat="47.23017" lon="5.56653">
        <ele>218</ele>
        <time>2011-08-16T15:03:41Z</time>
      </trkpt>
      <trkpt lat="47.23008" lon="5.56647">
        <ele>218</ele>
        <time>2011-08-16T15:03:44Z</time>
      </trkpt>
      <trkpt lat="47.22999" lon="5.56643">
        <ele>218</ele>
        <time>2011-08-16T15:03:47Z</time>
      </trkpt>
      <trkpt lat="47.22989" lon="5.56639">
        <ele>224</ele>
        <time>2011-08-16T15:03:50Z</time>
      </trkpt>
      <trkpt lat="47.2298" lon="5.56636">
        <ele>224</ele>
        <time>2011-08-16T15:03:53Z</time>
      </trkpt>
      <trkpt lat="47.2297" lon="5.56634">
        <ele>224</ele>
        <time>2011-08-16T15:03:56Z</time>
      </trkpt>
      <trkpt lat="47.2296" lon="5.56632">
        <ele>224</ele>
        <time>2011-08-16T15:03:59Z</time>
      </trkpt>
      <trkpt lat="47.22949" lon="5.5663">
        <ele>224</ele>
        <time>2011-08-16T15:04:02Z</time>
      </trkpt>
      <trkpt lat="47.22937" lon="5.56629">
        <ele>224</ele>
        <time>2011-08-16T15:04:05Z</time>
      </trkpt>
      <trkpt lat="47.22926" lon="5.56628">
        <ele>224</ele>
        <time>2011-08-16T15:04:08Z</time>
      </trkpt>
      <trkpt lat="47.22914" lon="5.56627">
        <ele>224</ele>
        <time>2011-08-16T15:04:11Z</time>
      </trkpt>
      <trkpt lat="47.22902" lon="5.56627">
        <ele>224</ele>
        <time>2011-08-16T15:04:14Z</time>
      </trkpt>
      <trkpt lat="47.22891" lon="5.56627">
        <ele>224</ele>
        <time>2011-08-16T15:04:17Z</time>
      </trkpt>
      <trkpt lat="47.2288" lon="5.56628">
        <ele>224</ele>
        <time>2011-08-16T15:04:20Z</time>
      </trkpt>
      <trkpt lat="47.22868" lon="5.56629">
        <ele>224</ele>
        <time>2011-08-16T15:04:23Z</time>
      </trkpt>
      <trkpt lat="47.22856" lon="5.56631">
        <ele>224</ele>
        <time>2011-08-16T15:04:26Z</time>
      </trkpt>
      <trkpt lat="47.22844" lon="5.56632">
        <ele>224</ele>
        <time>2011-08-16T15:04:29Z</time>
      </trkpt>
      <trkpt lat="47.22833" lon="5.56634">
        <ele>224</ele>
        <time>2011-08-16T15:04:32Z</time>
      </trkpt>
      <trkpt lat="47.22822" lon="5.56636">
        <ele>224</ele>
        <time>2011-08-16T15:04:35Z</time>
      </trkpt>
      <trkpt lat="47.22811" lon="5.56638">
        <ele>224</ele>
        <time>2011-08-16T15:04:38Z</time>
      </trkpt>
      <trkpt lat="47.228" lon="5.56638">
        <ele>224</ele>
        <time>2011-08-16T15:04:41Z</time>
      </trkpt>
      <trkpt lat="47.22789" lon="5.5664">
        <ele>224</ele>
        <time>2011-08-16T15:04:44Z</time>
      </trkpt>
      <trkpt lat="47.22778" lon="5.5664">
        <ele>224</ele>
        <time>2011-08-16T15:04:47Z</time>
      </trkpt>
      <trkpt lat="47.22766" lon="5.56639">
        <ele>224</ele>
        <time>2011-08-16T15:04:50Z</time>
      </trkpt>
      <trkpt lat="47.22754" lon="5.56637">
        <ele>224</ele>
        <time>2011-08-16T15:04:53Z</time>
      </trkpt>
      <trkpt lat="47.22741" lon="5.56632">
        <ele>224</ele>
        <time>2011-08-16T15:04:56Z</time>
      </trkpt>
      <trkpt lat="47.22732" lon="5.56628">
        <ele>224</ele>
        <time>2011-08-16T15:04:58Z</time>
      </trkpt>
      <trkpt lat="47.22723" lon="5.56621">
        <ele>224</ele>
        <time>2011-08-16T15:05:00Z</time>
      </trkpt>
      <trkpt lat="47.22714" lon="5.56615">
        <ele>224</ele>
        <time>2011-08-16T15:05:02Z</time>
      </trkpt>
      <trkpt lat="47.22705" lon="5.56608">
        <ele>224</ele>
        <time>2011-08-16T15:05:04Z</time>
      </trkpt>
      <trkpt lat="47.22696" lon="5.566">
        <ele>224</ele>
        <time>2011-08-16T15:05:06Z</time>
      </trkpt>
      <trkpt lat="47.22687" lon="5.5659">
        <ele>224</ele>
        <time>2011-08-16T15:05:08Z</time>
      </trkpt>
      <trkpt lat="47.22678" lon="5.56578">
        <ele>224</ele>
        <time>2011-08-16T15:05:10Z</time>
      </trkpt>
      <trkpt lat="47.2267" lon="5.56566">
        <ele>224</ele>
        <time>2011-08-16T15:05:12Z</time>
      </trkpt>
      <trkpt lat="47.22663" lon="5.56554">
        <ele>224</ele>
        <time>2011-08-16T15:05:14Z</time>
      </trkpt>
      <trkpt lat="47.22655" lon="5.56541">
        <ele>224</ele>
        <time>2011-08-16T15:05:16Z</time>
      </trkpt>
      <trkpt lat="47.22646" lon="5.56526">
        <ele>224</ele>
        <time>2011-08-16T15:05:18Z</time>
      </trkpt>
      <trkpt lat="47.22637" lon="5.56513">
        <ele>224</ele>
        <time>2011-08-16T15:05:20Z</time>
      </trkpt>
      <trkpt lat="47.22629" lon="5.56498">
        <ele>224</ele>
        <time>2011-08-16T15:05:22Z</time>
      </trkpt>
      <trkpt lat="47.2262" lon="5.56486">
        <ele>224</ele>
        <time>2011-08-16T15:05:24Z</time>
      </trkpt>
      <trkpt lat="47.22612" lon="5.56473">
        <ele>224</ele>
        <time>2011-08-16T15:05:26Z</time>
      </trkpt>
      <trkpt lat="47.22603" lon="5.56461">
        <ele>224</ele>
        <time>2011-08-16T15:05:28Z</time>
      </trkpt>
      <trkpt lat="47.22595" lon="5.56449">
        <ele>224</ele>
        <time>2011-08-16T15:05:30Z</time>
      </trkpt>
      <trkpt lat="47.22586" lon="5.56437">
        <ele>224</ele>
        <time>2011-08-16T15:05:32Z</time>
      </trkpt>
      <trkpt lat="47.22577" lon="5.56426">
        <ele>224</ele>
        <time>2011-08-16T15:05:34Z</time>
      </trkpt>
      <trkpt lat="47.22569" lon="5.56414">
        <ele>224</ele>
        <time>2011-08-16T15:05:36Z</time>
      </trkpt>
      <trkpt lat="47.2256" lon="5.56402">
        <ele>224</ele>
        <time>2011-08-16T15:05:38Z</time>
      </trkpt>
      <trkpt lat="47.22552" lon="5.5639">
        <ele>224</ele>
        <time>2011-08-16T15:05:40Z</time>
      </trkpt>
      <trkpt lat="47.22543" lon="5.56379">
        <ele>224</ele>
        <time>2011-08-16T15:05:42Z</time>
      </trkpt>
      <trkpt lat="47.22535" lon="5.56369">
        <ele>224</ele>
        <time>2011-08-16T15:05:44Z</time>
      </trkpt>
      <trkpt lat="47.22526" lon="5.56358">
        <ele>224</ele>
        <time>2011-08-16T15:05:46Z</time>
      </trkpt>
      <trkpt lat="47.22518" lon="5.56349">
        <ele>224</ele>
        <time>2011-08-16T15:05:48Z</time>
      </trkpt>
      <trkpt lat="47.22508" lon="5.56339">
        <ele>224</ele>
        <time>2011-08-16T15:05:50Z</time>
      </trkpt>
      <trkpt lat="47.225" lon="5.56331">
        <ele>224</ele>
        <time>2011-08-16T15:05:52Z</time>
      </trkpt>
      <trkpt lat="47.22492" lon="5.56323">
        <ele>224</ele>
        <time>2011-08-16T15:05:54Z</time>
      </trkpt>
      <trkpt lat="47.22484" lon="5.56315">
        <ele>224</ele>
        <time>2011-08-16T15:05:56Z</time>
      </trkpt>
      <trkpt lat="47.22476" lon="5.56305">
        <ele>224</ele>
        <time>2011-08-16T15:05:58Z</time>
      </trkpt>
      <trkpt lat="47.22467" lon="5.56296">
        <ele>224</ele>
        <time>2011-08-16T15:06:00Z</time>
      </trkpt>
      <trkpt lat="47.22459" lon="5.56286">
        <ele>224</ele>
        <time>2011-08-16T15:06:02Z</time>
      </trkpt>
      <trkpt lat="47.22451" lon="5.56276">
        <ele>224</ele>
        <time>2011-08-16T15:06:04Z</time>
      </trkpt>
      <trkpt lat="47.22443" lon="5.56267">
        <ele>224</ele>
        <time>2011-08-16T15:06:06Z</time>
      </trkpt>
      <trkpt lat="47.22435" lon="5.56258">
        <ele>224</ele>
        <time>2011-08-16T15:06:08Z</time>
      </trkpt>
      <trkpt lat="47.22427" lon="5.56248">
        <ele>224</ele>
        <time>2011-08-16T15:06:10Z</time>
      </trkpt>
      <trkpt lat="47.2242" lon="5.56238">
        <ele>224</ele>
        <time>2011-08-16T15:06:12Z</time>
      </trkpt>
      <trkpt lat="47.22412" lon="5.56228">
        <ele>224</ele>
        <time>2011-08-16T15:06:14Z</time>
      </trkpt>
      <trkpt lat="47.22405" lon="5.56218">
        <ele>224</ele>
        <time>2011-08-16T15:06:16Z</time>
      </trkpt>
      <trkpt lat="47.22398" lon="5.56207">
        <ele>224</ele>
        <time>2011-08-16T15:06:18Z</time>
      </trkpt>
      <trkpt lat="47.22391" lon="5.56196">
        <ele>224</ele>
        <time>2011-08-16T15:06:20Z</time>
      </trkpt>
      <trkpt lat="47.22384" lon="5.56187">
        <ele>224</ele>
        <time>2011-08-16T15:06:22Z</time>
      </trkpt>
      <trkpt lat="47.22376" lon="5.56173">
        <ele>229</ele>
        <time>2011-08-16T15:06:25Z</time>
      </trkpt>
      <trkpt lat="47.22368" lon="5.56161">
        <ele>229</ele>
        <time>2011-08-16T15:06:28Z</time>
      </trkpt>
      <trkpt lat="47.22359" lon="5.56149">
        <ele>229</ele>
        <time>2011-08-16T15:06:31Z</time>
      </trkpt>
      <trkpt lat="47.2235" lon="5.56137">
        <ele>229</ele>
        <time>2011-08-16T15:06:34Z</time>
      </trkpt>
      <trkpt lat="47.22341" lon="5.56126">
        <ele>229</ele>
        <time>2011-08-16T15:06:37Z</time>
      </trkpt>
      <trkpt lat="47.22331" lon="5.56116">
        <ele>229</ele>
        <time>2011-08-16T15:06:40Z</time>
      </trkpt>
      <trkpt lat="47.22322" lon="5.56103">
        <ele>229</ele>
        <time>2011-08-16T15:06:43Z</time>
      </trkpt>
      <trkpt lat="47.22313" lon="5.5609">
        <ele>229</ele>
        <time>2011-08-16T15:06:46Z</time>
      </trkpt>
      <trkpt lat="47.22304" lon="5.56078">
        <ele>229</ele>
        <time>2011-08-16T15:06:49Z</time>
      </trkpt>
      <trkpt lat="47.22295" lon="5.56065">
        <ele>229</ele>
        <time>2011-08-16T15:06:52Z</time>
      </trkpt>
      <trkpt lat="47.22285" lon="5.56055">
        <ele>229</ele>
        <time>2011-08-16T15:06:55Z</time>
      </trkpt>
      <trkpt lat="47.22275" lon="5.56045">
        <ele>229</ele>
        <time>2011-08-16T15:06:58Z</time>
      </trkpt>
      <trkpt lat="47.22264" lon="5.56035">
        <ele>229</ele>
        <time>2011-08-16T15:07:01Z</time>
      </trkpt>
      <trkpt lat="47.22253" lon="5.56027">
        <ele>229</ele>
        <time>2011-08-16T15:07:04Z</time>
      </trkpt>
      <trkpt lat="47.22242" lon="5.56019">
        <ele>229</ele>
        <time>2011-08-16T15:07:07Z</time>
      </trkpt>
      <trkpt lat="47.22232" lon="5.5601">
        <ele>229</ele>
        <time>2011-08-16T15:07:10Z</time>
      </trkpt>
      <trkpt lat="47.22222" lon="5.56002">
        <ele>229</ele>
        <time>2011-08-16T15:07:13Z</time>
      </trkpt>
      <trkpt lat="47.22213" lon="5.55993">
        <ele>229</ele>
        <time>2011-08-16T15:07:16Z</time>
      </trkpt>
      <trkpt lat="47.22204" lon="5.55984">
        <ele>229</ele>
        <time>2011-08-16T15:07:19Z</time>
      </trkpt>
      <trkpt lat="47.22194" lon="5.55976">
        <ele>229</ele>
        <time>2011-08-16T15:07:22Z</time>
      </trkpt>
      <trkpt lat="47.22186" lon="5.55968">
        <ele>235</ele>
        <time>2011-08-16T15:07:25Z</time>
      </trkpt>
      <trkpt lat="47.22178" lon="5.55961">
        <ele>235</ele>
        <time>2011-08-16T15:07:28Z</time>
      </trkpt>
      <trkpt lat="47.22171" lon="5.55953">
        <ele>235</ele>
        <time>2011-08-16T15:07:31Z</time>
      </trkpt>
      <trkpt lat="47.22161" lon="5.55946">
        <ele>235</ele>
        <time>2011-08-16T15:07:35Z</time>
      </trkpt>
      <trkpt lat="47.22151" lon="5.55937">
        <ele>241</ele>
        <time>2011-08-16T15:07:39Z</time>
      </trkpt>
      <trkpt lat="47.22142" lon="5.5593">
        <ele>241</ele>
        <time>2011-08-16T15:07:43Z</time>
      </trkpt>
      <trkpt lat="47.22133" lon="5.55922">
        <ele>241</ele>
        <time>2011-08-16T15:07:47Z</time>
      </trkpt>
      <trkpt lat="47.22123" lon="5.55913">
        <ele>247</ele>
        <time>2011-08-16T15:07:51Z</time>
      </trkpt>
      <trkpt lat="47.22116" lon="5.55905">
        <ele>247</ele>
        <time>2011-08-16T15:07:54Z</time>
      </trkpt>
      <trkpt lat="47.22106" lon="5.55896">
        <ele>247</ele>
        <time>2011-08-16T15:07:58Z</time>
      </trkpt>
      <trkpt lat="47.22098" lon="5.55888">
        <ele>247</ele>
        <time>2011-08-16T15:08:01Z</time>
      </trkpt>
      <trkpt lat="47.2209" lon="5.55882">
        <ele>247</ele>
        <time>2011-08-16T15:08:04Z</time>
      </trkpt>
      <trkpt lat="47.22082" lon="5.55878">
        <ele>247</ele>
        <time>2011-08-16T15:08:07Z</time>
      </trkpt>
      <trkpt lat="47.22073" lon="5.55873">
        <ele>247</ele>
        <time>2011-08-16T15:08:10Z</time>
      </trkpt>
      <trkpt lat="47.22062" lon="5.55869">
        <ele>247</ele>
        <time>2011-08-16T15:08:14Z</time>
      </trkpt>
      <trkpt lat="47.22051" lon="5.55864">
        <ele>247</ele>
        <time>2011-08-16T15:08:18Z</time>
      </trkpt>
      <trkpt lat="47.2204" lon="5.55858">
        <ele>247</ele>
        <time>2011-08-16T15:08:22Z</time>
      </trkpt>
      <trkpt lat="47.22031" lon="5.55853">
        <ele>247</ele>
        <time>2011-08-16T15:08:25Z</time>
      </trkpt>
      <trkpt lat="47.22022" lon="5.5585">
        <ele>253</ele>
        <time>2011-08-16T15:08:28Z</time>
      </trkpt>
      <trkpt lat="47.22014" lon="5.55844">
        <ele>253</ele>
        <time>2011-08-16T15:08:31Z</time>
      </trkpt>
      <trkpt lat="47.22005" lon="5.55839">
        <ele>253</ele>
        <time>2011-08-16T15:08:34Z</time>
      </trkpt>
      <trkpt lat="47.21995" lon="5.5583">
        <ele>253</ele>
        <time>2011-08-16T15:08:38Z</time>
      </trkpt>
      <trkpt lat="47.21986" lon="5.5582">
        <ele>253</ele>
        <time>2011-08-16T15:08:42Z</time>
      </trkpt>
      <trkpt lat="47.21975" lon="5.55812">
        <ele>253</ele>
        <time>2011-08-16T15:08:46Z</time>
      </trkpt>
      <trkpt lat="47.21964" lon="5.55806">
        <ele>253</ele>
        <time>2011-08-16T15:08:50Z</time>
      </trkpt>
      <trkpt lat="47.21953" lon="5.55798">
        <ele>253</ele>
        <time>2011-08-16T15:08:54Z</time>
      </trkpt>
      <trkpt lat="47.21945" lon="5.55793">
        <ele>253</ele>
        <time>2011-08-16T15:08:57Z</time>
      </trkpt>
      <trkpt lat="47.21936" lon="5.55789">
        <ele>253</ele>
        <time>2011-08-16T15:09:00Z</time>
      </trkpt>
      <trkpt lat="47.21926" lon="5.55784">
        <ele>253</ele>
        <time>2011-08-16T15:09:03Z</time>
      </trkpt>
      <trkpt lat="47.21915" lon="5.5578">
        <ele>258</ele>
        <time>2011-08-16T15:09:07Z</time>
      </trkpt>
      <trkpt lat="47.21903" lon="5.55776">
        <ele>258</ele>
        <time>2011-08-16T15:09:11Z</time>
      </trkpt>
      <trkpt lat="47.21892" lon="5.55771">
        <ele>258</ele>
        <time>2011-08-16T15:09:15Z</time>
      </trkpt>
      <trkpt lat="47.21882" lon="5.55766">
        <ele>258</ele>
        <time>2011-08-16T15:09:19Z</time>
      </trkpt>
      <trkpt lat="47.21872" lon="5.5576">
        <ele>258</ele>
        <time>2011-08-16T15:09:23Z</time>
      </trkpt>
      <trkpt lat="47.21862" lon="5.55754">
        <ele>258</ele>
        <time>2011-08-16T15:09:27Z</time>
      </trkpt>
      <trkpt lat="47.21853" lon="5.55746">
        <ele>263</ele>
        <time>2011-08-16T15:09:31Z</time>
      </trkpt>
      <trkpt lat="47.21844" lon="5.5574">
        <ele>263</ele>
        <time>2011-08-16T15:09:35Z</time>
      </trkpt>
      <trkpt lat="47.21836" lon="5.55733">
        <ele>263</ele>
        <time>2011-08-16T15:09:39Z</time>
      </trkpt>
      <trkpt lat="47.21827" lon="5.55725">
        <ele>263</ele>
        <time>2011-08-16T15:09:43Z</time>
      </trkpt>
      <trkpt lat="47.21817" lon="5.55718">
        <ele>263</ele>
        <time>2011-08-16T15:09:47Z</time>
      </trkpt>
      <trkpt lat="47.21808" lon="5.55712">
        <ele>268</ele>
        <time>2011-08-16T15:09:51Z</time>
      </trkpt>
      <trkpt lat="47.21798" lon="5.5571">
        <ele>268</ele>
        <time>2011-08-16T15:09:55Z</time>
      </trkpt>
      <trkpt lat="47.21788" lon="5.55711">
        <ele>268</ele>
        <time>2011-08-16T15:09:59Z</time>
      </trkpt>
      <trkpt lat="47.2178" lon="5.55719">
        <ele>268</ele>
        <time>2011-08-16T15:10:03Z</time>
      </trkpt>
      <trkpt lat="47.21771" lon="5.55729">
        <ele>274</ele>
        <time>2011-08-16T15:10:08Z</time>
      </trkpt>
      <trkpt lat="47.21763" lon="5.55738">
        <ele>274</ele>
        <time>2011-08-16T15:10:13Z</time>
      </trkpt>
      <trkpt lat="47.21753" lon="5.55745">
        <ele>274</ele>
        <time>2011-08-16T15:10:18Z</time>
      </trkpt>
      <trkpt lat="47.21743" lon="5.55748">
        <ele>274</ele>
        <time>2011-08-16T15:10:23Z</time>
      </trkpt>
      <trkpt lat="47.21732" lon="5.55753">
        <ele>274</ele>
        <time>2011-08-16T15:10:28Z</time>
      </trkpt>
      <trkpt lat="47.21723" lon="5.55758">
        <ele>280</ele>
        <time>2011-08-16T15:10:33Z</time>
      </trkpt>
      <trkpt lat="47.21715" lon="5.55767">
        <ele>280</ele>
        <time>2011-08-16T15:10:37Z</time>
      </trkpt>
      <trkpt lat="47.21708" lon="5.55778">
        <ele>280</ele>
        <time>2011-08-16T15:10:41Z</time>
      </trkpt>
      <trkpt lat="47.21702" lon="5.55788">
        <ele>280</ele>
        <time>2011-08-16T15:10:44Z</time>
      </trkpt>
      <trkpt lat="47.21696" lon="5.55798">
        <ele>280</ele>
        <time>2011-08-16T15:10:47Z</time>
      </trkpt>
      <trkpt lat="47.21688" lon="5.55808">
        <ele>280</ele>
        <time>2011-08-16T15:10:50Z</time>
      </trkpt>
      <trkpt lat="47.2168" lon="5.55818">
        <ele>280</ele>
        <time>2011-08-16T15:10:53Z</time>
      </trkpt>
      <trkpt lat="47.21669" lon="5.55826">
        <ele>280</ele>
        <time>2011-08-16T15:10:56Z</time>
      </trkpt>
      <trkpt lat="47.21659" lon="5.55831">
        <ele>280</ele>
        <time>2011-08-16T15:10:59Z</time>
      </trkpt>
      <trkpt lat="47.21649" lon="5.55832">
        <ele>280</ele>
        <time>2011-08-16T15:11:02Z</time>
      </trkpt>
      <trkpt lat="47.21637" lon="5.55831">
        <ele>280</ele>
        <time>2011-08-16T15:11:06Z</time>
      </trkpt>
      <trkpt lat="47.21626" lon="5.55829">
        <ele>280</ele>
        <time>2011-08-16T15:11:10Z</time>
      </trkpt>
      <trkpt lat="47.21615" lon="5.55826">
        <ele>285</ele>
        <time>2011-08-16T15:11:14Z</time>
      </trkpt>
      <trkpt lat="47.21604" lon="5.5582">
        <ele>285</ele>
        <time>2011-08-16T15:11:18Z</time>
      </trkpt>
      <trkpt lat="47.21594" lon="5.55812">
        <ele>285</ele>
        <time>2011-08-16T15:11:22Z</time>
      </trkpt>
      <trkpt lat="47.21584" lon="5.55802">
        <ele>285</ele>
        <time>2011-08-16T15:11:26Z</time>
      </trkpt>
      <trkpt lat="47.21576" lon="5.55794">
        <ele>285</ele>
        <time>2011-08-16T15:11:29Z</time>
      </trkpt>
      <trkpt lat="47.21568" lon="5.55784">
        <ele>285</ele>
        <time>2011-08-16T15:11:32Z</time>
      </trkpt>
      <trkpt lat="47.2156" lon="5.55775">
        <ele>285</ele>
        <time>2011-08-16T15:11:35Z</time>
      </trkpt>
      <trkpt lat="47.21552" lon="5.55765">
        <ele>285</ele>
        <time>2011-08-16T15:11:38Z</time>
      </trkpt>
      <trkpt lat="47.21543" lon="5.55756">
        <ele>285</ele>
        <time>2011-08-16T15:11:41Z</time>
      </trkpt>
      <trkpt lat="47.21535" lon="5.55746">
        <ele>285</ele>
        <time>2011-08-16T15:11:44Z</time>
      </trkpt>
      <trkpt lat="47.21525" lon="5.55737">
        <ele>285</ele>
        <time>2011-08-16T15:11:47Z</time>
      </trkpt>
      <trkpt lat="47.21516" lon="5.55728">
        <ele>290</ele>
        <time>2011-08-16T15:11:50Z</time>
      </trkpt>
      <trkpt lat="47.21506" lon="5.55719">
        <ele>290</ele>
        <time>2011-08-16T15:11:53Z</time>
      </trkpt>
      <trkpt lat="47.21495" lon="5.55709">
        <ele>290</ele>
        <time>2011-08-16T15:11:56Z</time>
      </trkpt>
      <trkpt lat="47.21484" lon="5.55699">
        <ele>290</ele>
        <time>2011-08-16T15:11:59Z</time>
      </trkpt>
      <trkpt lat="47.21474" lon="5.55688">
        <ele>290</ele>
        <time>2011-08-16T15:12:02Z</time>
      </trkpt>
      <trkpt lat="47.21464" lon="5.55678">
        <ele>290</ele>
        <time>2011-08-16T15:12:05Z</time>
      </trkpt>
      <trkpt lat="47.21453" lon="5.55668">
        <ele>290</ele>
        <time>2011-08-16T15:12:08Z</time>
      </trkpt>
      <trkpt lat="47.21443" lon="5.55658">
        <ele>290</ele>
        <time>2011-08-16T15:12:11Z</time>
      </trkpt>
      <trkpt lat="47.21433" lon="5.55648">
        <ele>290</ele>
        <time>2011-08-16T15:12:14Z</time>
      </trkpt>
      <trkpt lat="47.21423" lon="5.55638">
        <ele>290</ele>
        <time>2011-08-16T15:12:17Z</time>
      </trkpt>
      <trkpt lat="47.21413" lon="5.55629">
        <ele>290</ele>
        <time>2011-08-16T15:12:20Z</time>
      </trkpt>
      <trkpt lat="47.21404" lon="5.55618">
        <ele>290</ele>
        <time>2011-08-16T15:12:23Z</time>
      </trkpt>
      <trkpt lat="47.21394" lon="5.55609">
        <ele>290</ele>
        <time>2011-08-16T15:12:26Z</time>
      </trkpt>
      <trkpt lat="47.21385" lon="5.55599">
        <ele>290</ele>
        <time>2011-08-16T15:12:29Z</time>
      </trkpt>
      <trkpt lat="47.21375" lon="5.5559">
        <ele>290</ele>
        <time>2011-08-16T15:12:32Z</time>
      </trkpt>
      <trkpt lat="47.21365" lon="5.55581">
        <ele>295</ele>
        <time>2011-08-16T15:12:35Z</time>
      </trkpt>
      <trkpt lat="47.21356" lon="5.55573">
        <ele>295</ele>
        <time>2011-08-16T15:12:38Z</time>
      </trkpt>
      <trkpt lat="47.21347" lon="5.55564">
        <ele>295</ele>
        <time>2011-08-16T15:12:41Z</time>
      </trkpt>
      <trkpt lat="47.2134" lon="5.55552">
        <ele>295</ele>
        <time>2011-08-16T15:12:44Z</time>
      </trkpt>
      <trkpt lat="47.21334" lon="5.55539">
        <ele>295</ele>
        <time>2011-08-16T15:12:47Z</time>
      </trkpt>
      <trkpt lat="47.21329" lon="5.55525">
        <ele>295</ele>
        <time>2011-08-16T15:12:50Z</time>
      </trkpt>
      <trkpt lat="47.21323" lon="5.55513">
        <ele>295</ele>
        <time>2011-08-16T15:12:53Z</time>
      </trkpt>
      <trkpt lat="47.21319" lon="5.555">
        <ele>295</ele>
        <time>2011-08-16T15:12:56Z</time>
      </trkpt>
      <trkpt lat="47.21315" lon="5.55487">
        <ele>295</ele>
        <time>2011-08-16T15:12:59Z</time>
      </trkpt>
      <trkpt lat="47.2131" lon="5.55471">
        <ele>301</ele>
        <time>2011-08-16T15:13:03Z</time>
      </trkpt>
      <trkpt lat="47.21307" lon="5.55455">
        <ele>301</ele>
        <time>2011-08-16T15:13:07Z</time>
      </trkpt>
      <trkpt lat="47.21305" lon="5.55441">
        <ele>301</ele>
        <time>2011-08-16T15:13:11Z</time>
      </trkpt>
      <trkpt lat="47.21304" lon="5.55427">
        <ele>301</ele>
        <time>2011-08-16T15:13:15Z</time>
      </trkpt>
      <trkpt lat="47.21304" lon="5.55412">
        <ele>301</ele>
        <time>2011-08-16T15:13:19Z</time>
      </trkpt>
      <trkpt lat="47.21304" lon="5.55399">
        <ele>301</ele>
        <time>2011-08-16T15:13:23Z</time>
      </trkpt>
      <trkpt lat="47.21303" lon="5.55384">
        <ele>307</ele>
        <time>2011-08-16T15:13:27Z</time>
      </trkpt>
      <trkpt lat="47.21299" lon="5.55372">
        <ele>307</ele>
        <time>2011-08-16T15:13:31Z</time>
      </trkpt>
      <trkpt lat="47.21293" lon="5.55361">
        <ele>307</ele>
        <time>2011-08-16T15:13:35Z</time>
      </trkpt>
      <trkpt lat="47.21285" lon="5.55349">
        <ele>307</ele>
        <time>2011-08-16T15:13:40Z</time>
      </trkpt>
      <trkpt lat="47.21276" lon="5.5534">
        <ele>307</ele>
        <time>2011-08-16T15:13:45Z</time>
      </trkpt>
      <trkpt lat="47.2127" lon="5.55331">
        <ele>313</ele>
        <time>2011-08-16T15:13:49Z</time>
      </trkpt>
      <trkpt lat="47.21261" lon="5.55321">
        <ele>313</ele>
        <time>2011-08-16T15:13:54Z</time>
      </trkpt>
      <trkpt lat="47.21252" lon="5.55311">
        <ele>313</ele>
        <time>2011-08-16T15:13:59Z</time>
      </trkpt>
      <trkpt lat="47.21245" lon="5.55303">
        <ele>313</ele>
        <time>2011-08-16T15:14:03Z</time>
      </trkpt>
      <trkpt lat="47.21237" lon="5.55294">
        <ele>313</ele>
        <time>2011-08-16T15:14:07Z</time>
      </trkpt>
      <trkpt lat="47.21228" lon="5.55284">
        <ele>313</ele>
        <time>2011-08-16T15:14:11Z</time>
      </trkpt>
      <trkpt lat="47.2122" lon="5.55276">
        <ele>313</ele>
        <time>2011-08-16T15:14:14Z</time>
      </trkpt>
      <trkpt lat="47.21212" lon="5.55268">
        <ele>313</ele>
        <time>2011-08-16T15:14:17Z</time>
      </trkpt>
      <trkpt lat="47.21205" lon="5.5526">
        <ele>313</ele>
        <time>2011-08-16T15:14:20Z</time>
      </trkpt>
      <trkpt lat="47.21197" lon="5.55251">
        <ele>313</ele>
        <time>2011-08-16T15:14:23Z</time>
      </trkpt>
      <trkpt lat="47.21188" lon="5.5524">
        <ele>313</ele>
        <time>2011-08-16T15:14:26Z</time>
      </trkpt>
      <trkpt lat="47.21179" lon="5.55229">
        <ele>313</ele>
        <time>2011-08-16T15:14:29Z</time>
      </trkpt>
      <trkpt lat="47.21169" lon="5.55219">
        <ele>313</ele>
        <time>2011-08-16T15:14:32Z</time>
      </trkpt>
      <trkpt lat="47.21159" lon="5.55207">
        <ele>313</ele>
        <time>2011-08-16T15:14:35Z</time>
      </trkpt>
      <trkpt lat="47.21151" lon="5.55196">
        <ele>313</ele>
        <time>2011-08-16T15:14:38Z</time>
      </trkpt>
      <trkpt lat="47.21143" lon="5.55185">
        <ele>313</ele>
        <time>2011-08-16T15:14:41Z</time>
      </trkpt>
      <trkpt lat="47.21135" lon="5.55175">
        <ele>313</ele>
        <time>2011-08-16T15:14:44Z</time>
      </trkpt>
      <trkpt lat="47.21126" lon="5.55164">
        <ele>313</ele>
        <time>2011-08-16T15:14:47Z</time>
      </trkpt>
      <trkpt lat="47.21116" lon="5.55154">
        <ele>313</ele>
        <time>2011-08-16T15:14:50Z</time>
      </trkpt>
      <trkpt lat="47.21106" lon="5.55145">
        <ele>318</ele>
        <time>2011-08-16T15:14:53Z</time>
      </trkpt>
      <trkpt lat="47.21095" lon="5.55135">
        <ele>318</ele>
        <time>2011-08-16T15:14:56Z</time>
      </trkpt>
      <trkpt lat="47.21084" lon="5.55124">
        <ele>318</ele>
        <time>2011-08-16T15:14:59Z</time>
      </trkpt>
      <trkpt lat="47.21073" lon="5.55114">
        <ele>318</ele>
        <time>2011-08-16T15:15:02Z</time>
      </trkpt>
      <trkpt lat="47.21065" lon="5.55107">
        <ele>318</ele>
        <time>2011-08-16T15:15:04Z</time>
      </trkpt>
      <trkpt lat="47.21057" lon="5.55101">
        <ele>318</ele>
        <time>2011-08-16T15:15:06Z</time>
      </trkpt>
      <trkpt lat="47.21047" lon="5.55094">
        <ele>318</ele>
        <time>2011-08-16T15:15:08Z</time>
      </trkpt>
      <trkpt lat="47.21038" lon="5.55089">
        <ele>318</ele>
        <time>2011-08-16T15:15:10Z</time>
      </trkpt>
      <trkpt lat="47.21027" lon="5.55083">
        <ele>318</ele>
        <time>2011-08-16T15:15:12Z</time>
      </trkpt>
      <trkpt lat="47.21016" lon="5.55077">
        <ele>318</ele>
        <time>2011-08-16T15:15:14Z</time>
      </trkpt>
      <trkpt lat="47.21006" lon="5.5507">
        <ele>318</ele>
        <time>2011-08-16T15:15:16Z</time>
      </trkpt>
      <trkpt lat="47.20995" lon="5.55061">
        <ele>323</ele>
        <time>2011-08-16T15:15:18Z</time>
      </trkpt>
      <trkpt lat="47.20985" lon="5.55052">
        <ele>323</ele>
        <time>2011-08-16T15:15:20Z</time>
      </trkpt>
      <trkpt lat="47.20976" lon="5.55042">
        <ele>323</ele>
        <time>2011-08-16T15:15:22Z</time>
      </trkpt>
      <trkpt lat="47.20966" lon="5.55036">
        <ele>323</ele>
        <time>2011-08-16T15:15:24Z</time>
      </trkpt>
      <trkpt lat="47.20956" lon="5.55034">
        <ele>323</ele>
        <time>2011-08-16T15:15:26Z</time>
      </trkpt>
      <trkpt lat="47.20947" lon="5.55033">
        <ele>323</ele>
        <time>2011-08-16T15:15:28Z</time>
      </trkpt>
      <trkpt lat="47.20938" lon="5.55035">
        <ele>323</ele>
        <time>2011-08-16T15:15:30Z</time>
      </trkpt>
      <trkpt lat="47.20925" lon="5.55037">
        <ele>323</ele>
        <time>2011-08-16T15:15:33Z</time>
      </trkpt>
      <trkpt lat="47.20912" lon="5.55039">
        <ele>323</ele>
        <time>2011-08-16T15:15:36Z</time>
      </trkpt>
      <trkpt lat="47.20899" lon="5.55042">
        <ele>323</ele>
        <time>2011-08-16T15:15:39Z</time>
      </trkpt>
      <trkpt lat="47.20889" lon="5.55046">
        <ele>323</ele>
        <time>2011-08-16T15:15:42Z</time>
      </trkpt>
      <trkpt lat="47.20878" lon="5.55048">
        <ele>323</ele>
        <time>2011-08-16T15:15:45Z</time>
      </trkpt>
      <trkpt lat="47.20867" lon="5.55053">
        <ele>323</ele>
        <time>2011-08-16T15:15:48Z</time>
      </trkpt>
      <trkpt lat="47.20858" lon="5.55057">
        <ele>329</ele>
        <time>2011-08-16T15:15:51Z</time>
      </trkpt>
      <trkpt lat="47.20848" lon="5.55064">
        <ele>329</ele>
        <time>2011-08-16T15:15:54Z</time>
      </trkpt>
      <trkpt lat="47.2084" lon="5.55071">
        <ele>329</ele>
        <time>2011-08-16T15:15:57Z</time>
      </trkpt>
      <trkpt lat="47.20831" lon="5.55079">
        <ele>329</ele>
        <time>2011-08-16T15:16:00Z</time>
      </trkpt>
      <trkpt lat="47.20818" lon="5.55085">
        <ele>329</ele>
        <time>2011-08-16T15:16:03Z</time>
      </trkpt>
      <trkpt lat="47.20809" lon="5.55091">
        <ele>335</ele>
        <time>2011-08-16T15:16:06Z</time>
      </trkpt>
      <trkpt lat="47.20801" lon="5.55095">
        <ele>335</ele>
        <time>2011-08-16T15:16:08Z</time>
      </trkpt>
      <trkpt lat="47.20791" lon="5.55096">
        <ele>335</ele>
        <time>2011-08-16T15:16:10Z</time>
      </trkpt>
      <trkpt lat="47.20781" lon="5.55092">
        <ele>335</ele>
        <time>2011-08-16T15:16:12Z</time>
      </trkpt>
      <trkpt lat="47.20773" lon="5.55083">
        <ele>335</ele>
        <time>2011-08-16T15:16:14Z</time>
      </trkpt>
      <trkpt lat="47.20763" lon="5.55077">
        <ele>335</ele>
        <time>2011-08-16T15:16:16Z</time>
      </trkpt>
      <trkpt lat="47.20758" lon="5.55065">
        <ele>335</ele>
        <time>2011-08-16T15:16:18Z</time>
      </trkpt>
      <trkpt lat="47.20752" lon="5.55052">
        <ele>335</ele>
        <time>2011-08-16T15:16:20Z</time>
      </trkpt>
      <trkpt lat="47.20746" lon="5.55035">
        <ele>335</ele>
        <time>2011-08-16T15:16:23Z</time>
      </trkpt>
      <trkpt lat="47.20741" lon="5.55023">
        <ele>335</ele>
        <time>2011-08-16T15:16:25Z</time>
      </trkpt>
      <trkpt lat="47.20737" lon="5.55012">
        <ele>335</ele>
        <time>2011-08-16T15:16:27Z</time>
      </trkpt>
      <trkpt lat="47.20732" lon="5.55001">
        <ele>335</ele>
        <time>2011-08-16T15:16:29Z</time>
      </trkpt>
      <trkpt lat="47.20722" lon="5.54987">
        <ele>335</ele>
        <time>2011-08-16T15:16:32Z</time>
      </trkpt>
      <trkpt lat="47.20713" lon="5.54975">
        <ele>329</ele>
        <time>2011-08-16T15:16:35Z</time>
      </trkpt>
      <trkpt lat="47.20709" lon="5.54963">
        <ele>329</ele>
        <time>2011-08-16T15:16:37Z</time>
      </trkpt>
      <trkpt lat="47.20703" lon="5.54952">
        <ele>329</ele>
        <time>2011-08-16T15:16:39Z</time>
      </trkpt>
      <trkpt lat="47.20698" lon="5.54941">
        <ele>329</ele>
        <time>2011-08-16T15:16:41Z</time>
      </trkpt>
      <trkpt lat="47.20692" lon="5.54928">
        <ele>329</ele>
        <time>2011-08-16T15:16:43Z</time>
      </trkpt>
      <trkpt lat="47.20687" lon="5.54915">
        <ele>329</ele>
        <time>2011-08-16T15:16:45Z</time>
      </trkpt>
      <trkpt lat="47.20681" lon="5.54903">
        <ele>329</ele>
        <time>2011-08-16T15:16:47Z</time>
      </trkpt>
      <trkpt lat="47.20674" lon="5.54892">
        <ele>329</ele>
        <time>2011-08-16T15:16:49Z</time>
      </trkpt>
      <trkpt lat="47.20668" lon="5.54879">
        <ele>329</ele>
        <time>2011-08-16T15:16:51Z</time>
      </trkpt>
      <trkpt lat="47.20662" lon="5.54865">
        <ele>329</ele>
        <time>2011-08-16T15:16:53Z</time>
      </trkpt>
      <trkpt lat="47.20657" lon="5.54849">
        <ele>329</ele>
        <time>2011-08-16T15:16:55Z</time>
      </trkpt>
      <trkpt lat="47.20651" lon="5.54833">
        <ele>329</ele>
        <time>2011-08-16T15:16:57Z</time>
      </trkpt>
      <trkpt lat="47.20646" lon="5.54817">
        <ele>329</ele>
        <time>2011-08-16T15:16:59Z</time>
      </trkpt>
      <trkpt lat="47.2064" lon="5.54802">
        <ele>329</ele>
        <time>2011-08-16T15:17:01Z</time>
      </trkpt>
      <trkpt lat="47.20636" lon="5.54786">
        <ele>329</ele>
        <time>2011-08-16T15:17:03Z</time>
      </trkpt>
      <trkpt lat="47.20634" lon="5.5477">
        <ele>329</ele>
        <time>2011-08-16T15:17:05Z</time>
      </trkpt>
      <trkpt lat="47.20634" lon="5.54754">
        <ele>329</ele>
        <time>2011-08-16T15:17:07Z</time>
      </trkpt>
      <trkpt lat="47.20635" lon="5.54738">
        <ele>329</ele>
        <time>2011-08-16T15:17:09Z</time>
      </trkpt>
      <trkpt lat="47.20636" lon="5.54724">
        <ele>329</ele>
        <time>2011-08-16T15:17:11Z</time>
      </trkpt>
      <trkpt lat="47.20636" lon="5.54709">
        <ele>329</ele>
        <time>2011-08-16T15:17:13Z</time>
      </trkpt>
      <trkpt lat="47.20637" lon="5.54695">
        <ele>329</ele>
        <time>2011-08-16T15:17:15Z</time>
      </trkpt>
      <trkpt lat="47.20637" lon="5.54681">
        <ele>329</ele>
        <time>2011-08-16T15:17:17Z</time>
      </trkpt>
      <trkpt lat="47.20635" lon="5.54668">
        <ele>329</ele>
        <time>2011-08-16T15:17:19Z</time>
      </trkpt>
      <trkpt lat="47.20634" lon="5.54653">
        <ele>329</ele>
        <time>2011-08-16T15:17:21Z</time>
      </trkpt>
      <trkpt lat="47.20632" lon="5.5464">
        <ele>329</ele>
        <time>2011-08-16T15:17:23Z</time>
      </trkpt>
      <trkpt lat="47.20629" lon="5.54626">
        <ele>329</ele>
        <time>2011-08-16T15:17:25Z</time>
      </trkpt>
      <trkpt lat="47.20626" lon="5.54612">
        <ele>329</ele>
        <time>2011-08-16T15:17:27Z</time>
      </trkpt>
      <trkpt lat="47.20621" lon="5.54597">
        <ele>329</ele>
        <time>2011-08-16T15:17:29Z</time>
      </trkpt>
      <trkpt lat="47.20616" lon="5.54584">
        <ele>329</ele>
        <time>2011-08-16T15:17:31Z</time>
      </trkpt>
      <trkpt lat="47.2061" lon="5.5457">
        <ele>329</ele>
        <time>2011-08-16T15:17:33Z</time>
      </trkpt>
      <trkpt lat="47.20604" lon="5.54555">
        <ele>329</ele>
        <time>2011-08-16T15:17:35Z</time>
      </trkpt>
      <trkpt lat="47.20597" lon="5.54542">
        <ele>329</ele>
        <time>2011-08-16T15:17:37Z</time>
      </trkpt>
      <trkpt lat="47.20592" lon="5.54527">
        <ele>329</ele>
        <time>2011-08-16T15:17:40Z</time>
      </trkpt>
      <trkpt lat="47.20588" lon="5.54514">
        <ele>329</ele>
        <time>2011-08-16T15:17:45Z</time>
      </trkpt>
      <trkpt lat="47.20595" lon="5.54526">
        <ele>329</ele>
        <time>2011-08-16T15:24:28Z</time>
      </trkpt>
      <trkpt lat="47.20601" lon="5.54539">
        <ele>329</ele>
        <time>2011-08-16T15:24:32Z</time>
      </trkpt>
      <trkpt lat="47.20606" lon="5.54553">
        <ele>329</ele>
        <time>2011-08-16T15:24:35Z</time>
      </trkpt>
      <trkpt lat="47.20613" lon="5.54567">
        <ele>335</ele>
        <time>2011-08-16T15:24:38Z</time>
      </trkpt>
      <trkpt lat="47.20619" lon="5.54584">
        <ele>335</ele>
        <time>2011-08-16T15:24:41Z</time>
      </trkpt>
      <trkpt lat="47.20624" lon="5.54596">
        <ele>335</ele>
        <time>2011-08-16T15:24:43Z</time>
      </trkpt>
      <trkpt lat="47.20629" lon="5.54607">
        <ele>335</ele>
        <time>2011-08-16T15:24:45Z</time>
      </trkpt>
      <trkpt lat="47.20632" lon="5.5462">
        <ele>340</ele>
        <time>2011-08-16T15:24:47Z</time>
      </trkpt>
      <trkpt lat="47.20636" lon="5.54634">
        <ele>340</ele>
        <time>2011-08-16T15:24:49Z</time>
      </trkpt>
      <trkpt lat="47.20638" lon="5.54649">
        <ele>340</ele>
        <time>2011-08-16T15:24:51Z</time>
      </trkpt>
      <trkpt lat="47.2064" lon="5.54665">
        <ele>340</ele>
        <time>2011-08-16T15:24:53Z</time>
      </trkpt>
      <trkpt lat="47.20641" lon="5.54681">
        <ele>340</ele>
        <time>2011-08-16T15:24:55Z</time>
      </trkpt>
      <trkpt lat="47.2064" lon="5.54699">
        <ele>340</ele>
        <time>2011-08-16T15:24:57Z</time>
      </trkpt>
      <trkpt lat="47.20636" lon="5.54713">
        <ele>340</ele>
        <time>2011-08-16T15:24:59Z</time>
      </trkpt>
      <trkpt lat="47.20634" lon="5.54728">
        <ele>340</ele>
        <time>2011-08-16T15:25:02Z</time>
      </trkpt>
      <trkpt lat="47.2064" lon="5.54718">
        <ele>332</ele>
        <time>2011-08-16T15:32:30Z</time>
      </trkpt>
      <trkpt lat="47.20641" lon="5.54701">
        <ele>332</ele>
        <time>2011-08-16T15:32:35Z</time>
      </trkpt>
      <trkpt lat="47.20642" lon="5.54685">
        <ele>332</ele>
        <time>2011-08-16T15:32:39Z</time>
      </trkpt>
      <trkpt lat="47.2064" lon="5.54668">
        <ele>332</ele>
        <time>2011-08-16T15:32:43Z</time>
      </trkpt>
      <trkpt lat="47.20637" lon="5.54653">
        <ele>332</ele>
        <time>2011-08-16T15:32:47Z</time>
      </trkpt>
      <trkpt lat="47.20634" lon="5.54641">
        <ele>332</ele>
        <time>2011-08-16T15:32:50Z</time>
      </trkpt>
      <trkpt lat="47.20631" lon="5.54626">
        <ele>332</ele>
        <time>2011-08-16T15:32:53Z</time>
      </trkpt>
      <trkpt lat="47.20626" lon="5.54612">
        <ele>332</ele>
        <time>2011-08-16T15:32:56Z</time>
      </trkpt>
      <trkpt lat="47.20621" lon="5.54597">
        <ele>332</ele>
        <time>2011-08-16T15:32:59Z</time>
      </trkpt>
      <trkpt lat="47.20615" lon="5.54581">
        <ele>332</ele>
        <time>2011-08-16T15:33:02Z</time>
      </trkpt>
      <trkpt lat="47.2061" lon="5.5457">
        <ele>332</ele>
        <time>2011-08-16T15:33:04Z</time>
      </trkpt>
      <trkpt lat="47.20605" lon="5.54558">
        <ele>332</ele>
        <time>2011-08-16T15:33:06Z</time>
      </trkpt>
      <trkpt lat="47.206" lon="5.54546">
        <ele>332</ele>
        <time>2011-08-16T15:33:08Z</time>
      </trkpt>
      <trkpt lat="47.20594" lon="5.54534">
        <ele>332</ele>
        <time>2011-08-16T15:33:10Z</time>
      </trkpt>
      <trkpt lat="47.20589" lon="5.5452">
        <ele>332</ele>
        <time>2011-08-16T15:33:12Z</time>
      </trkpt>
      <trkpt lat="47.20583" lon="5.54506">
        <ele>332</ele>
        <time>2011-08-16T15:33:14Z</time>
      </trkpt>
      <trkpt lat="47.20576" lon="5.54491">
        <ele>332</ele>
        <time>2011-08-16T15:33:16Z</time>
      </trkpt>
      <trkpt lat="47.20569" lon="5.54476">
        <ele>332</ele>
        <time>2011-08-16T15:33:18Z</time>
      </trkpt>
      <trkpt lat="47.20561" lon="5.54461">
        <ele>332</ele>
        <time>2011-08-16T15:33:20Z</time>
      </trkpt>
      <trkpt lat="47.20553" lon="5.54446">
        <ele>332</ele>
        <time>2011-08-16T15:33:22Z</time>
      </trkpt>
      <trkpt lat="47.20545" lon="5.54429">
        <ele>332</ele>
        <time>2011-08-16T15:33:24Z</time>
      </trkpt>
      <trkpt lat="47.20536" lon="5.54411">
        <ele>332</ele>
        <time>2011-08-16T15:33:26Z</time>
      </trkpt>
      <trkpt lat="47.20525" lon="5.54394">
        <ele>332</ele>
        <time>2011-08-16T15:33:28Z</time>
      </trkpt>
      <trkpt lat="47.20514" lon="5.54376">
        <ele>332</ele>
        <time>2011-08-16T15:33:30Z</time>
      </trkpt>
      <trkpt lat="47.20506" lon="5.54352">
        <ele>326</ele>
        <time>2011-08-16T15:33:32Z</time>
      </trkpt>
      <trkpt lat="47.20498" lon="5.5433">
        <ele>326</ele>
        <time>2011-08-16T15:33:34Z</time>
      </trkpt>
      <trkpt lat="47.20488" lon="5.54307">
        <ele>326</ele>
        <time>2011-08-16T15:33:36Z</time>
      </trkpt>
      <trkpt lat="47.20477" lon="5.54287">
        <ele>326</ele>
        <time>2011-08-16T15:33:38Z</time>
      </trkpt>
      <trkpt lat="47.20466" lon="5.54267">
        <ele>326</ele>
        <time>2011-08-16T15:33:40Z</time>
      </trkpt>
      <trkpt lat="47.20461" lon="5.54255">
        <ele>326</ele>
        <time>2011-08-16T15:33:41Z</time>
      </trkpt>
      <trkpt lat="47.20455" lon="5.54245">
        <ele>326</ele>
        <time>2011-08-16T15:33:42Z</time>
      </trkpt>
      <trkpt lat="47.20449" lon="5.54235">
        <ele>326</ele>
        <time>2011-08-16T15:33:43Z</time>
      </trkpt>
      <trkpt lat="47.20443" lon="5.54225">
        <ele>326</ele>
        <time>2011-08-16T15:33:44Z</time>
      </trkpt>
      <trkpt lat="47.20436" lon="5.54215">
        <ele>326</ele>
        <time>2011-08-16T15:33:45Z</time>
      </trkpt>
      <trkpt lat="47.2043" lon="5.54205">
        <ele>326</ele>
        <time>2011-08-16T15:33:46Z</time>
      </trkpt>
      <trkpt lat="47.20423" lon="5.54195">
        <ele>326</ele>
        <time>2011-08-16T15:33:47Z</time>
      </trkpt>
      <trkpt lat="47.20416" lon="5.54186">
        <ele>326</ele>
        <time>2011-08-16T15:33:48Z</time>
      </trkpt>
      <trkpt lat="47.20409" lon="5.54176">
        <ele>326</ele>
        <time>2011-08-16T15:33:49Z</time>
      </trkpt>
      <trkpt lat="47.20402" lon="5.54166">
        <ele>326</ele>
        <time>2011-08-16T15:33:50Z</time>
      </trkpt>
      <trkpt lat="47.20395" lon="5.54156">
        <ele>320</ele>
        <time>2011-08-16T15:33:51Z</time>
      </trkpt>
      <trkpt lat="47.20389" lon="5.54146">
        <ele>320</ele>
        <time>2011-08-16T15:33:52Z</time>
      </trkpt>
      <trkpt lat="47.20381" lon="5.54137">
        <ele>320</ele>
        <time>2011-08-16T15:33:53Z</time>
      </trkpt>
      <trkpt lat="47.20375" lon="5.54126">
        <ele>320</ele>
        <time>2011-08-16T15:33:54Z</time>
      </trkpt>
      <trkpt lat="47.20369" lon="5.54114">
        <ele>320</ele>
        <time>2011-08-16T15:33:55Z</time>
      </trkpt>
      <trkpt lat="47.20363" lon="5.54103">
        <ele>320</ele>
        <time>2011-08-16T15:33:56Z</time>
      </trkpt>
      <trkpt lat="47.20357" lon="5.54092">
        <ele>320</ele>
        <time>2011-08-16T15:33:57Z</time>
      </trkpt>
      <trkpt lat="47.20351" lon="5.54079">
        <ele>320</ele>
        <time>2011-08-16T15:33:58Z</time>
      </trkpt>
      <trkpt lat="47.20345" lon="5.54067">
        <ele>320</ele>
        <time>2011-08-16T15:33:59Z</time>
      </trkpt>
      <trkpt lat="47.20338" lon="5.54056">
        <ele>320</ele>
        <time>2011-08-16T15:34:00Z</time>
      </trkpt>
      <trkpt lat="47.20331" lon="5.54045">
        <ele>320</ele>
        <time>2011-08-16T15:34:01Z</time>
      </trkpt>
      <trkpt lat="47.20323" lon="5.54035">
        <ele>320</ele>
        <time>2011-08-16T15:34:02Z</time>
      </trkpt>
      <trkpt lat="47.20314" lon="5.54026">
        <ele>315</ele>
        <time>2011-08-16T15:34:03Z</time>
      </trkpt>
      <trkpt lat="47.20305" lon="5.54018">
        <ele>315</ele>
        <time>2011-08-16T15:34:04Z</time>
      </trkpt>
      <trkpt lat="47.20296" lon="5.54011">
        <ele>315</ele>
        <time>2011-08-16T15:34:05Z</time>
      </trkpt>
      <trkpt lat="47.20287" lon="5.54004">
        <ele>315</ele>
        <time>2011-08-16T15:34:06Z</time>
      </trkpt>
      <trkpt lat="47.20277" lon="5.53996">
        <ele>315</ele>
        <time>2011-08-16T15:34:07Z</time>
      </trkpt>
      <trkpt lat="47.20268" lon="5.5399">
        <ele>315</ele>
        <time>2011-08-16T15:34:08Z</time>
      </trkpt>
      <trkpt lat="47.20258" lon="5.53983">
        <ele>315</ele>
        <time>2011-08-16T15:34:09Z</time>
      </trkpt>
      <trkpt lat="47.20249" lon="5.53976">
        <ele>315</ele>
        <time>2011-08-16T15:34:10Z</time>
      </trkpt>
      <trkpt lat="47.20239" lon="5.5397">
        <ele>310</ele>
        <time>2011-08-16T15:34:11Z</time>
      </trkpt>
      <trkpt lat="47.2023" lon="5.53963">
        <ele>310</ele>
        <time>2011-08-16T15:34:12Z</time>
      </trkpt>
      <trkpt lat="47.2022" lon="5.53956">
        <ele>310</ele>
        <time>2011-08-16T15:34:13Z</time>
      </trkpt>
      <trkpt lat="47.2021" lon="5.5395">
        <ele>310</ele>
        <time>2011-08-16T15:34:14Z</time>
      </trkpt>
      <trkpt lat="47.202" lon="5.53943">
        <ele>310</ele>
        <time>2011-08-16T15:34:15Z</time>
      </trkpt>
      <trkpt lat="47.2019" lon="5.53936">
        <ele>310</ele>
        <time>2011-08-16T15:34:16Z</time>
      </trkpt>
      <trkpt lat="47.20181" lon="5.53929">
        <ele>310</ele>
        <time>2011-08-16T15:34:17Z</time>
      </trkpt>
      <trkpt lat="47.20171" lon="5.53922">
        <ele>305</ele>
        <time>2011-08-16T15:34:18Z</time>
      </trkpt>
      <trkpt lat="47.2016" lon="5.53915">
        <ele>305</ele>
        <time>2011-08-16T15:34:19Z</time>
      </trkpt>
      <trkpt lat="47.20151" lon="5.53908">
        <ele>305</ele>
        <time>2011-08-16T15:34:20Z</time>
      </trkpt>
      <trkpt lat="47.20141" lon="5.53901">
        <ele>305</ele>
        <time>2011-08-16T15:34:21Z</time>
      </trkpt>
      <trkpt lat="47.2013" lon="5.53894">
        <ele>305</ele>
        <time>2011-08-16T15:34:22Z</time>
      </trkpt>
      <trkpt lat="47.20121" lon="5.53887">
        <ele>305</ele>
        <time>2011-08-16T15:34:23Z</time>
      </trkpt>
      <trkpt lat="47.20111" lon="5.5388">
        <ele>305</ele>
        <time>2011-08-16T15:34:24Z</time>
      </trkpt>
      <trkpt lat="47.20101" lon="5.53873">
        <ele>305</ele>
        <time>2011-08-16T15:34:25Z</time>
      </trkpt>
      <trkpt lat="47.20092" lon="5.53865">
        <ele>305</ele>
        <time>2011-08-16T15:34:26Z</time>
      </trkpt>
      <trkpt lat="47.20082" lon="5.53858">
        <ele>305</ele>
        <time>2011-08-16T15:34:27Z</time>
      </trkpt>
      <trkpt lat="47.20073" lon="5.53851">
        <ele>299</ele>
        <time>2011-08-16T15:34:28Z</time>
      </trkpt>
      <trkpt lat="47.20063" lon="5.53845">
        <ele>299</ele>
        <time>2011-08-16T15:34:29Z</time>
      </trkpt>
      <trkpt lat="47.20054" lon="5.53837">
        <ele>299</ele>
        <time>2011-08-16T15:34:30Z</time>
      </trkpt>
      <trkpt lat="47.20045" lon="5.53831">
        <ele>299</ele>
        <time>2011-08-16T15:34:31Z</time>
      </trkpt>
      <trkpt lat="47.20036" lon="5.53825">
        <ele>299</ele>
        <time>2011-08-16T15:34:32Z</time>
      </trkpt>
      <trkpt lat="47.20027" lon="5.53819">
        <ele>299</ele>
        <time>2011-08-16T15:34:33Z</time>
      </trkpt>
      <trkpt lat="47.20018" lon="5.53812">
        <ele>299</ele>
        <time>2011-08-16T15:34:34Z</time>
      </trkpt>
      <trkpt lat="47.2001" lon="5.53808">
        <ele>299</ele>
        <time>2011-08-16T15:34:35Z</time>
      </trkpt>
      <trkpt lat="47.20001" lon="5.53803">
        <ele>299</ele>
        <time>2011-08-16T15:34:36Z</time>
      </trkpt>
      <trkpt lat="47.19993" lon="5.53799">
        <ele>299</ele>
        <time>2011-08-16T15:34:37Z</time>
      </trkpt>
      <trkpt lat="47.19984" lon="5.53795">
        <ele>299</ele>
        <time>2011-08-16T15:34:38Z</time>
      </trkpt>
      <trkpt lat="47.19975" lon="5.53791">
        <ele>299</ele>
        <time>2011-08-16T15:34:39Z</time>
      </trkpt>
      <trkpt lat="47.1996" lon="5.53783">
        <ele>299</ele>
        <time>2011-08-16T15:34:41Z</time>
      </trkpt>
      <trkpt lat="47.19944" lon="5.53777">
        <ele>299</ele>
        <time>2011-08-16T15:34:43Z</time>
      </trkpt>
      <trkpt lat="47.1993" lon="5.53771">
        <ele>299</ele>
        <time>2011-08-16T15:34:45Z</time>
      </trkpt>
      <trkpt lat="47.19917" lon="5.53765">
        <ele>299</ele>
        <time>2011-08-16T15:34:47Z</time>
      </trkpt>
      <trkpt lat="47.19905" lon="5.53759">
        <ele>299</ele>
        <time>2011-08-16T15:34:49Z</time>
      </trkpt>
      <trkpt lat="47.19893" lon="5.53753">
        <ele>299</ele>
        <time>2011-08-16T15:34:51Z</time>
      </trkpt>
      <trkpt lat="47.19882" lon="5.53746">
        <ele>299</ele>
        <time>2011-08-16T15:34:53Z</time>
      </trkpt>
      <trkpt lat="47.19872" lon="5.5374">
        <ele>299</ele>
        <time>2011-08-16T15:34:55Z</time>
      </trkpt>
      <trkpt lat="47.19862" lon="5.53731">
        <ele>299</ele>
        <time>2011-08-16T15:34:57Z</time>
      </trkpt>
      <trkpt lat="47.19853" lon="5.53722">
        <ele>299</ele>
        <time>2011-08-16T15:34:59Z</time>
      </trkpt>
      <trkpt lat="47.19843" lon="5.53715">
        <ele>299</ele>
        <time>2011-08-16T15:35:01Z</time>
      </trkpt>
      <trkpt lat="47.19834" lon="5.53708">
        <ele>299</ele>
        <time>2011-08-16T15:35:03Z</time>
      </trkpt>
      <trkpt lat="47.19825" lon="5.53701">
        <ele>299</ele>
        <time>2011-08-16T15:35:05Z</time>
      </trkpt>
      <trkpt lat="47.19817" lon="5.53695">
        <ele>299</ele>
        <time>2011-08-16T15:35:07Z</time>
      </trkpt>
      <trkpt lat="47.19808" lon="5.53687">
        <ele>299</ele>
        <time>2011-08-16T15:35:09Z</time>
      </trkpt>
      <trkpt lat="47.19798" lon="5.53679">
        <ele>299</ele>
        <time>2011-08-16T15:35:11Z</time>
      </trkpt>
      <trkpt lat="47.1979" lon="5.53672">
        <ele>299</ele>
        <time>2011-08-16T15:35:13Z</time>
      </trkpt>
      <trkpt lat="47.19781" lon="5.53665">
        <ele>299</ele>
        <time>2011-08-16T15:35:15Z</time>
      </trkpt>
      <trkpt lat="47.19772" lon="5.53657">
        <ele>299</ele>
        <time>2011-08-16T15:35:17Z</time>
      </trkpt>
      <trkpt lat="47.19762" lon="5.5365">
        <ele>299</ele>
        <time>2011-08-16T15:35:19Z</time>
      </trkpt>
      <trkpt lat="47.19753" lon="5.53643">
        <ele>299</ele>
        <time>2011-08-16T15:35:21Z</time>
      </trkpt>
      <trkpt lat="47.19744" lon="5.53635">
        <ele>299</ele>
        <time>2011-08-16T15:35:23Z</time>
      </trkpt>
      <trkpt lat="47.19735" lon="5.53628">
        <ele>299</ele>
        <time>2011-08-16T15:35:25Z</time>
      </trkpt>
      <trkpt lat="47.19725" lon="5.53621">
        <ele>299</ele>
        <time>2011-08-16T15:35:27Z</time>
      </trkpt>
      <trkpt lat="47.19716" lon="5.53614">
        <ele>299</ele>
        <time>2011-08-16T15:35:29Z</time>
      </trkpt>
      <trkpt lat="47.19707" lon="5.53607">
        <ele>299</ele>
        <time>2011-08-16T15:35:31Z</time>
      </trkpt>
      <trkpt lat="47.19697" lon="5.53599">
        <ele>299</ele>
        <time>2011-08-16T15:35:33Z</time>
      </trkpt>
      <trkpt lat="47.19688" lon="5.53592">
        <ele>299</ele>
        <time>2011-08-16T15:35:35Z</time>
      </trkpt>
      <trkpt lat="47.19678" lon="5.53585">
        <ele>299</ele>
        <time>2011-08-16T15:35:37Z</time>
      </trkpt>
      <trkpt lat="47.19669" lon="5.53577">
        <ele>299</ele>
        <time>2011-08-16T15:35:39Z</time>
      </trkpt>
      <trkpt lat="47.1966" lon="5.5357">
        <ele>299</ele>
        <time>2011-08-16T15:35:41Z</time>
      </trkpt>
      <trkpt lat="47.1965" lon="5.53563">
        <ele>299</ele>
        <time>2011-08-16T15:35:43Z</time>
      </trkpt>
      <trkpt lat="47.19641" lon="5.53555">
        <ele>299</ele>
        <time>2011-08-16T15:35:45Z</time>
      </trkpt>
      <trkpt lat="47.19632" lon="5.53547">
        <ele>299</ele>
        <time>2011-08-16T15:35:47Z</time>
      </trkpt>
      <trkpt lat="47.19622" lon="5.5354">
        <ele>299</ele>
        <time>2011-08-16T15:35:49Z</time>
      </trkpt>
      <trkpt lat="47.19613" lon="5.53532">
        <ele>299</ele>
        <time>2011-08-16T15:35:51Z</time>
      </trkpt>
      <trkpt lat="47.19604" lon="5.53525">
        <ele>299</ele>
        <time>2011-08-16T15:35:53Z</time>
      </trkpt>
      <trkpt lat="47.19594" lon="5.53518">
        <ele>299</ele>
        <time>2011-08-16T15:35:55Z</time>
      </trkpt>
      <trkpt lat="47.19585" lon="5.5351">
        <ele>299</ele>
        <time>2011-08-16T15:35:57Z</time>
      </trkpt>
      <trkpt lat="47.19576" lon="5.53503">
        <ele>299</ele>
        <time>2011-08-16T15:35:59Z</time>
      </trkpt>
      <trkpt lat="47.19566" lon="5.53496">
        <ele>299</ele>
        <time>2011-08-16T15:36:01Z</time>
      </trkpt>
      <trkpt lat="47.19557" lon="5.53489">
        <ele>299</ele>
        <time>2011-08-16T15:36:03Z</time>
      </trkpt>
      <trkpt lat="47.19549" lon="5.53483">
        <ele>299</ele>
        <time>2011-08-16T15:36:05Z</time>
      </trkpt>
      <trkpt lat="47.1954" lon="5.53475">
        <ele>299</ele>
        <time>2011-08-16T15:36:07Z</time>
      </trkpt>
      <trkpt lat="47.19532" lon="5.53466">
        <ele>299</ele>
        <time>2011-08-16T15:36:09Z</time>
      </trkpt>
      <trkpt lat="47.19523" lon="5.53457">
        <ele>299</ele>
        <time>2011-08-16T15:36:11Z</time>
      </trkpt>
      <trkpt lat="47.19514" lon="5.53449">
        <ele>299</ele>
        <time>2011-08-16T15:36:13Z</time>
      </trkpt>
      <trkpt lat="47.19505" lon="5.53446">
        <ele>299</ele>
        <time>2011-08-16T15:36:15Z</time>
      </trkpt>
      <trkpt lat="47.19492" lon="5.53441">
        <ele>299</ele>
        <time>2011-08-16T15:36:18Z</time>
      </trkpt>
      <trkpt lat="47.19483" lon="5.53438">
        <ele>305</ele>
        <time>2011-08-16T15:36:20Z</time>
      </trkpt>
      <trkpt lat="47.19472" lon="5.53433">
        <ele>305</ele>
        <time>2011-08-16T15:36:23Z</time>
      </trkpt>
      <trkpt lat="47.1946" lon="5.53429">
        <ele>305</ele>
        <time>2011-08-16T15:36:26Z</time>
      </trkpt>
      <trkpt lat="47.19448" lon="5.53423">
        <ele>305</ele>
        <time>2011-08-16T15:36:29Z</time>
      </trkpt>
      <trkpt lat="47.19437" lon="5.53418">
        <ele>305</ele>
        <time>2011-08-16T15:36:32Z</time>
      </trkpt>
      <trkpt lat="47.19426" lon="5.53413">
        <ele>305</ele>
        <time>2011-08-16T15:36:35Z</time>
      </trkpt>
      <trkpt lat="47.19414" lon="5.53407">
        <ele>305</ele>
        <time>2011-08-16T15:36:38Z</time>
      </trkpt>
      <trkpt lat="47.19405" lon="5.53403">
        <ele>305</ele>
        <time>2011-08-16T15:36:40Z</time>
      </trkpt>
      <trkpt lat="47.19393" lon="5.53397">
        <ele>305</ele>
        <time>2011-08-16T15:36:43Z</time>
      </trkpt>
      <trkpt lat="47.1938" lon="5.53394">
        <ele>305</ele>
        <time>2011-08-16T15:36:46Z</time>
      </trkpt>
      <trkpt lat="47.19371" lon="5.53393">
        <ele>305</ele>
        <time>2011-08-16T15:36:48Z</time>
      </trkpt>
      <trkpt lat="47.19358" lon="5.5339">
        <ele>310</ele>
        <time>2011-08-16T15:36:51Z</time>
      </trkpt>
      <trkpt lat="47.19346" lon="5.53387">
        <ele>310</ele>
        <time>2011-08-16T15:36:54Z</time>
      </trkpt>
      <trkpt lat="47.19333" lon="5.53382">
        <ele>310</ele>
        <time>2011-08-16T15:36:57Z</time>
      </trkpt>
      <trkpt lat="47.19321" lon="5.53377">
        <ele>310</ele>
        <time>2011-08-16T15:37:00Z</time>
      </trkpt>
      <trkpt lat="47.1931" lon="5.53372">
        <ele>310</ele>
        <time>2011-08-16T15:37:03Z</time>
      </trkpt>
      <trkpt lat="47.19299" lon="5.53368">
        <ele>310</ele>
        <time>2011-08-16T15:37:06Z</time>
      </trkpt>
      <trkpt lat="47.19288" lon="5.53363">
        <ele>315</ele>
        <time>2011-08-16T15:37:09Z</time>
      </trkpt>
      <trkpt lat="47.19276" lon="5.53358">
        <ele>315</ele>
        <time>2011-08-16T15:37:12Z</time>
      </trkpt>
      <trkpt lat="47.19264" lon="5.53353">
        <ele>315</ele>
        <time>2011-08-16T15:37:15Z</time>
      </trkpt>
      <trkpt lat="47.19255" lon="5.5335">
        <ele>315</ele>
        <time>2011-08-16T15:37:17Z</time>
      </trkpt>
      <trkpt lat="47.19243" lon="5.53345">
        <ele>315</ele>
        <time>2011-08-16T15:37:20Z</time>
      </trkpt>
      <trkpt lat="47.19231" lon="5.53342">
        <ele>315</ele>
        <time>2011-08-16T15:37:23Z</time>
      </trkpt>
      <trkpt lat="47.1922" lon="5.5334">
        <ele>315</ele>
        <time>2011-08-16T15:37:26Z</time>
      </trkpt>
      <trkpt lat="47.19209" lon="5.53339">
        <ele>315</ele>
        <time>2011-08-16T15:37:29Z</time>
      </trkpt>
      <trkpt lat="47.19198" lon="5.53342">
        <ele>323</ele>
        <time>2011-08-16T15:37:32Z</time>
      </trkpt>
      <trkpt lat="47.19188" lon="5.53348">
        <ele>323</ele>
        <time>2011-08-16T15:37:35Z</time>
      </trkpt>
      <trkpt lat="47.19179" lon="5.53359">
        <ele>323</ele>
        <time>2011-08-16T15:37:38Z</time>
      </trkpt>
      <trkpt lat="47.19173" lon="5.53373">
        <ele>323</ele>
        <time>2011-08-16T15:37:41Z</time>
      </trkpt>
      <trkpt lat="47.1917" lon="5.5339">
        <ele>323</ele>
        <time>2011-08-16T15:37:44Z</time>
      </trkpt>
      <trkpt lat="47.19168" lon="5.53406">
        <ele>323</ele>
        <time>2011-08-16T15:37:47Z</time>
      </trkpt>
      <trkpt lat="47.19167" lon="5.53424">
        <ele>323</ele>
        <time>2011-08-16T15:37:50Z</time>
      </trkpt>
      <trkpt lat="47.19167" lon="5.53441">
        <ele>328</ele>
        <time>2011-08-16T15:37:53Z</time>
      </trkpt>
      <trkpt lat="47.19167" lon="5.53458">
        <ele>328</ele>
        <time>2011-08-16T15:37:56Z</time>
      </trkpt>
      <trkpt lat="47.19167" lon="5.53476">
        <ele>328</ele>
        <time>2011-08-16T15:37:59Z</time>
      </trkpt>
      <trkpt lat="47.19167" lon="5.53493">
        <ele>328</ele>
        <time>2011-08-16T15:38:02Z</time>
      </trkpt>
      <trkpt lat="47.19167" lon="5.5351">
        <ele>328</ele>
        <time>2011-08-16T15:38:05Z</time>
      </trkpt>
      <trkpt lat="47.19167" lon="5.53528">
        <ele>328</ele>
        <time>2011-08-16T15:38:08Z</time>
      </trkpt>
      <trkpt lat="47.19167" lon="5.53545">
        <ele>334</ele>
        <time>2011-08-16T15:38:11Z</time>
      </trkpt>
      <trkpt lat="47.19168" lon="5.53562">
        <ele>334</ele>
        <time>2011-08-16T15:38:14Z</time>
      </trkpt>
      <trkpt lat="47.1917" lon="5.53579">
        <ele>334</ele>
        <time>2011-08-16T15:38:17Z</time>
      </trkpt>
      <trkpt lat="47.19173" lon="5.53596">
        <ele>334</ele>
        <time>2011-08-16T15:38:20Z</time>
      </trkpt>
      <trkpt lat="47.19177" lon="5.53612">
        <ele>334</ele>
        <time>2011-08-16T15:38:23Z</time>
      </trkpt>
      <trkpt lat="47.19181" lon="5.53628">
        <ele>334</ele>
        <time>2011-08-16T15:38:26Z</time>
      </trkpt>
      <trkpt lat="47.19186" lon="5.53644">
        <ele>334</ele>
        <time>2011-08-16T15:38:29Z</time>
      </trkpt>
      <trkpt lat="47.1919" lon="5.53661">
        <ele>334</ele>
        <time>2011-08-16T15:38:32Z</time>
      </trkpt>
      <trkpt lat="47.19194" lon="5.53677">
        <ele>334</ele>
        <time>2011-08-16T15:38:35Z</time>
      </trkpt>
      <trkpt lat="47.19197" lon="5.53693">
        <ele>334</ele>
        <time>2011-08-16T15:38:38Z</time>
      </trkpt>
      <trkpt lat="47.192" lon="5.53709">
        <ele>334</ele>
        <time>2011-08-16T15:38:41Z</time>
      </trkpt>
      <trkpt lat="47.19201" lon="5.53726">
        <ele>334</ele>
        <time>2011-08-16T15:38:44Z</time>
      </trkpt>
      <trkpt lat="47.19201" lon="5.53743">
        <ele>334</ele>
        <time>2011-08-16T15:38:47Z</time>
      </trkpt>
      <trkpt lat="47.192" lon="5.5376">
        <ele>334</ele>
        <time>2011-08-16T15:38:50Z</time>
      </trkpt>
      <trkpt lat="47.19198" lon="5.53777">
        <ele>334</ele>
        <time>2011-08-16T15:38:53Z</time>
      </trkpt>
      <trkpt lat="47.19195" lon="5.53793">
        <ele>334</ele>
        <time>2011-08-16T15:38:56Z</time>
      </trkpt>
      <trkpt lat="47.19192" lon="5.53808">
        <ele>339</ele>
        <time>2011-08-16T15:38:59Z</time>
      </trkpt>
      <trkpt lat="47.19187" lon="5.5382">
        <ele>345</ele>
        <time>2011-08-16T15:39:02Z</time>
      </trkpt>
      <trkpt lat="47.19179" lon="5.53831">
        <ele>345</ele>
        <time>2011-08-16T15:39:05Z</time>
      </trkpt>
      <trkpt lat="47.19171" lon="5.53842">
        <ele>356</ele>
        <time>2011-08-16T15:39:09Z</time>
      </trkpt>
      <trkpt lat="47.19162" lon="5.53849">
        <ele>365</ele>
        <time>2011-08-16T15:39:13Z</time>
      </trkpt>
      <trkpt lat="47.1915" lon="5.53854">
        <ele>365</ele>
        <time>2011-08-16T15:39:16Z</time>
      </trkpt>
      <trkpt lat="47.1914" lon="5.53855">
        <ele>365</ele>
        <time>2011-08-16T15:39:19Z</time>
      </trkpt>
      <trkpt lat="47.19129" lon="5.53855">
        <ele>365</ele>
        <time>2011-08-16T15:39:22Z</time>
      </trkpt>
      <trkpt lat="47.19116" lon="5.53851">
        <ele>365</ele>
        <time>2011-08-16T15:39:25Z</time>
      </trkpt>
      <trkpt lat="47.19108" lon="5.53846">
        <ele>365</ele>
        <time>2011-08-16T15:39:27Z</time>
      </trkpt>
      <trkpt lat="47.19097" lon="5.53841">
        <ele>371</ele>
        <time>2011-08-16T15:39:30Z</time>
      </trkpt>
      <trkpt lat="47.19088" lon="5.53837">
        <ele>371</ele>
        <time>2011-08-16T15:39:32Z</time>
      </trkpt>
      <trkpt lat="47.19077" lon="5.53832">
        <ele>371</ele>
        <time>2011-08-16T15:39:35Z</time>
      </trkpt>
      <trkpt lat="47.19068" lon="5.53828">
        <ele>371</ele>
        <time>2011-08-16T15:39:37Z</time>
      </trkpt>
      <trkpt lat="47.19059" lon="5.53823">
        <ele>371</ele>
        <time>2011-08-16T15:39:39Z</time>
      </trkpt>
      <trkpt lat="47.1905" lon="5.53819">
        <ele>371</ele>
        <time>2011-08-16T15:39:41Z</time>
      </trkpt>
      <trkpt lat="47.1904" lon="5.53813">
        <ele>371</ele>
        <time>2011-08-16T15:39:43Z</time>
      </trkpt>
      <trkpt lat="47.19031" lon="5.53811">
        <ele>371</ele>
        <time>2011-08-16T15:39:45Z</time>
      </trkpt>
      <trkpt lat="47.19022" lon="5.53806">
        <ele>371</ele>
        <time>2011-08-16T15:39:47Z</time>
      </trkpt>
      <trkpt lat="47.19012" lon="5.53801">
        <ele>371</ele>
        <time>2011-08-16T15:39:49Z</time>
      </trkpt>
      <trkpt lat="47.19002" lon="5.53798">
        <ele>371</ele>
        <time>2011-08-16T15:39:51Z</time>
      </trkpt>
      <trkpt lat="47.18993" lon="5.53793">
        <ele>371</ele>
        <time>2011-08-16T15:39:54Z</time>
      </trkpt>
      <trkpt lat="47.18982" lon="5.53791">
        <ele>378</ele>
        <time>2011-08-16T15:39:57Z</time>
      </trkpt>
      <trkpt lat="47.18969" lon="5.53786">
        <ele>378</ele>
        <time>2011-08-16T15:40:00Z</time>
      </trkpt>
      <trkpt lat="47.18959" lon="5.53784">
        <ele>389</ele>
        <time>2011-08-16T15:40:03Z</time>
      </trkpt>
      <trkpt lat="47.18949" lon="5.53785">
        <ele>396</ele>
        <time>2011-08-16T15:40:06Z</time>
      </trkpt>
      <trkpt lat="47.18935" lon="5.53786">
        <ele>396</ele>
        <time>2011-08-16T15:40:09Z</time>
      </trkpt>
      <trkpt lat="47.18923" lon="5.53787">
        <ele>407</ele>
        <time>2011-08-16T15:40:12Z</time>
      </trkpt>
      <trkpt lat="47.18914" lon="5.53789">
        <ele>407</ele>
        <time>2011-08-16T15:40:14Z</time>
      </trkpt>
      <trkpt lat="47.18904" lon="5.5379">
        <ele>407</ele>
        <time>2011-08-16T15:40:16Z</time>
      </trkpt>
      <trkpt lat="47.18893" lon="5.53791">
        <ele>415</ele>
        <time>2011-08-16T15:40:19Z</time>
      </trkpt>
      <trkpt lat="47.18881" lon="5.53793">
        <ele>415</ele>
        <time>2011-08-16T15:40:22Z</time>
      </trkpt>
      <trkpt lat="47.1887" lon="5.53796">
        <ele>420</ele>
        <time>2011-08-16T15:40:24Z</time>
      </trkpt>
      <trkpt lat="47.18858" lon="5.53796">
        <ele>425</ele>
        <time>2011-08-16T15:40:27Z</time>
      </trkpt>
      <trkpt lat="47.18846" lon="5.53797">
        <ele>430</ele>
        <time>2011-08-16T15:40:30Z</time>
      </trkpt>
      <trkpt lat="47.18835" lon="5.53799">
        <ele>430</ele>
        <time>2011-08-16T15:40:33Z</time>
      </trkpt>
      <trkpt lat="47.18824" lon="5.53802">
        <ele>430</ele>
        <time>2011-08-16T15:40:35Z</time>
      </trkpt>
      <trkpt lat="47.18814" lon="5.53804">
        <ele>430</ele>
        <time>2011-08-16T15:40:37Z</time>
      </trkpt>
      <trkpt lat="47.18805" lon="5.53806">
        <ele>437</ele>
        <time>2011-08-16T15:40:39Z</time>
      </trkpt>
      <trkpt lat="47.18795" lon="5.53809">
        <ele>437</ele>
        <time>2011-08-16T15:40:41Z</time>
      </trkpt>
      <trkpt lat="47.18783" lon="5.53811">
        <ele>437</ele>
        <time>2011-08-16T15:40:43Z</time>
      </trkpt>
      <trkpt lat="47.18772" lon="5.53813">
        <ele>437</ele>
        <time>2011-08-16T15:40:45Z</time>
      </trkpt>
      <trkpt lat="47.18761" lon="5.53815">
        <ele>437</ele>
        <time>2011-08-16T15:40:47Z</time>
      </trkpt>
      <trkpt lat="47.18747" lon="5.53818">
        <ele>437</ele>
        <time>2011-08-16T15:40:49Z</time>
      </trkpt>
      <trkpt lat="47.18732" lon="5.53821">
        <ele>437</ele>
        <time>2011-08-16T15:40:51Z</time>
      </trkpt>
      <trkpt lat="47.18715" lon="5.53828">
        <ele>437</ele>
        <time>2011-08-16T15:40:53Z</time>
      </trkpt>
      <trkpt lat="47.18705" lon="5.53831">
        <ele>430</ele>
        <time>2011-08-16T15:40:54Z</time>
      </trkpt>
      <trkpt lat="47.18696" lon="5.53833">
        <ele>430</ele>
        <time>2011-08-16T15:40:55Z</time>
      </trkpt>
      <trkpt lat="47.18687" lon="5.53837">
        <ele>430</ele>
        <time>2011-08-16T15:40:56Z</time>
      </trkpt>
      <trkpt lat="47.1867" lon="5.53837">
        <ele>422</ele>
        <time>2011-08-16T15:40:58Z</time>
      </trkpt>
      <trkpt lat="47.18655" lon="5.53837">
        <ele>422</ele>
        <time>2011-08-16T15:41:00Z</time>
      </trkpt>
      <trkpt lat="47.1864" lon="5.53837">
        <ele>413</ele>
        <time>2011-08-16T15:41:02Z</time>
      </trkpt>
      <trkpt lat="47.18623" lon="5.53838">
        <ele>405</ele>
        <time>2011-08-16T15:41:04Z</time>
      </trkpt>
      <trkpt lat="47.18614" lon="5.53837">
        <ele>405</ele>
        <time>2011-08-16T15:41:05Z</time>
      </trkpt>
      <trkpt lat="47.18598" lon="5.53835">
        <ele>395</ele>
        <time>2011-08-16T15:41:07Z</time>
      </trkpt>
      <trkpt lat="47.18584" lon="5.53837">
        <ele>395</ele>
        <time>2011-08-16T15:41:09Z</time>
      </trkpt>
      <trkpt lat="47.18568" lon="5.53838">
        <ele>386</ele>
        <time>2011-08-16T15:41:11Z</time>
      </trkpt>
      <trkpt lat="47.18554" lon="5.53841">
        <ele>386</ele>
        <time>2011-08-16T15:41:13Z</time>
      </trkpt>
      <trkpt lat="47.18538" lon="5.53841">
        <ele>379</ele>
        <time>2011-08-16T15:41:15Z</time>
      </trkpt>
      <trkpt lat="47.18522" lon="5.53842">
        <ele>379</ele>
        <time>2011-08-16T15:41:17Z</time>
      </trkpt>
      <trkpt lat="47.18506" lon="5.53846">
        <ele>372</ele>
        <time>2011-08-16T15:41:19Z</time>
      </trkpt>
      <trkpt lat="47.18494" lon="5.53849">
        <ele>372</ele>
        <time>2011-08-16T15:41:21Z</time>
      </trkpt>
      <trkpt lat="47.1848" lon="5.53852">
        <ele>363</ele>
        <time>2011-08-16T15:41:23Z</time>
      </trkpt>
      <trkpt lat="47.18467" lon="5.53854">
        <ele>363</ele>
        <time>2011-08-16T15:41:25Z</time>
      </trkpt>
      <trkpt lat="47.18455" lon="5.53855">
        <ele>363</ele>
        <time>2011-08-16T15:41:27Z</time>
      </trkpt>
      <trkpt lat="47.18445" lon="5.53858">
        <ele>363</ele>
        <time>2011-08-16T15:41:29Z</time>
      </trkpt>
      <trkpt lat="47.18434" lon="5.5386">
        <ele>363</ele>
        <time>2011-08-16T15:41:31Z</time>
      </trkpt>
      <trkpt lat="47.18424" lon="5.53863">
        <ele>363</ele>
        <time>2011-08-16T15:41:33Z</time>
      </trkpt>
      <trkpt lat="47.18413" lon="5.53864">
        <ele>363</ele>
        <time>2011-08-16T15:41:35Z</time>
      </trkpt>
      <trkpt lat="47.18403" lon="5.53866">
        <ele>363</ele>
        <time>2011-08-16T15:41:37Z</time>
      </trkpt>
      <trkpt lat="47.18393" lon="5.53867">
        <ele>363</ele>
        <time>2011-08-16T15:41:39Z</time>
      </trkpt>
      <trkpt lat="47.18379" lon="5.5387">
        <ele>363</ele>
        <time>2011-08-16T15:41:42Z</time>
      </trkpt>
      <trkpt lat="47.1837" lon="5.53871">
        <ele>370</ele>
        <time>2011-08-16T15:41:44Z</time>
      </trkpt>
      <trkpt lat="47.18361" lon="5.53872">
        <ele>370</ele>
        <time>2011-08-16T15:41:46Z</time>
      </trkpt>
      <trkpt lat="47.18348" lon="5.53874">
        <ele>370</ele>
        <time>2011-08-16T15:41:49Z</time>
      </trkpt>
      <trkpt lat="47.18337" lon="5.53877">
        <ele>379</ele>
        <time>2011-08-16T15:41:52Z</time>
      </trkpt>
      <trkpt lat="47.18325" lon="5.5388">
        <ele>379</ele>
        <time>2011-08-16T15:41:55Z</time>
      </trkpt>
      <trkpt lat="47.18313" lon="5.53882">
        <ele>388</ele>
        <time>2011-08-16T15:41:58Z</time>
      </trkpt>
      <trkpt lat="47.18299" lon="5.53885">
        <ele>388</ele>
        <time>2011-08-16T15:42:01Z</time>
      </trkpt>
      <trkpt lat="47.18288" lon="5.53887">
        <ele>396</ele>
        <time>2011-08-16T15:42:04Z</time>
      </trkpt>
      <trkpt lat="47.18277" lon="5.53889">
        <ele>396</ele>
        <time>2011-08-16T15:42:06Z</time>
      </trkpt>
      <trkpt lat="47.18268" lon="5.5389">
        <ele>396</ele>
        <time>2011-08-16T15:42:08Z</time>
      </trkpt>
      <trkpt lat="47.18258" lon="5.53891">
        <ele>396</ele>
        <time>2011-08-16T15:42:10Z</time>
      </trkpt>
      <trkpt lat="47.18247" lon="5.53893">
        <ele>396</ele>
        <time>2011-08-16T15:42:13Z</time>
      </trkpt>
      <trkpt lat="47.18233" lon="5.53897">
        <ele>396</ele>
        <time>2011-08-16T15:42:16Z</time>
      </trkpt>
      <trkpt lat="47.18223" lon="5.53898">
        <ele>396</ele>
        <time>2011-08-16T15:42:18Z</time>
      </trkpt>
      <trkpt lat="47.18213" lon="5.53899">
        <ele>396</ele>
        <time>2011-08-16T15:42:20Z</time>
      </trkpt>
      <trkpt lat="47.18204" lon="5.53899">
        <ele>396</ele>
        <time>2011-08-16T15:42:22Z</time>
      </trkpt>
      <trkpt lat="47.18195" lon="5.53901">
        <ele>396</ele>
        <time>2011-08-16T15:42:24Z</time>
      </trkpt>
      <trkpt lat="47.18184" lon="5.53904">
        <ele>396</ele>
        <time>2011-08-16T15:42:26Z</time>
      </trkpt>
      <trkpt lat="47.18174" lon="5.53907">
        <ele>396</ele>
        <time>2011-08-16T15:42:28Z</time>
      </trkpt>
      <trkpt lat="47.18161" lon="5.53911">
        <ele>396</ele>
        <time>2011-08-16T15:42:31Z</time>
      </trkpt>
      <trkpt lat="47.18151" lon="5.53914">
        <ele>391</ele>
        <time>2011-08-16T15:42:33Z</time>
      </trkpt>
      <trkpt lat="47.18141" lon="5.53924">
        <ele>391</ele>
        <time>2011-08-16T15:42:36Z</time>
      </trkpt>
      <trkpt lat="47.18129" lon="5.5393">
        <ele>391</ele>
        <time>2011-08-16T15:42:38Z</time>
      </trkpt>
      <trkpt lat="47.18119" lon="5.53936">
        <ele>391</ele>
        <time>2011-08-16T15:42:40Z</time>
      </trkpt>
      <trkpt lat="47.1811" lon="5.53943">
        <ele>391</ele>
        <time>2011-08-16T15:42:42Z</time>
      </trkpt>
      <trkpt lat="47.18103" lon="5.53952">
        <ele>391</ele>
        <time>2011-08-16T15:42:44Z</time>
      </trkpt>
      <trkpt lat="47.18092" lon="5.53961">
        <ele>391</ele>
        <time>2011-08-16T15:42:47Z</time>
      </trkpt>
      <trkpt lat="47.18086" lon="5.53971">
        <ele>391</ele>
        <time>2011-08-16T15:42:51Z</time>
      </trkpt>
      <trkpt lat="47.18076" lon="5.53977">
        <ele>391</ele>
        <time>2011-08-16T15:42:54Z</time>
      </trkpt>
      <trkpt lat="47.18066" lon="5.53981">
        <ele>398</ele>
        <time>2011-08-16T15:42:57Z</time>
      </trkpt>
      <trkpt lat="47.18057" lon="5.53983">
        <ele>398</ele>
        <time>2011-08-16T15:42:59Z</time>
      </trkpt>
      <trkpt lat="47.18045" lon="5.5398">
        <ele>398</ele>
        <time>2011-08-16T15:43:01Z</time>
      </trkpt>
      <trkpt lat="47.18032" lon="5.53973">
        <ele>398</ele>
        <time>2011-08-16T15:43:03Z</time>
      </trkpt>
      <trkpt lat="47.1802" lon="5.53964">
        <ele>398</ele>
        <time>2011-08-16T15:43:05Z</time>
      </trkpt>
      <trkpt lat="47.18005" lon="5.53954">
        <ele>392</ele>
        <time>2011-08-16T15:43:07Z</time>
      </trkpt>
      <trkpt lat="47.17997" lon="5.53948">
        <ele>392</ele>
        <time>2011-08-16T15:43:08Z</time>
      </trkpt>
      <trkpt lat="47.17981" lon="5.53936">
        <ele>392</ele>
        <time>2011-08-16T15:43:10Z</time>
      </trkpt>
      <trkpt lat="47.17972" lon="5.53929">
        <ele>386</ele>
        <time>2011-08-16T15:43:11Z</time>
      </trkpt>
      <trkpt lat="47.17964" lon="5.5392">
        <ele>386</ele>
        <time>2011-08-16T15:43:12Z</time>
      </trkpt>
      <trkpt lat="47.17956" lon="5.53911">
        <ele>386</ele>
        <time>2011-08-16T15:43:13Z</time>
      </trkpt>
      <trkpt lat="47.17947" lon="5.53902">
        <ele>380</ele>
        <time>2011-08-16T15:43:14Z</time>
      </trkpt>
      <trkpt lat="47.17939" lon="5.53893">
        <ele>380</ele>
        <time>2011-08-16T15:43:15Z</time>
      </trkpt>
      <trkpt lat="47.17929" lon="5.53884">
        <ele>380</ele>
        <time>2011-08-16T15:43:16Z</time>
      </trkpt>
      <trkpt lat="47.1792" lon="5.53878">
        <ele>380</ele>
        <time>2011-08-16T15:43:17Z</time>
      </trkpt>
      <trkpt lat="47.17909" lon="5.53871">
        <ele>372</ele>
        <time>2011-08-16T15:43:18Z</time>
      </trkpt>
      <trkpt lat="47.17899" lon="5.53864">
        <ele>372</ele>
        <time>2011-08-16T15:43:19Z</time>
      </trkpt>
      <trkpt lat="47.1789" lon="5.5386">
        <ele>372</ele>
        <time>2011-08-16T15:43:20Z</time>
      </trkpt>
      <trkpt lat="47.1788" lon="5.53857">
        <ele>372</ele>
        <time>2011-08-16T15:43:21Z</time>
      </trkpt>
      <trkpt lat="47.17871" lon="5.53854">
        <ele>372</ele>
        <time>2011-08-16T15:43:22Z</time>
      </trkpt>
      <trkpt lat="47.17862" lon="5.53855">
        <ele>372</ele>
        <time>2011-08-16T15:43:23Z</time>
      </trkpt>
      <trkpt lat="47.17847" lon="5.53871">
        <ele>372</ele>
        <time>2011-08-16T15:43:25Z</time>
      </trkpt>
      <trkpt lat="47.17839" lon="5.53881">
        <ele>372</ele>
        <time>2011-08-16T15:43:26Z</time>
      </trkpt>
      <trkpt lat="47.17833" lon="5.5389">
        <ele>372</ele>
        <time>2011-08-16T15:43:27Z</time>
      </trkpt>
      <trkpt lat="47.17824" lon="5.53907">
        <ele>380</ele>
        <time>2011-08-16T15:43:29Z</time>
      </trkpt>
      <trkpt lat="47.17822" lon="5.53931">
        <ele>386</ele>
        <time>2011-08-16T15:43:31Z</time>
      </trkpt>
      <trkpt lat="47.17822" lon="5.53948">
        <ele>386</ele>
        <time>2011-08-16T15:43:32Z</time>
      </trkpt>
      <trkpt lat="47.17822" lon="5.53965">
        <ele>386</ele>
        <time>2011-08-16T15:43:33Z</time>
      </trkpt>
      <trkpt lat="47.1782" lon="5.53981">
        <ele>395</ele>
        <time>2011-08-16T15:43:34Z</time>
      </trkpt>
      <trkpt lat="47.17818" lon="5.53998">
        <ele>395</ele>
        <time>2011-08-16T15:43:35Z</time>
      </trkpt>
      <trkpt lat="47.17818" lon="5.54014">
        <ele>395</ele>
        <time>2011-08-16T15:43:36Z</time>
      </trkpt>
      <trkpt lat="47.17816" lon="5.54032">
        <ele>401</ele>
        <time>2011-08-16T15:43:37Z</time>
      </trkpt>
      <trkpt lat="47.17815" lon="5.54052">
        <ele>401</ele>
        <time>2011-08-16T15:43:38Z</time>
      </trkpt>
      <trkpt lat="47.17814" lon="5.54069">
        <ele>401</ele>
        <time>2011-08-16T15:43:39Z</time>
      </trkpt>
      <trkpt lat="47.17813" lon="5.54086">
        <ele>401</ele>
        <time>2011-08-16T15:43:40Z</time>
      </trkpt>
      <trkpt lat="47.17809" lon="5.54104">
        <ele>401</ele>
        <time>2011-08-16T15:43:41Z</time>
      </trkpt>
      <trkpt lat="47.17805" lon="5.54121">
        <ele>401</ele>
        <time>2011-08-16T15:43:42Z</time>
      </trkpt>
      <trkpt lat="47.178" lon="5.54138">
        <ele>401</ele>
        <time>2011-08-16T15:43:43Z</time>
      </trkpt>
      <trkpt lat="47.17795" lon="5.54155">
        <ele>401</ele>
        <time>2011-08-16T15:43:44Z</time>
      </trkpt>
      <trkpt lat="47.17789" lon="5.54168">
        <ele>401</ele>
        <time>2011-08-16T15:43:45Z</time>
      </trkpt>
      <trkpt lat="47.17784" lon="5.54181">
        <ele>401</ele>
        <time>2011-08-16T15:43:46Z</time>
      </trkpt>
      <trkpt lat="47.17781" lon="5.54193">
        <ele>406</ele>
        <time>2011-08-16T15:43:47Z</time>
      </trkpt>
      <trkpt lat="47.17777" lon="5.54208">
        <ele>406</ele>
        <time>2011-08-16T15:43:48Z</time>
      </trkpt>
      <trkpt lat="47.17771" lon="5.54225">
        <ele>406</ele>
        <time>2011-08-16T15:43:49Z</time>
      </trkpt>
      <trkpt lat="47.17765" lon="5.54242">
        <ele>406</ele>
        <time>2011-08-16T15:43:50Z</time>
      </trkpt>
      <trkpt lat="47.1776" lon="5.5426">
        <ele>406</ele>
        <time>2011-08-16T15:43:51Z</time>
      </trkpt>
      <trkpt lat="47.17753" lon="5.54278">
        <ele>396</ele>
        <time>2011-08-16T15:43:52Z</time>
      </trkpt>
      <trkpt lat="47.17748" lon="5.54296">
        <ele>390</ele>
        <time>2011-08-16T15:43:53Z</time>
      </trkpt>
      <trkpt lat="47.17743" lon="5.54314">
        <ele>384</ele>
        <time>2011-08-16T15:43:54Z</time>
      </trkpt>
      <trkpt lat="47.1774" lon="5.54332">
        <ele>384</ele>
        <time>2011-08-16T15:43:55Z</time>
      </trkpt>
      <trkpt lat="47.17735" lon="5.54349">
        <ele>378</ele>
        <time>2011-08-16T15:43:56Z</time>
      </trkpt>
      <trkpt lat="47.17729" lon="5.54364">
        <ele>378</ele>
        <time>2011-08-16T15:43:57Z</time>
      </trkpt>
      <trkpt lat="47.17723" lon="5.54378">
        <ele>378</ele>
        <time>2011-08-16T15:43:58Z</time>
      </trkpt>
      <trkpt lat="47.17716" lon="5.54394">
        <ele>369</ele>
        <time>2011-08-16T15:43:59Z</time>
      </trkpt>
      <trkpt lat="47.17709" lon="5.54409">
        <ele>369</ele>
        <time>2011-08-16T15:44:00Z</time>
      </trkpt>
      <trkpt lat="47.17703" lon="5.54423">
        <ele>369</ele>
        <time>2011-08-16T15:44:01Z</time>
      </trkpt>
      <trkpt lat="47.17697" lon="5.54438">
        <ele>363</ele>
        <time>2011-08-16T15:44:02Z</time>
      </trkpt>
      <trkpt lat="47.17691" lon="5.54452">
        <ele>363</ele>
        <time>2011-08-16T15:44:03Z</time>
      </trkpt>
      <trkpt lat="47.17686" lon="5.54466">
        <ele>363</ele>
        <time>2011-08-16T15:44:04Z</time>
      </trkpt>
      <trkpt lat="47.17681" lon="5.54482">
        <ele>363</ele>
        <time>2011-08-16T15:44:05Z</time>
      </trkpt>
      <trkpt lat="47.17675" lon="5.54497">
        <ele>357</ele>
        <time>2011-08-16T15:44:06Z</time>
      </trkpt>
      <trkpt lat="47.17669" lon="5.54511">
        <ele>357</ele>
        <time>2011-08-16T15:44:07Z</time>
      </trkpt>
      <trkpt lat="47.17663" lon="5.54526">
        <ele>357</ele>
        <time>2011-08-16T15:44:08Z</time>
      </trkpt>
      <trkpt lat="47.17658" lon="5.54541">
        <ele>357</ele>
        <time>2011-08-16T15:44:09Z</time>
      </trkpt>
      <trkpt lat="47.1765" lon="5.54555">
        <ele>352</ele>
        <time>2011-08-16T15:44:10Z</time>
      </trkpt>
      <trkpt lat="47.17643" lon="5.5457">
        <ele>352</ele>
        <time>2011-08-16T15:44:11Z</time>
      </trkpt>
      <trkpt lat="47.17636" lon="5.54583">
        <ele>352</ele>
        <time>2011-08-16T15:44:12Z</time>
      </trkpt>
      <trkpt lat="47.17631" lon="5.54598">
        <ele>352</ele>
        <time>2011-08-16T15:44:13Z</time>
      </trkpt>
      <trkpt lat="47.17623" lon="5.54612">
        <ele>345</ele>
        <time>2011-08-16T15:44:14Z</time>
      </trkpt>
      <trkpt lat="47.17617" lon="5.54626">
        <ele>345</ele>
        <time>2011-08-16T15:44:15Z</time>
      </trkpt>
      <trkpt lat="47.1761" lon="5.54641">
        <ele>345</ele>
        <time>2011-08-16T15:44:16Z</time>
      </trkpt>
      <trkpt lat="47.17605" lon="5.54655">
        <ele>345</ele>
        <time>2011-08-16T15:44:17Z</time>
      </trkpt>
      <trkpt lat="47.17599" lon="5.54671">
        <ele>339</ele>
        <time>2011-08-16T15:44:18Z</time>
      </trkpt>
      <trkpt lat="47.17596" lon="5.54688">
        <ele>339</ele>
        <time>2011-08-16T15:44:19Z</time>
      </trkpt>
      <trkpt lat="47.17591" lon="5.54705">
        <ele>339</ele>
        <time>2011-08-16T15:44:20Z</time>
      </trkpt>
      <trkpt lat="47.17588" lon="5.54722">
        <ele>339</ele>
        <time>2011-08-16T15:44:21Z</time>
      </trkpt>
      <trkpt lat="47.17585" lon="5.5474">
        <ele>332</ele>
        <time>2011-08-16T15:44:22Z</time>
      </trkpt>
      <trkpt lat="47.17582" lon="5.54757">
        <ele>332</ele>
        <time>2011-08-16T15:44:23Z</time>
      </trkpt>
      <trkpt lat="47.1758" lon="5.54775">
        <ele>332</ele>
        <time>2011-08-16T15:44:24Z</time>
      </trkpt>
      <trkpt lat="47.17577" lon="5.54793">
        <ele>332</ele>
        <time>2011-08-16T15:44:25Z</time>
      </trkpt>
      <trkpt lat="47.17574" lon="5.5481">
        <ele>332</ele>
        <time>2011-08-16T15:44:26Z</time>
      </trkpt>
      <trkpt lat="47.17571" lon="5.54827">
        <ele>332</ele>
        <time>2011-08-16T15:44:27Z</time>
      </trkpt>
      <trkpt lat="47.17569" lon="5.54844">
        <ele>332</ele>
        <time>2011-08-16T15:44:28Z</time>
      </trkpt>
      <trkpt lat="47.17566" lon="5.54861">
        <ele>327</ele>
        <time>2011-08-16T15:44:29Z</time>
      </trkpt>
      <trkpt lat="47.17563" lon="5.54879">
        <ele>327</ele>
        <time>2011-08-16T15:44:30Z</time>
      </trkpt>
      <trkpt lat="47.17561" lon="5.54896">
        <ele>327</ele>
        <time>2011-08-16T15:44:31Z</time>
      </trkpt>
      <trkpt lat="47.17561" lon="5.54914">
        <ele>327</ele>
        <time>2011-08-16T15:44:32Z</time>
      </trkpt>
      <trkpt lat="47.17561" lon="5.54932">
        <ele>319</ele>
        <time>2011-08-16T15:44:33Z</time>
      </trkpt>
      <trkpt lat="47.17562" lon="5.5495">
        <ele>319</ele>
        <time>2011-08-16T15:44:34Z</time>
      </trkpt>
      <trkpt lat="47.17564" lon="5.54967">
        <ele>319</ele>
        <time>2011-08-16T15:44:35Z</time>
      </trkpt>
      <trkpt lat="47.17567" lon="5.54985">
        <ele>319</ele>
        <time>2011-08-16T15:44:36Z</time>
      </trkpt>
      <trkpt lat="47.17571" lon="5.55002">
        <ele>319</ele>
        <time>2011-08-16T15:44:37Z</time>
      </trkpt>
      <trkpt lat="47.17574" lon="5.55019">
        <ele>313</ele>
        <time>2011-08-16T15:44:38Z</time>
      </trkpt>
      <trkpt lat="47.17579" lon="5.55037">
        <ele>313</ele>
        <time>2011-08-16T15:44:39Z</time>
      </trkpt>
      <trkpt lat="47.17583" lon="5.55054">
        <ele>313</ele>
        <time>2011-08-16T15:44:40Z</time>
      </trkpt>
      <trkpt lat="47.17588" lon="5.5507">
        <ele>313</ele>
        <time>2011-08-16T15:44:41Z</time>
      </trkpt>
      <trkpt lat="47.17592" lon="5.55088">
        <ele>313</ele>
        <time>2011-08-16T15:44:42Z</time>
      </trkpt>
      <trkpt lat="47.17596" lon="5.55105">
        <ele>313</ele>
        <time>2011-08-16T15:44:43Z</time>
      </trkpt>
      <trkpt lat="47.17601" lon="5.55123">
        <ele>313</ele>
        <time>2011-08-16T15:44:44Z</time>
      </trkpt>
      <trkpt lat="47.17605" lon="5.55141">
        <ele>313</ele>
        <time>2011-08-16T15:44:45Z</time>
      </trkpt>
      <trkpt lat="47.17609" lon="5.55159">
        <ele>313</ele>
        <time>2011-08-16T15:44:46Z</time>
      </trkpt>
      <trkpt lat="47.1761" lon="5.55176">
        <ele>313</ele>
        <time>2011-08-16T15:44:47Z</time>
      </trkpt>
      <trkpt lat="47.17615" lon="5.55194">
        <ele>313</ele>
        <time>2011-08-16T15:44:48Z</time>
      </trkpt>
      <trkpt lat="47.17615" lon="5.55213">
        <ele>313</ele>
        <time>2011-08-16T15:44:49Z</time>
      </trkpt>
      <trkpt lat="47.17617" lon="5.55231">
        <ele>313</ele>
        <time>2011-08-16T15:44:50Z</time>
      </trkpt>
      <trkpt lat="47.17618" lon="5.55249">
        <ele>313</ele>
        <time>2011-08-16T15:44:51Z</time>
      </trkpt>
      <trkpt lat="47.17618" lon="5.55267">
        <ele>313</ele>
        <time>2011-08-16T15:44:52Z</time>
      </trkpt>
      <trkpt lat="47.1762" lon="5.55285">
        <ele>313</ele>
        <time>2011-08-16T15:44:53Z</time>
      </trkpt>
      <trkpt lat="47.17621" lon="5.55303">
        <ele>313</ele>
        <time>2011-08-16T15:44:54Z</time>
      </trkpt>
      <trkpt lat="47.17621" lon="5.55321">
        <ele>313</ele>
        <time>2011-08-16T15:44:55Z</time>
      </trkpt>
      <trkpt lat="47.17619" lon="5.55339">
        <ele>313</ele>
        <time>2011-08-16T15:44:56Z</time>
      </trkpt>
      <trkpt lat="47.17618" lon="5.55357">
        <ele>313</ele>
        <time>2011-08-16T15:44:57Z</time>
      </trkpt>
      <trkpt lat="47.17617" lon="5.55374">
        <ele>313</ele>
        <time>2011-08-16T15:44:58Z</time>
      </trkpt>
      <trkpt lat="47.17617" lon="5.55392">
        <ele>313</ele>
        <time>2011-08-16T15:44:59Z</time>
      </trkpt>
      <trkpt lat="47.17616" lon="5.5541">
        <ele>313</ele>
        <time>2011-08-16T15:45:00Z</time>
      </trkpt>
      <trkpt lat="47.17615" lon="5.55428">
        <ele>313</ele>
        <time>2011-08-16T15:45:01Z</time>
      </trkpt>
      <trkpt lat="47.17615" lon="5.55446">
        <ele>313</ele>
        <time>2011-08-16T15:45:02Z</time>
      </trkpt>
      <trkpt lat="47.17613" lon="5.55464">
        <ele>313</ele>
        <time>2011-08-16T15:45:03Z</time>
      </trkpt>
      <trkpt lat="47.17611" lon="5.55482">
        <ele>307</ele>
        <time>2011-08-16T15:45:04Z</time>
      </trkpt>
      <trkpt lat="47.17609" lon="5.555">
        <ele>307</ele>
        <time>2011-08-16T15:45:05Z</time>
      </trkpt>
      <trkpt lat="47.17607" lon="5.55516">
        <ele>307</ele>
        <time>2011-08-16T15:45:06Z</time>
      </trkpt>
      <trkpt lat="47.17606" lon="5.55532">
        <ele>307</ele>
        <time>2011-08-16T15:45:07Z</time>
      </trkpt>
      <trkpt lat="47.17602" lon="5.55545">
        <ele>307</ele>
        <time>2011-08-16T15:45:08Z</time>
      </trkpt>
      <trkpt lat="47.17597" lon="5.55556">
        <ele>307</ele>
        <time>2011-08-16T15:45:09Z</time>
      </trkpt>
      <trkpt lat="47.17589" lon="5.55565">
        <ele>307</ele>
        <time>2011-08-16T15:45:10Z</time>
      </trkpt>
      <trkpt lat="47.17577" lon="5.55569">
        <ele>307</ele>
        <time>2011-08-16T15:45:11Z</time>
      </trkpt>
      <trkpt lat="47.17565" lon="5.55564">
        <ele>302</ele>
        <time>2011-08-16T15:45:12Z</time>
      </trkpt>
      <trkpt lat="47.17553" lon="5.55556">
        <ele>302</ele>
        <time>2011-08-16T15:45:13Z</time>
      </trkpt>
      <trkpt lat="47.17541" lon="5.55549">
        <ele>302</ele>
        <time>2011-08-16T15:45:14Z</time>
      </trkpt>
      <trkpt lat="47.1753" lon="5.55542">
        <ele>302</ele>
        <time>2011-08-16T15:45:15Z</time>
      </trkpt>
      <trkpt lat="47.17518" lon="5.55535">
        <ele>302</ele>
        <time>2011-08-16T15:45:16Z</time>
      </trkpt>
      <trkpt lat="47.17506" lon="5.55532">
        <ele>295</ele>
        <time>2011-08-16T15:45:17Z</time>
      </trkpt>
      <trkpt lat="47.17495" lon="5.55531">
        <ele>295</ele>
        <time>2011-08-16T15:45:18Z</time>
      </trkpt>
      <trkpt lat="47.17484" lon="5.55533">
        <ele>295</ele>
        <time>2011-08-16T15:45:19Z</time>
      </trkpt>
      <trkpt lat="47.17473" lon="5.55535">
        <ele>295</ele>
        <time>2011-08-16T15:45:20Z</time>
      </trkpt>
      <trkpt lat="47.17461" lon="5.55536">
        <ele>295</ele>
        <time>2011-08-16T15:45:21Z</time>
      </trkpt>
      <trkpt lat="47.17451" lon="5.5554">
        <ele>295</ele>
        <time>2011-08-16T15:45:22Z</time>
      </trkpt>
      <trkpt lat="47.1744" lon="5.55543">
        <ele>295</ele>
        <time>2011-08-16T15:45:23Z</time>
      </trkpt>
      <trkpt lat="47.17428" lon="5.55546">
        <ele>295</ele>
        <time>2011-08-16T15:45:24Z</time>
      </trkpt>
      <trkpt lat="47.17417" lon="5.55549">
        <ele>295</ele>
        <time>2011-08-16T15:45:25Z</time>
      </trkpt>
      <trkpt lat="47.17405" lon="5.55551">
        <ele>295</ele>
        <time>2011-08-16T15:45:26Z</time>
      </trkpt>
      <trkpt lat="47.17393" lon="5.55552">
        <ele>302</ele>
        <time>2011-08-16T15:45:27Z</time>
      </trkpt>
      <trkpt lat="47.1738" lon="5.55554">
        <ele>302</ele>
        <time>2011-08-16T15:45:28Z</time>
      </trkpt>
      <trkpt lat="47.17369" lon="5.55558">
        <ele>302</ele>
        <time>2011-08-16T15:45:29Z</time>
      </trkpt>
      <trkpt lat="47.17357" lon="5.5556">
        <ele>302</ele>
        <time>2011-08-16T15:45:30Z</time>
      </trkpt>
      <trkpt lat="47.17346" lon="5.55563">
        <ele>302</ele>
        <time>2011-08-16T15:45:31Z</time>
      </trkpt>
      <trkpt lat="47.17337" lon="5.55568">
        <ele>307</ele>
        <time>2011-08-16T15:45:32Z</time>
      </trkpt>
      <trkpt lat="47.17327" lon="5.55571">
        <ele>307</ele>
        <time>2011-08-16T15:45:33Z</time>
      </trkpt>
      <trkpt lat="47.17318" lon="5.55576">
        <ele>313</ele>
        <time>2011-08-16T15:45:34Z</time>
      </trkpt>
      <trkpt lat="47.1731" lon="5.55582">
        <ele>313</ele>
        <time>2011-08-16T15:45:35Z</time>
      </trkpt>
      <trkpt lat="47.17292" lon="5.55591">
        <ele>313</ele>
        <time>2011-08-16T15:45:36Z</time>
      </trkpt>
      <trkpt lat="47.17277" lon="5.55604">
        <ele>303</ele>
        <time>2011-08-16T15:45:37Z</time>
      </trkpt>
      <trkpt lat="47.17263" lon="5.55614">
        <ele>298</ele>
        <time>2011-08-16T15:45:38Z</time>
      </trkpt>
      <trkpt lat="47.17251" lon="5.55626">
        <ele>298</ele>
        <time>2011-08-16T15:45:39Z</time>
      </trkpt>
      <trkpt lat="47.17242" lon="5.55639">
        <ele>291</ele>
        <time>2011-08-16T15:45:40Z</time>
      </trkpt>
      <trkpt lat="47.17235" lon="5.55656">
        <ele>291</ele>
        <time>2011-08-16T15:45:41Z</time>
      </trkpt>
      <trkpt lat="47.17231" lon="5.5567">
        <ele>291</ele>
        <time>2011-08-16T15:45:42Z</time>
      </trkpt>
      <trkpt lat="47.17226" lon="5.55686">
        <ele>291</ele>
        <time>2011-08-16T15:45:43Z</time>
      </trkpt>
      <trkpt lat="47.17223" lon="5.55706">
        <ele>291</ele>
        <time>2011-08-16T15:45:44Z</time>
      </trkpt>
      <trkpt lat="47.17219" lon="5.55726">
        <ele>291</ele>
        <time>2011-08-16T15:45:45Z</time>
      </trkpt>
      <trkpt lat="47.17215" lon="5.55745">
        <ele>286</ele>
        <time>2011-08-16T15:45:46Z</time>
      </trkpt>
      <trkpt lat="47.17212" lon="5.55763">
        <ele>286</ele>
        <time>2011-08-16T15:45:47Z</time>
      </trkpt>
      <trkpt lat="47.17209" lon="5.55782">
        <ele>286</ele>
        <time>2011-08-16T15:45:48Z</time>
      </trkpt>
      <trkpt lat="47.17207" lon="5.55802">
        <ele>279</ele>
        <time>2011-08-16T15:45:49Z</time>
      </trkpt>
      <trkpt lat="47.17207" lon="5.5582">
        <ele>279</ele>
        <time>2011-08-16T15:45:50Z</time>
      </trkpt>
      <trkpt lat="47.17207" lon="5.55837">
        <ele>279</ele>
        <time>2011-08-16T15:45:51Z</time>
      </trkpt>
      <trkpt lat="47.17207" lon="5.55854">
        <ele>273</ele>
        <time>2011-08-16T15:45:52Z</time>
      </trkpt>
      <trkpt lat="47.17213" lon="5.55871">
        <ele>273</ele>
        <time>2011-08-16T15:45:53Z</time>
      </trkpt>
      <trkpt lat="47.17221" lon="5.55887">
        <ele>273</ele>
        <time>2011-08-16T15:45:54Z</time>
      </trkpt>
      <trkpt lat="47.17232" lon="5.55902">
        <ele>273</ele>
        <time>2011-08-16T15:45:55Z</time>
      </trkpt>
      <trkpt lat="47.17239" lon="5.55917">
        <ele>273</ele>
        <time>2011-08-16T15:45:56Z</time>
      </trkpt>
      <trkpt lat="47.17247" lon="5.55932">
        <ele>268</ele>
        <time>2011-08-16T15:45:57Z</time>
      </trkpt>
      <trkpt lat="47.17253" lon="5.55949">
        <ele>268</ele>
        <time>2011-08-16T15:45:58Z</time>
      </trkpt>
      <trkpt lat="47.17259" lon="5.55964">
        <ele>268</ele>
        <time>2011-08-16T15:45:59Z</time>
      </trkpt>
      <trkpt lat="47.17265" lon="5.55978">
        <ele>268</ele>
        <time>2011-08-16T15:46:00Z</time>
      </trkpt>
      <trkpt lat="47.17271" lon="5.55994">
        <ele>268</ele>
        <time>2011-08-16T15:46:01Z</time>
      </trkpt>
      <trkpt lat="47.17277" lon="5.5601">
        <ele>262</ele>
        <time>2011-08-16T15:46:02Z</time>
      </trkpt>
      <trkpt lat="47.17284" lon="5.56025">
        <ele>262</ele>
        <time>2011-08-16T15:46:03Z</time>
      </trkpt>
      <trkpt lat="47.1729" lon="5.56038">
        <ele>262</ele>
        <time>2011-08-16T15:46:04Z</time>
      </trkpt>
      <trkpt lat="47.17294" lon="5.56053">
        <ele>262</ele>
        <time>2011-08-16T15:46:05Z</time>
      </trkpt>
      <trkpt lat="47.17296" lon="5.56068">
        <ele>262</ele>
        <time>2011-08-16T15:46:06Z</time>
      </trkpt>
      <trkpt lat="47.17294" lon="5.56083">
        <ele>262</ele>
        <time>2011-08-16T15:46:07Z</time>
      </trkpt>
      <trkpt lat="47.17291" lon="5.56097">
        <ele>262</ele>
        <time>2011-08-16T15:46:08Z</time>
      </trkpt>
      <trkpt lat="47.17285" lon="5.56108">
        <ele>262</ele>
        <time>2011-08-16T15:46:09Z</time>
      </trkpt>
      <trkpt lat="47.17273" lon="5.56112">
        <ele>262</ele>
        <time>2011-08-16T15:46:10Z</time>
      </trkpt>
      <trkpt lat="47.17261" lon="5.56113">
        <ele>262</ele>
        <time>2011-08-16T15:46:11Z</time>
      </trkpt>
      <trkpt lat="47.17249" lon="5.56109">
        <ele>262</ele>
        <time>2011-08-16T15:46:12Z</time>
      </trkpt>
      <trkpt lat="47.17239" lon="5.56101">
        <ele>262</ele>
        <time>2011-08-16T15:46:13Z</time>
      </trkpt>
      <trkpt lat="47.17231" lon="5.56093">
        <ele>262</ele>
        <time>2011-08-16T15:46:14Z</time>
      </trkpt>
      <trkpt lat="47.17219" lon="5.56068">
        <ele>262</ele>
        <time>2011-08-16T15:46:16Z</time>
      </trkpt>
      <trkpt lat="47.17211" lon="5.56051">
        <ele>262</ele>
        <time>2011-08-16T15:46:17Z</time>
      </trkpt>
      <trkpt lat="47.17204" lon="5.56035">
        <ele>262</ele>
        <time>2011-08-16T15:46:18Z</time>
      </trkpt>
      <trkpt lat="47.17194" lon="5.56019">
        <ele>262</ele>
        <time>2011-08-16T15:46:19Z</time>
      </trkpt>
      <trkpt lat="47.17186" lon="5.56007">
        <ele>262</ele>
        <time>2011-08-16T15:46:20Z</time>
      </trkpt>
      <trkpt lat="47.17177" lon="5.55996">
        <ele>257</ele>
        <time>2011-08-16T15:46:21Z</time>
      </trkpt>
      <trkpt lat="47.17167" lon="5.55987">
        <ele>257</ele>
        <time>2011-08-16T15:46:22Z</time>
      </trkpt>
      <trkpt lat="47.17157" lon="5.55981">
        <ele>257</ele>
        <time>2011-08-16T15:46:23Z</time>
      </trkpt>
      <trkpt lat="47.17145" lon="5.55983">
        <ele>257</ele>
        <time>2011-08-16T15:46:24Z</time>
      </trkpt>
      <trkpt lat="47.17133" lon="5.55992">
        <ele>257</ele>
        <time>2011-08-16T15:46:25Z</time>
      </trkpt>
      <trkpt lat="47.17123" lon="5.55997">
        <ele>257</ele>
        <time>2011-08-16T15:46:26Z</time>
      </trkpt>
      <trkpt lat="47.17114" lon="5.56008">
        <ele>257</ele>
        <time>2011-08-16T15:46:27Z</time>
      </trkpt>
      <trkpt lat="47.17109" lon="5.56026">
        <ele>257</ele>
        <time>2011-08-16T15:46:28Z</time>
      </trkpt>
      <trkpt lat="47.17103" lon="5.56042">
        <ele>257</ele>
        <time>2011-08-16T15:46:29Z</time>
      </trkpt>
      <trkpt lat="47.17096" lon="5.56058">
        <ele>257</ele>
        <time>2011-08-16T15:46:30Z</time>
      </trkpt>
      <trkpt lat="47.1709" lon="5.56074">
        <ele>257</ele>
        <time>2011-08-16T15:46:31Z</time>
      </trkpt>
      <trkpt lat="47.17084" lon="5.56088">
        <ele>257</ele>
        <time>2011-08-16T15:46:32Z</time>
      </trkpt>
      <trkpt lat="47.17076" lon="5.56101">
        <ele>252</ele>
        <time>2011-08-16T15:46:33Z</time>
      </trkpt>
      <trkpt lat="47.17068" lon="5.56114">
        <ele>252</ele>
        <time>2011-08-16T15:46:34Z</time>
      </trkpt>
      <trkpt lat="47.17059" lon="5.56124">
        <ele>252</ele>
        <time>2011-08-16T15:46:35Z</time>
      </trkpt>
      <trkpt lat="47.17049" lon="5.56132">
        <ele>252</ele>
        <time>2011-08-16T15:46:36Z</time>
      </trkpt>
      <trkpt lat="47.1704" lon="5.56141">
        <ele>252</ele>
        <time>2011-08-16T15:46:37Z</time>
      </trkpt>
      <trkpt lat="47.17032" lon="5.5615">
        <ele>252</ele>
        <time>2011-08-16T15:46:38Z</time>
      </trkpt>
      <trkpt lat="47.17023" lon="5.56157">
        <ele>252</ele>
        <time>2011-08-16T15:46:39Z</time>
      </trkpt>
      <trkpt lat="47.17013" lon="5.56164">
        <ele>252</ele>
        <time>2011-08-16T15:46:40Z</time>
      </trkpt>
      <trkpt lat="47.17003" lon="5.56171">
        <ele>252</ele>
        <time>2011-08-16T15:46:41Z</time>
      </trkpt>
      <trkpt lat="47.16992" lon="5.56178">
        <ele>252</ele>
        <time>2011-08-16T15:46:42Z</time>
      </trkpt>
      <trkpt lat="47.16981" lon="5.56186">
        <ele>252</ele>
        <time>2011-08-16T15:46:43Z</time>
      </trkpt>
      <trkpt lat="47.16971" lon="5.56194">
        <ele>252</ele>
        <time>2011-08-16T15:46:44Z</time>
      </trkpt>
      <trkpt lat="47.16962" lon="5.56201">
        <ele>252</ele>
        <time>2011-08-16T15:46:45Z</time>
      </trkpt>
      <trkpt lat="47.16952" lon="5.56208">
        <ele>252</ele>
        <time>2011-08-16T15:46:46Z</time>
      </trkpt>
      <trkpt lat="47.16942" lon="5.56215">
        <ele>252</ele>
        <time>2011-08-16T15:46:47Z</time>
      </trkpt>
      <trkpt lat="47.16932" lon="5.56223">
        <ele>252</ele>
        <time>2011-08-16T15:46:48Z</time>
      </trkpt>
      <trkpt lat="47.16921" lon="5.56229">
        <ele>252</ele>
        <time>2011-08-16T15:46:49Z</time>
      </trkpt>
      <trkpt lat="47.16911" lon="5.56233">
        <ele>252</ele>
        <time>2011-08-16T15:46:50Z</time>
      </trkpt>
      <trkpt lat="47.169" lon="5.56239">
        <ele>246</ele>
        <time>2011-08-16T15:46:51Z</time>
      </trkpt>
      <trkpt lat="47.1689" lon="5.56242">
        <ele>246</ele>
        <time>2011-08-16T15:46:52Z</time>
      </trkpt>
      <trkpt lat="47.1688" lon="5.56245">
        <ele>246</ele>
        <time>2011-08-16T15:46:53Z</time>
      </trkpt>
      <trkpt lat="47.16869" lon="5.56246">
        <ele>246</ele>
        <time>2011-08-16T15:46:54Z</time>
      </trkpt>
      <trkpt lat="47.16859" lon="5.56249">
        <ele>246</ele>
        <time>2011-08-16T15:46:55Z</time>
      </trkpt>
      <trkpt lat="47.1685" lon="5.5625">
        <ele>246</ele>
        <time>2011-08-16T15:46:56Z</time>
      </trkpt>
      <trkpt lat="47.1684" lon="5.56253">
        <ele>246</ele>
        <time>2011-08-16T15:46:57Z</time>
      </trkpt>
      <trkpt lat="47.16831" lon="5.56258">
        <ele>246</ele>
        <time>2011-08-16T15:46:58Z</time>
      </trkpt>
      <trkpt lat="47.16821" lon="5.56263">
        <ele>246</ele>
        <time>2011-08-16T15:46:59Z</time>
      </trkpt>
      <trkpt lat="47.16812" lon="5.5627">
        <ele>246</ele>
        <time>2011-08-16T15:47:00Z</time>
      </trkpt>
      <trkpt lat="47.16801" lon="5.56277">
        <ele>246</ele>
        <time>2011-08-16T15:47:01Z</time>
      </trkpt>
      <trkpt lat="47.16792" lon="5.56284">
        <ele>246</ele>
        <time>2011-08-16T15:47:02Z</time>
      </trkpt>
      <trkpt lat="47.16782" lon="5.56292">
        <ele>246</ele>
        <time>2011-08-16T15:47:03Z</time>
      </trkpt>
      <trkpt lat="47.16772" lon="5.56299">
        <ele>246</ele>
        <time>2011-08-16T15:47:04Z</time>
      </trkpt>
      <trkpt lat="47.16762" lon="5.56307">
        <ele>246</ele>
        <time>2011-08-16T15:47:05Z</time>
      </trkpt>
      <trkpt lat="47.16752" lon="5.56316">
        <ele>246</ele>
        <time>2011-08-16T15:47:06Z</time>
      </trkpt>
      <trkpt lat="47.16742" lon="5.56325">
        <ele>246</ele>
        <time>2011-08-16T15:47:07Z</time>
      </trkpt>
      <trkpt lat="47.16733" lon="5.56335">
        <ele>246</ele>
        <time>2011-08-16T15:47:08Z</time>
      </trkpt>
      <trkpt lat="47.16724" lon="5.56346">
        <ele>241</ele>
        <time>2011-08-16T15:47:09Z</time>
      </trkpt>
      <trkpt lat="47.16718" lon="5.56356">
        <ele>241</ele>
        <time>2011-08-16T15:47:10Z</time>
      </trkpt>
      <trkpt lat="47.16712" lon="5.56368">
        <ele>241</ele>
        <time>2011-08-16T15:47:11Z</time>
      </trkpt>
      <trkpt lat="47.16706" lon="5.56381">
        <ele>241</ele>
        <time>2011-08-16T15:47:12Z</time>
      </trkpt>
      <trkpt lat="47.16701" lon="5.56391">
        <ele>241</ele>
        <time>2011-08-16T15:47:13Z</time>
      </trkpt>
      <trkpt lat="47.16695" lon="5.56402">
        <ele>241</ele>
        <time>2011-08-16T15:47:14Z</time>
      </trkpt>
      <trkpt lat="47.16685" lon="5.56424">
        <ele>241</ele>
        <time>2011-08-16T15:47:16Z</time>
      </trkpt>
      <trkpt lat="47.16676" lon="5.56443">
        <ele>241</ele>
        <time>2011-08-16T15:47:18Z</time>
      </trkpt>
      <trkpt lat="47.16667" lon="5.56461">
        <ele>241</ele>
        <time>2011-08-16T15:47:20Z</time>
      </trkpt>
      <trkpt lat="47.16659" lon="5.56479">
        <ele>241</ele>
        <time>2011-08-16T15:47:22Z</time>
      </trkpt>
      <trkpt lat="47.16652" lon="5.56494">
        <ele>241</ele>
        <time>2011-08-16T15:47:24Z</time>
      </trkpt>
      <trkpt lat="47.16648" lon="5.56507">
        <ele>241</ele>
        <time>2011-08-16T15:47:26Z</time>
      </trkpt>
      <trkpt lat="47.16641" lon="5.56517">
        <ele>241</ele>
        <time>2011-08-16T15:47:30Z</time>
      </trkpt>
      <trkpt lat="47.1663" lon="5.56517">
        <ele>235</ele>
        <time>2011-08-16T15:47:34Z</time>
      </trkpt>
      <trkpt lat="47.1662" lon="5.56519">
        <ele>235</ele>
        <time>2011-08-16T15:47:38Z</time>
      </trkpt>
      <trkpt lat="47.16616" lon="5.56532">
        <ele>235</ele>
        <time>2011-08-16T15:48:00Z</time>
      </trkpt>
      <trkpt lat="47.16614" lon="5.56544">
        <ele>246</ele>
        <time>2011-08-16T15:48:34Z</time>
      </trkpt>
      <trkpt lat="47.16605" lon="5.5655">
        <ele>246</ele>
        <time>2011-08-16T15:48:54Z</time>
      </trkpt>
      <trkpt lat="47.16594" lon="5.56549">
        <ele>246</ele>
        <time>2011-08-16T15:48:58Z</time>
      </trkpt>
      <trkpt lat="47.16583" lon="5.56548">
        <ele>246</ele>
        <time>2011-08-16T15:49:01Z</time>
      </trkpt>
      <trkpt lat="47.16571" lon="5.56543">
        <ele>246</ele>
        <time>2011-08-16T15:49:04Z</time>
      </trkpt>
      <trkpt lat="47.16563" lon="5.56529">
        <ele>246</ele>
        <time>2011-08-16T15:49:07Z</time>
      </trkpt>
      <trkpt lat="47.16557" lon="5.56518">
        <ele>238</ele>
        <time>2011-08-16T15:49:11Z</time>
      </trkpt>
      <trkpt lat="47.16548" lon="5.56509">
        <ele>227</ele>
        <time>2011-08-16T15:51:37Z</time>
      </trkpt>
      <trkpt lat="47.16537" lon="5.56505">
        <ele>227</ele>
        <time>2011-08-16T15:51:41Z</time>
      </trkpt>
      <trkpt lat="47.16527" lon="5.56501">
        <ele>227</ele>
        <time>2011-08-16T15:51:43Z</time>
      </trkpt>
      <trkpt lat="47.16516" lon="5.56494">
        <ele>227</ele>
        <time>2011-08-16T15:51:45Z</time>
      </trkpt>
      <trkpt lat="47.16503" lon="5.56488">
        <ele>227</ele>
        <time>2011-08-16T15:51:47Z</time>
      </trkpt>
      <trkpt lat="47.16489" lon="5.56481">
        <ele>227</ele>
        <time>2011-08-16T15:51:49Z</time>
      </trkpt>
      <trkpt lat="47.16473" lon="5.56478">
        <ele>227</ele>
        <time>2011-08-16T15:51:51Z</time>
      </trkpt>
      <trkpt lat="47.16459" lon="5.56479">
        <ele>227</ele>
        <time>2011-08-16T15:51:53Z</time>
      </trkpt>
      <trkpt lat="47.16445" lon="5.56484">
        <ele>227</ele>
        <time>2011-08-16T15:51:55Z</time>
      </trkpt>
      <trkpt lat="47.1643" lon="5.56488">
        <ele>227</ele>
        <time>2011-08-16T15:51:57Z</time>
      </trkpt>
      <trkpt lat="47.16414" lon="5.56489">
        <ele>227</ele>
        <time>2011-08-16T15:51:59Z</time>
      </trkpt>
      <trkpt lat="47.16405" lon="5.56488">
        <ele>227</ele>
        <time>2011-08-16T15:52:00Z</time>
      </trkpt>
      <trkpt lat="47.16396" lon="5.56484">
        <ele>227</ele>
        <time>2011-08-16T15:52:01Z</time>
      </trkpt>
      <trkpt lat="47.16386" lon="5.56479">
        <ele>227</ele>
        <time>2011-08-16T15:52:02Z</time>
      </trkpt>
      <trkpt lat="47.16377" lon="5.56474">
        <ele>227</ele>
        <time>2011-08-16T15:52:03Z</time>
      </trkpt>
      <trkpt lat="47.16368" lon="5.56469">
        <ele>227</ele>
        <time>2011-08-16T15:52:04Z</time>
      </trkpt>
      <trkpt lat="47.16359" lon="5.56465">
        <ele>227</ele>
        <time>2011-08-16T15:52:05Z</time>
      </trkpt>
      <trkpt lat="47.16349" lon="5.56461">
        <ele>227</ele>
        <time>2011-08-16T15:52:06Z</time>
      </trkpt>
      <trkpt lat="47.1634" lon="5.5646">
        <ele>227</ele>
        <time>2011-08-16T15:52:07Z</time>
      </trkpt>
      <trkpt lat="47.1633" lon="5.5646">
        <ele>227</ele>
        <time>2011-08-16T15:52:08Z</time>
      </trkpt>
      <trkpt lat="47.16321" lon="5.56461">
        <ele>227</ele>
        <time>2011-08-16T15:52:09Z</time>
      </trkpt>
      <trkpt lat="47.16303" lon="5.5646">
        <ele>227</ele>
        <time>2011-08-16T15:52:11Z</time>
      </trkpt>
      <trkpt lat="47.16286" lon="5.56461">
        <ele>227</ele>
        <time>2011-08-16T15:52:13Z</time>
      </trkpt>
      <trkpt lat="47.16269" lon="5.56463">
        <ele>227</ele>
        <time>2011-08-16T15:52:15Z</time>
      </trkpt>
      <trkpt lat="47.16253" lon="5.56466">
        <ele>227</ele>
        <time>2011-08-16T15:52:17Z</time>
      </trkpt>
      <trkpt lat="47.16236" lon="5.56469">
        <ele>227</ele>
        <time>2011-08-16T15:52:19Z</time>
      </trkpt>
      <trkpt lat="47.1622" lon="5.56473">
        <ele>227</ele>
        <time>2011-08-16T15:52:21Z</time>
      </trkpt>
      <trkpt lat="47.16206" lon="5.56478">
        <ele>227</ele>
        <time>2011-08-16T15:52:23Z</time>
      </trkpt>
      <trkpt lat="47.16194" lon="5.56482">
        <ele>227</ele>
        <time>2011-08-16T15:52:25Z</time>
      </trkpt>
      <trkpt lat="47.16182" lon="5.56488">
        <ele>227</ele>
        <time>2011-08-16T15:52:27Z</time>
      </trkpt>
      <trkpt lat="47.1617" lon="5.56493">
        <ele>227</ele>
        <time>2011-08-16T15:52:29Z</time>
      </trkpt>
      <trkpt lat="47.16157" lon="5.56498">
        <ele>227</ele>
        <time>2011-08-16T15:52:31Z</time>
      </trkpt>
      <trkpt lat="47.16146" lon="5.56505">
        <ele>232</ele>
        <time>2011-08-16T15:52:33Z</time>
      </trkpt>
      <trkpt lat="47.16136" lon="5.56511">
        <ele>232</ele>
        <time>2011-08-16T15:52:35Z</time>
      </trkpt>
      <trkpt lat="47.16126" lon="5.56518">
        <ele>232</ele>
        <time>2011-08-16T15:52:37Z</time>
      </trkpt>
      <trkpt lat="47.16116" lon="5.56525">
        <ele>232</ele>
        <time>2011-08-16T15:52:39Z</time>
      </trkpt>
      <trkpt lat="47.16106" lon="5.56532">
        <ele>232</ele>
        <time>2011-08-16T15:52:41Z</time>
      </trkpt>
      <trkpt lat="47.16098" lon="5.56542">
        <ele>232</ele>
        <time>2011-08-16T15:52:43Z</time>
      </trkpt>
      <trkpt lat="47.16091" lon="5.56552">
        <ele>232</ele>
        <time>2011-08-16T15:52:45Z</time>
      </trkpt>
      <trkpt lat="47.16084" lon="5.56564">
        <ele>232</ele>
        <time>2011-08-16T15:52:47Z</time>
      </trkpt>
      <trkpt lat="47.16076" lon="5.56576">
        <ele>232</ele>
        <time>2011-08-16T15:52:49Z</time>
      </trkpt>
      <trkpt lat="47.1607" lon="5.56586">
        <ele>232</ele>
        <time>2011-08-16T15:52:51Z</time>
      </trkpt>
      <trkpt lat="47.16062" lon="5.56598">
        <ele>232</ele>
        <time>2011-08-16T15:52:53Z</time>
      </trkpt>
      <trkpt lat="47.16054" lon="5.56608">
        <ele>232</ele>
        <time>2011-08-16T15:52:55Z</time>
      </trkpt>
      <trkpt lat="47.16046" lon="5.56618">
        <ele>232</ele>
        <time>2011-08-16T15:52:57Z</time>
      </trkpt>
      <trkpt lat="47.16036" lon="5.56627">
        <ele>232</ele>
        <time>2011-08-16T15:52:59Z</time>
      </trkpt>
      <trkpt lat="47.16027" lon="5.56636">
        <ele>232</ele>
        <time>2011-08-16T15:53:01Z</time>
      </trkpt>
      <trkpt lat="47.16016" lon="5.56643">
        <ele>232</ele>
        <time>2011-08-16T15:53:03Z</time>
      </trkpt>
      <trkpt lat="47.16006" lon="5.5665">
        <ele>232</ele>
        <time>2011-08-16T15:53:05Z</time>
      </trkpt>
      <trkpt lat="47.15996" lon="5.56656">
        <ele>232</ele>
        <time>2011-08-16T15:53:07Z</time>
      </trkpt>
      <trkpt lat="47.15984" lon="5.56661">
        <ele>232</ele>
        <time>2011-08-16T15:53:09Z</time>
      </trkpt>
      <trkpt lat="47.15973" lon="5.56664">
        <ele>232</ele>
        <time>2011-08-16T15:53:11Z</time>
      </trkpt>
      <trkpt lat="47.15961" lon="5.56666">
        <ele>232</ele>
        <time>2011-08-16T15:53:13Z</time>
      </trkpt>
      <trkpt lat="47.15949" lon="5.56668">
        <ele>232</ele>
        <time>2011-08-16T15:53:15Z</time>
      </trkpt>
      <trkpt lat="47.15937" lon="5.56668">
        <ele>232</ele>
        <time>2011-08-16T15:53:17Z</time>
      </trkpt>
      <trkpt lat="47.15924" lon="5.56666">
        <ele>232</ele>
        <time>2011-08-16T15:53:19Z</time>
      </trkpt>
      <trkpt lat="47.15912" lon="5.56665">
        <ele>232</ele>
        <time>2011-08-16T15:53:21Z</time>
      </trkpt>
      <trkpt lat="47.15899" lon="5.56663">
        <ele>232</ele>
        <time>2011-08-16T15:53:23Z</time>
      </trkpt>
      <trkpt lat="47.15885" lon="5.56661">
        <ele>232</ele>
        <time>2011-08-16T15:53:25Z</time>
      </trkpt>
      <trkpt lat="47.15871" lon="5.56658">
        <ele>232</ele>
        <time>2011-08-16T15:53:27Z</time>
      </trkpt>
      <trkpt lat="47.15856" lon="5.56656">
        <ele>232</ele>
        <time>2011-08-16T15:53:29Z</time>
      </trkpt>
      <trkpt lat="47.1584" lon="5.56653">
        <ele>232</ele>
        <time>2011-08-16T15:53:31Z</time>
      </trkpt>
      <trkpt lat="47.15824" lon="5.5665">
        <ele>232</ele>
        <time>2011-08-16T15:53:33Z</time>
      </trkpt>
      <trkpt lat="47.15807" lon="5.56647">
        <ele>232</ele>
        <time>2011-08-16T15:53:35Z</time>
      </trkpt>
      <trkpt lat="47.15789" lon="5.56644">
        <ele>232</ele>
        <time>2011-08-16T15:53:37Z</time>
      </trkpt>
      <trkpt lat="47.1578" lon="5.56643">
        <ele>232</ele>
        <time>2011-08-16T15:53:38Z</time>
      </trkpt>
      <trkpt lat="47.15771" lon="5.56641">
        <ele>232</ele>
        <time>2011-08-16T15:53:39Z</time>
      </trkpt>
      <trkpt lat="47.15761" lon="5.56639">
        <ele>232</ele>
        <time>2011-08-16T15:53:40Z</time>
      </trkpt>
      <trkpt lat="47.15752" lon="5.56638">
        <ele>232</ele>
        <time>2011-08-16T15:53:41Z</time>
      </trkpt>
      <trkpt lat="47.15742" lon="5.56637">
        <ele>232</ele>
        <time>2011-08-16T15:53:42Z</time>
      </trkpt>
      <trkpt lat="47.15732" lon="5.56636">
        <ele>232</ele>
        <time>2011-08-16T15:53:43Z</time>
      </trkpt>
      <trkpt lat="47.15722" lon="5.56635">
        <ele>232</ele>
        <time>2011-08-16T15:53:44Z</time>
      </trkpt>
      <trkpt lat="47.15712" lon="5.56634">
        <ele>227</ele>
        <time>2011-08-16T15:53:45Z</time>
      </trkpt>
      <trkpt lat="47.15701" lon="5.56634">
        <ele>227</ele>
        <time>2011-08-16T15:53:46Z</time>
      </trkpt>
      <trkpt lat="47.15691" lon="5.56634">
        <ele>227</ele>
        <time>2011-08-16T15:53:47Z</time>
      </trkpt>
      <trkpt lat="47.15681" lon="5.56634">
        <ele>227</ele>
        <time>2011-08-16T15:53:48Z</time>
      </trkpt>
      <trkpt lat="47.1567" lon="5.56635">
        <ele>227</ele>
        <time>2011-08-16T15:53:49Z</time>
      </trkpt>
      <trkpt lat="47.1566" lon="5.56636">
        <ele>227</ele>
        <time>2011-08-16T15:53:50Z</time>
      </trkpt>
      <trkpt lat="47.15649" lon="5.56637">
        <ele>227</ele>
        <time>2011-08-16T15:53:51Z</time>
      </trkpt>
      <trkpt lat="47.1564" lon="5.56638">
        <ele>227</ele>
        <time>2011-08-16T15:53:52Z</time>
      </trkpt>
      <trkpt lat="47.15629" lon="5.5664">
        <ele>227</ele>
        <time>2011-08-16T15:53:53Z</time>
      </trkpt>
      <trkpt lat="47.15619" lon="5.56641">
        <ele>227</ele>
        <time>2011-08-16T15:53:54Z</time>
      </trkpt>
      <trkpt lat="47.15608" lon="5.56643">
        <ele>227</ele>
        <time>2011-08-16T15:53:55Z</time>
      </trkpt>
      <trkpt lat="47.15598" lon="5.56645">
        <ele>227</ele>
        <time>2011-08-16T15:53:56Z</time>
      </trkpt>
      <trkpt lat="47.15588" lon="5.56646">
        <ele>227</ele>
        <time>2011-08-16T15:53:57Z</time>
      </trkpt>
      <trkpt lat="47.15578" lon="5.56647">
        <ele>227</ele>
        <time>2011-08-16T15:53:58Z</time>
      </trkpt>
      <trkpt lat="47.15568" lon="5.56647">
        <ele>227</ele>
        <time>2011-08-16T15:53:59Z</time>
      </trkpt>
      <trkpt lat="47.15559" lon="5.56647">
        <ele>227</ele>
        <time>2011-08-16T15:54:00Z</time>
      </trkpt>
      <trkpt lat="47.15549" lon="5.56647">
        <ele>227</ele>
        <time>2011-08-16T15:54:01Z</time>
      </trkpt>
      <trkpt lat="47.1554" lon="5.56647">
        <ele>227</ele>
        <time>2011-08-16T15:54:02Z</time>
      </trkpt>
      <trkpt lat="47.1553" lon="5.56646">
        <ele>227</ele>
        <time>2011-08-16T15:54:03Z</time>
      </trkpt>
      <trkpt lat="47.15521" lon="5.56645">
        <ele>227</ele>
        <time>2011-08-16T15:54:04Z</time>
      </trkpt>
      <trkpt lat="47.15511" lon="5.56644">
        <ele>227</ele>
        <time>2011-08-16T15:54:05Z</time>
      </trkpt>
      <trkpt lat="47.15502" lon="5.56643">
        <ele>227</ele>
        <time>2011-08-16T15:54:06Z</time>
      </trkpt>
      <trkpt lat="47.15484" lon="5.5664">
        <ele>227</ele>
        <time>2011-08-16T15:54:08Z</time>
      </trkpt>
      <trkpt lat="47.15475" lon="5.56639">
        <ele>227</ele>
        <time>2011-08-16T15:54:09Z</time>
      </trkpt>
      <trkpt lat="47.15458" lon="5.56637">
        <ele>227</ele>
        <time>2011-08-16T15:54:11Z</time>
      </trkpt>
      <trkpt lat="47.1544" lon="5.56635">
        <ele>227</ele>
        <time>2011-08-16T15:54:13Z</time>
      </trkpt>
      <trkpt lat="47.15431" lon="5.56634">
        <ele>227</ele>
        <time>2011-08-16T15:54:14Z</time>
      </trkpt>
      <trkpt lat="47.15414" lon="5.56631">
        <ele>227</ele>
        <time>2011-08-16T15:54:16Z</time>
      </trkpt>
      <trkpt lat="47.15397" lon="5.56629">
        <ele>227</ele>
        <time>2011-08-16T15:54:18Z</time>
      </trkpt>
      <trkpt lat="47.1538" lon="5.56627">
        <ele>227</ele>
        <time>2011-08-16T15:54:20Z</time>
      </trkpt>
      <trkpt lat="47.15364" lon="5.56625">
        <ele>227</ele>
        <time>2011-08-16T15:54:22Z</time>
      </trkpt>
      <trkpt lat="47.15347" lon="5.56623">
        <ele>227</ele>
        <time>2011-08-16T15:54:24Z</time>
      </trkpt>
      <trkpt lat="47.15331" lon="5.5662">
        <ele>227</ele>
        <time>2011-08-16T15:54:26Z</time>
      </trkpt>
      <trkpt lat="47.15316" lon="5.56619">
        <ele>227</ele>
        <time>2011-08-16T15:54:28Z</time>
      </trkpt>
      <trkpt lat="47.153" lon="5.56617">
        <ele>227</ele>
        <time>2011-08-16T15:54:30Z</time>
      </trkpt>
      <trkpt lat="47.15285" lon="5.56615">
        <ele>227</ele>
        <time>2011-08-16T15:54:32Z</time>
      </trkpt>
      <trkpt lat="47.1527" lon="5.56613">
        <ele>227</ele>
        <time>2011-08-16T15:54:34Z</time>
      </trkpt>
      <trkpt lat="47.15255" lon="5.56611">
        <ele>227</ele>
        <time>2011-08-16T15:54:36Z</time>
      </trkpt>
      <trkpt lat="47.15241" lon="5.5661">
        <ele>227</ele>
        <time>2011-08-16T15:54:38Z</time>
      </trkpt>
      <trkpt lat="47.15227" lon="5.56607">
        <ele>227</ele>
        <time>2011-08-16T15:54:40Z</time>
      </trkpt>
      <trkpt lat="47.15213" lon="5.56603">
        <ele>227</ele>
        <time>2011-08-16T15:54:42Z</time>
      </trkpt>
      <trkpt lat="47.15198" lon="5.566">
        <ele>227</ele>
        <time>2011-08-16T15:54:44Z</time>
      </trkpt>
      <trkpt lat="47.15184" lon="5.56596">
        <ele>227</ele>
        <time>2011-08-16T15:54:46Z</time>
      </trkpt>
      <trkpt lat="47.1517" lon="5.56592">
        <ele>227</ele>
        <time>2011-08-16T15:54:48Z</time>
      </trkpt>
      <trkpt lat="47.15155" lon="5.56588">
        <ele>227</ele>
        <time>2011-08-16T15:54:50Z</time>
      </trkpt>
      <trkpt lat="47.15141" lon="5.56584">
        <ele>227</ele>
        <time>2011-08-16T15:54:52Z</time>
      </trkpt>
      <trkpt lat="47.15127" lon="5.56579">
        <ele>227</ele>
        <time>2011-08-16T15:54:54Z</time>
      </trkpt>
      <trkpt lat="47.15112" lon="5.56576">
        <ele>227</ele>
        <time>2011-08-16T15:54:56Z</time>
      </trkpt>
      <trkpt lat="47.15097" lon="5.56572">
        <ele>227</ele>
        <time>2011-08-16T15:54:58Z</time>
      </trkpt>
      <trkpt lat="47.15082" lon="5.5657">
        <ele>227</ele>
        <time>2011-08-16T15:55:00Z</time>
      </trkpt>
      <trkpt lat="47.15067" lon="5.56567">
        <ele>227</ele>
        <time>2011-08-16T15:55:02Z</time>
      </trkpt>
      <trkpt lat="47.15052" lon="5.56566">
        <ele>227</ele>
        <time>2011-08-16T15:55:04Z</time>
      </trkpt>
      <trkpt lat="47.15038" lon="5.56564">
        <ele>227</ele>
        <time>2011-08-16T15:55:06Z</time>
      </trkpt>
      <trkpt lat="47.15024" lon="5.56564">
        <ele>227</ele>
        <time>2011-08-16T15:55:08Z</time>
      </trkpt>
      <trkpt lat="47.15009" lon="5.56565">
        <ele>227</ele>
        <time>2011-08-16T15:55:10Z</time>
      </trkpt>
      <trkpt lat="47.14995" lon="5.56566">
        <ele>227</ele>
        <time>2011-08-16T15:55:12Z</time>
      </trkpt>
      <trkpt lat="47.14981" lon="5.56567">
        <ele>227</ele>
        <time>2011-08-16T15:55:14Z</time>
      </trkpt>
      <trkpt lat="47.14967" lon="5.56568">
        <ele>227</ele>
        <time>2011-08-16T15:55:16Z</time>
      </trkpt>
      <trkpt lat="47.14952" lon="5.5657">
        <ele>227</ele>
        <time>2011-08-16T15:55:18Z</time>
      </trkpt>
      <trkpt lat="47.14937" lon="5.56571">
        <ele>227</ele>
        <time>2011-08-16T15:55:20Z</time>
      </trkpt>
      <trkpt lat="47.14921" lon="5.56571">
        <ele>227</ele>
        <time>2011-08-16T15:55:22Z</time>
      </trkpt>
      <trkpt lat="47.14905" lon="5.56569">
        <ele>227</ele>
        <time>2011-08-16T15:55:24Z</time>
      </trkpt>
      <trkpt lat="47.14889" lon="5.56567">
        <ele>227</ele>
        <time>2011-08-16T15:55:26Z</time>
      </trkpt>
      <trkpt lat="47.14872" lon="5.56563">
        <ele>227</ele>
        <time>2011-08-16T15:55:28Z</time>
      </trkpt>
      <trkpt lat="47.14855" lon="5.56558">
        <ele>227</ele>
        <time>2011-08-16T15:55:30Z</time>
      </trkpt>
      <trkpt lat="47.14839" lon="5.56553">
        <ele>227</ele>
        <time>2011-08-16T15:55:32Z</time>
      </trkpt>
      <trkpt lat="47.14823" lon="5.56547">
        <ele>227</ele>
        <time>2011-08-16T15:55:34Z</time>
      </trkpt>
      <trkpt lat="47.14806" lon="5.56541">
        <ele>227</ele>
        <time>2011-08-16T15:55:36Z</time>
      </trkpt>
      <trkpt lat="47.1479" lon="5.56535">
        <ele>227</ele>
        <time>2011-08-16T15:55:38Z</time>
      </trkpt>
      <trkpt lat="47.14774" lon="5.56531">
        <ele>227</ele>
        <time>2011-08-16T15:55:40Z</time>
      </trkpt>
      <trkpt lat="47.14759" lon="5.56526">
        <ele>227</ele>
        <time>2011-08-16T15:55:42Z</time>
      </trkpt>
      <trkpt lat="47.14743" lon="5.56522">
        <ele>227</ele>
        <time>2011-08-16T15:55:44Z</time>
      </trkpt>
      <trkpt lat="47.14728" lon="5.56518">
        <ele>227</ele>
        <time>2011-08-16T15:55:46Z</time>
      </trkpt>
      <trkpt lat="47.14714" lon="5.56514">
        <ele>227</ele>
        <time>2011-08-16T15:55:48Z</time>
      </trkpt>
      <trkpt lat="47.147" lon="5.56513">
        <ele>227</ele>
        <time>2011-08-16T15:55:50Z</time>
      </trkpt>
      <trkpt lat="47.14687" lon="5.56511">
        <ele>227</ele>
        <time>2011-08-16T15:55:52Z</time>
      </trkpt>
      <trkpt lat="47.14674" lon="5.56509">
        <ele>227</ele>
        <time>2011-08-16T15:55:54Z</time>
      </trkpt>
      <trkpt lat="47.14663" lon="5.56507">
        <ele>227</ele>
        <time>2011-08-16T15:55:56Z</time>
      </trkpt>
      <trkpt lat="47.14651" lon="5.56505">
        <ele>227</ele>
        <time>2011-08-16T15:55:58Z</time>
      </trkpt>
      <trkpt lat="47.1464" lon="5.56504">
        <ele>227</ele>
        <time>2011-08-16T15:56:00Z</time>
      </trkpt>
      <trkpt lat="47.14628" lon="5.56502">
        <ele>227</ele>
        <time>2011-08-16T15:56:02Z</time>
      </trkpt>
      <trkpt lat="47.14617" lon="5.56501">
        <ele>227</ele>
        <time>2011-08-16T15:56:04Z</time>
      </trkpt>
      <trkpt lat="47.14607" lon="5.565">
        <ele>227</ele>
        <time>2011-08-16T15:56:06Z</time>
      </trkpt>
      <trkpt lat="47.14596" lon="5.56498">
        <ele>227</ele>
        <time>2011-08-16T15:56:08Z</time>
      </trkpt>
      <trkpt lat="47.14585" lon="5.56498">
        <ele>227</ele>
        <time>2011-08-16T15:56:10Z</time>
      </trkpt>
      <trkpt lat="47.14574" lon="5.56497">
        <ele>227</ele>
        <time>2011-08-16T15:56:12Z</time>
      </trkpt>
      <trkpt lat="47.14562" lon="5.56496">
        <ele>227</ele>
        <time>2011-08-16T15:56:14Z</time>
      </trkpt>
      <trkpt lat="47.14551" lon="5.56496">
        <ele>227</ele>
        <time>2011-08-16T15:56:16Z</time>
      </trkpt>
      <trkpt lat="47.14539" lon="5.56496">
        <ele>227</ele>
        <time>2011-08-16T15:56:18Z</time>
      </trkpt>
      <trkpt lat="47.14527" lon="5.56497">
        <ele>227</ele>
        <time>2011-08-16T15:56:20Z</time>
      </trkpt>
      <trkpt lat="47.14516" lon="5.56498">
        <ele>227</ele>
        <time>2011-08-16T15:56:22Z</time>
      </trkpt>
      <trkpt lat="47.14503" lon="5.565">
        <ele>232</ele>
        <time>2011-08-16T15:56:24Z</time>
      </trkpt>
      <trkpt lat="47.1449" lon="5.56501">
        <ele>232</ele>
        <time>2011-08-16T15:56:26Z</time>
      </trkpt>
      <trkpt lat="47.14477" lon="5.56502">
        <ele>232</ele>
        <time>2011-08-16T15:56:28Z</time>
      </trkpt>
      <trkpt lat="47.14463" lon="5.56503">
        <ele>232</ele>
        <time>2011-08-16T15:56:30Z</time>
      </trkpt>
      <trkpt lat="47.14449" lon="5.56504">
        <ele>232</ele>
        <time>2011-08-16T15:56:32Z</time>
      </trkpt>
      <trkpt lat="47.14435" lon="5.56505">
        <ele>232</ele>
        <time>2011-08-16T15:56:34Z</time>
      </trkpt>
      <trkpt lat="47.1442" lon="5.56505">
        <ele>232</ele>
        <time>2011-08-16T15:56:36Z</time>
      </trkpt>
      <trkpt lat="47.14404" lon="5.56505">
        <ele>232</ele>
        <time>2011-08-16T15:56:38Z</time>
      </trkpt>
      <trkpt lat="47.14388" lon="5.56505">
        <ele>232</ele>
        <time>2011-08-16T15:56:40Z</time>
      </trkpt>
      <trkpt lat="47.14371" lon="5.56503">
        <ele>232</ele>
        <time>2011-08-16T15:56:42Z</time>
      </trkpt>
      <trkpt lat="47.14353" lon="5.56502">
        <ele>232</ele>
        <time>2011-08-16T15:56:44Z</time>
      </trkpt>
      <trkpt lat="47.14344" lon="5.56501">
        <ele>232</ele>
        <time>2011-08-16T15:56:45Z</time>
      </trkpt>
      <trkpt lat="47.14335" lon="5.565">
        <ele>232</ele>
        <time>2011-08-16T15:56:46Z</time>
      </trkpt>
      <trkpt lat="47.14326" lon="5.56499">
        <ele>232</ele>
        <time>2011-08-16T15:56:47Z</time>
      </trkpt>
      <trkpt lat="47.14316" lon="5.56497">
        <ele>232</ele>
        <time>2011-08-16T15:56:48Z</time>
      </trkpt>
      <trkpt lat="47.14307" lon="5.56496">
        <ele>232</ele>
        <time>2011-08-16T15:56:49Z</time>
      </trkpt>
      <trkpt lat="47.14297" lon="5.56494">
        <ele>227</ele>
        <time>2011-08-16T15:56:50Z</time>
      </trkpt>
      <trkpt lat="47.14287" lon="5.56492">
        <ele>227</ele>
        <time>2011-08-16T15:56:51Z</time>
      </trkpt>
      <trkpt lat="47.14277" lon="5.56489">
        <ele>227</ele>
        <time>2011-08-16T15:56:52Z</time>
      </trkpt>
      <trkpt lat="47.14267" lon="5.56488">
        <ele>227</ele>
        <time>2011-08-16T15:56:53Z</time>
      </trkpt>
      <trkpt lat="47.14256" lon="5.56485">
        <ele>227</ele>
        <time>2011-08-16T15:56:54Z</time>
      </trkpt>
      <trkpt lat="47.14246" lon="5.56483">
        <ele>227</ele>
        <time>2011-08-16T15:56:55Z</time>
      </trkpt>
      <trkpt lat="47.14235" lon="5.5648">
        <ele>227</ele>
        <time>2011-08-16T15:56:56Z</time>
      </trkpt>
      <trkpt lat="47.14226" lon="5.56478">
        <ele>227</ele>
        <time>2011-08-16T15:56:57Z</time>
      </trkpt>
      <trkpt lat="47.14215" lon="5.56475">
        <ele>227</ele>
        <time>2011-08-16T15:56:58Z</time>
      </trkpt>
      <trkpt lat="47.14204" lon="5.56473">
        <ele>227</ele>
        <time>2011-08-16T15:56:59Z</time>
      </trkpt>
      <trkpt lat="47.14194" lon="5.5647">
        <ele>227</ele>
        <time>2011-08-16T15:57:00Z</time>
      </trkpt>
      <trkpt lat="47.14183" lon="5.56468">
        <ele>227</ele>
        <time>2011-08-16T15:57:01Z</time>
      </trkpt>
      <trkpt lat="47.14173" lon="5.56465">
        <ele>222</ele>
        <time>2011-08-16T15:57:02Z</time>
      </trkpt>
      <trkpt lat="47.14163" lon="5.56462">
        <ele>222</ele>
        <time>2011-08-16T15:57:03Z</time>
      </trkpt>
      <trkpt lat="47.14152" lon="5.56461">
        <ele>222</ele>
        <time>2011-08-16T15:57:04Z</time>
      </trkpt>
      <trkpt lat="47.14142" lon="5.56458">
        <ele>222</ele>
        <time>2011-08-16T15:57:05Z</time>
      </trkpt>
      <trkpt lat="47.14133" lon="5.56455">
        <ele>222</ele>
        <time>2011-08-16T15:57:06Z</time>
      </trkpt>
      <trkpt lat="47.14122" lon="5.56452">
        <ele>222</ele>
        <time>2011-08-16T15:57:07Z</time>
      </trkpt>
      <trkpt lat="47.14112" lon="5.5645">
        <ele>222</ele>
        <time>2011-08-16T15:57:08Z</time>
      </trkpt>
      <trkpt lat="47.14102" lon="5.56448">
        <ele>222</ele>
        <time>2011-08-16T15:57:09Z</time>
      </trkpt>
      <trkpt lat="47.14093" lon="5.56444">
        <ele>222</ele>
        <time>2011-08-16T15:57:10Z</time>
      </trkpt>
      <trkpt lat="47.14083" lon="5.56442">
        <ele>222</ele>
        <time>2011-08-16T15:57:11Z</time>
      </trkpt>
      <trkpt lat="47.14074" lon="5.56438">
        <ele>222</ele>
        <time>2011-08-16T15:57:12Z</time>
      </trkpt>
      <trkpt lat="47.14064" lon="5.56435">
        <ele>222</ele>
        <time>2011-08-16T15:57:13Z</time>
      </trkpt>
      <trkpt lat="47.14054" lon="5.5643">
        <ele>222</ele>
        <time>2011-08-16T15:57:14Z</time>
      </trkpt>
      <trkpt lat="47.14044" lon="5.56426">
        <ele>222</ele>
        <time>2011-08-16T15:57:15Z</time>
      </trkpt>
      <trkpt lat="47.14034" lon="5.56421">
        <ele>222</ele>
        <time>2011-08-16T15:57:16Z</time>
      </trkpt>
      <trkpt lat="47.14025" lon="5.56417">
        <ele>222</ele>
        <time>2011-08-16T15:57:17Z</time>
      </trkpt>
      <trkpt lat="47.14015" lon="5.56411">
        <ele>222</ele>
        <time>2011-08-16T15:57:18Z</time>
      </trkpt>
      <trkpt lat="47.14006" lon="5.56406">
        <ele>222</ele>
        <time>2011-08-16T15:57:19Z</time>
      </trkpt>
      <trkpt lat="47.13996" lon="5.56401">
        <ele>222</ele>
        <time>2011-08-16T15:57:20Z</time>
      </trkpt>
      <trkpt lat="47.13987" lon="5.56396">
        <ele>222</ele>
        <time>2011-08-16T15:57:21Z</time>
      </trkpt>
      <trkpt lat="47.13977" lon="5.5639">
        <ele>222</ele>
        <time>2011-08-16T15:57:22Z</time>
      </trkpt>
      <trkpt lat="47.13967" lon="5.56386">
        <ele>222</ele>
        <time>2011-08-16T15:57:23Z</time>
      </trkpt>
      <trkpt lat="47.13958" lon="5.56382">
        <ele>222</ele>
        <time>2011-08-16T15:57:24Z</time>
      </trkpt>
      <trkpt lat="47.13948" lon="5.56377">
        <ele>222</ele>
        <time>2011-08-16T15:57:25Z</time>
      </trkpt>
      <trkpt lat="47.13938" lon="5.56373">
        <ele>222</ele>
        <time>2011-08-16T15:57:26Z</time>
      </trkpt>
      <trkpt lat="47.13928" lon="5.56371">
        <ele>222</ele>
        <time>2011-08-16T15:57:27Z</time>
      </trkpt>
      <trkpt lat="47.13919" lon="5.56368">
        <ele>222</ele>
        <time>2011-08-16T15:57:28Z</time>
      </trkpt>
      <trkpt lat="47.13909" lon="5.56365">
        <ele>222</ele>
        <time>2011-08-16T15:57:29Z</time>
      </trkpt>
      <trkpt lat="47.139" lon="5.56364">
        <ele>222</ele>
        <time>2011-08-16T15:57:30Z</time>
      </trkpt>
      <trkpt lat="47.1389" lon="5.56362">
        <ele>222</ele>
        <time>2011-08-16T15:57:31Z</time>
      </trkpt>
      <trkpt lat="47.13881" lon="5.5636">
        <ele>222</ele>
        <time>2011-08-16T15:57:32Z</time>
      </trkpt>
      <trkpt lat="47.13871" lon="5.56359">
        <ele>222</ele>
        <time>2011-08-16T15:57:33Z</time>
      </trkpt>
      <trkpt lat="47.13862" lon="5.56358">
        <ele>222</ele>
        <time>2011-08-16T15:57:34Z</time>
      </trkpt>
      <trkpt lat="47.13852" lon="5.56357">
        <ele>222</ele>
        <time>2011-08-16T15:57:35Z</time>
      </trkpt>
      <trkpt lat="47.13843" lon="5.56356">
        <ele>222</ele>
        <time>2011-08-16T15:57:36Z</time>
      </trkpt>
      <trkpt lat="47.13833" lon="5.56355">
        <ele>222</ele>
        <time>2011-08-16T15:57:37Z</time>
      </trkpt>
      <trkpt lat="47.13822" lon="5.56353">
        <ele>222</ele>
        <time>2011-08-16T15:57:38Z</time>
      </trkpt>
      <trkpt lat="47.13811" lon="5.56352">
        <ele>222</ele>
        <time>2011-08-16T15:57:39Z</time>
      </trkpt>
      <trkpt lat="47.13802" lon="5.56351">
        <ele>222</ele>
        <time>2011-08-16T15:57:40Z</time>
      </trkpt>
      <trkpt lat="47.13792" lon="5.56349">
        <ele>222</ele>
        <time>2011-08-16T15:57:41Z</time>
      </trkpt>
      <trkpt lat="47.13783" lon="5.56347">
        <ele>217</ele>
        <time>2011-08-16T15:57:42Z</time>
      </trkpt>
      <trkpt lat="47.13774" lon="5.56346">
        <ele>217</ele>
        <time>2011-08-16T15:57:43Z</time>
      </trkpt>
      <trkpt lat="47.13765" lon="5.56344">
        <ele>217</ele>
        <time>2011-08-16T15:57:44Z</time>
      </trkpt>
      <trkpt lat="47.13756" lon="5.56343">
        <ele>217</ele>
        <time>2011-08-16T15:57:45Z</time>
      </trkpt>
      <trkpt lat="47.13738" lon="5.56341">
        <ele>217</ele>
        <time>2011-08-16T15:57:47Z</time>
      </trkpt>
      <trkpt lat="47.13729" lon="5.56339">
        <ele>217</ele>
        <time>2011-08-16T15:57:48Z</time>
      </trkpt>
      <trkpt lat="47.13711" lon="5.56336">
        <ele>217</ele>
        <time>2011-08-16T15:57:50Z</time>
      </trkpt>
      <trkpt lat="47.13693" lon="5.56332">
        <ele>217</ele>
        <time>2011-08-16T15:57:52Z</time>
      </trkpt>
      <trkpt lat="47.13676" lon="5.56328">
        <ele>217</ele>
        <time>2011-08-16T15:57:54Z</time>
      </trkpt>
      <trkpt lat="47.13658" lon="5.56324">
        <ele>217</ele>
        <time>2011-08-16T15:57:56Z</time>
      </trkpt>
      <trkpt lat="47.13642" lon="5.5632">
        <ele>217</ele>
        <time>2011-08-16T15:57:58Z</time>
      </trkpt>
      <trkpt lat="47.13625" lon="5.56317">
        <ele>217</ele>
        <time>2011-08-16T15:58:00Z</time>
      </trkpt>
      <trkpt lat="47.13609" lon="5.56314">
        <ele>217</ele>
        <time>2011-08-16T15:58:02Z</time>
      </trkpt>
      <trkpt lat="47.13594" lon="5.56312">
        <ele>217</ele>
        <time>2011-08-16T15:58:04Z</time>
      </trkpt>
      <trkpt lat="47.13579" lon="5.5631">
        <ele>217</ele>
        <time>2011-08-16T15:58:06Z</time>
      </trkpt>
      <trkpt lat="47.13564" lon="5.56308">
        <ele>217</ele>
        <time>2011-08-16T15:58:08Z</time>
      </trkpt>
      <trkpt lat="47.1355" lon="5.56307">
        <ele>217</ele>
        <time>2011-08-16T15:58:10Z</time>
      </trkpt>
      <trkpt lat="47.13537" lon="5.56305">
        <ele>217</ele>
        <time>2011-08-16T15:58:12Z</time>
      </trkpt>
      <trkpt lat="47.13523" lon="5.56304">
        <ele>217</ele>
        <time>2011-08-16T15:58:14Z</time>
      </trkpt>
      <trkpt lat="47.1351" lon="5.56303">
        <ele>217</ele>
        <time>2011-08-16T15:58:16Z</time>
      </trkpt>
      <trkpt lat="47.13497" lon="5.56302">
        <ele>217</ele>
        <time>2011-08-16T15:58:18Z</time>
      </trkpt>
      <trkpt lat="47.13484" lon="5.56302">
        <ele>217</ele>
        <time>2011-08-16T15:58:20Z</time>
      </trkpt>
      <trkpt lat="47.13471" lon="5.56301">
        <ele>217</ele>
        <time>2011-08-16T15:58:22Z</time>
      </trkpt>
      <trkpt lat="47.13458" lon="5.563">
        <ele>217</ele>
        <time>2011-08-16T15:58:24Z</time>
      </trkpt>
      <trkpt lat="47.13446" lon="5.56299">
        <ele>217</ele>
        <time>2011-08-16T15:58:26Z</time>
      </trkpt>
      <trkpt lat="47.13433" lon="5.56298">
        <ele>217</ele>
        <time>2011-08-16T15:58:28Z</time>
      </trkpt>
      <trkpt lat="47.1342" lon="5.56296">
        <ele>217</ele>
        <time>2011-08-16T15:58:30Z</time>
      </trkpt>
      <trkpt lat="47.13407" lon="5.56295">
        <ele>217</ele>
        <time>2011-08-16T15:58:32Z</time>
      </trkpt>
      <trkpt lat="47.13394" lon="5.56293">
        <ele>217</ele>
        <time>2011-08-16T15:58:34Z</time>
      </trkpt>
      <trkpt lat="47.13381" lon="5.56293">
        <ele>217</ele>
        <time>2011-08-16T15:58:36Z</time>
      </trkpt>
      <trkpt lat="47.13368" lon="5.56292">
        <ele>217</ele>
        <time>2011-08-16T15:58:38Z</time>
      </trkpt>
      <trkpt lat="47.13354" lon="5.56291">
        <ele>217</ele>
        <time>2011-08-16T15:58:40Z</time>
      </trkpt>
      <trkpt lat="47.13341" lon="5.56289">
        <ele>217</ele>
        <time>2011-08-16T15:58:42Z</time>
      </trkpt>
      <trkpt lat="47.13328" lon="5.56288">
        <ele>217</ele>
        <time>2011-08-16T15:58:44Z</time>
      </trkpt>
      <trkpt lat="47.13314" lon="5.56287">
        <ele>217</ele>
        <time>2011-08-16T15:58:46Z</time>
      </trkpt>
      <trkpt lat="47.13301" lon="5.56285">
        <ele>217</ele>
        <time>2011-08-16T15:58:48Z</time>
      </trkpt>
      <trkpt lat="47.13288" lon="5.56284">
        <ele>217</ele>
        <time>2011-08-16T15:58:50Z</time>
      </trkpt>
      <trkpt lat="47.13274" lon="5.56282">
        <ele>217</ele>
        <time>2011-08-16T15:58:52Z</time>
      </trkpt>
      <trkpt lat="47.13261" lon="5.56279">
        <ele>217</ele>
        <time>2011-08-16T15:58:54Z</time>
      </trkpt>
      <trkpt lat="47.13247" lon="5.56276">
        <ele>217</ele>
        <time>2011-08-16T15:58:56Z</time>
      </trkpt>
      <trkpt lat="47.13233" lon="5.56274">
        <ele>217</ele>
        <time>2011-08-16T15:58:58Z</time>
      </trkpt>
      <trkpt lat="47.13219" lon="5.5627">
        <ele>217</ele>
        <time>2011-08-16T15:59:00Z</time>
      </trkpt>
      <trkpt lat="47.13205" lon="5.56267">
        <ele>217</ele>
        <time>2011-08-16T15:59:02Z</time>
      </trkpt>
      <trkpt lat="47.13191" lon="5.56262">
        <ele>217</ele>
        <time>2011-08-16T15:59:04Z</time>
      </trkpt>
      <trkpt lat="47.13176" lon="5.56257">
        <ele>217</ele>
        <time>2011-08-16T15:59:06Z</time>
      </trkpt>
      <trkpt lat="47.13161" lon="5.56251">
        <ele>217</ele>
        <time>2011-08-16T15:59:08Z</time>
      </trkpt>
      <trkpt lat="47.13146" lon="5.56245">
        <ele>217</ele>
        <time>2011-08-16T15:59:10Z</time>
      </trkpt>
      <trkpt lat="47.13131" lon="5.56239">
        <ele>217</ele>
        <time>2011-08-16T15:59:12Z</time>
      </trkpt>
      <trkpt lat="47.13116" lon="5.56232">
        <ele>217</ele>
        <time>2011-08-16T15:59:14Z</time>
      </trkpt>
      <trkpt lat="47.131" lon="5.56226">
        <ele>217</ele>
        <time>2011-08-16T15:59:16Z</time>
      </trkpt>
      <trkpt lat="47.13083" lon="5.56219">
        <ele>217</ele>
        <time>2011-08-16T15:59:18Z</time>
      </trkpt>
      <trkpt lat="47.13074" lon="5.56215">
        <ele>217</ele>
        <time>2011-08-16T15:59:19Z</time>
      </trkpt>
      <trkpt lat="47.13058" lon="5.56208">
        <ele>217</ele>
        <time>2011-08-16T15:59:21Z</time>
      </trkpt>
      <trkpt lat="47.13049" lon="5.56205">
        <ele>217</ele>
        <time>2011-08-16T15:59:22Z</time>
      </trkpt>
      <trkpt lat="47.13033" lon="5.56196">
        <ele>217</ele>
        <time>2011-08-16T15:59:24Z</time>
      </trkpt>
      <trkpt lat="47.13024" lon="5.56193">
        <ele>217</ele>
        <time>2011-08-16T15:59:25Z</time>
      </trkpt>
      <trkpt lat="47.13016" lon="5.56189">
        <ele>217</ele>
        <time>2011-08-16T15:59:26Z</time>
      </trkpt>
      <trkpt lat="47.13006" lon="5.56187">
        <ele>217</ele>
        <time>2011-08-16T15:59:27Z</time>
      </trkpt>
      <trkpt lat="47.12998" lon="5.56183">
        <ele>217</ele>
        <time>2011-08-16T15:59:28Z</time>
      </trkpt>
      <trkpt lat="47.12989" lon="5.56179">
        <ele>217</ele>
        <time>2011-08-16T15:59:29Z</time>
      </trkpt>
      <trkpt lat="47.1298" lon="5.56176">
        <ele>217</ele>
        <time>2011-08-16T15:59:30Z</time>
      </trkpt>
      <trkpt lat="47.12971" lon="5.56173">
        <ele>217</ele>
        <time>2011-08-16T15:59:31Z</time>
      </trkpt>
      <trkpt lat="47.12962" lon="5.5617">
        <ele>212</ele>
        <time>2011-08-16T15:59:32Z</time>
      </trkpt>
      <trkpt lat="47.12953" lon="5.56166">
        <ele>212</ele>
        <time>2011-08-16T15:59:33Z</time>
      </trkpt>
      <trkpt lat="47.12945" lon="5.56162">
        <ele>212</ele>
        <time>2011-08-16T15:59:34Z</time>
      </trkpt>
      <trkpt lat="47.12935" lon="5.56159">
        <ele>212</ele>
        <time>2011-08-16T15:59:35Z</time>
      </trkpt>
      <trkpt lat="47.12919" lon="5.5615">
        <ele>212</ele>
        <time>2011-08-16T15:59:37Z</time>
      </trkpt>
      <trkpt lat="47.12907" lon="5.56135">
        <ele>212</ele>
        <time>2011-08-16T15:59:39Z</time>
      </trkpt>
      <trkpt lat="47.12895" lon="5.5612">
        <ele>212</ele>
        <time>2011-08-16T15:59:41Z</time>
      </trkpt>
      <trkpt lat="47.12883" lon="5.56108">
        <ele>212</ele>
        <time>2011-08-16T15:59:43Z</time>
      </trkpt>
      <trkpt lat="47.1287" lon="5.56105">
        <ele>212</ele>
        <time>2011-08-16T15:59:45Z</time>
      </trkpt>
      <trkpt lat="47.12858" lon="5.56106">
        <ele>212</ele>
        <time>2011-08-16T15:59:47Z</time>
      </trkpt>
      <trkpt lat="47.12845" lon="5.56106">
        <ele>212</ele>
        <time>2011-08-16T15:59:49Z</time>
      </trkpt>
      <trkpt lat="47.12832" lon="5.56114">
        <ele>212</ele>
        <time>2011-08-16T15:59:51Z</time>
      </trkpt>
      <trkpt lat="47.12823" lon="5.56132">
        <ele>212</ele>
        <time>2011-08-16T15:59:53Z</time>
      </trkpt>
      <trkpt lat="47.12815" lon="5.56151">
        <ele>212</ele>
        <time>2011-08-16T15:59:55Z</time>
      </trkpt>
      <trkpt lat="47.12802" lon="5.56161">
        <ele>212</ele>
        <time>2011-08-16T15:59:57Z</time>
      </trkpt>
      <trkpt lat="47.12785" lon="5.56165">
        <ele>212</ele>
        <time>2011-08-16T15:59:59Z</time>
      </trkpt>
      <trkpt lat="47.12767" lon="5.56168">
        <ele>212</ele>
        <time>2011-08-16T16:00:01Z</time>
      </trkpt>
      <trkpt lat="47.12758" lon="5.56169">
        <ele>212</ele>
        <time>2011-08-16T16:00:02Z</time>
      </trkpt>
      <trkpt lat="47.12748" lon="5.5617">
        <ele>212</ele>
        <time>2011-08-16T16:00:03Z</time>
      </trkpt>
      <trkpt lat="47.12739" lon="5.56171">
        <ele>212</ele>
        <time>2011-08-16T16:00:04Z</time>
      </trkpt>
      <trkpt lat="47.12729" lon="5.56172">
        <ele>212</ele>
        <time>2011-08-16T16:00:05Z</time>
      </trkpt>
      <trkpt lat="47.1272" lon="5.56173">
        <ele>212</ele>
        <time>2011-08-16T16:00:06Z</time>
      </trkpt>
      <trkpt lat="47.1271" lon="5.56174">
        <ele>212</ele>
        <time>2011-08-16T16:00:07Z</time>
      </trkpt>
      <trkpt lat="47.12701" lon="5.56175">
        <ele>212</ele>
        <time>2011-08-16T16:00:08Z</time>
      </trkpt>
      <trkpt lat="47.12692" lon="5.56176">
        <ele>212</ele>
        <time>2011-08-16T16:00:09Z</time>
      </trkpt>
      <trkpt lat="47.12683" lon="5.56177">
        <ele>212</ele>
        <time>2011-08-16T16:00:10Z</time>
      </trkpt>
      <trkpt lat="47.12674" lon="5.56178">
        <ele>212</ele>
        <time>2011-08-16T16:00:11Z</time>
      </trkpt>
      <trkpt lat="47.12655" lon="5.5618">
        <ele>212</ele>
        <time>2011-08-16T16:00:13Z</time>
      </trkpt>
      <trkpt lat="47.12637" lon="5.56181">
        <ele>212</ele>
        <time>2011-08-16T16:00:15Z</time>
      </trkpt>
      <trkpt lat="47.12628" lon="5.56181">
        <ele>212</ele>
        <time>2011-08-16T16:00:16Z</time>
      </trkpt>
      <trkpt lat="47.12611" lon="5.56182">
        <ele>212</ele>
        <time>2011-08-16T16:00:18Z</time>
      </trkpt>
      <trkpt lat="47.12593" lon="5.56181">
        <ele>212</ele>
        <time>2011-08-16T16:00:20Z</time>
      </trkpt>
      <trkpt lat="47.12577" lon="5.56181">
        <ele>212</ele>
        <time>2011-08-16T16:00:22Z</time>
      </trkpt>
      <trkpt lat="47.12561" lon="5.56178">
        <ele>212</ele>
        <time>2011-08-16T16:00:24Z</time>
      </trkpt>
      <trkpt lat="47.12545" lon="5.56174">
        <ele>212</ele>
        <time>2011-08-16T16:00:26Z</time>
      </trkpt>
      <trkpt lat="47.12529" lon="5.56169">
        <ele>212</ele>
        <time>2011-08-16T16:00:28Z</time>
      </trkpt>
      <trkpt lat="47.12514" lon="5.56163">
        <ele>212</ele>
        <time>2011-08-16T16:00:30Z</time>
      </trkpt>
      <trkpt lat="47.12499" lon="5.5616">
        <ele>212</ele>
        <time>2011-08-16T16:00:32Z</time>
      </trkpt>
      <trkpt lat="47.12485" lon="5.56155">
        <ele>212</ele>
        <time>2011-08-16T16:00:34Z</time>
      </trkpt>
      <trkpt lat="47.12473" lon="5.56152">
        <ele>212</ele>
        <time>2011-08-16T16:00:36Z</time>
      </trkpt>
      <trkpt lat="47.12463" lon="5.56151">
        <ele>212</ele>
        <time>2011-08-16T16:00:38Z</time>
      </trkpt>
      <trkpt lat="47.12452" lon="5.56148">
        <ele>212</ele>
        <time>2011-08-16T16:00:41Z</time>
      </trkpt>
      <trkpt lat="47.12442" lon="5.56149">
        <ele>217</ele>
        <time>2011-08-16T16:00:44Z</time>
      </trkpt>
      <trkpt lat="47.12433" lon="5.56149">
        <ele>217</ele>
        <time>2011-08-16T16:00:51Z</time>
      </trkpt>
      <trkpt lat="47.1244" lon="5.56158">
        <ele>212</ele>
        <time>2011-08-16T16:02:06Z</time>
      </trkpt>
      <trkpt lat="47.12436" lon="5.56171">
        <ele>212</ele>
        <time>2011-08-16T16:02:16Z</time>
      </trkpt>
      <trkpt lat="47.12431" lon="5.56183">
        <ele>212</ele>
        <time>2011-08-16T16:02:20Z</time>
      </trkpt>
      <trkpt lat="47.12431" lon="5.56199">
        <ele>218</ele>
        <time>2011-08-16T16:02:24Z</time>
      </trkpt>
      <trkpt lat="47.12423" lon="5.56211">
        <ele>218</ele>
        <time>2011-08-16T16:02:27Z</time>
      </trkpt>
      <trkpt lat="47.12414" lon="5.56217">
        <ele>225</ele>
        <time>2011-08-16T16:02:30Z</time>
      </trkpt>
      <trkpt lat="47.12404" lon="5.56222">
        <ele>235</ele>
        <time>2011-08-16T16:02:33Z</time>
      </trkpt>
      <trkpt lat="47.12395" lon="5.56223">
        <ele>245</ele>
        <time>2011-08-16T16:02:36Z</time>
      </trkpt>
      <trkpt lat="47.12385" lon="5.56227">
        <ele>245</ele>
        <time>2011-08-16T16:02:40Z</time>
      </trkpt>
      <trkpt lat="47.12387" lon="5.56241">
        <ele>245</ele>
        <time>2011-08-16T16:02:43Z</time>
      </trkpt>
      <trkpt lat="47.1238" lon="5.56249">
        <ele>235</ele>
        <time>2011-08-16T16:02:45Z</time>
      </trkpt>
      <trkpt lat="47.12369" lon="5.56245">
        <ele>228</ele>
        <time>2011-08-16T16:02:48Z</time>
      </trkpt>
      <trkpt lat="47.12359" lon="5.56238">
        <ele>228</ele>
        <time>2011-08-16T16:02:51Z</time>
      </trkpt>
      <trkpt lat="47.12348" lon="5.56224">
        <ele>222</ele>
        <time>2011-08-16T16:02:54Z</time>
      </trkpt>
      <trkpt lat="47.12341" lon="5.56215">
        <ele>222</ele>
        <time>2011-08-16T16:02:56Z</time>
      </trkpt>
      <trkpt lat="47.12331" lon="5.56203">
        <ele>222</ele>
        <time>2011-08-16T16:02:59Z</time>
      </trkpt>
      <trkpt lat="47.12324" lon="5.56193">
        <ele>222</ele>
        <time>2011-08-16T16:03:01Z</time>
      </trkpt>
      <trkpt lat="47.12317" lon="5.56183">
        <ele>215</ele>
        <time>2011-08-16T16:03:03Z</time>
      </trkpt>
      <trkpt lat="47.1231" lon="5.56173">
        <ele>215</ele>
        <time>2011-08-16T16:03:05Z</time>
      </trkpt>
      <trkpt lat="47.12303" lon="5.56164">
        <ele>215</ele>
        <time>2011-08-16T16:03:07Z</time>
      </trkpt>
      <trkpt lat="47.12296" lon="5.56154">
        <ele>215</ele>
        <time>2011-08-16T16:03:09Z</time>
      </trkpt>
      <trkpt lat="47.12288" lon="5.56144">
        <ele>215</ele>
        <time>2011-08-16T16:03:11Z</time>
      </trkpt>
      <trkpt lat="47.12281" lon="5.56135">
        <ele>215</ele>
        <time>2011-08-16T16:03:13Z</time>
      </trkpt>
      <trkpt lat="47.12274" lon="5.56125">
        <ele>215</ele>
        <time>2011-08-16T16:03:15Z</time>
      </trkpt>
      <trkpt lat="47.12267" lon="5.56116">
        <ele>215</ele>
        <time>2011-08-16T16:03:17Z</time>
      </trkpt>
      <trkpt lat="47.1226" lon="5.56105">
        <ele>215</ele>
        <time>2011-08-16T16:03:19Z</time>
      </trkpt>
      <trkpt lat="47.12252" lon="5.56092">
        <ele>210</ele>
        <time>2011-08-16T16:03:21Z</time>
      </trkpt>
      <trkpt lat="47.12244" lon="5.56081">
        <ele>210</ele>
        <time>2011-08-16T16:03:23Z</time>
      </trkpt>
      <trkpt lat="47.12236" lon="5.56072">
        <ele>210</ele>
        <time>2011-08-16T16:03:25Z</time>
      </trkpt>
      <trkpt lat="47.12228" lon="5.56061">
        <ele>210</ele>
        <time>2011-08-16T16:03:27Z</time>
      </trkpt>
      <trkpt lat="47.12219" lon="5.56051">
        <ele>210</ele>
        <time>2011-08-16T16:03:29Z</time>
      </trkpt>
      <trkpt lat="47.12211" lon="5.5604">
        <ele>210</ele>
        <time>2011-08-16T16:03:31Z</time>
      </trkpt>
      <trkpt lat="47.12202" lon="5.56029">
        <ele>210</ele>
        <time>2011-08-16T16:03:33Z</time>
      </trkpt>
      <trkpt lat="47.12194" lon="5.56017">
        <ele>210</ele>
        <time>2011-08-16T16:03:35Z</time>
      </trkpt>
      <trkpt lat="47.12185" lon="5.56004">
        <ele>210</ele>
        <time>2011-08-16T16:03:37Z</time>
      </trkpt>
      <trkpt lat="47.12176" lon="5.55991">
        <ele>210</ele>
        <time>2011-08-16T16:03:39Z</time>
      </trkpt>
      <trkpt lat="47.12166" lon="5.55976">
        <ele>210</ele>
        <time>2011-08-16T16:03:41Z</time>
      </trkpt>
      <trkpt lat="47.12158" lon="5.55964">
        <ele>210</ele>
        <time>2011-08-16T16:03:43Z</time>
      </trkpt>
      <trkpt lat="47.12149" lon="5.55949">
        <ele>210</ele>
        <time>2011-08-16T16:03:45Z</time>
      </trkpt>
      <trkpt lat="47.12139" lon="5.55936">
        <ele>210</ele>
        <time>2011-08-16T16:03:47Z</time>
      </trkpt>
      <trkpt lat="47.12129" lon="5.55924">
        <ele>210</ele>
        <time>2011-08-16T16:03:49Z</time>
      </trkpt>
      <trkpt lat="47.12119" lon="5.55912">
        <ele>210</ele>
        <time>2011-08-16T16:03:51Z</time>
      </trkpt>
      <trkpt lat="47.1211" lon="5.55899">
        <ele>210</ele>
        <time>2011-08-16T16:03:53Z</time>
      </trkpt>
      <trkpt lat="47.12101" lon="5.55886">
        <ele>210</ele>
        <time>2011-08-16T16:03:55Z</time>
      </trkpt>
      <trkpt lat="47.12092" lon="5.55874">
        <ele>210</ele>
        <time>2011-08-16T16:03:57Z</time>
      </trkpt>
      <trkpt lat="47.12084" lon="5.55861">
        <ele>210</ele>
        <time>2011-08-16T16:03:59Z</time>
      </trkpt>
      <trkpt lat="47.12075" lon="5.55849">
        <ele>210</ele>
        <time>2011-08-16T16:04:01Z</time>
      </trkpt>
      <trkpt lat="47.12065" lon="5.55836">
        <ele>210</ele>
        <time>2011-08-16T16:04:03Z</time>
      </trkpt>
      <trkpt lat="47.12055" lon="5.55825">
        <ele>210</ele>
        <time>2011-08-16T16:04:05Z</time>
      </trkpt>
      <trkpt lat="47.12046" lon="5.55811">
        <ele>210</ele>
        <time>2011-08-16T16:04:07Z</time>
      </trkpt>
      <trkpt lat="47.12036" lon="5.55798">
        <ele>210</ele>
        <time>2011-08-16T16:04:09Z</time>
      </trkpt>
      <trkpt lat="47.12027" lon="5.55784">
        <ele>210</ele>
        <time>2011-08-16T16:04:11Z</time>
      </trkpt>
      <trkpt lat="47.12018" lon="5.55771">
        <ele>210</ele>
        <time>2011-08-16T16:04:13Z</time>
      </trkpt>
      <trkpt lat="47.12008" lon="5.55756">
        <ele>210</ele>
        <time>2011-08-16T16:04:15Z</time>
      </trkpt>
      <trkpt lat="47.11999" lon="5.55742">
        <ele>210</ele>
        <time>2011-08-16T16:04:17Z</time>
      </trkpt>
      <trkpt lat="47.11989" lon="5.55728">
        <ele>210</ele>
        <time>2011-08-16T16:04:19Z</time>
      </trkpt>
      <trkpt lat="47.11979" lon="5.55715">
        <ele>210</ele>
        <time>2011-08-16T16:04:21Z</time>
      </trkpt>
      <trkpt lat="47.1197" lon="5.55702">
        <ele>210</ele>
        <time>2011-08-16T16:04:23Z</time>
      </trkpt>
      <trkpt lat="47.1196" lon="5.55689">
        <ele>210</ele>
        <time>2011-08-16T16:04:25Z</time>
      </trkpt>
      <trkpt lat="47.1195" lon="5.55676">
        <ele>210</ele>
        <time>2011-08-16T16:04:27Z</time>
      </trkpt>
      <trkpt lat="47.11941" lon="5.55663">
        <ele>210</ele>
        <time>2011-08-16T16:04:29Z</time>
      </trkpt>
      <trkpt lat="47.11931" lon="5.5565">
        <ele>210</ele>
        <time>2011-08-16T16:04:31Z</time>
      </trkpt>
      <trkpt lat="47.11922" lon="5.55636">
        <ele>210</ele>
        <time>2011-08-16T16:04:33Z</time>
      </trkpt>
      <trkpt lat="47.11913" lon="5.55622">
        <ele>210</ele>
        <time>2011-08-16T16:04:35Z</time>
      </trkpt>
      <trkpt lat="47.11903" lon="5.55608">
        <ele>210</ele>
        <time>2011-08-16T16:04:37Z</time>
      </trkpt>
      <trkpt lat="47.11893" lon="5.55595">
        <ele>210</ele>
        <time>2011-08-16T16:04:39Z</time>
      </trkpt>
      <trkpt lat="47.11883" lon="5.5558">
        <ele>210</ele>
        <time>2011-08-16T16:04:41Z</time>
      </trkpt>
      <trkpt lat="47.11873" lon="5.55565">
        <ele>210</ele>
        <time>2011-08-16T16:04:43Z</time>
      </trkpt>
      <trkpt lat="47.11864" lon="5.55551">
        <ele>210</ele>
        <time>2011-08-16T16:04:45Z</time>
      </trkpt>
      <trkpt lat="47.11853" lon="5.55536">
        <ele>210</ele>
        <time>2011-08-16T16:04:47Z</time>
      </trkpt>
      <trkpt lat="47.11843" lon="5.55523">
        <ele>210</ele>
        <time>2011-08-16T16:04:49Z</time>
      </trkpt>
      <trkpt lat="47.11833" lon="5.55508">
        <ele>210</ele>
        <time>2011-08-16T16:04:51Z</time>
      </trkpt>
      <trkpt lat="47.11822" lon="5.55494">
        <ele>210</ele>
        <time>2011-08-16T16:04:53Z</time>
      </trkpt>
      <trkpt lat="47.11812" lon="5.5548">
        <ele>210</ele>
        <time>2011-08-16T16:04:55Z</time>
      </trkpt>
      <trkpt lat="47.11802" lon="5.55464">
        <ele>210</ele>
        <time>2011-08-16T16:04:57Z</time>
      </trkpt>
      <trkpt lat="47.11791" lon="5.5545">
        <ele>210</ele>
        <time>2011-08-16T16:04:59Z</time>
      </trkpt>
      <trkpt lat="47.11781" lon="5.55436">
        <ele>210</ele>
        <time>2011-08-16T16:05:01Z</time>
      </trkpt>
      <trkpt lat="47.1177" lon="5.5542">
        <ele>210</ele>
        <time>2011-08-16T16:05:03Z</time>
      </trkpt>
      <trkpt lat="47.11759" lon="5.55405">
        <ele>210</ele>
        <time>2011-08-16T16:05:05Z</time>
      </trkpt>
      <trkpt lat="47.1175" lon="5.5539">
        <ele>210</ele>
        <time>2011-08-16T16:05:07Z</time>
      </trkpt>
      <trkpt lat="47.11738" lon="5.55374">
        <ele>210</ele>
        <time>2011-08-16T16:05:09Z</time>
      </trkpt>
      <trkpt lat="47.11727" lon="5.5536">
        <ele>210</ele>
        <time>2011-08-16T16:05:11Z</time>
      </trkpt>
      <trkpt lat="47.11716" lon="5.55345">
        <ele>210</ele>
        <time>2011-08-16T16:05:13Z</time>
      </trkpt>
      <trkpt lat="47.11706" lon="5.5533">
        <ele>210</ele>
        <time>2011-08-16T16:05:15Z</time>
      </trkpt>
      <trkpt lat="47.11695" lon="5.55314">
        <ele>210</ele>
        <time>2011-08-16T16:05:17Z</time>
      </trkpt>
      <trkpt lat="47.11685" lon="5.55298">
        <ele>210</ele>
        <time>2011-08-16T16:05:19Z</time>
      </trkpt>
      <trkpt lat="47.11673" lon="5.55284">
        <ele>210</ele>
        <time>2011-08-16T16:05:21Z</time>
      </trkpt>
      <trkpt lat="47.11662" lon="5.55268">
        <ele>210</ele>
        <time>2011-08-16T16:05:23Z</time>
      </trkpt>
      <trkpt lat="47.11651" lon="5.55253">
        <ele>210</ele>
        <time>2011-08-16T16:05:25Z</time>
      </trkpt>
      <trkpt lat="47.1164" lon="5.55237">
        <ele>210</ele>
        <time>2011-08-16T16:05:27Z</time>
      </trkpt>
      <trkpt lat="47.1163" lon="5.5522">
        <ele>210</ele>
        <time>2011-08-16T16:05:29Z</time>
      </trkpt>
      <trkpt lat="47.11618" lon="5.55204">
        <ele>210</ele>
        <time>2011-08-16T16:05:31Z</time>
      </trkpt>
      <trkpt lat="47.11607" lon="5.55189">
        <ele>210</ele>
        <time>2011-08-16T16:05:33Z</time>
      </trkpt>
      <trkpt lat="47.11596" lon="5.55172">
        <ele>210</ele>
        <time>2011-08-16T16:05:35Z</time>
      </trkpt>
      <trkpt lat="47.11584" lon="5.55156">
        <ele>210</ele>
        <time>2011-08-16T16:05:37Z</time>
      </trkpt>
      <trkpt lat="47.11573" lon="5.5514">
        <ele>210</ele>
        <time>2011-08-16T16:05:39Z</time>
      </trkpt>
      <trkpt lat="47.11561" lon="5.55125">
        <ele>210</ele>
        <time>2011-08-16T16:05:41Z</time>
      </trkpt>
      <trkpt lat="47.1155" lon="5.55108">
        <ele>210</ele>
        <time>2011-08-16T16:05:43Z</time>
      </trkpt>
      <trkpt lat="47.11539" lon="5.55092">
        <ele>210</ele>
        <time>2011-08-16T16:05:45Z</time>
      </trkpt>
      <trkpt lat="47.11527" lon="5.55074">
        <ele>210</ele>
        <time>2011-08-16T16:05:47Z</time>
      </trkpt>
      <trkpt lat="47.11516" lon="5.55058">
        <ele>210</ele>
        <time>2011-08-16T16:05:49Z</time>
      </trkpt>
      <trkpt lat="47.11504" lon="5.55042">
        <ele>210</ele>
        <time>2011-08-16T16:05:51Z</time>
      </trkpt>
      <trkpt lat="47.11493" lon="5.55026">
        <ele>210</ele>
        <time>2011-08-16T16:05:53Z</time>
      </trkpt>
      <trkpt lat="47.11482" lon="5.55011">
        <ele>210</ele>
        <time>2011-08-16T16:05:55Z</time>
      </trkpt>
      <trkpt lat="47.1147" lon="5.54995">
        <ele>210</ele>
        <time>2011-08-16T16:05:57Z</time>
      </trkpt>
      <trkpt lat="47.11459" lon="5.54978">
        <ele>210</ele>
        <time>2011-08-16T16:05:59Z</time>
      </trkpt>
      <trkpt lat="47.11448" lon="5.54962">
        <ele>210</ele>
        <time>2011-08-16T16:06:01Z</time>
      </trkpt>
      <trkpt lat="47.11436" lon="5.54947">
        <ele>210</ele>
        <time>2011-08-16T16:06:03Z</time>
      </trkpt>
      <trkpt lat="47.11425" lon="5.54931">
        <ele>210</ele>
        <time>2011-08-16T16:06:05Z</time>
      </trkpt>
      <trkpt lat="47.11414" lon="5.54915">
        <ele>210</ele>
        <time>2011-08-16T16:06:07Z</time>
      </trkpt>
      <trkpt lat="47.11403" lon="5.54898">
        <ele>210</ele>
        <time>2011-08-16T16:06:09Z</time>
      </trkpt>
      <trkpt lat="47.11393" lon="5.54882">
        <ele>210</ele>
        <time>2011-08-16T16:06:11Z</time>
      </trkpt>
      <trkpt lat="47.11382" lon="5.54867">
        <ele>210</ele>
        <time>2011-08-16T16:06:13Z</time>
      </trkpt>
      <trkpt lat="47.1137" lon="5.54852">
        <ele>210</ele>
        <time>2011-08-16T16:06:15Z</time>
      </trkpt>
      <trkpt lat="47.11358" lon="5.54837">
        <ele>210</ele>
        <time>2011-08-16T16:06:17Z</time>
      </trkpt>
      <trkpt lat="47.11344" lon="5.54824">
        <ele>210</ele>
        <time>2011-08-16T16:06:19Z</time>
      </trkpt>
      <trkpt lat="47.11331" lon="5.54812">
        <ele>210</ele>
        <time>2011-08-16T16:06:21Z</time>
      </trkpt>
      <trkpt lat="47.11316" lon="5.54802">
        <ele>210</ele>
        <time>2011-08-16T16:06:23Z</time>
      </trkpt>
      <trkpt lat="47.11301" lon="5.54796">
        <ele>210</ele>
        <time>2011-08-16T16:06:25Z</time>
      </trkpt>
      <trkpt lat="47.11285" lon="5.54791">
        <ele>210</ele>
        <time>2011-08-16T16:06:27Z</time>
      </trkpt>
      <trkpt lat="47.11269" lon="5.54784">
        <ele>210</ele>
        <time>2011-08-16T16:06:29Z</time>
      </trkpt>
      <trkpt lat="47.11254" lon="5.5478">
        <ele>210</ele>
        <time>2011-08-16T16:06:31Z</time>
      </trkpt>
      <trkpt lat="47.11239" lon="5.54774">
        <ele>210</ele>
        <time>2011-08-16T16:06:33Z</time>
      </trkpt>
      <trkpt lat="47.11223" lon="5.54768">
        <ele>210</ele>
        <time>2011-08-16T16:06:35Z</time>
      </trkpt>
      <trkpt lat="47.11207" lon="5.54762">
        <ele>210</ele>
        <time>2011-08-16T16:06:37Z</time>
      </trkpt>
      <trkpt lat="47.11192" lon="5.54756">
        <ele>210</ele>
        <time>2011-08-16T16:06:39Z</time>
      </trkpt>
      <trkpt lat="47.11176" lon="5.54749">
        <ele>210</ele>
        <time>2011-08-16T16:06:41Z</time>
      </trkpt>
      <trkpt lat="47.11161" lon="5.54743">
        <ele>210</ele>
        <time>2011-08-16T16:06:43Z</time>
      </trkpt>
      <trkpt lat="47.11145" lon="5.54738">
        <ele>210</ele>
        <time>2011-08-16T16:06:45Z</time>
      </trkpt>
      <trkpt lat="47.1113" lon="5.54731">
        <ele>210</ele>
        <time>2011-08-16T16:06:47Z</time>
      </trkpt>
      <trkpt lat="47.11114" lon="5.54725">
        <ele>210</ele>
        <time>2011-08-16T16:06:49Z</time>
      </trkpt>
      <trkpt lat="47.11099" lon="5.5472">
        <ele>210</ele>
        <time>2011-08-16T16:06:51Z</time>
      </trkpt>
      <trkpt lat="47.11084" lon="5.54713">
        <ele>210</ele>
        <time>2011-08-16T16:06:53Z</time>
      </trkpt>
      <trkpt lat="47.11068" lon="5.54707">
        <ele>210</ele>
        <time>2011-08-16T16:06:55Z</time>
      </trkpt>
      <trkpt lat="47.11052" lon="5.54702">
        <ele>210</ele>
        <time>2011-08-16T16:06:57Z</time>
      </trkpt>
      <trkpt lat="47.11037" lon="5.54696">
        <ele>210</ele>
        <time>2011-08-16T16:06:59Z</time>
      </trkpt>
      <trkpt lat="47.11022" lon="5.5469">
        <ele>210</ele>
        <time>2011-08-16T16:07:01Z</time>
      </trkpt>
      <trkpt lat="47.11006" lon="5.54684">
        <ele>210</ele>
        <time>2011-08-16T16:07:03Z</time>
      </trkpt>
      <trkpt lat="47.1099" lon="5.54678">
        <ele>210</ele>
        <time>2011-08-16T16:07:05Z</time>
      </trkpt>
      <trkpt lat="47.10974" lon="5.54673">
        <ele>210</ele>
        <time>2011-08-16T16:07:07Z</time>
      </trkpt>
      <trkpt lat="47.10958" lon="5.54667">
        <ele>210</ele>
        <time>2011-08-16T16:07:09Z</time>
      </trkpt>
      <trkpt lat="47.10942" lon="5.5466">
        <ele>210</ele>
        <time>2011-08-16T16:07:11Z</time>
      </trkpt>
      <trkpt lat="47.10927" lon="5.54653">
        <ele>210</ele>
        <time>2011-08-16T16:07:13Z</time>
      </trkpt>
      <trkpt lat="47.10911" lon="5.54647">
        <ele>210</ele>
        <time>2011-08-16T16:07:15Z</time>
      </trkpt>
      <trkpt lat="47.10895" lon="5.54641">
        <ele>210</ele>
        <time>2011-08-16T16:07:17Z</time>
      </trkpt>
      <trkpt lat="47.10879" lon="5.54633">
        <ele>210</ele>
        <time>2011-08-16T16:07:19Z</time>
      </trkpt>
      <trkpt lat="47.10863" lon="5.54626">
        <ele>210</ele>
        <time>2011-08-16T16:07:21Z</time>
      </trkpt>
      <trkpt lat="47.10846" lon="5.5462">
        <ele>210</ele>
        <time>2011-08-16T16:07:23Z</time>
      </trkpt>
      <trkpt lat="47.1083" lon="5.54614">
        <ele>210</ele>
        <time>2011-08-16T16:07:25Z</time>
      </trkpt>
      <trkpt lat="47.10814" lon="5.54607">
        <ele>210</ele>
        <time>2011-08-16T16:07:27Z</time>
      </trkpt>
      <trkpt lat="47.10798" lon="5.54602">
        <ele>210</ele>
        <time>2011-08-16T16:07:29Z</time>
      </trkpt>
      <trkpt lat="47.10782" lon="5.54596">
        <ele>210</ele>
        <time>2011-08-16T16:07:31Z</time>
      </trkpt>
      <trkpt lat="47.10766" lon="5.5459">
        <ele>210</ele>
        <time>2011-08-16T16:07:33Z</time>
      </trkpt>
      <trkpt lat="47.1075" lon="5.54584">
        <ele>210</ele>
        <time>2011-08-16T16:07:35Z</time>
      </trkpt>
      <trkpt lat="47.10734" lon="5.54577">
        <ele>210</ele>
        <time>2011-08-16T16:07:37Z</time>
      </trkpt>
      <trkpt lat="47.10718" lon="5.5457">
        <ele>210</ele>
        <time>2011-08-16T16:07:39Z</time>
      </trkpt>
      <trkpt lat="47.10701" lon="5.54563">
        <ele>210</ele>
        <time>2011-08-16T16:07:41Z</time>
      </trkpt>
      <trkpt lat="47.10685" lon="5.54556">
        <ele>210</ele>
        <time>2011-08-16T16:07:43Z</time>
      </trkpt>
      <trkpt lat="47.10669" lon="5.5455">
        <ele>210</ele>
        <time>2011-08-16T16:07:45Z</time>
      </trkpt>
      <trkpt lat="47.10654" lon="5.54543">
        <ele>210</ele>
        <time>2011-08-16T16:07:47Z</time>
      </trkpt>
      <trkpt lat="47.10637" lon="5.54536">
        <ele>210</ele>
        <time>2011-08-16T16:07:49Z</time>
      </trkpt>
      <trkpt lat="47.10621" lon="5.5453">
        <ele>210</ele>
        <time>2011-08-16T16:07:51Z</time>
      </trkpt>
      <trkpt lat="47.10613" lon="5.54526">
        <ele>210</ele>
        <time>2011-08-16T16:07:52Z</time>
      </trkpt>
      <trkpt lat="47.10598" lon="5.54521">
        <ele>210</ele>
        <time>2011-08-16T16:07:54Z</time>
      </trkpt>
      <trkpt lat="47.10582" lon="5.54514">
        <ele>210</ele>
        <time>2011-08-16T16:07:56Z</time>
      </trkpt>
      <trkpt lat="47.10566" lon="5.54508">
        <ele>210</ele>
        <time>2011-08-16T16:07:58Z</time>
      </trkpt>
      <trkpt lat="47.1055" lon="5.54501">
        <ele>210</ele>
        <time>2011-08-16T16:08:00Z</time>
      </trkpt>
      <trkpt lat="47.10534" lon="5.54495">
        <ele>210</ele>
        <time>2011-08-16T16:08:02Z</time>
      </trkpt>
      <trkpt lat="47.10518" lon="5.54489">
        <ele>210</ele>
        <time>2011-08-16T16:08:04Z</time>
      </trkpt>
      <trkpt lat="47.10502" lon="5.54482">
        <ele>210</ele>
        <time>2011-08-16T16:08:06Z</time>
      </trkpt>
      <trkpt lat="47.10486" lon="5.54475">
        <ele>210</ele>
        <time>2011-08-16T16:08:08Z</time>
      </trkpt>
      <trkpt lat="47.1047" lon="5.54468">
        <ele>210</ele>
        <time>2011-08-16T16:08:10Z</time>
      </trkpt>
      <trkpt lat="47.10454" lon="5.54462">
        <ele>210</ele>
        <time>2011-08-16T16:08:12Z</time>
      </trkpt>
      <trkpt lat="47.10438" lon="5.54456">
        <ele>210</ele>
        <time>2011-08-16T16:08:14Z</time>
      </trkpt>
      <trkpt lat="47.10422" lon="5.54449">
        <ele>210</ele>
        <time>2011-08-16T16:08:16Z</time>
      </trkpt>
      <trkpt lat="47.10413" lon="5.54446">
        <ele>210</ele>
        <time>2011-08-16T16:08:17Z</time>
      </trkpt>
      <trkpt lat="47.10397" lon="5.54439">
        <ele>210</ele>
        <time>2011-08-16T16:08:19Z</time>
      </trkpt>
      <trkpt lat="47.10381" lon="5.54432">
        <ele>210</ele>
        <time>2011-08-16T16:08:21Z</time>
      </trkpt>
      <trkpt lat="47.10364" lon="5.54427">
        <ele>210</ele>
        <time>2011-08-16T16:08:23Z</time>
      </trkpt>
      <trkpt lat="47.10348" lon="5.5442">
        <ele>210</ele>
        <time>2011-08-16T16:08:25Z</time>
      </trkpt>
      <trkpt lat="47.10332" lon="5.54413">
        <ele>210</ele>
        <time>2011-08-16T16:08:27Z</time>
      </trkpt>
      <trkpt lat="47.10316" lon="5.54406">
        <ele>210</ele>
        <time>2011-08-16T16:08:29Z</time>
      </trkpt>
      <trkpt lat="47.103" lon="5.544">
        <ele>210</ele>
        <time>2011-08-16T16:08:31Z</time>
      </trkpt>
      <trkpt lat="47.10291" lon="5.54396">
        <ele>210</ele>
        <time>2011-08-16T16:08:32Z</time>
      </trkpt>
      <trkpt lat="47.10283" lon="5.54393">
        <ele>210</ele>
        <time>2011-08-16T16:08:33Z</time>
      </trkpt>
      <trkpt lat="47.10274" lon="5.54389">
        <ele>210</ele>
        <time>2011-08-16T16:08:34Z</time>
      </trkpt>
      <trkpt lat="47.10265" lon="5.54385">
        <ele>210</ele>
        <time>2011-08-16T16:08:35Z</time>
      </trkpt>
      <trkpt lat="47.10249" lon="5.54379">
        <ele>210</ele>
        <time>2011-08-16T16:08:37Z</time>
      </trkpt>
      <trkpt lat="47.10233" lon="5.54373">
        <ele>210</ele>
        <time>2011-08-16T16:08:39Z</time>
      </trkpt>
      <trkpt lat="47.10216" lon="5.54367">
        <ele>210</ele>
        <time>2011-08-16T16:08:41Z</time>
      </trkpt>
      <trkpt lat="47.102" lon="5.5436">
        <ele>210</ele>
        <time>2011-08-16T16:08:43Z</time>
      </trkpt>
      <trkpt lat="47.10183" lon="5.54353">
        <ele>210</ele>
        <time>2011-08-16T16:08:45Z</time>
      </trkpt>
      <trkpt lat="47.10167" lon="5.54348">
        <ele>210</ele>
        <time>2011-08-16T16:08:47Z</time>
      </trkpt>
      <trkpt lat="47.10158" lon="5.54344">
        <ele>210</ele>
        <time>2011-08-16T16:08:48Z</time>
      </trkpt>
      <trkpt lat="47.10142" lon="5.54338">
        <ele>210</ele>
        <time>2011-08-16T16:08:50Z</time>
      </trkpt>
      <trkpt lat="47.10133" lon="5.54334">
        <ele>210</ele>
        <time>2011-08-16T16:08:51Z</time>
      </trkpt>
      <trkpt lat="47.10118" lon="5.54328">
        <ele>210</ele>
        <time>2011-08-16T16:08:53Z</time>
      </trkpt>
      <trkpt lat="47.10109" lon="5.54323">
        <ele>210</ele>
        <time>2011-08-16T16:08:54Z</time>
      </trkpt>
      <trkpt lat="47.101" lon="5.5432">
        <ele>210</ele>
        <time>2011-08-16T16:08:55Z</time>
      </trkpt>
      <trkpt lat="47.10084" lon="5.54312">
        <ele>210</ele>
        <time>2011-08-16T16:08:57Z</time>
      </trkpt>
      <trkpt lat="47.10068" lon="5.54303">
        <ele>210</ele>
        <time>2011-08-16T16:08:59Z</time>
      </trkpt>
      <trkpt lat="47.10053" lon="5.54293">
        <ele>210</ele>
        <time>2011-08-16T16:09:01Z</time>
      </trkpt>
      <trkpt lat="47.10045" lon="5.54287">
        <ele>210</ele>
        <time>2011-08-16T16:09:02Z</time>
      </trkpt>
      <trkpt lat="47.1003" lon="5.54275">
        <ele>210</ele>
        <time>2011-08-16T16:09:04Z</time>
      </trkpt>
      <trkpt lat="47.10016" lon="5.54263">
        <ele>210</ele>
        <time>2011-08-16T16:09:06Z</time>
      </trkpt>
      <trkpt lat="47.10001" lon="5.54252">
        <ele>210</ele>
        <time>2011-08-16T16:09:08Z</time>
      </trkpt>
      <trkpt lat="47.09986" lon="5.54241">
        <ele>210</ele>
        <time>2011-08-16T16:09:10Z</time>
      </trkpt>
      <trkpt lat="47.09972" lon="5.54226">
        <ele>210</ele>
        <time>2011-08-16T16:09:12Z</time>
      </trkpt>
      <trkpt lat="47.09957" lon="5.54212">
        <ele>210</ele>
        <time>2011-08-16T16:09:14Z</time>
      </trkpt>
      <trkpt lat="47.09943" lon="5.54197">
        <ele>210</ele>
        <time>2011-08-16T16:09:16Z</time>
      </trkpt>
      <trkpt lat="47.09936" lon="5.54189">
        <ele>210</ele>
        <time>2011-08-16T16:09:17Z</time>
      </trkpt>
      <trkpt lat="47.09922" lon="5.54172">
        <ele>210</ele>
        <time>2011-08-16T16:09:19Z</time>
      </trkpt>
      <trkpt lat="47.09916" lon="5.54163">
        <ele>210</ele>
        <time>2011-08-16T16:09:20Z</time>
      </trkpt>
      <trkpt lat="47.09909" lon="5.54153">
        <ele>210</ele>
        <time>2011-08-16T16:09:21Z</time>
      </trkpt>
      <trkpt lat="47.09896" lon="5.54134">
        <ele>210</ele>
        <time>2011-08-16T16:09:23Z</time>
      </trkpt>
      <trkpt lat="47.09889" lon="5.54123">
        <ele>210</ele>
        <time>2011-08-16T16:09:24Z</time>
      </trkpt>
      <trkpt lat="47.09883" lon="5.54113">
        <ele>210</ele>
        <time>2011-08-16T16:09:25Z</time>
      </trkpt>
      <trkpt lat="47.09876" lon="5.54103">
        <ele>210</ele>
        <time>2011-08-16T16:09:26Z</time>
      </trkpt>
      <trkpt lat="47.09871" lon="5.54093">
        <ele>210</ele>
        <time>2011-08-16T16:09:27Z</time>
      </trkpt>
      <trkpt lat="47.09865" lon="5.54082">
        <ele>210</ele>
        <time>2011-08-16T16:09:28Z</time>
      </trkpt>
      <trkpt lat="47.0986" lon="5.5407">
        <ele>210</ele>
        <time>2011-08-16T16:09:29Z</time>
      </trkpt>
      <trkpt lat="47.09854" lon="5.54058">
        <ele>210</ele>
        <time>2011-08-16T16:09:30Z</time>
      </trkpt>
      <trkpt lat="47.09849" lon="5.54047">
        <ele>210</ele>
        <time>2011-08-16T16:09:31Z</time>
      </trkpt>
      <trkpt lat="47.09843" lon="5.54035">
        <ele>210</ele>
        <time>2011-08-16T16:09:32Z</time>
      </trkpt>
      <trkpt lat="47.09838" lon="5.54023">
        <ele>210</ele>
        <time>2011-08-16T16:09:33Z</time>
      </trkpt>
      <trkpt lat="47.09832" lon="5.54013">
        <ele>210</ele>
        <time>2011-08-16T16:09:34Z</time>
      </trkpt>
      <trkpt lat="47.09827" lon="5.54">
        <ele>210</ele>
        <time>2011-08-16T16:09:35Z</time>
      </trkpt>
      <trkpt lat="47.09822" lon="5.53987">
        <ele>210</ele>
        <time>2011-08-16T16:09:36Z</time>
      </trkpt>
      <trkpt lat="47.09818" lon="5.53975">
        <ele>210</ele>
        <time>2011-08-16T16:09:37Z</time>
      </trkpt>
      <trkpt lat="47.09814" lon="5.53962">
        <ele>210</ele>
        <time>2011-08-16T16:09:38Z</time>
      </trkpt>
      <trkpt lat="47.0981" lon="5.53949">
        <ele>210</ele>
        <time>2011-08-16T16:09:39Z</time>
      </trkpt>
      <trkpt lat="47.09805" lon="5.53936">
        <ele>210</ele>
        <time>2011-08-16T16:09:40Z</time>
      </trkpt>
      <trkpt lat="47.09797" lon="5.53914">
        <ele>210</ele>
        <time>2011-08-16T16:09:42Z</time>
      </trkpt>
      <trkpt lat="47.09789" lon="5.5389">
        <ele>210</ele>
        <time>2011-08-16T16:09:44Z</time>
      </trkpt>
      <trkpt lat="47.09786" lon="5.53877">
        <ele>210</ele>
        <time>2011-08-16T16:09:45Z</time>
      </trkpt>
      <trkpt lat="47.0978" lon="5.53854">
        <ele>210</ele>
        <time>2011-08-16T16:09:47Z</time>
      </trkpt>
      <trkpt lat="47.09774" lon="5.5383">
        <ele>210</ele>
        <time>2011-08-16T16:09:49Z</time>
      </trkpt>
      <trkpt lat="47.09767" lon="5.5381">
        <ele>210</ele>
        <time>2011-08-16T16:09:51Z</time>
      </trkpt>
      <trkpt lat="47.0976" lon="5.53789">
        <ele>210</ele>
        <time>2011-08-16T16:09:53Z</time>
      </trkpt>
      <trkpt lat="47.09757" lon="5.53772">
        <ele>210</ele>
        <time>2011-08-16T16:09:55Z</time>
      </trkpt>
      <trkpt lat="47.09759" lon="5.53759">
        <ele>210</ele>
        <time>2011-08-16T16:09:57Z</time>
      </trkpt>
      <trkpt lat="47.09759" lon="5.53745">
        <ele>210</ele>
        <time>2011-08-16T16:10:02Z</time>
      </trkpt>
      <trkpt lat="47.09756" lon="5.53731">
        <ele>210</ele>
        <time>2011-08-16T16:10:05Z</time>
      </trkpt>
      <trkpt lat="47.09753" lon="5.53718">
        <ele>210</ele>
        <time>2011-08-16T16:10:07Z</time>
      </trkpt>
      <trkpt lat="47.09748" lon="5.53699">
        <ele>210</ele>
        <time>2011-08-16T16:10:10Z</time>
      </trkpt>
      <trkpt lat="47.09744" lon="5.53685">
        <ele>210</ele>
        <time>2011-08-16T16:10:12Z</time>
      </trkpt>
      <trkpt lat="47.0974" lon="5.53669">
        <ele>210</ele>
        <time>2011-08-16T16:10:14Z</time>
      </trkpt>
      <trkpt lat="47.09737" lon="5.53653">
        <ele>210</ele>
        <time>2011-08-16T16:10:16Z</time>
      </trkpt>
      <trkpt lat="47.09733" lon="5.53637">
        <ele>210</ele>
        <time>2011-08-16T16:10:18Z</time>
      </trkpt>
      <trkpt lat="47.0973" lon="5.53619">
        <ele>210</ele>
        <time>2011-08-16T16:10:20Z</time>
      </trkpt>
      <trkpt lat="47.09726" lon="5.536">
        <ele>210</ele>
        <time>2011-08-16T16:10:22Z</time>
      </trkpt>
      <trkpt lat="47.09722" lon="5.53581">
        <ele>210</ele>
        <time>2011-08-16T16:10:24Z</time>
      </trkpt>
      <trkpt lat="47.09718" lon="5.53561">
        <ele>210</ele>
        <time>2011-08-16T16:10:26Z</time>
      </trkpt>
      <trkpt lat="47.09713" lon="5.53541">
        <ele>210</ele>
        <time>2011-08-16T16:10:28Z</time>
      </trkpt>
      <trkpt lat="47.09708" lon="5.5352">
        <ele>210</ele>
        <time>2011-08-16T16:10:30Z</time>
      </trkpt>
      <trkpt lat="47.09704" lon="5.535">
        <ele>210</ele>
        <time>2011-08-16T16:10:32Z</time>
      </trkpt>
      <trkpt lat="47.09699" lon="5.5348">
        <ele>210</ele>
        <time>2011-08-16T16:10:34Z</time>
      </trkpt>
      <trkpt lat="47.09695" lon="5.53457">
        <ele>210</ele>
        <time>2011-08-16T16:10:36Z</time>
      </trkpt>
      <trkpt lat="47.09689" lon="5.53435">
        <ele>210</ele>
        <time>2011-08-16T16:10:38Z</time>
      </trkpt>
      <trkpt lat="47.09684" lon="5.53415">
        <ele>210</ele>
        <time>2011-08-16T16:10:40Z</time>
      </trkpt>
      <trkpt lat="47.0968" lon="5.53392">
        <ele>210</ele>
        <time>2011-08-16T16:10:42Z</time>
      </trkpt>
      <trkpt lat="47.09675" lon="5.53371">
        <ele>210</ele>
        <time>2011-08-16T16:10:44Z</time>
      </trkpt>
      <trkpt lat="47.09672" lon="5.53349">
        <ele>210</ele>
        <time>2011-08-16T16:10:46Z</time>
      </trkpt>
      <trkpt lat="47.09669" lon="5.53325">
        <ele>210</ele>
        <time>2011-08-16T16:10:48Z</time>
      </trkpt>
      <trkpt lat="47.09665" lon="5.53305">
        <ele>210</ele>
        <time>2011-08-16T16:10:50Z</time>
      </trkpt>
      <trkpt lat="47.09662" lon="5.53282">
        <ele>210</ele>
        <time>2011-08-16T16:10:52Z</time>
      </trkpt>
      <trkpt lat="47.09657" lon="5.5326">
        <ele>210</ele>
        <time>2011-08-16T16:10:54Z</time>
      </trkpt>
      <trkpt lat="47.09653" lon="5.53238">
        <ele>210</ele>
        <time>2011-08-16T16:10:56Z</time>
      </trkpt>
      <trkpt lat="47.09648" lon="5.53219">
        <ele>210</ele>
        <time>2011-08-16T16:10:58Z</time>
      </trkpt>
      <trkpt lat="47.09642" lon="5.53199">
        <ele>210</ele>
        <time>2011-08-16T16:11:00Z</time>
      </trkpt>
      <trkpt lat="47.09635" lon="5.53183">
        <ele>210</ele>
        <time>2011-08-16T16:11:02Z</time>
      </trkpt>
      <trkpt lat="47.09629" lon="5.53167">
        <ele>210</ele>
        <time>2011-08-16T16:11:04Z</time>
      </trkpt>
      <trkpt lat="47.09624" lon="5.5315">
        <ele>210</ele>
        <time>2011-08-16T16:11:06Z</time>
      </trkpt>
      <trkpt lat="47.09624" lon="5.53137">
        <ele>210</ele>
        <time>2011-08-16T16:11:07Z</time>
      </trkpt>
      <trkpt lat="47.09621" lon="5.53111">
        <ele>210</ele>
        <time>2011-08-16T16:11:09Z</time>
      </trkpt>
      <trkpt lat="47.09618" lon="5.53086">
        <ele>210</ele>
        <time>2011-08-16T16:11:11Z</time>
      </trkpt>
      <trkpt lat="47.09614" lon="5.53062">
        <ele>210</ele>
        <time>2011-08-16T16:11:13Z</time>
      </trkpt>
      <trkpt lat="47.0961" lon="5.53037">
        <ele>210</ele>
        <time>2011-08-16T16:11:15Z</time>
      </trkpt>
      <trkpt lat="47.09605" lon="5.53014">
        <ele>210</ele>
        <time>2011-08-16T16:11:17Z</time>
      </trkpt>
      <trkpt lat="47.09602" lon="5.52991">
        <ele>210</ele>
        <time>2011-08-16T16:11:19Z</time>
      </trkpt>
      <trkpt lat="47.09595" lon="5.52971">
        <ele>210</ele>
        <time>2011-08-16T16:11:21Z</time>
      </trkpt>
      <trkpt lat="47.09591" lon="5.5295">
        <ele>210</ele>
        <time>2011-08-16T16:11:23Z</time>
      </trkpt>
      <trkpt lat="47.09586" lon="5.52927">
        <ele>210</ele>
        <time>2011-08-16T16:11:25Z</time>
      </trkpt>
      <trkpt lat="47.09584" lon="5.52913">
        <ele>210</ele>
        <time>2011-08-16T16:11:26Z</time>
      </trkpt>
      <trkpt lat="47.0958" lon="5.52889">
        <ele>210</ele>
        <time>2011-08-16T16:11:28Z</time>
      </trkpt>
      <trkpt lat="47.09576" lon="5.52864">
        <ele>210</ele>
        <time>2011-08-16T16:11:30Z</time>
      </trkpt>
      <trkpt lat="47.09575" lon="5.5285">
        <ele>210</ele>
        <time>2011-08-16T16:11:31Z</time>
      </trkpt>
      <trkpt lat="47.09569" lon="5.52828">
        <ele>210</ele>
        <time>2011-08-16T16:11:33Z</time>
      </trkpt>
      <trkpt lat="47.09563" lon="5.52806">
        <ele>210</ele>
        <time>2011-08-16T16:11:35Z</time>
      </trkpt>
      <trkpt lat="47.09561" lon="5.52794">
        <ele>210</ele>
        <time>2011-08-16T16:11:36Z</time>
      </trkpt>
      <trkpt lat="47.09557" lon="5.5277">
        <ele>210</ele>
        <time>2011-08-16T16:11:38Z</time>
      </trkpt>
      <trkpt lat="47.09551" lon="5.52749">
        <ele>210</ele>
        <time>2011-08-16T16:11:40Z</time>
      </trkpt>
      <trkpt lat="47.09549" lon="5.52725">
        <ele>210</ele>
        <time>2011-08-16T16:11:42Z</time>
      </trkpt>
      <trkpt lat="47.09547" lon="5.52706">
        <ele>210</ele>
        <time>2011-08-16T16:11:44Z</time>
      </trkpt>
      <trkpt lat="47.09546" lon="5.52692">
        <ele>210</ele>
        <time>2011-08-16T16:11:46Z</time>
      </trkpt>
      <trkpt lat="47.09541" lon="5.5268">
        <ele>210</ele>
        <time>2011-08-16T16:11:51Z</time>
      </trkpt>
      <trkpt lat="47.09533" lon="5.52684">
        <ele>210</ele>
        <time>2011-08-16T16:11:55Z</time>
      </trkpt>
      <trkpt lat="47.09523" lon="5.52685">
        <ele>210</ele>
        <time>2011-08-16T16:11:58Z</time>
      </trkpt>
      <trkpt lat="47.09516" lon="5.52667">
        <ele>210</ele>
        <time>2011-08-16T16:12:01Z</time>
      </trkpt>
      <trkpt lat="47.09511" lon="5.52645">
        <ele>210</ele>
        <time>2011-08-16T16:12:03Z</time>
      </trkpt>
      <trkpt lat="47.09507" lon="5.52623">
        <ele>210</ele>
        <time>2011-08-16T16:12:05Z</time>
      </trkpt>
      <trkpt lat="47.09503" lon="5.526">
        <ele>210</ele>
        <time>2011-08-16T16:12:07Z</time>
      </trkpt>
      <trkpt lat="47.09499" lon="5.52577">
        <ele>210</ele>
        <time>2011-08-16T16:12:09Z</time>
      </trkpt>
      <trkpt lat="47.09494" lon="5.52555">
        <ele>210</ele>
        <time>2011-08-16T16:12:11Z</time>
      </trkpt>
      <trkpt lat="47.09491" lon="5.52531">
        <ele>210</ele>
        <time>2011-08-16T16:12:13Z</time>
      </trkpt>
      <trkpt lat="47.09486" lon="5.52508">
        <ele>210</ele>
        <time>2011-08-16T16:12:15Z</time>
      </trkpt>
      <trkpt lat="47.09483" lon="5.52495">
        <ele>210</ele>
        <time>2011-08-16T16:12:16Z</time>
      </trkpt>
      <trkpt lat="47.09478" lon="5.52472">
        <ele>210</ele>
        <time>2011-08-16T16:12:18Z</time>
      </trkpt>
      <trkpt lat="47.09473" lon="5.52448">
        <ele>210</ele>
        <time>2011-08-16T16:12:20Z</time>
      </trkpt>
      <trkpt lat="47.09471" lon="5.52435">
        <ele>210</ele>
        <time>2011-08-16T16:12:21Z</time>
      </trkpt>
      <trkpt lat="47.09465" lon="5.52411">
        <ele>210</ele>
        <time>2011-08-16T16:12:23Z</time>
      </trkpt>
      <trkpt lat="47.09461" lon="5.52387">
        <ele>210</ele>
        <time>2011-08-16T16:12:25Z</time>
      </trkpt>
      <trkpt lat="47.09455" lon="5.52363">
        <ele>210</ele>
        <time>2011-08-16T16:12:27Z</time>
      </trkpt>
      <trkpt lat="47.0945" lon="5.52341">
        <ele>210</ele>
        <time>2011-08-16T16:12:29Z</time>
      </trkpt>
      <trkpt lat="47.09445" lon="5.52319">
        <ele>210</ele>
        <time>2011-08-16T16:12:31Z</time>
      </trkpt>
      <trkpt lat="47.09441" lon="5.52299">
        <ele>210</ele>
        <time>2011-08-16T16:12:33Z</time>
      </trkpt>
      <trkpt lat="47.09437" lon="5.52278">
        <ele>210</ele>
        <time>2011-08-16T16:12:35Z</time>
      </trkpt>
      <trkpt lat="47.09433" lon="5.52256">
        <ele>210</ele>
        <time>2011-08-16T16:12:37Z</time>
      </trkpt>
      <trkpt lat="47.09428" lon="5.52236">
        <ele>210</ele>
        <time>2011-08-16T16:12:39Z</time>
      </trkpt>
      <trkpt lat="47.09424" lon="5.52216">
        <ele>210</ele>
        <time>2011-08-16T16:12:41Z</time>
      </trkpt>
      <trkpt lat="47.09419" lon="5.52194">
        <ele>210</ele>
        <time>2011-08-16T16:12:43Z</time>
      </trkpt>
      <trkpt lat="47.09415" lon="5.52173">
        <ele>210</ele>
        <time>2011-08-16T16:12:45Z</time>
      </trkpt>
      <trkpt lat="47.0941" lon="5.52151">
        <ele>210</ele>
        <time>2011-08-16T16:12:47Z</time>
      </trkpt>
      <trkpt lat="47.09405" lon="5.52129">
        <ele>210</ele>
        <time>2011-08-16T16:12:49Z</time>
      </trkpt>
      <trkpt lat="47.09401" lon="5.52106">
        <ele>210</ele>
        <time>2011-08-16T16:12:51Z</time>
      </trkpt>
      <trkpt lat="47.09397" lon="5.52083">
        <ele>210</ele>
        <time>2011-08-16T16:12:53Z</time>
      </trkpt>
      <trkpt lat="47.09394" lon="5.5206">
        <ele>210</ele>
        <time>2011-08-16T16:12:55Z</time>
      </trkpt>
      <trkpt lat="47.09389" lon="5.52037">
        <ele>210</ele>
        <time>2011-08-16T16:12:57Z</time>
      </trkpt>
      <trkpt lat="47.09385" lon="5.52015">
        <ele>210</ele>
        <time>2011-08-16T16:12:59Z</time>
      </trkpt>
      <trkpt lat="47.09381" lon="5.51992">
        <ele>210</ele>
        <time>2011-08-16T16:13:01Z</time>
      </trkpt>
      <trkpt lat="47.09378" lon="5.5198">
        <ele>210</ele>
        <time>2011-08-16T16:13:02Z</time>
      </trkpt>
      <trkpt lat="47.09373" lon="5.51957">
        <ele>210</ele>
        <time>2011-08-16T16:13:04Z</time>
      </trkpt>
      <trkpt lat="47.09368" lon="5.51934">
        <ele>210</ele>
        <time>2011-08-16T16:13:06Z</time>
      </trkpt>
      <trkpt lat="47.09364" lon="5.51911">
        <ele>210</ele>
        <time>2011-08-16T16:13:08Z</time>
      </trkpt>
      <trkpt lat="47.09359" lon="5.51888">
        <ele>210</ele>
        <time>2011-08-16T16:13:10Z</time>
      </trkpt>
      <trkpt lat="47.09355" lon="5.51865">
        <ele>210</ele>
        <time>2011-08-16T16:13:12Z</time>
      </trkpt>
      <trkpt lat="47.0935" lon="5.51842">
        <ele>210</ele>
        <time>2011-08-16T16:13:14Z</time>
      </trkpt>
      <trkpt lat="47.09346" lon="5.51823">
        <ele>210</ele>
        <time>2011-08-16T16:13:16Z</time>
      </trkpt>
      <trkpt lat="47.09342" lon="5.51801">
        <ele>210</ele>
        <time>2011-08-16T16:13:18Z</time>
      </trkpt>
      <trkpt lat="47.09338" lon="5.51779">
        <ele>210</ele>
        <time>2011-08-16T16:13:20Z</time>
      </trkpt>
      <trkpt lat="47.09334" lon="5.51757">
        <ele>210</ele>
        <time>2011-08-16T16:13:22Z</time>
      </trkpt>
      <trkpt lat="47.0933" lon="5.51734">
        <ele>210</ele>
        <time>2011-08-16T16:13:24Z</time>
      </trkpt>
      <trkpt lat="47.09325" lon="5.51711">
        <ele>210</ele>
        <time>2011-08-16T16:13:26Z</time>
      </trkpt>
      <trkpt lat="47.09321" lon="5.5169">
        <ele>210</ele>
        <time>2011-08-16T16:13:28Z</time>
      </trkpt>
      <trkpt lat="47.09315" lon="5.51667">
        <ele>210</ele>
        <time>2011-08-16T16:13:30Z</time>
      </trkpt>
      <trkpt lat="47.0931" lon="5.51644">
        <ele>210</ele>
        <time>2011-08-16T16:13:32Z</time>
      </trkpt>
      <trkpt lat="47.09304" lon="5.51621">
        <ele>210</ele>
        <time>2011-08-16T16:13:34Z</time>
      </trkpt>
      <trkpt lat="47.09299" lon="5.516">
        <ele>210</ele>
        <time>2011-08-16T16:13:36Z</time>
      </trkpt>
      <trkpt lat="47.09295" lon="5.51576">
        <ele>210</ele>
        <time>2011-08-16T16:13:38Z</time>
      </trkpt>
      <trkpt lat="47.09292" lon="5.51555">
        <ele>210</ele>
        <time>2011-08-16T16:13:40Z</time>
      </trkpt>
      <trkpt lat="47.0929" lon="5.51531">
        <ele>210</ele>
        <time>2011-08-16T16:13:42Z</time>
      </trkpt>
      <trkpt lat="47.09286" lon="5.51507">
        <ele>210</ele>
        <time>2011-08-16T16:13:44Z</time>
      </trkpt>
      <trkpt lat="47.09284" lon="5.51486">
        <ele>210</ele>
        <time>2011-08-16T16:13:46Z</time>
      </trkpt>
      <trkpt lat="47.09283" lon="5.51467">
        <ele>210</ele>
        <time>2011-08-16T16:13:48Z</time>
      </trkpt>
      <trkpt lat="47.09281" lon="5.51448">
        <ele>210</ele>
        <time>2011-08-16T16:13:50Z</time>
      </trkpt>
      <trkpt lat="47.0928" lon="5.51429">
        <ele>210</ele>
        <time>2011-08-16T16:13:52Z</time>
      </trkpt>
      <trkpt lat="47.09281" lon="5.51409">
        <ele>210</ele>
        <time>2011-08-16T16:13:54Z</time>
      </trkpt>
      <trkpt lat="47.0928" lon="5.51389">
        <ele>210</ele>
        <time>2011-08-16T16:13:56Z</time>
      </trkpt>
      <trkpt lat="47.09278" lon="5.51369">
        <ele>210</ele>
        <time>2011-08-16T16:13:58Z</time>
      </trkpt>
      <trkpt lat="47.09276" lon="5.51349">
        <ele>210</ele>
        <time>2011-08-16T16:14:00Z</time>
      </trkpt>
      <trkpt lat="47.09274" lon="5.51331">
        <ele>210</ele>
        <time>2011-08-16T16:14:02Z</time>
      </trkpt>
      <trkpt lat="47.09272" lon="5.51313">
        <ele>210</ele>
        <time>2011-08-16T16:14:04Z</time>
      </trkpt>
      <trkpt lat="47.09269" lon="5.51294">
        <ele>210</ele>
        <time>2011-08-16T16:14:06Z</time>
      </trkpt>
      <trkpt lat="47.09269" lon="5.51274">
        <ele>210</ele>
        <time>2011-08-16T16:14:08Z</time>
      </trkpt>
      <trkpt lat="47.09272" lon="5.51252">
        <ele>210</ele>
        <time>2011-08-16T16:14:10Z</time>
      </trkpt>
      <trkpt lat="47.09275" lon="5.5123">
        <ele>210</ele>
        <time>2011-08-16T16:14:12Z</time>
      </trkpt>
      <trkpt lat="47.09277" lon="5.51209">
        <ele>210</ele>
        <time>2011-08-16T16:14:14Z</time>
      </trkpt>
      <trkpt lat="47.0928" lon="5.51187">
        <ele>210</ele>
        <time>2011-08-16T16:14:16Z</time>
      </trkpt>
      <trkpt lat="47.09281" lon="5.51166">
        <ele>210</ele>
        <time>2011-08-16T16:14:18Z</time>
      </trkpt>
      <trkpt lat="47.09283" lon="5.51145">
        <ele>210</ele>
        <time>2011-08-16T16:14:20Z</time>
      </trkpt>
      <trkpt lat="47.09284" lon="5.51125">
        <ele>210</ele>
        <time>2011-08-16T16:14:22Z</time>
      </trkpt>
      <trkpt lat="47.09286" lon="5.51104">
        <ele>210</ele>
        <time>2011-08-16T16:14:24Z</time>
      </trkpt>
      <trkpt lat="47.09286" lon="5.51084">
        <ele>210</ele>
        <time>2011-08-16T16:14:26Z</time>
      </trkpt>
      <trkpt lat="47.09283" lon="5.51063">
        <ele>210</ele>
        <time>2011-08-16T16:14:28Z</time>
      </trkpt>
      <trkpt lat="47.0928" lon="5.51044">
        <ele>210</ele>
        <time>2011-08-16T16:14:30Z</time>
      </trkpt>
      <trkpt lat="47.09281" lon="5.51023">
        <ele>210</ele>
        <time>2011-08-16T16:14:32Z</time>
      </trkpt>
      <trkpt lat="47.09283" lon="5.51002">
        <ele>210</ele>
        <time>2011-08-16T16:14:34Z</time>
      </trkpt>
      <trkpt lat="47.09285" lon="5.50983">
        <ele>210</ele>
        <time>2011-08-16T16:14:36Z</time>
      </trkpt>
      <trkpt lat="47.09288" lon="5.50963">
        <ele>210</ele>
        <time>2011-08-16T16:14:38Z</time>
      </trkpt>
      <trkpt lat="47.09291" lon="5.50942">
        <ele>210</ele>
        <time>2011-08-16T16:14:40Z</time>
      </trkpt>
      <trkpt lat="47.09293" lon="5.50922">
        <ele>210</ele>
        <time>2011-08-16T16:14:42Z</time>
      </trkpt>
      <trkpt lat="47.09294" lon="5.50904">
        <ele>210</ele>
        <time>2011-08-16T16:14:44Z</time>
      </trkpt>
      <trkpt lat="47.09298" lon="5.50887">
        <ele>210</ele>
        <time>2011-08-16T16:14:46Z</time>
      </trkpt>
      <trkpt lat="47.09305" lon="5.50869">
        <ele>210</ele>
        <time>2011-08-16T16:14:48Z</time>
      </trkpt>
      <trkpt lat="47.09311" lon="5.50855">
        <ele>210</ele>
        <time>2011-08-16T16:14:50Z</time>
      </trkpt>
      <trkpt lat="47.09318" lon="5.50843">
        <ele>210</ele>
        <time>2011-08-16T16:14:53Z</time>
      </trkpt>
      <trkpt lat="47.09311" lon="5.50833">
        <ele>210</ele>
        <time>2011-08-16T16:14:55Z</time>
      </trkpt>
      <trkpt lat="47.093" lon="5.50815">
        <ele>210</ele>
        <time>2011-08-16T16:14:57Z</time>
      </trkpt>
      <trkpt lat="47.09294" lon="5.508">
        <ele>210</ele>
        <time>2011-08-16T16:14:59Z</time>
      </trkpt>
      <trkpt lat="47.0929" lon="5.50782">
        <ele>217</ele>
        <time>2011-08-16T16:15:01Z</time>
      </trkpt>
      <trkpt lat="47.09292" lon="5.50757">
        <ele>217</ele>
        <time>2011-08-16T16:15:03Z</time>
      </trkpt>
      <trkpt lat="47.09294" lon="5.50733">
        <ele>217</ele>
        <time>2011-08-16T16:15:05Z</time>
      </trkpt>
      <trkpt lat="47.09297" lon="5.50708">
        <ele>217</ele>
        <time>2011-08-16T16:15:07Z</time>
      </trkpt>
      <trkpt lat="47.09299" lon="5.50683">
        <ele>217</ele>
        <time>2011-08-16T16:15:09Z</time>
      </trkpt>
      <trkpt lat="47.09302" lon="5.50657">
        <ele>217</ele>
        <time>2011-08-16T16:15:11Z</time>
      </trkpt>
      <trkpt lat="47.09303" lon="5.50633">
        <ele>217</ele>
        <time>2011-08-16T16:15:13Z</time>
      </trkpt>
      <trkpt lat="47.09305" lon="5.50609">
        <ele>217</ele>
        <time>2011-08-16T16:15:15Z</time>
      </trkpt>
      <trkpt lat="47.09302" lon="5.50586">
        <ele>217</ele>
        <time>2011-08-16T16:15:17Z</time>
      </trkpt>
      <trkpt lat="47.09302" lon="5.50563">
        <ele>217</ele>
        <time>2011-08-16T16:15:19Z</time>
      </trkpt>
      <trkpt lat="47.09303" lon="5.50541">
        <ele>217</ele>
        <time>2011-08-16T16:15:21Z</time>
      </trkpt>
      <trkpt lat="47.09304" lon="5.50519">
        <ele>217</ele>
        <time>2011-08-16T16:15:23Z</time>
      </trkpt>
      <trkpt lat="47.09305" lon="5.50498">
        <ele>217</ele>
        <time>2011-08-16T16:15:25Z</time>
      </trkpt>
      <trkpt lat="47.09307" lon="5.50475">
        <ele>211</ele>
        <time>2011-08-16T16:15:27Z</time>
      </trkpt>
      <trkpt lat="47.09303" lon="5.50455">
        <ele>211</ele>
        <time>2011-08-16T16:15:29Z</time>
      </trkpt>
      <trkpt lat="47.09296" lon="5.5044">
        <ele>211</ele>
        <time>2011-08-16T16:15:31Z</time>
      </trkpt>
      <trkpt lat="47.09287" lon="5.50434">
        <ele>211</ele>
        <time>2011-08-16T16:15:33Z</time>
      </trkpt>
      <trkpt lat="47.09288" lon="5.50418">
        <ele>211</ele>
        <time>2011-08-16T16:15:35Z</time>
      </trkpt>
      <trkpt lat="47.09295" lon="5.50404">
        <ele>211</ele>
        <time>2011-08-16T16:15:37Z</time>
      </trkpt>
      <trkpt lat="47.093" lon="5.5039">
        <ele>211</ele>
        <time>2011-08-16T16:15:39Z</time>
      </trkpt>
      <trkpt lat="47.09304" lon="5.50374">
        <ele>211</ele>
        <time>2011-08-16T16:15:41Z</time>
      </trkpt>
      <trkpt lat="47.09308" lon="5.50357">
        <ele>205</ele>
        <time>2011-08-16T16:15:43Z</time>
      </trkpt>
      <trkpt lat="47.09312" lon="5.50339">
        <ele>205</ele>
        <time>2011-08-16T16:15:45Z</time>
      </trkpt>
      <trkpt lat="47.09316" lon="5.50322">
        <ele>205</ele>
        <time>2011-08-16T16:15:47Z</time>
      </trkpt>
      <trkpt lat="47.09323" lon="5.50307">
        <ele>205</ele>
        <time>2011-08-16T16:15:49Z</time>
      </trkpt>
      <trkpt lat="47.09332" lon="5.50298">
        <ele>205</ele>
        <time>2011-08-16T16:15:51Z</time>
      </trkpt>
      <trkpt lat="47.09345" lon="5.50297">
        <ele>210</ele>
        <time>2011-08-16T16:15:54Z</time>
      </trkpt>
      <trkpt lat="47.09356" lon="5.50296">
        <ele>210</ele>
        <time>2011-08-16T16:15:57Z</time>
      </trkpt>
      <trkpt lat="47.09357" lon="5.50282">
        <ele>210</ele>
        <time>2011-08-16T16:16:00Z</time>
      </trkpt>
      <trkpt lat="47.09356" lon="5.50266">
        <ele>216</ele>
        <time>2011-08-16T16:16:02Z</time>
      </trkpt>
      <trkpt lat="47.09356" lon="5.50246">
        <ele>216</ele>
        <time>2011-08-16T16:16:04Z</time>
      </trkpt>
      <trkpt lat="47.09357" lon="5.50223">
        <ele>216</ele>
        <time>2011-08-16T16:16:06Z</time>
      </trkpt>
      <trkpt lat="47.09357" lon="5.50203">
        <ele>216</ele>
        <time>2011-08-16T16:16:08Z</time>
      </trkpt>
      <trkpt lat="47.09357" lon="5.50182">
        <ele>216</ele>
        <time>2011-08-16T16:16:10Z</time>
      </trkpt>
      <trkpt lat="47.09361" lon="5.50162">
        <ele>216</ele>
        <time>2011-08-16T16:16:12Z</time>
      </trkpt>
      <trkpt lat="47.09364" lon="5.5015">
        <ele>216</ele>
        <time>2011-08-16T16:16:13Z</time>
      </trkpt>
      <trkpt lat="47.09365" lon="5.50132">
        <ele>216</ele>
        <time>2011-08-16T16:16:15Z</time>
      </trkpt>
      <trkpt lat="47.09361" lon="5.50118">
        <ele>216</ele>
        <time>2011-08-16T16:16:17Z</time>
      </trkpt>
      <trkpt lat="47.0936" lon="5.50083">
        <ele>222</ele>
        <time>2011-08-16T16:16:21Z</time>
      </trkpt>
      <trkpt lat="47.09357" lon="5.50065">
        <ele>222</ele>
        <time>2011-08-16T16:16:23Z</time>
      </trkpt>
      <trkpt lat="47.09359" lon="5.50047">
        <ele>222</ele>
        <time>2011-08-16T16:16:25Z</time>
      </trkpt>
      <trkpt lat="47.09368" lon="5.50031">
        <ele>216</ele>
        <time>2011-08-16T16:16:27Z</time>
      </trkpt>
      <trkpt lat="47.09374" lon="5.5002">
        <ele>216</ele>
        <time>2011-08-16T16:16:31Z</time>
      </trkpt>
      <trkpt lat="47.09368" lon="5.5001">
        <ele>216</ele>
        <time>2011-08-16T16:19:49Z</time>
      </trkpt>
      <trkpt lat="47.09375" lon="5.49999">
        <ele>208</ele>
        <time>2011-08-16T16:21:12Z</time>
      </trkpt>
      <trkpt lat="47.09377" lon="5.49984">
        <ele>208</ele>
        <time>2011-08-16T16:21:16Z</time>
      </trkpt>
      <trkpt lat="47.09378" lon="5.4997">
        <ele>208</ele>
        <time>2011-08-16T16:21:19Z</time>
      </trkpt>
      <trkpt lat="47.09379" lon="5.49955">
        <ele>208</ele>
        <time>2011-08-16T16:21:22Z</time>
      </trkpt>
      <trkpt lat="47.09375" lon="5.49941">
        <ele>208</ele>
        <time>2011-08-16T16:21:25Z</time>
      </trkpt>
      <trkpt lat="47.0937" lon="5.49929">
        <ele>208</ele>
        <time>2011-08-16T16:21:28Z</time>
      </trkpt>
      <trkpt lat="47.09364" lon="5.49916">
        <ele>208</ele>
        <time>2011-08-16T16:21:32Z</time>
      </trkpt>
      <trkpt lat="47.0936" lon="5.49904">
        <ele>208</ele>
        <time>2011-08-16T16:21:38Z</time>
      </trkpt>
      <trkpt lat="47.0935" lon="5.49909">
        <ele>208</ele>
        <time>2011-08-16T16:21:46Z</time>
      </trkpt>
      <trkpt lat="47.09342" lon="5.49919">
        <ele>208</ele>
        <time>2011-08-16T16:21:49Z</time>
      </trkpt>
      <trkpt lat="47.09332" lon="5.4993">
        <ele>208</ele>
        <time>2011-08-16T16:21:52Z</time>
      </trkpt>
      <trkpt lat="47.09319" lon="5.49932">
        <ele>208</ele>
        <time>2011-08-16T16:21:55Z</time>
      </trkpt>
      <trkpt lat="47.0931" lon="5.49923">
        <ele>208</ele>
        <time>2011-08-16T16:21:57Z</time>
      </trkpt>
      <trkpt lat="47.093" lon="5.49911">
        <ele>208</ele>
        <time>2011-08-16T16:21:59Z</time>
      </trkpt>
      <trkpt lat="47.09292" lon="5.499">
        <ele>208</ele>
        <time>2011-08-16T16:22:01Z</time>
      </trkpt>
      <trkpt lat="47.09284" lon="5.49889">
        <ele>208</ele>
        <time>2011-08-16T16:22:03Z</time>
      </trkpt>
      <trkpt lat="47.09273" lon="5.49879">
        <ele>208</ele>
        <time>2011-08-16T16:22:05Z</time>
      </trkpt>
      <trkpt lat="47.09262" lon="5.49869">
        <ele>208</ele>
        <time>2011-08-16T16:22:07Z</time>
      </trkpt>
      <trkpt lat="47.09252" lon="5.4986">
        <ele>208</ele>
        <time>2011-08-16T16:22:09Z</time>
      </trkpt>
      <trkpt lat="47.09241" lon="5.4985">
        <ele>208</ele>
        <time>2011-08-16T16:22:11Z</time>
      </trkpt>
      <trkpt lat="47.0923" lon="5.49841">
        <ele>208</ele>
        <time>2011-08-16T16:22:13Z</time>
      </trkpt>
      <trkpt lat="47.09219" lon="5.49832">
        <ele>208</ele>
        <time>2011-08-16T16:22:15Z</time>
      </trkpt>
      <trkpt lat="47.09208" lon="5.49823">
        <ele>208</ele>
        <time>2011-08-16T16:22:17Z</time>
      </trkpt>
      <trkpt lat="47.09196" lon="5.49813">
        <ele>208</ele>
        <time>2011-08-16T16:22:19Z</time>
      </trkpt>
      <trkpt lat="47.09185" lon="5.49804">
        <ele>208</ele>
        <time>2011-08-16T16:22:21Z</time>
      </trkpt>
      <trkpt lat="47.09174" lon="5.49795">
        <ele>208</ele>
        <time>2011-08-16T16:22:23Z</time>
      </trkpt>
      <trkpt lat="47.09162" lon="5.49785">
        <ele>208</ele>
        <time>2011-08-16T16:22:25Z</time>
      </trkpt>
      <trkpt lat="47.09151" lon="5.49775">
        <ele>208</ele>
        <time>2011-08-16T16:22:27Z</time>
      </trkpt>
      <trkpt lat="47.09142" lon="5.49766">
        <ele>208</ele>
        <time>2011-08-16T16:22:29Z</time>
      </trkpt>
      <trkpt lat="47.0913" lon="5.49756">
        <ele>208</ele>
        <time>2011-08-16T16:22:31Z</time>
      </trkpt>
      <trkpt lat="47.09118" lon="5.49747">
        <ele>208</ele>
        <time>2011-08-16T16:22:33Z</time>
      </trkpt>
      <trkpt lat="47.09107" lon="5.49738">
        <ele>208</ele>
        <time>2011-08-16T16:22:35Z</time>
      </trkpt>
      <trkpt lat="47.09095" lon="5.49728">
        <ele>208</ele>
        <time>2011-08-16T16:22:37Z</time>
      </trkpt>
      <trkpt lat="47.09083" lon="5.49716">
        <ele>208</ele>
        <time>2011-08-16T16:22:39Z</time>
      </trkpt>
      <trkpt lat="47.09072" lon="5.49704">
        <ele>208</ele>
        <time>2011-08-16T16:22:41Z</time>
      </trkpt>
      <trkpt lat="47.0906" lon="5.49693">
        <ele>208</ele>
        <time>2011-08-16T16:22:43Z</time>
      </trkpt>
      <trkpt lat="47.09047" lon="5.49682">
        <ele>208</ele>
        <time>2011-08-16T16:22:45Z</time>
      </trkpt>
      <trkpt lat="47.09035" lon="5.49671">
        <ele>208</ele>
        <time>2011-08-16T16:22:47Z</time>
      </trkpt>
      <trkpt lat="47.09023" lon="5.49661">
        <ele>208</ele>
        <time>2011-08-16T16:22:49Z</time>
      </trkpt>
      <trkpt lat="47.09011" lon="5.49651">
        <ele>208</ele>
        <time>2011-08-16T16:22:51Z</time>
      </trkpt>
      <trkpt lat="47.09" lon="5.49641">
        <ele>208</ele>
        <time>2011-08-16T16:22:53Z</time>
      </trkpt>
      <trkpt lat="47.08988" lon="5.49631">
        <ele>208</ele>
        <time>2011-08-16T16:22:55Z</time>
      </trkpt>
      <trkpt lat="47.08978" lon="5.4962">
        <ele>208</ele>
        <time>2011-08-16T16:22:57Z</time>
      </trkpt>
      <trkpt lat="47.08968" lon="5.49608">
        <ele>208</ele>
        <time>2011-08-16T16:22:59Z</time>
      </trkpt>
      <trkpt lat="47.08958" lon="5.49595">
        <ele>208</ele>
        <time>2011-08-16T16:23:01Z</time>
      </trkpt>
      <trkpt lat="47.08948" lon="5.4958">
        <ele>208</ele>
        <time>2011-08-16T16:23:03Z</time>
      </trkpt>
      <trkpt lat="47.0894" lon="5.49565">
        <ele>208</ele>
        <time>2011-08-16T16:23:05Z</time>
      </trkpt>
      <trkpt lat="47.0893" lon="5.4955">
        <ele>208</ele>
        <time>2011-08-16T16:23:07Z</time>
      </trkpt>
      <trkpt lat="47.08921" lon="5.49533">
        <ele>208</ele>
        <time>2011-08-16T16:23:09Z</time>
      </trkpt>
      <trkpt lat="47.08915" lon="5.49513">
        <ele>208</ele>
        <time>2011-08-16T16:23:11Z</time>
      </trkpt>
      <trkpt lat="47.08912" lon="5.49492">
        <ele>208</ele>
        <time>2011-08-16T16:23:13Z</time>
      </trkpt>
      <trkpt lat="47.0891" lon="5.49473">
        <ele>208</ele>
        <time>2011-08-16T16:23:15Z</time>
      </trkpt>
      <trkpt lat="47.08909" lon="5.49453">
        <ele>208</ele>
        <time>2011-08-16T16:23:17Z</time>
      </trkpt>
      <trkpt lat="47.0891" lon="5.49435">
        <ele>208</ele>
        <time>2011-08-16T16:23:19Z</time>
      </trkpt>
      <trkpt lat="47.0891" lon="5.4942">
        <ele>208</ele>
        <time>2011-08-16T16:23:21Z</time>
      </trkpt>
      <trkpt lat="47.08911" lon="5.49402">
        <ele>208</ele>
        <time>2011-08-16T16:23:24Z</time>
      </trkpt>
      <trkpt lat="47.08902" lon="5.49389">
        <ele>208</ele>
        <time>2011-08-16T16:23:26Z</time>
      </trkpt>
      <trkpt lat="47.08893" lon="5.49372">
        <ele>208</ele>
        <time>2011-08-16T16:23:28Z</time>
      </trkpt>
      <trkpt lat="47.08887" lon="5.49357">
        <ele>216</ele>
        <time>2011-08-16T16:23:30Z</time>
      </trkpt>
      <trkpt lat="47.08882" lon="5.49342">
        <ele>216</ele>
        <time>2011-08-16T16:23:32Z</time>
      </trkpt>
      <trkpt lat="47.08875" lon="5.4933">
        <ele>225</ele>
        <time>2011-08-16T16:23:34Z</time>
      </trkpt>
      <trkpt lat="47.08872" lon="5.49312">
        <ele>225</ele>
        <time>2011-08-16T16:23:36Z</time>
      </trkpt>
      <trkpt lat="47.0887" lon="5.49294">
        <ele>225</ele>
        <time>2011-08-16T16:23:38Z</time>
      </trkpt>
      <trkpt lat="47.08876" lon="5.49279">
        <ele>225</ele>
        <time>2011-08-16T16:23:41Z</time>
      </trkpt>
      <trkpt lat="47.08881" lon="5.49263">
        <ele>219</ele>
        <time>2011-08-16T16:23:44Z</time>
      </trkpt>
      <trkpt lat="47.08875" lon="5.49248">
        <ele>219</ele>
        <time>2011-08-16T16:23:46Z</time>
      </trkpt>
      <trkpt lat="47.08868" lon="5.49232">
        <ele>219</ele>
        <time>2011-08-16T16:23:48Z</time>
      </trkpt>
      <trkpt lat="47.08861" lon="5.49217">
        <ele>219</ele>
        <time>2011-08-16T16:23:50Z</time>
      </trkpt>
      <trkpt lat="47.08853" lon="5.49203">
        <ele>219</ele>
        <time>2011-08-16T16:23:52Z</time>
      </trkpt>
      <trkpt lat="47.08846" lon="5.49191">
        <ele>219</ele>
        <time>2011-08-16T16:23:54Z</time>
      </trkpt>
      <trkpt lat="47.08837" lon="5.49182">
        <ele>213</ele>
        <time>2011-08-16T16:23:56Z</time>
      </trkpt>
      <trkpt lat="47.08827" lon="5.49175">
        <ele>213</ele>
        <time>2011-08-16T16:23:58Z</time>
      </trkpt>
      <trkpt lat="47.08816" lon="5.4917">
        <ele>213</ele>
        <time>2011-08-16T16:24:00Z</time>
      </trkpt>
      <trkpt lat="47.08807" lon="5.49164">
        <ele>213</ele>
        <time>2011-08-16T16:24:02Z</time>
      </trkpt>
      <trkpt lat="47.08795" lon="5.49158">
        <ele>213</ele>
        <time>2011-08-16T16:24:04Z</time>
      </trkpt>
      <trkpt lat="47.08786" lon="5.4915">
        <ele>213</ele>
        <time>2011-08-16T16:24:06Z</time>
      </trkpt>
      <trkpt lat="47.08775" lon="5.49142">
        <ele>213</ele>
        <time>2011-08-16T16:24:08Z</time>
      </trkpt>
      <trkpt lat="47.08764" lon="5.4913">
        <ele>213</ele>
        <time>2011-08-16T16:24:10Z</time>
      </trkpt>
      <trkpt lat="47.08754" lon="5.49119">
        <ele>213</ele>
        <time>2011-08-16T16:24:12Z</time>
      </trkpt>
      <trkpt lat="47.08745" lon="5.49107">
        <ele>213</ele>
        <time>2011-08-16T16:24:14Z</time>
      </trkpt>
      <trkpt lat="47.08737" lon="5.49093">
        <ele>213</ele>
        <time>2011-08-16T16:24:16Z</time>
      </trkpt>
      <trkpt lat="47.08731" lon="5.49079">
        <ele>213</ele>
        <time>2011-08-16T16:24:18Z</time>
      </trkpt>
      <trkpt lat="47.08726" lon="5.49064">
        <ele>213</ele>
        <time>2011-08-16T16:24:20Z</time>
      </trkpt>
      <trkpt lat="47.08721" lon="5.49049">
        <ele>213</ele>
        <time>2011-08-16T16:24:22Z</time>
      </trkpt>
      <trkpt lat="47.08715" lon="5.49036">
        <ele>208</ele>
        <time>2011-08-16T16:24:24Z</time>
      </trkpt>
      <trkpt lat="47.08709" lon="5.49023">
        <ele>208</ele>
        <time>2011-08-16T16:24:26Z</time>
      </trkpt>
      <trkpt lat="47.08703" lon="5.49011">
        <ele>208</ele>
        <time>2011-08-16T16:24:28Z</time>
      </trkpt>
      <trkpt lat="47.08696" lon="5.48997">
        <ele>208</ele>
        <time>2011-08-16T16:24:30Z</time>
      </trkpt>
      <trkpt lat="47.0869" lon="5.48982">
        <ele>208</ele>
        <time>2011-08-16T16:24:32Z</time>
      </trkpt>
      <trkpt lat="47.08684" lon="5.48969">
        <ele>208</ele>
        <time>2011-08-16T16:24:34Z</time>
      </trkpt>
      <trkpt lat="47.08678" lon="5.48953">
        <ele>208</ele>
        <time>2011-08-16T16:24:36Z</time>
      </trkpt>
    </trkseg>
  </trk>
</gpx>